<?xml version="1.0" encoding="UTF-8" standalone="no" ?>
<gpx xmlns="http://www.topografix.com/GPX/1/1" xmlns:xsi="http://www.w3.org/2001/XMLSchema-instance" xsi:schemaLocation="http://www.topografix.com/GPX/1/1 http://www.topografix.com/GPX/1/1/gpx.xsd" version="1.1" creator="VisuGPX - https://www.visugpx.com">
  <metadata>
    <name>Léouvé /La Croix-sur-Roudoule /Léouvé</name>
    <desc><![CDATA[Parcours assez roulant au milieu de paysage magnifique, on évolue juste sous le parcours des clues d''Amen
Départ un peu avant le village de Léouvé, monté par la route puis piste.
Belle descente qui ramène sur la piste que l'on emprunte partiellement sur le parcours des clues d'Amen, sauf que dans ce cas on va la prendre jusqu'au bout avant le recroiser le parcours des clues d'Amen. 
Aux 2 barraques au lieu de prendre le sentier à droite, on prend à gauche un sentier technique avec localement du gaz restant ludique pourvu qu'on ait le niveau et les watts pour passer les obstacles... au col on prend à droite la belle descente sur la Croix de roudoule, d'où l'on rejoindra le point de départ par une piste puis un sentier terminant au pied de la voiture.]]></desc>
  </metadata>
  <trk>
    <name><![CDATA[Léouvé /La Croix-sur-Roudoule Cyclisme]]></name>
    <trkseg>
      <trkpt lat="44.00181" lon="6.87444">
        <ele>758.40002441406</ele>
        <time>2020-09-12T07:44:44.000Z</time>
      </trkpt>
      <trkpt lat="44.00182" lon="6.87446">
        <ele>758.40002441406</ele>
        <time>2020-09-12T07:44:51.000Z</time>
      </trkpt>
      <trkpt lat="44.00182" lon="6.87445">
        <ele>757.59997558594</ele>
        <time>2020-09-12T07:45:01.000Z</time>
      </trkpt>
      <trkpt lat="44.00183" lon="6.87445">
        <ele>757.40002441406</ele>
        <time>2020-09-12T07:45:06.000Z</time>
      </trkpt>
      <trkpt lat="44.00183" lon="6.87445">
        <ele>757.40002441406</ele>
        <time>2020-09-12T07:45:07.000Z</time>
      </trkpt>
      <trkpt lat="44.00183" lon="6.87443">
        <ele>756.59997558594</ele>
        <time>2020-09-12T07:45:19.000Z</time>
      </trkpt>
      <trkpt lat="44.00183" lon="6.87442">
        <ele>757.20001220703</ele>
        <time>2020-09-12T07:45:27.000Z</time>
      </trkpt>
      <trkpt lat="44.00182" lon="6.87443">
        <ele>757.79998779297</ele>
        <time>2020-09-12T07:45:37.000Z</time>
      </trkpt>
      <trkpt lat="44.00179" lon="6.87439">
        <ele>758.20001220703</ele>
        <time>2020-09-12T07:45:46.000Z</time>
      </trkpt>
      <trkpt lat="44.00178" lon="6.87435">
        <ele>758</ele>
        <time>2020-09-12T07:45:54.000Z</time>
      </trkpt>
      <trkpt lat="44.00177" lon="6.87434">
        <ele>758.20001220703</ele>
        <time>2020-09-12T07:46:05.000Z</time>
      </trkpt>
      <trkpt lat="44.00178" lon="6.87432">
        <ele>758.20001220703</ele>
        <time>2020-09-12T07:46:14.000Z</time>
      </trkpt>
      <trkpt lat="44.00178" lon="6.87434">
        <ele>758</ele>
        <time>2020-09-12T07:46:23.000Z</time>
      </trkpt>
      <trkpt lat="44.00178" lon="6.87434">
        <ele>758.40002441406</ele>
        <time>2020-09-12T07:46:25.000Z</time>
      </trkpt>
      <trkpt lat="44.00178" lon="6.87432">
        <ele>758.20001220703</ele>
        <time>2020-09-12T07:46:31.000Z</time>
      </trkpt>
      <trkpt lat="44.00178" lon="6.87431">
        <ele>758.20001220703</ele>
        <time>2020-09-12T07:46:36.000Z</time>
      </trkpt>
      <trkpt lat="44.00179" lon="6.8743">
        <ele>758</ele>
        <time>2020-09-12T07:46:45.000Z</time>
      </trkpt>
      <trkpt lat="44.00181" lon="6.87434">
        <ele>758</ele>
        <time>2020-09-12T07:46:51.000Z</time>
      </trkpt>
      <trkpt lat="44.00184" lon="6.87436">
        <ele>757.79998779297</ele>
        <time>2020-09-12T07:46:58.000Z</time>
      </trkpt>
      <trkpt lat="44.00186" lon="6.87439">
        <ele>758</ele>
        <time>2020-09-12T07:47:04.000Z</time>
      </trkpt>
      <trkpt lat="44.00185" lon="6.87446">
        <ele>758</ele>
        <time>2020-09-12T07:47:19.000Z</time>
      </trkpt>
      <trkpt lat="44.00185" lon="6.87452">
        <ele>757.79998779297</ele>
        <time>2020-09-12T07:47:29.000Z</time>
      </trkpt>
      <trkpt lat="44.00184" lon="6.87455">
        <ele>757.40002441406</ele>
        <time>2020-09-12T07:47:37.000Z</time>
      </trkpt>
      <trkpt lat="44.00184" lon="6.87453">
        <ele>757.20001220703</ele>
        <time>2020-09-12T07:47:43.000Z</time>
      </trkpt>
      <trkpt lat="44.00183" lon="6.87452">
        <ele>758</ele>
        <time>2020-09-12T07:47:49.000Z</time>
      </trkpt>
      <trkpt lat="44.00182" lon="6.87457">
        <ele>758</ele>
        <time>2020-09-12T07:47:55.000Z</time>
      </trkpt>
      <trkpt lat="44.00182" lon="6.8746">
        <ele>758.20001220703</ele>
        <time>2020-09-12T07:48:01.000Z</time>
      </trkpt>
      <trkpt lat="44.00182" lon="6.8746">
        <ele>758.40002441406</ele>
        <time>2020-09-12T07:48:03.000Z</time>
      </trkpt>
      <trkpt lat="44.00182" lon="6.87463">
        <ele>758.20001220703</ele>
        <time>2020-09-12T07:48:20.000Z</time>
      </trkpt>
      <trkpt lat="44.0018" lon="6.87463">
        <ele>758.40002441406</ele>
        <time>2020-09-12T07:48:34.000Z</time>
      </trkpt>
      <trkpt lat="44.00179" lon="6.8746">
        <ele>758</ele>
        <time>2020-09-12T07:48:39.000Z</time>
      </trkpt>
      <trkpt lat="44.00179" lon="6.87458">
        <ele>758</ele>
        <time>2020-09-12T07:48:44.000Z</time>
      </trkpt>
      <trkpt lat="44.0018" lon="6.87456">
        <ele>757.79998779297</ele>
        <time>2020-09-12T07:48:53.000Z</time>
      </trkpt>
      <trkpt lat="44.0018" lon="6.87453">
        <ele>758</ele>
        <time>2020-09-12T07:49:05.000Z</time>
      </trkpt>
      <trkpt lat="44.00181" lon="6.87451">
        <ele>758</ele>
        <time>2020-09-12T07:49:15.000Z</time>
      </trkpt>
      <trkpt lat="44.00182" lon="6.87448">
        <ele>758</ele>
        <time>2020-09-12T07:49:33.000Z</time>
      </trkpt>
      <trkpt lat="44.00182" lon="6.8745">
        <ele>758</ele>
        <time>2020-09-12T07:49:50.000Z</time>
      </trkpt>
      <trkpt lat="44.00183" lon="6.87448">
        <ele>758</ele>
        <time>2020-09-12T07:50:13.000Z</time>
      </trkpt>
      <trkpt lat="44.00184" lon="6.87448">
        <ele>758</ele>
        <time>2020-09-12T07:50:20.000Z</time>
      </trkpt>
      <trkpt lat="44.0019" lon="6.87447">
        <ele>758</ele>
        <time>2020-09-12T07:50:36.000Z</time>
      </trkpt>
      <trkpt lat="44.00194" lon="6.87445">
        <ele>758</ele>
        <time>2020-09-12T07:50:50.000Z</time>
      </trkpt>
      <trkpt lat="44.00195" lon="6.87446">
        <ele>758</ele>
        <time>2020-09-12T07:50:58.000Z</time>
      </trkpt>
      <trkpt lat="44.00193" lon="6.8745">
        <ele>758</ele>
        <time>2020-09-12T07:51:15.000Z</time>
      </trkpt>
      <trkpt lat="44.00188" lon="6.87455">
        <ele>757.79998779297</ele>
        <time>2020-09-12T07:51:32.000Z</time>
      </trkpt>
      <trkpt lat="44.00188" lon="6.87456">
        <ele>758</ele>
        <time>2020-09-12T07:51:44.000Z</time>
      </trkpt>
      <trkpt lat="44.0019" lon="6.87458">
        <ele>758</ele>
        <time>2020-09-12T07:51:50.000Z</time>
      </trkpt>
      <trkpt lat="44.00191" lon="6.87458">
        <ele>758</ele>
        <time>2020-09-12T07:51:57.000Z</time>
      </trkpt>
      <trkpt lat="44.00191" lon="6.87457">
        <ele>758</ele>
        <time>2020-09-12T07:52:03.000Z</time>
      </trkpt>
      <trkpt lat="44.0019" lon="6.87456">
        <ele>757.79998779297</ele>
        <time>2020-09-12T07:52:09.000Z</time>
      </trkpt>
      <trkpt lat="44.00192" lon="6.87454">
        <ele>757.79998779297</ele>
        <time>2020-09-12T07:52:18.000Z</time>
      </trkpt>
      <trkpt lat="44.00196" lon="6.87452">
        <ele>757.79998779297</ele>
        <time>2020-09-12T07:52:31.000Z</time>
      </trkpt>
      <trkpt lat="44.00194" lon="6.87446">
        <ele>757.79998779297</ele>
        <time>2020-09-12T07:52:39.000Z</time>
      </trkpt>
      <trkpt lat="44.00195" lon="6.87445">
        <ele>758</ele>
        <time>2020-09-12T07:52:46.000Z</time>
      </trkpt>
      <trkpt lat="44.00196" lon="6.87447">
        <ele>758</ele>
        <time>2020-09-12T07:52:53.000Z</time>
      </trkpt>
      <trkpt lat="44.00196" lon="6.87447">
        <ele>758</ele>
        <time>2020-09-12T07:52:59.000Z</time>
      </trkpt>
      <trkpt lat="44.00196" lon="6.87448">
        <ele>758.40002441406</ele>
        <time>2020-09-12T07:53:07.000Z</time>
      </trkpt>
      <trkpt lat="44.00194" lon="6.87449">
        <ele>758</ele>
        <time>2020-09-12T07:53:17.000Z</time>
      </trkpt>
      <trkpt lat="44.00191" lon="6.8745">
        <ele>758</ele>
        <time>2020-09-12T07:53:23.000Z</time>
      </trkpt>
      <trkpt lat="44.0019" lon="6.87449">
        <ele>758.20001220703</ele>
        <time>2020-09-12T07:53:25.000Z</time>
      </trkpt>
      <trkpt lat="44.00189" lon="6.87444">
        <ele>758.40002441406</ele>
        <time>2020-09-12T07:53:29.000Z</time>
      </trkpt>
      <trkpt lat="44.00188" lon="6.87442">
        <ele>758.40002441406</ele>
        <time>2020-09-12T07:53:30.000Z</time>
      </trkpt>
      <trkpt lat="44.00187" lon="6.87438">
        <ele>758.40002441406</ele>
        <time>2020-09-12T07:53:32.000Z</time>
      </trkpt>
      <trkpt lat="44.00185" lon="6.87441">
        <ele>758.40002441406</ele>
        <time>2020-09-12T07:53:34.000Z</time>
      </trkpt>
      <trkpt lat="44.00188" lon="6.87447">
        <ele>758.40002441406</ele>
        <time>2020-09-12T07:53:38.000Z</time>
      </trkpt>
      <trkpt lat="44.00195" lon="6.87459">
        <ele>758.59997558594</ele>
        <time>2020-09-12T07:53:44.000Z</time>
      </trkpt>
      <trkpt lat="44.00207" lon="6.87474">
        <ele>759</ele>
        <time>2020-09-12T07:53:51.000Z</time>
      </trkpt>
      <trkpt lat="44.00212" lon="6.87479">
        <ele>759.40002441406</ele>
        <time>2020-09-12T07:53:55.000Z</time>
      </trkpt>
      <trkpt lat="44.00216" lon="6.87484">
        <ele>760</ele>
        <time>2020-09-12T07:53:58.000Z</time>
      </trkpt>
      <trkpt lat="44.00225" lon="6.87491">
        <ele>760.59997558594</ele>
        <time>2020-09-12T07:54:04.000Z</time>
      </trkpt>
      <trkpt lat="44.00226" lon="6.87492">
        <ele>760.59997558594</ele>
        <time>2020-09-12T07:54:05.000Z</time>
      </trkpt>
      <trkpt lat="44.00238" lon="6.87498">
        <ele>761.59997558594</ele>
        <time>2020-09-12T07:54:11.000Z</time>
      </trkpt>
      <trkpt lat="44.00251" lon="6.87506">
        <ele>762.59997558594</ele>
        <time>2020-09-12T07:54:18.000Z</time>
      </trkpt>
      <trkpt lat="44.00253" lon="6.87507">
        <ele>762.79998779297</ele>
        <time>2020-09-12T07:54:19.000Z</time>
      </trkpt>
      <trkpt lat="44.00269" lon="6.87518">
        <ele>763.59997558594</ele>
        <time>2020-09-12T07:54:26.000Z</time>
      </trkpt>
      <trkpt lat="44.00276" lon="6.87521">
        <ele>763.79998779297</ele>
        <time>2020-09-12T07:54:29.000Z</time>
      </trkpt>
      <trkpt lat="44.00292" lon="6.8753">
        <ele>764.20001220703</ele>
        <time>2020-09-12T07:54:36.000Z</time>
      </trkpt>
      <trkpt lat="44.00306" lon="6.87537">
        <ele>764.79998779297</ele>
        <time>2020-09-12T07:54:43.000Z</time>
      </trkpt>
      <trkpt lat="44.0031" lon="6.8754">
        <ele>765</ele>
        <time>2020-09-12T07:54:45.000Z</time>
      </trkpt>
      <trkpt lat="44.00325" lon="6.87555">
        <ele>765.79998779297</ele>
        <time>2020-09-12T07:54:53.000Z</time>
      </trkpt>
      <trkpt lat="44.00327" lon="6.87558">
        <ele>765.79998779297</ele>
        <time>2020-09-12T07:54:54.000Z</time>
      </trkpt>
      <trkpt lat="44.00335" lon="6.87574">
        <ele>766.20001220703</ele>
        <time>2020-09-12T07:54:59.000Z</time>
      </trkpt>
      <trkpt lat="44.0035" lon="6.87584">
        <ele>766.20001220703</ele>
        <time>2020-09-12T07:55:04.000Z</time>
      </trkpt>
      <trkpt lat="44.00362" lon="6.8759">
        <ele>766.20001220703</ele>
        <time>2020-09-12T07:55:10.000Z</time>
      </trkpt>
      <trkpt lat="44.00372" lon="6.87605">
        <ele>766.40002441406</ele>
        <time>2020-09-12T07:55:16.000Z</time>
      </trkpt>
      <trkpt lat="44.00379" lon="6.87624">
        <ele>767</ele>
        <time>2020-09-12T07:55:23.000Z</time>
      </trkpt>
      <trkpt lat="44.00392" lon="6.87639">
        <ele>767.59997558594</ele>
        <time>2020-09-12T07:55:30.000Z</time>
      </trkpt>
      <trkpt lat="44.00403" lon="6.87645">
        <ele>768</ele>
        <time>2020-09-12T07:55:35.000Z</time>
      </trkpt>
      <trkpt lat="44.0041" lon="6.87648">
        <ele>768.20001220703</ele>
        <time>2020-09-12T07:55:38.000Z</time>
      </trkpt>
      <trkpt lat="44.00422" lon="6.87657">
        <ele>769</ele>
        <time>2020-09-12T07:55:44.000Z</time>
      </trkpt>
      <trkpt lat="44.00437" lon="6.87659">
        <ele>769.79998779297</ele>
        <time>2020-09-12T07:55:51.000Z</time>
      </trkpt>
      <trkpt lat="44.00439" lon="6.87654">
        <ele>770</ele>
        <time>2020-09-12T07:55:53.000Z</time>
      </trkpt>
      <trkpt lat="44.00439" lon="6.87648">
        <ele>770.40002441406</ele>
        <time>2020-09-12T07:55:55.000Z</time>
      </trkpt>
      <trkpt lat="44.00432" lon="6.87642">
        <ele>771</ele>
        <time>2020-09-12T07:55:59.000Z</time>
      </trkpt>
      <trkpt lat="44.00431" lon="6.87641">
        <ele>771.20001220703</ele>
        <time>2020-09-12T07:56:00.000Z</time>
      </trkpt>
      <trkpt lat="44.00421" lon="6.87638">
        <ele>772</ele>
        <time>2020-09-12T07:56:05.000Z</time>
      </trkpt>
      <trkpt lat="44.00419" lon="6.87638">
        <ele>772.20001220703</ele>
        <time>2020-09-12T07:56:06.000Z</time>
      </trkpt>
      <trkpt lat="44.0041" lon="6.87634">
        <ele>773.20001220703</ele>
        <time>2020-09-12T07:56:11.000Z</time>
      </trkpt>
      <trkpt lat="44.00404" lon="6.8763">
        <ele>774</ele>
        <time>2020-09-12T07:56:15.000Z</time>
      </trkpt>
      <trkpt lat="44.004" lon="6.87624">
        <ele>774.40002441406</ele>
        <time>2020-09-12T07:56:18.000Z</time>
      </trkpt>
      <trkpt lat="44.00397" lon="6.87615">
        <ele>775.20001220703</ele>
        <time>2020-09-12T07:56:22.000Z</time>
      </trkpt>
      <trkpt lat="44.00396" lon="6.8761">
        <ele>775.59997558594</ele>
        <time>2020-09-12T07:56:24.000Z</time>
      </trkpt>
      <trkpt lat="44.00398" lon="6.87595">
        <ele>776.59997558594</ele>
        <time>2020-09-12T07:56:30.000Z</time>
      </trkpt>
      <trkpt lat="44.00403" lon="6.8758">
        <ele>777.59997558594</ele>
        <time>2020-09-12T07:56:36.000Z</time>
      </trkpt>
      <trkpt lat="44.00406" lon="6.8757">
        <ele>778.40002441406</ele>
        <time>2020-09-12T07:56:40.000Z</time>
      </trkpt>
      <trkpt lat="44.00409" lon="6.87563">
        <ele>778.79998779297</ele>
        <time>2020-09-12T07:56:43.000Z</time>
      </trkpt>
      <trkpt lat="44.00417" lon="6.8755">
        <ele>779.59997558594</ele>
        <time>2020-09-12T07:56:49.000Z</time>
      </trkpt>
      <trkpt lat="44.0042" lon="6.87546">
        <ele>779.79998779297</ele>
        <time>2020-09-12T07:56:51.000Z</time>
      </trkpt>
      <trkpt lat="44.00429" lon="6.87531">
        <ele>781</ele>
        <time>2020-09-12T07:56:58.000Z</time>
      </trkpt>
      <trkpt lat="44.00433" lon="6.87513">
        <ele>782</ele>
        <time>2020-09-12T07:57:05.000Z</time>
      </trkpt>
      <trkpt lat="44.00434" lon="6.87494">
        <ele>783</ele>
        <time>2020-09-12T07:57:12.000Z</time>
      </trkpt>
      <trkpt lat="44.00435" lon="6.87486">
        <ele>783.40002441406</ele>
        <time>2020-09-12T07:57:15.000Z</time>
      </trkpt>
      <trkpt lat="44.00436" lon="6.87475">
        <ele>784.20001220703</ele>
        <time>2020-09-12T07:57:19.000Z</time>
      </trkpt>
      <trkpt lat="44.00435" lon="6.8747">
        <ele>784.59997558594</ele>
        <time>2020-09-12T07:57:21.000Z</time>
      </trkpt>
      <trkpt lat="44.00431" lon="6.8746">
        <ele>785.20001220703</ele>
        <time>2020-09-12T07:57:25.000Z</time>
      </trkpt>
      <trkpt lat="44.00426" lon="6.87453">
        <ele>785.79998779297</ele>
        <time>2020-09-12T07:57:29.000Z</time>
      </trkpt>
      <trkpt lat="44.00423" lon="6.8745">
        <ele>786.20001220703</ele>
        <time>2020-09-12T07:57:31.000Z</time>
      </trkpt>
      <trkpt lat="44.00415" lon="6.87439">
        <ele>787.20001220703</ele>
        <time>2020-09-12T07:57:37.000Z</time>
      </trkpt>
      <trkpt lat="44.00414" lon="6.87436">
        <ele>787.40002441406</ele>
        <time>2020-09-12T07:57:38.000Z</time>
      </trkpt>
      <trkpt lat="44.00409" lon="6.87422">
        <ele>788.40002441406</ele>
        <time>2020-09-12T07:57:44.000Z</time>
      </trkpt>
      <trkpt lat="44.00408" lon="6.87417">
        <ele>788.79998779297</ele>
        <time>2020-09-12T07:57:46.000Z</time>
      </trkpt>
      <trkpt lat="44.00407" lon="6.87401">
        <ele>789.40002441406</ele>
        <time>2020-09-12T07:57:51.000Z</time>
      </trkpt>
      <trkpt lat="44.00406" lon="6.8739">
        <ele>790</ele>
        <time>2020-09-12T07:57:55.000Z</time>
      </trkpt>
      <trkpt lat="44.00402" lon="6.8738">
        <ele>790.59997558594</ele>
        <time>2020-09-12T07:57:59.000Z</time>
      </trkpt>
      <trkpt lat="44.00398" lon="6.87374">
        <ele>791.20001220703</ele>
        <time>2020-09-12T07:58:02.000Z</time>
      </trkpt>
      <trkpt lat="44.00394" lon="6.87369">
        <ele>791.59997558594</ele>
        <time>2020-09-12T07:58:05.000Z</time>
      </trkpt>
      <trkpt lat="44.00385" lon="6.87363">
        <ele>792.40002441406</ele>
        <time>2020-09-12T07:58:10.000Z</time>
      </trkpt>
      <trkpt lat="44.00379" lon="6.87361">
        <ele>792.59997558594</ele>
        <time>2020-09-12T07:58:13.000Z</time>
      </trkpt>
      <trkpt lat="44.00368" lon="6.87357">
        <ele>793.20001220703</ele>
        <time>2020-09-12T07:58:18.000Z</time>
      </trkpt>
      <trkpt lat="44.00351" lon="6.87344">
        <ele>793.79998779297</ele>
        <time>2020-09-12T07:58:26.000Z</time>
      </trkpt>
      <trkpt lat="44.00339" lon="6.87322">
        <ele>794.40002441406</ele>
        <time>2020-09-12T07:58:35.000Z</time>
      </trkpt>
      <trkpt lat="44.00337" lon="6.87317">
        <ele>794.79998779297</ele>
        <time>2020-09-12T07:58:37.000Z</time>
      </trkpt>
      <trkpt lat="44.00335" lon="6.87297">
        <ele>796</ele>
        <time>2020-09-12T07:58:44.000Z</time>
      </trkpt>
      <trkpt lat="44.00341" lon="6.87287">
        <ele>797</ele>
        <time>2020-09-12T07:58:49.000Z</time>
      </trkpt>
      <trkpt lat="44.00342" lon="6.87285">
        <ele>797.20001220703</ele>
        <time>2020-09-12T07:58:50.000Z</time>
      </trkpt>
      <trkpt lat="44.00347" lon="6.87276">
        <ele>798</ele>
        <time>2020-09-12T07:58:54.000Z</time>
      </trkpt>
      <trkpt lat="44.00348" lon="6.87272">
        <ele>798.40002441406</ele>
        <time>2020-09-12T07:58:56.000Z</time>
      </trkpt>
      <trkpt lat="44.00349" lon="6.87261">
        <ele>799</ele>
        <time>2020-09-12T07:59:00.000Z</time>
      </trkpt>
      <trkpt lat="44.0035" lon="6.87247">
        <ele>800</ele>
        <time>2020-09-12T07:59:05.000Z</time>
      </trkpt>
      <trkpt lat="44.00351" lon="6.87244">
        <ele>800.20001220703</ele>
        <time>2020-09-12T07:59:06.000Z</time>
      </trkpt>
      <trkpt lat="44.00356" lon="6.87235">
        <ele>801</ele>
        <time>2020-09-12T07:59:11.000Z</time>
      </trkpt>
      <trkpt lat="44.00358" lon="6.87235">
        <ele>801.20001220703</ele>
        <time>2020-09-12T07:59:12.000Z</time>
      </trkpt>
      <trkpt lat="44.00363" lon="6.87243">
        <ele>801.79998779297</ele>
        <time>2020-09-12T07:59:16.000Z</time>
      </trkpt>
      <trkpt lat="44.00365" lon="6.87251">
        <ele>802.20001220703</ele>
        <time>2020-09-12T07:59:19.000Z</time>
      </trkpt>
      <trkpt lat="44.00365" lon="6.87263">
        <ele>802.79998779297</ele>
        <time>2020-09-12T07:59:23.000Z</time>
      </trkpt>
      <trkpt lat="44.00366" lon="6.87271">
        <ele>803.20001220703</ele>
        <time>2020-09-12T07:59:26.000Z</time>
      </trkpt>
      <trkpt lat="44.0037" lon="6.8728">
        <ele>804</ele>
        <time>2020-09-12T07:59:30.000Z</time>
      </trkpt>
      <trkpt lat="44.00374" lon="6.87283">
        <ele>804.40002441406</ele>
        <time>2020-09-12T07:59:32.000Z</time>
      </trkpt>
      <trkpt lat="44.00379" lon="6.87287">
        <ele>805</ele>
        <time>2020-09-12T07:59:35.000Z</time>
      </trkpt>
      <trkpt lat="44.00385" lon="6.87291">
        <ele>805.40002441406</ele>
        <time>2020-09-12T07:59:38.000Z</time>
      </trkpt>
      <trkpt lat="44.00387" lon="6.87293">
        <ele>805.79998779297</ele>
        <time>2020-09-12T07:59:40.000Z</time>
      </trkpt>
      <trkpt lat="44.0039" lon="6.87297">
        <ele>806.20001220703</ele>
        <time>2020-09-12T07:59:42.000Z</time>
      </trkpt>
      <trkpt lat="44.00391" lon="6.87302">
        <ele>806.59997558594</ele>
        <time>2020-09-12T07:59:44.000Z</time>
      </trkpt>
      <trkpt lat="44.00392" lon="6.87304">
        <ele>806.79998779297</ele>
        <time>2020-09-12T07:59:45.000Z</time>
      </trkpt>
      <trkpt lat="44.00397" lon="6.87315">
        <ele>807.59997558594</ele>
        <time>2020-09-12T07:59:50.000Z</time>
      </trkpt>
      <trkpt lat="44.00402" lon="6.87324">
        <ele>808.59997558594</ele>
        <time>2020-09-12T07:59:54.000Z</time>
      </trkpt>
      <trkpt lat="44.00403" lon="6.87326">
        <ele>808.79998779297</ele>
        <time>2020-09-12T07:59:55.000Z</time>
      </trkpt>
      <trkpt lat="44.00412" lon="6.87336">
        <ele>809.79998779297</ele>
        <time>2020-09-12T08:00:01.000Z</time>
      </trkpt>
      <trkpt lat="44.00414" lon="6.87338">
        <ele>810</ele>
        <time>2020-09-12T08:00:02.000Z</time>
      </trkpt>
      <trkpt lat="44.00427" lon="6.87343">
        <ele>811</ele>
        <time>2020-09-12T08:00:08.000Z</time>
      </trkpt>
      <trkpt lat="44.00431" lon="6.87344">
        <ele>811.59997558594</ele>
        <time>2020-09-12T08:00:10.000Z</time>
      </trkpt>
      <trkpt lat="44.00439" lon="6.87345">
        <ele>812.20001220703</ele>
        <time>2020-09-12T08:00:14.000Z</time>
      </trkpt>
      <trkpt lat="44.00451" lon="6.87353">
        <ele>813.40002441406</ele>
        <time>2020-09-12T08:00:20.000Z</time>
      </trkpt>
      <trkpt lat="44.00463" lon="6.87362">
        <ele>814.40002441406</ele>
        <time>2020-09-12T08:00:26.000Z</time>
      </trkpt>
      <trkpt lat="44.0047" lon="6.87368">
        <ele>815.20001220703</ele>
        <time>2020-09-12T08:00:30.000Z</time>
      </trkpt>
      <trkpt lat="44.00474" lon="6.87369">
        <ele>815.59997558594</ele>
        <time>2020-09-12T08:00:32.000Z</time>
      </trkpt>
      <trkpt lat="44.00483" lon="6.87377">
        <ele>816.40002441406</ele>
        <time>2020-09-12T08:00:37.000Z</time>
      </trkpt>
      <trkpt lat="44.00485" lon="6.87379">
        <ele>816.59997558594</ele>
        <time>2020-09-12T08:00:38.000Z</time>
      </trkpt>
      <trkpt lat="44.0049" lon="6.87391">
        <ele>817.40002441406</ele>
        <time>2020-09-12T08:00:43.000Z</time>
      </trkpt>
      <trkpt lat="44.00492" lon="6.87398">
        <ele>817.79998779297</ele>
        <time>2020-09-12T08:00:46.000Z</time>
      </trkpt>
      <trkpt lat="44.00496" lon="6.87417">
        <ele>818.79998779297</ele>
        <time>2020-09-12T08:00:53.000Z</time>
      </trkpt>
      <trkpt lat="44.005" lon="6.8744">
        <ele>820</ele>
        <time>2020-09-12T08:01:01.000Z</time>
      </trkpt>
      <trkpt lat="44.00503" lon="6.87448">
        <ele>820.59997558594</ele>
        <time>2020-09-12T08:01:04.000Z</time>
      </trkpt>
      <trkpt lat="44.00505" lon="6.87455">
        <ele>821.20001220703</ele>
        <time>2020-09-12T08:01:07.000Z</time>
      </trkpt>
      <trkpt lat="44.00514" lon="6.8747">
        <ele>822.20001220703</ele>
        <time>2020-09-12T08:01:13.000Z</time>
      </trkpt>
      <trkpt lat="44.00517" lon="6.87474">
        <ele>822.59997558594</ele>
        <time>2020-09-12T08:01:15.000Z</time>
      </trkpt>
      <trkpt lat="44.00523" lon="6.87487">
        <ele>823.40002441406</ele>
        <time>2020-09-12T08:01:20.000Z</time>
      </trkpt>
      <trkpt lat="44.00524" lon="6.87496">
        <ele>823.79998779297</ele>
        <time>2020-09-12T08:01:23.000Z</time>
      </trkpt>
      <trkpt lat="44.00525" lon="6.87505">
        <ele>824.40002441406</ele>
        <time>2020-09-12T08:01:26.000Z</time>
      </trkpt>
      <trkpt lat="44.00528" lon="6.87521">
        <ele>825.40002441406</ele>
        <time>2020-09-12T08:01:32.000Z</time>
      </trkpt>
      <trkpt lat="44.00538" lon="6.87523">
        <ele>826.20001220703</ele>
        <time>2020-09-12T08:01:37.000Z</time>
      </trkpt>
      <trkpt lat="44.00541" lon="6.87518">
        <ele>826.59997558594</ele>
        <time>2020-09-12T08:01:39.000Z</time>
      </trkpt>
      <trkpt lat="44.00541" lon="6.87512">
        <ele>826.79998779297</ele>
        <time>2020-09-12T08:01:41.000Z</time>
      </trkpt>
      <trkpt lat="44.00541" lon="6.87509">
        <ele>827</ele>
        <time>2020-09-12T08:01:42.000Z</time>
      </trkpt>
      <trkpt lat="44.00538" lon="6.87495">
        <ele>827.59997558594</ele>
        <time>2020-09-12T08:01:47.000Z</time>
      </trkpt>
      <trkpt lat="44.00537" lon="6.87492">
        <ele>827.79998779297</ele>
        <time>2020-09-12T08:01:48.000Z</time>
      </trkpt>
      <trkpt lat="44.00533" lon="6.87475">
        <ele>828.79998779297</ele>
        <time>2020-09-12T08:01:54.000Z</time>
      </trkpt>
      <trkpt lat="44.00531" lon="6.87467">
        <ele>829.20001220703</ele>
        <time>2020-09-12T08:01:57.000Z</time>
      </trkpt>
      <trkpt lat="44.00527" lon="6.87457">
        <ele>829.79998779297</ele>
        <time>2020-09-12T08:02:01.000Z</time>
      </trkpt>
      <trkpt lat="44.00525" lon="6.87449">
        <ele>830.40002441406</ele>
        <time>2020-09-12T08:02:04.000Z</time>
      </trkpt>
      <trkpt lat="44.00525" lon="6.87441">
        <ele>830.79998779297</ele>
        <time>2020-09-12T08:02:07.000Z</time>
      </trkpt>
      <trkpt lat="44.00527" lon="6.87428">
        <ele>831.59997558594</ele>
        <time>2020-09-12T08:02:11.000Z</time>
      </trkpt>
      <trkpt lat="44.00528" lon="6.87422">
        <ele>832</ele>
        <time>2020-09-12T08:02:13.000Z</time>
      </trkpt>
      <trkpt lat="44.0053" lon="6.87404">
        <ele>832.79998779297</ele>
        <time>2020-09-12T08:02:19.000Z</time>
      </trkpt>
      <trkpt lat="44.0053" lon="6.87401">
        <ele>833</ele>
        <time>2020-09-12T08:02:20.000Z</time>
      </trkpt>
      <trkpt lat="44.00529" lon="6.87383">
        <ele>834.20001220703</ele>
        <time>2020-09-12T08:02:26.000Z</time>
      </trkpt>
      <trkpt lat="44.00529" lon="6.8738">
        <ele>834.20001220703</ele>
        <time>2020-09-12T08:02:27.000Z</time>
      </trkpt>
      <trkpt lat="44.00525" lon="6.8736">
        <ele>835.20001220703</ele>
        <time>2020-09-12T08:02:34.000Z</time>
      </trkpt>
      <trkpt lat="44.00524" lon="6.87355">
        <ele>835.59997558594</ele>
        <time>2020-09-12T08:02:36.000Z</time>
      </trkpt>
      <trkpt lat="44.00517" lon="6.8734">
        <ele>836.40002441406</ele>
        <time>2020-09-12T08:02:42.000Z</time>
      </trkpt>
      <trkpt lat="44.00516" lon="6.87338">
        <ele>836.59997558594</ele>
        <time>2020-09-12T08:02:43.000Z</time>
      </trkpt>
      <trkpt lat="44.00506" lon="6.87323">
        <ele>837.40002441406</ele>
        <time>2020-09-12T08:02:49.000Z</time>
      </trkpt>
      <trkpt lat="44.00502" lon="6.87315">
        <ele>837.79998779297</ele>
        <time>2020-09-12T08:02:52.000Z</time>
      </trkpt>
      <trkpt lat="44.00494" lon="6.87295">
        <ele>838.59997558594</ele>
        <time>2020-09-12T08:02:58.000Z</time>
      </trkpt>
      <trkpt lat="44.00494" lon="6.87285">
        <ele>838.79998779297</ele>
        <time>2020-09-12T08:03:01.000Z</time>
      </trkpt>
      <trkpt lat="44.005" lon="6.8727">
        <ele>839.59997558594</ele>
        <time>2020-09-12T08:03:06.000Z</time>
      </trkpt>
      <trkpt lat="44.00511" lon="6.87259">
        <ele>840.59997558594</ele>
        <time>2020-09-12T08:03:12.000Z</time>
      </trkpt>
      <trkpt lat="44.00513" lon="6.87257">
        <ele>840.79998779297</ele>
        <time>2020-09-12T08:03:13.000Z</time>
      </trkpt>
      <trkpt lat="44.00522" lon="6.87245">
        <ele>841.79998779297</ele>
        <time>2020-09-12T08:03:19.000Z</time>
      </trkpt>
      <trkpt lat="44.00524" lon="6.87241">
        <ele>842.20001220703</ele>
        <time>2020-09-12T08:03:21.000Z</time>
      </trkpt>
      <trkpt lat="44.00529" lon="6.87233">
        <ele>843</ele>
        <time>2020-09-12T08:03:25.000Z</time>
      </trkpt>
      <trkpt lat="44.00532" lon="6.87226">
        <ele>843.40002441406</ele>
        <time>2020-09-12T08:03:28.000Z</time>
      </trkpt>
      <trkpt lat="44.00536" lon="6.87214">
        <ele>844</ele>
        <time>2020-09-12T08:03:32.000Z</time>
      </trkpt>
      <trkpt lat="44.00536" lon="6.87205">
        <ele>844.59997558594</ele>
        <time>2020-09-12T08:03:35.000Z</time>
      </trkpt>
      <trkpt lat="44.00534" lon="6.87195">
        <ele>845</ele>
        <time>2020-09-12T08:03:38.000Z</time>
      </trkpt>
      <trkpt lat="44.0053" lon="6.87188">
        <ele>845.59997558594</ele>
        <time>2020-09-12T08:03:41.000Z</time>
      </trkpt>
      <trkpt lat="44.00525" lon="6.87183">
        <ele>846.20001220703</ele>
        <time>2020-09-12T08:03:44.000Z</time>
      </trkpt>
      <trkpt lat="44.0052" lon="6.87178">
        <ele>846.59997558594</ele>
        <time>2020-09-12T08:03:47.000Z</time>
      </trkpt>
      <trkpt lat="44.00514" lon="6.87173">
        <ele>847.20001220703</ele>
        <time>2020-09-12T08:03:50.000Z</time>
      </trkpt>
      <trkpt lat="44.00505" lon="6.87163">
        <ele>848.20001220703</ele>
        <time>2020-09-12T08:03:56.000Z</time>
      </trkpt>
      <trkpt lat="44.00498" lon="6.87161">
        <ele>848.79998779297</ele>
        <time>2020-09-12T08:04:00.000Z</time>
      </trkpt>
      <trkpt lat="44.00494" lon="6.8716">
        <ele>849.20001220703</ele>
        <time>2020-09-12T08:04:02.000Z</time>
      </trkpt>
      <trkpt lat="44.00483" lon="6.87156">
        <ele>850</ele>
        <time>2020-09-12T08:04:07.000Z</time>
      </trkpt>
      <trkpt lat="44.00481" lon="6.87155">
        <ele>850.20001220703</ele>
        <time>2020-09-12T08:04:08.000Z</time>
      </trkpt>
      <trkpt lat="44.00477" lon="6.87148">
        <ele>851</ele>
        <time>2020-09-12T08:04:12.000Z</time>
      </trkpt>
      <trkpt lat="44.00478" lon="6.87145">
        <ele>851.20001220703</ele>
        <time>2020-09-12T08:04:13.000Z</time>
      </trkpt>
      <trkpt lat="44.0048" lon="6.87145">
        <ele>851.40002441406</ele>
        <time>2020-09-12T08:04:14.000Z</time>
      </trkpt>
      <trkpt lat="44.00483" lon="6.87146">
        <ele>851.79998779297</ele>
        <time>2020-09-12T08:04:16.000Z</time>
      </trkpt>
      <trkpt lat="44.00486" lon="6.87147">
        <ele>852.40002441406</ele>
        <time>2020-09-12T08:04:18.000Z</time>
      </trkpt>
      <trkpt lat="44.00495" lon="6.87148">
        <ele>853.40002441406</ele>
        <time>2020-09-12T08:04:23.000Z</time>
      </trkpt>
      <trkpt lat="44.00506" lon="6.87149">
        <ele>854.59997558594</ele>
        <time>2020-09-12T08:04:29.000Z</time>
      </trkpt>
      <trkpt lat="44.0051" lon="6.87149">
        <ele>855</ele>
        <time>2020-09-12T08:04:31.000Z</time>
      </trkpt>
      <trkpt lat="44.00517" lon="6.87149">
        <ele>855.59997558594</ele>
        <time>2020-09-12T08:04:35.000Z</time>
      </trkpt>
      <trkpt lat="44.00522" lon="6.8715">
        <ele>856.20001220703</ele>
        <time>2020-09-12T08:04:38.000Z</time>
      </trkpt>
      <trkpt lat="44.00529" lon="6.87151">
        <ele>856.79998779297</ele>
        <time>2020-09-12T08:04:42.000Z</time>
      </trkpt>
      <trkpt lat="44.00531" lon="6.87151">
        <ele>857.20001220703</ele>
        <time>2020-09-12T08:04:44.000Z</time>
      </trkpt>
      <trkpt lat="44.00535" lon="6.87151">
        <ele>857.79998779297</ele>
        <time>2020-09-12T08:04:47.000Z</time>
      </trkpt>
      <trkpt lat="44.00543" lon="6.87149">
        <ele>859</ele>
        <time>2020-09-12T08:04:52.000Z</time>
      </trkpt>
      <trkpt lat="44.00551" lon="6.87147">
        <ele>860.20001220703</ele>
        <time>2020-09-12T08:04:57.000Z</time>
      </trkpt>
      <trkpt lat="44.00555" lon="6.87146">
        <ele>861</ele>
        <time>2020-09-12T08:05:00.000Z</time>
      </trkpt>
      <trkpt lat="44.00558" lon="6.87145">
        <ele>861.40002441406</ele>
        <time>2020-09-12T08:05:02.000Z</time>
      </trkpt>
      <trkpt lat="44.00562" lon="6.87144">
        <ele>862.40002441406</ele>
        <time>2020-09-12T08:05:06.000Z</time>
      </trkpt>
      <trkpt lat="44.00563" lon="6.87145">
        <ele>862.40002441406</ele>
        <time>2020-09-12T08:05:07.000Z</time>
      </trkpt>
      <trkpt lat="44.0057" lon="6.87144">
        <ele>863</ele>
        <time>2020-09-12T08:05:11.000Z</time>
      </trkpt>
      <trkpt lat="44.00572" lon="6.87144">
        <ele>863.20001220703</ele>
        <time>2020-09-12T08:05:12.000Z</time>
      </trkpt>
      <trkpt lat="44.00575" lon="6.87144">
        <ele>863.59997558594</ele>
        <time>2020-09-12T08:05:14.000Z</time>
      </trkpt>
      <trkpt lat="44.00583" lon="6.87146">
        <ele>864.59997558594</ele>
        <time>2020-09-12T08:05:18.000Z</time>
      </trkpt>
      <trkpt lat="44.00585" lon="6.87147">
        <ele>864.79998779297</ele>
        <time>2020-09-12T08:05:19.000Z</time>
      </trkpt>
      <trkpt lat="44.00595" lon="6.8715">
        <ele>866</ele>
        <time>2020-09-12T08:05:24.000Z</time>
      </trkpt>
      <trkpt lat="44.0061" lon="6.87154">
        <ele>867</ele>
        <time>2020-09-12T08:05:31.000Z</time>
      </trkpt>
      <trkpt lat="44.00614" lon="6.87156">
        <ele>867.40002441406</ele>
        <time>2020-09-12T08:05:33.000Z</time>
      </trkpt>
      <trkpt lat="44.00623" lon="6.87162">
        <ele>868</ele>
        <time>2020-09-12T08:05:37.000Z</time>
      </trkpt>
      <trkpt lat="44.0063" lon="6.87166">
        <ele>868.79998779297</ele>
        <time>2020-09-12T08:05:40.000Z</time>
      </trkpt>
      <trkpt lat="44.00635" lon="6.87166">
        <ele>869.20001220703</ele>
        <time>2020-09-12T08:05:42.000Z</time>
      </trkpt>
      <trkpt lat="44.0064" lon="6.87163">
        <ele>870.40002441406</ele>
        <time>2020-09-12T08:05:45.000Z</time>
      </trkpt>
      <trkpt lat="44.00642" lon="6.87157">
        <ele>871.20001220703</ele>
        <time>2020-09-12T08:05:48.000Z</time>
      </trkpt>
      <trkpt lat="44.00642" lon="6.87154">
        <ele>871.40002441406</ele>
        <time>2020-09-12T08:05:49.000Z</time>
      </trkpt>
      <trkpt lat="44.00642" lon="6.8715">
        <ele>872</ele>
        <time>2020-09-12T08:05:51.000Z</time>
      </trkpt>
      <trkpt lat="44.00639" lon="6.87143">
        <ele>872.59997558594</ele>
        <time>2020-09-12T08:05:54.000Z</time>
      </trkpt>
      <trkpt lat="44.00635" lon="6.87138">
        <ele>873</ele>
        <time>2020-09-12T08:05:57.000Z</time>
      </trkpt>
      <trkpt lat="44.00629" lon="6.87134">
        <ele>873.79998779297</ele>
        <time>2020-09-12T08:06:00.000Z</time>
      </trkpt>
      <trkpt lat="44.00621" lon="6.87128">
        <ele>874.79998779297</ele>
        <time>2020-09-12T08:06:05.000Z</time>
      </trkpt>
      <trkpt lat="44.00619" lon="6.87126">
        <ele>874.79998779297</ele>
        <time>2020-09-12T08:06:06.000Z</time>
      </trkpt>
      <trkpt lat="44.00611" lon="6.87121">
        <ele>875.40002441406</ele>
        <time>2020-09-12T08:06:11.000Z</time>
      </trkpt>
      <trkpt lat="44.00605" lon="6.87118">
        <ele>876</ele>
        <time>2020-09-12T08:06:15.000Z</time>
      </trkpt>
      <trkpt lat="44.00604" lon="6.87117">
        <ele>876</ele>
        <time>2020-09-12T08:06:16.000Z</time>
      </trkpt>
      <trkpt lat="44.00602" lon="6.87112">
        <ele>876.20001220703</ele>
        <time>2020-09-12T08:06:18.000Z</time>
      </trkpt>
      <trkpt lat="44.00602" lon="6.87107">
        <ele>876.59997558594</ele>
        <time>2020-09-12T08:06:20.000Z</time>
      </trkpt>
      <trkpt lat="44.00604" lon="6.87105">
        <ele>877.20001220703</ele>
        <time>2020-09-12T08:06:22.000Z</time>
      </trkpt>
      <trkpt lat="44.00608" lon="6.87105">
        <ele>877.79998779297</ele>
        <time>2020-09-12T08:06:24.000Z</time>
      </trkpt>
      <trkpt lat="44.00611" lon="6.87106">
        <ele>878.40002441406</ele>
        <time>2020-09-12T08:06:26.000Z</time>
      </trkpt>
      <trkpt lat="44.00614" lon="6.87105">
        <ele>879</ele>
        <time>2020-09-12T08:06:29.000Z</time>
      </trkpt>
      <trkpt lat="44.00615" lon="6.87104">
        <ele>879.40002441406</ele>
        <time>2020-09-12T08:06:30.000Z</time>
      </trkpt>
      <trkpt lat="44.00622" lon="6.87102">
        <ele>880.40002441406</ele>
        <time>2020-09-12T08:06:35.000Z</time>
      </trkpt>
      <trkpt lat="44.00624" lon="6.87102">
        <ele>880.79998779297</ele>
        <time>2020-09-12T08:06:36.000Z</time>
      </trkpt>
      <trkpt lat="44.0063" lon="6.87101">
        <ele>881.59997558594</ele>
        <time>2020-09-12T08:06:40.000Z</time>
      </trkpt>
      <trkpt lat="44.00639" lon="6.871">
        <ele>882.79998779297</ele>
        <time>2020-09-12T08:06:46.000Z</time>
      </trkpt>
      <trkpt lat="44.00648" lon="6.871">
        <ele>883.79998779297</ele>
        <time>2020-09-12T08:06:52.000Z</time>
      </trkpt>
      <trkpt lat="44.00654" lon="6.87099">
        <ele>884.40002441406</ele>
        <time>2020-09-12T08:06:56.000Z</time>
      </trkpt>
      <trkpt lat="44.00658" lon="6.87097">
        <ele>885</ele>
        <time>2020-09-12T08:06:58.000Z</time>
      </trkpt>
      <trkpt lat="44.00665" lon="6.87094">
        <ele>886</ele>
        <time>2020-09-12T08:07:03.000Z</time>
      </trkpt>
      <trkpt lat="44.00668" lon="6.87092">
        <ele>886.40002441406</ele>
        <time>2020-09-12T08:07:05.000Z</time>
      </trkpt>
      <trkpt lat="44.00674" lon="6.87089">
        <ele>887.20001220703</ele>
        <time>2020-09-12T08:07:09.000Z</time>
      </trkpt>
      <trkpt lat="44.00681" lon="6.87087">
        <ele>888</ele>
        <time>2020-09-12T08:07:13.000Z</time>
      </trkpt>
      <trkpt lat="44.00682" lon="6.87086">
        <ele>888.20001220703</ele>
        <time>2020-09-12T08:07:14.000Z</time>
      </trkpt>
      <trkpt lat="44.00692" lon="6.87083">
        <ele>889.20001220703</ele>
        <time>2020-09-12T08:07:20.000Z</time>
      </trkpt>
      <trkpt lat="44.00699" lon="6.87083">
        <ele>890</ele>
        <time>2020-09-12T08:07:24.000Z</time>
      </trkpt>
      <trkpt lat="44.00702" lon="6.87085">
        <ele>890.40002441406</ele>
        <time>2020-09-12T08:07:26.000Z</time>
      </trkpt>
      <trkpt lat="44.00709" lon="6.87092">
        <ele>891.40002441406</ele>
        <time>2020-09-12T08:07:32.000Z</time>
      </trkpt>
      <trkpt lat="44.00714" lon="6.87097">
        <ele>892.20001220703</ele>
        <time>2020-09-12T08:07:37.000Z</time>
      </trkpt>
      <trkpt lat="44.00714" lon="6.87095">
        <ele>892.40002441406</ele>
        <time>2020-09-12T08:07:38.000Z</time>
      </trkpt>
      <trkpt lat="44.00709" lon="6.87092">
        <ele>892.79998779297</ele>
        <time>2020-09-12T08:07:41.000Z</time>
      </trkpt>
      <trkpt lat="44.00709" lon="6.87092">
        <ele>892.40002441406</ele>
        <time>2020-09-12T08:07:45.000Z</time>
      </trkpt>
      <trkpt lat="44.00709" lon="6.87092">
        <ele>891.79998779297</ele>
        <time>2020-09-12T08:07:55.000Z</time>
      </trkpt>
      <trkpt lat="44.00708" lon="6.87092">
        <ele>892</ele>
        <time>2020-09-12T08:08:03.000Z</time>
      </trkpt>
      <trkpt lat="44.00709" lon="6.87092">
        <ele>891.79998779297</ele>
        <time>2020-09-12T08:08:14.000Z</time>
      </trkpt>
      <trkpt lat="44.00709" lon="6.87092">
        <ele>891.79998779297</ele>
        <time>2020-09-12T08:08:27.000Z</time>
      </trkpt>
      <trkpt lat="44.00709" lon="6.87092">
        <ele>891.79998779297</ele>
        <time>2020-09-12T08:08:32.000Z</time>
      </trkpt>
      <trkpt lat="44.0071" lon="6.87089">
        <ele>891.79998779297</ele>
        <time>2020-09-12T08:08:39.000Z</time>
      </trkpt>
      <trkpt lat="44.00712" lon="6.87091">
        <ele>891.59997558594</ele>
        <time>2020-09-12T08:08:42.000Z</time>
      </trkpt>
      <trkpt lat="44.00713" lon="6.87095">
        <ele>891.79998779297</ele>
        <time>2020-09-12T08:08:44.000Z</time>
      </trkpt>
      <trkpt lat="44.00723" lon="6.8711">
        <ele>893.40002441406</ele>
        <time>2020-09-12T08:08:52.000Z</time>
      </trkpt>
      <trkpt lat="44.00725" lon="6.87111">
        <ele>893.79998779297</ele>
        <time>2020-09-12T08:08:53.000Z</time>
      </trkpt>
      <trkpt lat="44.00731" lon="6.87113">
        <ele>894.59997558594</ele>
        <time>2020-09-12T08:08:56.000Z</time>
      </trkpt>
      <trkpt lat="44.00741" lon="6.87113">
        <ele>895.79998779297</ele>
        <time>2020-09-12T08:09:01.000Z</time>
      </trkpt>
      <trkpt lat="44.00743" lon="6.87114">
        <ele>896</ele>
        <time>2020-09-12T08:09:02.000Z</time>
      </trkpt>
      <trkpt lat="44.0075" lon="6.87114">
        <ele>896.79998779297</ele>
        <time>2020-09-12T08:09:06.000Z</time>
      </trkpt>
      <trkpt lat="44.00756" lon="6.87112">
        <ele>898</ele>
        <time>2020-09-12T08:09:10.000Z</time>
      </trkpt>
      <trkpt lat="44.00758" lon="6.87112">
        <ele>898.20001220703</ele>
        <time>2020-09-12T08:09:11.000Z</time>
      </trkpt>
      <trkpt lat="44.00762" lon="6.87109">
        <ele>899</ele>
        <time>2020-09-12T08:09:14.000Z</time>
      </trkpt>
      <trkpt lat="44.00766" lon="6.87103">
        <ele>900.20001220703</ele>
        <time>2020-09-12T08:09:18.000Z</time>
      </trkpt>
      <trkpt lat="44.00772" lon="6.87096">
        <ele>901.20001220703</ele>
        <time>2020-09-12T08:09:23.000Z</time>
      </trkpt>
      <trkpt lat="44.00775" lon="6.87094">
        <ele>901.79998779297</ele>
        <time>2020-09-12T08:09:25.000Z</time>
      </trkpt>
      <trkpt lat="44.0078" lon="6.87094">
        <ele>902.40002441406</ele>
        <time>2020-09-12T08:09:28.000Z</time>
      </trkpt>
      <trkpt lat="44.00785" lon="6.87096">
        <ele>902.79998779297</ele>
        <time>2020-09-12T08:09:31.000Z</time>
      </trkpt>
      <trkpt lat="44.0079" lon="6.87101">
        <ele>903.40002441406</ele>
        <time>2020-09-12T08:09:35.000Z</time>
      </trkpt>
      <trkpt lat="44.00793" lon="6.87108">
        <ele>904.20001220703</ele>
        <time>2020-09-12T08:09:38.000Z</time>
      </trkpt>
      <trkpt lat="44.00794" lon="6.87111">
        <ele>904.59997558594</ele>
        <time>2020-09-12T08:09:40.000Z</time>
      </trkpt>
      <trkpt lat="44.00798" lon="6.8712">
        <ele>905.59997558594</ele>
        <time>2020-09-12T08:09:45.000Z</time>
      </trkpt>
      <trkpt lat="44.00799" lon="6.87124">
        <ele>906</ele>
        <time>2020-09-12T08:09:47.000Z</time>
      </trkpt>
      <trkpt lat="44.00804" lon="6.8713">
        <ele>906.79998779297</ele>
        <time>2020-09-12T08:09:51.000Z</time>
      </trkpt>
      <trkpt lat="44.00809" lon="6.87133">
        <ele>907.40002441406</ele>
        <time>2020-09-12T08:09:55.000Z</time>
      </trkpt>
      <trkpt lat="44.00812" lon="6.87134">
        <ele>907.79998779297</ele>
        <time>2020-09-12T08:09:57.000Z</time>
      </trkpt>
      <trkpt lat="44.00821" lon="6.87136">
        <ele>908.79998779297</ele>
        <time>2020-09-12T08:10:03.000Z</time>
      </trkpt>
      <trkpt lat="44.00822" lon="6.87136">
        <ele>909.20001220703</ele>
        <time>2020-09-12T08:10:04.000Z</time>
      </trkpt>
      <trkpt lat="44.00827" lon="6.87135">
        <ele>910</ele>
        <time>2020-09-12T08:10:08.000Z</time>
      </trkpt>
      <trkpt lat="44.00834" lon="6.8713">
        <ele>911.20001220703</ele>
        <time>2020-09-12T08:10:13.000Z</time>
      </trkpt>
      <trkpt lat="44.00841" lon="6.87126">
        <ele>912.20001220703</ele>
        <time>2020-09-12T08:10:18.000Z</time>
      </trkpt>
      <trkpt lat="44.00844" lon="6.87122">
        <ele>913</ele>
        <time>2020-09-12T08:10:21.000Z</time>
      </trkpt>
      <trkpt lat="44.00845" lon="6.87122">
        <ele>913.40002441406</ele>
        <time>2020-09-12T08:10:22.000Z</time>
      </trkpt>
      <trkpt lat="44.0085" lon="6.87117">
        <ele>914.40002441406</ele>
        <time>2020-09-12T08:10:26.000Z</time>
      </trkpt>
      <trkpt lat="44.00854" lon="6.87114">
        <ele>915</ele>
        <time>2020-09-12T08:10:29.000Z</time>
      </trkpt>
      <trkpt lat="44.00857" lon="6.87112">
        <ele>915.59997558594</ele>
        <time>2020-09-12T08:10:31.000Z</time>
      </trkpt>
      <trkpt lat="44.00863" lon="6.87105">
        <ele>916.59997558594</ele>
        <time>2020-09-12T08:10:36.000Z</time>
      </trkpt>
      <trkpt lat="44.00866" lon="6.87103">
        <ele>917.20001220703</ele>
        <time>2020-09-12T08:10:38.000Z</time>
      </trkpt>
      <trkpt lat="44.00869" lon="6.87099">
        <ele>917.79998779297</ele>
        <time>2020-09-12T08:10:41.000Z</time>
      </trkpt>
      <trkpt lat="44.00875" lon="6.87093">
        <ele>918.79998779297</ele>
        <time>2020-09-12T08:10:46.000Z</time>
      </trkpt>
      <trkpt lat="44.00876" lon="6.87091">
        <ele>919</ele>
        <time>2020-09-12T08:10:47.000Z</time>
      </trkpt>
      <trkpt lat="44.00884" lon="6.87085">
        <ele>920</ele>
        <time>2020-09-12T08:10:52.000Z</time>
      </trkpt>
      <trkpt lat="44.00891" lon="6.87081">
        <ele>920.59997558594</ele>
        <time>2020-09-12T08:10:56.000Z</time>
      </trkpt>
      <trkpt lat="44.00894" lon="6.8708">
        <ele>921</ele>
        <time>2020-09-12T08:10:58.000Z</time>
      </trkpt>
      <trkpt lat="44.00906" lon="6.8708">
        <ele>921.79998779297</ele>
        <time>2020-09-12T08:11:04.000Z</time>
      </trkpt>
      <trkpt lat="44.00911" lon="6.87083">
        <ele>922.20001220703</ele>
        <time>2020-09-12T08:11:07.000Z</time>
      </trkpt>
      <trkpt lat="44.00919" lon="6.87091">
        <ele>922.79998779297</ele>
        <time>2020-09-12T08:11:12.000Z</time>
      </trkpt>
      <trkpt lat="44.00921" lon="6.87095">
        <ele>923.20001220703</ele>
        <time>2020-09-12T08:11:14.000Z</time>
      </trkpt>
      <trkpt lat="44.0093" lon="6.87106">
        <ele>924.20001220703</ele>
        <time>2020-09-12T08:11:21.000Z</time>
      </trkpt>
      <trkpt lat="44.00932" lon="6.87109">
        <ele>924.59997558594</ele>
        <time>2020-09-12T08:11:23.000Z</time>
      </trkpt>
      <trkpt lat="44.00936" lon="6.87115">
        <ele>925.40002441406</ele>
        <time>2020-09-12T08:11:27.000Z</time>
      </trkpt>
      <trkpt lat="44.00938" lon="6.87116">
        <ele>925.79998779297</ele>
        <time>2020-09-12T08:11:28.000Z</time>
      </trkpt>
      <trkpt lat="44.0094" lon="6.87116">
        <ele>926</ele>
        <time>2020-09-12T08:11:29.000Z</time>
      </trkpt>
      <trkpt lat="44.00941" lon="6.87111">
        <ele>926.59997558594</ele>
        <time>2020-09-12T08:11:32.000Z</time>
      </trkpt>
      <trkpt lat="44.00941" lon="6.87108">
        <ele>927</ele>
        <time>2020-09-12T08:11:33.000Z</time>
      </trkpt>
      <trkpt lat="44.00939" lon="6.87103">
        <ele>927.79998779297</ele>
        <time>2020-09-12T08:11:36.000Z</time>
      </trkpt>
      <trkpt lat="44.00938" lon="6.87101">
        <ele>928</ele>
        <time>2020-09-12T08:11:37.000Z</time>
      </trkpt>
      <trkpt lat="44.00934" lon="6.87093">
        <ele>928.59997558594</ele>
        <time>2020-09-12T08:11:41.000Z</time>
      </trkpt>
      <trkpt lat="44.00932" lon="6.87089">
        <ele>929</ele>
        <time>2020-09-12T08:11:43.000Z</time>
      </trkpt>
      <trkpt lat="44.00927" lon="6.87072">
        <ele>930</ele>
        <time>2020-09-12T08:11:50.000Z</time>
      </trkpt>
      <trkpt lat="44.00925" lon="6.87069">
        <ele>930.20001220703</ele>
        <time>2020-09-12T08:11:51.000Z</time>
      </trkpt>
      <trkpt lat="44.0092" lon="6.87058">
        <ele>931</ele>
        <time>2020-09-12T08:11:56.000Z</time>
      </trkpt>
      <trkpt lat="44.00919" lon="6.87056">
        <ele>931.20001220703</ele>
        <time>2020-09-12T08:11:57.000Z</time>
      </trkpt>
      <trkpt lat="44.00913" lon="6.87048">
        <ele>932.20001220703</ele>
        <time>2020-09-12T08:12:03.000Z</time>
      </trkpt>
      <trkpt lat="44.00912" lon="6.87046">
        <ele>932.40002441406</ele>
        <time>2020-09-12T08:12:04.000Z</time>
      </trkpt>
      <trkpt lat="44.00909" lon="6.87041">
        <ele>933</ele>
        <time>2020-09-12T08:12:08.000Z</time>
      </trkpt>
      <trkpt lat="44.00906" lon="6.87038">
        <ele>933.40002441406</ele>
        <time>2020-09-12T08:12:10.000Z</time>
      </trkpt>
      <trkpt lat="44.00904" lon="6.87036">
        <ele>933.59997558594</ele>
        <time>2020-09-12T08:12:11.000Z</time>
      </trkpt>
      <trkpt lat="44.00893" lon="6.87026">
        <ele>934.40002441406</ele>
        <time>2020-09-12T08:12:17.000Z</time>
      </trkpt>
      <trkpt lat="44.00889" lon="6.87023">
        <ele>934.59997558594</ele>
        <time>2020-09-12T08:12:19.000Z</time>
      </trkpt>
      <trkpt lat="44.00876" lon="6.87017">
        <ele>934.79998779297</ele>
        <time>2020-09-12T08:12:25.000Z</time>
      </trkpt>
      <trkpt lat="44.00863" lon="6.87013">
        <ele>935.79998779297</ele>
        <time>2020-09-12T08:12:31.000Z</time>
      </trkpt>
      <trkpt lat="44.00859" lon="6.87012">
        <ele>936.20001220703</ele>
        <time>2020-09-12T08:12:33.000Z</time>
      </trkpt>
      <trkpt lat="44.00854" lon="6.87009">
        <ele>936.79998779297</ele>
        <time>2020-09-12T08:12:36.000Z</time>
      </trkpt>
      <trkpt lat="44.00845" lon="6.87006">
        <ele>938</ele>
        <time>2020-09-12T08:12:41.000Z</time>
      </trkpt>
      <trkpt lat="44.00844" lon="6.87004">
        <ele>938.20001220703</ele>
        <time>2020-09-12T08:12:42.000Z</time>
      </trkpt>
      <trkpt lat="44.00836" lon="6.87">
        <ele>939.20001220703</ele>
        <time>2020-09-12T08:12:46.000Z</time>
      </trkpt>
      <trkpt lat="44.00828" lon="6.86994">
        <ele>940</ele>
        <time>2020-09-12T08:12:50.000Z</time>
      </trkpt>
      <trkpt lat="44.00824" lon="6.8699">
        <ele>940.20001220703</ele>
        <time>2020-09-12T08:12:52.000Z</time>
      </trkpt>
      <trkpt lat="44.00807" lon="6.86973">
        <ele>941.20001220703</ele>
        <time>2020-09-12T08:13:00.000Z</time>
      </trkpt>
      <trkpt lat="44.00805" lon="6.8697">
        <ele>941.40002441406</ele>
        <time>2020-09-12T08:13:01.000Z</time>
      </trkpt>
      <trkpt lat="44.00799" lon="6.86953">
        <ele>942.40002441406</ele>
        <time>2020-09-12T08:13:07.000Z</time>
      </trkpt>
      <trkpt lat="44.00801" lon="6.86941">
        <ele>943.59997558594</ele>
        <time>2020-09-12T08:13:12.000Z</time>
      </trkpt>
      <trkpt lat="44.00807" lon="6.86935">
        <ele>944.59997558594</ele>
        <time>2020-09-12T08:13:16.000Z</time>
      </trkpt>
      <trkpt lat="44.00809" lon="6.86935">
        <ele>944.79998779297</ele>
        <time>2020-09-12T08:13:17.000Z</time>
      </trkpt>
      <trkpt lat="44.00814" lon="6.86939">
        <ele>945.79998779297</ele>
        <time>2020-09-12T08:13:20.000Z</time>
      </trkpt>
      <trkpt lat="44.00819" lon="6.86943">
        <ele>946.59997558594</ele>
        <time>2020-09-12T08:13:23.000Z</time>
      </trkpt>
      <trkpt lat="44.00822" lon="6.86946">
        <ele>947</ele>
        <time>2020-09-12T08:13:25.000Z</time>
      </trkpt>
      <trkpt lat="44.00834" lon="6.86953">
        <ele>948.20001220703</ele>
        <time>2020-09-12T08:13:32.000Z</time>
      </trkpt>
      <trkpt lat="44.00836" lon="6.86953">
        <ele>948.40002441406</ele>
        <time>2020-09-12T08:13:33.000Z</time>
      </trkpt>
      <trkpt lat="44.00845" lon="6.86954">
        <ele>949.40002441406</ele>
        <time>2020-09-12T08:13:38.000Z</time>
      </trkpt>
      <trkpt lat="44.00854" lon="6.86957">
        <ele>950.40002441406</ele>
        <time>2020-09-12T08:13:43.000Z</time>
      </trkpt>
      <trkpt lat="44.00856" lon="6.86957">
        <ele>950.59997558594</ele>
        <time>2020-09-12T08:13:44.000Z</time>
      </trkpt>
      <trkpt lat="44.00866" lon="6.86957">
        <ele>951.59997558594</ele>
        <time>2020-09-12T08:13:49.000Z</time>
      </trkpt>
      <trkpt lat="44.00869" lon="6.86957">
        <ele>952.20001220703</ele>
        <time>2020-09-12T08:13:51.000Z</time>
      </trkpt>
      <trkpt lat="44.00875" lon="6.86956">
        <ele>952.59997558594</ele>
        <time>2020-09-12T08:13:54.000Z</time>
      </trkpt>
      <trkpt lat="44.00887" lon="6.86954">
        <ele>953.59997558594</ele>
        <time>2020-09-12T08:14:00.000Z</time>
      </trkpt>
      <trkpt lat="44.00889" lon="6.86953">
        <ele>953.79998779297</ele>
        <time>2020-09-12T08:14:01.000Z</time>
      </trkpt>
      <trkpt lat="44.00903" lon="6.8695">
        <ele>954.79998779297</ele>
        <time>2020-09-12T08:14:08.000Z</time>
      </trkpt>
      <trkpt lat="44.00906" lon="6.8695">
        <ele>955</ele>
        <time>2020-09-12T08:14:10.000Z</time>
      </trkpt>
      <trkpt lat="44.00912" lon="6.86947">
        <ele>955.40002441406</ele>
        <time>2020-09-12T08:14:14.000Z</time>
      </trkpt>
      <trkpt lat="44.00912" lon="6.86942">
        <ele>955.59997558594</ele>
        <time>2020-09-12T08:14:16.000Z</time>
      </trkpt>
      <trkpt lat="44.00911" lon="6.86941">
        <ele>955.79998779297</ele>
        <time>2020-09-12T08:14:17.000Z</time>
      </trkpt>
      <trkpt lat="44.00907" lon="6.8694">
        <ele>956.59997558594</ele>
        <time>2020-09-12T08:14:20.000Z</time>
      </trkpt>
      <trkpt lat="44.00904" lon="6.8694">
        <ele>957.20001220703</ele>
        <time>2020-09-12T08:14:22.000Z</time>
      </trkpt>
      <trkpt lat="44.00902" lon="6.8694">
        <ele>957.40002441406</ele>
        <time>2020-09-12T08:14:23.000Z</time>
      </trkpt>
      <trkpt lat="44.00895" lon="6.86938">
        <ele>958.20001220703</ele>
        <time>2020-09-12T08:14:28.000Z</time>
      </trkpt>
      <trkpt lat="44.00887" lon="6.86934">
        <ele>959.40002441406</ele>
        <time>2020-09-12T08:14:34.000Z</time>
      </trkpt>
      <trkpt lat="44.00884" lon="6.86932">
        <ele>959.79998779297</ele>
        <time>2020-09-12T08:14:36.000Z</time>
      </trkpt>
      <trkpt lat="44.00881" lon="6.86928">
        <ele>960.40002441406</ele>
        <time>2020-09-12T08:14:39.000Z</time>
      </trkpt>
      <trkpt lat="44.00877" lon="6.86923">
        <ele>961.59997558594</ele>
        <time>2020-09-12T08:14:43.000Z</time>
      </trkpt>
      <trkpt lat="44.00876" lon="6.8692">
        <ele>962.20001220703</ele>
        <time>2020-09-12T08:14:45.000Z</time>
      </trkpt>
      <trkpt lat="44.00874" lon="6.86918">
        <ele>962.59997558594</ele>
        <time>2020-09-12T08:14:47.000Z</time>
      </trkpt>
      <trkpt lat="44.00873" lon="6.86915">
        <ele>963.40002441406</ele>
        <time>2020-09-12T08:14:49.000Z</time>
      </trkpt>
      <trkpt lat="44.00872" lon="6.86914">
        <ele>963.79998779297</ele>
        <time>2020-09-12T08:14:50.000Z</time>
      </trkpt>
      <trkpt lat="44.00871" lon="6.86911">
        <ele>964.59997558594</ele>
        <time>2020-09-12T08:14:52.000Z</time>
      </trkpt>
      <trkpt lat="44.00869" lon="6.86909">
        <ele>965</ele>
        <time>2020-09-12T08:14:54.000Z</time>
      </trkpt>
      <trkpt lat="44.00864" lon="6.86903">
        <ele>966</ele>
        <time>2020-09-12T08:14:59.000Z</time>
      </trkpt>
      <trkpt lat="44.00863" lon="6.86901">
        <ele>966.20001220703</ele>
        <time>2020-09-12T08:15:00.000Z</time>
      </trkpt>
      <trkpt lat="44.00859" lon="6.86891">
        <ele>967.20001220703</ele>
        <time>2020-09-12T08:15:06.000Z</time>
      </trkpt>
      <trkpt lat="44.00857" lon="6.86886">
        <ele>967.59997558594</ele>
        <time>2020-09-12T08:15:09.000Z</time>
      </trkpt>
      <trkpt lat="44.00854" lon="6.86879">
        <ele>968.40002441406</ele>
        <time>2020-09-12T08:15:13.000Z</time>
      </trkpt>
      <trkpt lat="44.00848" lon="6.8687">
        <ele>969.40002441406</ele>
        <time>2020-09-12T08:15:19.000Z</time>
      </trkpt>
      <trkpt lat="44.00845" lon="6.86863">
        <ele>970.40002441406</ele>
        <time>2020-09-12T08:15:24.000Z</time>
      </trkpt>
      <trkpt lat="44.00842" lon="6.86858">
        <ele>971.40002441406</ele>
        <time>2020-09-12T08:15:28.000Z</time>
      </trkpt>
      <trkpt lat="44.00838" lon="6.86852">
        <ele>972.59997558594</ele>
        <time>2020-09-12T08:15:33.000Z</time>
      </trkpt>
      <trkpt lat="44.00836" lon="6.8685">
        <ele>973</ele>
        <time>2020-09-12T08:15:35.000Z</time>
      </trkpt>
      <trkpt lat="44.00833" lon="6.86846">
        <ele>973.59997558594</ele>
        <time>2020-09-12T08:15:38.000Z</time>
      </trkpt>
      <trkpt lat="44.00833" lon="6.86843">
        <ele>974</ele>
        <time>2020-09-12T08:15:40.000Z</time>
      </trkpt>
      <trkpt lat="44.00835" lon="6.86841">
        <ele>974.59997558594</ele>
        <time>2020-09-12T08:15:42.000Z</time>
      </trkpt>
      <trkpt lat="44.00836" lon="6.86841">
        <ele>974.59997558594</ele>
        <time>2020-09-12T08:15:43.000Z</time>
      </trkpt>
      <trkpt lat="44.00839" lon="6.86841">
        <ele>975</ele>
        <time>2020-09-12T08:15:45.000Z</time>
      </trkpt>
      <trkpt lat="44.00841" lon="6.86842">
        <ele>975.20001220703</ele>
        <time>2020-09-12T08:15:47.000Z</time>
      </trkpt>
      <trkpt lat="44.00847" lon="6.86844">
        <ele>975.79998779297</ele>
        <time>2020-09-12T08:15:51.000Z</time>
      </trkpt>
      <trkpt lat="44.00853" lon="6.86846">
        <ele>976.40002441406</ele>
        <time>2020-09-12T08:15:56.000Z</time>
      </trkpt>
      <trkpt lat="44.00856" lon="6.86847">
        <ele>977</ele>
        <time>2020-09-12T08:15:58.000Z</time>
      </trkpt>
      <trkpt lat="44.0086" lon="6.86849">
        <ele>978.20001220703</ele>
        <time>2020-09-12T08:16:03.000Z</time>
      </trkpt>
      <trkpt lat="44.00865" lon="6.86849">
        <ele>979</ele>
        <time>2020-09-12T08:16:07.000Z</time>
      </trkpt>
      <trkpt lat="44.00868" lon="6.86849">
        <ele>979.20001220703</ele>
        <time>2020-09-12T08:16:09.000Z</time>
      </trkpt>
      <trkpt lat="44.00869" lon="6.86849">
        <ele>979.40002441406</ele>
        <time>2020-09-12T08:16:10.000Z</time>
      </trkpt>
      <trkpt lat="44.00874" lon="6.8685">
        <ele>980.40002441406</ele>
        <time>2020-09-12T08:16:14.000Z</time>
      </trkpt>
      <trkpt lat="44.00879" lon="6.86853">
        <ele>981.20001220703</ele>
        <time>2020-09-12T08:16:18.000Z</time>
      </trkpt>
      <trkpt lat="44.0088" lon="6.86854">
        <ele>981.40002441406</ele>
        <time>2020-09-12T08:16:19.000Z</time>
      </trkpt>
      <trkpt lat="44.00885" lon="6.86855">
        <ele>982.40002441406</ele>
        <time>2020-09-12T08:16:23.000Z</time>
      </trkpt>
      <trkpt lat="44.00889" lon="6.86857">
        <ele>983.20001220703</ele>
        <time>2020-09-12T08:16:26.000Z</time>
      </trkpt>
      <trkpt lat="44.00892" lon="6.86857">
        <ele>983.59997558594</ele>
        <time>2020-09-12T08:16:28.000Z</time>
      </trkpt>
      <trkpt lat="44.00899" lon="6.86859">
        <ele>984.20001220703</ele>
        <time>2020-09-12T08:16:33.000Z</time>
      </trkpt>
      <trkpt lat="44.00901" lon="6.86859">
        <ele>984.59997558594</ele>
        <time>2020-09-12T08:16:35.000Z</time>
      </trkpt>
      <trkpt lat="44.00907" lon="6.8686">
        <ele>985.79998779297</ele>
        <time>2020-09-12T08:16:40.000Z</time>
      </trkpt>
      <trkpt lat="44.00908" lon="6.86861">
        <ele>985.79998779297</ele>
        <time>2020-09-12T08:16:41.000Z</time>
      </trkpt>
      <trkpt lat="44.00913" lon="6.8686">
        <ele>986.59997558594</ele>
        <time>2020-09-12T08:16:45.000Z</time>
      </trkpt>
      <trkpt lat="44.00914" lon="6.86858">
        <ele>986.79998779297</ele>
        <time>2020-09-12T08:16:46.000Z</time>
      </trkpt>
      <trkpt lat="44.00914" lon="6.86856">
        <ele>987</ele>
        <time>2020-09-12T08:16:47.000Z</time>
      </trkpt>
      <trkpt lat="44.00913" lon="6.86848">
        <ele>987.40002441406</ele>
        <time>2020-09-12T08:16:51.000Z</time>
      </trkpt>
      <trkpt lat="44.00912" lon="6.86847">
        <ele>987.59997558594</ele>
        <time>2020-09-12T08:16:52.000Z</time>
      </trkpt>
      <trkpt lat="44.00911" lon="6.86846">
        <ele>987.79998779297</ele>
        <time>2020-09-12T08:16:53.000Z</time>
      </trkpt>
      <trkpt lat="44.00906" lon="6.86843">
        <ele>989</ele>
        <time>2020-09-12T08:16:57.000Z</time>
      </trkpt>
      <trkpt lat="44.00903" lon="6.8684">
        <ele>989.59997558594</ele>
        <time>2020-09-12T08:17:00.000Z</time>
      </trkpt>
      <trkpt lat="44.009" lon="6.86837">
        <ele>990</ele>
        <time>2020-09-12T08:17:02.000Z</time>
      </trkpt>
      <trkpt lat="44.00896" lon="6.86832">
        <ele>990.59997558594</ele>
        <time>2020-09-12T08:17:06.000Z</time>
      </trkpt>
      <trkpt lat="44.00893" lon="6.86826">
        <ele>991.20001220703</ele>
        <time>2020-09-12T08:17:09.000Z</time>
      </trkpt>
      <trkpt lat="44.00888" lon="6.86819">
        <ele>992.20001220703</ele>
        <time>2020-09-12T08:17:14.000Z</time>
      </trkpt>
      <trkpt lat="44.00887" lon="6.86817">
        <ele>992.40002441406</ele>
        <time>2020-09-12T08:17:15.000Z</time>
      </trkpt>
      <trkpt lat="44.00884" lon="6.86811">
        <ele>993.40002441406</ele>
        <time>2020-09-12T08:17:19.000Z</time>
      </trkpt>
      <trkpt lat="44.00882" lon="6.86805">
        <ele>994.20001220703</ele>
        <time>2020-09-12T08:17:23.000Z</time>
      </trkpt>
      <trkpt lat="44.0088" lon="6.86802">
        <ele>994.40002441406</ele>
        <time>2020-09-12T08:17:25.000Z</time>
      </trkpt>
      <trkpt lat="44.00876" lon="6.86794">
        <ele>995.59997558594</ele>
        <time>2020-09-12T08:17:30.000Z</time>
      </trkpt>
      <trkpt lat="44.00874" lon="6.86793">
        <ele>995.79998779297</ele>
        <time>2020-09-12T08:17:31.000Z</time>
      </trkpt>
      <trkpt lat="44.00871" lon="6.86789">
        <ele>996.79998779297</ele>
        <time>2020-09-12T08:17:34.000Z</time>
      </trkpt>
      <trkpt lat="44.00863" lon="6.86783">
        <ele>997.79998779297</ele>
        <time>2020-09-12T08:17:40.000Z</time>
      </trkpt>
      <trkpt lat="44.00861" lon="6.86783">
        <ele>998</ele>
        <time>2020-09-12T08:17:41.000Z</time>
      </trkpt>
      <trkpt lat="44.0085" lon="6.86776">
        <ele>998.79998779297</ele>
        <time>2020-09-12T08:17:48.000Z</time>
      </trkpt>
      <trkpt lat="44.00849" lon="6.86776">
        <ele>999</ele>
        <time>2020-09-12T08:17:49.000Z</time>
      </trkpt>
      <trkpt lat="44.00839" lon="6.8677">
        <ele>1000</ele>
        <time>2020-09-12T08:17:55.000Z</time>
      </trkpt>
      <trkpt lat="44.00838" lon="6.86769">
        <ele>1000.200012207</ele>
        <time>2020-09-12T08:17:56.000Z</time>
      </trkpt>
      <trkpt lat="44.0083" lon="6.86759">
        <ele>1001.200012207</ele>
        <time>2020-09-12T08:18:02.000Z</time>
      </trkpt>
      <trkpt lat="44.0083" lon="6.86757">
        <ele>1001.4000244141</ele>
        <time>2020-09-12T08:18:03.000Z</time>
      </trkpt>
      <trkpt lat="44.0083" lon="6.86754">
        <ele>1001.799987793</ele>
        <time>2020-09-12T08:18:05.000Z</time>
      </trkpt>
      <trkpt lat="44.00832" lon="6.86753">
        <ele>1002.5999755859</ele>
        <time>2020-09-12T08:18:08.000Z</time>
      </trkpt>
      <trkpt lat="44.00835" lon="6.86755">
        <ele>1003.4000244141</ele>
        <time>2020-09-12T08:18:11.000Z</time>
      </trkpt>
      <trkpt lat="44.00836" lon="6.86756">
        <ele>1003.5999755859</ele>
        <time>2020-09-12T08:18:12.000Z</time>
      </trkpt>
      <trkpt lat="44.0084" lon="6.86758">
        <ele>1004.4000244141</ele>
        <time>2020-09-12T08:18:15.000Z</time>
      </trkpt>
      <trkpt lat="44.00842" lon="6.8676">
        <ele>1004.799987793</ele>
        <time>2020-09-12T08:18:17.000Z</time>
      </trkpt>
      <trkpt lat="44.0085" lon="6.86762">
        <ele>1005.799987793</ele>
        <time>2020-09-12T08:18:22.000Z</time>
      </trkpt>
      <trkpt lat="44.00852" lon="6.86762">
        <ele>1005.799987793</ele>
        <time>2020-09-12T08:18:23.000Z</time>
      </trkpt>
      <trkpt lat="44.00863" lon="6.86764">
        <ele>1007</ele>
        <time>2020-09-12T08:18:30.000Z</time>
      </trkpt>
      <trkpt lat="44.00875" lon="6.86767">
        <ele>1008</ele>
        <time>2020-09-12T08:18:37.000Z</time>
      </trkpt>
      <trkpt lat="44.00877" lon="6.86768">
        <ele>1008.200012207</ele>
        <time>2020-09-12T08:18:38.000Z</time>
      </trkpt>
      <trkpt lat="44.00891" lon="6.86778">
        <ele>1009.200012207</ele>
        <time>2020-09-12T08:18:46.000Z</time>
      </trkpt>
      <trkpt lat="44.00893" lon="6.86779">
        <ele>1009.200012207</ele>
        <time>2020-09-12T08:18:47.000Z</time>
      </trkpt>
      <trkpt lat="44.009" lon="6.86784">
        <ele>1010.4000244141</ele>
        <time>2020-09-12T08:18:52.000Z</time>
      </trkpt>
      <trkpt lat="44.00905" lon="6.86788">
        <ele>1010.799987793</ele>
        <time>2020-09-12T08:18:55.000Z</time>
      </trkpt>
      <trkpt lat="44.00912" lon="6.86793">
        <ele>1011.4000244141</ele>
        <time>2020-09-12T08:18:59.000Z</time>
      </trkpt>
      <trkpt lat="44.00923" lon="6.86799">
        <ele>1012.200012207</ele>
        <time>2020-09-12T08:19:05.000Z</time>
      </trkpt>
      <trkpt lat="44.00927" lon="6.86801">
        <ele>1012.5999755859</ele>
        <time>2020-09-12T08:19:07.000Z</time>
      </trkpt>
      <trkpt lat="44.00937" lon="6.86805">
        <ele>1013.5999755859</ele>
        <time>2020-09-12T08:19:13.000Z</time>
      </trkpt>
      <trkpt lat="44.00946" lon="6.86807">
        <ele>1015</ele>
        <time>2020-09-12T08:19:19.000Z</time>
      </trkpt>
      <trkpt lat="44.00946" lon="6.86807">
        <ele>1015.200012207</ele>
        <time>2020-09-12T08:19:20.000Z</time>
      </trkpt>
      <trkpt lat="44.00947" lon="6.86806">
        <ele>1015.4000244141</ele>
        <time>2020-09-12T08:19:21.000Z</time>
      </trkpt>
      <trkpt lat="44.0095" lon="6.86804">
        <ele>1016</ele>
        <time>2020-09-12T08:19:23.000Z</time>
      </trkpt>
      <trkpt lat="44.00953" lon="6.86797">
        <ele>1017</ele>
        <time>2020-09-12T08:19:27.000Z</time>
      </trkpt>
      <trkpt lat="44.00954" lon="6.86795">
        <ele>1017.200012207</ele>
        <time>2020-09-12T08:19:28.000Z</time>
      </trkpt>
      <trkpt lat="44.00953" lon="6.86792">
        <ele>1017.4000244141</ele>
        <time>2020-09-12T08:19:29.000Z</time>
      </trkpt>
      <trkpt lat="44.0095" lon="6.86786">
        <ele>1018.200012207</ele>
        <time>2020-09-12T08:19:33.000Z</time>
      </trkpt>
      <trkpt lat="44.00946" lon="6.86781">
        <ele>1019.4000244141</ele>
        <time>2020-09-12T08:19:37.000Z</time>
      </trkpt>
      <trkpt lat="44.0094" lon="6.86775">
        <ele>1020.5999755859</ele>
        <time>2020-09-12T08:19:42.000Z</time>
      </trkpt>
      <trkpt lat="44.00939" lon="6.86774">
        <ele>1020.799987793</ele>
        <time>2020-09-12T08:19:43.000Z</time>
      </trkpt>
      <trkpt lat="44.00933" lon="6.86767">
        <ele>1021.5999755859</ele>
        <time>2020-09-12T08:19:48.000Z</time>
      </trkpt>
      <trkpt lat="44.00927" lon="6.86761">
        <ele>1022.4000244141</ele>
        <time>2020-09-12T08:19:53.000Z</time>
      </trkpt>
      <trkpt lat="44.00924" lon="6.86758">
        <ele>1022.799987793</ele>
        <time>2020-09-12T08:19:55.000Z</time>
      </trkpt>
      <trkpt lat="44.00916" lon="6.8675">
        <ele>1024</ele>
        <time>2020-09-12T08:20:01.000Z</time>
      </trkpt>
      <trkpt lat="44.00912" lon="6.86746">
        <ele>1024.4000244141</ele>
        <time>2020-09-12T08:20:04.000Z</time>
      </trkpt>
      <trkpt lat="44.00908" lon="6.86742">
        <ele>1025</ele>
        <time>2020-09-12T08:20:07.000Z</time>
      </trkpt>
      <trkpt lat="44.00901" lon="6.86736">
        <ele>1026.1999511719</ele>
        <time>2020-09-12T08:20:12.000Z</time>
      </trkpt>
      <trkpt lat="44.00893" lon="6.86729">
        <ele>1027.1999511719</ele>
        <time>2020-09-12T08:20:18.000Z</time>
      </trkpt>
      <trkpt lat="44.00891" lon="6.86728">
        <ele>1027.4000244141</ele>
        <time>2020-09-12T08:20:19.000Z</time>
      </trkpt>
      <trkpt lat="44.00878" lon="6.86718">
        <ele>1028</ele>
        <time>2020-09-12T08:20:26.000Z</time>
      </trkpt>
      <trkpt lat="44.00872" lon="6.86706">
        <ele>1028.4000244141</ele>
        <time>2020-09-12T08:20:30.000Z</time>
      </trkpt>
      <trkpt lat="44.00871" lon="6.867">
        <ele>1028.4000244141</ele>
        <time>2020-09-12T08:20:32.000Z</time>
      </trkpt>
      <trkpt lat="44.00868" lon="6.86683">
        <ele>1029.1999511719</ele>
        <time>2020-09-12T08:20:40.000Z</time>
      </trkpt>
      <trkpt lat="44.00868" lon="6.86681">
        <ele>1029.4000244141</ele>
        <time>2020-09-12T08:20:41.000Z</time>
      </trkpt>
      <trkpt lat="44.00873" lon="6.86679">
        <ele>1030.4000244141</ele>
        <time>2020-09-12T08:20:45.000Z</time>
      </trkpt>
      <trkpt lat="44.00874" lon="6.86679">
        <ele>1030.5999755859</ele>
        <time>2020-09-12T08:20:46.000Z</time>
      </trkpt>
      <trkpt lat="44.0088" lon="6.86685">
        <ele>1031.5999755859</ele>
        <time>2020-09-12T08:20:51.000Z</time>
      </trkpt>
      <trkpt lat="44.00881" lon="6.86686">
        <ele>1031.8000488281</ele>
        <time>2020-09-12T08:20:52.000Z</time>
      </trkpt>
      <trkpt lat="44.00885" lon="6.86689">
        <ele>1033</ele>
        <time>2020-09-12T08:20:56.000Z</time>
      </trkpt>
      <trkpt lat="44.0089" lon="6.86693">
        <ele>1033.8000488281</ele>
        <time>2020-09-12T08:21:00.000Z</time>
      </trkpt>
      <trkpt lat="44.00892" lon="6.86694">
        <ele>1034.1999511719</ele>
        <time>2020-09-12T08:21:02.000Z</time>
      </trkpt>
      <trkpt lat="44.00899" lon="6.86698">
        <ele>1035.1999511719</ele>
        <time>2020-09-12T08:21:07.000Z</time>
      </trkpt>
      <trkpt lat="44.00906" lon="6.86702">
        <ele>1036.4000244141</ele>
        <time>2020-09-12T08:21:12.000Z</time>
      </trkpt>
      <trkpt lat="44.00914" lon="6.86705">
        <ele>1037.4000244141</ele>
        <time>2020-09-12T08:21:18.000Z</time>
      </trkpt>
      <trkpt lat="44.00921" lon="6.86706">
        <ele>1038.5999755859</ele>
        <time>2020-09-12T08:21:24.000Z</time>
      </trkpt>
      <trkpt lat="44.00925" lon="6.86706">
        <ele>1039.4000244141</ele>
        <time>2020-09-12T08:21:27.000Z</time>
      </trkpt>
      <trkpt lat="44.00926" lon="6.86706">
        <ele>1039.5999755859</ele>
        <time>2020-09-12T08:21:28.000Z</time>
      </trkpt>
      <trkpt lat="44.00931" lon="6.86707">
        <ele>1040.8000488281</ele>
        <time>2020-09-12T08:21:33.000Z</time>
      </trkpt>
      <trkpt lat="44.00937" lon="6.86706">
        <ele>1042</ele>
        <time>2020-09-12T08:21:39.000Z</time>
      </trkpt>
      <trkpt lat="44.00943" lon="6.86705">
        <ele>1043</ele>
        <time>2020-09-12T08:21:44.000Z</time>
      </trkpt>
      <trkpt lat="44.00949" lon="6.86706">
        <ele>1044.1999511719</ele>
        <time>2020-09-12T08:21:49.000Z</time>
      </trkpt>
      <trkpt lat="44.00957" lon="6.86707">
        <ele>1045.4000244141</ele>
        <time>2020-09-12T08:21:56.000Z</time>
      </trkpt>
      <trkpt lat="44.00959" lon="6.86708">
        <ele>1045.8000488281</ele>
        <time>2020-09-12T08:21:58.000Z</time>
      </trkpt>
      <trkpt lat="44.00963" lon="6.86707">
        <ele>1046.4000244141</ele>
        <time>2020-09-12T08:22:01.000Z</time>
      </trkpt>
      <trkpt lat="44.00971" lon="6.86706">
        <ele>1047.4000244141</ele>
        <time>2020-09-12T08:22:06.000Z</time>
      </trkpt>
      <trkpt lat="44.00973" lon="6.86706">
        <ele>1047.4000244141</ele>
        <time>2020-09-12T08:22:07.000Z</time>
      </trkpt>
      <trkpt lat="44.00985" lon="6.86704">
        <ele>1048.5999755859</ele>
        <time>2020-09-12T08:22:14.000Z</time>
      </trkpt>
      <trkpt lat="44.00987" lon="6.86704">
        <ele>1048.5999755859</ele>
        <time>2020-09-12T08:22:15.000Z</time>
      </trkpt>
      <trkpt lat="44.00996" lon="6.86701">
        <ele>1049.8000488281</ele>
        <time>2020-09-12T08:22:20.000Z</time>
      </trkpt>
      <trkpt lat="44.01007" lon="6.86698">
        <ele>1050.5999755859</ele>
        <time>2020-09-12T08:22:26.000Z</time>
      </trkpt>
      <trkpt lat="44.01012" lon="6.86697">
        <ele>1050.8000488281</ele>
        <time>2020-09-12T08:22:29.000Z</time>
      </trkpt>
      <trkpt lat="44.01026" lon="6.86696">
        <ele>1051.4000244141</ele>
        <time>2020-09-12T08:22:35.000Z</time>
      </trkpt>
      <trkpt lat="44.01049" lon="6.86689">
        <ele>1051.8000488281</ele>
        <time>2020-09-12T08:22:44.000Z</time>
      </trkpt>
      <trkpt lat="44.01051" lon="6.86688">
        <ele>1051.8000488281</ele>
        <time>2020-09-12T08:22:45.000Z</time>
      </trkpt>
      <trkpt lat="44.0106" lon="6.86685">
        <ele>1052.8000488281</ele>
        <time>2020-09-12T08:22:50.000Z</time>
      </trkpt>
      <trkpt lat="44.01066" lon="6.86684">
        <ele>1053.4000244141</ele>
        <time>2020-09-12T08:22:53.000Z</time>
      </trkpt>
      <trkpt lat="44.01071" lon="6.86684">
        <ele>1054</ele>
        <time>2020-09-12T08:22:56.000Z</time>
      </trkpt>
      <trkpt lat="44.01076" lon="6.86681">
        <ele>1055</ele>
        <time>2020-09-12T08:23:00.000Z</time>
      </trkpt>
      <trkpt lat="44.01078" lon="6.8668">
        <ele>1055.4000244141</ele>
        <time>2020-09-12T08:23:01.000Z</time>
      </trkpt>
      <trkpt lat="44.01078" lon="6.86672">
        <ele>1056.1999511719</ele>
        <time>2020-09-12T08:23:05.000Z</time>
      </trkpt>
      <trkpt lat="44.01077" lon="6.86669">
        <ele>1056.5999755859</ele>
        <time>2020-09-12T08:23:07.000Z</time>
      </trkpt>
      <trkpt lat="44.01075" lon="6.86666">
        <ele>1057</ele>
        <time>2020-09-12T08:23:09.000Z</time>
      </trkpt>
      <trkpt lat="44.01072" lon="6.86663">
        <ele>1057.5999755859</ele>
        <time>2020-09-12T08:23:11.000Z</time>
      </trkpt>
      <trkpt lat="44.0107" lon="6.86662">
        <ele>1057.8000488281</ele>
        <time>2020-09-12T08:23:12.000Z</time>
      </trkpt>
      <trkpt lat="44.01064" lon="6.8666">
        <ele>1058.5999755859</ele>
        <time>2020-09-12T08:23:16.000Z</time>
      </trkpt>
      <trkpt lat="44.01059" lon="6.86661">
        <ele>1059.1999511719</ele>
        <time>2020-09-12T08:23:19.000Z</time>
      </trkpt>
      <trkpt lat="44.01055" lon="6.86662">
        <ele>1059.8000488281</ele>
        <time>2020-09-12T08:23:22.000Z</time>
      </trkpt>
      <trkpt lat="44.01047" lon="6.86663">
        <ele>1060.5999755859</ele>
        <time>2020-09-12T08:23:26.000Z</time>
      </trkpt>
      <trkpt lat="44.01045" lon="6.86664">
        <ele>1060.8000488281</ele>
        <time>2020-09-12T08:23:27.000Z</time>
      </trkpt>
      <trkpt lat="44.01034" lon="6.86664">
        <ele>1061.1999511719</ele>
        <time>2020-09-12T08:23:32.000Z</time>
      </trkpt>
      <trkpt lat="44.01026" lon="6.86663">
        <ele>1062</ele>
        <time>2020-09-12T08:23:37.000Z</time>
      </trkpt>
      <trkpt lat="44.01023" lon="6.86662">
        <ele>1062.4000244141</ele>
        <time>2020-09-12T08:23:39.000Z</time>
      </trkpt>
      <trkpt lat="44.01018" lon="6.8666">
        <ele>1063</ele>
        <time>2020-09-12T08:23:42.000Z</time>
      </trkpt>
      <trkpt lat="44.01011" lon="6.86656">
        <ele>1064.1999511719</ele>
        <time>2020-09-12T08:23:47.000Z</time>
      </trkpt>
      <trkpt lat="44.01009" lon="6.86655">
        <ele>1064.4000244141</ele>
        <time>2020-09-12T08:23:48.000Z</time>
      </trkpt>
      <trkpt lat="44.01005" lon="6.86653">
        <ele>1065.1999511719</ele>
        <time>2020-09-12T08:23:51.000Z</time>
      </trkpt>
      <trkpt lat="44.01" lon="6.86649">
        <ele>1066.4000244141</ele>
        <time>2020-09-12T08:23:55.000Z</time>
      </trkpt>
      <trkpt lat="44.00996" lon="6.86646">
        <ele>1067.1999511719</ele>
        <time>2020-09-12T08:23:58.000Z</time>
      </trkpt>
      <trkpt lat="44.00994" lon="6.86645">
        <ele>1067.5999755859</ele>
        <time>2020-09-12T08:24:00.000Z</time>
      </trkpt>
      <trkpt lat="44.00989" lon="6.86641">
        <ele>1068.4000244141</ele>
        <time>2020-09-12T08:24:04.000Z</time>
      </trkpt>
      <trkpt lat="44.00987" lon="6.86639">
        <ele>1068.5999755859</ele>
        <time>2020-09-12T08:24:05.000Z</time>
      </trkpt>
      <trkpt lat="44.0098" lon="6.86632">
        <ele>1070</ele>
        <time>2020-09-12T08:24:10.000Z</time>
      </trkpt>
      <trkpt lat="44.00977" lon="6.86627">
        <ele>1070.8000488281</ele>
        <time>2020-09-12T08:24:13.000Z</time>
      </trkpt>
      <trkpt lat="44.00975" lon="6.86624">
        <ele>1071.1999511719</ele>
        <time>2020-09-12T08:24:15.000Z</time>
      </trkpt>
      <trkpt lat="44.0097" lon="6.86617">
        <ele>1072.1999511719</ele>
        <time>2020-09-12T08:24:20.000Z</time>
      </trkpt>
      <trkpt lat="44.00968" lon="6.86614">
        <ele>1072.5999755859</ele>
        <time>2020-09-12T08:24:22.000Z</time>
      </trkpt>
      <trkpt lat="44.00966" lon="6.8661">
        <ele>1073.4000244141</ele>
        <time>2020-09-12T08:24:25.000Z</time>
      </trkpt>
      <trkpt lat="44.00963" lon="6.86601">
        <ele>1074.4000244141</ele>
        <time>2020-09-12T08:24:30.000Z</time>
      </trkpt>
      <trkpt lat="44.00962" lon="6.86599">
        <ele>1074.5999755859</ele>
        <time>2020-09-12T08:24:31.000Z</time>
      </trkpt>
      <trkpt lat="44.00959" lon="6.86588">
        <ele>1075.8000488281</ele>
        <time>2020-09-12T08:24:37.000Z</time>
      </trkpt>
      <trkpt lat="44.00959" lon="6.86585">
        <ele>1076.4000244141</ele>
        <time>2020-09-12T08:24:39.000Z</time>
      </trkpt>
      <trkpt lat="44.00958" lon="6.86581">
        <ele>1076.8000488281</ele>
        <time>2020-09-12T08:24:41.000Z</time>
      </trkpt>
      <trkpt lat="44.00958" lon="6.86574">
        <ele>1078</ele>
        <time>2020-09-12T08:24:46.000Z</time>
      </trkpt>
      <trkpt lat="44.00957" lon="6.86571">
        <ele>1078.4000244141</ele>
        <time>2020-09-12T08:24:48.000Z</time>
      </trkpt>
      <trkpt lat="44.00957" lon="6.86566">
        <ele>1079.1999511719</ele>
        <time>2020-09-12T08:24:51.000Z</time>
      </trkpt>
      <trkpt lat="44.00957" lon="6.86558">
        <ele>1080.1999511719</ele>
        <time>2020-09-12T08:24:56.000Z</time>
      </trkpt>
      <trkpt lat="44.00956" lon="6.86556">
        <ele>1080.4000244141</ele>
        <time>2020-09-12T08:24:57.000Z</time>
      </trkpt>
      <trkpt lat="44.00956" lon="6.8655">
        <ele>1081.1999511719</ele>
        <time>2020-09-12T08:25:01.000Z</time>
      </trkpt>
      <trkpt lat="44.00957" lon="6.86544">
        <ele>1082.1999511719</ele>
        <time>2020-09-12T08:25:05.000Z</time>
      </trkpt>
      <trkpt lat="44.00957" lon="6.86543">
        <ele>1082.4000244141</ele>
        <time>2020-09-12T08:25:06.000Z</time>
      </trkpt>
      <trkpt lat="44.00958" lon="6.8654">
        <ele>1082.8000488281</ele>
        <time>2020-09-12T08:25:08.000Z</time>
      </trkpt>
      <trkpt lat="44.00961" lon="6.8654">
        <ele>1083.4000244141</ele>
        <time>2020-09-12T08:25:11.000Z</time>
      </trkpt>
      <trkpt lat="44.00964" lon="6.86546">
        <ele>1084.1999511719</ele>
        <time>2020-09-12T08:25:15.000Z</time>
      </trkpt>
      <trkpt lat="44.00965" lon="6.86547">
        <ele>1084.4000244141</ele>
        <time>2020-09-12T08:25:16.000Z</time>
      </trkpt>
      <trkpt lat="44.00965" lon="6.86548">
        <ele>1084.5999755859</ele>
        <time>2020-09-12T08:25:17.000Z</time>
      </trkpt>
      <trkpt lat="44.00969" lon="6.86554">
        <ele>1085.5999755859</ele>
        <time>2020-09-12T08:25:22.000Z</time>
      </trkpt>
      <trkpt lat="44.0097" lon="6.86555">
        <ele>1085.8000488281</ele>
        <time>2020-09-12T08:25:23.000Z</time>
      </trkpt>
      <trkpt lat="44.00975" lon="6.86565">
        <ele>1086.8000488281</ele>
        <time>2020-09-12T08:25:29.000Z</time>
      </trkpt>
      <trkpt lat="44.00975" lon="6.86566">
        <ele>1086.8000488281</ele>
        <time>2020-09-12T08:25:30.000Z</time>
      </trkpt>
      <trkpt lat="44.00978" lon="6.86571">
        <ele>1087.8000488281</ele>
        <time>2020-09-12T08:25:34.000Z</time>
      </trkpt>
      <trkpt lat="44.00982" lon="6.86575">
        <ele>1088.5999755859</ele>
        <time>2020-09-12T08:25:38.000Z</time>
      </trkpt>
      <trkpt lat="44.00985" lon="6.86574">
        <ele>1088.8000488281</ele>
        <time>2020-09-12T08:25:40.000Z</time>
      </trkpt>
      <trkpt lat="44.00987" lon="6.86572">
        <ele>1089.1999511719</ele>
        <time>2020-09-12T08:25:42.000Z</time>
      </trkpt>
      <trkpt lat="44.00988" lon="6.8657">
        <ele>1089.4000244141</ele>
        <time>2020-09-12T08:25:43.000Z</time>
      </trkpt>
      <trkpt lat="44.00985" lon="6.86559">
        <ele>1090</ele>
        <time>2020-09-12T08:25:47.000Z</time>
      </trkpt>
      <trkpt lat="44.00984" lon="6.86557">
        <ele>1090</ele>
        <time>2020-09-12T08:25:48.000Z</time>
      </trkpt>
      <trkpt lat="44.00978" lon="6.86538">
        <ele>1091</ele>
        <time>2020-09-12T08:25:54.000Z</time>
      </trkpt>
      <trkpt lat="44.00977" lon="6.86529">
        <ele>1091.4000244141</ele>
        <time>2020-09-12T08:25:57.000Z</time>
      </trkpt>
      <trkpt lat="44.00976" lon="6.86523">
        <ele>1092</ele>
        <time>2020-09-12T08:25:59.000Z</time>
      </trkpt>
      <trkpt lat="44.00973" lon="6.86514">
        <ele>1093</ele>
        <time>2020-09-12T08:26:03.000Z</time>
      </trkpt>
      <trkpt lat="44.00971" lon="6.86507">
        <ele>1094</ele>
        <time>2020-09-12T08:26:06.000Z</time>
      </trkpt>
      <trkpt lat="44.0097" lon="6.86505">
        <ele>1094.1999511719</ele>
        <time>2020-09-12T08:26:07.000Z</time>
      </trkpt>
      <trkpt lat="44.00963" lon="6.8649">
        <ele>1095.4000244141</ele>
        <time>2020-09-12T08:26:15.000Z</time>
      </trkpt>
      <trkpt lat="44.00962" lon="6.86488">
        <ele>1095.5999755859</ele>
        <time>2020-09-12T08:26:16.000Z</time>
      </trkpt>
      <trkpt lat="44.00965" lon="6.86485">
        <ele>1096</ele>
        <time>2020-09-12T08:26:19.000Z</time>
      </trkpt>
      <trkpt lat="44.00969" lon="6.86488">
        <ele>1096.4000244141</ele>
        <time>2020-09-12T08:26:22.000Z</time>
      </trkpt>
      <trkpt lat="44.0097" lon="6.86491">
        <ele>1096.5999755859</ele>
        <time>2020-09-12T08:26:23.000Z</time>
      </trkpt>
      <trkpt lat="44.00972" lon="6.86495">
        <ele>1097</ele>
        <time>2020-09-12T08:26:25.000Z</time>
      </trkpt>
      <trkpt lat="44.00975" lon="6.86498">
        <ele>1097.5999755859</ele>
        <time>2020-09-12T08:26:27.000Z</time>
      </trkpt>
      <trkpt lat="44.00983" lon="6.86511">
        <ele>1098.4000244141</ele>
        <time>2020-09-12T08:26:33.000Z</time>
      </trkpt>
      <trkpt lat="44.00984" lon="6.86513">
        <ele>1098.5999755859</ele>
        <time>2020-09-12T08:26:34.000Z</time>
      </trkpt>
      <trkpt lat="44.00996" lon="6.86527">
        <ele>1099.5999755859</ele>
        <time>2020-09-12T08:26:41.000Z</time>
      </trkpt>
      <trkpt lat="44.00998" lon="6.86529">
        <ele>1099.8000488281</ele>
        <time>2020-09-12T08:26:42.000Z</time>
      </trkpt>
      <trkpt lat="44.01006" lon="6.86535">
        <ele>1100.5999755859</ele>
        <time>2020-09-12T08:26:47.000Z</time>
      </trkpt>
      <trkpt lat="44.01008" lon="6.86538">
        <ele>1101</ele>
        <time>2020-09-12T08:26:49.000Z</time>
      </trkpt>
      <trkpt lat="44.01013" lon="6.86541">
        <ele>1101.8000488281</ele>
        <time>2020-09-12T08:26:52.000Z</time>
      </trkpt>
      <trkpt lat="44.0102" lon="6.86545">
        <ele>1102.8000488281</ele>
        <time>2020-09-12T08:26:57.000Z</time>
      </trkpt>
      <trkpt lat="44.01022" lon="6.86546">
        <ele>1103</ele>
        <time>2020-09-12T08:26:58.000Z</time>
      </trkpt>
      <trkpt lat="44.01029" lon="6.8655">
        <ele>1104</ele>
        <time>2020-09-12T08:27:03.000Z</time>
      </trkpt>
      <trkpt lat="44.01031" lon="6.8655">
        <ele>1104.1999511719</ele>
        <time>2020-09-12T08:27:04.000Z</time>
      </trkpt>
      <trkpt lat="44.01036" lon="6.86552">
        <ele>1105</ele>
        <time>2020-09-12T08:27:07.000Z</time>
      </trkpt>
      <trkpt lat="44.01043" lon="6.86553">
        <ele>1106</ele>
        <time>2020-09-12T08:27:11.000Z</time>
      </trkpt>
      <trkpt lat="44.01045" lon="6.86554">
        <ele>1106.1999511719</ele>
        <time>2020-09-12T08:27:12.000Z</time>
      </trkpt>
      <trkpt lat="44.01052" lon="6.86557">
        <ele>1107.1999511719</ele>
        <time>2020-09-12T08:27:16.000Z</time>
      </trkpt>
      <trkpt lat="44.01057" lon="6.86558">
        <ele>1108</ele>
        <time>2020-09-12T08:27:19.000Z</time>
      </trkpt>
      <trkpt lat="44.01059" lon="6.86558">
        <ele>1108.1999511719</ele>
        <time>2020-09-12T08:27:20.000Z</time>
      </trkpt>
      <trkpt lat="44.01068" lon="6.86558">
        <ele>1109.4000244141</ele>
        <time>2020-09-12T08:27:25.000Z</time>
      </trkpt>
      <trkpt lat="44.01078" lon="6.86556">
        <ele>1110.5999755859</ele>
        <time>2020-09-12T08:27:30.000Z</time>
      </trkpt>
      <trkpt lat="44.01083" lon="6.86555">
        <ele>1111.1999511719</ele>
        <time>2020-09-12T08:27:33.000Z</time>
      </trkpt>
      <trkpt lat="44.01089" lon="6.86555">
        <ele>1111.5999755859</ele>
        <time>2020-09-12T08:27:36.000Z</time>
      </trkpt>
      <trkpt lat="44.011" lon="6.86556">
        <ele>1112.5999755859</ele>
        <time>2020-09-12T08:27:42.000Z</time>
      </trkpt>
      <trkpt lat="44.01102" lon="6.86556">
        <ele>1112.8000488281</ele>
        <time>2020-09-12T08:27:43.000Z</time>
      </trkpt>
      <trkpt lat="44.01118" lon="6.86559">
        <ele>1113.8000488281</ele>
        <time>2020-09-12T08:27:51.000Z</time>
      </trkpt>
      <trkpt lat="44.0112" lon="6.8656">
        <ele>1113.8000488281</ele>
        <time>2020-09-12T08:27:52.000Z</time>
      </trkpt>
      <trkpt lat="44.01128" lon="6.8656">
        <ele>1115</ele>
        <time>2020-09-12T08:27:57.000Z</time>
      </trkpt>
      <trkpt lat="44.01131" lon="6.86558">
        <ele>1115.1999511719</ele>
        <time>2020-09-12T08:27:59.000Z</time>
      </trkpt>
      <trkpt lat="44.01133" lon="6.86552">
        <ele>1116</ele>
        <time>2020-09-12T08:28:03.000Z</time>
      </trkpt>
      <trkpt lat="44.01132" lon="6.8655">
        <ele>1116.1999511719</ele>
        <time>2020-09-12T08:28:05.000Z</time>
      </trkpt>
      <trkpt lat="44.01125" lon="6.86545">
        <ele>1117.1999511719</ele>
        <time>2020-09-12T08:28:12.000Z</time>
      </trkpt>
      <trkpt lat="44.01122" lon="6.86544">
        <ele>1117.5999755859</ele>
        <time>2020-09-12T08:28:14.000Z</time>
      </trkpt>
      <trkpt lat="44.01118" lon="6.86541">
        <ele>1118.1999511719</ele>
        <time>2020-09-12T08:28:18.000Z</time>
      </trkpt>
      <trkpt lat="44.01115" lon="6.8654">
        <ele>1118.8000488281</ele>
        <time>2020-09-12T08:28:21.000Z</time>
      </trkpt>
      <trkpt lat="44.01112" lon="6.86537">
        <ele>1119.4000244141</ele>
        <time>2020-09-12T08:28:24.000Z</time>
      </trkpt>
      <trkpt lat="44.01106" lon="6.86532">
        <ele>1120.4000244141</ele>
        <time>2020-09-12T08:28:29.000Z</time>
      </trkpt>
      <trkpt lat="44.01105" lon="6.86531">
        <ele>1120.5999755859</ele>
        <time>2020-09-12T08:28:30.000Z</time>
      </trkpt>
      <trkpt lat="44.01101" lon="6.86528">
        <ele>1121.4000244141</ele>
        <time>2020-09-12T08:28:34.000Z</time>
      </trkpt>
      <trkpt lat="44.01094" lon="6.86523">
        <ele>1122.5999755859</ele>
        <time>2020-09-12T08:28:39.000Z</time>
      </trkpt>
      <trkpt lat="44.01083" lon="6.86515">
        <ele>1123.4000244141</ele>
        <time>2020-09-12T08:28:47.000Z</time>
      </trkpt>
      <trkpt lat="44.01082" lon="6.86514">
        <ele>1123.5999755859</ele>
        <time>2020-09-12T08:28:48.000Z</time>
      </trkpt>
      <trkpt lat="44.01075" lon="6.86509">
        <ele>1124.8000488281</ele>
        <time>2020-09-12T08:28:53.000Z</time>
      </trkpt>
      <trkpt lat="44.0107" lon="6.86505">
        <ele>1125.1999511719</ele>
        <time>2020-09-12T08:28:56.000Z</time>
      </trkpt>
      <trkpt lat="44.01064" lon="6.86499">
        <ele>1125.8000488281</ele>
        <time>2020-09-12T08:29:00.000Z</time>
      </trkpt>
      <trkpt lat="44.01057" lon="6.8649">
        <ele>1126.8000488281</ele>
        <time>2020-09-12T08:29:05.000Z</time>
      </trkpt>
      <trkpt lat="44.01056" lon="6.86489">
        <ele>1127</ele>
        <time>2020-09-12T08:29:06.000Z</time>
      </trkpt>
      <trkpt lat="44.01053" lon="6.86483">
        <ele>1128</ele>
        <time>2020-09-12T08:29:10.000Z</time>
      </trkpt>
      <trkpt lat="44.01048" lon="6.86475">
        <ele>1129.1999511719</ele>
        <time>2020-09-12T08:29:15.000Z</time>
      </trkpt>
      <trkpt lat="44.01048" lon="6.86473">
        <ele>1129.1999511719</ele>
        <time>2020-09-12T08:29:16.000Z</time>
      </trkpt>
      <trkpt lat="44.01043" lon="6.86466">
        <ele>1130.1999511719</ele>
        <time>2020-09-12T08:29:21.000Z</time>
      </trkpt>
      <trkpt lat="44.01042" lon="6.86463">
        <ele>1130.5999755859</ele>
        <time>2020-09-12T08:29:23.000Z</time>
      </trkpt>
      <trkpt lat="44.0104" lon="6.86458">
        <ele>1131.1999511719</ele>
        <time>2020-09-12T08:29:26.000Z</time>
      </trkpt>
      <trkpt lat="44.01037" lon="6.86452">
        <ele>1132</ele>
        <time>2020-09-12T08:29:30.000Z</time>
      </trkpt>
      <trkpt lat="44.01037" lon="6.86449">
        <ele>1132.4000244141</ele>
        <time>2020-09-12T08:29:32.000Z</time>
      </trkpt>
      <trkpt lat="44.01042" lon="6.86448">
        <ele>1133.1999511719</ele>
        <time>2020-09-12T08:29:37.000Z</time>
      </trkpt>
      <trkpt lat="44.01044" lon="6.86449">
        <ele>1133.4000244141</ele>
        <time>2020-09-12T08:29:39.000Z</time>
      </trkpt>
      <trkpt lat="44.01045" lon="6.86451">
        <ele>1133.8000488281</ele>
        <time>2020-09-12T08:29:41.000Z</time>
      </trkpt>
      <trkpt lat="44.01048" lon="6.86454">
        <ele>1134.4000244141</ele>
        <time>2020-09-12T08:29:44.000Z</time>
      </trkpt>
      <trkpt lat="44.01048" lon="6.86455">
        <ele>1134.5999755859</ele>
        <time>2020-09-12T08:29:45.000Z</time>
      </trkpt>
      <trkpt lat="44.01049" lon="6.86456">
        <ele>1135</ele>
        <time>2020-09-12T08:29:46.000Z</time>
      </trkpt>
      <trkpt lat="44.01053" lon="6.86459">
        <ele>1135.8000488281</ele>
        <time>2020-09-12T08:29:50.000Z</time>
      </trkpt>
      <trkpt lat="44.01057" lon="6.86462">
        <ele>1136.5999755859</ele>
        <time>2020-09-12T08:29:55.000Z</time>
      </trkpt>
      <trkpt lat="44.01058" lon="6.86463">
        <ele>1136.8000488281</ele>
        <time>2020-09-12T08:29:56.000Z</time>
      </trkpt>
      <trkpt lat="44.01063" lon="6.86467">
        <ele>1138</ele>
        <time>2020-09-12T08:30:02.000Z</time>
      </trkpt>
      <trkpt lat="44.01065" lon="6.86468">
        <ele>1138.4000244141</ele>
        <time>2020-09-12T08:30:04.000Z</time>
      </trkpt>
      <trkpt lat="44.01067" lon="6.86469">
        <ele>1139</ele>
        <time>2020-09-12T08:30:07.000Z</time>
      </trkpt>
      <trkpt lat="44.01072" lon="6.86473">
        <ele>1139.8000488281</ele>
        <time>2020-09-12T08:30:12.000Z</time>
      </trkpt>
      <trkpt lat="44.01073" lon="6.86473">
        <ele>1140</ele>
        <time>2020-09-12T08:30:13.000Z</time>
      </trkpt>
      <trkpt lat="44.01074" lon="6.86474">
        <ele>1140.1999511719</ele>
        <time>2020-09-12T08:30:14.000Z</time>
      </trkpt>
      <trkpt lat="44.01078" lon="6.86475">
        <ele>1141</ele>
        <time>2020-09-12T08:30:18.000Z</time>
      </trkpt>
      <trkpt lat="44.01079" lon="6.86476">
        <ele>1141.1999511719</ele>
        <time>2020-09-12T08:30:19.000Z</time>
      </trkpt>
      <trkpt lat="44.01082" lon="6.86476">
        <ele>1141.5999755859</ele>
        <time>2020-09-12T08:30:22.000Z</time>
      </trkpt>
      <trkpt lat="44.01084" lon="6.86477">
        <ele>1142.1999511719</ele>
        <time>2020-09-12T08:30:24.000Z</time>
      </trkpt>
      <trkpt lat="44.01087" lon="6.86477">
        <ele>1142.5999755859</ele>
        <time>2020-09-12T08:30:27.000Z</time>
      </trkpt>
      <trkpt lat="44.01092" lon="6.86479">
        <ele>1143.1999511719</ele>
        <time>2020-09-12T08:30:32.000Z</time>
      </trkpt>
      <trkpt lat="44.01097" lon="6.8648">
        <ele>1143.8000488281</ele>
        <time>2020-09-12T08:30:36.000Z</time>
      </trkpt>
      <trkpt lat="44.01099" lon="6.86479">
        <ele>1144.1999511719</ele>
        <time>2020-09-12T08:30:38.000Z</time>
      </trkpt>
      <trkpt lat="44.011" lon="6.86478">
        <ele>1144.4000244141</ele>
        <time>2020-09-12T08:30:39.000Z</time>
      </trkpt>
      <trkpt lat="44.011" lon="6.86475">
        <ele>1145</ele>
        <time>2020-09-12T08:30:41.000Z</time>
      </trkpt>
      <trkpt lat="44.01098" lon="6.86472">
        <ele>1145.4000244141</ele>
        <time>2020-09-12T08:30:43.000Z</time>
      </trkpt>
      <trkpt lat="44.01096" lon="6.86471">
        <ele>1145.4000244141</ele>
        <time>2020-09-12T08:30:44.000Z</time>
      </trkpt>
      <trkpt lat="44.01094" lon="6.86469">
        <ele>1145.5999755859</ele>
        <time>2020-09-12T08:30:46.000Z</time>
      </trkpt>
      <trkpt lat="44.01081" lon="6.86459">
        <ele>1146.5999755859</ele>
        <time>2020-09-12T08:30:54.000Z</time>
      </trkpt>
      <trkpt lat="44.01066" lon="6.86442">
        <ele>1147.5999755859</ele>
        <time>2020-09-12T08:31:03.000Z</time>
      </trkpt>
      <trkpt lat="44.01065" lon="6.8644">
        <ele>1147.5999755859</ele>
        <time>2020-09-12T08:31:04.000Z</time>
      </trkpt>
      <trkpt lat="44.01057" lon="6.86428">
        <ele>1148.8000488281</ele>
        <time>2020-09-12T08:31:10.000Z</time>
      </trkpt>
      <trkpt lat="44.01055" lon="6.86425">
        <ele>1149.1999511719</ele>
        <time>2020-09-12T08:31:12.000Z</time>
      </trkpt>
      <trkpt lat="44.01052" lon="6.86419">
        <ele>1149.8000488281</ele>
        <time>2020-09-12T08:31:15.000Z</time>
      </trkpt>
      <trkpt lat="44.01049" lon="6.8641">
        <ele>1151</ele>
        <time>2020-09-12T08:31:20.000Z</time>
      </trkpt>
      <trkpt lat="44.01048" lon="6.86409">
        <ele>1151.1999511719</ele>
        <time>2020-09-12T08:31:21.000Z</time>
      </trkpt>
      <trkpt lat="44.01043" lon="6.86402">
        <ele>1152.1999511719</ele>
        <time>2020-09-12T08:31:26.000Z</time>
      </trkpt>
      <trkpt lat="44.01039" lon="6.86396">
        <ele>1152.8000488281</ele>
        <time>2020-09-12T08:31:30.000Z</time>
      </trkpt>
      <trkpt lat="44.01035" lon="6.86391">
        <ele>1153.1999511719</ele>
        <time>2020-09-12T08:31:33.000Z</time>
      </trkpt>
      <trkpt lat="44.01029" lon="6.86386">
        <ele>1154.1999511719</ele>
        <time>2020-09-12T08:31:37.000Z</time>
      </trkpt>
      <trkpt lat="44.01026" lon="6.86384">
        <ele>1154.5999755859</ele>
        <time>2020-09-12T08:31:39.000Z</time>
      </trkpt>
      <trkpt lat="44.01021" lon="6.86378">
        <ele>1155.4000244141</ele>
        <time>2020-09-12T08:31:43.000Z</time>
      </trkpt>
      <trkpt lat="44.01019" lon="6.86369">
        <ele>1156.1999511719</ele>
        <time>2020-09-12T08:31:48.000Z</time>
      </trkpt>
      <trkpt lat="44.01021" lon="6.86365">
        <ele>1156.4000244141</ele>
        <time>2020-09-12T08:31:51.000Z</time>
      </trkpt>
      <trkpt lat="44.01024" lon="6.86365">
        <ele>1156.8000488281</ele>
        <time>2020-09-12T08:31:53.000Z</time>
      </trkpt>
      <trkpt lat="44.01025" lon="6.86365">
        <ele>1157</ele>
        <time>2020-09-12T08:31:54.000Z</time>
      </trkpt>
      <trkpt lat="44.01029" lon="6.86371">
        <ele>1157.5999755859</ele>
        <time>2020-09-12T08:31:59.000Z</time>
      </trkpt>
      <trkpt lat="44.01032" lon="6.86374">
        <ele>1158.1999511719</ele>
        <time>2020-09-12T08:32:02.000Z</time>
      </trkpt>
      <trkpt lat="44.01034" lon="6.86376">
        <ele>1158.5999755859</ele>
        <time>2020-09-12T08:32:05.000Z</time>
      </trkpt>
      <trkpt lat="44.0104" lon="6.8638">
        <ele>1159.8000488281</ele>
        <time>2020-09-12T08:32:11.000Z</time>
      </trkpt>
      <trkpt lat="44.01042" lon="6.86381">
        <ele>1160.1999511719</ele>
        <time>2020-09-12T08:32:13.000Z</time>
      </trkpt>
      <trkpt lat="44.01049" lon="6.86384">
        <ele>1160.8000488281</ele>
        <time>2020-09-12T08:32:19.000Z</time>
      </trkpt>
      <trkpt lat="44.01051" lon="6.86384">
        <ele>1161</ele>
        <time>2020-09-12T08:32:21.000Z</time>
      </trkpt>
      <trkpt lat="44.01053" lon="6.86385">
        <ele>1161.4000244141</ele>
        <time>2020-09-12T08:32:23.000Z</time>
      </trkpt>
      <trkpt lat="44.01053" lon="6.86385">
        <ele>1161.5999755859</ele>
        <time>2020-09-12T08:32:26.000Z</time>
      </trkpt>
      <trkpt lat="44.01053" lon="6.86384">
        <ele>1162</ele>
        <time>2020-09-12T08:32:32.000Z</time>
      </trkpt>
      <trkpt lat="44.01054" lon="6.86384">
        <ele>1161.8000488281</ele>
        <time>2020-09-12T08:32:39.000Z</time>
      </trkpt>
      <trkpt lat="44.01055" lon="6.86385">
        <ele>1161.8000488281</ele>
        <time>2020-09-12T08:32:40.000Z</time>
      </trkpt>
      <trkpt lat="44.01057" lon="6.86386">
        <ele>1161.8000488281</ele>
        <time>2020-09-12T08:32:44.000Z</time>
      </trkpt>
      <trkpt lat="44.01066" lon="6.8639">
        <ele>1162.5999755859</ele>
        <time>2020-09-12T08:32:52.000Z</time>
      </trkpt>
      <trkpt lat="44.01069" lon="6.86394">
        <ele>1163</ele>
        <time>2020-09-12T08:32:55.000Z</time>
      </trkpt>
      <trkpt lat="44.01074" lon="6.86399">
        <ele>1163.8000488281</ele>
        <time>2020-09-12T08:33:00.000Z</time>
      </trkpt>
      <trkpt lat="44.01075" lon="6.864">
        <ele>1164</ele>
        <time>2020-09-12T08:33:01.000Z</time>
      </trkpt>
      <trkpt lat="44.0108" lon="6.86407">
        <ele>1165.1999511719</ele>
        <time>2020-09-12T08:33:07.000Z</time>
      </trkpt>
      <trkpt lat="44.01083" lon="6.8641">
        <ele>1165.5999755859</ele>
        <time>2020-09-12T08:33:10.000Z</time>
      </trkpt>
      <trkpt lat="44.01086" lon="6.86412">
        <ele>1166.1999511719</ele>
        <time>2020-09-12T08:33:13.000Z</time>
      </trkpt>
      <trkpt lat="44.01092" lon="6.86415">
        <ele>1167.1999511719</ele>
        <time>2020-09-12T08:33:18.000Z</time>
      </trkpt>
      <trkpt lat="44.01094" lon="6.86416">
        <ele>1167.5999755859</ele>
        <time>2020-09-12T08:33:20.000Z</time>
      </trkpt>
      <trkpt lat="44.01103" lon="6.86419">
        <ele>1168.4000244141</ele>
        <time>2020-09-12T08:33:26.000Z</time>
      </trkpt>
      <trkpt lat="44.01107" lon="6.8642">
        <ele>1168.8000488281</ele>
        <time>2020-09-12T08:33:29.000Z</time>
      </trkpt>
      <trkpt lat="44.01111" lon="6.86422">
        <ele>1169.4000244141</ele>
        <time>2020-09-12T08:33:33.000Z</time>
      </trkpt>
      <trkpt lat="44.01116" lon="6.86425">
        <ele>1170.5999755859</ele>
        <time>2020-09-12T08:33:38.000Z</time>
      </trkpt>
      <trkpt lat="44.01123" lon="6.86429">
        <ele>1171.5999755859</ele>
        <time>2020-09-12T08:33:44.000Z</time>
      </trkpt>
      <trkpt lat="44.01127" lon="6.86432">
        <ele>1172.1999511719</ele>
        <time>2020-09-12T08:33:48.000Z</time>
      </trkpt>
      <trkpt lat="44.01131" lon="6.86434">
        <ele>1172.5999755859</ele>
        <time>2020-09-12T08:33:51.000Z</time>
      </trkpt>
      <trkpt lat="44.01139" lon="6.86435">
        <ele>1174</ele>
        <time>2020-09-12T08:33:58.000Z</time>
      </trkpt>
      <trkpt lat="44.0114" lon="6.86436">
        <ele>1174.1999511719</ele>
        <time>2020-09-12T08:33:59.000Z</time>
      </trkpt>
      <trkpt lat="44.01147" lon="6.86436">
        <ele>1175</ele>
        <time>2020-09-12T08:34:05.000Z</time>
      </trkpt>
      <trkpt lat="44.01152" lon="6.86436">
        <ele>1175.8000488281</ele>
        <time>2020-09-12T08:34:09.000Z</time>
      </trkpt>
      <trkpt lat="44.01153" lon="6.86436">
        <ele>1176</ele>
        <time>2020-09-12T08:34:10.000Z</time>
      </trkpt>
      <trkpt lat="44.01158" lon="6.86434">
        <ele>1177</ele>
        <time>2020-09-12T08:34:15.000Z</time>
      </trkpt>
      <trkpt lat="44.0116" lon="6.86434">
        <ele>1177.4000244141</ele>
        <time>2020-09-12T08:34:17.000Z</time>
      </trkpt>
      <trkpt lat="44.01164" lon="6.86433">
        <ele>1178.1999511719</ele>
        <time>2020-09-12T08:34:21.000Z</time>
      </trkpt>
      <trkpt lat="44.01167" lon="6.86435">
        <ele>1179.1999511719</ele>
        <time>2020-09-12T08:34:25.000Z</time>
      </trkpt>
      <trkpt lat="44.01168" lon="6.86435">
        <ele>1179.4000244141</ele>
        <time>2020-09-12T08:34:26.000Z</time>
      </trkpt>
      <trkpt lat="44.01173" lon="6.86435">
        <ele>1180.4000244141</ele>
        <time>2020-09-12T08:34:32.000Z</time>
      </trkpt>
      <trkpt lat="44.01176" lon="6.86436">
        <ele>1181</ele>
        <time>2020-09-12T08:34:35.000Z</time>
      </trkpt>
      <trkpt lat="44.01179" lon="6.86434">
        <ele>1181.5999755859</ele>
        <time>2020-09-12T08:34:39.000Z</time>
      </trkpt>
      <trkpt lat="44.0118" lon="6.86434">
        <ele>1181.5999755859</ele>
        <time>2020-09-12T08:34:40.000Z</time>
      </trkpt>
      <trkpt lat="44.01184" lon="6.86433">
        <ele>1182.5999755859</ele>
        <time>2020-09-12T08:34:44.000Z</time>
      </trkpt>
      <trkpt lat="44.01187" lon="6.86431">
        <ele>1183</ele>
        <time>2020-09-12T08:34:47.000Z</time>
      </trkpt>
      <trkpt lat="44.01187" lon="6.86429">
        <ele>1183.1999511719</ele>
        <time>2020-09-12T08:34:48.000Z</time>
      </trkpt>
      <trkpt lat="44.01186" lon="6.86426">
        <ele>1183.5999755859</ele>
        <time>2020-09-12T08:34:51.000Z</time>
      </trkpt>
      <trkpt lat="44.01186" lon="6.86425">
        <ele>1183.8000488281</ele>
        <time>2020-09-12T08:34:52.000Z</time>
      </trkpt>
      <trkpt lat="44.01185" lon="6.86424">
        <ele>1183.8000488281</ele>
        <time>2020-09-12T08:34:53.000Z</time>
      </trkpt>
      <trkpt lat="44.01184" lon="6.86424">
        <ele>1183.8000488281</ele>
        <time>2020-09-12T08:34:54.000Z</time>
      </trkpt>
      <trkpt lat="44.01178" lon="6.86419">
        <ele>1184.8000488281</ele>
        <time>2020-09-12T08:35:01.000Z</time>
      </trkpt>
      <trkpt lat="44.01177" lon="6.86419">
        <ele>1185</ele>
        <time>2020-09-12T08:35:02.000Z</time>
      </trkpt>
      <trkpt lat="44.01173" lon="6.86417">
        <ele>1185.8000488281</ele>
        <time>2020-09-12T08:35:06.000Z</time>
      </trkpt>
      <trkpt lat="44.01171" lon="6.86415">
        <ele>1186.8000488281</ele>
        <time>2020-09-12T08:35:10.000Z</time>
      </trkpt>
      <trkpt lat="44.0117" lon="6.86414">
        <ele>1187</ele>
        <time>2020-09-12T08:35:11.000Z</time>
      </trkpt>
      <trkpt lat="44.01167" lon="6.86407">
        <ele>1188</ele>
        <time>2020-09-12T08:35:16.000Z</time>
      </trkpt>
      <trkpt lat="44.01165" lon="6.86404">
        <ele>1188.5999755859</ele>
        <time>2020-09-12T08:35:19.000Z</time>
      </trkpt>
      <trkpt lat="44.01163" lon="6.864">
        <ele>1189</ele>
        <time>2020-09-12T08:35:22.000Z</time>
      </trkpt>
      <trkpt lat="44.01159" lon="6.86394">
        <ele>1190</ele>
        <time>2020-09-12T08:35:27.000Z</time>
      </trkpt>
      <trkpt lat="44.01158" lon="6.86393">
        <ele>1190</ele>
        <time>2020-09-12T08:35:28.000Z</time>
      </trkpt>
      <trkpt lat="44.01152" lon="6.86384">
        <ele>1191.1999511719</ele>
        <time>2020-09-12T08:35:35.000Z</time>
      </trkpt>
      <trkpt lat="44.01149" lon="6.86379">
        <ele>1191.8000488281</ele>
        <time>2020-09-12T08:35:39.000Z</time>
      </trkpt>
      <trkpt lat="44.01146" lon="6.86374">
        <ele>1192.1999511719</ele>
        <time>2020-09-12T08:35:42.000Z</time>
      </trkpt>
      <trkpt lat="44.01139" lon="6.86367">
        <ele>1193.1999511719</ele>
        <time>2020-09-12T08:35:49.000Z</time>
      </trkpt>
      <trkpt lat="44.01138" lon="6.86365">
        <ele>1193.4000244141</ele>
        <time>2020-09-12T08:35:50.000Z</time>
      </trkpt>
      <trkpt lat="44.01137" lon="6.86364">
        <ele>1193.5999755859</ele>
        <time>2020-09-12T08:35:51.000Z</time>
      </trkpt>
      <trkpt lat="44.01137" lon="6.86357">
        <ele>1194.1999511719</ele>
        <time>2020-09-12T08:35:55.000Z</time>
      </trkpt>
      <trkpt lat="44.01137" lon="6.86356">
        <ele>1194.4000244141</ele>
        <time>2020-09-12T08:35:56.000Z</time>
      </trkpt>
      <trkpt lat="44.01139" lon="6.86353">
        <ele>1194.8000488281</ele>
        <time>2020-09-12T08:35:59.000Z</time>
      </trkpt>
      <trkpt lat="44.01141" lon="6.86349">
        <ele>1195.4000244141</ele>
        <time>2020-09-12T08:36:02.000Z</time>
      </trkpt>
      <trkpt lat="44.01146" lon="6.86343">
        <ele>1196.1999511719</ele>
        <time>2020-09-12T08:36:07.000Z</time>
      </trkpt>
      <trkpt lat="44.01147" lon="6.86342">
        <ele>1196.4000244141</ele>
        <time>2020-09-12T08:36:08.000Z</time>
      </trkpt>
      <trkpt lat="44.01152" lon="6.86336">
        <ele>1197.5999755859</ele>
        <time>2020-09-12T08:36:14.000Z</time>
      </trkpt>
      <trkpt lat="44.01156" lon="6.86331">
        <ele>1198.4000244141</ele>
        <time>2020-09-12T08:36:18.000Z</time>
      </trkpt>
      <trkpt lat="44.01158" lon="6.86329">
        <ele>1198.8000488281</ele>
        <time>2020-09-12T08:36:20.000Z</time>
      </trkpt>
      <trkpt lat="44.01163" lon="6.86321">
        <ele>1200</ele>
        <time>2020-09-12T08:36:26.000Z</time>
      </trkpt>
      <trkpt lat="44.01165" lon="6.86318">
        <ele>1200.5999755859</ele>
        <time>2020-09-12T08:36:29.000Z</time>
      </trkpt>
      <trkpt lat="44.01167" lon="6.86316">
        <ele>1201</ele>
        <time>2020-09-12T08:36:31.000Z</time>
      </trkpt>
      <trkpt lat="44.0117" lon="6.86312">
        <ele>1202.1999511719</ele>
        <time>2020-09-12T08:36:36.000Z</time>
      </trkpt>
      <trkpt lat="44.01174" lon="6.86307">
        <ele>1203.1999511719</ele>
        <time>2020-09-12T08:36:41.000Z</time>
      </trkpt>
      <trkpt lat="44.01175" lon="6.86306">
        <ele>1203.4000244141</ele>
        <time>2020-09-12T08:36:42.000Z</time>
      </trkpt>
      <trkpt lat="44.01177" lon="6.86302">
        <ele>1204.1999511719</ele>
        <time>2020-09-12T08:36:46.000Z</time>
      </trkpt>
      <trkpt lat="44.01182" lon="6.86297">
        <ele>1205.4000244141</ele>
        <time>2020-09-12T08:36:52.000Z</time>
      </trkpt>
      <trkpt lat="44.01186" lon="6.86292">
        <ele>1206.4000244141</ele>
        <time>2020-09-12T08:36:57.000Z</time>
      </trkpt>
      <trkpt lat="44.0119" lon="6.86287">
        <ele>1207.1999511719</ele>
        <time>2020-09-12T08:37:02.000Z</time>
      </trkpt>
      <trkpt lat="44.01191" lon="6.86286">
        <ele>1207.5999755859</ele>
        <time>2020-09-12T08:37:03.000Z</time>
      </trkpt>
      <trkpt lat="44.01195" lon="6.86282">
        <ele>1208.5999755859</ele>
        <time>2020-09-12T08:37:08.000Z</time>
      </trkpt>
      <trkpt lat="44.01196" lon="6.86278">
        <ele>1209.1999511719</ele>
        <time>2020-09-12T08:37:11.000Z</time>
      </trkpt>
      <trkpt lat="44.01199" lon="6.86274">
        <ele>1209.8000488281</ele>
        <time>2020-09-12T08:37:15.000Z</time>
      </trkpt>
      <trkpt lat="44.01201" lon="6.86266">
        <ele>1210.5999755859</ele>
        <time>2020-09-12T08:37:21.000Z</time>
      </trkpt>
      <trkpt lat="44.01201" lon="6.86265">
        <ele>1210.8000488281</ele>
        <time>2020-09-12T08:37:22.000Z</time>
      </trkpt>
      <trkpt lat="44.01205" lon="6.86257">
        <ele>1212</ele>
        <time>2020-09-12T08:37:29.000Z</time>
      </trkpt>
      <trkpt lat="44.01205" lon="6.86256">
        <ele>1212</ele>
        <time>2020-09-12T08:37:30.000Z</time>
      </trkpt>
      <trkpt lat="44.01209" lon="6.86252">
        <ele>1213</ele>
        <time>2020-09-12T08:37:35.000Z</time>
      </trkpt>
      <trkpt lat="44.01213" lon="6.8625">
        <ele>1213.4000244141</ele>
        <time>2020-09-12T08:37:39.000Z</time>
      </trkpt>
      <trkpt lat="44.01216" lon="6.86247">
        <ele>1214</ele>
        <time>2020-09-12T08:37:43.000Z</time>
      </trkpt>
      <trkpt lat="44.0122" lon="6.86243">
        <ele>1214.8000488281</ele>
        <time>2020-09-12T08:37:48.000Z</time>
      </trkpt>
      <trkpt lat="44.01222" lon="6.86243">
        <ele>1215.1999511719</ele>
        <time>2020-09-12T08:37:50.000Z</time>
      </trkpt>
      <trkpt lat="44.01227" lon="6.86238">
        <ele>1216.1999511719</ele>
        <time>2020-09-12T08:37:55.000Z</time>
      </trkpt>
      <trkpt lat="44.01228" lon="6.86236">
        <ele>1216.5999755859</ele>
        <time>2020-09-12T08:37:57.000Z</time>
      </trkpt>
      <trkpt lat="44.0123" lon="6.86233">
        <ele>1217.4000244141</ele>
        <time>2020-09-12T08:38:00.000Z</time>
      </trkpt>
      <trkpt lat="44.01236" lon="6.86227">
        <ele>1218.4000244141</ele>
        <time>2020-09-12T08:38:07.000Z</time>
      </trkpt>
      <trkpt lat="44.01246" lon="6.86223">
        <ele>1218.8000488281</ele>
        <time>2020-09-12T08:38:14.000Z</time>
      </trkpt>
      <trkpt lat="44.01259" lon="6.86226">
        <ele>1219.4000244141</ele>
        <time>2020-09-12T08:38:22.000Z</time>
      </trkpt>
      <trkpt lat="44.01271" lon="6.86228">
        <ele>1220.4000244141</ele>
        <time>2020-09-12T08:38:30.000Z</time>
      </trkpt>
      <trkpt lat="44.01273" lon="6.86228">
        <ele>1220.4000244141</ele>
        <time>2020-09-12T08:38:31.000Z</time>
      </trkpt>
      <trkpt lat="44.01287" lon="6.86227">
        <ele>1221.4000244141</ele>
        <time>2020-09-12T08:38:40.000Z</time>
      </trkpt>
      <trkpt lat="44.01288" lon="6.86228">
        <ele>1221.5999755859</ele>
        <time>2020-09-12T08:38:41.000Z</time>
      </trkpt>
      <trkpt lat="44.01297" lon="6.86233">
        <ele>1222.5999755859</ele>
        <time>2020-09-12T08:38:48.000Z</time>
      </trkpt>
      <trkpt lat="44.01298" lon="6.86233">
        <ele>1222.5999755859</ele>
        <time>2020-09-12T08:38:49.000Z</time>
      </trkpt>
      <trkpt lat="44.01304" lon="6.86238">
        <ele>1223.5999755859</ele>
        <time>2020-09-12T08:38:55.000Z</time>
      </trkpt>
      <trkpt lat="44.01311" lon="6.86245">
        <ele>1224.4000244141</ele>
        <time>2020-09-12T08:39:01.000Z</time>
      </trkpt>
      <trkpt lat="44.01312" lon="6.86247">
        <ele>1224.8000488281</ele>
        <time>2020-09-12T08:39:02.000Z</time>
      </trkpt>
      <trkpt lat="44.01317" lon="6.86254">
        <ele>1226</ele>
        <time>2020-09-12T08:39:08.000Z</time>
      </trkpt>
      <trkpt lat="44.01318" lon="6.86256">
        <ele>1226.4000244141</ele>
        <time>2020-09-12T08:39:10.000Z</time>
      </trkpt>
      <trkpt lat="44.0132" lon="6.86258">
        <ele>1227</ele>
        <time>2020-09-12T08:39:12.000Z</time>
      </trkpt>
      <trkpt lat="44.01324" lon="6.86262">
        <ele>1228</ele>
        <time>2020-09-12T08:39:17.000Z</time>
      </trkpt>
      <trkpt lat="44.01325" lon="6.86264">
        <ele>1228.4000244141</ele>
        <time>2020-09-12T08:39:19.000Z</time>
      </trkpt>
      <trkpt lat="44.01326" lon="6.86266">
        <ele>1228.5999755859</ele>
        <time>2020-09-12T08:39:21.000Z</time>
      </trkpt>
      <trkpt lat="44.01328" lon="6.86267">
        <ele>1229</ele>
        <time>2020-09-12T08:39:23.000Z</time>
      </trkpt>
      <trkpt lat="44.01331" lon="6.86273">
        <ele>1229.8000488281</ele>
        <time>2020-09-12T08:39:28.000Z</time>
      </trkpt>
      <trkpt lat="44.01332" lon="6.86275">
        <ele>1230.1999511719</ele>
        <time>2020-09-12T08:39:30.000Z</time>
      </trkpt>
      <trkpt lat="44.01333" lon="6.86275">
        <ele>1230.1999511719</ele>
        <time>2020-09-12T08:39:31.000Z</time>
      </trkpt>
      <trkpt lat="44.01338" lon="6.86278">
        <ele>1231.1999511719</ele>
        <time>2020-09-12T08:39:36.000Z</time>
      </trkpt>
      <trkpt lat="44.01339" lon="6.86279">
        <ele>1231.1999511719</ele>
        <time>2020-09-12T08:39:37.000Z</time>
      </trkpt>
      <trkpt lat="44.01347" lon="6.86279">
        <ele>1232</ele>
        <time>2020-09-12T08:39:44.000Z</time>
      </trkpt>
      <trkpt lat="44.01348" lon="6.86278">
        <ele>1232</ele>
        <time>2020-09-12T08:39:45.000Z</time>
      </trkpt>
      <trkpt lat="44.01348" lon="6.86277">
        <ele>1232.1999511719</ele>
        <time>2020-09-12T08:39:46.000Z</time>
      </trkpt>
      <trkpt lat="44.01349" lon="6.86276">
        <ele>1232.5999755859</ele>
        <time>2020-09-12T08:39:47.000Z</time>
      </trkpt>
      <trkpt lat="44.0135" lon="6.86266">
        <ele>1233.4000244141</ele>
        <time>2020-09-12T08:39:53.000Z</time>
      </trkpt>
      <trkpt lat="44.01347" lon="6.86256">
        <ele>1234.4000244141</ele>
        <time>2020-09-12T08:40:00.000Z</time>
      </trkpt>
      <trkpt lat="44.01347" lon="6.8625">
        <ele>1235</ele>
        <time>2020-09-12T08:40:04.000Z</time>
      </trkpt>
      <trkpt lat="44.01348" lon="6.86249">
        <ele>1235.1999511719</ele>
        <time>2020-09-12T08:40:05.000Z</time>
      </trkpt>
      <trkpt lat="44.01351" lon="6.86248">
        <ele>1235.5999755859</ele>
        <time>2020-09-12T08:40:08.000Z</time>
      </trkpt>
      <trkpt lat="44.01352" lon="6.86248">
        <ele>1235.5999755859</ele>
        <time>2020-09-12T08:40:09.000Z</time>
      </trkpt>
      <trkpt lat="44.01357" lon="6.86253">
        <ele>1236.5999755859</ele>
        <time>2020-09-12T08:40:15.000Z</time>
      </trkpt>
      <trkpt lat="44.01358" lon="6.86254">
        <ele>1236.8000488281</ele>
        <time>2020-09-12T08:40:16.000Z</time>
      </trkpt>
      <trkpt lat="44.0136" lon="6.86256">
        <ele>1237.8000488281</ele>
        <time>2020-09-12T08:40:19.000Z</time>
      </trkpt>
      <trkpt lat="44.01366" lon="6.86263">
        <ele>1239</ele>
        <time>2020-09-12T08:40:26.000Z</time>
      </trkpt>
      <trkpt lat="44.01367" lon="6.86264">
        <ele>1239</ele>
        <time>2020-09-12T08:40:27.000Z</time>
      </trkpt>
      <trkpt lat="44.01375" lon="6.86272">
        <ele>1240</ele>
        <time>2020-09-12T08:40:35.000Z</time>
      </trkpt>
      <trkpt lat="44.01379" lon="6.86276">
        <ele>1240.8000488281</ele>
        <time>2020-09-12T08:40:39.000Z</time>
      </trkpt>
      <trkpt lat="44.0138" lon="6.86278">
        <ele>1241</ele>
        <time>2020-09-12T08:40:41.000Z</time>
      </trkpt>
      <trkpt lat="44.01386" lon="6.86286">
        <ele>1241.8000488281</ele>
        <time>2020-09-12T08:40:48.000Z</time>
      </trkpt>
      <trkpt lat="44.01388" lon="6.86291">
        <ele>1242.4000244141</ele>
        <time>2020-09-12T08:40:52.000Z</time>
      </trkpt>
      <trkpt lat="44.01389" lon="6.86293">
        <ele>1242.8000488281</ele>
        <time>2020-09-12T08:40:54.000Z</time>
      </trkpt>
      <trkpt lat="44.0139" lon="6.86296">
        <ele>1243.5999755859</ele>
        <time>2020-09-12T08:40:56.000Z</time>
      </trkpt>
      <trkpt lat="44.0139" lon="6.86297">
        <ele>1243.5999755859</ele>
        <time>2020-09-12T08:40:57.000Z</time>
      </trkpt>
      <trkpt lat="44.01391" lon="6.86304">
        <ele>1244.5999755859</ele>
        <time>2020-09-12T08:41:02.000Z</time>
      </trkpt>
      <trkpt lat="44.01392" lon="6.86311">
        <ele>1245.4000244141</ele>
        <time>2020-09-12T08:41:07.000Z</time>
      </trkpt>
      <trkpt lat="44.01393" lon="6.86315">
        <ele>1245.8000488281</ele>
        <time>2020-09-12T08:41:10.000Z</time>
      </trkpt>
      <trkpt lat="44.01394" lon="6.86324">
        <ele>1246.8000488281</ele>
        <time>2020-09-12T08:41:16.000Z</time>
      </trkpt>
      <trkpt lat="44.01395" lon="6.86325">
        <ele>1246.8000488281</ele>
        <time>2020-09-12T08:41:17.000Z</time>
      </trkpt>
      <trkpt lat="44.01395" lon="6.86327">
        <ele>1247</ele>
        <time>2020-09-12T08:41:18.000Z</time>
      </trkpt>
      <trkpt lat="44.01399" lon="6.86335">
        <ele>1247.5999755859</ele>
        <time>2020-09-12T08:41:23.000Z</time>
      </trkpt>
      <trkpt lat="44.01401" lon="6.86338">
        <ele>1247.5999755859</ele>
        <time>2020-09-12T08:41:25.000Z</time>
      </trkpt>
      <trkpt lat="44.01403" lon="6.8634">
        <ele>1247.5999755859</ele>
        <time>2020-09-12T08:41:27.000Z</time>
      </trkpt>
      <trkpt lat="44.01406" lon="6.8634">
        <ele>1247.8000488281</ele>
        <time>2020-09-12T08:41:29.000Z</time>
      </trkpt>
      <trkpt lat="44.01407" lon="6.86339">
        <ele>1248</ele>
        <time>2020-09-12T08:41:30.000Z</time>
      </trkpt>
      <trkpt lat="44.01412" lon="6.86334">
        <ele>1249</ele>
        <time>2020-09-12T08:41:35.000Z</time>
      </trkpt>
      <trkpt lat="44.01418" lon="6.86328">
        <ele>1249.8000488281</ele>
        <time>2020-09-12T08:41:41.000Z</time>
      </trkpt>
      <trkpt lat="44.01419" lon="6.86326">
        <ele>1250</ele>
        <time>2020-09-12T08:41:43.000Z</time>
      </trkpt>
      <trkpt lat="44.01424" lon="6.86322">
        <ele>1251</ele>
        <time>2020-09-12T08:41:48.000Z</time>
      </trkpt>
      <trkpt lat="44.01425" lon="6.86321">
        <ele>1251.1999511719</ele>
        <time>2020-09-12T08:41:49.000Z</time>
      </trkpt>
      <trkpt lat="44.01425" lon="6.8632">
        <ele>1251.5999755859</ele>
        <time>2020-09-12T08:41:50.000Z</time>
      </trkpt>
      <trkpt lat="44.01429" lon="6.86315">
        <ele>1252.1999511719</ele>
        <time>2020-09-12T08:41:55.000Z</time>
      </trkpt>
      <trkpt lat="44.0143" lon="6.86314">
        <ele>1252.4000244141</ele>
        <time>2020-09-12T08:41:56.000Z</time>
      </trkpt>
      <trkpt lat="44.0143" lon="6.86306">
        <ele>1252.8000488281</ele>
        <time>2020-09-12T08:42:02.000Z</time>
      </trkpt>
      <trkpt lat="44.01429" lon="6.86301">
        <ele>1253.4000244141</ele>
        <time>2020-09-12T08:42:05.000Z</time>
      </trkpt>
      <trkpt lat="44.01427" lon="6.86293">
        <ele>1254.4000244141</ele>
        <time>2020-09-12T08:42:10.000Z</time>
      </trkpt>
      <trkpt lat="44.01424" lon="6.86285">
        <ele>1255.4000244141</ele>
        <time>2020-09-12T08:42:15.000Z</time>
      </trkpt>
      <trkpt lat="44.01424" lon="6.86282">
        <ele>1255.8000488281</ele>
        <time>2020-09-12T08:42:17.000Z</time>
      </trkpt>
      <trkpt lat="44.01423" lon="6.86276">
        <ele>1256.4000244141</ele>
        <time>2020-09-12T08:42:21.000Z</time>
      </trkpt>
      <trkpt lat="44.01421" lon="6.86271">
        <ele>1257.4000244141</ele>
        <time>2020-09-12T08:42:25.000Z</time>
      </trkpt>
      <trkpt lat="44.0142" lon="6.8626">
        <ele>1258.4000244141</ele>
        <time>2020-09-12T08:42:32.000Z</time>
      </trkpt>
      <trkpt lat="44.01419" lon="6.86257">
        <ele>1258.5999755859</ele>
        <time>2020-09-12T08:42:34.000Z</time>
      </trkpt>
      <trkpt lat="44.01416" lon="6.86244">
        <ele>1259.5999755859</ele>
        <time>2020-09-12T08:42:42.000Z</time>
      </trkpt>
      <trkpt lat="44.01416" lon="6.86242">
        <ele>1259.8000488281</ele>
        <time>2020-09-12T08:42:43.000Z</time>
      </trkpt>
      <trkpt lat="44.01414" lon="6.86234">
        <ele>1260.5999755859</ele>
        <time>2020-09-12T08:42:48.000Z</time>
      </trkpt>
      <trkpt lat="44.01412" lon="6.86224">
        <ele>1261.4000244141</ele>
        <time>2020-09-12T08:42:54.000Z</time>
      </trkpt>
      <trkpt lat="44.0141" lon="6.86219">
        <ele>1261.8000488281</ele>
        <time>2020-09-12T08:42:57.000Z</time>
      </trkpt>
      <trkpt lat="44.01409" lon="6.86211">
        <ele>1262.8000488281</ele>
        <time>2020-09-12T08:43:02.000Z</time>
      </trkpt>
      <trkpt lat="44.01407" lon="6.86207">
        <ele>1263.4000244141</ele>
        <time>2020-09-12T08:43:05.000Z</time>
      </trkpt>
      <trkpt lat="44.01406" lon="6.86201">
        <ele>1264</ele>
        <time>2020-09-12T08:43:09.000Z</time>
      </trkpt>
      <trkpt lat="44.01403" lon="6.86192">
        <ele>1264.5999755859</ele>
        <time>2020-09-12T08:43:14.000Z</time>
      </trkpt>
      <trkpt lat="44.01401" lon="6.86188">
        <ele>1265.1999511719</ele>
        <time>2020-09-12T08:43:17.000Z</time>
      </trkpt>
      <trkpt lat="44.01397" lon="6.86178">
        <ele>1266</ele>
        <time>2020-09-12T08:43:23.000Z</time>
      </trkpt>
      <trkpt lat="44.01395" lon="6.86174">
        <ele>1266.1999511719</ele>
        <time>2020-09-12T08:43:25.000Z</time>
      </trkpt>
      <trkpt lat="44.01389" lon="6.86161">
        <ele>1266.8000488281</ele>
        <time>2020-09-12T08:43:32.000Z</time>
      </trkpt>
      <trkpt lat="44.01387" lon="6.86155">
        <ele>1267.1999511719</ele>
        <time>2020-09-12T08:43:35.000Z</time>
      </trkpt>
      <trkpt lat="44.01382" lon="6.86143">
        <ele>1268.1999511719</ele>
        <time>2020-09-12T08:43:41.000Z</time>
      </trkpt>
      <trkpt lat="44.01381" lon="6.86141">
        <ele>1268.4000244141</ele>
        <time>2020-09-12T08:43:42.000Z</time>
      </trkpt>
      <trkpt lat="44.01374" lon="6.86128">
        <ele>1269.4000244141</ele>
        <time>2020-09-12T08:43:50.000Z</time>
      </trkpt>
      <trkpt lat="44.01372" lon="6.86125">
        <ele>1270</ele>
        <time>2020-09-12T08:43:52.000Z</time>
      </trkpt>
      <trkpt lat="44.01369" lon="6.86122">
        <ele>1270.5999755859</ele>
        <time>2020-09-12T08:43:55.000Z</time>
      </trkpt>
      <trkpt lat="44.01362" lon="6.86113">
        <ele>1271.5999755859</ele>
        <time>2020-09-12T08:44:02.000Z</time>
      </trkpt>
      <trkpt lat="44.01352" lon="6.86102">
        <ele>1272.8000488281</ele>
        <time>2020-09-12T08:44:10.000Z</time>
      </trkpt>
      <trkpt lat="44.01351" lon="6.86101">
        <ele>1273</ele>
        <time>2020-09-12T08:44:11.000Z</time>
      </trkpt>
      <trkpt lat="44.01343" lon="6.8609">
        <ele>1273</ele>
        <time>2020-09-12T08:44:17.000Z</time>
      </trkpt>
      <trkpt lat="44.01343" lon="6.86087">
        <ele>1273</ele>
        <time>2020-09-12T08:44:18.000Z</time>
      </trkpt>
      <trkpt lat="44.01343" lon="6.86078">
        <ele>1273</ele>
        <time>2020-09-12T08:44:23.000Z</time>
      </trkpt>
      <trkpt lat="44.01345" lon="6.86077">
        <ele>1273.1999511719</ele>
        <time>2020-09-12T08:44:25.000Z</time>
      </trkpt>
      <trkpt lat="44.01349" lon="6.86078">
        <ele>1274</ele>
        <time>2020-09-12T08:44:29.000Z</time>
      </trkpt>
      <trkpt lat="44.01352" lon="6.86081">
        <ele>1274.5999755859</ele>
        <time>2020-09-12T08:44:32.000Z</time>
      </trkpt>
      <trkpt lat="44.01355" lon="6.86083">
        <ele>1275.1999511719</ele>
        <time>2020-09-12T08:44:35.000Z</time>
      </trkpt>
      <trkpt lat="44.01362" lon="6.8609">
        <ele>1276.1999511719</ele>
        <time>2020-09-12T08:44:42.000Z</time>
      </trkpt>
      <trkpt lat="44.01363" lon="6.8609">
        <ele>1276.4000244141</ele>
        <time>2020-09-12T08:44:43.000Z</time>
      </trkpt>
      <trkpt lat="44.01366" lon="6.86092">
        <ele>1277.1999511719</ele>
        <time>2020-09-12T08:44:46.000Z</time>
      </trkpt>
      <trkpt lat="44.01369" lon="6.86095">
        <ele>1278.4000244141</ele>
        <time>2020-09-12T08:44:50.000Z</time>
      </trkpt>
      <trkpt lat="44.0137" lon="6.86096">
        <ele>1278.5999755859</ele>
        <time>2020-09-12T08:44:52.000Z</time>
      </trkpt>
      <trkpt lat="44.01373" lon="6.86098">
        <ele>1279.4000244141</ele>
        <time>2020-09-12T08:44:56.000Z</time>
      </trkpt>
      <trkpt lat="44.01377" lon="6.86102">
        <ele>1280</ele>
        <time>2020-09-12T08:45:01.000Z</time>
      </trkpt>
      <trkpt lat="44.0138" lon="6.86103">
        <ele>1280.5999755859</ele>
        <time>2020-09-12T08:45:04.000Z</time>
      </trkpt>
      <trkpt lat="44.01384" lon="6.86106">
        <ele>1281.5999755859</ele>
        <time>2020-09-12T08:45:09.000Z</time>
      </trkpt>
      <trkpt lat="44.01392" lon="6.86112">
        <ele>1282.5999755859</ele>
        <time>2020-09-12T08:45:18.000Z</time>
      </trkpt>
      <trkpt lat="44.01395" lon="6.86113">
        <ele>1283.1999511719</ele>
        <time>2020-09-12T08:45:21.000Z</time>
      </trkpt>
      <trkpt lat="44.01397" lon="6.86114">
        <ele>1283.8000488281</ele>
        <time>2020-09-12T08:45:23.000Z</time>
      </trkpt>
      <trkpt lat="44.01402" lon="6.86118">
        <ele>1285</ele>
        <time>2020-09-12T08:45:29.000Z</time>
      </trkpt>
      <trkpt lat="44.01404" lon="6.86119">
        <ele>1285.1999511719</ele>
        <time>2020-09-12T08:45:31.000Z</time>
      </trkpt>
      <trkpt lat="44.01408" lon="6.86122">
        <ele>1286</ele>
        <time>2020-09-12T08:45:36.000Z</time>
      </trkpt>
      <trkpt lat="44.01412" lon="6.86126">
        <ele>1287</ele>
        <time>2020-09-12T08:45:41.000Z</time>
      </trkpt>
      <trkpt lat="44.01413" lon="6.86127">
        <ele>1287</ele>
        <time>2020-09-12T08:45:42.000Z</time>
      </trkpt>
      <trkpt lat="44.01414" lon="6.86127">
        <ele>1287.1999511719</ele>
        <time>2020-09-12T08:45:43.000Z</time>
      </trkpt>
      <trkpt lat="44.01419" lon="6.86132">
        <ele>1288.1999511719</ele>
        <time>2020-09-12T08:45:49.000Z</time>
      </trkpt>
      <trkpt lat="44.01424" lon="6.86138">
        <ele>1288.8000488281</ele>
        <time>2020-09-12T08:45:55.000Z</time>
      </trkpt>
      <trkpt lat="44.01425" lon="6.8614">
        <ele>1289.1999511719</ele>
        <time>2020-09-12T08:45:57.000Z</time>
      </trkpt>
      <trkpt lat="44.0143" lon="6.86147">
        <ele>1290.1999511719</ele>
        <time>2020-09-12T08:46:04.000Z</time>
      </trkpt>
      <trkpt lat="44.01431" lon="6.86148">
        <ele>1290.1999511719</ele>
        <time>2020-09-12T08:46:05.000Z</time>
      </trkpt>
      <trkpt lat="44.01438" lon="6.86151">
        <ele>1290.8000488281</ele>
        <time>2020-09-12T08:46:12.000Z</time>
      </trkpt>
      <trkpt lat="44.01439" lon="6.86151">
        <ele>1291.1999511719</ele>
        <time>2020-09-12T08:46:13.000Z</time>
      </trkpt>
      <trkpt lat="44.01441" lon="6.86149">
        <ele>1291.4000244141</ele>
        <time>2020-09-12T08:46:15.000Z</time>
      </trkpt>
      <trkpt lat="44.01442" lon="6.86148">
        <ele>1291.5999755859</ele>
        <time>2020-09-12T08:46:16.000Z</time>
      </trkpt>
      <trkpt lat="44.01442" lon="6.86145">
        <ele>1292</ele>
        <time>2020-09-12T08:46:18.000Z</time>
      </trkpt>
      <trkpt lat="44.01443" lon="6.86139">
        <ele>1292.5999755859</ele>
        <time>2020-09-12T08:46:22.000Z</time>
      </trkpt>
      <trkpt lat="44.01442" lon="6.86131">
        <ele>1293</ele>
        <time>2020-09-12T08:46:27.000Z</time>
      </trkpt>
      <trkpt lat="44.01443" lon="6.86127">
        <ele>1293.4000244141</ele>
        <time>2020-09-12T08:46:30.000Z</time>
      </trkpt>
      <trkpt lat="44.01444" lon="6.86125">
        <ele>1293.5999755859</ele>
        <time>2020-09-12T08:46:31.000Z</time>
      </trkpt>
      <trkpt lat="44.01446" lon="6.86121">
        <ele>1294.1999511719</ele>
        <time>2020-09-12T08:46:34.000Z</time>
      </trkpt>
      <trkpt lat="44.01448" lon="6.86119">
        <ele>1294.5999755859</ele>
        <time>2020-09-12T08:46:36.000Z</time>
      </trkpt>
      <trkpt lat="44.01451" lon="6.86116">
        <ele>1295.8000488281</ele>
        <time>2020-09-12T08:46:40.000Z</time>
      </trkpt>
      <trkpt lat="44.01452" lon="6.86115">
        <ele>1296</ele>
        <time>2020-09-12T08:46:41.000Z</time>
      </trkpt>
      <trkpt lat="44.01456" lon="6.8611">
        <ele>1296.8000488281</ele>
        <time>2020-09-12T08:46:46.000Z</time>
      </trkpt>
      <trkpt lat="44.0146" lon="6.86105">
        <ele>1297.5999755859</ele>
        <time>2020-09-12T08:46:51.000Z</time>
      </trkpt>
      <trkpt lat="44.01462" lon="6.86104">
        <ele>1298</ele>
        <time>2020-09-12T08:46:53.000Z</time>
      </trkpt>
      <trkpt lat="44.01463" lon="6.86103">
        <ele>1298.1999511719</ele>
        <time>2020-09-12T08:46:54.000Z</time>
      </trkpt>
      <trkpt lat="44.01465" lon="6.86098">
        <ele>1298.8000488281</ele>
        <time>2020-09-12T08:46:58.000Z</time>
      </trkpt>
      <trkpt lat="44.01467" lon="6.86095">
        <ele>1299</ele>
        <time>2020-09-12T08:47:00.000Z</time>
      </trkpt>
      <trkpt lat="44.01472" lon="6.86084">
        <ele>1300</ele>
        <time>2020-09-12T08:47:08.000Z</time>
      </trkpt>
      <trkpt lat="44.01473" lon="6.86083">
        <ele>1300.1999511719</ele>
        <time>2020-09-12T08:47:09.000Z</time>
      </trkpt>
      <trkpt lat="44.01479" lon="6.86073">
        <ele>1301</ele>
        <time>2020-09-12T08:47:17.000Z</time>
      </trkpt>
      <trkpt lat="44.01487" lon="6.86063">
        <ele>1302.1999511719</ele>
        <time>2020-09-12T08:47:25.000Z</time>
      </trkpt>
      <trkpt lat="44.01488" lon="6.86061">
        <ele>1302.4000244141</ele>
        <time>2020-09-12T08:47:26.000Z</time>
      </trkpt>
      <trkpt lat="44.0149" lon="6.86057">
        <ele>1303.1999511719</ele>
        <time>2020-09-12T08:47:29.000Z</time>
      </trkpt>
      <trkpt lat="44.01492" lon="6.86049">
        <ele>1304.4000244141</ele>
        <time>2020-09-12T08:47:34.000Z</time>
      </trkpt>
      <trkpt lat="44.01498" lon="6.86042">
        <ele>1305.5999755859</ele>
        <time>2020-09-12T08:47:40.000Z</time>
      </trkpt>
      <trkpt lat="44.015" lon="6.8604">
        <ele>1306</ele>
        <time>2020-09-12T08:47:42.000Z</time>
      </trkpt>
      <trkpt lat="44.01502" lon="6.86038">
        <ele>1306.8000488281</ele>
        <time>2020-09-12T08:47:45.000Z</time>
      </trkpt>
      <trkpt lat="44.01508" lon="6.86034">
        <ele>1307.8000488281</ele>
        <time>2020-09-12T08:47:51.000Z</time>
      </trkpt>
      <trkpt lat="44.0151" lon="6.86033">
        <ele>1308</ele>
        <time>2020-09-12T08:47:53.000Z</time>
      </trkpt>
      <trkpt lat="44.01516" lon="6.86026">
        <ele>1309</ele>
        <time>2020-09-12T08:48:00.000Z</time>
      </trkpt>
      <trkpt lat="44.01518" lon="6.86022">
        <ele>1309.4000244141</ele>
        <time>2020-09-12T08:48:03.000Z</time>
      </trkpt>
      <trkpt lat="44.01519" lon="6.86018">
        <ele>1310</ele>
        <time>2020-09-12T08:48:09.000Z</time>
      </trkpt>
      <trkpt lat="44.01519" lon="6.86018">
        <ele>1310</ele>
        <time>2020-09-12T08:48:10.000Z</time>
      </trkpt>
      <trkpt lat="44.0152" lon="6.86016">
        <ele>1309.8000488281</ele>
        <time>2020-09-12T08:48:20.000Z</time>
      </trkpt>
      <trkpt lat="44.01521" lon="6.86014">
        <ele>1309.8000488281</ele>
        <time>2020-09-12T08:48:21.000Z</time>
      </trkpt>
      <trkpt lat="44.01531" lon="6.86">
        <ele>1311</ele>
        <time>2020-09-12T08:48:31.000Z</time>
      </trkpt>
      <trkpt lat="44.01533" lon="6.85998">
        <ele>1311</ele>
        <time>2020-09-12T08:48:32.000Z</time>
      </trkpt>
      <trkpt lat="44.01548" lon="6.85984">
        <ele>1310.8000488281</ele>
        <time>2020-09-12T08:48:38.000Z</time>
      </trkpt>
      <trkpt lat="44.01553" lon="6.85981">
        <ele>1310.4000244141</ele>
        <time>2020-09-12T08:48:42.000Z</time>
      </trkpt>
      <trkpt lat="44.01553" lon="6.85981">
        <ele>1309.8000488281</ele>
        <time>2020-09-12T08:48:45.000Z</time>
      </trkpt>
      <trkpt lat="44.01554" lon="6.85982">
        <ele>1309.5999755859</ele>
        <time>2020-09-12T08:48:50.000Z</time>
      </trkpt>
      <trkpt lat="44.01554" lon="6.85981">
        <ele>1309.4000244141</ele>
        <time>2020-09-12T08:49:01.000Z</time>
      </trkpt>
      <trkpt lat="44.01554" lon="6.85982">
        <ele>1309.5999755859</ele>
        <time>2020-09-12T08:49:12.000Z</time>
      </trkpt>
      <trkpt lat="44.01554" lon="6.85981">
        <ele>1308.8000488281</ele>
        <time>2020-09-12T08:49:15.000Z</time>
      </trkpt>
      <trkpt lat="44.01554" lon="6.85981">
        <ele>1309.8000488281</ele>
        <time>2020-09-12T08:49:18.000Z</time>
      </trkpt>
      <trkpt lat="44.01555" lon="6.85981">
        <ele>1310</ele>
        <time>2020-09-12T08:49:21.000Z</time>
      </trkpt>
      <trkpt lat="44.01555" lon="6.85981">
        <ele>1309.1999511719</ele>
        <time>2020-09-12T08:49:28.000Z</time>
      </trkpt>
      <trkpt lat="44.01555" lon="6.85982">
        <ele>1309.4000244141</ele>
        <time>2020-09-12T08:49:38.000Z</time>
      </trkpt>
      <trkpt lat="44.01555" lon="6.85982">
        <ele>1309.5999755859</ele>
        <time>2020-09-12T08:49:49.000Z</time>
      </trkpt>
      <trkpt lat="44.01556" lon="6.85982">
        <ele>1308.1999511719</ele>
        <time>2020-09-12T08:49:51.000Z</time>
      </trkpt>
      <trkpt lat="44.01557" lon="6.8598">
        <ele>1307.8000488281</ele>
        <time>2020-09-12T08:50:09.000Z</time>
      </trkpt>
      <trkpt lat="44.01557" lon="6.8598">
        <ele>1308</ele>
        <time>2020-09-12T08:50:27.000Z</time>
      </trkpt>
      <trkpt lat="44.01557" lon="6.85978">
        <ele>1308</ele>
        <time>2020-09-12T08:50:44.000Z</time>
      </trkpt>
      <trkpt lat="44.01557" lon="6.85976">
        <ele>1307.8000488281</ele>
        <time>2020-09-12T08:51:06.000Z</time>
      </trkpt>
      <trkpt lat="44.01557" lon="6.85975">
        <ele>1308</ele>
        <time>2020-09-12T08:51:21.000Z</time>
      </trkpt>
      <trkpt lat="44.01557" lon="6.85973">
        <ele>1308</ele>
        <time>2020-09-12T08:51:36.000Z</time>
      </trkpt>
      <trkpt lat="44.01558" lon="6.85973">
        <ele>1308</ele>
        <time>2020-09-12T08:51:46.000Z</time>
      </trkpt>
      <trkpt lat="44.01559" lon="6.85972">
        <ele>1308</ele>
        <time>2020-09-12T08:51:55.000Z</time>
      </trkpt>
      <trkpt lat="44.01559" lon="6.85972">
        <ele>1308</ele>
        <time>2020-09-12T08:52:06.000Z</time>
      </trkpt>
      <trkpt lat="44.01559" lon="6.85972">
        <ele>1308.1999511719</ele>
        <time>2020-09-12T08:52:21.000Z</time>
      </trkpt>
      <trkpt lat="44.0156" lon="6.85973">
        <ele>1308.8000488281</ele>
        <time>2020-09-12T08:52:30.000Z</time>
      </trkpt>
      <trkpt lat="44.0156" lon="6.85974">
        <ele>1309.4000244141</ele>
        <time>2020-09-12T08:52:33.000Z</time>
      </trkpt>
      <trkpt lat="44.01561" lon="6.85974">
        <ele>1309</ele>
        <time>2020-09-12T08:52:38.000Z</time>
      </trkpt>
      <trkpt lat="44.01563" lon="6.85977">
        <ele>1309</ele>
        <time>2020-09-12T08:52:52.000Z</time>
      </trkpt>
      <trkpt lat="44.01563" lon="6.85979">
        <ele>1309.1999511719</ele>
        <time>2020-09-12T08:53:04.000Z</time>
      </trkpt>
      <trkpt lat="44.01562" lon="6.8598">
        <ele>1309.1999511719</ele>
        <time>2020-09-12T08:53:13.000Z</time>
      </trkpt>
      <trkpt lat="44.01561" lon="6.8598">
        <ele>1309.1999511719</ele>
        <time>2020-09-12T08:53:18.000Z</time>
      </trkpt>
      <trkpt lat="44.01561" lon="6.85981">
        <ele>1309.5999755859</ele>
        <time>2020-09-12T08:53:27.000Z</time>
      </trkpt>
      <trkpt lat="44.01561" lon="6.85981">
        <ele>1309.5999755859</ele>
        <time>2020-09-12T08:53:38.000Z</time>
      </trkpt>
      <trkpt lat="44.01559" lon="6.8598">
        <ele>1309.8000488281</ele>
        <time>2020-09-12T08:53:50.000Z</time>
      </trkpt>
      <trkpt lat="44.01558" lon="6.85981">
        <ele>1309.8000488281</ele>
        <time>2020-09-12T08:53:56.000Z</time>
      </trkpt>
      <trkpt lat="44.01562" lon="6.85979">
        <ele>1310</ele>
        <time>2020-09-12T08:54:00.000Z</time>
      </trkpt>
      <trkpt lat="44.01563" lon="6.85978">
        <ele>1310.1999511719</ele>
        <time>2020-09-12T08:54:01.000Z</time>
      </trkpt>
      <trkpt lat="44.01565" lon="6.85974">
        <ele>1310.4000244141</ele>
        <time>2020-09-12T08:54:04.000Z</time>
      </trkpt>
      <trkpt lat="44.01566" lon="6.85973">
        <ele>1310.4000244141</ele>
        <time>2020-09-12T08:54:05.000Z</time>
      </trkpt>
      <trkpt lat="44.01568" lon="6.85971">
        <ele>1310.4000244141</ele>
        <time>2020-09-12T08:54:06.000Z</time>
      </trkpt>
      <trkpt lat="44.0157" lon="6.8597">
        <ele>1310.5999755859</ele>
        <time>2020-09-12T08:54:07.000Z</time>
      </trkpt>
      <trkpt lat="44.01584" lon="6.85959">
        <ele>1311</ele>
        <time>2020-09-12T08:54:16.000Z</time>
      </trkpt>
      <trkpt lat="44.01591" lon="6.85954">
        <ele>1311.5999755859</ele>
        <time>2020-09-12T08:54:20.000Z</time>
      </trkpt>
      <trkpt lat="44.01596" lon="6.8595">
        <ele>1312.1999511719</ele>
        <time>2020-09-12T08:54:23.000Z</time>
      </trkpt>
      <trkpt lat="44.01601" lon="6.85945">
        <ele>1312.8000488281</ele>
        <time>2020-09-12T08:54:26.000Z</time>
      </trkpt>
      <trkpt lat="44.01607" lon="6.8594">
        <ele>1313.5999755859</ele>
        <time>2020-09-12T08:54:31.000Z</time>
      </trkpt>
      <trkpt lat="44.01608" lon="6.85939">
        <ele>1313.8000488281</ele>
        <time>2020-09-12T08:54:32.000Z</time>
      </trkpt>
      <trkpt lat="44.01613" lon="6.85934">
        <ele>1315</ele>
        <time>2020-09-12T08:54:37.000Z</time>
      </trkpt>
      <trkpt lat="44.01616" lon="6.85931">
        <ele>1315.4000244141</ele>
        <time>2020-09-12T08:54:39.000Z</time>
      </trkpt>
      <trkpt lat="44.01622" lon="6.8592">
        <ele>1316</ele>
        <time>2020-09-12T08:54:46.000Z</time>
      </trkpt>
      <trkpt lat="44.01622" lon="6.85919">
        <ele>1316.1999511719</ele>
        <time>2020-09-12T08:54:47.000Z</time>
      </trkpt>
      <trkpt lat="44.01624" lon="6.85911">
        <ele>1317.1999511719</ele>
        <time>2020-09-12T08:54:51.000Z</time>
      </trkpt>
      <trkpt lat="44.01626" lon="6.85902">
        <ele>1318.1999511719</ele>
        <time>2020-09-12T08:54:56.000Z</time>
      </trkpt>
      <trkpt lat="44.01629" lon="6.85894">
        <ele>1319.4000244141</ele>
        <time>2020-09-12T08:55:01.000Z</time>
      </trkpt>
      <trkpt lat="44.01631" lon="6.8589">
        <ele>1319.5999755859</ele>
        <time>2020-09-12T08:55:04.000Z</time>
      </trkpt>
      <trkpt lat="44.01635" lon="6.85882">
        <ele>1320.4000244141</ele>
        <time>2020-09-12T08:55:09.000Z</time>
      </trkpt>
      <trkpt lat="44.01638" lon="6.85876">
        <ele>1320.8000488281</ele>
        <time>2020-09-12T08:55:13.000Z</time>
      </trkpt>
      <trkpt lat="44.01643" lon="6.85868">
        <ele>1321.4000244141</ele>
        <time>2020-09-12T08:55:18.000Z</time>
      </trkpt>
      <trkpt lat="44.01647" lon="6.85861">
        <ele>1322.1999511719</ele>
        <time>2020-09-12T08:55:23.000Z</time>
      </trkpt>
      <trkpt lat="44.01649" lon="6.85858">
        <ele>1322.5999755859</ele>
        <time>2020-09-12T08:55:25.000Z</time>
      </trkpt>
      <trkpt lat="44.01652" lon="6.85849">
        <ele>1323.5999755859</ele>
        <time>2020-09-12T08:55:30.000Z</time>
      </trkpt>
      <trkpt lat="44.01652" lon="6.85847">
        <ele>1323.8000488281</ele>
        <time>2020-09-12T08:55:31.000Z</time>
      </trkpt>
      <trkpt lat="44.0165" lon="6.85843">
        <ele>1324.4000244141</ele>
        <time>2020-09-12T08:55:34.000Z</time>
      </trkpt>
      <trkpt lat="44.01647" lon="6.85843">
        <ele>1324.5999755859</ele>
        <time>2020-09-12T08:55:36.000Z</time>
      </trkpt>
      <trkpt lat="44.0164" lon="6.85843">
        <ele>1325.8000488281</ele>
        <time>2020-09-12T08:55:42.000Z</time>
      </trkpt>
      <trkpt lat="44.01637" lon="6.85843">
        <ele>1326.5999755859</ele>
        <time>2020-09-12T08:55:45.000Z</time>
      </trkpt>
      <trkpt lat="44.01636" lon="6.85842">
        <ele>1327</ele>
        <time>2020-09-12T08:55:46.000Z</time>
      </trkpt>
      <trkpt lat="44.01631" lon="6.85837">
        <ele>1327.5999755859</ele>
        <time>2020-09-12T08:55:51.000Z</time>
      </trkpt>
      <trkpt lat="44.01631" lon="6.85834">
        <ele>1327.8000488281</ele>
        <time>2020-09-12T08:55:53.000Z</time>
      </trkpt>
      <trkpt lat="44.01632" lon="6.85832">
        <ele>1328</ele>
        <time>2020-09-12T08:55:54.000Z</time>
      </trkpt>
      <trkpt lat="44.01632" lon="6.85831">
        <ele>1328.1999511719</ele>
        <time>2020-09-12T08:55:55.000Z</time>
      </trkpt>
      <trkpt lat="44.01634" lon="6.85825">
        <ele>1329</ele>
        <time>2020-09-12T08:56:00.000Z</time>
      </trkpt>
      <trkpt lat="44.01636" lon="6.85819">
        <ele>1329.8000488281</ele>
        <time>2020-09-12T08:56:06.000Z</time>
      </trkpt>
      <trkpt lat="44.01637" lon="6.85818">
        <ele>1330</ele>
        <time>2020-09-12T08:56:07.000Z</time>
      </trkpt>
      <trkpt lat="44.01637" lon="6.85818">
        <ele>1330.1999511719</ele>
        <time>2020-09-12T08:56:08.000Z</time>
      </trkpt>
      <trkpt lat="44.01643" lon="6.8581">
        <ele>1330.8000488281</ele>
        <time>2020-09-12T08:56:16.000Z</time>
      </trkpt>
      <trkpt lat="44.01645" lon="6.85806">
        <ele>1331.1999511719</ele>
        <time>2020-09-12T08:56:19.000Z</time>
      </trkpt>
      <trkpt lat="44.01649" lon="6.85801">
        <ele>1332</ele>
        <time>2020-09-12T08:56:24.000Z</time>
      </trkpt>
      <trkpt lat="44.0165" lon="6.85798">
        <ele>1332.1999511719</ele>
        <time>2020-09-12T08:56:26.000Z</time>
      </trkpt>
      <trkpt lat="44.01657" lon="6.85787">
        <ele>1333</ele>
        <time>2020-09-12T08:56:35.000Z</time>
      </trkpt>
      <trkpt lat="44.0166" lon="6.85785">
        <ele>1333.1999511719</ele>
        <time>2020-09-12T08:56:37.000Z</time>
      </trkpt>
      <trkpt lat="44.01666" lon="6.85776">
        <ele>1333.5999755859</ele>
        <time>2020-09-12T08:56:45.000Z</time>
      </trkpt>
      <trkpt lat="44.01667" lon="6.85775">
        <ele>1333.8000488281</ele>
        <time>2020-09-12T08:56:46.000Z</time>
      </trkpt>
      <trkpt lat="44.0167" lon="6.85771">
        <ele>1333.8000488281</ele>
        <time>2020-09-12T08:56:51.000Z</time>
      </trkpt>
      <trkpt lat="44.0167" lon="6.85771">
        <ele>1333.4000244141</ele>
        <time>2020-09-12T08:56:58.000Z</time>
      </trkpt>
      <trkpt lat="44.0167" lon="6.85771">
        <ele>1333.1999511719</ele>
        <time>2020-09-12T08:57:25.000Z</time>
      </trkpt>
      <trkpt lat="44.01669" lon="6.85771">
        <ele>1333.1999511719</ele>
        <time>2020-09-12T08:57:51.000Z</time>
      </trkpt>
      <trkpt lat="44.0167" lon="6.85771">
        <ele>1333.4000244141</ele>
        <time>2020-09-12T08:58:00.000Z</time>
      </trkpt>
      <trkpt lat="44.01669" lon="6.85772">
        <ele>1333.1999511719</ele>
        <time>2020-09-12T08:58:08.000Z</time>
      </trkpt>
      <trkpt lat="44.01669" lon="6.85772">
        <ele>1333.1999511719</ele>
        <time>2020-09-12T08:58:30.000Z</time>
      </trkpt>
      <trkpt lat="44.01669" lon="6.85772">
        <ele>1333.1999511719</ele>
        <time>2020-09-12T08:58:56.000Z</time>
      </trkpt>
      <trkpt lat="44.01669" lon="6.85772">
        <ele>1333.1999511719</ele>
        <time>2020-09-12T08:59:24.000Z</time>
      </trkpt>
      <trkpt lat="44.01669" lon="6.8577">
        <ele>1333.1999511719</ele>
        <time>2020-09-12T08:59:36.000Z</time>
      </trkpt>
      <trkpt lat="44.0167" lon="6.85767">
        <ele>1333.1999511719</ele>
        <time>2020-09-12T08:59:38.000Z</time>
      </trkpt>
      <trkpt lat="44.01674" lon="6.85751">
        <ele>1333.5999755859</ele>
        <time>2020-09-12T08:59:44.000Z</time>
      </trkpt>
      <trkpt lat="44.01683" lon="6.85717">
        <ele>1332.5999755859</ele>
        <time>2020-09-12T08:59:53.000Z</time>
      </trkpt>
      <trkpt lat="44.01692" lon="6.85702">
        <ele>1332.4000244141</ele>
        <time>2020-09-12T09:00:00.000Z</time>
      </trkpt>
      <trkpt lat="44.01703" lon="6.857">
        <ele>1332.5999755859</ele>
        <time>2020-09-12T09:00:06.000Z</time>
      </trkpt>
      <trkpt lat="44.01721" lon="6.85708">
        <ele>1333.5999755859</ele>
        <time>2020-09-12T09:00:15.000Z</time>
      </trkpt>
      <trkpt lat="44.01736" lon="6.85712">
        <ele>1334.4000244141</ele>
        <time>2020-09-12T09:00:23.000Z</time>
      </trkpt>
      <trkpt lat="44.01737" lon="6.85713">
        <ele>1334.4000244141</ele>
        <time>2020-09-12T09:00:24.000Z</time>
      </trkpt>
      <trkpt lat="44.01755" lon="6.85717">
        <ele>1335.4000244141</ele>
        <time>2020-09-12T09:00:33.000Z</time>
      </trkpt>
      <trkpt lat="44.01767" lon="6.85725">
        <ele>1336.4000244141</ele>
        <time>2020-09-12T09:00:40.000Z</time>
      </trkpt>
      <trkpt lat="44.01771" lon="6.85728">
        <ele>1336.5999755859</ele>
        <time>2020-09-12T09:00:42.000Z</time>
      </trkpt>
      <trkpt lat="44.01789" lon="6.85743">
        <ele>1336.8000488281</ele>
        <time>2020-09-12T09:00:51.000Z</time>
      </trkpt>
      <trkpt lat="44.01807" lon="6.85761">
        <ele>1336.8000488281</ele>
        <time>2020-09-12T09:00:59.000Z</time>
      </trkpt>
      <trkpt lat="44.01828" lon="6.85781">
        <ele>1336.4000244141</ele>
        <time>2020-09-12T09:01:07.000Z</time>
      </trkpt>
      <trkpt lat="44.01846" lon="6.85789">
        <ele>1336.4000244141</ele>
        <time>2020-09-12T09:01:14.000Z</time>
      </trkpt>
      <trkpt lat="44.0186" lon="6.85785">
        <ele>1337</ele>
        <time>2020-09-12T09:01:20.000Z</time>
      </trkpt>
      <trkpt lat="44.01864" lon="6.85782">
        <ele>1337.5999755859</ele>
        <time>2020-09-12T09:01:24.000Z</time>
      </trkpt>
      <trkpt lat="44.01864" lon="6.85782">
        <ele>1337.5999755859</ele>
        <time>2020-09-12T09:01:25.000Z</time>
      </trkpt>
      <trkpt lat="44.01864" lon="6.85782">
        <ele>1337.1999511719</ele>
        <time>2020-09-12T09:01:34.000Z</time>
      </trkpt>
      <trkpt lat="44.01864" lon="6.85783">
        <ele>1337</ele>
        <time>2020-09-12T09:01:51.000Z</time>
      </trkpt>
      <trkpt lat="44.01864" lon="6.85783">
        <ele>1337.1999511719</ele>
        <time>2020-09-12T09:01:58.000Z</time>
      </trkpt>
      <trkpt lat="44.01863" lon="6.85785">
        <ele>1337.4000244141</ele>
        <time>2020-09-12T09:02:10.000Z</time>
      </trkpt>
      <trkpt lat="44.01856" lon="6.85789">
        <ele>1337.8000488281</ele>
        <time>2020-09-12T09:02:14.000Z</time>
      </trkpt>
      <trkpt lat="44.01839" lon="6.85788">
        <ele>1337.4000244141</ele>
        <time>2020-09-12T09:02:20.000Z</time>
      </trkpt>
      <trkpt lat="44.01818" lon="6.85772">
        <ele>1336.5999755859</ele>
        <time>2020-09-12T09:02:27.000Z</time>
      </trkpt>
      <trkpt lat="44.01817" lon="6.85771">
        <ele>1336.4000244141</ele>
        <time>2020-09-12T09:02:28.000Z</time>
      </trkpt>
      <trkpt lat="44.01815" lon="6.85766">
        <ele>1336</ele>
        <time>2020-09-12T09:02:31.000Z</time>
      </trkpt>
      <trkpt lat="44.01819" lon="6.85754">
        <ele>1335.4000244141</ele>
        <time>2020-09-12T09:02:35.000Z</time>
      </trkpt>
      <trkpt lat="44.01823" lon="6.8575">
        <ele>1334.4000244141</ele>
        <time>2020-09-12T09:02:37.000Z</time>
      </trkpt>
      <trkpt lat="44.01825" lon="6.85748">
        <ele>1333.8000488281</ele>
        <time>2020-09-12T09:02:38.000Z</time>
      </trkpt>
      <trkpt lat="44.01828" lon="6.85746">
        <ele>1332</ele>
        <time>2020-09-12T09:02:40.000Z</time>
      </trkpt>
      <trkpt lat="44.01827" lon="6.85746">
        <ele>1331.1999511719</ele>
        <time>2020-09-12T09:02:41.000Z</time>
      </trkpt>
      <trkpt lat="44.01828" lon="6.85746">
        <ele>1330.4000244141</ele>
        <time>2020-09-12T09:02:42.000Z</time>
      </trkpt>
      <trkpt lat="44.01828" lon="6.85745">
        <ele>1329.4000244141</ele>
        <time>2020-09-12T09:02:44.000Z</time>
      </trkpt>
      <trkpt lat="44.01825" lon="6.85743">
        <ele>1328.5999755859</ele>
        <time>2020-09-12T09:02:48.000Z</time>
      </trkpt>
      <trkpt lat="44.01819" lon="6.85736">
        <ele>1328.4000244141</ele>
        <time>2020-09-12T09:02:56.000Z</time>
      </trkpt>
      <trkpt lat="44.01819" lon="6.85736">
        <ele>1328.4000244141</ele>
        <time>2020-09-12T09:02:59.000Z</time>
      </trkpt>
      <trkpt lat="44.01819" lon="6.85736">
        <ele>1328</ele>
        <time>2020-09-12T09:03:11.000Z</time>
      </trkpt>
      <trkpt lat="44.0182" lon="6.85736">
        <ele>1327.8000488281</ele>
        <time>2020-09-12T09:03:25.000Z</time>
      </trkpt>
      <trkpt lat="44.0182" lon="6.85737">
        <ele>1327.8000488281</ele>
        <time>2020-09-12T09:03:35.000Z</time>
      </trkpt>
      <trkpt lat="44.0182" lon="6.85738">
        <ele>1327.5999755859</ele>
        <time>2020-09-12T09:04:01.000Z</time>
      </trkpt>
      <trkpt lat="44.0182" lon="6.85738">
        <ele>1327.5999755859</ele>
        <time>2020-09-12T09:04:19.000Z</time>
      </trkpt>
      <trkpt lat="44.0182" lon="6.85738">
        <ele>1327.5999755859</ele>
        <time>2020-09-12T09:04:32.000Z</time>
      </trkpt>
      <trkpt lat="44.01819" lon="6.85738">
        <ele>1327.5999755859</ele>
        <time>2020-09-12T09:04:56.000Z</time>
      </trkpt>
      <trkpt lat="44.0182" lon="6.85738">
        <ele>1327.5999755859</ele>
        <time>2020-09-12T09:05:22.000Z</time>
      </trkpt>
      <trkpt lat="44.01819" lon="6.85738">
        <ele>1327.5999755859</ele>
        <time>2020-09-12T09:05:47.000Z</time>
      </trkpt>
      <trkpt lat="44.01819" lon="6.85737">
        <ele>1327.5999755859</ele>
        <time>2020-09-12T09:06:15.000Z</time>
      </trkpt>
      <trkpt lat="44.01819" lon="6.85737">
        <ele>1327.4000244141</ele>
        <time>2020-09-12T09:06:41.000Z</time>
      </trkpt>
      <trkpt lat="44.01819" lon="6.85736">
        <ele>1327.4000244141</ele>
        <time>2020-09-12T09:07:02.000Z</time>
      </trkpt>
      <trkpt lat="44.01819" lon="6.85737">
        <ele>1327.5999755859</ele>
        <time>2020-09-12T09:07:24.000Z</time>
      </trkpt>
      <trkpt lat="44.0182" lon="6.85737">
        <ele>1327.5999755859</ele>
        <time>2020-09-12T09:07:47.000Z</time>
      </trkpt>
      <trkpt lat="44.01821" lon="6.85737">
        <ele>1327.5999755859</ele>
        <time>2020-09-12T09:08:16.000Z</time>
      </trkpt>
      <trkpt lat="44.0182" lon="6.85737">
        <ele>1328</ele>
        <time>2020-09-12T09:08:30.000Z</time>
      </trkpt>
      <trkpt lat="44.01825" lon="6.85733">
        <ele>1328.5999755859</ele>
        <time>2020-09-12T09:08:35.000Z</time>
      </trkpt>
      <trkpt lat="44.01834" lon="6.8573">
        <ele>1327.8000488281</ele>
        <time>2020-09-12T09:08:38.000Z</time>
      </trkpt>
      <trkpt lat="44.01837" lon="6.85729">
        <ele>1327.1999511719</ele>
        <time>2020-09-12T09:08:39.000Z</time>
      </trkpt>
      <trkpt lat="44.01841" lon="6.85729">
        <ele>1326</ele>
        <time>2020-09-12T09:08:41.000Z</time>
      </trkpt>
      <trkpt lat="44.01844" lon="6.85733">
        <ele>1324.8000488281</ele>
        <time>2020-09-12T09:08:43.000Z</time>
      </trkpt>
      <trkpt lat="44.01846" lon="6.85734">
        <ele>1323.8000488281</ele>
        <time>2020-09-12T09:08:45.000Z</time>
      </trkpt>
      <trkpt lat="44.01847" lon="6.85732">
        <ele>1323</ele>
        <time>2020-09-12T09:08:47.000Z</time>
      </trkpt>
      <trkpt lat="44.01848" lon="6.85729">
        <ele>1322.5999755859</ele>
        <time>2020-09-12T09:08:48.000Z</time>
      </trkpt>
      <trkpt lat="44.0185" lon="6.85717">
        <ele>1321.8000488281</ele>
        <time>2020-09-12T09:08:51.000Z</time>
      </trkpt>
      <trkpt lat="44.01851" lon="6.85708">
        <ele>1321.1999511719</ele>
        <time>2020-09-12T09:08:53.000Z</time>
      </trkpt>
      <trkpt lat="44.01856" lon="6.85696">
        <ele>1320.8000488281</ele>
        <time>2020-09-12T09:08:56.000Z</time>
      </trkpt>
      <trkpt lat="44.0186" lon="6.85689">
        <ele>1320.1999511719</ele>
        <time>2020-09-12T09:08:59.000Z</time>
      </trkpt>
      <trkpt lat="44.0186" lon="6.85687">
        <ele>1320</ele>
        <time>2020-09-12T09:09:00.000Z</time>
      </trkpt>
      <trkpt lat="44.01862" lon="6.85675">
        <ele>1319.1999511719</ele>
        <time>2020-09-12T09:09:03.000Z</time>
      </trkpt>
      <trkpt lat="44.01863" lon="6.8567">
        <ele>1319</ele>
        <time>2020-09-12T09:09:04.000Z</time>
      </trkpt>
      <trkpt lat="44.01865" lon="6.85654">
        <ele>1318.1999511719</ele>
        <time>2020-09-12T09:09:06.000Z</time>
      </trkpt>
      <trkpt lat="44.01867" lon="6.85645">
        <ele>1317.8000488281</ele>
        <time>2020-09-12T09:09:07.000Z</time>
      </trkpt>
      <trkpt lat="44.0187" lon="6.85638">
        <ele>1317.4000244141</ele>
        <time>2020-09-12T09:09:08.000Z</time>
      </trkpt>
      <trkpt lat="44.01872" lon="6.85634">
        <ele>1317</ele>
        <time>2020-09-12T09:09:09.000Z</time>
      </trkpt>
      <trkpt lat="44.01875" lon="6.85628">
        <ele>1315.8000488281</ele>
        <time>2020-09-12T09:09:11.000Z</time>
      </trkpt>
      <trkpt lat="44.01885" lon="6.85604">
        <ele>1315.1999511719</ele>
        <time>2020-09-12T09:09:16.000Z</time>
      </trkpt>
      <trkpt lat="44.01894" lon="6.85584">
        <ele>1315.1999511719</ele>
        <time>2020-09-12T09:09:20.000Z</time>
      </trkpt>
      <trkpt lat="44.01899" lon="6.85576">
        <ele>1314.8000488281</ele>
        <time>2020-09-12T09:09:22.000Z</time>
      </trkpt>
      <trkpt lat="44.01905" lon="6.85555">
        <ele>1314.1999511719</ele>
        <time>2020-09-12T09:09:26.000Z</time>
      </trkpt>
      <trkpt lat="44.01908" lon="6.85533">
        <ele>1313.8000488281</ele>
        <time>2020-09-12T09:09:29.000Z</time>
      </trkpt>
      <trkpt lat="44.0191" lon="6.85516">
        <ele>1313.1999511719</ele>
        <time>2020-09-12T09:09:31.000Z</time>
      </trkpt>
      <trkpt lat="44.01912" lon="6.85499">
        <ele>1312.1999511719</ele>
        <time>2020-09-12T09:09:33.000Z</time>
      </trkpt>
      <trkpt lat="44.01915" lon="6.85487">
        <ele>1310.8000488281</ele>
        <time>2020-09-12T09:09:35.000Z</time>
      </trkpt>
      <trkpt lat="44.01916" lon="6.85481">
        <ele>1310.1999511719</ele>
        <time>2020-09-12T09:09:36.000Z</time>
      </trkpt>
      <trkpt lat="44.01915" lon="6.85473">
        <ele>1309.5999755859</ele>
        <time>2020-09-12T09:09:37.000Z</time>
      </trkpt>
      <trkpt lat="44.01915" lon="6.85466">
        <ele>1309.1999511719</ele>
        <time>2020-09-12T09:09:38.000Z</time>
      </trkpt>
      <trkpt lat="44.01916" lon="6.85459">
        <ele>1308.5999755859</ele>
        <time>2020-09-12T09:09:39.000Z</time>
      </trkpt>
      <trkpt lat="44.01919" lon="6.85447">
        <ele>1307.1999511719</ele>
        <time>2020-09-12T09:09:41.000Z</time>
      </trkpt>
      <trkpt lat="44.01922" lon="6.85443">
        <ele>1306.4000244141</ele>
        <time>2020-09-12T09:09:42.000Z</time>
      </trkpt>
      <trkpt lat="44.01925" lon="6.85439">
        <ele>1305.1999511719</ele>
        <time>2020-09-12T09:09:43.000Z</time>
      </trkpt>
      <trkpt lat="44.01928" lon="6.85436">
        <ele>1304.5999755859</ele>
        <time>2020-09-12T09:09:44.000Z</time>
      </trkpt>
      <trkpt lat="44.01931" lon="6.85433">
        <ele>1303.8000488281</ele>
        <time>2020-09-12T09:09:45.000Z</time>
      </trkpt>
      <trkpt lat="44.01936" lon="6.85425">
        <ele>1303.1999511719</ele>
        <time>2020-09-12T09:09:47.000Z</time>
      </trkpt>
      <trkpt lat="44.01943" lon="6.85411">
        <ele>1303.4000244141</ele>
        <time>2020-09-12T09:09:50.000Z</time>
      </trkpt>
      <trkpt lat="44.01947" lon="6.85401">
        <ele>1302.8000488281</ele>
        <time>2020-09-12T09:09:52.000Z</time>
      </trkpt>
      <trkpt lat="44.01951" lon="6.85392">
        <ele>1301.5999755859</ele>
        <time>2020-09-12T09:09:54.000Z</time>
      </trkpt>
      <trkpt lat="44.01955" lon="6.85388">
        <ele>1300.5999755859</ele>
        <time>2020-09-12T09:09:55.000Z</time>
      </trkpt>
      <trkpt lat="44.01958" lon="6.85384">
        <ele>1300</ele>
        <time>2020-09-12T09:09:56.000Z</time>
      </trkpt>
      <trkpt lat="44.01962" lon="6.8538">
        <ele>1299.4000244141</ele>
        <time>2020-09-12T09:09:57.000Z</time>
      </trkpt>
      <trkpt lat="44.01965" lon="6.85376">
        <ele>1298.8000488281</ele>
        <time>2020-09-12T09:09:58.000Z</time>
      </trkpt>
      <trkpt lat="44.01972" lon="6.85364">
        <ele>1298</ele>
        <time>2020-09-12T09:10:00.000Z</time>
      </trkpt>
      <trkpt lat="44.01976" lon="6.85358">
        <ele>1297.4000244141</ele>
        <time>2020-09-12T09:10:01.000Z</time>
      </trkpt>
      <trkpt lat="44.01982" lon="6.85343">
        <ele>1296</ele>
        <time>2020-09-12T09:10:03.000Z</time>
      </trkpt>
      <trkpt lat="44.01985" lon="6.85336">
        <ele>1295.4000244141</ele>
        <time>2020-09-12T09:10:04.000Z</time>
      </trkpt>
      <trkpt lat="44.01988" lon="6.85326">
        <ele>1294.4000244141</ele>
        <time>2020-09-12T09:10:05.000Z</time>
      </trkpt>
      <trkpt lat="44.01997" lon="6.85299">
        <ele>1293</ele>
        <time>2020-09-12T09:10:08.000Z</time>
      </trkpt>
      <trkpt lat="44.02002" lon="6.85286">
        <ele>1291.4000244141</ele>
        <time>2020-09-12T09:10:10.000Z</time>
      </trkpt>
      <trkpt lat="44.02004" lon="6.8528">
        <ele>1290.4000244141</ele>
        <time>2020-09-12T09:10:11.000Z</time>
      </trkpt>
      <trkpt lat="44.02005" lon="6.85275">
        <ele>1289.1999511719</ele>
        <time>2020-09-12T09:10:12.000Z</time>
      </trkpt>
      <trkpt lat="44.02007" lon="6.85272">
        <ele>1288</ele>
        <time>2020-09-12T09:10:13.000Z</time>
      </trkpt>
      <trkpt lat="44.02009" lon="6.85268">
        <ele>1286.8000488281</ele>
        <time>2020-09-12T09:10:14.000Z</time>
      </trkpt>
      <trkpt lat="44.02016" lon="6.85262">
        <ele>1285</ele>
        <time>2020-09-12T09:10:16.000Z</time>
      </trkpt>
      <trkpt lat="44.0202" lon="6.85257">
        <ele>1283.8000488281</ele>
        <time>2020-09-12T09:10:18.000Z</time>
      </trkpt>
      <trkpt lat="44.02022" lon="6.85251">
        <ele>1282.8000488281</ele>
        <time>2020-09-12T09:10:20.000Z</time>
      </trkpt>
      <trkpt lat="44.02023" lon="6.85248">
        <ele>1282.1999511719</ele>
        <time>2020-09-12T09:10:21.000Z</time>
      </trkpt>
      <trkpt lat="44.02024" lon="6.8524">
        <ele>1281</ele>
        <time>2020-09-12T09:10:23.000Z</time>
      </trkpt>
      <trkpt lat="44.02025" lon="6.85234">
        <ele>1280.1999511719</ele>
        <time>2020-09-12T09:10:24.000Z</time>
      </trkpt>
      <trkpt lat="44.02025" lon="6.85228">
        <ele>1279.5999755859</ele>
        <time>2020-09-12T09:10:25.000Z</time>
      </trkpt>
      <trkpt lat="44.02026" lon="6.85223">
        <ele>1278.4000244141</ele>
        <time>2020-09-12T09:10:27.000Z</time>
      </trkpt>
      <trkpt lat="44.02026" lon="6.85222">
        <ele>1276.8000488281</ele>
        <time>2020-09-12T09:10:29.000Z</time>
      </trkpt>
      <trkpt lat="44.02026" lon="6.85221">
        <ele>1275.5999755859</ele>
        <time>2020-09-12T09:10:31.000Z</time>
      </trkpt>
      <trkpt lat="44.02026" lon="6.85221">
        <ele>1275.1999511719</ele>
        <time>2020-09-12T09:10:32.000Z</time>
      </trkpt>
      <trkpt lat="44.02026" lon="6.85222">
        <ele>1274.5999755859</ele>
        <time>2020-09-12T09:10:42.000Z</time>
      </trkpt>
      <trkpt lat="44.02027" lon="6.85222">
        <ele>1274.5999755859</ele>
        <time>2020-09-12T09:10:43.000Z</time>
      </trkpt>
      <trkpt lat="44.02027" lon="6.85222">
        <ele>1274.4000244141</ele>
        <time>2020-09-12T09:10:56.000Z</time>
      </trkpt>
      <trkpt lat="44.02027" lon="6.85222">
        <ele>1274.1999511719</ele>
        <time>2020-09-12T09:11:09.000Z</time>
      </trkpt>
      <trkpt lat="44.02027" lon="6.85222">
        <ele>1274</ele>
        <time>2020-09-12T09:11:28.000Z</time>
      </trkpt>
      <trkpt lat="44.02026" lon="6.85222">
        <ele>1274</ele>
        <time>2020-09-12T09:11:40.000Z</time>
      </trkpt>
      <trkpt lat="44.02025" lon="6.85223">
        <ele>1274.4000244141</ele>
        <time>2020-09-12T09:11:52.000Z</time>
      </trkpt>
      <trkpt lat="44.02025" lon="6.85224">
        <ele>1274.1999511719</ele>
        <time>2020-09-12T09:12:01.000Z</time>
      </trkpt>
      <trkpt lat="44.02024" lon="6.85223">
        <ele>1274.8000488281</ele>
        <time>2020-09-12T09:12:17.000Z</time>
      </trkpt>
      <trkpt lat="44.0203" lon="6.85211">
        <ele>1274.5999755859</ele>
        <time>2020-09-12T09:12:21.000Z</time>
      </trkpt>
      <trkpt lat="44.02035" lon="6.852">
        <ele>1274.4000244141</ele>
        <time>2020-09-12T09:12:23.000Z</time>
      </trkpt>
      <trkpt lat="44.02041" lon="6.85193">
        <ele>1273.8000488281</ele>
        <time>2020-09-12T09:12:25.000Z</time>
      </trkpt>
      <trkpt lat="44.02045" lon="6.8519">
        <ele>1273.4000244141</ele>
        <time>2020-09-12T09:12:26.000Z</time>
      </trkpt>
      <trkpt lat="44.02048" lon="6.85186">
        <ele>1272.5999755859</ele>
        <time>2020-09-12T09:12:27.000Z</time>
      </trkpt>
      <trkpt lat="44.0205" lon="6.85182">
        <ele>1271.4000244141</ele>
        <time>2020-09-12T09:12:28.000Z</time>
      </trkpt>
      <trkpt lat="44.02053" lon="6.85179">
        <ele>1270.1999511719</ele>
        <time>2020-09-12T09:12:29.000Z</time>
      </trkpt>
      <trkpt lat="44.02056" lon="6.85174">
        <ele>1269</ele>
        <time>2020-09-12T09:12:30.000Z</time>
      </trkpt>
      <trkpt lat="44.02057" lon="6.8517">
        <ele>1267.8000488281</ele>
        <time>2020-09-12T09:12:31.000Z</time>
      </trkpt>
      <trkpt lat="44.02059" lon="6.85164">
        <ele>1266</ele>
        <time>2020-09-12T09:12:33.000Z</time>
      </trkpt>
      <trkpt lat="44.02059" lon="6.85162">
        <ele>1264.8000488281</ele>
        <time>2020-09-12T09:12:35.000Z</time>
      </trkpt>
      <trkpt lat="44.02059" lon="6.85162">
        <ele>1263.8000488281</ele>
        <time>2020-09-12T09:12:37.000Z</time>
      </trkpt>
      <trkpt lat="44.02059" lon="6.85161">
        <ele>1263</ele>
        <time>2020-09-12T09:12:42.000Z</time>
      </trkpt>
      <trkpt lat="44.02059" lon="6.85158">
        <ele>1263</ele>
        <time>2020-09-12T09:12:46.000Z</time>
      </trkpt>
      <trkpt lat="44.02059" lon="6.85155">
        <ele>1262.8000488281</ele>
        <time>2020-09-12T09:12:47.000Z</time>
      </trkpt>
      <trkpt lat="44.0206" lon="6.85152">
        <ele>1262.8000488281</ele>
        <time>2020-09-12T09:12:48.000Z</time>
      </trkpt>
      <trkpt lat="44.02064" lon="6.8515">
        <ele>1262.1999511719</ele>
        <time>2020-09-12T09:12:50.000Z</time>
      </trkpt>
      <trkpt lat="44.0207" lon="6.85141">
        <ele>1261.5999755859</ele>
        <time>2020-09-12T09:12:52.000Z</time>
      </trkpt>
      <trkpt lat="44.02072" lon="6.85133">
        <ele>1261</ele>
        <time>2020-09-12T09:12:53.000Z</time>
      </trkpt>
      <trkpt lat="44.02075" lon="6.85126">
        <ele>1260.4000244141</ele>
        <time>2020-09-12T09:12:54.000Z</time>
      </trkpt>
      <trkpt lat="44.02081" lon="6.85111">
        <ele>1259</ele>
        <time>2020-09-12T09:12:56.000Z</time>
      </trkpt>
      <trkpt lat="44.02084" lon="6.85106">
        <ele>1258</ele>
        <time>2020-09-12T09:12:57.000Z</time>
      </trkpt>
      <trkpt lat="44.02087" lon="6.85102">
        <ele>1257.4000244141</ele>
        <time>2020-09-12T09:12:58.000Z</time>
      </trkpt>
      <trkpt lat="44.02095" lon="6.85094">
        <ele>1256</ele>
        <time>2020-09-12T09:13:00.000Z</time>
      </trkpt>
      <trkpt lat="44.02099" lon="6.85083">
        <ele>1254.5999755859</ele>
        <time>2020-09-12T09:13:02.000Z</time>
      </trkpt>
      <trkpt lat="44.02099" lon="6.85076">
        <ele>1253.4000244141</ele>
        <time>2020-09-12T09:13:03.000Z</time>
      </trkpt>
      <trkpt lat="44.021" lon="6.85072">
        <ele>1252.1999511719</ele>
        <time>2020-09-12T09:13:04.000Z</time>
      </trkpt>
      <trkpt lat="44.02102" lon="6.85066">
        <ele>1251</ele>
        <time>2020-09-12T09:13:05.000Z</time>
      </trkpt>
      <trkpt lat="44.02104" lon="6.85061">
        <ele>1249.8000488281</ele>
        <time>2020-09-12T09:13:06.000Z</time>
      </trkpt>
      <trkpt lat="44.02108" lon="6.85052">
        <ele>1248.4000244141</ele>
        <time>2020-09-12T09:13:08.000Z</time>
      </trkpt>
      <trkpt lat="44.0211" lon="6.85049">
        <ele>1247.8000488281</ele>
        <time>2020-09-12T09:13:09.000Z</time>
      </trkpt>
      <trkpt lat="44.02112" lon="6.85046">
        <ele>1247.5999755859</ele>
        <time>2020-09-12T09:13:10.000Z</time>
      </trkpt>
      <trkpt lat="44.02114" lon="6.85044">
        <ele>1247.1999511719</ele>
        <time>2020-09-12T09:13:11.000Z</time>
      </trkpt>
      <trkpt lat="44.02117" lon="6.85036">
        <ele>1246.5999755859</ele>
        <time>2020-09-12T09:13:14.000Z</time>
      </trkpt>
      <trkpt lat="44.02117" lon="6.85032">
        <ele>1246.1999511719</ele>
        <time>2020-09-12T09:13:15.000Z</time>
      </trkpt>
      <trkpt lat="44.02117" lon="6.85028">
        <ele>1245.8000488281</ele>
        <time>2020-09-12T09:13:16.000Z</time>
      </trkpt>
      <trkpt lat="44.02118" lon="6.85021">
        <ele>1245.1999511719</ele>
        <time>2020-09-12T09:13:18.000Z</time>
      </trkpt>
      <trkpt lat="44.02123" lon="6.85013">
        <ele>1244</ele>
        <time>2020-09-12T09:13:20.000Z</time>
      </trkpt>
      <trkpt lat="44.02128" lon="6.85007">
        <ele>1243</ele>
        <time>2020-09-12T09:13:22.000Z</time>
      </trkpt>
      <trkpt lat="44.02135" lon="6.85003">
        <ele>1241.8000488281</ele>
        <time>2020-09-12T09:13:24.000Z</time>
      </trkpt>
      <trkpt lat="44.02141" lon="6.85003">
        <ele>1240.4000244141</ele>
        <time>2020-09-12T09:13:26.000Z</time>
      </trkpt>
      <trkpt lat="44.02146" lon="6.85005">
        <ele>1239</ele>
        <time>2020-09-12T09:13:28.000Z</time>
      </trkpt>
      <trkpt lat="44.02149" lon="6.85009">
        <ele>1238</ele>
        <time>2020-09-12T09:13:30.000Z</time>
      </trkpt>
      <trkpt lat="44.02153" lon="6.85007">
        <ele>1236.5999755859</ele>
        <time>2020-09-12T09:13:32.000Z</time>
      </trkpt>
      <trkpt lat="44.02159" lon="6.85007">
        <ele>1235.5999755859</ele>
        <time>2020-09-12T09:13:34.000Z</time>
      </trkpt>
      <trkpt lat="44.02162" lon="6.85007">
        <ele>1235.1999511719</ele>
        <time>2020-09-12T09:13:35.000Z</time>
      </trkpt>
      <trkpt lat="44.02167" lon="6.85006">
        <ele>1234.1999511719</ele>
        <time>2020-09-12T09:13:37.000Z</time>
      </trkpt>
      <trkpt lat="44.02171" lon="6.85004">
        <ele>1233</ele>
        <time>2020-09-12T09:13:38.000Z</time>
      </trkpt>
      <trkpt lat="44.02174" lon="6.85003">
        <ele>1232</ele>
        <time>2020-09-12T09:13:39.000Z</time>
      </trkpt>
      <trkpt lat="44.02178" lon="6.85002">
        <ele>1231</ele>
        <time>2020-09-12T09:13:40.000Z</time>
      </trkpt>
      <trkpt lat="44.02181" lon="6.85001">
        <ele>1229.8000488281</ele>
        <time>2020-09-12T09:13:41.000Z</time>
      </trkpt>
      <trkpt lat="44.02184" lon="6.85001">
        <ele>1228.5999755859</ele>
        <time>2020-09-12T09:13:42.000Z</time>
      </trkpt>
      <trkpt lat="44.02185" lon="6.85">
        <ele>1227.8000488281</ele>
        <time>2020-09-12T09:13:43.000Z</time>
      </trkpt>
      <trkpt lat="44.02187" lon="6.85">
        <ele>1227</ele>
        <time>2020-09-12T09:13:44.000Z</time>
      </trkpt>
      <trkpt lat="44.02193" lon="6.85002">
        <ele>1225.4000244141</ele>
        <time>2020-09-12T09:13:46.000Z</time>
      </trkpt>
      <trkpt lat="44.02196" lon="6.85003">
        <ele>1224.8000488281</ele>
        <time>2020-09-12T09:13:47.000Z</time>
      </trkpt>
      <trkpt lat="44.02196" lon="6.85004">
        <ele>1224.1999511719</ele>
        <time>2020-09-12T09:13:48.000Z</time>
      </trkpt>
      <trkpt lat="44.02195" lon="6.85006">
        <ele>1223</ele>
        <time>2020-09-12T09:13:50.000Z</time>
      </trkpt>
      <trkpt lat="44.02194" lon="6.85009">
        <ele>1222</ele>
        <time>2020-09-12T09:13:52.000Z</time>
      </trkpt>
      <trkpt lat="44.02193" lon="6.85011">
        <ele>1221.4000244141</ele>
        <time>2020-09-12T09:13:54.000Z</time>
      </trkpt>
      <trkpt lat="44.02193" lon="6.85011">
        <ele>1220.8000488281</ele>
        <time>2020-09-12T09:13:55.000Z</time>
      </trkpt>
      <trkpt lat="44.02193" lon="6.85013">
        <ele>1219.8000488281</ele>
        <time>2020-09-12T09:13:58.000Z</time>
      </trkpt>
      <trkpt lat="44.02192" lon="6.85014">
        <ele>1219.5999755859</ele>
        <time>2020-09-12T09:13:59.000Z</time>
      </trkpt>
      <trkpt lat="44.02193" lon="6.85016">
        <ele>1218.8000488281</ele>
        <time>2020-09-12T09:14:02.000Z</time>
      </trkpt>
      <trkpt lat="44.02194" lon="6.85016">
        <ele>1218.4000244141</ele>
        <time>2020-09-12T09:14:04.000Z</time>
      </trkpt>
      <trkpt lat="44.02195" lon="6.85016">
        <ele>1218</ele>
        <time>2020-09-12T09:14:06.000Z</time>
      </trkpt>
      <trkpt lat="44.02199" lon="6.85016">
        <ele>1217.8000488281</ele>
        <time>2020-09-12T09:14:08.000Z</time>
      </trkpt>
      <trkpt lat="44.02202" lon="6.85015">
        <ele>1217.5999755859</ele>
        <time>2020-09-12T09:14:09.000Z</time>
      </trkpt>
      <trkpt lat="44.02211" lon="6.85014">
        <ele>1216.8000488281</ele>
        <time>2020-09-12T09:14:12.000Z</time>
      </trkpt>
      <trkpt lat="44.02215" lon="6.85012">
        <ele>1216.5999755859</ele>
        <time>2020-09-12T09:14:13.000Z</time>
      </trkpt>
      <trkpt lat="44.02225" lon="6.85005">
        <ele>1215</ele>
        <time>2020-09-12T09:14:16.000Z</time>
      </trkpt>
      <trkpt lat="44.02229" lon="6.85003">
        <ele>1214.4000244141</ele>
        <time>2020-09-12T09:14:17.000Z</time>
      </trkpt>
      <trkpt lat="44.02233" lon="6.85">
        <ele>1213.5999755859</ele>
        <time>2020-09-12T09:14:18.000Z</time>
      </trkpt>
      <trkpt lat="44.02242" lon="6.84993">
        <ele>1212</ele>
        <time>2020-09-12T09:14:20.000Z</time>
      </trkpt>
      <trkpt lat="44.02249" lon="6.84985">
        <ele>1210.1999511719</ele>
        <time>2020-09-12T09:14:22.000Z</time>
      </trkpt>
      <trkpt lat="44.02252" lon="6.84981">
        <ele>1209</ele>
        <time>2020-09-12T09:14:23.000Z</time>
      </trkpt>
      <trkpt lat="44.02253" lon="6.84976">
        <ele>1208</ele>
        <time>2020-09-12T09:14:24.000Z</time>
      </trkpt>
      <trkpt lat="44.02255" lon="6.8497">
        <ele>1207</ele>
        <time>2020-09-12T09:14:25.000Z</time>
      </trkpt>
      <trkpt lat="44.0226" lon="6.84958">
        <ele>1205.1999511719</ele>
        <time>2020-09-12T09:14:27.000Z</time>
      </trkpt>
      <trkpt lat="44.02261" lon="6.84952">
        <ele>1204.8000488281</ele>
        <time>2020-09-12T09:14:28.000Z</time>
      </trkpt>
      <trkpt lat="44.02263" lon="6.84939">
        <ele>1204.1999511719</ele>
        <time>2020-09-12T09:14:30.000Z</time>
      </trkpt>
      <trkpt lat="44.02268" lon="6.84924">
        <ele>1203</ele>
        <time>2020-09-12T09:14:33.000Z</time>
      </trkpt>
      <trkpt lat="44.0227" lon="6.84915">
        <ele>1201.5999755859</ele>
        <time>2020-09-12T09:14:35.000Z</time>
      </trkpt>
      <trkpt lat="44.02271" lon="6.84912">
        <ele>1200.5999755859</ele>
        <time>2020-09-12T09:14:36.000Z</time>
      </trkpt>
      <trkpt lat="44.02272" lon="6.84909">
        <ele>1199.4000244141</ele>
        <time>2020-09-12T09:14:37.000Z</time>
      </trkpt>
      <trkpt lat="44.02272" lon="6.84907">
        <ele>1198.4000244141</ele>
        <time>2020-09-12T09:14:38.000Z</time>
      </trkpt>
      <trkpt lat="44.02274" lon="6.84903">
        <ele>1196.5999755859</ele>
        <time>2020-09-12T09:14:40.000Z</time>
      </trkpt>
      <trkpt lat="44.02276" lon="6.84907">
        <ele>1195.1999511719</ele>
        <time>2020-09-12T09:14:42.000Z</time>
      </trkpt>
      <trkpt lat="44.0228" lon="6.84914">
        <ele>1194.1999511719</ele>
        <time>2020-09-12T09:14:44.000Z</time>
      </trkpt>
      <trkpt lat="44.02282" lon="6.84921">
        <ele>1193.1999511719</ele>
        <time>2020-09-12T09:14:46.000Z</time>
      </trkpt>
      <trkpt lat="44.02283" lon="6.84923">
        <ele>1192.5999755859</ele>
        <time>2020-09-12T09:14:47.000Z</time>
      </trkpt>
      <trkpt lat="44.02284" lon="6.84925">
        <ele>1191.8000488281</ele>
        <time>2020-09-12T09:14:48.000Z</time>
      </trkpt>
      <trkpt lat="44.02286" lon="6.84925">
        <ele>1190.5999755859</ele>
        <time>2020-09-12T09:14:50.000Z</time>
      </trkpt>
      <trkpt lat="44.02287" lon="6.84922">
        <ele>1189.8000488281</ele>
        <time>2020-09-12T09:14:51.000Z</time>
      </trkpt>
      <trkpt lat="44.02288" lon="6.84917">
        <ele>1189.1999511719</ele>
        <time>2020-09-12T09:14:52.000Z</time>
      </trkpt>
      <trkpt lat="44.0229" lon="6.84906">
        <ele>1188</ele>
        <time>2020-09-12T09:14:54.000Z</time>
      </trkpt>
      <trkpt lat="44.02293" lon="6.84893">
        <ele>1186.4000244141</ele>
        <time>2020-09-12T09:14:56.000Z</time>
      </trkpt>
      <trkpt lat="44.02294" lon="6.8488">
        <ele>1184.5999755859</ele>
        <time>2020-09-12T09:14:58.000Z</time>
      </trkpt>
      <trkpt lat="44.02295" lon="6.84872">
        <ele>1183.5999755859</ele>
        <time>2020-09-12T09:14:59.000Z</time>
      </trkpt>
      <trkpt lat="44.02294" lon="6.84864">
        <ele>1182.4000244141</ele>
        <time>2020-09-12T09:15:00.000Z</time>
      </trkpt>
      <trkpt lat="44.02294" lon="6.84858">
        <ele>1181.1999511719</ele>
        <time>2020-09-12T09:15:01.000Z</time>
      </trkpt>
      <trkpt lat="44.02293" lon="6.84852">
        <ele>1180.1999511719</ele>
        <time>2020-09-12T09:15:02.000Z</time>
      </trkpt>
      <trkpt lat="44.02292" lon="6.84846">
        <ele>1179</ele>
        <time>2020-09-12T09:15:03.000Z</time>
      </trkpt>
      <trkpt lat="44.02291" lon="6.84841">
        <ele>1178.4000244141</ele>
        <time>2020-09-12T09:15:04.000Z</time>
      </trkpt>
      <trkpt lat="44.0229" lon="6.84835">
        <ele>1177.5999755859</ele>
        <time>2020-09-12T09:15:05.000Z</time>
      </trkpt>
      <trkpt lat="44.02289" lon="6.84826">
        <ele>1176.1999511719</ele>
        <time>2020-09-12T09:15:07.000Z</time>
      </trkpt>
      <trkpt lat="44.02288" lon="6.84817">
        <ele>1174</ele>
        <time>2020-09-12T09:15:09.000Z</time>
      </trkpt>
      <trkpt lat="44.02287" lon="6.84813">
        <ele>1173</ele>
        <time>2020-09-12T09:15:10.000Z</time>
      </trkpt>
      <trkpt lat="44.02287" lon="6.84809">
        <ele>1171.8000488281</ele>
        <time>2020-09-12T09:15:11.000Z</time>
      </trkpt>
      <trkpt lat="44.02288" lon="6.84808">
        <ele>1170.4000244141</ele>
        <time>2020-09-12T09:15:12.000Z</time>
      </trkpt>
      <trkpt lat="44.0229" lon="6.84808">
        <ele>1169</ele>
        <time>2020-09-12T09:15:13.000Z</time>
      </trkpt>
      <trkpt lat="44.02293" lon="6.84809">
        <ele>1168</ele>
        <time>2020-09-12T09:15:14.000Z</time>
      </trkpt>
      <trkpt lat="44.02296" lon="6.8481">
        <ele>1167</ele>
        <time>2020-09-12T09:15:15.000Z</time>
      </trkpt>
      <trkpt lat="44.023" lon="6.84812">
        <ele>1166</ele>
        <time>2020-09-12T09:15:16.000Z</time>
      </trkpt>
      <trkpt lat="44.02307" lon="6.84819">
        <ele>1164.5999755859</ele>
        <time>2020-09-12T09:15:18.000Z</time>
      </trkpt>
      <trkpt lat="44.02311" lon="6.84823">
        <ele>1163.8000488281</ele>
        <time>2020-09-12T09:15:19.000Z</time>
      </trkpt>
      <trkpt lat="44.02315" lon="6.84827">
        <ele>1162.8000488281</ele>
        <time>2020-09-12T09:15:20.000Z</time>
      </trkpt>
      <trkpt lat="44.02319" lon="6.84832">
        <ele>1161.8000488281</ele>
        <time>2020-09-12T09:15:21.000Z</time>
      </trkpt>
      <trkpt lat="44.02323" lon="6.84837">
        <ele>1161.1999511719</ele>
        <time>2020-09-12T09:15:22.000Z</time>
      </trkpt>
      <trkpt lat="44.02327" lon="6.84843">
        <ele>1160</ele>
        <time>2020-09-12T09:15:23.000Z</time>
      </trkpt>
      <trkpt lat="44.02331" lon="6.84848">
        <ele>1159.1999511719</ele>
        <time>2020-09-12T09:15:24.000Z</time>
      </trkpt>
      <trkpt lat="44.02336" lon="6.84854">
        <ele>1158</ele>
        <time>2020-09-12T09:15:25.000Z</time>
      </trkpt>
      <trkpt lat="44.02343" lon="6.84867">
        <ele>1155.8000488281</ele>
        <time>2020-09-12T09:15:27.000Z</time>
      </trkpt>
      <trkpt lat="44.02346" lon="6.84873">
        <ele>1154.1999511719</ele>
        <time>2020-09-12T09:15:28.000Z</time>
      </trkpt>
      <trkpt lat="44.02348" lon="6.8488">
        <ele>1152.5999755859</ele>
        <time>2020-09-12T09:15:29.000Z</time>
      </trkpt>
      <trkpt lat="44.02351" lon="6.84884">
        <ele>1151</ele>
        <time>2020-09-12T09:15:30.000Z</time>
      </trkpt>
      <trkpt lat="44.02352" lon="6.84889">
        <ele>1149.4000244141</ele>
        <time>2020-09-12T09:15:31.000Z</time>
      </trkpt>
      <trkpt lat="44.02353" lon="6.84892">
        <ele>1148</ele>
        <time>2020-09-12T09:15:32.000Z</time>
      </trkpt>
      <trkpt lat="44.02354" lon="6.84894">
        <ele>1146.8000488281</ele>
        <time>2020-09-12T09:15:33.000Z</time>
      </trkpt>
      <trkpt lat="44.02356" lon="6.84895">
        <ele>1145</ele>
        <time>2020-09-12T09:15:35.000Z</time>
      </trkpt>
      <trkpt lat="44.02359" lon="6.84894">
        <ele>1143.8000488281</ele>
        <time>2020-09-12T09:15:37.000Z</time>
      </trkpt>
      <trkpt lat="44.0236" lon="6.84892">
        <ele>1143.4000244141</ele>
        <time>2020-09-12T09:15:38.000Z</time>
      </trkpt>
      <trkpt lat="44.02364" lon="6.84887">
        <ele>1142.8000488281</ele>
        <time>2020-09-12T09:15:43.000Z</time>
      </trkpt>
      <trkpt lat="44.02365" lon="6.84886">
        <ele>1142.8000488281</ele>
        <time>2020-09-12T09:15:44.000Z</time>
      </trkpt>
      <trkpt lat="44.02369" lon="6.84877">
        <ele>1141.8000488281</ele>
        <time>2020-09-12T09:15:48.000Z</time>
      </trkpt>
      <trkpt lat="44.02369" lon="6.84872">
        <ele>1141.4000244141</ele>
        <time>2020-09-12T09:15:49.000Z</time>
      </trkpt>
      <trkpt lat="44.02369" lon="6.84854">
        <ele>1140.4000244141</ele>
        <time>2020-09-12T09:15:52.000Z</time>
      </trkpt>
      <trkpt lat="44.02369" lon="6.84848">
        <ele>1140</ele>
        <time>2020-09-12T09:15:53.000Z</time>
      </trkpt>
      <trkpt lat="44.02371" lon="6.84838">
        <ele>1139.1999511719</ele>
        <time>2020-09-12T09:15:55.000Z</time>
      </trkpt>
      <trkpt lat="44.02373" lon="6.84829">
        <ele>1138.5999755859</ele>
        <time>2020-09-12T09:15:57.000Z</time>
      </trkpt>
      <trkpt lat="44.02374" lon="6.84821">
        <ele>1138.1999511719</ele>
        <time>2020-09-12T09:15:59.000Z</time>
      </trkpt>
      <trkpt lat="44.02378" lon="6.8481">
        <ele>1137.5999755859</ele>
        <time>2020-09-12T09:16:02.000Z</time>
      </trkpt>
      <trkpt lat="44.02378" lon="6.84803">
        <ele>1137.4000244141</ele>
        <time>2020-09-12T09:16:04.000Z</time>
      </trkpt>
      <trkpt lat="44.02377" lon="6.84803">
        <ele>1137</ele>
        <time>2020-09-12T09:16:05.000Z</time>
      </trkpt>
      <trkpt lat="44.02372" lon="6.84799">
        <ele>1135.4000244141</ele>
        <time>2020-09-12T09:16:08.000Z</time>
      </trkpt>
      <trkpt lat="44.02374" lon="6.84791">
        <ele>1134.1999511719</ele>
        <time>2020-09-12T09:16:10.000Z</time>
      </trkpt>
      <trkpt lat="44.02374" lon="6.84787">
        <ele>1133.4000244141</ele>
        <time>2020-09-12T09:16:11.000Z</time>
      </trkpt>
      <trkpt lat="44.02376" lon="6.84782">
        <ele>1132.8000488281</ele>
        <time>2020-09-12T09:16:12.000Z</time>
      </trkpt>
      <trkpt lat="44.02376" lon="6.84778">
        <ele>1132.1999511719</ele>
        <time>2020-09-12T09:16:13.000Z</time>
      </trkpt>
      <trkpt lat="44.02374" lon="6.84776">
        <ele>1131.8000488281</ele>
        <time>2020-09-12T09:16:14.000Z</time>
      </trkpt>
      <trkpt lat="44.02372" lon="6.84775">
        <ele>1131</ele>
        <time>2020-09-12T09:16:15.000Z</time>
      </trkpt>
      <trkpt lat="44.02371" lon="6.84775">
        <ele>1130.4000244141</ele>
        <time>2020-09-12T09:16:16.000Z</time>
      </trkpt>
      <trkpt lat="44.02369" lon="6.84774">
        <ele>1128.8000488281</ele>
        <time>2020-09-12T09:16:18.000Z</time>
      </trkpt>
      <trkpt lat="44.02369" lon="6.84772">
        <ele>1128.4000244141</ele>
        <time>2020-09-12T09:16:19.000Z</time>
      </trkpt>
      <trkpt lat="44.02368" lon="6.84767">
        <ele>1127.5999755859</ele>
        <time>2020-09-12T09:16:20.000Z</time>
      </trkpt>
      <trkpt lat="44.02367" lon="6.84758">
        <ele>1126.4000244141</ele>
        <time>2020-09-12T09:16:22.000Z</time>
      </trkpt>
      <trkpt lat="44.02368" lon="6.84754">
        <ele>1125.5999755859</ele>
        <time>2020-09-12T09:16:23.000Z</time>
      </trkpt>
      <trkpt lat="44.02368" lon="6.84749">
        <ele>1124.8000488281</ele>
        <time>2020-09-12T09:16:24.000Z</time>
      </trkpt>
      <trkpt lat="44.02366" lon="6.84738">
        <ele>1123.4000244141</ele>
        <time>2020-09-12T09:16:26.000Z</time>
      </trkpt>
      <trkpt lat="44.02362" lon="6.84729">
        <ele>1121.8000488281</ele>
        <time>2020-09-12T09:16:28.000Z</time>
      </trkpt>
      <trkpt lat="44.02364" lon="6.84721">
        <ele>1120.4000244141</ele>
        <time>2020-09-12T09:16:30.000Z</time>
      </trkpt>
      <trkpt lat="44.02364" lon="6.84712">
        <ele>1119</ele>
        <time>2020-09-12T09:16:32.000Z</time>
      </trkpt>
      <trkpt lat="44.02363" lon="6.84703">
        <ele>1118.1999511719</ele>
        <time>2020-09-12T09:16:34.000Z</time>
      </trkpt>
      <trkpt lat="44.02364" lon="6.84698">
        <ele>1118</ele>
        <time>2020-09-12T09:16:35.000Z</time>
      </trkpt>
      <trkpt lat="44.02369" lon="6.84685">
        <ele>1116.8000488281</ele>
        <time>2020-09-12T09:16:38.000Z</time>
      </trkpt>
      <trkpt lat="44.02371" lon="6.84678">
        <ele>1115</ele>
        <time>2020-09-12T09:16:40.000Z</time>
      </trkpt>
      <trkpt lat="44.02374" lon="6.84671">
        <ele>1112.8000488281</ele>
        <time>2020-09-12T09:16:42.000Z</time>
      </trkpt>
      <trkpt lat="44.02373" lon="6.84669">
        <ele>1112</ele>
        <time>2020-09-12T09:16:43.000Z</time>
      </trkpt>
      <trkpt lat="44.02371" lon="6.84669">
        <ele>1111</ele>
        <time>2020-09-12T09:16:44.000Z</time>
      </trkpt>
      <trkpt lat="44.02366" lon="6.84669">
        <ele>1109.5999755859</ele>
        <time>2020-09-12T09:16:46.000Z</time>
      </trkpt>
      <trkpt lat="44.02364" lon="6.84665">
        <ele>1108.5999755859</ele>
        <time>2020-09-12T09:16:48.000Z</time>
      </trkpt>
      <trkpt lat="44.02364" lon="6.84661">
        <ele>1108.1999511719</ele>
        <time>2020-09-12T09:16:49.000Z</time>
      </trkpt>
      <trkpt lat="44.02366" lon="6.84656">
        <ele>1107.4000244141</ele>
        <time>2020-09-12T09:16:50.000Z</time>
      </trkpt>
      <trkpt lat="44.02368" lon="6.84646">
        <ele>1106.4000244141</ele>
        <time>2020-09-12T09:16:52.000Z</time>
      </trkpt>
      <trkpt lat="44.02369" lon="6.84641">
        <ele>1105.8000488281</ele>
        <time>2020-09-12T09:16:53.000Z</time>
      </trkpt>
      <trkpt lat="44.0237" lon="6.84636">
        <ele>1105.1999511719</ele>
        <time>2020-09-12T09:16:54.000Z</time>
      </trkpt>
      <trkpt lat="44.02371" lon="6.84627">
        <ele>1104</ele>
        <time>2020-09-12T09:16:56.000Z</time>
      </trkpt>
      <trkpt lat="44.0237" lon="6.84622">
        <ele>1103</ele>
        <time>2020-09-12T09:16:57.000Z</time>
      </trkpt>
      <trkpt lat="44.0237" lon="6.84618">
        <ele>1102</ele>
        <time>2020-09-12T09:16:58.000Z</time>
      </trkpt>
      <trkpt lat="44.0237" lon="6.84614">
        <ele>1100.8000488281</ele>
        <time>2020-09-12T09:16:59.000Z</time>
      </trkpt>
      <trkpt lat="44.02371" lon="6.84609">
        <ele>1099.8000488281</ele>
        <time>2020-09-12T09:17:00.000Z</time>
      </trkpt>
      <trkpt lat="44.02373" lon="6.84606">
        <ele>1099</ele>
        <time>2020-09-12T09:17:01.000Z</time>
      </trkpt>
      <trkpt lat="44.02375" lon="6.84601">
        <ele>1098.1999511719</ele>
        <time>2020-09-12T09:17:02.000Z</time>
      </trkpt>
      <trkpt lat="44.02377" lon="6.8459">
        <ele>1096.5999755859</ele>
        <time>2020-09-12T09:17:04.000Z</time>
      </trkpt>
      <trkpt lat="44.02378" lon="6.84584">
        <ele>1096</ele>
        <time>2020-09-12T09:17:05.000Z</time>
      </trkpt>
      <trkpt lat="44.0238" lon="6.84579">
        <ele>1095.1999511719</ele>
        <time>2020-09-12T09:17:06.000Z</time>
      </trkpt>
      <trkpt lat="44.02381" lon="6.84572">
        <ele>1093.8000488281</ele>
        <time>2020-09-12T09:17:08.000Z</time>
      </trkpt>
      <trkpt lat="44.0238" lon="6.8457">
        <ele>1093.1999511719</ele>
        <time>2020-09-12T09:17:09.000Z</time>
      </trkpt>
      <trkpt lat="44.0238" lon="6.84569">
        <ele>1092.5999755859</ele>
        <time>2020-09-12T09:17:10.000Z</time>
      </trkpt>
      <trkpt lat="44.02376" lon="6.84568">
        <ele>1091.4000244141</ele>
        <time>2020-09-12T09:17:12.000Z</time>
      </trkpt>
      <trkpt lat="44.02374" lon="6.84568">
        <ele>1090.8000488281</ele>
        <time>2020-09-12T09:17:13.000Z</time>
      </trkpt>
      <trkpt lat="44.02373" lon="6.84567">
        <ele>1090.1999511719</ele>
        <time>2020-09-12T09:17:14.000Z</time>
      </trkpt>
      <trkpt lat="44.02373" lon="6.8456">
        <ele>1088.8000488281</ele>
        <time>2020-09-12T09:17:16.000Z</time>
      </trkpt>
      <trkpt lat="44.02375" lon="6.84556">
        <ele>1088.1999511719</ele>
        <time>2020-09-12T09:17:17.000Z</time>
      </trkpt>
      <trkpt lat="44.02376" lon="6.84552">
        <ele>1087.5999755859</ele>
        <time>2020-09-12T09:17:18.000Z</time>
      </trkpt>
      <trkpt lat="44.02379" lon="6.84545">
        <ele>1086.4000244141</ele>
        <time>2020-09-12T09:17:20.000Z</time>
      </trkpt>
      <trkpt lat="44.0238" lon="6.84541">
        <ele>1085.8000488281</ele>
        <time>2020-09-12T09:17:21.000Z</time>
      </trkpt>
      <trkpt lat="44.02381" lon="6.84538">
        <ele>1085.1999511719</ele>
        <time>2020-09-12T09:17:22.000Z</time>
      </trkpt>
      <trkpt lat="44.02385" lon="6.84531">
        <ele>1084</ele>
        <time>2020-09-12T09:17:24.000Z</time>
      </trkpt>
      <trkpt lat="44.02389" lon="6.84524">
        <ele>1082.8000488281</ele>
        <time>2020-09-12T09:17:26.000Z</time>
      </trkpt>
      <trkpt lat="44.02395" lon="6.84514">
        <ele>1081.4000244141</ele>
        <time>2020-09-12T09:17:29.000Z</time>
      </trkpt>
      <trkpt lat="44.02398" lon="6.84509">
        <ele>1080.5999755859</ele>
        <time>2020-09-12T09:17:31.000Z</time>
      </trkpt>
      <trkpt lat="44.02399" lon="6.84507">
        <ele>1080</ele>
        <time>2020-09-12T09:17:32.000Z</time>
      </trkpt>
      <trkpt lat="44.02396" lon="6.84506">
        <ele>1078.8000488281</ele>
        <time>2020-09-12T09:17:34.000Z</time>
      </trkpt>
      <trkpt lat="44.02387" lon="6.84507">
        <ele>1077.4000244141</ele>
        <time>2020-09-12T09:17:37.000Z</time>
      </trkpt>
      <trkpt lat="44.02385" lon="6.84508">
        <ele>1077.1999511719</ele>
        <time>2020-09-12T09:17:38.000Z</time>
      </trkpt>
      <trkpt lat="44.02381" lon="6.84507">
        <ele>1076.1999511719</ele>
        <time>2020-09-12T09:17:40.000Z</time>
      </trkpt>
      <trkpt lat="44.02381" lon="6.845">
        <ele>1074.8000488281</ele>
        <time>2020-09-12T09:17:42.000Z</time>
      </trkpt>
      <trkpt lat="44.02383" lon="6.84493">
        <ele>1073.5999755859</ele>
        <time>2020-09-12T09:17:44.000Z</time>
      </trkpt>
      <trkpt lat="44.02384" lon="6.84491">
        <ele>1072.4000244141</ele>
        <time>2020-09-12T09:17:46.000Z</time>
      </trkpt>
      <trkpt lat="44.02385" lon="6.8449">
        <ele>1070.8000488281</ele>
        <time>2020-09-12T09:17:49.000Z</time>
      </trkpt>
      <trkpt lat="44.02384" lon="6.84491">
        <ele>1070</ele>
        <time>2020-09-12T09:17:56.000Z</time>
      </trkpt>
      <trkpt lat="44.02384" lon="6.84491">
        <ele>1069.8000488281</ele>
        <time>2020-09-12T09:17:58.000Z</time>
      </trkpt>
      <trkpt lat="44.02385" lon="6.84491">
        <ele>1069.5999755859</ele>
        <time>2020-09-12T09:18:07.000Z</time>
      </trkpt>
      <trkpt lat="44.02386" lon="6.84488">
        <ele>1069.5999755859</ele>
        <time>2020-09-12T09:18:15.000Z</time>
      </trkpt>
      <trkpt lat="44.02386" lon="6.84486">
        <ele>1069.5999755859</ele>
        <time>2020-09-12T09:18:16.000Z</time>
      </trkpt>
      <trkpt lat="44.0239" lon="6.84468">
        <ele>1069.4000244141</ele>
        <time>2020-09-12T09:18:19.000Z</time>
      </trkpt>
      <trkpt lat="44.02393" lon="6.84449">
        <ele>1068.8000488281</ele>
        <time>2020-09-12T09:18:22.000Z</time>
      </trkpt>
      <trkpt lat="44.02399" lon="6.84428">
        <ele>1067.4000244141</ele>
        <time>2020-09-12T09:18:25.000Z</time>
      </trkpt>
      <trkpt lat="44.024" lon="6.84421">
        <ele>1066.8000488281</ele>
        <time>2020-09-12T09:18:26.000Z</time>
      </trkpt>
      <trkpt lat="44.02401" lon="6.84414">
        <ele>1066.1999511719</ele>
        <time>2020-09-12T09:18:27.000Z</time>
      </trkpt>
      <trkpt lat="44.02404" lon="6.84405">
        <ele>1064.8000488281</ele>
        <time>2020-09-12T09:18:29.000Z</time>
      </trkpt>
      <trkpt lat="44.02408" lon="6.84399">
        <ele>1063</ele>
        <time>2020-09-12T09:18:31.000Z</time>
      </trkpt>
      <trkpt lat="44.02408" lon="6.84394">
        <ele>1062.1999511719</ele>
        <time>2020-09-12T09:18:32.000Z</time>
      </trkpt>
      <trkpt lat="44.02407" lon="6.84389">
        <ele>1061.1999511719</ele>
        <time>2020-09-12T09:18:33.000Z</time>
      </trkpt>
      <trkpt lat="44.02407" lon="6.84384">
        <ele>1060.5999755859</ele>
        <time>2020-09-12T09:18:34.000Z</time>
      </trkpt>
      <trkpt lat="44.02407" lon="6.84377">
        <ele>1059.8000488281</ele>
        <time>2020-09-12T09:18:35.000Z</time>
      </trkpt>
      <trkpt lat="44.02408" lon="6.84366">
        <ele>1058</ele>
        <time>2020-09-12T09:18:37.000Z</time>
      </trkpt>
      <trkpt lat="44.02409" lon="6.8436">
        <ele>1057</ele>
        <time>2020-09-12T09:18:38.000Z</time>
      </trkpt>
      <trkpt lat="44.02411" lon="6.84355">
        <ele>1056.4000244141</ele>
        <time>2020-09-12T09:18:39.000Z</time>
      </trkpt>
      <trkpt lat="44.02411" lon="6.84349">
        <ele>1055.1999511719</ele>
        <time>2020-09-12T09:18:40.000Z</time>
      </trkpt>
      <trkpt lat="44.02412" lon="6.84345">
        <ele>1054</ele>
        <time>2020-09-12T09:18:41.000Z</time>
      </trkpt>
      <trkpt lat="44.02413" lon="6.84342">
        <ele>1052.8000488281</ele>
        <time>2020-09-12T09:18:42.000Z</time>
      </trkpt>
      <trkpt lat="44.02413" lon="6.8434">
        <ele>1051.4000244141</ele>
        <time>2020-09-12T09:18:43.000Z</time>
      </trkpt>
      <trkpt lat="44.02415" lon="6.84337">
        <ele>1050.1999511719</ele>
        <time>2020-09-12T09:18:44.000Z</time>
      </trkpt>
      <trkpt lat="44.02417" lon="6.84334">
        <ele>1049.1999511719</ele>
        <time>2020-09-12T09:18:45.000Z</time>
      </trkpt>
      <trkpt lat="44.0242" lon="6.84331">
        <ele>1048.4000244141</ele>
        <time>2020-09-12T09:18:46.000Z</time>
      </trkpt>
      <trkpt lat="44.02422" lon="6.84327">
        <ele>1047.5999755859</ele>
        <time>2020-09-12T09:18:47.000Z</time>
      </trkpt>
      <trkpt lat="44.02423" lon="6.84324">
        <ele>1047</ele>
        <time>2020-09-12T09:18:48.000Z</time>
      </trkpt>
      <trkpt lat="44.02422" lon="6.8432">
        <ele>1046.4000244141</ele>
        <time>2020-09-12T09:18:49.000Z</time>
      </trkpt>
      <trkpt lat="44.0242" lon="6.84317">
        <ele>1045.8000488281</ele>
        <time>2020-09-12T09:18:50.000Z</time>
      </trkpt>
      <trkpt lat="44.02418" lon="6.84315">
        <ele>1045.1999511719</ele>
        <time>2020-09-12T09:18:51.000Z</time>
      </trkpt>
      <trkpt lat="44.0241" lon="6.84317">
        <ele>1043.8000488281</ele>
        <time>2020-09-12T09:18:53.000Z</time>
      </trkpt>
      <trkpt lat="44.02405" lon="6.84317">
        <ele>1042.8000488281</ele>
        <time>2020-09-12T09:18:55.000Z</time>
      </trkpt>
      <trkpt lat="44.024" lon="6.84313">
        <ele>1041.8000488281</ele>
        <time>2020-09-12T09:18:57.000Z</time>
      </trkpt>
      <trkpt lat="44.02402" lon="6.84302">
        <ele>1040.5999755859</ele>
        <time>2020-09-12T09:18:59.000Z</time>
      </trkpt>
      <trkpt lat="44.02407" lon="6.8429">
        <ele>1039.4000244141</ele>
        <time>2020-09-12T09:19:01.000Z</time>
      </trkpt>
      <trkpt lat="44.02413" lon="6.84282">
        <ele>1037.5999755859</ele>
        <time>2020-09-12T09:19:03.000Z</time>
      </trkpt>
      <trkpt lat="44.02415" lon="6.8428">
        <ele>1036.5999755859</ele>
        <time>2020-09-12T09:19:04.000Z</time>
      </trkpt>
      <trkpt lat="44.02417" lon="6.84278">
        <ele>1035.4000244141</ele>
        <time>2020-09-12T09:19:05.000Z</time>
      </trkpt>
      <trkpt lat="44.02419" lon="6.84276">
        <ele>1034.4000244141</ele>
        <time>2020-09-12T09:19:06.000Z</time>
      </trkpt>
      <trkpt lat="44.0242" lon="6.84276">
        <ele>1033.5999755859</ele>
        <time>2020-09-12T09:19:07.000Z</time>
      </trkpt>
      <trkpt lat="44.02419" lon="6.84276">
        <ele>1033</ele>
        <time>2020-09-12T09:19:08.000Z</time>
      </trkpt>
      <trkpt lat="44.0242" lon="6.84275">
        <ele>1031.8000488281</ele>
        <time>2020-09-12T09:19:10.000Z</time>
      </trkpt>
      <trkpt lat="44.0242" lon="6.84275">
        <ele>1031</ele>
        <time>2020-09-12T09:19:13.000Z</time>
      </trkpt>
      <trkpt lat="44.0242" lon="6.84275">
        <ele>1031</ele>
        <time>2020-09-12T09:19:34.000Z</time>
      </trkpt>
      <trkpt lat="44.0242" lon="6.84275">
        <ele>1030.5999755859</ele>
        <time>2020-09-12T09:19:36.000Z</time>
      </trkpt>
      <trkpt lat="44.0242" lon="6.84271">
        <ele>1030.4000244141</ele>
        <time>2020-09-12T09:19:48.000Z</time>
      </trkpt>
      <trkpt lat="44.02414" lon="6.84263">
        <ele>1030.5999755859</ele>
        <time>2020-09-12T09:19:52.000Z</time>
      </trkpt>
      <trkpt lat="44.02409" lon="6.84254">
        <ele>1029.8000488281</ele>
        <time>2020-09-12T09:19:55.000Z</time>
      </trkpt>
      <trkpt lat="44.02411" lon="6.8425">
        <ele>1029.4000244141</ele>
        <time>2020-09-12T09:19:56.000Z</time>
      </trkpt>
      <trkpt lat="44.02416" lon="6.84242">
        <ele>1027.8000488281</ele>
        <time>2020-09-12T09:19:58.000Z</time>
      </trkpt>
      <trkpt lat="44.02422" lon="6.84233">
        <ele>1026.1999511719</ele>
        <time>2020-09-12T09:20:00.000Z</time>
      </trkpt>
      <trkpt lat="44.02426" lon="6.84226">
        <ele>1024.4000244141</ele>
        <time>2020-09-12T09:20:02.000Z</time>
      </trkpt>
      <trkpt lat="44.02428" lon="6.84225">
        <ele>1023.4000244141</ele>
        <time>2020-09-12T09:20:03.000Z</time>
      </trkpt>
      <trkpt lat="44.02429" lon="6.84224">
        <ele>1022.5999755859</ele>
        <time>2020-09-12T09:20:04.000Z</time>
      </trkpt>
      <trkpt lat="44.02432" lon="6.84223">
        <ele>1021.5999755859</ele>
        <time>2020-09-12T09:20:05.000Z</time>
      </trkpt>
      <trkpt lat="44.02439" lon="6.84221">
        <ele>1020</ele>
        <time>2020-09-12T09:20:07.000Z</time>
      </trkpt>
      <trkpt lat="44.02443" lon="6.84222">
        <ele>1019.200012207</ele>
        <time>2020-09-12T09:20:08.000Z</time>
      </trkpt>
      <trkpt lat="44.02447" lon="6.84224">
        <ele>1018.799987793</ele>
        <time>2020-09-12T09:20:09.000Z</time>
      </trkpt>
      <trkpt lat="44.02456" lon="6.84228">
        <ele>1017.799987793</ele>
        <time>2020-09-12T09:20:11.000Z</time>
      </trkpt>
      <trkpt lat="44.02459" lon="6.84229">
        <ele>1017.4000244141</ele>
        <time>2020-09-12T09:20:12.000Z</time>
      </trkpt>
      <trkpt lat="44.02461" lon="6.8423">
        <ele>1017</ele>
        <time>2020-09-12T09:20:13.000Z</time>
      </trkpt>
      <trkpt lat="44.02464" lon="6.84231">
        <ele>1016.799987793</ele>
        <time>2020-09-12T09:20:18.000Z</time>
      </trkpt>
      <trkpt lat="44.02464" lon="6.84232">
        <ele>1016.4000244141</ele>
        <time>2020-09-12T09:20:28.000Z</time>
      </trkpt>
      <trkpt lat="44.02464" lon="6.84232">
        <ele>1016.200012207</ele>
        <time>2020-09-12T09:20:36.000Z</time>
      </trkpt>
      <trkpt lat="44.02465" lon="6.84232">
        <ele>1016.200012207</ele>
        <time>2020-09-12T09:20:57.000Z</time>
      </trkpt>
      <trkpt lat="44.02466" lon="6.84231">
        <ele>1016.200012207</ele>
        <time>2020-09-12T09:21:24.000Z</time>
      </trkpt>
      <trkpt lat="44.02466" lon="6.84229">
        <ele>1016.200012207</ele>
        <time>2020-09-12T09:21:48.000Z</time>
      </trkpt>
      <trkpt lat="44.02467" lon="6.84231">
        <ele>1016.200012207</ele>
        <time>2020-09-12T09:21:56.000Z</time>
      </trkpt>
      <trkpt lat="44.02467" lon="6.84232">
        <ele>1016</ele>
        <time>2020-09-12T09:22:02.000Z</time>
      </trkpt>
      <trkpt lat="44.02467" lon="6.84234">
        <ele>1016</ele>
        <time>2020-09-12T09:22:08.000Z</time>
      </trkpt>
      <trkpt lat="44.02467" lon="6.84234">
        <ele>1015.5999755859</ele>
        <time>2020-09-12T09:22:11.000Z</time>
      </trkpt>
      <trkpt lat="44.02466" lon="6.84235">
        <ele>1015.4000244141</ele>
        <time>2020-09-12T09:22:29.000Z</time>
      </trkpt>
      <trkpt lat="44.02467" lon="6.84236">
        <ele>1015.5999755859</ele>
        <time>2020-09-12T09:22:46.000Z</time>
      </trkpt>
      <trkpt lat="44.02467" lon="6.84235">
        <ele>1015.5999755859</ele>
        <time>2020-09-12T09:22:57.000Z</time>
      </trkpt>
      <trkpt lat="44.02466" lon="6.84235">
        <ele>1015.799987793</ele>
        <time>2020-09-12T09:23:03.000Z</time>
      </trkpt>
      <trkpt lat="44.02466" lon="6.84234">
        <ele>1015.799987793</ele>
        <time>2020-09-12T09:23:11.000Z</time>
      </trkpt>
      <trkpt lat="44.02464" lon="6.84231">
        <ele>1015.5999755859</ele>
        <time>2020-09-12T09:23:26.000Z</time>
      </trkpt>
      <trkpt lat="44.02464" lon="6.8423">
        <ele>1015.799987793</ele>
        <time>2020-09-12T09:23:37.000Z</time>
      </trkpt>
      <trkpt lat="44.02463" lon="6.84231">
        <ele>1015.799987793</ele>
        <time>2020-09-12T09:23:46.000Z</time>
      </trkpt>
      <trkpt lat="44.02462" lon="6.84232">
        <ele>1016.200012207</ele>
        <time>2020-09-12T09:24:02.000Z</time>
      </trkpt>
      <trkpt lat="44.02462" lon="6.84232">
        <ele>1016</ele>
        <time>2020-09-12T09:24:16.000Z</time>
      </trkpt>
      <trkpt lat="44.02461" lon="6.84231">
        <ele>1016.200012207</ele>
        <time>2020-09-12T09:24:29.000Z</time>
      </trkpt>
      <trkpt lat="44.02461" lon="6.84232">
        <ele>1016.200012207</ele>
        <time>2020-09-12T09:24:37.000Z</time>
      </trkpt>
      <trkpt lat="44.02461" lon="6.84232">
        <ele>1016</ele>
        <time>2020-09-12T09:24:51.000Z</time>
      </trkpt>
      <trkpt lat="44.02462" lon="6.84233">
        <ele>1016</ele>
        <time>2020-09-12T09:25:01.000Z</time>
      </trkpt>
      <trkpt lat="44.02462" lon="6.84232">
        <ele>1016.200012207</ele>
        <time>2020-09-12T09:25:09.000Z</time>
      </trkpt>
      <trkpt lat="44.02462" lon="6.84232">
        <ele>1016.200012207</ele>
        <time>2020-09-12T09:25:17.000Z</time>
      </trkpt>
      <trkpt lat="44.02463" lon="6.84232">
        <ele>1016.4000244141</ele>
        <time>2020-09-12T09:25:24.000Z</time>
      </trkpt>
      <trkpt lat="44.0247" lon="6.84231">
        <ele>1016.4000244141</ele>
        <time>2020-09-12T09:25:30.000Z</time>
      </trkpt>
      <trkpt lat="44.02483" lon="6.84227">
        <ele>1016.4000244141</ele>
        <time>2020-09-12T09:25:36.000Z</time>
      </trkpt>
      <trkpt lat="44.02485" lon="6.84226">
        <ele>1016.4000244141</ele>
        <time>2020-09-12T09:25:40.000Z</time>
      </trkpt>
      <trkpt lat="44.02485" lon="6.84225">
        <ele>1015.200012207</ele>
        <time>2020-09-12T09:25:49.000Z</time>
      </trkpt>
      <trkpt lat="44.02484" lon="6.84225">
        <ele>1015</ele>
        <time>2020-09-12T09:26:09.000Z</time>
      </trkpt>
      <trkpt lat="44.02484" lon="6.84225">
        <ele>1014.5999755859</ele>
        <time>2020-09-12T09:26:25.000Z</time>
      </trkpt>
      <trkpt lat="44.02484" lon="6.84225">
        <ele>1014.5999755859</ele>
        <time>2020-09-12T09:26:26.000Z</time>
      </trkpt>
      <trkpt lat="44.02485" lon="6.84226">
        <ele>1014.799987793</ele>
        <time>2020-09-12T09:26:43.000Z</time>
      </trkpt>
      <trkpt lat="44.02485" lon="6.84227">
        <ele>1014.799987793</ele>
        <time>2020-09-12T09:27:02.000Z</time>
      </trkpt>
      <trkpt lat="44.02486" lon="6.84227">
        <ele>1014.5999755859</ele>
        <time>2020-09-12T09:27:28.000Z</time>
      </trkpt>
      <trkpt lat="44.02493" lon="6.84221">
        <ele>1015</ele>
        <time>2020-09-12T09:27:32.000Z</time>
      </trkpt>
      <trkpt lat="44.0251" lon="6.84209">
        <ele>1014.799987793</ele>
        <time>2020-09-12T09:27:36.000Z</time>
      </trkpt>
      <trkpt lat="44.02534" lon="6.84192">
        <ele>1013.5999755859</ele>
        <time>2020-09-12T09:27:40.000Z</time>
      </trkpt>
      <trkpt lat="44.0254" lon="6.84188">
        <ele>1013.4000244141</ele>
        <time>2020-09-12T09:27:41.000Z</time>
      </trkpt>
      <trkpt lat="44.02544" lon="6.84185">
        <ele>1013</ele>
        <time>2020-09-12T09:27:42.000Z</time>
      </trkpt>
      <trkpt lat="44.02555" lon="6.84168">
        <ele>1011.799987793</ele>
        <time>2020-09-12T09:27:44.000Z</time>
      </trkpt>
      <trkpt lat="44.02562" lon="6.84148">
        <ele>1010</ele>
        <time>2020-09-12T09:27:46.000Z</time>
      </trkpt>
      <trkpt lat="44.02563" lon="6.84138">
        <ele>1008.799987793</ele>
        <time>2020-09-12T09:27:47.000Z</time>
      </trkpt>
      <trkpt lat="44.02565" lon="6.84126">
        <ele>1007.799987793</ele>
        <time>2020-09-12T09:27:48.000Z</time>
      </trkpt>
      <trkpt lat="44.02569" lon="6.84107">
        <ele>1006.4000244141</ele>
        <time>2020-09-12T09:27:50.000Z</time>
      </trkpt>
      <trkpt lat="44.02572" lon="6.84099">
        <ele>1006</ele>
        <time>2020-09-12T09:27:51.000Z</time>
      </trkpt>
      <trkpt lat="44.02575" lon="6.84093">
        <ele>1005.4000244141</ele>
        <time>2020-09-12T09:27:52.000Z</time>
      </trkpt>
      <trkpt lat="44.02584" lon="6.84084">
        <ele>1004</ele>
        <time>2020-09-12T09:27:54.000Z</time>
      </trkpt>
      <trkpt lat="44.02589" lon="6.8408">
        <ele>1003.200012207</ele>
        <time>2020-09-12T09:27:55.000Z</time>
      </trkpt>
      <trkpt lat="44.02594" lon="6.84077">
        <ele>1002.5999755859</ele>
        <time>2020-09-12T09:27:56.000Z</time>
      </trkpt>
      <trkpt lat="44.02599" lon="6.84074">
        <ele>1002.200012207</ele>
        <time>2020-09-12T09:27:57.000Z</time>
      </trkpt>
      <trkpt lat="44.02607" lon="6.84067">
        <ele>1001.799987793</ele>
        <time>2020-09-12T09:27:59.000Z</time>
      </trkpt>
      <trkpt lat="44.02611" lon="6.84063">
        <ele>1001.799987793</ele>
        <time>2020-09-12T09:28:00.000Z</time>
      </trkpt>
      <trkpt lat="44.02615" lon="6.84059">
        <ele>1001.5999755859</ele>
        <time>2020-09-12T09:28:01.000Z</time>
      </trkpt>
      <trkpt lat="44.02624" lon="6.84052">
        <ele>1001.200012207</ele>
        <time>2020-09-12T09:28:03.000Z</time>
      </trkpt>
      <trkpt lat="44.02633" lon="6.84049">
        <ele>1000.799987793</ele>
        <time>2020-09-12T09:28:05.000Z</time>
      </trkpt>
      <trkpt lat="44.02638" lon="6.84047">
        <ele>1000.5999755859</ele>
        <time>2020-09-12T09:28:06.000Z</time>
      </trkpt>
      <trkpt lat="44.02642" lon="6.84045">
        <ele>1000.4000244141</ele>
        <time>2020-09-12T09:28:07.000Z</time>
      </trkpt>
      <trkpt lat="44.02652" lon="6.84035">
        <ele>1000.4000244141</ele>
        <time>2020-09-12T09:28:10.000Z</time>
      </trkpt>
      <trkpt lat="44.02661" lon="6.84014">
        <ele>999.79998779297</ele>
        <time>2020-09-12T09:28:13.000Z</time>
      </trkpt>
      <trkpt lat="44.02665" lon="6.84009">
        <ele>999.59997558594</ele>
        <time>2020-09-12T09:28:14.000Z</time>
      </trkpt>
      <trkpt lat="44.02682" lon="6.84004">
        <ele>998.59997558594</ele>
        <time>2020-09-12T09:28:17.000Z</time>
      </trkpt>
      <trkpt lat="44.02687" lon="6.84004">
        <ele>998.20001220703</ele>
        <time>2020-09-12T09:28:18.000Z</time>
      </trkpt>
      <trkpt lat="44.02696" lon="6.84005">
        <ele>997.79998779297</ele>
        <time>2020-09-12T09:28:20.000Z</time>
      </trkpt>
      <trkpt lat="44.02704" lon="6.84006">
        <ele>997.59997558594</ele>
        <time>2020-09-12T09:28:22.000Z</time>
      </trkpt>
      <trkpt lat="44.02724" lon="6.84003">
        <ele>997.20001220703</ele>
        <time>2020-09-12T09:28:26.000Z</time>
      </trkpt>
      <trkpt lat="44.02729" lon="6.84">
        <ele>997</ele>
        <time>2020-09-12T09:28:27.000Z</time>
      </trkpt>
      <trkpt lat="44.02749" lon="6.83991">
        <ele>995.79998779297</ele>
        <time>2020-09-12T09:28:31.000Z</time>
      </trkpt>
      <trkpt lat="44.02754" lon="6.83987">
        <ele>995.59997558594</ele>
        <time>2020-09-12T09:28:32.000Z</time>
      </trkpt>
      <trkpt lat="44.02761" lon="6.83976">
        <ele>994.79998779297</ele>
        <time>2020-09-12T09:28:34.000Z</time>
      </trkpt>
      <trkpt lat="44.0277" lon="6.83955">
        <ele>993.59997558594</ele>
        <time>2020-09-12T09:28:37.000Z</time>
      </trkpt>
      <trkpt lat="44.02773" lon="6.83948">
        <ele>993.20001220703</ele>
        <time>2020-09-12T09:28:38.000Z</time>
      </trkpt>
      <trkpt lat="44.02775" lon="6.83942">
        <ele>992.79998779297</ele>
        <time>2020-09-12T09:28:39.000Z</time>
      </trkpt>
      <trkpt lat="44.02776" lon="6.83937">
        <ele>992.40002441406</ele>
        <time>2020-09-12T09:28:40.000Z</time>
      </trkpt>
      <trkpt lat="44.02775" lon="6.83929">
        <ele>991.20001220703</ele>
        <time>2020-09-12T09:28:42.000Z</time>
      </trkpt>
      <trkpt lat="44.02769" lon="6.83933">
        <ele>990</ele>
        <time>2020-09-12T09:28:44.000Z</time>
      </trkpt>
      <trkpt lat="44.02766" lon="6.83937">
        <ele>989.40002441406</ele>
        <time>2020-09-12T09:28:45.000Z</time>
      </trkpt>
      <trkpt lat="44.02761" lon="6.83941">
        <ele>989</ele>
        <time>2020-09-12T09:28:46.000Z</time>
      </trkpt>
      <trkpt lat="44.02751" lon="6.83948">
        <ele>988.20001220703</ele>
        <time>2020-09-12T09:28:48.000Z</time>
      </trkpt>
      <trkpt lat="44.02744" lon="6.83948">
        <ele>988</ele>
        <time>2020-09-12T09:28:49.000Z</time>
      </trkpt>
      <trkpt lat="44.02724" lon="6.83941">
        <ele>986.79998779297</ele>
        <time>2020-09-12T09:28:52.000Z</time>
      </trkpt>
      <trkpt lat="44.02713" lon="6.83933">
        <ele>986.20001220703</ele>
        <time>2020-09-12T09:28:54.000Z</time>
      </trkpt>
      <trkpt lat="44.0271" lon="6.83929">
        <ele>985.59997558594</ele>
        <time>2020-09-12T09:28:55.000Z</time>
      </trkpt>
      <trkpt lat="44.02708" lon="6.83925">
        <ele>985</ele>
        <time>2020-09-12T09:28:56.000Z</time>
      </trkpt>
      <trkpt lat="44.02708" lon="6.83923">
        <ele>984.59997558594</ele>
        <time>2020-09-12T09:28:57.000Z</time>
      </trkpt>
      <trkpt lat="44.02709" lon="6.83914">
        <ele>983.59997558594</ele>
        <time>2020-09-12T09:28:59.000Z</time>
      </trkpt>
      <trkpt lat="44.02713" lon="6.83907">
        <ele>982</ele>
        <time>2020-09-12T09:29:02.000Z</time>
      </trkpt>
      <trkpt lat="44.02714" lon="6.83905">
        <ele>981.20001220703</ele>
        <time>2020-09-12T09:29:03.000Z</time>
      </trkpt>
      <trkpt lat="44.02717" lon="6.83902">
        <ele>980.40002441406</ele>
        <time>2020-09-12T09:29:04.000Z</time>
      </trkpt>
      <trkpt lat="44.02721" lon="6.83898">
        <ele>979.79998779297</ele>
        <time>2020-09-12T09:29:05.000Z</time>
      </trkpt>
      <trkpt lat="44.02727" lon="6.83894">
        <ele>979</ele>
        <time>2020-09-12T09:29:06.000Z</time>
      </trkpt>
      <trkpt lat="44.02739" lon="6.83883">
        <ele>977.79998779297</ele>
        <time>2020-09-12T09:29:08.000Z</time>
      </trkpt>
      <trkpt lat="44.02751" lon="6.83868">
        <ele>976.59997558594</ele>
        <time>2020-09-12T09:29:10.000Z</time>
      </trkpt>
      <trkpt lat="44.02756" lon="6.8386">
        <ele>976</ele>
        <time>2020-09-12T09:29:11.000Z</time>
      </trkpt>
      <trkpt lat="44.0276" lon="6.83853">
        <ele>975.40002441406</ele>
        <time>2020-09-12T09:29:12.000Z</time>
      </trkpt>
      <trkpt lat="44.02767" lon="6.8384">
        <ele>973.59997558594</ele>
        <time>2020-09-12T09:29:14.000Z</time>
      </trkpt>
      <trkpt lat="44.02769" lon="6.83835">
        <ele>972.59997558594</ele>
        <time>2020-09-12T09:29:15.000Z</time>
      </trkpt>
      <trkpt lat="44.0277" lon="6.83829">
        <ele>971.59997558594</ele>
        <time>2020-09-12T09:29:16.000Z</time>
      </trkpt>
      <trkpt lat="44.0277" lon="6.83822">
        <ele>970.40002441406</ele>
        <time>2020-09-12T09:29:17.000Z</time>
      </trkpt>
      <trkpt lat="44.02771" lon="6.83817">
        <ele>969.59997558594</ele>
        <time>2020-09-12T09:29:18.000Z</time>
      </trkpt>
      <trkpt lat="44.02773" lon="6.83813">
        <ele>969</ele>
        <time>2020-09-12T09:29:19.000Z</time>
      </trkpt>
      <trkpt lat="44.02776" lon="6.83809">
        <ele>968.40002441406</ele>
        <time>2020-09-12T09:29:21.000Z</time>
      </trkpt>
      <trkpt lat="44.0278" lon="6.83801">
        <ele>968.40002441406</ele>
        <time>2020-09-12T09:29:26.000Z</time>
      </trkpt>
      <trkpt lat="44.02781" lon="6.83799">
        <ele>968.59997558594</ele>
        <time>2020-09-12T09:29:27.000Z</time>
      </trkpt>
      <trkpt lat="44.02787" lon="6.83785">
        <ele>969.79998779297</ele>
        <time>2020-09-12T09:29:34.000Z</time>
      </trkpt>
      <trkpt lat="44.02788" lon="6.83781">
        <ele>970</ele>
        <time>2020-09-12T09:29:36.000Z</time>
      </trkpt>
      <trkpt lat="44.02792" lon="6.83774">
        <ele>971.20001220703</ele>
        <time>2020-09-12T09:29:40.000Z</time>
      </trkpt>
      <trkpt lat="44.02795" lon="6.83769">
        <ele>972</ele>
        <time>2020-09-12T09:29:43.000Z</time>
      </trkpt>
      <trkpt lat="44.02797" lon="6.83767">
        <ele>972.20001220703</ele>
        <time>2020-09-12T09:29:44.000Z</time>
      </trkpt>
      <trkpt lat="44.02805" lon="6.83762">
        <ele>973.40002441406</ele>
        <time>2020-09-12T09:29:49.000Z</time>
      </trkpt>
      <trkpt lat="44.02809" lon="6.83761">
        <ele>974</ele>
        <time>2020-09-12T09:29:51.000Z</time>
      </trkpt>
      <trkpt lat="44.02812" lon="6.83761">
        <ele>974.59997558594</ele>
        <time>2020-09-12T09:29:53.000Z</time>
      </trkpt>
      <trkpt lat="44.02821" lon="6.83765">
        <ele>975.59997558594</ele>
        <time>2020-09-12T09:29:58.000Z</time>
      </trkpt>
      <trkpt lat="44.02822" lon="6.83765">
        <ele>975.59997558594</ele>
        <time>2020-09-12T09:29:59.000Z</time>
      </trkpt>
      <trkpt lat="44.02835" lon="6.83769">
        <ele>976.79998779297</ele>
        <time>2020-09-12T09:30:06.000Z</time>
      </trkpt>
      <trkpt lat="44.02839" lon="6.83769">
        <ele>977.20001220703</ele>
        <time>2020-09-12T09:30:08.000Z</time>
      </trkpt>
      <trkpt lat="44.02846" lon="6.83769">
        <ele>978</ele>
        <time>2020-09-12T09:30:12.000Z</time>
      </trkpt>
      <trkpt lat="44.02853" lon="6.8377">
        <ele>978.79998779297</ele>
        <time>2020-09-12T09:30:16.000Z</time>
      </trkpt>
      <trkpt lat="44.02855" lon="6.8377">
        <ele>979</ele>
        <time>2020-09-12T09:30:17.000Z</time>
      </trkpt>
      <trkpt lat="44.02864" lon="6.83773">
        <ele>980</ele>
        <time>2020-09-12T09:30:23.000Z</time>
      </trkpt>
      <trkpt lat="44.02866" lon="6.83773">
        <ele>980.40002441406</ele>
        <time>2020-09-12T09:30:24.000Z</time>
      </trkpt>
      <trkpt lat="44.0287" lon="6.83775">
        <ele>981.40002441406</ele>
        <time>2020-09-12T09:30:27.000Z</time>
      </trkpt>
      <trkpt lat="44.02877" lon="6.83778">
        <ele>982.40002441406</ele>
        <time>2020-09-12T09:30:32.000Z</time>
      </trkpt>
      <trkpt lat="44.02878" lon="6.83778">
        <ele>982.59997558594</ele>
        <time>2020-09-12T09:30:33.000Z</time>
      </trkpt>
      <trkpt lat="44.02885" lon="6.83781">
        <ele>983.40002441406</ele>
        <time>2020-09-12T09:30:38.000Z</time>
      </trkpt>
      <trkpt lat="44.02888" lon="6.83781">
        <ele>983.79998779297</ele>
        <time>2020-09-12T09:30:40.000Z</time>
      </trkpt>
      <trkpt lat="44.02894" lon="6.83784">
        <ele>984.59997558594</ele>
        <time>2020-09-12T09:30:44.000Z</time>
      </trkpt>
      <trkpt lat="44.02899" lon="6.83787">
        <ele>985.40002441406</ele>
        <time>2020-09-12T09:30:48.000Z</time>
      </trkpt>
      <trkpt lat="44.02902" lon="6.83788">
        <ele>985.79998779297</ele>
        <time>2020-09-12T09:30:50.000Z</time>
      </trkpt>
      <trkpt lat="44.02908" lon="6.83792">
        <ele>986.59997558594</ele>
        <time>2020-09-12T09:30:55.000Z</time>
      </trkpt>
      <trkpt lat="44.0291" lon="6.83792">
        <ele>986.79998779297</ele>
        <time>2020-09-12T09:30:56.000Z</time>
      </trkpt>
      <trkpt lat="44.02918" lon="6.83793">
        <ele>987.79998779297</ele>
        <time>2020-09-12T09:31:02.000Z</time>
      </trkpt>
      <trkpt lat="44.02919" lon="6.83793">
        <ele>988</ele>
        <time>2020-09-12T09:31:03.000Z</time>
      </trkpt>
      <trkpt lat="44.02925" lon="6.83793">
        <ele>988.79998779297</ele>
        <time>2020-09-12T09:31:07.000Z</time>
      </trkpt>
      <trkpt lat="44.02933" lon="6.83795">
        <ele>989.79998779297</ele>
        <time>2020-09-12T09:31:13.000Z</time>
      </trkpt>
      <trkpt lat="44.02934" lon="6.83795">
        <ele>990</ele>
        <time>2020-09-12T09:31:14.000Z</time>
      </trkpt>
      <trkpt lat="44.02938" lon="6.83795">
        <ele>991.20001220703</ele>
        <time>2020-09-12T09:31:18.000Z</time>
      </trkpt>
      <trkpt lat="44.02942" lon="6.83796">
        <ele>992.40002441406</ele>
        <time>2020-09-12T09:31:22.000Z</time>
      </trkpt>
      <trkpt lat="44.02947" lon="6.83797">
        <ele>993.59997558594</ele>
        <time>2020-09-12T09:31:27.000Z</time>
      </trkpt>
      <trkpt lat="44.0295" lon="6.83798">
        <ele>994</ele>
        <time>2020-09-12T09:31:30.000Z</time>
      </trkpt>
      <trkpt lat="44.02954" lon="6.83798">
        <ele>994.59997558594</ele>
        <time>2020-09-12T09:31:34.000Z</time>
      </trkpt>
      <trkpt lat="44.02961" lon="6.83798">
        <ele>995.79998779297</ele>
        <time>2020-09-12T09:31:39.000Z</time>
      </trkpt>
      <trkpt lat="44.02965" lon="6.83798">
        <ele>996.59997558594</ele>
        <time>2020-09-12T09:31:43.000Z</time>
      </trkpt>
      <trkpt lat="44.02966" lon="6.83797">
        <ele>997</ele>
        <time>2020-09-12T09:31:45.000Z</time>
      </trkpt>
      <trkpt lat="44.02967" lon="6.83796">
        <ele>997.20001220703</ele>
        <time>2020-09-12T09:31:46.000Z</time>
      </trkpt>
      <trkpt lat="44.02971" lon="6.83795">
        <ele>998</ele>
        <time>2020-09-12T09:31:50.000Z</time>
      </trkpt>
      <trkpt lat="44.02972" lon="6.83795">
        <ele>998.20001220703</ele>
        <time>2020-09-12T09:31:51.000Z</time>
      </trkpt>
      <trkpt lat="44.02974" lon="6.83794">
        <ele>998.59997558594</ele>
        <time>2020-09-12T09:31:53.000Z</time>
      </trkpt>
      <trkpt lat="44.02976" lon="6.83794">
        <ele>999.20001220703</ele>
        <time>2020-09-12T09:31:55.000Z</time>
      </trkpt>
      <trkpt lat="44.02981" lon="6.83795">
        <ele>1000.200012207</ele>
        <time>2020-09-12T09:32:00.000Z</time>
      </trkpt>
      <trkpt lat="44.02982" lon="6.83796">
        <ele>1000.4000244141</ele>
        <time>2020-09-12T09:32:01.000Z</time>
      </trkpt>
      <trkpt lat="44.02984" lon="6.83797">
        <ele>1000.799987793</ele>
        <time>2020-09-12T09:32:03.000Z</time>
      </trkpt>
      <trkpt lat="44.02988" lon="6.83801">
        <ele>1001.4000244141</ele>
        <time>2020-09-12T09:32:07.000Z</time>
      </trkpt>
      <trkpt lat="44.02992" lon="6.83806">
        <ele>1002.200012207</ele>
        <time>2020-09-12T09:32:12.000Z</time>
      </trkpt>
      <trkpt lat="44.02992" lon="6.83808">
        <ele>1002.5999755859</ele>
        <time>2020-09-12T09:32:14.000Z</time>
      </trkpt>
      <trkpt lat="44.02996" lon="6.83815">
        <ele>1003.4000244141</ele>
        <time>2020-09-12T09:32:20.000Z</time>
      </trkpt>
      <trkpt lat="44.02996" lon="6.83816">
        <ele>1003.5999755859</ele>
        <time>2020-09-12T09:32:21.000Z</time>
      </trkpt>
      <trkpt lat="44.03001" lon="6.83823">
        <ele>1004.5999755859</ele>
        <time>2020-09-12T09:32:28.000Z</time>
      </trkpt>
      <trkpt lat="44.03006" lon="6.8383">
        <ele>1005.5999755859</ele>
        <time>2020-09-12T09:32:34.000Z</time>
      </trkpt>
      <trkpt lat="44.03007" lon="6.83835">
        <ele>1006</ele>
        <time>2020-09-12T09:32:37.000Z</time>
      </trkpt>
      <trkpt lat="44.03009" lon="6.83845">
        <ele>1006.5999755859</ele>
        <time>2020-09-12T09:32:42.000Z</time>
      </trkpt>
      <trkpt lat="44.03011" lon="6.83853">
        <ele>1007</ele>
        <time>2020-09-12T09:32:45.000Z</time>
      </trkpt>
      <trkpt lat="44.03008" lon="6.83878">
        <ele>1007.200012207</ele>
        <time>2020-09-12T09:32:50.000Z</time>
      </trkpt>
      <trkpt lat="44.03005" lon="6.839">
        <ele>1006.799987793</ele>
        <time>2020-09-12T09:32:55.000Z</time>
      </trkpt>
      <trkpt lat="44.03005" lon="6.83916">
        <ele>1007.4000244141</ele>
        <time>2020-09-12T09:33:01.000Z</time>
      </trkpt>
      <trkpt lat="44.03004" lon="6.83919">
        <ele>1007.799987793</ele>
        <time>2020-09-12T09:33:03.000Z</time>
      </trkpt>
      <trkpt lat="44.03005" lon="6.83924">
        <ele>1008.799987793</ele>
        <time>2020-09-12T09:33:06.000Z</time>
      </trkpt>
      <trkpt lat="44.03005" lon="6.83925">
        <ele>1009.200012207</ele>
        <time>2020-09-12T09:33:07.000Z</time>
      </trkpt>
      <trkpt lat="44.03005" lon="6.83926">
        <ele>1009.5999755859</ele>
        <time>2020-09-12T09:33:08.000Z</time>
      </trkpt>
      <trkpt lat="44.03006" lon="6.83929">
        <ele>1010</ele>
        <time>2020-09-12T09:33:10.000Z</time>
      </trkpt>
      <trkpt lat="44.03007" lon="6.83935">
        <ele>1011</ele>
        <time>2020-09-12T09:33:14.000Z</time>
      </trkpt>
      <trkpt lat="44.03008" lon="6.83936">
        <ele>1011.200012207</ele>
        <time>2020-09-12T09:33:15.000Z</time>
      </trkpt>
      <trkpt lat="44.03009" lon="6.83942">
        <ele>1012.200012207</ele>
        <time>2020-09-12T09:33:20.000Z</time>
      </trkpt>
      <trkpt lat="44.0301" lon="6.83944">
        <ele>1012.4000244141</ele>
        <time>2020-09-12T09:33:21.000Z</time>
      </trkpt>
      <trkpt lat="44.0301" lon="6.83947">
        <ele>1012.799987793</ele>
        <time>2020-09-12T09:33:23.000Z</time>
      </trkpt>
      <trkpt lat="44.03011" lon="6.83951">
        <ele>1013.4000244141</ele>
        <time>2020-09-12T09:33:26.000Z</time>
      </trkpt>
      <trkpt lat="44.03013" lon="6.83955">
        <ele>1014.200012207</ele>
        <time>2020-09-12T09:33:29.000Z</time>
      </trkpt>
      <trkpt lat="44.03014" lon="6.83957">
        <ele>1014.5999755859</ele>
        <time>2020-09-12T09:33:31.000Z</time>
      </trkpt>
      <trkpt lat="44.03016" lon="6.83967">
        <ele>1015.4000244141</ele>
        <time>2020-09-12T09:33:36.000Z</time>
      </trkpt>
      <trkpt lat="44.03016" lon="6.8397">
        <ele>1015.5999755859</ele>
        <time>2020-09-12T09:33:38.000Z</time>
      </trkpt>
      <trkpt lat="44.03018" lon="6.8398">
        <ele>1016.799987793</ele>
        <time>2020-09-12T09:33:43.000Z</time>
      </trkpt>
      <trkpt lat="44.03018" lon="6.84">
        <ele>1017.799987793</ele>
        <time>2020-09-12T09:33:51.000Z</time>
      </trkpt>
      <trkpt lat="44.03017" lon="6.84002">
        <ele>1017.799987793</ele>
        <time>2020-09-12T09:33:52.000Z</time>
      </trkpt>
      <trkpt lat="44.03018" lon="6.84017">
        <ele>1018.5999755859</ele>
        <time>2020-09-12T09:33:58.000Z</time>
      </trkpt>
      <trkpt lat="44.03018" lon="6.84019">
        <ele>1018.799987793</ele>
        <time>2020-09-12T09:33:59.000Z</time>
      </trkpt>
      <trkpt lat="44.03022" lon="6.84033">
        <ele>1019.4000244141</ele>
        <time>2020-09-12T09:34:04.000Z</time>
      </trkpt>
      <trkpt lat="44.03025" lon="6.84041">
        <ele>1019.799987793</ele>
        <time>2020-09-12T09:34:07.000Z</time>
      </trkpt>
      <trkpt lat="44.03029" lon="6.84049">
        <ele>1020.799987793</ele>
        <time>2020-09-12T09:34:12.000Z</time>
      </trkpt>
      <trkpt lat="44.0303" lon="6.8405">
        <ele>1021</ele>
        <time>2020-09-12T09:34:13.000Z</time>
      </trkpt>
      <trkpt lat="44.03033" lon="6.84055">
        <ele>1022.200012207</ele>
        <time>2020-09-12T09:34:17.000Z</time>
      </trkpt>
      <trkpt lat="44.03035" lon="6.84059">
        <ele>1023.4000244141</ele>
        <time>2020-09-12T09:34:21.000Z</time>
      </trkpt>
      <trkpt lat="44.03036" lon="6.8406">
        <ele>1023.5999755859</ele>
        <time>2020-09-12T09:34:22.000Z</time>
      </trkpt>
      <trkpt lat="44.03041" lon="6.84065">
        <ele>1024.5999755859</ele>
        <time>2020-09-12T09:34:26.000Z</time>
      </trkpt>
      <trkpt lat="44.03045" lon="6.84069">
        <ele>1025.1999511719</ele>
        <time>2020-09-12T09:34:30.000Z</time>
      </trkpt>
      <trkpt lat="44.03047" lon="6.84071">
        <ele>1025.5999755859</ele>
        <time>2020-09-12T09:34:32.000Z</time>
      </trkpt>
      <trkpt lat="44.03049" lon="6.84075">
        <ele>1026.8000488281</ele>
        <time>2020-09-12T09:34:36.000Z</time>
      </trkpt>
      <trkpt lat="44.03051" lon="6.84079">
        <ele>1027.5999755859</ele>
        <time>2020-09-12T09:34:39.000Z</time>
      </trkpt>
      <trkpt lat="44.03052" lon="6.8408">
        <ele>1027.5999755859</ele>
        <time>2020-09-12T09:34:40.000Z</time>
      </trkpt>
      <trkpt lat="44.03053" lon="6.84083">
        <ele>1028</ele>
        <time>2020-09-12T09:34:42.000Z</time>
      </trkpt>
      <trkpt lat="44.03054" lon="6.84091">
        <ele>1028.4000244141</ele>
        <time>2020-09-12T09:34:46.000Z</time>
      </trkpt>
      <trkpt lat="44.03054" lon="6.84099">
        <ele>1029</ele>
        <time>2020-09-12T09:34:50.000Z</time>
      </trkpt>
      <trkpt lat="44.03054" lon="6.84105">
        <ele>1029.4000244141</ele>
        <time>2020-09-12T09:34:53.000Z</time>
      </trkpt>
      <trkpt lat="44.03056" lon="6.84115">
        <ele>1030</ele>
        <time>2020-09-12T09:34:57.000Z</time>
      </trkpt>
      <trkpt lat="44.03058" lon="6.84122">
        <ele>1030.4000244141</ele>
        <time>2020-09-12T09:35:00.000Z</time>
      </trkpt>
      <trkpt lat="44.03062" lon="6.84146">
        <ele>1031</ele>
        <time>2020-09-12T09:35:08.000Z</time>
      </trkpt>
      <trkpt lat="44.03061" lon="6.84148">
        <ele>1031.1999511719</ele>
        <time>2020-09-12T09:35:09.000Z</time>
      </trkpt>
      <trkpt lat="44.0306" lon="6.84156">
        <ele>1032.1999511719</ele>
        <time>2020-09-12T09:35:13.000Z</time>
      </trkpt>
      <trkpt lat="44.0306" lon="6.84157">
        <ele>1032.5999755859</ele>
        <time>2020-09-12T09:35:14.000Z</time>
      </trkpt>
      <trkpt lat="44.03059" lon="6.84165">
        <ele>1033.4000244141</ele>
        <time>2020-09-12T09:35:18.000Z</time>
      </trkpt>
      <trkpt lat="44.03058" lon="6.84174">
        <ele>1034</ele>
        <time>2020-09-12T09:35:22.000Z</time>
      </trkpt>
      <trkpt lat="44.03056" lon="6.84187">
        <ele>1034.4000244141</ele>
        <time>2020-09-12T09:35:27.000Z</time>
      </trkpt>
      <trkpt lat="44.03056" lon="6.84193">
        <ele>1034.5999755859</ele>
        <time>2020-09-12T09:35:29.000Z</time>
      </trkpt>
      <trkpt lat="44.03053" lon="6.84208">
        <ele>1035</ele>
        <time>2020-09-12T09:35:34.000Z</time>
      </trkpt>
      <trkpt lat="44.03053" lon="6.84212">
        <ele>1035</ele>
        <time>2020-09-12T09:35:35.000Z</time>
      </trkpt>
      <trkpt lat="44.03053" lon="6.84239">
        <ele>1035</ele>
        <time>2020-09-12T09:35:41.000Z</time>
      </trkpt>
      <trkpt lat="44.03055" lon="6.84253">
        <ele>1035.8000488281</ele>
        <time>2020-09-12T09:35:46.000Z</time>
      </trkpt>
      <trkpt lat="44.03055" lon="6.84255">
        <ele>1036.1999511719</ele>
        <time>2020-09-12T09:35:47.000Z</time>
      </trkpt>
      <trkpt lat="44.03056" lon="6.8426">
        <ele>1037</ele>
        <time>2020-09-12T09:35:49.000Z</time>
      </trkpt>
      <trkpt lat="44.03057" lon="6.84265">
        <ele>1038</ele>
        <time>2020-09-12T09:35:52.000Z</time>
      </trkpt>
      <trkpt lat="44.03059" lon="6.84272">
        <ele>1039</ele>
        <time>2020-09-12T09:35:56.000Z</time>
      </trkpt>
      <trkpt lat="44.03059" lon="6.84274">
        <ele>1039.4000244141</ele>
        <time>2020-09-12T09:35:57.000Z</time>
      </trkpt>
      <trkpt lat="44.03061" lon="6.84284">
        <ele>1040.4000244141</ele>
        <time>2020-09-12T09:36:03.000Z</time>
      </trkpt>
      <trkpt lat="44.03062" lon="6.84296">
        <ele>1041.5999755859</ele>
        <time>2020-09-12T09:36:09.000Z</time>
      </trkpt>
      <trkpt lat="44.03062" lon="6.843">
        <ele>1042</ele>
        <time>2020-09-12T09:36:11.000Z</time>
      </trkpt>
      <trkpt lat="44.03065" lon="6.84316">
        <ele>1042.5999755859</ele>
        <time>2020-09-12T09:36:18.000Z</time>
      </trkpt>
      <trkpt lat="44.03066" lon="6.84319">
        <ele>1042.8000488281</ele>
        <time>2020-09-12T09:36:19.000Z</time>
      </trkpt>
      <trkpt lat="44.03075" lon="6.84343">
        <ele>1043.4000244141</ele>
        <time>2020-09-12T09:36:26.000Z</time>
      </trkpt>
      <trkpt lat="44.03081" lon="6.8437">
        <ele>1042.5999755859</ele>
        <time>2020-09-12T09:36:31.000Z</time>
      </trkpt>
      <trkpt lat="44.03076" lon="6.84387">
        <ele>1042.8000488281</ele>
        <time>2020-09-12T09:36:35.000Z</time>
      </trkpt>
      <trkpt lat="44.03068" lon="6.84402">
        <ele>1043.8000488281</ele>
        <time>2020-09-12T09:36:40.000Z</time>
      </trkpt>
      <trkpt lat="44.03067" lon="6.84406">
        <ele>1044.1999511719</ele>
        <time>2020-09-12T09:36:41.000Z</time>
      </trkpt>
      <trkpt lat="44.03062" lon="6.84416">
        <ele>1045</ele>
        <time>2020-09-12T09:36:44.000Z</time>
      </trkpt>
      <trkpt lat="44.03059" lon="6.84427">
        <ele>1045.5999755859</ele>
        <time>2020-09-12T09:36:47.000Z</time>
      </trkpt>
      <trkpt lat="44.03055" lon="6.84447">
        <ele>1046</ele>
        <time>2020-09-12T09:36:52.000Z</time>
      </trkpt>
      <trkpt lat="44.03054" lon="6.84456">
        <ele>1046.1999511719</ele>
        <time>2020-09-12T09:36:54.000Z</time>
      </trkpt>
      <trkpt lat="44.03052" lon="6.84481">
        <ele>1047</ele>
        <time>2020-09-12T09:37:01.000Z</time>
      </trkpt>
      <trkpt lat="44.03052" lon="6.84483">
        <ele>1047.1999511719</ele>
        <time>2020-09-12T09:37:02.000Z</time>
      </trkpt>
      <trkpt lat="44.0305" lon="6.84495">
        <ele>1048.1999511719</ele>
        <time>2020-09-12T09:37:07.000Z</time>
      </trkpt>
      <trkpt lat="44.03049" lon="6.84497">
        <ele>1048.4000244141</ele>
        <time>2020-09-12T09:37:08.000Z</time>
      </trkpt>
      <trkpt lat="44.03049" lon="6.84505">
        <ele>1049.1999511719</ele>
        <time>2020-09-12T09:37:12.000Z</time>
      </trkpt>
      <trkpt lat="44.03049" lon="6.84512">
        <ele>1050.5999755859</ele>
        <time>2020-09-12T09:37:16.000Z</time>
      </trkpt>
      <trkpt lat="44.0305" lon="6.84518">
        <ele>1051.8000488281</ele>
        <time>2020-09-12T09:37:20.000Z</time>
      </trkpt>
      <trkpt lat="44.0305" lon="6.84523">
        <ele>1052.4000244141</ele>
        <time>2020-09-12T09:37:23.000Z</time>
      </trkpt>
      <trkpt lat="44.0305" lon="6.84526">
        <ele>1053</ele>
        <time>2020-09-12T09:37:25.000Z</time>
      </trkpt>
      <trkpt lat="44.0305" lon="6.84536">
        <ele>1054</ele>
        <time>2020-09-12T09:37:30.000Z</time>
      </trkpt>
      <trkpt lat="44.0305" lon="6.84543">
        <ele>1055</ele>
        <time>2020-09-12T09:37:34.000Z</time>
      </trkpt>
      <trkpt lat="44.0305" lon="6.84548">
        <ele>1055.5999755859</ele>
        <time>2020-09-12T09:37:36.000Z</time>
      </trkpt>
      <trkpt lat="44.0305" lon="6.84552">
        <ele>1056</ele>
        <time>2020-09-12T09:37:38.000Z</time>
      </trkpt>
      <trkpt lat="44.03048" lon="6.8456">
        <ele>1057</ele>
        <time>2020-09-12T09:37:43.000Z</time>
      </trkpt>
      <trkpt lat="44.03047" lon="6.84562">
        <ele>1057.1999511719</ele>
        <time>2020-09-12T09:37:44.000Z</time>
      </trkpt>
      <trkpt lat="44.03039" lon="6.84571">
        <ele>1057.8000488281</ele>
        <time>2020-09-12T09:37:49.000Z</time>
      </trkpt>
      <trkpt lat="44.0303" lon="6.84582">
        <ele>1058.1999511719</ele>
        <time>2020-09-12T09:37:54.000Z</time>
      </trkpt>
      <trkpt lat="44.03026" lon="6.84587">
        <ele>1058.1999511719</ele>
        <time>2020-09-12T09:37:56.000Z</time>
      </trkpt>
      <trkpt lat="44.03023" lon="6.8459">
        <ele>1058.4000244141</ele>
        <time>2020-09-12T09:37:58.000Z</time>
      </trkpt>
      <trkpt lat="44.03016" lon="6.84598">
        <ele>1058.5999755859</ele>
        <time>2020-09-12T09:38:01.000Z</time>
      </trkpt>
      <trkpt lat="44.03007" lon="6.84605">
        <ele>1059.1999511719</ele>
        <time>2020-09-12T09:38:05.000Z</time>
      </trkpt>
      <trkpt lat="44.03" lon="6.8461">
        <ele>1059.8000488281</ele>
        <time>2020-09-12T09:38:08.000Z</time>
      </trkpt>
      <trkpt lat="44.02993" lon="6.84615">
        <ele>1060.1999511719</ele>
        <time>2020-09-12T09:38:11.000Z</time>
      </trkpt>
      <trkpt lat="44.02982" lon="6.84623">
        <ele>1061</ele>
        <time>2020-09-12T09:38:15.000Z</time>
      </trkpt>
      <trkpt lat="44.02981" lon="6.84624">
        <ele>1061.1999511719</ele>
        <time>2020-09-12T09:38:16.000Z</time>
      </trkpt>
      <trkpt lat="44.02972" lon="6.84633">
        <ele>1062.4000244141</ele>
        <time>2020-09-12T09:38:20.000Z</time>
      </trkpt>
      <trkpt lat="44.02956" lon="6.84649">
        <ele>1062.5999755859</ele>
        <time>2020-09-12T09:38:25.000Z</time>
      </trkpt>
      <trkpt lat="44.02953" lon="6.84655">
        <ele>1062.5999755859</ele>
        <time>2020-09-12T09:38:26.000Z</time>
      </trkpt>
      <trkpt lat="44.0294" lon="6.84679">
        <ele>1062</ele>
        <time>2020-09-12T09:38:30.000Z</time>
      </trkpt>
      <trkpt lat="44.02934" lon="6.84698">
        <ele>1061.4000244141</ele>
        <time>2020-09-12T09:38:34.000Z</time>
      </trkpt>
      <trkpt lat="44.02932" lon="6.84719">
        <ele>1063</ele>
        <time>2020-09-12T09:38:40.000Z</time>
      </trkpt>
      <trkpt lat="44.02932" lon="6.84726">
        <ele>1063.5999755859</ele>
        <time>2020-09-12T09:38:42.000Z</time>
      </trkpt>
      <trkpt lat="44.02932" lon="6.84735">
        <ele>1064.5999755859</ele>
        <time>2020-09-12T09:38:45.000Z</time>
      </trkpt>
      <trkpt lat="44.0293" lon="6.84746">
        <ele>1065.5999755859</ele>
        <time>2020-09-12T09:38:48.000Z</time>
      </trkpt>
      <trkpt lat="44.02929" lon="6.84749">
        <ele>1065.8000488281</ele>
        <time>2020-09-12T09:38:49.000Z</time>
      </trkpt>
      <trkpt lat="44.02921" lon="6.84772">
        <ele>1066.1999511719</ele>
        <time>2020-09-12T09:38:54.000Z</time>
      </trkpt>
      <trkpt lat="44.02906" lon="6.84813">
        <ele>1065.5999755859</ele>
        <time>2020-09-12T09:39:00.000Z</time>
      </trkpt>
      <trkpt lat="44.02899" lon="6.84844">
        <ele>1064.5999755859</ele>
        <time>2020-09-12T09:39:04.000Z</time>
      </trkpt>
      <trkpt lat="44.02895" lon="6.84872">
        <ele>1064.4000244141</ele>
        <time>2020-09-12T09:39:09.000Z</time>
      </trkpt>
      <trkpt lat="44.02892" lon="6.84905">
        <ele>1064.8000488281</ele>
        <time>2020-09-12T09:39:14.000Z</time>
      </trkpt>
      <trkpt lat="44.02893" lon="6.84929">
        <ele>1065.8000488281</ele>
        <time>2020-09-12T09:39:19.000Z</time>
      </trkpt>
      <trkpt lat="44.02901" lon="6.84943">
        <ele>1067</ele>
        <time>2020-09-12T09:39:23.000Z</time>
      </trkpt>
      <trkpt lat="44.02912" lon="6.84959">
        <ele>1068</ele>
        <time>2020-09-12T09:39:28.000Z</time>
      </trkpt>
      <trkpt lat="44.02914" lon="6.84961">
        <ele>1068</ele>
        <time>2020-09-12T09:39:29.000Z</time>
      </trkpt>
      <trkpt lat="44.02923" lon="6.84984">
        <ele>1069</ele>
        <time>2020-09-12T09:39:36.000Z</time>
      </trkpt>
      <trkpt lat="44.02929" lon="6.85008">
        <ele>1069.5999755859</ele>
        <time>2020-09-12T09:39:43.000Z</time>
      </trkpt>
      <trkpt lat="44.0293" lon="6.85016">
        <ele>1070</ele>
        <time>2020-09-12T09:39:46.000Z</time>
      </trkpt>
      <trkpt lat="44.02929" lon="6.85023">
        <ele>1070.8000488281</ele>
        <time>2020-09-12T09:39:50.000Z</time>
      </trkpt>
      <trkpt lat="44.02928" lon="6.85027">
        <ele>1071.1999511719</ele>
        <time>2020-09-12T09:39:52.000Z</time>
      </trkpt>
      <trkpt lat="44.02926" lon="6.85036">
        <ele>1072.4000244141</ele>
        <time>2020-09-12T09:39:57.000Z</time>
      </trkpt>
      <trkpt lat="44.02925" lon="6.85042">
        <ele>1073.8000488281</ele>
        <time>2020-09-12T09:40:01.000Z</time>
      </trkpt>
      <trkpt lat="44.02924" lon="6.85047">
        <ele>1074.4000244141</ele>
        <time>2020-09-12T09:40:04.000Z</time>
      </trkpt>
      <trkpt lat="44.02924" lon="6.85051">
        <ele>1075</ele>
        <time>2020-09-12T09:40:07.000Z</time>
      </trkpt>
      <trkpt lat="44.02923" lon="6.85056">
        <ele>1075.5999755859</ele>
        <time>2020-09-12T09:40:11.000Z</time>
      </trkpt>
      <trkpt lat="44.02923" lon="6.85059">
        <ele>1076</ele>
        <time>2020-09-12T09:40:13.000Z</time>
      </trkpt>
      <trkpt lat="44.02921" lon="6.85061">
        <ele>1076.4000244141</ele>
        <time>2020-09-12T09:40:15.000Z</time>
      </trkpt>
      <trkpt lat="44.0292" lon="6.85064">
        <ele>1076.8000488281</ele>
        <time>2020-09-12T09:40:17.000Z</time>
      </trkpt>
      <trkpt lat="44.0292" lon="6.85065">
        <ele>1077</ele>
        <time>2020-09-12T09:40:18.000Z</time>
      </trkpt>
      <trkpt lat="44.0292" lon="6.85068">
        <ele>1077.4000244141</ele>
        <time>2020-09-12T09:40:20.000Z</time>
      </trkpt>
      <trkpt lat="44.02919" lon="6.85073">
        <ele>1077.8000488281</ele>
        <time>2020-09-12T09:40:23.000Z</time>
      </trkpt>
      <trkpt lat="44.02918" lon="6.85074">
        <ele>1078</ele>
        <time>2020-09-12T09:40:24.000Z</time>
      </trkpt>
      <trkpt lat="44.02917" lon="6.85075">
        <ele>1078.1999511719</ele>
        <time>2020-09-12T09:40:27.000Z</time>
      </trkpt>
      <trkpt lat="44.02917" lon="6.85076">
        <ele>1078.1999511719</ele>
        <time>2020-09-12T09:40:32.000Z</time>
      </trkpt>
      <trkpt lat="44.02917" lon="6.85078">
        <ele>1078.4000244141</ele>
        <time>2020-09-12T09:40:38.000Z</time>
      </trkpt>
      <trkpt lat="44.02916" lon="6.85079">
        <ele>1078.4000244141</ele>
        <time>2020-09-12T09:40:51.000Z</time>
      </trkpt>
      <trkpt lat="44.02916" lon="6.85079">
        <ele>1078.1999511719</ele>
        <time>2020-09-12T09:41:01.000Z</time>
      </trkpt>
      <trkpt lat="44.02915" lon="6.8508">
        <ele>1078.4000244141</ele>
        <time>2020-09-12T09:41:11.000Z</time>
      </trkpt>
      <trkpt lat="44.02916" lon="6.85082">
        <ele>1078.4000244141</ele>
        <time>2020-09-12T09:41:21.000Z</time>
      </trkpt>
      <trkpt lat="44.02916" lon="6.85081">
        <ele>1078.1999511719</ele>
        <time>2020-09-12T09:41:32.000Z</time>
      </trkpt>
      <trkpt lat="44.02916" lon="6.85078">
        <ele>1078.1999511719</ele>
        <time>2020-09-12T09:41:37.000Z</time>
      </trkpt>
      <trkpt lat="44.02916" lon="6.85078">
        <ele>1078.1999511719</ele>
        <time>2020-09-12T09:41:45.000Z</time>
      </trkpt>
      <trkpt lat="44.02913" lon="6.85081">
        <ele>1078.4000244141</ele>
        <time>2020-09-12T09:41:52.000Z</time>
      </trkpt>
      <trkpt lat="44.02908" lon="6.85087">
        <ele>1078.5999755859</ele>
        <time>2020-09-12T09:41:56.000Z</time>
      </trkpt>
      <trkpt lat="44.02904" lon="6.85091">
        <ele>1079</ele>
        <time>2020-09-12T09:41:59.000Z</time>
      </trkpt>
      <trkpt lat="44.02901" lon="6.85096">
        <ele>1080</ele>
        <time>2020-09-12T09:42:02.000Z</time>
      </trkpt>
      <trkpt lat="44.02897" lon="6.851">
        <ele>1080.8000488281</ele>
        <time>2020-09-12T09:42:05.000Z</time>
      </trkpt>
      <trkpt lat="44.02896" lon="6.85102">
        <ele>1081.1999511719</ele>
        <time>2020-09-12T09:42:06.000Z</time>
      </trkpt>
      <trkpt lat="44.02891" lon="6.85111">
        <ele>1082.1999511719</ele>
        <time>2020-09-12T09:42:12.000Z</time>
      </trkpt>
      <trkpt lat="44.02889" lon="6.85115">
        <ele>1082.5999755859</ele>
        <time>2020-09-12T09:42:14.000Z</time>
      </trkpt>
      <trkpt lat="44.02887" lon="6.85123">
        <ele>1083.4000244141</ele>
        <time>2020-09-12T09:42:18.000Z</time>
      </trkpt>
      <trkpt lat="44.02886" lon="6.85131">
        <ele>1084.4000244141</ele>
        <time>2020-09-12T09:42:22.000Z</time>
      </trkpt>
      <trkpt lat="44.02886" lon="6.85133">
        <ele>1084.5999755859</ele>
        <time>2020-09-12T09:42:23.000Z</time>
      </trkpt>
      <trkpt lat="44.02883" lon="6.85146">
        <ele>1085.5999755859</ele>
        <time>2020-09-12T09:42:30.000Z</time>
      </trkpt>
      <trkpt lat="44.02881" lon="6.8515">
        <ele>1085.8000488281</ele>
        <time>2020-09-12T09:42:32.000Z</time>
      </trkpt>
      <trkpt lat="44.02877" lon="6.85157">
        <ele>1087</ele>
        <time>2020-09-12T09:42:37.000Z</time>
      </trkpt>
      <trkpt lat="44.02873" lon="6.85161">
        <ele>1088</ele>
        <time>2020-09-12T09:42:41.000Z</time>
      </trkpt>
      <trkpt lat="44.02869" lon="6.85165">
        <ele>1088.4000244141</ele>
        <time>2020-09-12T09:42:44.000Z</time>
      </trkpt>
      <trkpt lat="44.02865" lon="6.85171">
        <ele>1089</ele>
        <time>2020-09-12T09:42:48.000Z</time>
      </trkpt>
      <trkpt lat="44.02863" lon="6.85176">
        <ele>1089.4000244141</ele>
        <time>2020-09-12T09:42:51.000Z</time>
      </trkpt>
      <trkpt lat="44.02861" lon="6.8518">
        <ele>1090</ele>
        <time>2020-09-12T09:42:53.000Z</time>
      </trkpt>
      <trkpt lat="44.02857" lon="6.85188">
        <ele>1091.1999511719</ele>
        <time>2020-09-12T09:42:58.000Z</time>
      </trkpt>
      <trkpt lat="44.02857" lon="6.8519">
        <ele>1091.4000244141</ele>
        <time>2020-09-12T09:42:59.000Z</time>
      </trkpt>
      <trkpt lat="44.02854" lon="6.85196">
        <ele>1092.1999511719</ele>
        <time>2020-09-12T09:43:03.000Z</time>
      </trkpt>
      <trkpt lat="44.02852" lon="6.85203">
        <ele>1092.8000488281</ele>
        <time>2020-09-12T09:43:07.000Z</time>
      </trkpt>
      <trkpt lat="44.02851" lon="6.85208">
        <ele>1093.4000244141</ele>
        <time>2020-09-12T09:43:10.000Z</time>
      </trkpt>
      <trkpt lat="44.02849" lon="6.85217">
        <ele>1094.5999755859</ele>
        <time>2020-09-12T09:43:15.000Z</time>
      </trkpt>
      <trkpt lat="44.02849" lon="6.85227">
        <ele>1095.5999755859</ele>
        <time>2020-09-12T09:43:20.000Z</time>
      </trkpt>
      <trkpt lat="44.0285" lon="6.85233">
        <ele>1096.8000488281</ele>
        <time>2020-09-12T09:43:24.000Z</time>
      </trkpt>
      <trkpt lat="44.02851" lon="6.85241">
        <ele>1098.1999511719</ele>
        <time>2020-09-12T09:43:29.000Z</time>
      </trkpt>
      <trkpt lat="44.02852" lon="6.85248">
        <ele>1099.4000244141</ele>
        <time>2020-09-12T09:43:33.000Z</time>
      </trkpt>
      <trkpt lat="44.02852" lon="6.85257">
        <ele>1100.4000244141</ele>
        <time>2020-09-12T09:43:38.000Z</time>
      </trkpt>
      <trkpt lat="44.02851" lon="6.85266">
        <ele>1101.1999511719</ele>
        <time>2020-09-12T09:43:43.000Z</time>
      </trkpt>
      <trkpt lat="44.02851" lon="6.85269">
        <ele>1101.5999755859</ele>
        <time>2020-09-12T09:43:45.000Z</time>
      </trkpt>
      <trkpt lat="44.02849" lon="6.85277">
        <ele>1102.5999755859</ele>
        <time>2020-09-12T09:43:49.000Z</time>
      </trkpt>
      <trkpt lat="44.02849" lon="6.85279">
        <ele>1102.8000488281</ele>
        <time>2020-09-12T09:43:50.000Z</time>
      </trkpt>
      <trkpt lat="44.02849" lon="6.85289">
        <ele>1103.8000488281</ele>
        <time>2020-09-12T09:43:55.000Z</time>
      </trkpt>
      <trkpt lat="44.0285" lon="6.85295">
        <ele>1104.1999511719</ele>
        <time>2020-09-12T09:43:58.000Z</time>
      </trkpt>
      <trkpt lat="44.02853" lon="6.85302">
        <ele>1104.8000488281</ele>
        <time>2020-09-12T09:44:02.000Z</time>
      </trkpt>
      <trkpt lat="44.02854" lon="6.85306">
        <ele>1105.8000488281</ele>
        <time>2020-09-12T09:44:05.000Z</time>
      </trkpt>
      <trkpt lat="44.02855" lon="6.85308">
        <ele>1106.1999511719</ele>
        <time>2020-09-12T09:44:06.000Z</time>
      </trkpt>
      <trkpt lat="44.02856" lon="6.85313">
        <ele>1107.1999511719</ele>
        <time>2020-09-12T09:44:09.000Z</time>
      </trkpt>
      <trkpt lat="44.02859" lon="6.85318">
        <ele>1108</ele>
        <time>2020-09-12T09:44:12.000Z</time>
      </trkpt>
      <trkpt lat="44.0286" lon="6.85321">
        <ele>1108.4000244141</ele>
        <time>2020-09-12T09:44:14.000Z</time>
      </trkpt>
      <trkpt lat="44.02863" lon="6.85334">
        <ele>1109.4000244141</ele>
        <time>2020-09-12T09:44:21.000Z</time>
      </trkpt>
      <trkpt lat="44.02864" lon="6.85338">
        <ele>1110</ele>
        <time>2020-09-12T09:44:23.000Z</time>
      </trkpt>
      <trkpt lat="44.02864" lon="6.85343">
        <ele>1110.5999755859</ele>
        <time>2020-09-12T09:44:26.000Z</time>
      </trkpt>
      <trkpt lat="44.02864" lon="6.85353">
        <ele>1111.5999755859</ele>
        <time>2020-09-12T09:44:31.000Z</time>
      </trkpt>
      <trkpt lat="44.02864" lon="6.85355">
        <ele>1111.5999755859</ele>
        <time>2020-09-12T09:44:32.000Z</time>
      </trkpt>
      <trkpt lat="44.02861" lon="6.85369">
        <ele>1112.8000488281</ele>
        <time>2020-09-12T09:44:39.000Z</time>
      </trkpt>
      <trkpt lat="44.02859" lon="6.85376">
        <ele>1113.8000488281</ele>
        <time>2020-09-12T09:44:43.000Z</time>
      </trkpt>
      <trkpt lat="44.02854" lon="6.85386">
        <ele>1114.8000488281</ele>
        <time>2020-09-12T09:44:48.000Z</time>
      </trkpt>
      <trkpt lat="44.02852" lon="6.8539">
        <ele>1114.8000488281</ele>
        <time>2020-09-12T09:44:50.000Z</time>
      </trkpt>
      <trkpt lat="44.02847" lon="6.85408">
        <ele>1115.1999511719</ele>
        <time>2020-09-12T09:44:57.000Z</time>
      </trkpt>
      <trkpt lat="44.02847" lon="6.85417">
        <ele>1116</ele>
        <time>2020-09-12T09:45:01.000Z</time>
      </trkpt>
      <trkpt lat="44.02848" lon="6.85424">
        <ele>1117</ele>
        <time>2020-09-12T09:45:05.000Z</time>
      </trkpt>
      <trkpt lat="44.02848" lon="6.85426">
        <ele>1117.1999511719</ele>
        <time>2020-09-12T09:45:06.000Z</time>
      </trkpt>
      <trkpt lat="44.02849" lon="6.85433">
        <ele>1118.4000244141</ele>
        <time>2020-09-12T09:45:10.000Z</time>
      </trkpt>
      <trkpt lat="44.02848" lon="6.85439">
        <ele>1119</ele>
        <time>2020-09-12T09:45:13.000Z</time>
      </trkpt>
      <trkpt lat="44.02847" lon="6.85443">
        <ele>1119.5999755859</ele>
        <time>2020-09-12T09:45:15.000Z</time>
      </trkpt>
      <trkpt lat="44.02846" lon="6.8545">
        <ele>1120.5999755859</ele>
        <time>2020-09-12T09:45:19.000Z</time>
      </trkpt>
      <trkpt lat="44.02845" lon="6.85454">
        <ele>1121</ele>
        <time>2020-09-12T09:45:21.000Z</time>
      </trkpt>
      <trkpt lat="44.02844" lon="6.85459">
        <ele>1121.8000488281</ele>
        <time>2020-09-12T09:45:24.000Z</time>
      </trkpt>
      <trkpt lat="44.02844" lon="6.85469">
        <ele>1122.5999755859</ele>
        <time>2020-09-12T09:45:29.000Z</time>
      </trkpt>
      <trkpt lat="44.02844" lon="6.85471">
        <ele>1122.8000488281</ele>
        <time>2020-09-12T09:45:30.000Z</time>
      </trkpt>
      <trkpt lat="44.0285" lon="6.85484">
        <ele>1124</ele>
        <time>2020-09-12T09:45:37.000Z</time>
      </trkpt>
      <trkpt lat="44.02856" lon="6.8549">
        <ele>1125.1999511719</ele>
        <time>2020-09-12T09:45:42.000Z</time>
      </trkpt>
      <trkpt lat="44.02858" lon="6.85495">
        <ele>1126</ele>
        <time>2020-09-12T09:45:45.000Z</time>
      </trkpt>
      <trkpt lat="44.02861" lon="6.85499">
        <ele>1126.4000244141</ele>
        <time>2020-09-12T09:45:47.000Z</time>
      </trkpt>
      <trkpt lat="44.02866" lon="6.85512">
        <ele>1127.5999755859</ele>
        <time>2020-09-12T09:45:54.000Z</time>
      </trkpt>
      <trkpt lat="44.02867" lon="6.85514">
        <ele>1127.8000488281</ele>
        <time>2020-09-12T09:45:55.000Z</time>
      </trkpt>
      <trkpt lat="44.02869" lon="6.8552">
        <ele>1128.8000488281</ele>
        <time>2020-09-12T09:45:59.000Z</time>
      </trkpt>
      <trkpt lat="44.02869" lon="6.85525">
        <ele>1129.8000488281</ele>
        <time>2020-09-12T09:46:02.000Z</time>
      </trkpt>
      <trkpt lat="44.02869" lon="6.85527">
        <ele>1130</ele>
        <time>2020-09-12T09:46:03.000Z</time>
      </trkpt>
      <trkpt lat="44.0287" lon="6.85534">
        <ele>1130.8000488281</ele>
        <time>2020-09-12T09:46:07.000Z</time>
      </trkpt>
      <trkpt lat="44.02871" lon="6.85542">
        <ele>1131.8000488281</ele>
        <time>2020-09-12T09:46:11.000Z</time>
      </trkpt>
      <trkpt lat="44.02871" lon="6.85543">
        <ele>1132</ele>
        <time>2020-09-12T09:46:12.000Z</time>
      </trkpt>
      <trkpt lat="44.02876" lon="6.85553">
        <ele>1133.1999511719</ele>
        <time>2020-09-12T09:46:18.000Z</time>
      </trkpt>
      <trkpt lat="44.02876" lon="6.85555">
        <ele>1133.1999511719</ele>
        <time>2020-09-12T09:46:19.000Z</time>
      </trkpt>
      <trkpt lat="44.0288" lon="6.85562">
        <ele>1134.1999511719</ele>
        <time>2020-09-12T09:46:24.000Z</time>
      </trkpt>
      <trkpt lat="44.02881" lon="6.85567">
        <ele>1135</ele>
        <time>2020-09-12T09:46:27.000Z</time>
      </trkpt>
      <trkpt lat="44.02882" lon="6.85568">
        <ele>1135.1999511719</ele>
        <time>2020-09-12T09:46:28.000Z</time>
      </trkpt>
      <trkpt lat="44.02883" lon="6.85575">
        <ele>1136.4000244141</ele>
        <time>2020-09-12T09:46:32.000Z</time>
      </trkpt>
      <trkpt lat="44.02884" lon="6.85582">
        <ele>1137</ele>
        <time>2020-09-12T09:46:36.000Z</time>
      </trkpt>
      <trkpt lat="44.02884" lon="6.85591">
        <ele>1137.4000244141</ele>
        <time>2020-09-12T09:46:40.000Z</time>
      </trkpt>
      <trkpt lat="44.02886" lon="6.85599">
        <ele>1137.8000488281</ele>
        <time>2020-09-12T09:46:44.000Z</time>
      </trkpt>
      <trkpt lat="44.02887" lon="6.85604">
        <ele>1138.8000488281</ele>
        <time>2020-09-12T09:46:47.000Z</time>
      </trkpt>
      <trkpt lat="44.02888" lon="6.8561">
        <ele>1140</ele>
        <time>2020-09-12T09:46:50.000Z</time>
      </trkpt>
      <trkpt lat="44.0289" lon="6.85618">
        <ele>1140.8000488281</ele>
        <time>2020-09-12T09:46:54.000Z</time>
      </trkpt>
      <trkpt lat="44.0289" lon="6.85622">
        <ele>1141</ele>
        <time>2020-09-12T09:46:56.000Z</time>
      </trkpt>
      <trkpt lat="44.02891" lon="6.85634">
        <ele>1141.8000488281</ele>
        <time>2020-09-12T09:47:02.000Z</time>
      </trkpt>
      <trkpt lat="44.02891" lon="6.85637">
        <ele>1142</ele>
        <time>2020-09-12T09:47:03.000Z</time>
      </trkpt>
      <trkpt lat="44.0289" lon="6.85651">
        <ele>1143.1999511719</ele>
        <time>2020-09-12T09:47:11.000Z</time>
      </trkpt>
      <trkpt lat="44.02889" lon="6.85662">
        <ele>1144.1999511719</ele>
        <time>2020-09-12T09:47:18.000Z</time>
      </trkpt>
      <trkpt lat="44.02889" lon="6.85668">
        <ele>1145</ele>
        <time>2020-09-12T09:47:22.000Z</time>
      </trkpt>
      <trkpt lat="44.02889" lon="6.85671">
        <ele>1145.4000244141</ele>
        <time>2020-09-12T09:47:24.000Z</time>
      </trkpt>
      <trkpt lat="44.02887" lon="6.85674">
        <ele>1146</ele>
        <time>2020-09-12T09:47:27.000Z</time>
      </trkpt>
      <trkpt lat="44.02885" lon="6.85676">
        <ele>1146.5999755859</ele>
        <time>2020-09-12T09:47:29.000Z</time>
      </trkpt>
      <trkpt lat="44.02885" lon="6.85677">
        <ele>1146.8000488281</ele>
        <time>2020-09-12T09:47:30.000Z</time>
      </trkpt>
      <trkpt lat="44.02884" lon="6.85678">
        <ele>1147</ele>
        <time>2020-09-12T09:47:31.000Z</time>
      </trkpt>
      <trkpt lat="44.02883" lon="6.85681">
        <ele>1147.5999755859</ele>
        <time>2020-09-12T09:47:34.000Z</time>
      </trkpt>
      <trkpt lat="44.0288" lon="6.85687">
        <ele>1148.5999755859</ele>
        <time>2020-09-12T09:47:39.000Z</time>
      </trkpt>
      <trkpt lat="44.02879" lon="6.85688">
        <ele>1148.8000488281</ele>
        <time>2020-09-12T09:47:40.000Z</time>
      </trkpt>
      <trkpt lat="44.02875" lon="6.85695">
        <ele>1149.8000488281</ele>
        <time>2020-09-12T09:47:46.000Z</time>
      </trkpt>
      <trkpt lat="44.02872" lon="6.85699">
        <ele>1150.5999755859</ele>
        <time>2020-09-12T09:47:50.000Z</time>
      </trkpt>
      <trkpt lat="44.02869" lon="6.85704">
        <ele>1151</ele>
        <time>2020-09-12T09:47:54.000Z</time>
      </trkpt>
      <trkpt lat="44.02866" lon="6.85709">
        <ele>1152.1999511719</ele>
        <time>2020-09-12T09:47:59.000Z</time>
      </trkpt>
      <trkpt lat="44.02865" lon="6.8571">
        <ele>1152.4000244141</ele>
        <time>2020-09-12T09:48:00.000Z</time>
      </trkpt>
      <trkpt lat="44.02864" lon="6.85711">
        <ele>1152.8000488281</ele>
        <time>2020-09-12T09:48:01.000Z</time>
      </trkpt>
      <trkpt lat="44.02862" lon="6.85715">
        <ele>1153.4000244141</ele>
        <time>2020-09-12T09:48:04.000Z</time>
      </trkpt>
      <trkpt lat="44.0286" lon="6.85716">
        <ele>1153.5999755859</ele>
        <time>2020-09-12T09:48:06.000Z</time>
      </trkpt>
      <trkpt lat="44.02857" lon="6.85722">
        <ele>1154.4000244141</ele>
        <time>2020-09-12T09:48:11.000Z</time>
      </trkpt>
      <trkpt lat="44.02856" lon="6.85724">
        <ele>1154.4000244141</ele>
        <time>2020-09-12T09:48:12.000Z</time>
      </trkpt>
      <trkpt lat="44.02855" lon="6.85726">
        <ele>1154.8000488281</ele>
        <time>2020-09-12T09:48:13.000Z</time>
      </trkpt>
      <trkpt lat="44.02851" lon="6.85739">
        <ele>1155.4000244141</ele>
        <time>2020-09-12T09:48:19.000Z</time>
      </trkpt>
      <trkpt lat="44.0285" lon="6.85745">
        <ele>1156</ele>
        <time>2020-09-12T09:48:22.000Z</time>
      </trkpt>
      <trkpt lat="44.02845" lon="6.85764">
        <ele>1156.5999755859</ele>
        <time>2020-09-12T09:48:30.000Z</time>
      </trkpt>
      <trkpt lat="44.02844" lon="6.85771">
        <ele>1156.5999755859</ele>
        <time>2020-09-12T09:48:32.000Z</time>
      </trkpt>
      <trkpt lat="44.02842" lon="6.85788">
        <ele>1157.4000244141</ele>
        <time>2020-09-12T09:48:39.000Z</time>
      </trkpt>
      <trkpt lat="44.02841" lon="6.85789">
        <ele>1157.5999755859</ele>
        <time>2020-09-12T09:48:40.000Z</time>
      </trkpt>
      <trkpt lat="44.0284" lon="6.85801">
        <ele>1158.5999755859</ele>
        <time>2020-09-12T09:48:47.000Z</time>
      </trkpt>
      <trkpt lat="44.0284" lon="6.85804">
        <ele>1159</ele>
        <time>2020-09-12T09:48:49.000Z</time>
      </trkpt>
      <trkpt lat="44.02839" lon="6.85809">
        <ele>1159.5999755859</ele>
        <time>2020-09-12T09:48:52.000Z</time>
      </trkpt>
      <trkpt lat="44.02837" lon="6.85815">
        <ele>1161</ele>
        <time>2020-09-12T09:48:56.000Z</time>
      </trkpt>
      <trkpt lat="44.02836" lon="6.85816">
        <ele>1161.1999511719</ele>
        <time>2020-09-12T09:48:57.000Z</time>
      </trkpt>
      <trkpt lat="44.02834" lon="6.85822">
        <ele>1162.1999511719</ele>
        <time>2020-09-12T09:49:01.000Z</time>
      </trkpt>
      <trkpt lat="44.0283" lon="6.85828">
        <ele>1163</ele>
        <time>2020-09-12T09:49:06.000Z</time>
      </trkpt>
      <trkpt lat="44.02827" lon="6.8583">
        <ele>1163.4000244141</ele>
        <time>2020-09-12T09:49:08.000Z</time>
      </trkpt>
      <trkpt lat="44.02821" lon="6.85836">
        <ele>1164</ele>
        <time>2020-09-12T09:49:13.000Z</time>
      </trkpt>
      <trkpt lat="44.02815" lon="6.8584">
        <ele>1164.4000244141</ele>
        <time>2020-09-12T09:49:17.000Z</time>
      </trkpt>
      <trkpt lat="44.02808" lon="6.85844">
        <ele>1164.8000488281</ele>
        <time>2020-09-12T09:49:21.000Z</time>
      </trkpt>
      <trkpt lat="44.02794" lon="6.85857">
        <ele>1165</ele>
        <time>2020-09-12T09:49:28.000Z</time>
      </trkpt>
      <trkpt lat="44.02783" lon="6.85869">
        <ele>1165.5999755859</ele>
        <time>2020-09-12T09:49:34.000Z</time>
      </trkpt>
      <trkpt lat="44.0278" lon="6.85871">
        <ele>1165.5999755859</ele>
        <time>2020-09-12T09:49:35.000Z</time>
      </trkpt>
      <trkpt lat="44.0277" lon="6.85883">
        <ele>1165.5999755859</ele>
        <time>2020-09-12T09:49:38.000Z</time>
      </trkpt>
      <trkpt lat="44.02765" lon="6.85892">
        <ele>1165.4000244141</ele>
        <time>2020-09-12T09:49:40.000Z</time>
      </trkpt>
      <trkpt lat="44.02758" lon="6.85904">
        <ele>1165.4000244141</ele>
        <time>2020-09-12T09:49:44.000Z</time>
      </trkpt>
      <trkpt lat="44.02751" lon="6.85918">
        <ele>1166.1999511719</ele>
        <time>2020-09-12T09:49:49.000Z</time>
      </trkpt>
      <trkpt lat="44.02748" lon="6.85925">
        <ele>1166.5999755859</ele>
        <time>2020-09-12T09:49:52.000Z</time>
      </trkpt>
      <trkpt lat="44.02746" lon="6.85932">
        <ele>1167.1999511719</ele>
        <time>2020-09-12T09:49:56.000Z</time>
      </trkpt>
      <trkpt lat="44.02746" lon="6.85936">
        <ele>1167.5999755859</ele>
        <time>2020-09-12T09:49:58.000Z</time>
      </trkpt>
      <trkpt lat="44.02745" lon="6.85942">
        <ele>1168.8000488281</ele>
        <time>2020-09-12T09:50:02.000Z</time>
      </trkpt>
      <trkpt lat="44.02744" lon="6.85943">
        <ele>1169.1999511719</ele>
        <time>2020-09-12T09:50:03.000Z</time>
      </trkpt>
      <trkpt lat="44.02743" lon="6.85946">
        <ele>1170</ele>
        <time>2020-09-12T09:50:06.000Z</time>
      </trkpt>
      <trkpt lat="44.02741" lon="6.85954">
        <ele>1170.8000488281</ele>
        <time>2020-09-12T09:50:12.000Z</time>
      </trkpt>
      <trkpt lat="44.0274" lon="6.85955">
        <ele>1171</ele>
        <time>2020-09-12T09:50:13.000Z</time>
      </trkpt>
      <trkpt lat="44.02737" lon="6.85965">
        <ele>1171.8000488281</ele>
        <time>2020-09-12T09:50:19.000Z</time>
      </trkpt>
      <trkpt lat="44.02736" lon="6.85969">
        <ele>1172</ele>
        <time>2020-09-12T09:50:21.000Z</time>
      </trkpt>
      <trkpt lat="44.02736" lon="6.85982">
        <ele>1173</ele>
        <time>2020-09-12T09:50:27.000Z</time>
      </trkpt>
      <trkpt lat="44.02736" lon="6.85985">
        <ele>1173.1999511719</ele>
        <time>2020-09-12T09:50:28.000Z</time>
      </trkpt>
      <trkpt lat="44.02737" lon="6.85999">
        <ele>1174.4000244141</ele>
        <time>2020-09-12T09:50:34.000Z</time>
      </trkpt>
      <trkpt lat="44.02737" lon="6.86004">
        <ele>1174.8000488281</ele>
        <time>2020-09-12T09:50:36.000Z</time>
      </trkpt>
      <trkpt lat="44.02734" lon="6.86018">
        <ele>1175.4000244141</ele>
        <time>2020-09-12T09:50:41.000Z</time>
      </trkpt>
      <trkpt lat="44.02733" lon="6.86023">
        <ele>1175.8000488281</ele>
        <time>2020-09-12T09:50:43.000Z</time>
      </trkpt>
      <trkpt lat="44.02726" lon="6.86037">
        <ele>1176.4000244141</ele>
        <time>2020-09-12T09:50:49.000Z</time>
      </trkpt>
      <trkpt lat="44.02724" lon="6.86042">
        <ele>1176.5999755859</ele>
        <time>2020-09-12T09:50:51.000Z</time>
      </trkpt>
      <trkpt lat="44.02718" lon="6.86051">
        <ele>1177.5999755859</ele>
        <time>2020-09-12T09:50:57.000Z</time>
      </trkpt>
      <trkpt lat="44.02717" lon="6.86052">
        <ele>1178</ele>
        <time>2020-09-12T09:50:58.000Z</time>
      </trkpt>
      <trkpt lat="44.02711" lon="6.86058">
        <ele>1178.8000488281</ele>
        <time>2020-09-12T09:51:03.000Z</time>
      </trkpt>
      <trkpt lat="44.02707" lon="6.86066">
        <ele>1179.1999511719</ele>
        <time>2020-09-12T09:51:08.000Z</time>
      </trkpt>
      <trkpt lat="44.02705" lon="6.86075">
        <ele>1179.8000488281</ele>
        <time>2020-09-12T09:51:13.000Z</time>
      </trkpt>
      <trkpt lat="44.02705" lon="6.86076">
        <ele>1180</ele>
        <time>2020-09-12T09:51:14.000Z</time>
      </trkpt>
      <trkpt lat="44.02704" lon="6.86081">
        <ele>1181</ele>
        <time>2020-09-12T09:51:18.000Z</time>
      </trkpt>
      <trkpt lat="44.02704" lon="6.86086">
        <ele>1181.8000488281</ele>
        <time>2020-09-12T09:51:22.000Z</time>
      </trkpt>
      <trkpt lat="44.02704" lon="6.86088">
        <ele>1182.1999511719</ele>
        <time>2020-09-12T09:51:24.000Z</time>
      </trkpt>
      <trkpt lat="44.02703" lon="6.86093">
        <ele>1183.1999511719</ele>
        <time>2020-09-12T09:51:29.000Z</time>
      </trkpt>
      <trkpt lat="44.02703" lon="6.86095">
        <ele>1183.4000244141</ele>
        <time>2020-09-12T09:51:30.000Z</time>
      </trkpt>
      <trkpt lat="44.027" lon="6.861">
        <ele>1184.1999511719</ele>
        <time>2020-09-12T09:51:34.000Z</time>
      </trkpt>
      <trkpt lat="44.02699" lon="6.86104">
        <ele>1185</ele>
        <time>2020-09-12T09:51:37.000Z</time>
      </trkpt>
      <trkpt lat="44.02699" lon="6.86106">
        <ele>1185.4000244141</ele>
        <time>2020-09-12T09:51:39.000Z</time>
      </trkpt>
      <trkpt lat="44.02696" lon="6.8611">
        <ele>1186.1999511719</ele>
        <time>2020-09-12T09:51:44.000Z</time>
      </trkpt>
      <trkpt lat="44.02694" lon="6.86112">
        <ele>1186.5999755859</ele>
        <time>2020-09-12T09:51:46.000Z</time>
      </trkpt>
      <trkpt lat="44.02692" lon="6.86116">
        <ele>1187.5999755859</ele>
        <time>2020-09-12T09:51:50.000Z</time>
      </trkpt>
      <trkpt lat="44.02688" lon="6.86121">
        <ele>1188.8000488281</ele>
        <time>2020-09-12T09:51:55.000Z</time>
      </trkpt>
      <trkpt lat="44.02686" lon="6.86124">
        <ele>1189.1999511719</ele>
        <time>2020-09-12T09:51:58.000Z</time>
      </trkpt>
      <trkpt lat="44.02682" lon="6.8613">
        <ele>1190</ele>
        <time>2020-09-12T09:52:04.000Z</time>
      </trkpt>
      <trkpt lat="44.02676" lon="6.86145">
        <ele>1190.8000488281</ele>
        <time>2020-09-12T09:52:10.000Z</time>
      </trkpt>
      <trkpt lat="44.02677" lon="6.86154">
        <ele>1191</ele>
        <time>2020-09-12T09:52:13.000Z</time>
      </trkpt>
      <trkpt lat="44.02679" lon="6.86156">
        <ele>1191.1999511719</ele>
        <time>2020-09-12T09:52:15.000Z</time>
      </trkpt>
      <trkpt lat="44.02682" lon="6.86162">
        <ele>1192.1999511719</ele>
        <time>2020-09-12T09:52:20.000Z</time>
      </trkpt>
      <trkpt lat="44.02685" lon="6.86166">
        <ele>1193</ele>
        <time>2020-09-12T09:52:24.000Z</time>
      </trkpt>
      <trkpt lat="44.02685" lon="6.86167">
        <ele>1193.4000244141</ele>
        <time>2020-09-12T09:52:25.000Z</time>
      </trkpt>
      <trkpt lat="44.0269" lon="6.86173">
        <ele>1194.5999755859</ele>
        <time>2020-09-12T09:52:31.000Z</time>
      </trkpt>
      <trkpt lat="44.02692" lon="6.86176">
        <ele>1195</ele>
        <time>2020-09-12T09:52:34.000Z</time>
      </trkpt>
      <trkpt lat="44.02694" lon="6.86182">
        <ele>1195.5999755859</ele>
        <time>2020-09-12T09:52:38.000Z</time>
      </trkpt>
      <trkpt lat="44.02697" lon="6.8619">
        <ele>1196.1999511719</ele>
        <time>2020-09-12T09:52:43.000Z</time>
      </trkpt>
      <trkpt lat="44.02698" lon="6.86195">
        <ele>1196.8000488281</ele>
        <time>2020-09-12T09:52:46.000Z</time>
      </trkpt>
      <trkpt lat="44.02699" lon="6.86206">
        <ele>1197.5999755859</ele>
        <time>2020-09-12T09:52:52.000Z</time>
      </trkpt>
      <trkpt lat="44.02699" lon="6.8621">
        <ele>1197.8000488281</ele>
        <time>2020-09-12T09:52:54.000Z</time>
      </trkpt>
      <trkpt lat="44.02698" lon="6.8622">
        <ele>1198.8000488281</ele>
        <time>2020-09-12T09:53:00.000Z</time>
      </trkpt>
      <trkpt lat="44.02698" lon="6.86221">
        <ele>1199</ele>
        <time>2020-09-12T09:53:01.000Z</time>
      </trkpt>
      <trkpt lat="44.02695" lon="6.8623">
        <ele>1200.1999511719</ele>
        <time>2020-09-12T09:53:07.000Z</time>
      </trkpt>
      <trkpt lat="44.02694" lon="6.86234">
        <ele>1200.8000488281</ele>
        <time>2020-09-12T09:53:10.000Z</time>
      </trkpt>
      <trkpt lat="44.02692" lon="6.8624">
        <ele>1201.4000244141</ele>
        <time>2020-09-12T09:53:15.000Z</time>
      </trkpt>
      <trkpt lat="44.0269" lon="6.86245">
        <ele>1202.4000244141</ele>
        <time>2020-09-12T09:53:19.000Z</time>
      </trkpt>
      <trkpt lat="44.02688" lon="6.86253">
        <ele>1203.4000244141</ele>
        <time>2020-09-12T09:53:25.000Z</time>
      </trkpt>
      <trkpt lat="44.02687" lon="6.86255">
        <ele>1203.8000488281</ele>
        <time>2020-09-12T09:53:27.000Z</time>
      </trkpt>
      <trkpt lat="44.02683" lon="6.8626">
        <ele>1204.8000488281</ele>
        <time>2020-09-12T09:53:33.000Z</time>
      </trkpt>
      <trkpt lat="44.0268" lon="6.86264">
        <ele>1205.8000488281</ele>
        <time>2020-09-12T09:53:37.000Z</time>
      </trkpt>
      <trkpt lat="44.02677" lon="6.8627">
        <ele>1206.8000488281</ele>
        <time>2020-09-12T09:53:42.000Z</time>
      </trkpt>
      <trkpt lat="44.02675" lon="6.86273">
        <ele>1207.1999511719</ele>
        <time>2020-09-12T09:53:44.000Z</time>
      </trkpt>
      <trkpt lat="44.02673" lon="6.86287">
        <ele>1207.8000488281</ele>
        <time>2020-09-12T09:53:52.000Z</time>
      </trkpt>
      <trkpt lat="44.02674" lon="6.86289">
        <ele>1208</ele>
        <time>2020-09-12T09:53:53.000Z</time>
      </trkpt>
      <trkpt lat="44.02673" lon="6.86293">
        <ele>1209</ele>
        <time>2020-09-12T09:53:56.000Z</time>
      </trkpt>
      <trkpt lat="44.02673" lon="6.86295">
        <ele>1209.1999511719</ele>
        <time>2020-09-12T09:53:57.000Z</time>
      </trkpt>
      <trkpt lat="44.02673" lon="6.86296">
        <ele>1209.5999755859</ele>
        <time>2020-09-12T09:53:58.000Z</time>
      </trkpt>
      <trkpt lat="44.02671" lon="6.86302">
        <ele>1210.4000244141</ele>
        <time>2020-09-12T09:54:02.000Z</time>
      </trkpt>
      <trkpt lat="44.0267" lon="6.86307">
        <ele>1210.8000488281</ele>
        <time>2020-09-12T09:54:05.000Z</time>
      </trkpt>
      <trkpt lat="44.0267" lon="6.86317">
        <ele>1211.5999755859</ele>
        <time>2020-09-12T09:54:11.000Z</time>
      </trkpt>
      <trkpt lat="44.02669" lon="6.8632">
        <ele>1212</ele>
        <time>2020-09-12T09:54:13.000Z</time>
      </trkpt>
      <trkpt lat="44.02666" lon="6.86326">
        <ele>1212.5999755859</ele>
        <time>2020-09-12T09:54:17.000Z</time>
      </trkpt>
      <trkpt lat="44.02663" lon="6.86337">
        <ele>1213.1999511719</ele>
        <time>2020-09-12T09:54:23.000Z</time>
      </trkpt>
      <trkpt lat="44.02659" lon="6.86345">
        <ele>1213.5999755859</ele>
        <time>2020-09-12T09:54:28.000Z</time>
      </trkpt>
      <trkpt lat="44.02657" lon="6.86351">
        <ele>1214</ele>
        <time>2020-09-12T09:54:31.000Z</time>
      </trkpt>
      <trkpt lat="44.02656" lon="6.8636">
        <ele>1214.5999755859</ele>
        <time>2020-09-12T09:54:36.000Z</time>
      </trkpt>
      <trkpt lat="44.02656" lon="6.86362">
        <ele>1214.8000488281</ele>
        <time>2020-09-12T09:54:37.000Z</time>
      </trkpt>
      <trkpt lat="44.02655" lon="6.86375">
        <ele>1215.8000488281</ele>
        <time>2020-09-12T09:54:44.000Z</time>
      </trkpt>
      <trkpt lat="44.02656" lon="6.86378">
        <ele>1216.4000244141</ele>
        <time>2020-09-12T09:54:46.000Z</time>
      </trkpt>
      <trkpt lat="44.02656" lon="6.86379">
        <ele>1216.8000488281</ele>
        <time>2020-09-12T09:54:47.000Z</time>
      </trkpt>
      <trkpt lat="44.02656" lon="6.86381">
        <ele>1217.1999511719</ele>
        <time>2020-09-12T09:54:48.000Z</time>
      </trkpt>
      <trkpt lat="44.02655" lon="6.86386">
        <ele>1218.4000244141</ele>
        <time>2020-09-12T09:54:52.000Z</time>
      </trkpt>
      <trkpt lat="44.02655" lon="6.86391">
        <ele>1219.1999511719</ele>
        <time>2020-09-12T09:54:56.000Z</time>
      </trkpt>
      <trkpt lat="44.02656" lon="6.86392">
        <ele>1219.5999755859</ele>
        <time>2020-09-12T09:54:57.000Z</time>
      </trkpt>
      <trkpt lat="44.02656" lon="6.86394">
        <ele>1220</ele>
        <time>2020-09-12T09:54:59.000Z</time>
      </trkpt>
      <trkpt lat="44.02658" lon="6.86397">
        <ele>1220.8000488281</ele>
        <time>2020-09-12T09:55:02.000Z</time>
      </trkpt>
      <trkpt lat="44.02658" lon="6.86399">
        <ele>1221.4000244141</ele>
        <time>2020-09-12T09:55:04.000Z</time>
      </trkpt>
      <trkpt lat="44.02659" lon="6.864">
        <ele>1221.8000488281</ele>
        <time>2020-09-12T09:55:05.000Z</time>
      </trkpt>
      <trkpt lat="44.0266" lon="6.86402">
        <ele>1222.4000244141</ele>
        <time>2020-09-12T09:55:07.000Z</time>
      </trkpt>
      <trkpt lat="44.0266" lon="6.86403">
        <ele>1222.8000488281</ele>
        <time>2020-09-12T09:55:08.000Z</time>
      </trkpt>
      <trkpt lat="44.02663" lon="6.8641">
        <ele>1224</ele>
        <time>2020-09-12T09:55:14.000Z</time>
      </trkpt>
      <trkpt lat="44.02664" lon="6.86412">
        <ele>1224.1999511719</ele>
        <time>2020-09-12T09:55:16.000Z</time>
      </trkpt>
      <trkpt lat="44.02668" lon="6.86419">
        <ele>1225.1999511719</ele>
        <time>2020-09-12T09:55:23.000Z</time>
      </trkpt>
      <trkpt lat="44.02669" lon="6.86421">
        <ele>1225.4000244141</ele>
        <time>2020-09-12T09:55:25.000Z</time>
      </trkpt>
      <trkpt lat="44.02673" lon="6.86427">
        <ele>1226.1999511719</ele>
        <time>2020-09-12T09:55:31.000Z</time>
      </trkpt>
      <trkpt lat="44.02674" lon="6.86429">
        <ele>1226.1999511719</ele>
        <time>2020-09-12T09:55:33.000Z</time>
      </trkpt>
      <trkpt lat="44.02676" lon="6.86432">
        <ele>1226.4000244141</ele>
        <time>2020-09-12T09:55:36.000Z</time>
      </trkpt>
      <trkpt lat="44.0268" lon="6.86441">
        <ele>1227.1999511719</ele>
        <time>2020-09-12T09:55:43.000Z</time>
      </trkpt>
      <trkpt lat="44.02681" lon="6.86442">
        <ele>1227.1999511719</ele>
        <time>2020-09-12T09:55:44.000Z</time>
      </trkpt>
      <trkpt lat="44.02687" lon="6.86451">
        <ele>1228.1999511719</ele>
        <time>2020-09-12T09:55:52.000Z</time>
      </trkpt>
      <trkpt lat="44.02689" lon="6.86454">
        <ele>1228.4000244141</ele>
        <time>2020-09-12T09:55:55.000Z</time>
      </trkpt>
      <trkpt lat="44.02693" lon="6.8646">
        <ele>1229.1999511719</ele>
        <time>2020-09-12T09:56:01.000Z</time>
      </trkpt>
      <trkpt lat="44.02694" lon="6.86461">
        <ele>1229.4000244141</ele>
        <time>2020-09-12T09:56:02.000Z</time>
      </trkpt>
      <trkpt lat="44.02695" lon="6.86463">
        <ele>1229.5999755859</ele>
        <time>2020-09-12T09:56:04.000Z</time>
      </trkpt>
      <trkpt lat="44.02697" lon="6.86466">
        <ele>1229.8000488281</ele>
        <time>2020-09-12T09:56:07.000Z</time>
      </trkpt>
      <trkpt lat="44.02701" lon="6.86471">
        <ele>1230.5999755859</ele>
        <time>2020-09-12T09:56:13.000Z</time>
      </trkpt>
      <trkpt lat="44.02703" lon="6.86475">
        <ele>1231.1999511719</ele>
        <time>2020-09-12T09:56:16.000Z</time>
      </trkpt>
      <trkpt lat="44.02704" lon="6.86477">
        <ele>1231.5999755859</ele>
        <time>2020-09-12T09:56:18.000Z</time>
      </trkpt>
      <trkpt lat="44.02709" lon="6.86484">
        <ele>1232.8000488281</ele>
        <time>2020-09-12T09:56:25.000Z</time>
      </trkpt>
      <trkpt lat="44.02713" lon="6.8649">
        <ele>1234</ele>
        <time>2020-09-12T09:56:31.000Z</time>
      </trkpt>
      <trkpt lat="44.02715" lon="6.86493">
        <ele>1235</ele>
        <time>2020-09-12T09:56:34.000Z</time>
      </trkpt>
      <trkpt lat="44.02718" lon="6.86496">
        <ele>1236.1999511719</ele>
        <time>2020-09-12T09:56:39.000Z</time>
      </trkpt>
      <trkpt lat="44.0272" lon="6.865">
        <ele>1236.4000244141</ele>
        <time>2020-09-12T09:56:42.000Z</time>
      </trkpt>
      <trkpt lat="44.02721" lon="6.865">
        <ele>1236.4000244141</ele>
        <time>2020-09-12T09:56:43.000Z</time>
      </trkpt>
      <trkpt lat="44.02724" lon="6.86506">
        <ele>1237.4000244141</ele>
        <time>2020-09-12T09:56:48.000Z</time>
      </trkpt>
      <trkpt lat="44.02724" lon="6.86508">
        <ele>1238.1999511719</ele>
        <time>2020-09-12T09:56:50.000Z</time>
      </trkpt>
      <trkpt lat="44.02725" lon="6.86509">
        <ele>1238.5999755859</ele>
        <time>2020-09-12T09:56:51.000Z</time>
      </trkpt>
      <trkpt lat="44.02728" lon="6.86511">
        <ele>1239.5999755859</ele>
        <time>2020-09-12T09:56:55.000Z</time>
      </trkpt>
      <trkpt lat="44.02729" lon="6.86512">
        <ele>1239.8000488281</ele>
        <time>2020-09-12T09:56:56.000Z</time>
      </trkpt>
      <trkpt lat="44.02734" lon="6.86516">
        <ele>1240.5999755859</ele>
        <time>2020-09-12T09:57:02.000Z</time>
      </trkpt>
      <trkpt lat="44.02735" lon="6.86518">
        <ele>1241</ele>
        <time>2020-09-12T09:57:04.000Z</time>
      </trkpt>
      <trkpt lat="44.02739" lon="6.86523">
        <ele>1241.8000488281</ele>
        <time>2020-09-12T09:57:09.000Z</time>
      </trkpt>
      <trkpt lat="44.02742" lon="6.86528">
        <ele>1242.4000244141</ele>
        <time>2020-09-12T09:57:14.000Z</time>
      </trkpt>
      <trkpt lat="44.02742" lon="6.86528">
        <ele>1242.4000244141</ele>
        <time>2020-09-12T09:57:20.000Z</time>
      </trkpt>
      <trkpt lat="44.02742" lon="6.86529">
        <ele>1241.8000488281</ele>
        <time>2020-09-12T09:57:41.000Z</time>
      </trkpt>
      <trkpt lat="44.02743" lon="6.8653">
        <ele>1241.8000488281</ele>
        <time>2020-09-12T09:57:52.000Z</time>
      </trkpt>
      <trkpt lat="44.02744" lon="6.8653">
        <ele>1241.4000244141</ele>
        <time>2020-09-12T09:58:07.000Z</time>
      </trkpt>
      <trkpt lat="44.02744" lon="6.8653">
        <ele>1241.4000244141</ele>
        <time>2020-09-12T09:58:32.000Z</time>
      </trkpt>
      <trkpt lat="44.02744" lon="6.8653">
        <ele>1241.5999755859</ele>
        <time>2020-09-12T09:59:06.000Z</time>
      </trkpt>
      <trkpt lat="44.02744" lon="6.86531">
        <ele>1241.1999511719</ele>
        <time>2020-09-12T09:59:36.000Z</time>
      </trkpt>
      <trkpt lat="44.02745" lon="6.86533">
        <ele>1241.1999511719</ele>
        <time>2020-09-12T10:00:06.000Z</time>
      </trkpt>
      <trkpt lat="44.02746" lon="6.86534">
        <ele>1241.1999511719</ele>
        <time>2020-09-12T10:00:19.000Z</time>
      </trkpt>
      <trkpt lat="44.02748" lon="6.86534">
        <ele>1241</ele>
        <time>2020-09-12T10:00:37.000Z</time>
      </trkpt>
      <trkpt lat="44.02748" lon="6.86533">
        <ele>1241.1999511719</ele>
        <time>2020-09-12T10:00:43.000Z</time>
      </trkpt>
      <trkpt lat="44.02748" lon="6.86534">
        <ele>1241</ele>
        <time>2020-09-12T10:00:46.000Z</time>
      </trkpt>
      <trkpt lat="44.02752" lon="6.8654">
        <ele>1241.1999511719</ele>
        <time>2020-09-12T10:00:49.000Z</time>
      </trkpt>
      <trkpt lat="44.02763" lon="6.86554">
        <ele>1241.4000244141</ele>
        <time>2020-09-12T10:00:52.000Z</time>
      </trkpt>
      <trkpt lat="44.02782" lon="6.8656">
        <ele>1240.8000488281</ele>
        <time>2020-09-12T10:00:55.000Z</time>
      </trkpt>
      <trkpt lat="44.02798" lon="6.86547">
        <ele>1239</ele>
        <time>2020-09-12T10:00:58.000Z</time>
      </trkpt>
      <trkpt lat="44.02802" lon="6.86545">
        <ele>1238</ele>
        <time>2020-09-12T10:00:59.000Z</time>
      </trkpt>
      <trkpt lat="44.0281" lon="6.86548">
        <ele>1236.5999755859</ele>
        <time>2020-09-12T10:01:01.000Z</time>
      </trkpt>
      <trkpt lat="44.02819" lon="6.86567">
        <ele>1235.4000244141</ele>
        <time>2020-09-12T10:01:04.000Z</time>
      </trkpt>
      <trkpt lat="44.02822" lon="6.86574">
        <ele>1235.4000244141</ele>
        <time>2020-09-12T10:01:05.000Z</time>
      </trkpt>
      <trkpt lat="44.02834" lon="6.86589">
        <ele>1235</ele>
        <time>2020-09-12T10:01:07.000Z</time>
      </trkpt>
      <trkpt lat="44.02842" lon="6.86594">
        <ele>1234.5999755859</ele>
        <time>2020-09-12T10:01:08.000Z</time>
      </trkpt>
      <trkpt lat="44.02847" lon="6.86596">
        <ele>1234.1999511719</ele>
        <time>2020-09-12T10:01:09.000Z</time>
      </trkpt>
      <trkpt lat="44.02858" lon="6.86599">
        <ele>1233</ele>
        <time>2020-09-12T10:01:11.000Z</time>
      </trkpt>
      <trkpt lat="44.02865" lon="6.86606">
        <ele>1231.8000488281</ele>
        <time>2020-09-12T10:01:13.000Z</time>
      </trkpt>
      <trkpt lat="44.02868" lon="6.86611">
        <ele>1231.1999511719</ele>
        <time>2020-09-12T10:01:14.000Z</time>
      </trkpt>
      <trkpt lat="44.02871" lon="6.86617">
        <ele>1230.4000244141</ele>
        <time>2020-09-12T10:01:15.000Z</time>
      </trkpt>
      <trkpt lat="44.02875" lon="6.86623">
        <ele>1229.1999511719</ele>
        <time>2020-09-12T10:01:16.000Z</time>
      </trkpt>
      <trkpt lat="44.02884" lon="6.86634">
        <ele>1227.5999755859</ele>
        <time>2020-09-12T10:01:18.000Z</time>
      </trkpt>
      <trkpt lat="44.02892" lon="6.8664">
        <ele>1225.5999755859</ele>
        <time>2020-09-12T10:01:20.000Z</time>
      </trkpt>
      <trkpt lat="44.02896" lon="6.86641">
        <ele>1224.5999755859</ele>
        <time>2020-09-12T10:01:21.000Z</time>
      </trkpt>
      <trkpt lat="44.029" lon="6.86639">
        <ele>1223.5999755859</ele>
        <time>2020-09-12T10:01:22.000Z</time>
      </trkpt>
      <trkpt lat="44.02907" lon="6.86628">
        <ele>1221.8000488281</ele>
        <time>2020-09-12T10:01:24.000Z</time>
      </trkpt>
      <trkpt lat="44.02915" lon="6.86616">
        <ele>1220.4000244141</ele>
        <time>2020-09-12T10:01:26.000Z</time>
      </trkpt>
      <trkpt lat="44.0292" lon="6.86614">
        <ele>1220</ele>
        <time>2020-09-12T10:01:27.000Z</time>
      </trkpt>
      <trkpt lat="44.02931" lon="6.86613">
        <ele>1219</ele>
        <time>2020-09-12T10:01:29.000Z</time>
      </trkpt>
      <trkpt lat="44.02937" lon="6.86615">
        <ele>1218.1999511719</ele>
        <time>2020-09-12T10:01:30.000Z</time>
      </trkpt>
      <trkpt lat="44.02942" lon="6.86616">
        <ele>1217.1999511719</ele>
        <time>2020-09-12T10:01:31.000Z</time>
      </trkpt>
      <trkpt lat="44.02952" lon="6.86613">
        <ele>1215.4000244141</ele>
        <time>2020-09-12T10:01:33.000Z</time>
      </trkpt>
      <trkpt lat="44.02955" lon="6.8661">
        <ele>1214.5999755859</ele>
        <time>2020-09-12T10:01:34.000Z</time>
      </trkpt>
      <trkpt lat="44.02954" lon="6.86607">
        <ele>1214.1999511719</ele>
        <time>2020-09-12T10:01:35.000Z</time>
      </trkpt>
      <trkpt lat="44.02955" lon="6.86598">
        <ele>1212.5999755859</ele>
        <time>2020-09-12T10:01:36.000Z</time>
      </trkpt>
      <trkpt lat="44.02955" lon="6.86595">
        <ele>1211.8000488281</ele>
        <time>2020-09-12T10:01:37.000Z</time>
      </trkpt>
      <trkpt lat="44.02954" lon="6.86592">
        <ele>1211</ele>
        <time>2020-09-12T10:01:38.000Z</time>
      </trkpt>
      <trkpt lat="44.02954" lon="6.86582">
        <ele>1210</ele>
        <time>2020-09-12T10:01:42.000Z</time>
      </trkpt>
      <trkpt lat="44.02955" lon="6.86578">
        <ele>1210.4000244141</ele>
        <time>2020-09-12T10:01:44.000Z</time>
      </trkpt>
      <trkpt lat="44.02956" lon="6.86572">
        <ele>1211</ele>
        <time>2020-09-12T10:01:47.000Z</time>
      </trkpt>
      <trkpt lat="44.02963" lon="6.86561">
        <ele>1212</ele>
        <time>2020-09-12T10:01:53.000Z</time>
      </trkpt>
      <trkpt lat="44.02964" lon="6.8656">
        <ele>1212</ele>
        <time>2020-09-12T10:01:54.000Z</time>
      </trkpt>
      <trkpt lat="44.02973" lon="6.86548">
        <ele>1212.8000488281</ele>
        <time>2020-09-12T10:02:01.000Z</time>
      </trkpt>
      <trkpt lat="44.02975" lon="6.86545">
        <ele>1213.1999511719</ele>
        <time>2020-09-12T10:02:03.000Z</time>
      </trkpt>
      <trkpt lat="44.02984" lon="6.86535">
        <ele>1214.1999511719</ele>
        <time>2020-09-12T10:02:10.000Z</time>
      </trkpt>
      <trkpt lat="44.02988" lon="6.86531">
        <ele>1215.4000244141</ele>
        <time>2020-09-12T10:02:14.000Z</time>
      </trkpt>
      <trkpt lat="44.02993" lon="6.86526">
        <ele>1216.1999511719</ele>
        <time>2020-09-12T10:02:18.000Z</time>
      </trkpt>
      <trkpt lat="44.02994" lon="6.86525">
        <ele>1216.4000244141</ele>
        <time>2020-09-12T10:02:19.000Z</time>
      </trkpt>
      <trkpt lat="44.02998" lon="6.86515">
        <ele>1217</ele>
        <time>2020-09-12T10:02:24.000Z</time>
      </trkpt>
      <trkpt lat="44.03" lon="6.86504">
        <ele>1217.5999755859</ele>
        <time>2020-09-12T10:02:29.000Z</time>
      </trkpt>
      <trkpt lat="44.03001" lon="6.86496">
        <ele>1218.8000488281</ele>
        <time>2020-09-12T10:02:33.000Z</time>
      </trkpt>
      <trkpt lat="44.03002" lon="6.86492">
        <ele>1219.1999511719</ele>
        <time>2020-09-12T10:02:35.000Z</time>
      </trkpt>
      <trkpt lat="44.03004" lon="6.86486">
        <ele>1219.8000488281</ele>
        <time>2020-09-12T10:02:38.000Z</time>
      </trkpt>
      <trkpt lat="44.03006" lon="6.86473">
        <ele>1220.1999511719</ele>
        <time>2020-09-12T10:02:42.000Z</time>
      </trkpt>
      <trkpt lat="44.03008" lon="6.86456">
        <ele>1220</ele>
        <time>2020-09-12T10:02:48.000Z</time>
      </trkpt>
      <trkpt lat="44.03008" lon="6.86446">
        <ele>1221</ele>
        <time>2020-09-12T10:02:52.000Z</time>
      </trkpt>
      <trkpt lat="44.03008" lon="6.86434">
        <ele>1222.1999511719</ele>
        <time>2020-09-12T10:02:57.000Z</time>
      </trkpt>
      <trkpt lat="44.03008" lon="6.86432">
        <ele>1222.1999511719</ele>
        <time>2020-09-12T10:02:58.000Z</time>
      </trkpt>
      <trkpt lat="44.03009" lon="6.86418">
        <ele>1223.1999511719</ele>
        <time>2020-09-12T10:03:04.000Z</time>
      </trkpt>
      <trkpt lat="44.03012" lon="6.86404">
        <ele>1223.8000488281</ele>
        <time>2020-09-12T10:03:10.000Z</time>
      </trkpt>
      <trkpt lat="44.03015" lon="6.86395">
        <ele>1224.1999511719</ele>
        <time>2020-09-12T10:03:14.000Z</time>
      </trkpt>
      <trkpt lat="44.03023" lon="6.86384">
        <ele>1225</ele>
        <time>2020-09-12T10:03:20.000Z</time>
      </trkpt>
      <trkpt lat="44.03028" lon="6.86381">
        <ele>1225.4000244141</ele>
        <time>2020-09-12T10:03:23.000Z</time>
      </trkpt>
      <trkpt lat="44.03036" lon="6.8638">
        <ele>1226.4000244141</ele>
        <time>2020-09-12T10:03:28.000Z</time>
      </trkpt>
      <trkpt lat="44.03037" lon="6.8638">
        <ele>1226.4000244141</ele>
        <time>2020-09-12T10:03:29.000Z</time>
      </trkpt>
      <trkpt lat="44.03049" lon="6.86381">
        <ele>1227.1999511719</ele>
        <time>2020-09-12T10:03:37.000Z</time>
      </trkpt>
      <trkpt lat="44.0305" lon="6.86381">
        <ele>1227.4000244141</ele>
        <time>2020-09-12T10:03:38.000Z</time>
      </trkpt>
      <trkpt lat="44.03056" lon="6.86384">
        <ele>1228.5999755859</ele>
        <time>2020-09-12T10:03:42.000Z</time>
      </trkpt>
      <trkpt lat="44.03061" lon="6.86388">
        <ele>1229.4000244141</ele>
        <time>2020-09-12T10:03:46.000Z</time>
      </trkpt>
      <trkpt lat="44.03064" lon="6.86389">
        <ele>1229.8000488281</ele>
        <time>2020-09-12T10:03:48.000Z</time>
      </trkpt>
      <trkpt lat="44.0307" lon="6.86392">
        <ele>1230.8000488281</ele>
        <time>2020-09-12T10:03:52.000Z</time>
      </trkpt>
      <trkpt lat="44.03073" lon="6.86393">
        <ele>1231</ele>
        <time>2020-09-12T10:03:53.000Z</time>
      </trkpt>
      <trkpt lat="44.03092" lon="6.86402">
        <ele>1230.8000488281</ele>
        <time>2020-09-12T10:03:59.000Z</time>
      </trkpt>
      <trkpt lat="44.03104" lon="6.86409">
        <ele>1230.8000488281</ele>
        <time>2020-09-12T10:04:04.000Z</time>
      </trkpt>
      <trkpt lat="44.03118" lon="6.86408">
        <ele>1232</ele>
        <time>2020-09-12T10:04:11.000Z</time>
      </trkpt>
      <trkpt lat="44.03129" lon="6.86398">
        <ele>1232.5999755859</ele>
        <time>2020-09-12T10:04:16.000Z</time>
      </trkpt>
      <trkpt lat="44.0314" lon="6.86387">
        <ele>1232.8000488281</ele>
        <time>2020-09-12T10:04:19.000Z</time>
      </trkpt>
      <trkpt lat="44.03148" lon="6.86383">
        <ele>1232.5999755859</ele>
        <time>2020-09-12T10:04:21.000Z</time>
      </trkpt>
      <trkpt lat="44.03156" lon="6.86383">
        <ele>1232.1999511719</ele>
        <time>2020-09-12T10:04:24.000Z</time>
      </trkpt>
      <trkpt lat="44.03158" lon="6.86383">
        <ele>1232.1999511719</ele>
        <time>2020-09-12T10:04:25.000Z</time>
      </trkpt>
      <trkpt lat="44.03168" lon="6.86384">
        <ele>1233</ele>
        <time>2020-09-12T10:04:30.000Z</time>
      </trkpt>
      <trkpt lat="44.03174" lon="6.86381">
        <ele>1233.8000488281</ele>
        <time>2020-09-12T10:04:33.000Z</time>
      </trkpt>
      <trkpt lat="44.03177" lon="6.86379">
        <ele>1234.4000244141</ele>
        <time>2020-09-12T10:04:35.000Z</time>
      </trkpt>
      <trkpt lat="44.03182" lon="6.86371">
        <ele>1235.4000244141</ele>
        <time>2020-09-12T10:04:39.000Z</time>
      </trkpt>
      <trkpt lat="44.03183" lon="6.86369">
        <ele>1235.5999755859</ele>
        <time>2020-09-12T10:04:40.000Z</time>
      </trkpt>
      <trkpt lat="44.03191" lon="6.86357">
        <ele>1236.4000244141</ele>
        <time>2020-09-12T10:04:46.000Z</time>
      </trkpt>
      <trkpt lat="44.032" lon="6.86348">
        <ele>1237.5999755859</ele>
        <time>2020-09-12T10:04:52.000Z</time>
      </trkpt>
      <trkpt lat="44.03206" lon="6.86342">
        <ele>1238.5999755859</ele>
        <time>2020-09-12T10:04:56.000Z</time>
      </trkpt>
      <trkpt lat="44.03207" lon="6.86341">
        <ele>1238.8000488281</ele>
        <time>2020-09-12T10:04:57.000Z</time>
      </trkpt>
      <trkpt lat="44.03217" lon="6.86332">
        <ele>1239.8000488281</ele>
        <time>2020-09-12T10:05:03.000Z</time>
      </trkpt>
      <trkpt lat="44.03222" lon="6.86328">
        <ele>1240.4000244141</ele>
        <time>2020-09-12T10:05:06.000Z</time>
      </trkpt>
      <trkpt lat="44.03225" lon="6.86327">
        <ele>1241.1999511719</ele>
        <time>2020-09-12T10:05:08.000Z</time>
      </trkpt>
      <trkpt lat="44.03232" lon="6.86323">
        <ele>1242.4000244141</ele>
        <time>2020-09-12T10:05:12.000Z</time>
      </trkpt>
      <trkpt lat="44.03234" lon="6.86322">
        <ele>1242.8000488281</ele>
        <time>2020-09-12T10:05:14.000Z</time>
      </trkpt>
      <trkpt lat="44.03237" lon="6.86321">
        <ele>1243.4000244141</ele>
        <time>2020-09-12T10:05:16.000Z</time>
      </trkpt>
      <trkpt lat="44.03243" lon="6.86319">
        <ele>1244.4000244141</ele>
        <time>2020-09-12T10:05:20.000Z</time>
      </trkpt>
      <trkpt lat="44.03249" lon="6.86317">
        <ele>1244.8000488281</ele>
        <time>2020-09-12T10:05:23.000Z</time>
      </trkpt>
      <trkpt lat="44.03264" lon="6.86316">
        <ele>1245.5999755859</ele>
        <time>2020-09-12T10:05:31.000Z</time>
      </trkpt>
      <trkpt lat="44.0327" lon="6.86316">
        <ele>1246</ele>
        <time>2020-09-12T10:05:34.000Z</time>
      </trkpt>
      <trkpt lat="44.03278" lon="6.86317">
        <ele>1246.5999755859</ele>
        <time>2020-09-12T10:05:38.000Z</time>
      </trkpt>
      <trkpt lat="44.03286" lon="6.86317">
        <ele>1246.8000488281</ele>
        <time>2020-09-12T10:05:42.000Z</time>
      </trkpt>
      <trkpt lat="44.03299" lon="6.86319">
        <ele>1247.5999755859</ele>
        <time>2020-09-12T10:05:48.000Z</time>
      </trkpt>
      <trkpt lat="44.03307" lon="6.86319">
        <ele>1248</ele>
        <time>2020-09-12T10:05:52.000Z</time>
      </trkpt>
      <trkpt lat="44.0332" lon="6.86318">
        <ele>1248.8000488281</ele>
        <time>2020-09-12T10:05:59.000Z</time>
      </trkpt>
      <trkpt lat="44.03321" lon="6.86318">
        <ele>1249</ele>
        <time>2020-09-12T10:06:00.000Z</time>
      </trkpt>
      <trkpt lat="44.03326" lon="6.86318">
        <ele>1249.8000488281</ele>
        <time>2020-09-12T10:06:04.000Z</time>
      </trkpt>
      <trkpt lat="44.0333" lon="6.86319">
        <ele>1250.8000488281</ele>
        <time>2020-09-12T10:06:08.000Z</time>
      </trkpt>
      <trkpt lat="44.03332" lon="6.86319">
        <ele>1250.8000488281</ele>
        <time>2020-09-12T10:06:09.000Z</time>
      </trkpt>
      <trkpt lat="44.03339" lon="6.86323">
        <ele>1252</ele>
        <time>2020-09-12T10:06:15.000Z</time>
      </trkpt>
      <trkpt lat="44.0334" lon="6.86323">
        <ele>1252.1999511719</ele>
        <time>2020-09-12T10:06:16.000Z</time>
      </trkpt>
      <trkpt lat="44.03346" lon="6.86325">
        <ele>1253</ele>
        <time>2020-09-12T10:06:21.000Z</time>
      </trkpt>
      <trkpt lat="44.03351" lon="6.86327">
        <ele>1253.4000244141</ele>
        <time>2020-09-12T10:06:24.000Z</time>
      </trkpt>
      <trkpt lat="44.03366" lon="6.86333">
        <ele>1253.8000488281</ele>
        <time>2020-09-12T10:06:32.000Z</time>
      </trkpt>
      <trkpt lat="44.0338" lon="6.86335">
        <ele>1254.1999511719</ele>
        <time>2020-09-12T10:06:39.000Z</time>
      </trkpt>
      <trkpt lat="44.03395" lon="6.86338">
        <ele>1255.1999511719</ele>
        <time>2020-09-12T10:06:46.000Z</time>
      </trkpt>
      <trkpt lat="44.03398" lon="6.86339">
        <ele>1255.4000244141</ele>
        <time>2020-09-12T10:06:47.000Z</time>
      </trkpt>
      <trkpt lat="44.03417" lon="6.86345">
        <ele>1256.1999511719</ele>
        <time>2020-09-12T10:06:55.000Z</time>
      </trkpt>
      <trkpt lat="44.03426" lon="6.86349">
        <ele>1257</ele>
        <time>2020-09-12T10:07:01.000Z</time>
      </trkpt>
      <trkpt lat="44.03427" lon="6.8635">
        <ele>1257.4000244141</ele>
        <time>2020-09-12T10:07:02.000Z</time>
      </trkpt>
      <trkpt lat="44.03434" lon="6.86355">
        <ele>1258.4000244141</ele>
        <time>2020-09-12T10:07:08.000Z</time>
      </trkpt>
      <trkpt lat="44.03435" lon="6.86357">
        <ele>1258.5999755859</ele>
        <time>2020-09-12T10:07:10.000Z</time>
      </trkpt>
      <trkpt lat="44.03442" lon="6.8636">
        <ele>1259.4000244141</ele>
        <time>2020-09-12T10:07:16.000Z</time>
      </trkpt>
      <trkpt lat="44.03445" lon="6.86361">
        <ele>1259.8000488281</ele>
        <time>2020-09-12T10:07:19.000Z</time>
      </trkpt>
      <trkpt lat="44.03454" lon="6.86365">
        <ele>1260.4000244141</ele>
        <time>2020-09-12T10:07:26.000Z</time>
      </trkpt>
      <trkpt lat="44.03456" lon="6.86366">
        <ele>1260.8000488281</ele>
        <time>2020-09-12T10:07:28.000Z</time>
      </trkpt>
      <trkpt lat="44.03464" lon="6.8637">
        <ele>1261.5999755859</ele>
        <time>2020-09-12T10:07:35.000Z</time>
      </trkpt>
      <trkpt lat="44.03468" lon="6.86374">
        <ele>1262.4000244141</ele>
        <time>2020-09-12T10:07:39.000Z</time>
      </trkpt>
      <trkpt lat="44.0347" lon="6.86375">
        <ele>1262.8000488281</ele>
        <time>2020-09-12T10:07:41.000Z</time>
      </trkpt>
      <trkpt lat="44.03477" lon="6.86378">
        <ele>1264</ele>
        <time>2020-09-12T10:07:48.000Z</time>
      </trkpt>
      <trkpt lat="44.03487" lon="6.86378">
        <ele>1264.8000488281</ele>
        <time>2020-09-12T10:07:55.000Z</time>
      </trkpt>
      <trkpt lat="44.03493" lon="6.86373">
        <ele>1265</ele>
        <time>2020-09-12T10:07:59.000Z</time>
      </trkpt>
      <trkpt lat="44.03502" lon="6.86364">
        <ele>1265.1999511719</ele>
        <time>2020-09-12T10:08:03.000Z</time>
      </trkpt>
      <trkpt lat="44.03519" lon="6.86343">
        <ele>1264.8000488281</ele>
        <time>2020-09-12T10:08:09.000Z</time>
      </trkpt>
      <trkpt lat="44.03535" lon="6.86319">
        <ele>1264.1999511719</ele>
        <time>2020-09-12T10:08:13.000Z</time>
      </trkpt>
      <trkpt lat="44.03541" lon="6.86316">
        <ele>1264</ele>
        <time>2020-09-12T10:08:14.000Z</time>
      </trkpt>
      <trkpt lat="44.03551" lon="6.86309">
        <ele>1263.1999511719</ele>
        <time>2020-09-12T10:08:16.000Z</time>
      </trkpt>
      <trkpt lat="44.03556" lon="6.86306">
        <ele>1262.8000488281</ele>
        <time>2020-09-12T10:08:17.000Z</time>
      </trkpt>
      <trkpt lat="44.03568" lon="6.86301">
        <ele>1262.4000244141</ele>
        <time>2020-09-12T10:08:20.000Z</time>
      </trkpt>
      <trkpt lat="44.03578" lon="6.86299">
        <ele>1263</ele>
        <time>2020-09-12T10:08:25.000Z</time>
      </trkpt>
      <trkpt lat="44.03582" lon="6.86297">
        <ele>1264</ele>
        <time>2020-09-12T10:08:29.000Z</time>
      </trkpt>
      <trkpt lat="44.03583" lon="6.86297">
        <ele>1264.1999511719</ele>
        <time>2020-09-12T10:08:30.000Z</time>
      </trkpt>
      <trkpt lat="44.03587" lon="6.86297">
        <ele>1264.5999755859</ele>
        <time>2020-09-12T10:08:34.000Z</time>
      </trkpt>
      <trkpt lat="44.03589" lon="6.86296">
        <ele>1265</ele>
        <time>2020-09-12T10:08:36.000Z</time>
      </trkpt>
      <trkpt lat="44.03594" lon="6.86294">
        <ele>1266.1999511719</ele>
        <time>2020-09-12T10:08:42.000Z</time>
      </trkpt>
      <trkpt lat="44.03596" lon="6.86294">
        <ele>1266.5999755859</ele>
        <time>2020-09-12T10:08:44.000Z</time>
      </trkpt>
      <trkpt lat="44.03599" lon="6.86294">
        <ele>1267.1999511719</ele>
        <time>2020-09-12T10:08:47.000Z</time>
      </trkpt>
      <trkpt lat="44.03605" lon="6.86293">
        <ele>1268.4000244141</ele>
        <time>2020-09-12T10:08:53.000Z</time>
      </trkpt>
      <trkpt lat="44.03608" lon="6.86291">
        <ele>1269</ele>
        <time>2020-09-12T10:08:57.000Z</time>
      </trkpt>
      <trkpt lat="44.03609" lon="6.86292">
        <ele>1269.4000244141</ele>
        <time>2020-09-12T10:08:59.000Z</time>
      </trkpt>
      <trkpt lat="44.03614" lon="6.86293">
        <ele>1270.5999755859</ele>
        <time>2020-09-12T10:09:04.000Z</time>
      </trkpt>
      <trkpt lat="44.03616" lon="6.86293">
        <ele>1271.1999511719</ele>
        <time>2020-09-12T10:09:07.000Z</time>
      </trkpt>
      <trkpt lat="44.0362" lon="6.86294">
        <ele>1271.8000488281</ele>
        <time>2020-09-12T10:09:10.000Z</time>
      </trkpt>
      <trkpt lat="44.03625" lon="6.86296">
        <ele>1272.4000244141</ele>
        <time>2020-09-12T10:09:14.000Z</time>
      </trkpt>
      <trkpt lat="44.0363" lon="6.86297">
        <ele>1272.8000488281</ele>
        <time>2020-09-12T10:09:18.000Z</time>
      </trkpt>
      <trkpt lat="44.03635" lon="6.86297">
        <ele>1273.4000244141</ele>
        <time>2020-09-12T10:09:22.000Z</time>
      </trkpt>
      <trkpt lat="44.03643" lon="6.86294">
        <ele>1273.8000488281</ele>
        <time>2020-09-12T10:09:26.000Z</time>
      </trkpt>
      <trkpt lat="44.03646" lon="6.86291">
        <ele>1274</ele>
        <time>2020-09-12T10:09:27.000Z</time>
      </trkpt>
      <trkpt lat="44.03648" lon="6.86287">
        <ele>1274</ele>
        <time>2020-09-12T10:09:28.000Z</time>
      </trkpt>
      <trkpt lat="44.03651" lon="6.86274">
        <ele>1273.8000488281</ele>
        <time>2020-09-12T10:09:30.000Z</time>
      </trkpt>
      <trkpt lat="44.03655" lon="6.86248">
        <ele>1273.1999511719</ele>
        <time>2020-09-12T10:09:33.000Z</time>
      </trkpt>
      <trkpt lat="44.0366" lon="6.86234">
        <ele>1272.5999755859</ele>
        <time>2020-09-12T10:09:35.000Z</time>
      </trkpt>
      <trkpt lat="44.03663" lon="6.86227">
        <ele>1272.4000244141</ele>
        <time>2020-09-12T10:09:36.000Z</time>
      </trkpt>
      <trkpt lat="44.03665" lon="6.86222">
        <ele>1272</ele>
        <time>2020-09-12T10:09:37.000Z</time>
      </trkpt>
      <trkpt lat="44.03667" lon="6.86218">
        <ele>1271.5999755859</ele>
        <time>2020-09-12T10:09:38.000Z</time>
      </trkpt>
      <trkpt lat="44.03672" lon="6.86208">
        <ele>1271.4000244141</ele>
        <time>2020-09-12T10:09:41.000Z</time>
      </trkpt>
      <trkpt lat="44.03679" lon="6.86191">
        <ele>1272.5999755859</ele>
        <time>2020-09-12T10:09:48.000Z</time>
      </trkpt>
      <trkpt lat="44.0368" lon="6.86188">
        <ele>1272.8000488281</ele>
        <time>2020-09-12T10:09:49.000Z</time>
      </trkpt>
      <trkpt lat="44.03683" lon="6.86177">
        <ele>1273.8000488281</ele>
        <time>2020-09-12T10:09:54.000Z</time>
      </trkpt>
      <trkpt lat="44.03686" lon="6.8617">
        <ele>1274.1999511719</ele>
        <time>2020-09-12T10:09:57.000Z</time>
      </trkpt>
      <trkpt lat="44.03689" lon="6.8616">
        <ele>1275</ele>
        <time>2020-09-12T10:10:01.000Z</time>
      </trkpt>
      <trkpt lat="44.03693" lon="6.86148">
        <ele>1276</ele>
        <time>2020-09-12T10:10:07.000Z</time>
      </trkpt>
      <trkpt lat="44.03697" lon="6.86133">
        <ele>1277</ele>
        <time>2020-09-12T10:10:14.000Z</time>
      </trkpt>
      <trkpt lat="44.03699" lon="6.86125">
        <ele>1277.4000244141</ele>
        <time>2020-09-12T10:10:18.000Z</time>
      </trkpt>
      <trkpt lat="44.03701" lon="6.86117">
        <ele>1278.1999511719</ele>
        <time>2020-09-12T10:10:22.000Z</time>
      </trkpt>
      <trkpt lat="44.03704" lon="6.86104">
        <ele>1278.8000488281</ele>
        <time>2020-09-12T10:10:28.000Z</time>
      </trkpt>
      <trkpt lat="44.03706" lon="6.86097">
        <ele>1279.1999511719</ele>
        <time>2020-09-12T10:10:31.000Z</time>
      </trkpt>
      <trkpt lat="44.03707" lon="6.86085">
        <ele>1279.8000488281</ele>
        <time>2020-09-12T10:10:37.000Z</time>
      </trkpt>
      <trkpt lat="44.0371" lon="6.86079">
        <ele>1280.4000244141</ele>
        <time>2020-09-12T10:10:41.000Z</time>
      </trkpt>
      <trkpt lat="44.03711" lon="6.86071">
        <ele>1281.1999511719</ele>
        <time>2020-09-12T10:10:46.000Z</time>
      </trkpt>
      <trkpt lat="44.03712" lon="6.8607">
        <ele>1281.5999755859</ele>
        <time>2020-09-12T10:10:47.000Z</time>
      </trkpt>
      <trkpt lat="44.03715" lon="6.86061">
        <ele>1282.5999755859</ele>
        <time>2020-09-12T10:10:54.000Z</time>
      </trkpt>
      <trkpt lat="44.03718" lon="6.86049">
        <ele>1283.5999755859</ele>
        <time>2020-09-12T10:11:03.000Z</time>
      </trkpt>
      <trkpt lat="44.0372" lon="6.8604">
        <ele>1284.8000488281</ele>
        <time>2020-09-12T10:11:09.000Z</time>
      </trkpt>
      <trkpt lat="44.03721" lon="6.86034">
        <ele>1285.1999511719</ele>
        <time>2020-09-12T10:11:13.000Z</time>
      </trkpt>
      <trkpt lat="44.03723" lon="6.86026">
        <ele>1285.8000488281</ele>
        <time>2020-09-12T10:11:17.000Z</time>
      </trkpt>
      <trkpt lat="44.03725" lon="6.86016">
        <ele>1286.4000244141</ele>
        <time>2020-09-12T10:11:22.000Z</time>
      </trkpt>
      <trkpt lat="44.03726" lon="6.86009">
        <ele>1286.8000488281</ele>
        <time>2020-09-12T10:11:25.000Z</time>
      </trkpt>
      <trkpt lat="44.03728" lon="6.85993">
        <ele>1287.4000244141</ele>
        <time>2020-09-12T10:11:31.000Z</time>
      </trkpt>
      <trkpt lat="44.0373" lon="6.85964">
        <ele>1287.4000244141</ele>
        <time>2020-09-12T10:11:37.000Z</time>
      </trkpt>
      <trkpt lat="44.03732" lon="6.8594">
        <ele>1286.5999755859</ele>
        <time>2020-09-12T10:11:40.000Z</time>
      </trkpt>
      <trkpt lat="44.03737" lon="6.85924">
        <ele>1286</ele>
        <time>2020-09-12T10:11:42.000Z</time>
      </trkpt>
      <trkpt lat="44.0374" lon="6.85918">
        <ele>1285.8000488281</ele>
        <time>2020-09-12T10:11:43.000Z</time>
      </trkpt>
      <trkpt lat="44.03755" lon="6.85903">
        <ele>1285.1999511719</ele>
        <time>2020-09-12T10:11:46.000Z</time>
      </trkpt>
      <trkpt lat="44.03761" lon="6.85899">
        <ele>1284.8000488281</ele>
        <time>2020-09-12T10:11:47.000Z</time>
      </trkpt>
      <trkpt lat="44.03772" lon="6.85895">
        <ele>1284.4000244141</ele>
        <time>2020-09-12T10:11:49.000Z</time>
      </trkpt>
      <trkpt lat="44.03779" lon="6.85894">
        <ele>1284.1999511719</ele>
        <time>2020-09-12T10:11:50.000Z</time>
      </trkpt>
      <trkpt lat="44.03796" lon="6.85891">
        <ele>1283.5999755859</ele>
        <time>2020-09-12T10:11:53.000Z</time>
      </trkpt>
      <trkpt lat="44.03806" lon="6.85889">
        <ele>1283.4000244141</ele>
        <time>2020-09-12T10:11:55.000Z</time>
      </trkpt>
      <trkpt lat="44.03838" lon="6.85887">
        <ele>1283.4000244141</ele>
        <time>2020-09-12T10:12:02.000Z</time>
      </trkpt>
      <trkpt lat="44.03868" lon="6.85881">
        <ele>1283</ele>
        <time>2020-09-12T10:12:08.000Z</time>
      </trkpt>
      <trkpt lat="44.03902" lon="6.85861">
        <ele>1282.5999755859</ele>
        <time>2020-09-12T10:12:14.000Z</time>
      </trkpt>
      <trkpt lat="44.03925" lon="6.85847">
        <ele>1281.4000244141</ele>
        <time>2020-09-12T10:12:17.000Z</time>
      </trkpt>
      <trkpt lat="44.03939" lon="6.8584">
        <ele>1280.4000244141</ele>
        <time>2020-09-12T10:12:19.000Z</time>
      </trkpt>
      <trkpt lat="44.03961" lon="6.85834">
        <ele>1279</ele>
        <time>2020-09-12T10:12:22.000Z</time>
      </trkpt>
      <trkpt lat="44.03968" lon="6.85832">
        <ele>1278.8000488281</ele>
        <time>2020-09-12T10:12:23.000Z</time>
      </trkpt>
      <trkpt lat="44.0399" lon="6.85824">
        <ele>1278</ele>
        <time>2020-09-12T10:12:27.000Z</time>
      </trkpt>
      <trkpt lat="44.03995" lon="6.85822">
        <ele>1278</ele>
        <time>2020-09-12T10:12:28.000Z</time>
      </trkpt>
      <trkpt lat="44.04013" lon="6.85816">
        <ele>1277.8000488281</ele>
        <time>2020-09-12T10:12:33.000Z</time>
      </trkpt>
      <trkpt lat="44.04021" lon="6.85816">
        <ele>1278.8000488281</ele>
        <time>2020-09-12T10:12:38.000Z</time>
      </trkpt>
      <trkpt lat="44.04022" lon="6.85816">
        <ele>1279</ele>
        <time>2020-09-12T10:12:39.000Z</time>
      </trkpt>
      <trkpt lat="44.04028" lon="6.85816">
        <ele>1280</ele>
        <time>2020-09-12T10:12:44.000Z</time>
      </trkpt>
      <trkpt lat="44.04033" lon="6.85816">
        <ele>1281</ele>
        <time>2020-09-12T10:12:48.000Z</time>
      </trkpt>
      <trkpt lat="44.04034" lon="6.85816">
        <ele>1281.1999511719</ele>
        <time>2020-09-12T10:12:49.000Z</time>
      </trkpt>
      <trkpt lat="44.04039" lon="6.85815">
        <ele>1282.4000244141</ele>
        <time>2020-09-12T10:12:53.000Z</time>
      </trkpt>
      <trkpt lat="44.04045" lon="6.85816">
        <ele>1283.5999755859</ele>
        <time>2020-09-12T10:12:58.000Z</time>
      </trkpt>
      <trkpt lat="44.04055" lon="6.85816">
        <ele>1284.5999755859</ele>
        <time>2020-09-12T10:13:06.000Z</time>
      </trkpt>
      <trkpt lat="44.04056" lon="6.85816">
        <ele>1284.5999755859</ele>
        <time>2020-09-12T10:13:07.000Z</time>
      </trkpt>
      <trkpt lat="44.04064" lon="6.85815">
        <ele>1285.5999755859</ele>
        <time>2020-09-12T10:13:13.000Z</time>
      </trkpt>
      <trkpt lat="44.04065" lon="6.85815">
        <ele>1285.8000488281</ele>
        <time>2020-09-12T10:13:14.000Z</time>
      </trkpt>
      <trkpt lat="44.04077" lon="6.85814">
        <ele>1286.4000244141</ele>
        <time>2020-09-12T10:13:22.000Z</time>
      </trkpt>
      <trkpt lat="44.04083" lon="6.85814">
        <ele>1286.8000488281</ele>
        <time>2020-09-12T10:13:26.000Z</time>
      </trkpt>
      <trkpt lat="44.04091" lon="6.85812">
        <ele>1287.8000488281</ele>
        <time>2020-09-12T10:13:31.000Z</time>
      </trkpt>
      <trkpt lat="44.041" lon="6.85811">
        <ele>1288.8000488281</ele>
        <time>2020-09-12T10:13:37.000Z</time>
      </trkpt>
      <trkpt lat="44.04103" lon="6.85813">
        <ele>1289.4000244141</ele>
        <time>2020-09-12T10:13:40.000Z</time>
      </trkpt>
      <trkpt lat="44.04105" lon="6.85814">
        <ele>1289.8000488281</ele>
        <time>2020-09-12T10:13:42.000Z</time>
      </trkpt>
      <trkpt lat="44.0411" lon="6.85818">
        <ele>1291</ele>
        <time>2020-09-12T10:13:46.000Z</time>
      </trkpt>
      <trkpt lat="44.04112" lon="6.8582">
        <ele>1291.1999511719</ele>
        <time>2020-09-12T10:13:48.000Z</time>
      </trkpt>
      <trkpt lat="44.04119" lon="6.8583">
        <ele>1292</ele>
        <time>2020-09-12T10:13:56.000Z</time>
      </trkpt>
      <trkpt lat="44.04123" lon="6.85837">
        <ele>1293.4000244141</ele>
        <time>2020-09-12T10:14:02.000Z</time>
      </trkpt>
      <trkpt lat="44.04123" lon="6.8584">
        <ele>1293.8000488281</ele>
        <time>2020-09-12T10:14:04.000Z</time>
      </trkpt>
      <trkpt lat="44.04124" lon="6.85842">
        <ele>1294</ele>
        <time>2020-09-12T10:14:05.000Z</time>
      </trkpt>
      <trkpt lat="44.04124" lon="6.85844">
        <ele>1294.4000244141</ele>
        <time>2020-09-12T10:14:07.000Z</time>
      </trkpt>
      <trkpt lat="44.04125" lon="6.85848">
        <ele>1294.8000488281</ele>
        <time>2020-09-12T10:14:10.000Z</time>
      </trkpt>
      <trkpt lat="44.04127" lon="6.85856">
        <ele>1295.4000244141</ele>
        <time>2020-09-12T10:14:16.000Z</time>
      </trkpt>
      <trkpt lat="44.04127" lon="6.85857">
        <ele>1295.5999755859</ele>
        <time>2020-09-12T10:14:17.000Z</time>
      </trkpt>
      <trkpt lat="44.04127" lon="6.85866">
        <ele>1296.5999755859</ele>
        <time>2020-09-12T10:14:23.000Z</time>
      </trkpt>
      <trkpt lat="44.04126" lon="6.85871">
        <ele>1297.1999511719</ele>
        <time>2020-09-12T10:14:27.000Z</time>
      </trkpt>
      <trkpt lat="44.04126" lon="6.85873">
        <ele>1297.5999755859</ele>
        <time>2020-09-12T10:14:29.000Z</time>
      </trkpt>
      <trkpt lat="44.04123" lon="6.85881">
        <ele>1298.5999755859</ele>
        <time>2020-09-12T10:14:37.000Z</time>
      </trkpt>
      <trkpt lat="44.04119" lon="6.85888">
        <ele>1299.5999755859</ele>
        <time>2020-09-12T10:14:44.000Z</time>
      </trkpt>
      <trkpt lat="44.04118" lon="6.85889">
        <ele>1299.8000488281</ele>
        <time>2020-09-12T10:14:45.000Z</time>
      </trkpt>
      <trkpt lat="44.04113" lon="6.85899">
        <ele>1300.1999511719</ele>
        <time>2020-09-12T10:14:52.000Z</time>
      </trkpt>
      <trkpt lat="44.04108" lon="6.85904">
        <ele>1300.5999755859</ele>
        <time>2020-09-12T10:14:56.000Z</time>
      </trkpt>
      <trkpt lat="44.04105" lon="6.85909">
        <ele>1301</ele>
        <time>2020-09-12T10:14:59.000Z</time>
      </trkpt>
      <trkpt lat="44.04096" lon="6.85917">
        <ele>1301.4000244141</ele>
        <time>2020-09-12T10:15:06.000Z</time>
      </trkpt>
      <trkpt lat="44.04094" lon="6.85918">
        <ele>1301.8000488281</ele>
        <time>2020-09-12T10:15:08.000Z</time>
      </trkpt>
      <trkpt lat="44.04089" lon="6.85921">
        <ele>1302.8000488281</ele>
        <time>2020-09-12T10:15:14.000Z</time>
      </trkpt>
      <trkpt lat="44.04084" lon="6.85924">
        <ele>1304</ele>
        <time>2020-09-12T10:15:19.000Z</time>
      </trkpt>
      <trkpt lat="44.0408" lon="6.85925">
        <ele>1304.5999755859</ele>
        <time>2020-09-12T10:15:23.000Z</time>
      </trkpt>
      <trkpt lat="44.04077" lon="6.85925">
        <ele>1305</ele>
        <time>2020-09-12T10:15:26.000Z</time>
      </trkpt>
      <trkpt lat="44.04072" lon="6.85928">
        <ele>1305.8000488281</ele>
        <time>2020-09-12T10:15:32.000Z</time>
      </trkpt>
      <trkpt lat="44.04071" lon="6.85928">
        <ele>1306</ele>
        <time>2020-09-12T10:15:33.000Z</time>
      </trkpt>
      <trkpt lat="44.04061" lon="6.85932">
        <ele>1307</ele>
        <time>2020-09-12T10:15:40.000Z</time>
      </trkpt>
      <trkpt lat="44.04058" lon="6.85933">
        <ele>1307.1999511719</ele>
        <time>2020-09-12T10:15:42.000Z</time>
      </trkpt>
      <trkpt lat="44.04047" lon="6.85936">
        <ele>1307.8000488281</ele>
        <time>2020-09-12T10:15:49.000Z</time>
      </trkpt>
      <trkpt lat="44.04044" lon="6.85937">
        <ele>1308.1999511719</ele>
        <time>2020-09-12T10:15:51.000Z</time>
      </trkpt>
      <trkpt lat="44.04039" lon="6.85938">
        <ele>1308.8000488281</ele>
        <time>2020-09-12T10:15:55.000Z</time>
      </trkpt>
      <trkpt lat="44.04036" lon="6.85939">
        <ele>1309.1999511719</ele>
        <time>2020-09-12T10:15:58.000Z</time>
      </trkpt>
      <trkpt lat="44.0403" lon="6.85941">
        <ele>1309.8000488281</ele>
        <time>2020-09-12T10:16:03.000Z</time>
      </trkpt>
      <trkpt lat="44.04025" lon="6.85942">
        <ele>1310.4000244141</ele>
        <time>2020-09-12T10:16:07.000Z</time>
      </trkpt>
      <trkpt lat="44.0402" lon="6.85943">
        <ele>1310.8000488281</ele>
        <time>2020-09-12T10:16:11.000Z</time>
      </trkpt>
      <trkpt lat="44.04012" lon="6.85946">
        <ele>1311.4000244141</ele>
        <time>2020-09-12T10:16:17.000Z</time>
      </trkpt>
      <trkpt lat="44.04007" lon="6.8595">
        <ele>1311.5999755859</ele>
        <time>2020-09-12T10:16:21.000Z</time>
      </trkpt>
      <trkpt lat="44.03997" lon="6.8596">
        <ele>1312.4000244141</ele>
        <time>2020-09-12T10:16:29.000Z</time>
      </trkpt>
      <trkpt lat="44.03993" lon="6.85966">
        <ele>1313.4000244141</ele>
        <time>2020-09-12T10:16:35.000Z</time>
      </trkpt>
      <trkpt lat="44.03991" lon="6.85968">
        <ele>1313.8000488281</ele>
        <time>2020-09-12T10:16:37.000Z</time>
      </trkpt>
      <trkpt lat="44.03989" lon="6.85973">
        <ele>1314.5999755859</ele>
        <time>2020-09-12T10:16:42.000Z</time>
      </trkpt>
      <trkpt lat="44.03987" lon="6.85977">
        <ele>1315.4000244141</ele>
        <time>2020-09-12T10:16:46.000Z</time>
      </trkpt>
      <trkpt lat="44.03986" lon="6.85978">
        <ele>1315.5999755859</ele>
        <time>2020-09-12T10:16:47.000Z</time>
      </trkpt>
      <trkpt lat="44.03986" lon="6.85979">
        <ele>1315.8000488281</ele>
        <time>2020-09-12T10:16:48.000Z</time>
      </trkpt>
      <trkpt lat="44.03983" lon="6.85983">
        <ele>1316.4000244141</ele>
        <time>2020-09-12T10:16:52.000Z</time>
      </trkpt>
      <trkpt lat="44.03982" lon="6.85985">
        <ele>1316.8000488281</ele>
        <time>2020-09-12T10:16:55.000Z</time>
      </trkpt>
      <trkpt lat="44.03979" lon="6.85991">
        <ele>1317.8000488281</ele>
        <time>2020-09-12T10:17:01.000Z</time>
      </trkpt>
      <trkpt lat="44.03974" lon="6.85999">
        <ele>1319</ele>
        <time>2020-09-12T10:17:08.000Z</time>
      </trkpt>
      <trkpt lat="44.03973" lon="6.86">
        <ele>1319.1999511719</ele>
        <time>2020-09-12T10:17:09.000Z</time>
      </trkpt>
      <trkpt lat="44.03973" lon="6.86001">
        <ele>1319.1999511719</ele>
        <time>2020-09-12T10:17:10.000Z</time>
      </trkpt>
      <trkpt lat="44.03969" lon="6.86006">
        <ele>1319.8000488281</ele>
        <time>2020-09-12T10:17:15.000Z</time>
      </trkpt>
      <trkpt lat="44.03969" lon="6.86007">
        <ele>1320</ele>
        <time>2020-09-12T10:17:16.000Z</time>
      </trkpt>
      <trkpt lat="44.03964" lon="6.86014">
        <ele>1321</ele>
        <time>2020-09-12T10:17:22.000Z</time>
      </trkpt>
      <trkpt lat="44.03963" lon="6.86016">
        <ele>1321.1999511719</ele>
        <time>2020-09-12T10:17:24.000Z</time>
      </trkpt>
      <trkpt lat="44.03958" lon="6.86022">
        <ele>1322.1999511719</ele>
        <time>2020-09-12T10:17:30.000Z</time>
      </trkpt>
      <trkpt lat="44.03957" lon="6.86023">
        <ele>1322.1999511719</ele>
        <time>2020-09-12T10:17:31.000Z</time>
      </trkpt>
      <trkpt lat="44.03956" lon="6.86026">
        <ele>1322.5999755859</ele>
        <time>2020-09-12T10:17:34.000Z</time>
      </trkpt>
      <trkpt lat="44.03952" lon="6.8603">
        <ele>1323.1999511719</ele>
        <time>2020-09-12T10:17:38.000Z</time>
      </trkpt>
      <trkpt lat="44.03952" lon="6.86031">
        <ele>1323.4000244141</ele>
        <time>2020-09-12T10:17:39.000Z</time>
      </trkpt>
      <trkpt lat="44.03946" lon="6.86036">
        <ele>1324</ele>
        <time>2020-09-12T10:17:45.000Z</time>
      </trkpt>
      <trkpt lat="44.03942" lon="6.86042">
        <ele>1324.4000244141</ele>
        <time>2020-09-12T10:17:49.000Z</time>
      </trkpt>
      <trkpt lat="44.0394" lon="6.86047">
        <ele>1324.5999755859</ele>
        <time>2020-09-12T10:17:52.000Z</time>
      </trkpt>
      <trkpt lat="44.03936" lon="6.86056">
        <ele>1325.4000244141</ele>
        <time>2020-09-12T10:17:58.000Z</time>
      </trkpt>
      <trkpt lat="44.03929" lon="6.86066">
        <ele>1326.1999511719</ele>
        <time>2020-09-12T10:18:05.000Z</time>
      </trkpt>
      <trkpt lat="44.03929" lon="6.86068">
        <ele>1326.1999511719</ele>
        <time>2020-09-12T10:18:06.000Z</time>
      </trkpt>
      <trkpt lat="44.03927" lon="6.86074">
        <ele>1326.4000244141</ele>
        <time>2020-09-12T10:18:09.000Z</time>
      </trkpt>
      <trkpt lat="44.03923" lon="6.86081">
        <ele>1326.8000488281</ele>
        <time>2020-09-12T10:18:13.000Z</time>
      </trkpt>
      <trkpt lat="44.03923" lon="6.86083">
        <ele>1327</ele>
        <time>2020-09-12T10:18:14.000Z</time>
      </trkpt>
      <trkpt lat="44.0392" lon="6.86089">
        <ele>1327.4000244141</ele>
        <time>2020-09-12T10:18:17.000Z</time>
      </trkpt>
      <trkpt lat="44.03917" lon="6.86099">
        <ele>1327.5999755859</ele>
        <time>2020-09-12T10:18:21.000Z</time>
      </trkpt>
      <trkpt lat="44.03915" lon="6.86111">
        <ele>1327.5999755859</ele>
        <time>2020-09-12T10:18:26.000Z</time>
      </trkpt>
      <trkpt lat="44.03915" lon="6.86126">
        <ele>1328</ele>
        <time>2020-09-12T10:18:33.000Z</time>
      </trkpt>
      <trkpt lat="44.03915" lon="6.86134">
        <ele>1328.4000244141</ele>
        <time>2020-09-12T10:18:37.000Z</time>
      </trkpt>
      <trkpt lat="44.03917" lon="6.86141">
        <ele>1328.8000488281</ele>
        <time>2020-09-12T10:18:40.000Z</time>
      </trkpt>
      <trkpt lat="44.03918" lon="6.86148">
        <ele>1329.5999755859</ele>
        <time>2020-09-12T10:18:45.000Z</time>
      </trkpt>
      <trkpt lat="44.03919" lon="6.8615">
        <ele>1330.4000244141</ele>
        <time>2020-09-12T10:18:47.000Z</time>
      </trkpt>
      <trkpt lat="44.0392" lon="6.86153">
        <ele>1330.8000488281</ele>
        <time>2020-09-12T10:18:49.000Z</time>
      </trkpt>
      <trkpt lat="44.03923" lon="6.8616">
        <ele>1331.5999755859</ele>
        <time>2020-09-12T10:18:54.000Z</time>
      </trkpt>
      <trkpt lat="44.03924" lon="6.86162">
        <ele>1331.8000488281</ele>
        <time>2020-09-12T10:18:56.000Z</time>
      </trkpt>
      <trkpt lat="44.0393" lon="6.86172">
        <ele>1332.1999511719</ele>
        <time>2020-09-12T10:19:02.000Z</time>
      </trkpt>
      <trkpt lat="44.0394" lon="6.86184">
        <ele>1333</ele>
        <time>2020-09-12T10:19:10.000Z</time>
      </trkpt>
      <trkpt lat="44.03952" lon="6.86198">
        <ele>1333.5999755859</ele>
        <time>2020-09-12T10:19:20.000Z</time>
      </trkpt>
      <trkpt lat="44.03955" lon="6.86202">
        <ele>1334</ele>
        <time>2020-09-12T10:19:23.000Z</time>
      </trkpt>
      <trkpt lat="44.0396" lon="6.86208">
        <ele>1334.5999755859</ele>
        <time>2020-09-12T10:19:27.000Z</time>
      </trkpt>
      <trkpt lat="44.03963" lon="6.86213">
        <ele>1335</ele>
        <time>2020-09-12T10:19:30.000Z</time>
      </trkpt>
      <trkpt lat="44.03968" lon="6.86219">
        <ele>1335.8000488281</ele>
        <time>2020-09-12T10:19:34.000Z</time>
      </trkpt>
      <trkpt lat="44.03972" lon="6.86223">
        <ele>1336.1999511719</ele>
        <time>2020-09-12T10:19:38.000Z</time>
      </trkpt>
      <trkpt lat="44.03975" lon="6.86227">
        <ele>1336.8000488281</ele>
        <time>2020-09-12T10:19:41.000Z</time>
      </trkpt>
      <trkpt lat="44.03978" lon="6.8623">
        <ele>1337.1999511719</ele>
        <time>2020-09-12T10:19:43.000Z</time>
      </trkpt>
      <trkpt lat="44.03987" lon="6.86242">
        <ele>1338.1999511719</ele>
        <time>2020-09-12T10:19:51.000Z</time>
      </trkpt>
      <trkpt lat="44.03988" lon="6.86243">
        <ele>1338.1999511719</ele>
        <time>2020-09-12T10:19:52.000Z</time>
      </trkpt>
      <trkpt lat="44.03997" lon="6.86258">
        <ele>1339</ele>
        <time>2020-09-12T10:20:00.000Z</time>
      </trkpt>
      <trkpt lat="44.04" lon="6.86264">
        <ele>1339.1999511719</ele>
        <time>2020-09-12T10:20:03.000Z</time>
      </trkpt>
      <trkpt lat="44.04007" lon="6.86278">
        <ele>1339.8000488281</ele>
        <time>2020-09-12T10:20:10.000Z</time>
      </trkpt>
      <trkpt lat="44.04012" lon="6.86287">
        <ele>1340.4000244141</ele>
        <time>2020-09-12T10:20:14.000Z</time>
      </trkpt>
      <trkpt lat="44.04017" lon="6.86295">
        <ele>1340.5999755859</ele>
        <time>2020-09-12T10:20:17.000Z</time>
      </trkpt>
      <trkpt lat="44.04029" lon="6.86315">
        <ele>1341.1999511719</ele>
        <time>2020-09-12T10:20:25.000Z</time>
      </trkpt>
      <trkpt lat="44.04039" lon="6.86333">
        <ele>1341.1999511719</ele>
        <time>2020-09-12T10:20:30.000Z</time>
      </trkpt>
      <trkpt lat="44.04047" lon="6.86352">
        <ele>1341</ele>
        <time>2020-09-12T10:20:36.000Z</time>
      </trkpt>
      <trkpt lat="44.0405" lon="6.86364">
        <ele>1341.4000244141</ele>
        <time>2020-09-12T10:20:40.000Z</time>
      </trkpt>
      <trkpt lat="44.0405" lon="6.86371">
        <ele>1342</ele>
        <time>2020-09-12T10:20:43.000Z</time>
      </trkpt>
      <trkpt lat="44.04051" lon="6.8638">
        <ele>1342.5999755859</ele>
        <time>2020-09-12T10:20:46.000Z</time>
      </trkpt>
      <trkpt lat="44.0405" lon="6.86395">
        <ele>1343</ele>
        <time>2020-09-12T10:20:50.000Z</time>
      </trkpt>
      <trkpt lat="44.04043" lon="6.86417">
        <ele>1342.8000488281</ele>
        <time>2020-09-12T10:20:55.000Z</time>
      </trkpt>
      <trkpt lat="44.04034" lon="6.86432">
        <ele>1342.4000244141</ele>
        <time>2020-09-12T10:21:00.000Z</time>
      </trkpt>
      <trkpt lat="44.04021" lon="6.86439">
        <ele>1342.5999755859</ele>
        <time>2020-09-12T10:21:06.000Z</time>
      </trkpt>
      <trkpt lat="44.04002" lon="6.86445">
        <ele>1342.4000244141</ele>
        <time>2020-09-12T10:21:11.000Z</time>
      </trkpt>
      <trkpt lat="44.03978" lon="6.86459">
        <ele>1341.5999755859</ele>
        <time>2020-09-12T10:21:16.000Z</time>
      </trkpt>
      <trkpt lat="44.03973" lon="6.86462">
        <ele>1341.4000244141</ele>
        <time>2020-09-12T10:21:17.000Z</time>
      </trkpt>
      <trkpt lat="44.03959" lon="6.86471">
        <ele>1341</ele>
        <time>2020-09-12T10:21:21.000Z</time>
      </trkpt>
      <trkpt lat="44.0394" lon="6.86488">
        <ele>1341.5999755859</ele>
        <time>2020-09-12T10:21:28.000Z</time>
      </trkpt>
      <trkpt lat="44.03922" lon="6.86514">
        <ele>1341.4000244141</ele>
        <time>2020-09-12T10:21:34.000Z</time>
      </trkpt>
      <trkpt lat="44.03909" lon="6.86534">
        <ele>1341</ele>
        <time>2020-09-12T10:21:39.000Z</time>
      </trkpt>
      <trkpt lat="44.03898" lon="6.86551">
        <ele>1341.4000244141</ele>
        <time>2020-09-12T10:21:46.000Z</time>
      </trkpt>
      <trkpt lat="44.0389" lon="6.86561">
        <ele>1342.4000244141</ele>
        <time>2020-09-12T10:21:52.000Z</time>
      </trkpt>
      <trkpt lat="44.03881" lon="6.86574">
        <ele>1343.4000244141</ele>
        <time>2020-09-12T10:21:59.000Z</time>
      </trkpt>
      <trkpt lat="44.03879" lon="6.86577">
        <ele>1343.5999755859</ele>
        <time>2020-09-12T10:22:00.000Z</time>
      </trkpt>
      <trkpt lat="44.03871" lon="6.8659">
        <ele>1344.1999511719</ele>
        <time>2020-09-12T10:22:06.000Z</time>
      </trkpt>
      <trkpt lat="44.03868" lon="6.86599">
        <ele>1344.5999755859</ele>
        <time>2020-09-12T10:22:10.000Z</time>
      </trkpt>
      <trkpt lat="44.03864" lon="6.86605">
        <ele>1345</ele>
        <time>2020-09-12T10:22:13.000Z</time>
      </trkpt>
      <trkpt lat="44.03858" lon="6.86623">
        <ele>1345.4000244141</ele>
        <time>2020-09-12T10:22:20.000Z</time>
      </trkpt>
      <trkpt lat="44.03853" lon="6.86636">
        <ele>1345.8000488281</ele>
        <time>2020-09-12T10:22:25.000Z</time>
      </trkpt>
      <trkpt lat="44.03851" lon="6.8664">
        <ele>1346</ele>
        <time>2020-09-12T10:22:27.000Z</time>
      </trkpt>
      <trkpt lat="44.0384" lon="6.86667">
        <ele>1346.5999755859</ele>
        <time>2020-09-12T10:22:37.000Z</time>
      </trkpt>
      <trkpt lat="44.03839" lon="6.86669">
        <ele>1346.8000488281</ele>
        <time>2020-09-12T10:22:38.000Z</time>
      </trkpt>
      <trkpt lat="44.03829" lon="6.86687">
        <ele>1347.8000488281</ele>
        <time>2020-09-12T10:22:46.000Z</time>
      </trkpt>
      <trkpt lat="44.03818" lon="6.86702">
        <ele>1348.5999755859</ele>
        <time>2020-09-12T10:22:54.000Z</time>
      </trkpt>
      <trkpt lat="44.03816" lon="6.86705">
        <ele>1349</ele>
        <time>2020-09-12T10:22:56.000Z</time>
      </trkpt>
      <trkpt lat="44.03806" lon="6.86709">
        <ele>1350</ele>
        <time>2020-09-12T10:23:01.000Z</time>
      </trkpt>
      <trkpt lat="44.03802" lon="6.86709">
        <ele>1350.1999511719</ele>
        <time>2020-09-12T10:23:02.000Z</time>
      </trkpt>
      <trkpt lat="44.03793" lon="6.86711">
        <ele>1350</ele>
        <time>2020-09-12T10:23:05.000Z</time>
      </trkpt>
      <trkpt lat="44.03779" lon="6.86717">
        <ele>1349.8000488281</ele>
        <time>2020-09-12T10:23:10.000Z</time>
      </trkpt>
      <trkpt lat="44.03772" lon="6.86718">
        <ele>1350.1999511719</ele>
        <time>2020-09-12T10:23:16.000Z</time>
      </trkpt>
      <trkpt lat="44.03767" lon="6.86719">
        <ele>1351.1999511719</ele>
        <time>2020-09-12T10:23:20.000Z</time>
      </trkpt>
      <trkpt lat="44.0376" lon="6.86719">
        <ele>1352.1999511719</ele>
        <time>2020-09-12T10:23:26.000Z</time>
      </trkpt>
      <trkpt lat="44.03759" lon="6.86719">
        <ele>1352.4000244141</ele>
        <time>2020-09-12T10:23:27.000Z</time>
      </trkpt>
      <trkpt lat="44.03752" lon="6.86719">
        <ele>1353.4000244141</ele>
        <time>2020-09-12T10:23:33.000Z</time>
      </trkpt>
      <trkpt lat="44.0375" lon="6.86719">
        <ele>1353.8000488281</ele>
        <time>2020-09-12T10:23:35.000Z</time>
      </trkpt>
      <trkpt lat="44.03747" lon="6.86718">
        <ele>1354.4000244141</ele>
        <time>2020-09-12T10:23:38.000Z</time>
      </trkpt>
      <trkpt lat="44.03742" lon="6.86716">
        <ele>1355.5999755859</ele>
        <time>2020-09-12T10:23:43.000Z</time>
      </trkpt>
      <trkpt lat="44.03741" lon="6.86716">
        <ele>1355.5999755859</ele>
        <time>2020-09-12T10:23:44.000Z</time>
      </trkpt>
      <trkpt lat="44.03736" lon="6.86713">
        <ele>1356.5999755859</ele>
        <time>2020-09-12T10:23:49.000Z</time>
      </trkpt>
      <trkpt lat="44.03733" lon="6.8671">
        <ele>1357.4000244141</ele>
        <time>2020-09-12T10:23:53.000Z</time>
      </trkpt>
      <trkpt lat="44.03731" lon="6.86708">
        <ele>1357.8000488281</ele>
        <time>2020-09-12T10:23:55.000Z</time>
      </trkpt>
      <trkpt lat="44.03724" lon="6.86702">
        <ele>1358.5999755859</ele>
        <time>2020-09-12T10:24:02.000Z</time>
      </trkpt>
      <trkpt lat="44.03723" lon="6.86699">
        <ele>1358.8000488281</ele>
        <time>2020-09-12T10:24:04.000Z</time>
      </trkpt>
      <trkpt lat="44.03716" lon="6.86692">
        <ele>1359.1999511719</ele>
        <time>2020-09-12T10:24:10.000Z</time>
      </trkpt>
      <trkpt lat="44.03707" lon="6.86687">
        <ele>1359.5999755859</ele>
        <time>2020-09-12T10:24:17.000Z</time>
      </trkpt>
      <trkpt lat="44.03704" lon="6.86686">
        <ele>1359.8000488281</ele>
        <time>2020-09-12T10:24:19.000Z</time>
      </trkpt>
      <trkpt lat="44.03697" lon="6.86685">
        <ele>1360.5999755859</ele>
        <time>2020-09-12T10:24:25.000Z</time>
      </trkpt>
      <trkpt lat="44.03694" lon="6.86684">
        <ele>1361</ele>
        <time>2020-09-12T10:24:27.000Z</time>
      </trkpt>
      <trkpt lat="44.03688" lon="6.86683">
        <ele>1361.4000244141</ele>
        <time>2020-09-12T10:24:32.000Z</time>
      </trkpt>
      <trkpt lat="44.03683" lon="6.86681">
        <ele>1362</ele>
        <time>2020-09-12T10:24:36.000Z</time>
      </trkpt>
      <trkpt lat="44.03679" lon="6.86681">
        <ele>1362.4000244141</ele>
        <time>2020-09-12T10:24:40.000Z</time>
      </trkpt>
      <trkpt lat="44.03675" lon="6.8668">
        <ele>1363</ele>
        <time>2020-09-12T10:24:43.000Z</time>
      </trkpt>
      <trkpt lat="44.03666" lon="6.86679">
        <ele>1363.4000244141</ele>
        <time>2020-09-12T10:24:49.000Z</time>
      </trkpt>
      <trkpt lat="44.03656" lon="6.86678">
        <ele>1364</ele>
        <time>2020-09-12T10:24:57.000Z</time>
      </trkpt>
      <trkpt lat="44.03653" lon="6.86679">
        <ele>1364.4000244141</ele>
        <time>2020-09-12T10:24:59.000Z</time>
      </trkpt>
      <trkpt lat="44.03652" lon="6.86679">
        <ele>1364.5999755859</ele>
        <time>2020-09-12T10:25:00.000Z</time>
      </trkpt>
      <trkpt lat="44.03649" lon="6.8668">
        <ele>1365</ele>
        <time>2020-09-12T10:25:03.000Z</time>
      </trkpt>
      <trkpt lat="44.03643" lon="6.86681">
        <ele>1365.8000488281</ele>
        <time>2020-09-12T10:25:08.000Z</time>
      </trkpt>
      <trkpt lat="44.03641" lon="6.86682">
        <ele>1366.1999511719</ele>
        <time>2020-09-12T10:25:10.000Z</time>
      </trkpt>
      <trkpt lat="44.03634" lon="6.86683">
        <ele>1367</ele>
        <time>2020-09-12T10:25:16.000Z</time>
      </trkpt>
      <trkpt lat="44.03633" lon="6.86683">
        <ele>1367.1999511719</ele>
        <time>2020-09-12T10:25:17.000Z</time>
      </trkpt>
      <trkpt lat="44.03625" lon="6.86683">
        <ele>1368.4000244141</ele>
        <time>2020-09-12T10:25:24.000Z</time>
      </trkpt>
      <trkpt lat="44.03618" lon="6.86682">
        <ele>1369.5999755859</ele>
        <time>2020-09-12T10:25:30.000Z</time>
      </trkpt>
      <trkpt lat="44.03614" lon="6.86682">
        <ele>1370</ele>
        <time>2020-09-12T10:25:33.000Z</time>
      </trkpt>
      <trkpt lat="44.03609" lon="6.86682">
        <ele>1370.5999755859</ele>
        <time>2020-09-12T10:25:37.000Z</time>
      </trkpt>
      <trkpt lat="44.03602" lon="6.8668">
        <ele>1371.1999511719</ele>
        <time>2020-09-12T10:25:42.000Z</time>
      </trkpt>
      <trkpt lat="44.03598" lon="6.86679">
        <ele>1371.8000488281</ele>
        <time>2020-09-12T10:25:45.000Z</time>
      </trkpt>
      <trkpt lat="44.03591" lon="6.86681">
        <ele>1372.1999511719</ele>
        <time>2020-09-12T10:25:49.000Z</time>
      </trkpt>
      <trkpt lat="44.03574" lon="6.86686">
        <ele>1372.8000488281</ele>
        <time>2020-09-12T10:25:58.000Z</time>
      </trkpt>
      <trkpt lat="44.03564" lon="6.8669">
        <ele>1373.8000488281</ele>
        <time>2020-09-12T10:26:06.000Z</time>
      </trkpt>
      <trkpt lat="44.03555" lon="6.86694">
        <ele>1374.8000488281</ele>
        <time>2020-09-12T10:26:14.000Z</time>
      </trkpt>
      <trkpt lat="44.03553" lon="6.86695">
        <ele>1375.1999511719</ele>
        <time>2020-09-12T10:26:16.000Z</time>
      </trkpt>
      <trkpt lat="44.03549" lon="6.86697">
        <ele>1375.5999755859</ele>
        <time>2020-09-12T10:26:20.000Z</time>
      </trkpt>
      <trkpt lat="44.03546" lon="6.86698">
        <ele>1375.8000488281</ele>
        <time>2020-09-12T10:26:22.000Z</time>
      </trkpt>
      <trkpt lat="44.03545" lon="6.86698">
        <ele>1376</ele>
        <time>2020-09-12T10:26:23.000Z</time>
      </trkpt>
      <trkpt lat="44.03544" lon="6.86698">
        <ele>1376.1999511719</ele>
        <time>2020-09-12T10:26:24.000Z</time>
      </trkpt>
      <trkpt lat="44.03539" lon="6.86701">
        <ele>1377</ele>
        <time>2020-09-12T10:26:29.000Z</time>
      </trkpt>
      <trkpt lat="44.03538" lon="6.86702">
        <ele>1377.1999511719</ele>
        <time>2020-09-12T10:26:30.000Z</time>
      </trkpt>
      <trkpt lat="44.03532" lon="6.86706">
        <ele>1378.4000244141</ele>
        <time>2020-09-12T10:26:36.000Z</time>
      </trkpt>
      <trkpt lat="44.03531" lon="6.86707">
        <ele>1378.5999755859</ele>
        <time>2020-09-12T10:26:37.000Z</time>
      </trkpt>
      <trkpt lat="44.03522" lon="6.86716">
        <ele>1379.1999511719</ele>
        <time>2020-09-12T10:26:45.000Z</time>
      </trkpt>
      <trkpt lat="44.03519" lon="6.8672">
        <ele>1379.4000244141</ele>
        <time>2020-09-12T10:26:48.000Z</time>
      </trkpt>
      <trkpt lat="44.03516" lon="6.86724">
        <ele>1379.8000488281</ele>
        <time>2020-09-12T10:26:51.000Z</time>
      </trkpt>
      <trkpt lat="44.03508" lon="6.86735">
        <ele>1380.5999755859</ele>
        <time>2020-09-12T10:26:58.000Z</time>
      </trkpt>
      <trkpt lat="44.03507" lon="6.86737">
        <ele>1380.5999755859</ele>
        <time>2020-09-12T10:26:59.000Z</time>
      </trkpt>
      <trkpt lat="44.035" lon="6.86747">
        <ele>1381.8000488281</ele>
        <time>2020-09-12T10:27:06.000Z</time>
      </trkpt>
      <trkpt lat="44.03497" lon="6.86751">
        <ele>1382.4000244141</ele>
        <time>2020-09-12T10:27:09.000Z</time>
      </trkpt>
      <trkpt lat="44.03496" lon="6.86754">
        <ele>1382.8000488281</ele>
        <time>2020-09-12T10:27:11.000Z</time>
      </trkpt>
      <trkpt lat="44.0349" lon="6.86763">
        <ele>1383.5999755859</ele>
        <time>2020-09-12T10:27:17.000Z</time>
      </trkpt>
      <trkpt lat="44.03487" lon="6.8677">
        <ele>1383.8000488281</ele>
        <time>2020-09-12T10:27:21.000Z</time>
      </trkpt>
      <trkpt lat="44.03482" lon="6.8678">
        <ele>1384.5999755859</ele>
        <time>2020-09-12T10:27:26.000Z</time>
      </trkpt>
      <trkpt lat="44.03479" lon="6.86788">
        <ele>1384.8000488281</ele>
        <time>2020-09-12T10:27:30.000Z</time>
      </trkpt>
      <trkpt lat="44.03476" lon="6.86796">
        <ele>1385.4000244141</ele>
        <time>2020-09-12T10:27:34.000Z</time>
      </trkpt>
      <trkpt lat="44.03473" lon="6.86806">
        <ele>1385.8000488281</ele>
        <time>2020-09-12T10:27:39.000Z</time>
      </trkpt>
      <trkpt lat="44.03472" lon="6.86811">
        <ele>1386.1999511719</ele>
        <time>2020-09-12T10:27:41.000Z</time>
      </trkpt>
      <trkpt lat="44.03469" lon="6.86822">
        <ele>1387</ele>
        <time>2020-09-12T10:27:46.000Z</time>
      </trkpt>
      <trkpt lat="44.03467" lon="6.86827">
        <ele>1387.4000244141</ele>
        <time>2020-09-12T10:27:49.000Z</time>
      </trkpt>
      <trkpt lat="44.03465" lon="6.86832">
        <ele>1388</ele>
        <time>2020-09-12T10:27:52.000Z</time>
      </trkpt>
      <trkpt lat="44.03462" lon="6.86838">
        <ele>1388.8000488281</ele>
        <time>2020-09-12T10:27:56.000Z</time>
      </trkpt>
      <trkpt lat="44.03461" lon="6.86841">
        <ele>1389.1999511719</ele>
        <time>2020-09-12T10:27:58.000Z</time>
      </trkpt>
      <trkpt lat="44.03458" lon="6.86847">
        <ele>1390.1999511719</ele>
        <time>2020-09-12T10:28:03.000Z</time>
      </trkpt>
      <trkpt lat="44.03456" lon="6.86854">
        <ele>1391.1999511719</ele>
        <time>2020-09-12T10:28:09.000Z</time>
      </trkpt>
      <trkpt lat="44.03455" lon="6.86856">
        <ele>1391.1999511719</ele>
        <time>2020-09-12T10:28:10.000Z</time>
      </trkpt>
      <trkpt lat="44.03453" lon="6.86863">
        <ele>1392.4000244141</ele>
        <time>2020-09-12T10:28:16.000Z</time>
      </trkpt>
      <trkpt lat="44.03451" lon="6.86866">
        <ele>1393.1999511719</ele>
        <time>2020-09-12T10:28:19.000Z</time>
      </trkpt>
      <trkpt lat="44.0345" lon="6.86868">
        <ele>1393.5999755859</ele>
        <time>2020-09-12T10:28:21.000Z</time>
      </trkpt>
      <trkpt lat="44.03449" lon="6.86869">
        <ele>1393.8000488281</ele>
        <time>2020-09-12T10:28:22.000Z</time>
      </trkpt>
      <trkpt lat="44.03448" lon="6.86874">
        <ele>1394.5999755859</ele>
        <time>2020-09-12T10:28:26.000Z</time>
      </trkpt>
      <trkpt lat="44.03443" lon="6.86882">
        <ele>1395.5999755859</ele>
        <time>2020-09-12T10:28:33.000Z</time>
      </trkpt>
      <trkpt lat="44.03443" lon="6.86884">
        <ele>1396</ele>
        <time>2020-09-12T10:28:34.000Z</time>
      </trkpt>
      <trkpt lat="44.03441" lon="6.86886">
        <ele>1396.8000488281</ele>
        <time>2020-09-12T10:28:36.000Z</time>
      </trkpt>
      <trkpt lat="44.03436" lon="6.86892">
        <ele>1397.8000488281</ele>
        <time>2020-09-12T10:28:41.000Z</time>
      </trkpt>
      <trkpt lat="44.03429" lon="6.86901">
        <ele>1398.8000488281</ele>
        <time>2020-09-12T10:28:49.000Z</time>
      </trkpt>
      <trkpt lat="44.03427" lon="6.86903">
        <ele>1399</ele>
        <time>2020-09-12T10:28:51.000Z</time>
      </trkpt>
      <trkpt lat="44.03423" lon="6.86907">
        <ele>1399.4000244141</ele>
        <time>2020-09-12T10:28:56.000Z</time>
      </trkpt>
      <trkpt lat="44.03417" lon="6.86912">
        <ele>1400</ele>
        <time>2020-09-12T10:29:02.000Z</time>
      </trkpt>
      <trkpt lat="44.03415" lon="6.86913">
        <ele>1400.1999511719</ele>
        <time>2020-09-12T10:29:04.000Z</time>
      </trkpt>
      <trkpt lat="44.03409" lon="6.8692">
        <ele>1401</ele>
        <time>2020-09-12T10:29:11.000Z</time>
      </trkpt>
      <trkpt lat="44.03405" lon="6.86927">
        <ele>1401.8000488281</ele>
        <time>2020-09-12T10:29:17.000Z</time>
      </trkpt>
      <trkpt lat="44.03402" lon="6.8693">
        <ele>1402</ele>
        <time>2020-09-12T10:29:20.000Z</time>
      </trkpt>
      <trkpt lat="44.03397" lon="6.86935">
        <ele>1402.8000488281</ele>
        <time>2020-09-12T10:29:26.000Z</time>
      </trkpt>
      <trkpt lat="44.03395" lon="6.86937">
        <ele>1403.1999511719</ele>
        <time>2020-09-12T10:29:28.000Z</time>
      </trkpt>
      <trkpt lat="44.03391" lon="6.86943">
        <ele>1404.4000244141</ele>
        <time>2020-09-12T10:29:34.000Z</time>
      </trkpt>
      <trkpt lat="44.0339" lon="6.86944">
        <ele>1404.4000244141</ele>
        <time>2020-09-12T10:29:35.000Z</time>
      </trkpt>
      <trkpt lat="44.03385" lon="6.86949">
        <ele>1405.4000244141</ele>
        <time>2020-09-12T10:29:40.000Z</time>
      </trkpt>
      <trkpt lat="44.03383" lon="6.86951">
        <ele>1405.5999755859</ele>
        <time>2020-09-12T10:29:42.000Z</time>
      </trkpt>
      <trkpt lat="44.0338" lon="6.86954">
        <ele>1406.4000244141</ele>
        <time>2020-09-12T10:29:46.000Z</time>
      </trkpt>
      <trkpt lat="44.03378" lon="6.86957">
        <ele>1407.4000244141</ele>
        <time>2020-09-12T10:29:49.000Z</time>
      </trkpt>
      <trkpt lat="44.03377" lon="6.86958">
        <ele>1407.5999755859</ele>
        <time>2020-09-12T10:29:50.000Z</time>
      </trkpt>
      <trkpt lat="44.03372" lon="6.86964">
        <ele>1408.4000244141</ele>
        <time>2020-09-12T10:29:56.000Z</time>
      </trkpt>
      <trkpt lat="44.03371" lon="6.86965">
        <ele>1408.5999755859</ele>
        <time>2020-09-12T10:29:57.000Z</time>
      </trkpt>
      <trkpt lat="44.0337" lon="6.86966">
        <ele>1408.8000488281</ele>
        <time>2020-09-12T10:29:58.000Z</time>
      </trkpt>
      <trkpt lat="44.03366" lon="6.86972">
        <ele>1409.4000244141</ele>
        <time>2020-09-12T10:30:03.000Z</time>
      </trkpt>
      <trkpt lat="44.03364" lon="6.86974">
        <ele>1409.8000488281</ele>
        <time>2020-09-12T10:30:05.000Z</time>
      </trkpt>
      <trkpt lat="44.0336" lon="6.86981">
        <ele>1411</ele>
        <time>2020-09-12T10:30:11.000Z</time>
      </trkpt>
      <trkpt lat="44.03359" lon="6.86983">
        <ele>1411.1999511719</ele>
        <time>2020-09-12T10:30:12.000Z</time>
      </trkpt>
      <trkpt lat="44.03354" lon="6.86995">
        <ele>1412</ele>
        <time>2020-09-12T10:30:20.000Z</time>
      </trkpt>
      <trkpt lat="44.03353" lon="6.86997">
        <ele>1412.1999511719</ele>
        <time>2020-09-12T10:30:21.000Z</time>
      </trkpt>
      <trkpt lat="44.0335" lon="6.87009">
        <ele>1413.1999511719</ele>
        <time>2020-09-12T10:30:27.000Z</time>
      </trkpt>
      <trkpt lat="44.0335" lon="6.87011">
        <ele>1413.4000244141</ele>
        <time>2020-09-12T10:30:28.000Z</time>
      </trkpt>
      <trkpt lat="44.03348" lon="6.87017">
        <ele>1414.1999511719</ele>
        <time>2020-09-12T10:30:32.000Z</time>
      </trkpt>
      <trkpt lat="44.03347" lon="6.87025">
        <ele>1415</ele>
        <time>2020-09-12T10:30:37.000Z</time>
      </trkpt>
      <trkpt lat="44.03346" lon="6.87026">
        <ele>1415.1999511719</ele>
        <time>2020-09-12T10:30:38.000Z</time>
      </trkpt>
      <trkpt lat="44.03344" lon="6.87035">
        <ele>1416.4000244141</ele>
        <time>2020-09-12T10:30:43.000Z</time>
      </trkpt>
      <trkpt lat="44.03343" lon="6.87038">
        <ele>1416.5999755859</ele>
        <time>2020-09-12T10:30:45.000Z</time>
      </trkpt>
      <trkpt lat="44.03339" lon="6.87048">
        <ele>1417</ele>
        <time>2020-09-12T10:30:51.000Z</time>
      </trkpt>
      <trkpt lat="44.03335" lon="6.87053">
        <ele>1417.4000244141</ele>
        <time>2020-09-12T10:30:55.000Z</time>
      </trkpt>
      <trkpt lat="44.03331" lon="6.87055">
        <ele>1418.1999511719</ele>
        <time>2020-09-12T10:30:59.000Z</time>
      </trkpt>
      <trkpt lat="44.0333" lon="6.87055">
        <ele>1418.4000244141</ele>
        <time>2020-09-12T10:31:00.000Z</time>
      </trkpt>
      <trkpt lat="44.03325" lon="6.87053">
        <ele>1418.8000488281</ele>
        <time>2020-09-12T10:31:04.000Z</time>
      </trkpt>
      <trkpt lat="44.03322" lon="6.87052">
        <ele>1419</ele>
        <time>2020-09-12T10:31:06.000Z</time>
      </trkpt>
      <trkpt lat="44.03312" lon="6.87045">
        <ele>1419.5999755859</ele>
        <time>2020-09-12T10:31:14.000Z</time>
      </trkpt>
      <trkpt lat="44.03304" lon="6.8704">
        <ele>1420.5999755859</ele>
        <time>2020-09-12T10:31:21.000Z</time>
      </trkpt>
      <trkpt lat="44.03302" lon="6.87038">
        <ele>1421</ele>
        <time>2020-09-12T10:31:23.000Z</time>
      </trkpt>
      <trkpt lat="44.03298" lon="6.87036">
        <ele>1421.5999755859</ele>
        <time>2020-09-12T10:31:27.000Z</time>
      </trkpt>
      <trkpt lat="44.03294" lon="6.87034">
        <ele>1422.1999511719</ele>
        <time>2020-09-12T10:31:30.000Z</time>
      </trkpt>
      <trkpt lat="44.03292" lon="6.87033">
        <ele>1423</ele>
        <time>2020-09-12T10:31:32.000Z</time>
      </trkpt>
      <trkpt lat="44.03289" lon="6.87031">
        <ele>1424.1999511719</ele>
        <time>2020-09-12T10:31:35.000Z</time>
      </trkpt>
      <trkpt lat="44.03284" lon="6.8703">
        <ele>1424.8000488281</ele>
        <time>2020-09-12T10:31:39.000Z</time>
      </trkpt>
      <trkpt lat="44.03281" lon="6.8703">
        <ele>1425.1999511719</ele>
        <time>2020-09-12T10:31:42.000Z</time>
      </trkpt>
      <trkpt lat="44.03275" lon="6.87031">
        <ele>1425.8000488281</ele>
        <time>2020-09-12T10:31:47.000Z</time>
      </trkpt>
      <trkpt lat="44.03273" lon="6.87031">
        <ele>1426.4000244141</ele>
        <time>2020-09-12T10:31:49.000Z</time>
      </trkpt>
      <trkpt lat="44.03269" lon="6.87032">
        <ele>1427.5999755859</ele>
        <time>2020-09-12T10:31:53.000Z</time>
      </trkpt>
      <trkpt lat="44.03267" lon="6.87032">
        <ele>1427.8000488281</ele>
        <time>2020-09-12T10:31:55.000Z</time>
      </trkpt>
      <trkpt lat="44.03257" lon="6.87035">
        <ele>1428.5999755859</ele>
        <time>2020-09-12T10:32:02.000Z</time>
      </trkpt>
      <trkpt lat="44.03242" lon="6.87045">
        <ele>1428.4000244141</ele>
        <time>2020-09-12T10:32:07.000Z</time>
      </trkpt>
      <trkpt lat="44.0323" lon="6.87052">
        <ele>1427.5999755859</ele>
        <time>2020-09-12T10:32:12.000Z</time>
      </trkpt>
      <trkpt lat="44.0322" lon="6.87057">
        <ele>1428.5999755859</ele>
        <time>2020-09-12T10:32:19.000Z</time>
      </trkpt>
      <trkpt lat="44.03209" lon="6.87064">
        <ele>1429.5999755859</ele>
        <time>2020-09-12T10:32:27.000Z</time>
      </trkpt>
      <trkpt lat="44.03204" lon="6.87068">
        <ele>1429.8000488281</ele>
        <time>2020-09-12T10:32:30.000Z</time>
      </trkpt>
      <trkpt lat="44.03191" lon="6.87081">
        <ele>1430</ele>
        <time>2020-09-12T10:32:38.000Z</time>
      </trkpt>
      <trkpt lat="44.03183" lon="6.87091">
        <ele>1430.5999755859</ele>
        <time>2020-09-12T10:32:46.000Z</time>
      </trkpt>
      <trkpt lat="44.03182" lon="6.87092">
        <ele>1430.8000488281</ele>
        <time>2020-09-12T10:32:47.000Z</time>
      </trkpt>
      <trkpt lat="44.03177" lon="6.87099">
        <ele>1432</ele>
        <time>2020-09-12T10:32:53.000Z</time>
      </trkpt>
      <trkpt lat="44.03175" lon="6.87102">
        <ele>1432.4000244141</ele>
        <time>2020-09-12T10:32:56.000Z</time>
      </trkpt>
      <trkpt lat="44.03172" lon="6.87105">
        <ele>1433</ele>
        <time>2020-09-12T10:33:00.000Z</time>
      </trkpt>
      <trkpt lat="44.03168" lon="6.87111">
        <ele>1434.1999511719</ele>
        <time>2020-09-12T10:33:06.000Z</time>
      </trkpt>
      <trkpt lat="44.03163" lon="6.87119">
        <ele>1435.1999511719</ele>
        <time>2020-09-12T10:33:14.000Z</time>
      </trkpt>
      <trkpt lat="44.03163" lon="6.8712">
        <ele>1435.4000244141</ele>
        <time>2020-09-12T10:33:15.000Z</time>
      </trkpt>
      <trkpt lat="44.03161" lon="6.87122">
        <ele>1435.8000488281</ele>
        <time>2020-09-12T10:33:17.000Z</time>
      </trkpt>
      <trkpt lat="44.03159" lon="6.87124">
        <ele>1436.4000244141</ele>
        <time>2020-09-12T10:33:20.000Z</time>
      </trkpt>
      <trkpt lat="44.03158" lon="6.87125">
        <ele>1436.5999755859</ele>
        <time>2020-09-12T10:33:21.000Z</time>
      </trkpt>
      <trkpt lat="44.03157" lon="6.87126">
        <ele>1437</ele>
        <time>2020-09-12T10:33:23.000Z</time>
      </trkpt>
      <trkpt lat="44.03155" lon="6.87131">
        <ele>1437.5999755859</ele>
        <time>2020-09-12T10:33:27.000Z</time>
      </trkpt>
      <trkpt lat="44.03151" lon="6.87136">
        <ele>1438.4000244141</ele>
        <time>2020-09-12T10:33:32.000Z</time>
      </trkpt>
      <trkpt lat="44.03149" lon="6.87138">
        <ele>1438.5999755859</ele>
        <time>2020-09-12T10:33:34.000Z</time>
      </trkpt>
      <trkpt lat="44.03149" lon="6.8714">
        <ele>1439</ele>
        <time>2020-09-12T10:33:38.000Z</time>
      </trkpt>
      <trkpt lat="44.03146" lon="6.87142">
        <ele>1439.1999511719</ele>
        <time>2020-09-12T10:33:43.000Z</time>
      </trkpt>
      <trkpt lat="44.03143" lon="6.87146">
        <ele>1439.5999755859</ele>
        <time>2020-09-12T10:33:48.000Z</time>
      </trkpt>
      <trkpt lat="44.03141" lon="6.87148">
        <ele>1440</ele>
        <time>2020-09-12T10:33:51.000Z</time>
      </trkpt>
      <trkpt lat="44.03138" lon="6.8715">
        <ele>1440.8000488281</ele>
        <time>2020-09-12T10:33:55.000Z</time>
      </trkpt>
      <trkpt lat="44.03137" lon="6.87151">
        <ele>1441.4000244141</ele>
        <time>2020-09-12T10:33:59.000Z</time>
      </trkpt>
      <trkpt lat="44.03137" lon="6.87151">
        <ele>1441.5999755859</ele>
        <time>2020-09-12T10:34:05.000Z</time>
      </trkpt>
      <trkpt lat="44.03136" lon="6.87153">
        <ele>1441.5999755859</ele>
        <time>2020-09-12T10:34:08.000Z</time>
      </trkpt>
      <trkpt lat="44.03135" lon="6.87155">
        <ele>1441.8000488281</ele>
        <time>2020-09-12T10:34:10.000Z</time>
      </trkpt>
      <trkpt lat="44.03133" lon="6.87158">
        <ele>1442</ele>
        <time>2020-09-12T10:34:12.000Z</time>
      </trkpt>
      <trkpt lat="44.03131" lon="6.87165">
        <ele>1443</ele>
        <time>2020-09-12T10:34:19.000Z</time>
      </trkpt>
      <trkpt lat="44.03132" lon="6.87166">
        <ele>1443</ele>
        <time>2020-09-12T10:34:20.000Z</time>
      </trkpt>
      <trkpt lat="44.0313" lon="6.87167">
        <ele>1443.1999511719</ele>
        <time>2020-09-12T10:34:23.000Z</time>
      </trkpt>
      <trkpt lat="44.03128" lon="6.87178">
        <ele>1443.8000488281</ele>
        <time>2020-09-12T10:34:32.000Z</time>
      </trkpt>
      <trkpt lat="44.03128" lon="6.87179">
        <ele>1444.1999511719</ele>
        <time>2020-09-12T10:34:35.000Z</time>
      </trkpt>
      <trkpt lat="44.03127" lon="6.8718">
        <ele>1444</ele>
        <time>2020-09-12T10:34:37.000Z</time>
      </trkpt>
      <trkpt lat="44.03126" lon="6.87184">
        <ele>1444.5999755859</ele>
        <time>2020-09-12T10:34:42.000Z</time>
      </trkpt>
      <trkpt lat="44.03123" lon="6.87198">
        <ele>1445.1999511719</ele>
        <time>2020-09-12T10:34:50.000Z</time>
      </trkpt>
      <trkpt lat="44.03122" lon="6.87209">
        <ele>1446</ele>
        <time>2020-09-12T10:34:58.000Z</time>
      </trkpt>
      <trkpt lat="44.03122" lon="6.87211">
        <ele>1446.1999511719</ele>
        <time>2020-09-12T10:35:00.000Z</time>
      </trkpt>
      <trkpt lat="44.03121" lon="6.87214">
        <ele>1446.5999755859</ele>
        <time>2020-09-12T10:35:02.000Z</time>
      </trkpt>
      <trkpt lat="44.03121" lon="6.87218">
        <ele>1447</ele>
        <time>2020-09-12T10:35:05.000Z</time>
      </trkpt>
      <trkpt lat="44.0312" lon="6.87221">
        <ele>1447.4000244141</ele>
        <time>2020-09-12T10:35:07.000Z</time>
      </trkpt>
      <trkpt lat="44.03119" lon="6.87228">
        <ele>1447.8000488281</ele>
        <time>2020-09-12T10:35:12.000Z</time>
      </trkpt>
      <trkpt lat="44.03118" lon="6.87233">
        <ele>1448.5999755859</ele>
        <time>2020-09-12T10:35:16.000Z</time>
      </trkpt>
      <trkpt lat="44.03117" lon="6.87236">
        <ele>1449</ele>
        <time>2020-09-12T10:35:19.000Z</time>
      </trkpt>
      <trkpt lat="44.03116" lon="6.8724">
        <ele>1449.5999755859</ele>
        <time>2020-09-12T10:35:22.000Z</time>
      </trkpt>
      <trkpt lat="44.03115" lon="6.87245">
        <ele>1450.5999755859</ele>
        <time>2020-09-12T10:35:26.000Z</time>
      </trkpt>
      <trkpt lat="44.03115" lon="6.87246">
        <ele>1450.8000488281</ele>
        <time>2020-09-12T10:35:27.000Z</time>
      </trkpt>
      <trkpt lat="44.03115" lon="6.87247">
        <ele>1451</ele>
        <time>2020-09-12T10:35:28.000Z</time>
      </trkpt>
      <trkpt lat="44.03113" lon="6.87255">
        <ele>1452</ele>
        <time>2020-09-12T10:35:34.000Z</time>
      </trkpt>
      <trkpt lat="44.03111" lon="6.8726">
        <ele>1452.4000244141</ele>
        <time>2020-09-12T10:35:38.000Z</time>
      </trkpt>
      <trkpt lat="44.0311" lon="6.87265">
        <ele>1453.1999511719</ele>
        <time>2020-09-12T10:35:42.000Z</time>
      </trkpt>
      <trkpt lat="44.0311" lon="6.87268">
        <ele>1453.5999755859</ele>
        <time>2020-09-12T10:35:45.000Z</time>
      </trkpt>
      <trkpt lat="44.03106" lon="6.87276">
        <ele>1454.1999511719</ele>
        <time>2020-09-12T10:35:51.000Z</time>
      </trkpt>
      <trkpt lat="44.03104" lon="6.87281">
        <ele>1454.4000244141</ele>
        <time>2020-09-12T10:35:55.000Z</time>
      </trkpt>
      <trkpt lat="44.03101" lon="6.87287">
        <ele>1455.1999511719</ele>
        <time>2020-09-12T10:36:00.000Z</time>
      </trkpt>
      <trkpt lat="44.03098" lon="6.87292">
        <ele>1456</ele>
        <time>2020-09-12T10:36:04.000Z</time>
      </trkpt>
      <trkpt lat="44.03097" lon="6.87293">
        <ele>1456.4000244141</ele>
        <time>2020-09-12T10:36:05.000Z</time>
      </trkpt>
      <trkpt lat="44.03094" lon="6.87297">
        <ele>1457</ele>
        <time>2020-09-12T10:36:08.000Z</time>
      </trkpt>
      <trkpt lat="44.03093" lon="6.87301">
        <ele>1457.1999511719</ele>
        <time>2020-09-12T10:36:11.000Z</time>
      </trkpt>
      <trkpt lat="44.0309" lon="6.87306">
        <ele>1457.4000244141</ele>
        <time>2020-09-12T10:36:15.000Z</time>
      </trkpt>
      <trkpt lat="44.03087" lon="6.87312">
        <ele>1458.1999511719</ele>
        <time>2020-09-12T10:36:19.000Z</time>
      </trkpt>
      <trkpt lat="44.03087" lon="6.87313">
        <ele>1458.5999755859</ele>
        <time>2020-09-12T10:36:20.000Z</time>
      </trkpt>
      <trkpt lat="44.03083" lon="6.87321">
        <ele>1459.5999755859</ele>
        <time>2020-09-12T10:36:26.000Z</time>
      </trkpt>
      <trkpt lat="44.03083" lon="6.87322">
        <ele>1460</ele>
        <time>2020-09-12T10:36:27.000Z</time>
      </trkpt>
      <trkpt lat="44.03078" lon="6.8733">
        <ele>1460.8000488281</ele>
        <time>2020-09-12T10:36:34.000Z</time>
      </trkpt>
      <trkpt lat="44.03077" lon="6.87333">
        <ele>1461.4000244141</ele>
        <time>2020-09-12T10:36:36.000Z</time>
      </trkpt>
      <trkpt lat="44.03075" lon="6.87338">
        <ele>1462</ele>
        <time>2020-09-12T10:36:39.000Z</time>
      </trkpt>
      <trkpt lat="44.03074" lon="6.87346">
        <ele>1462.4000244141</ele>
        <time>2020-09-12T10:36:44.000Z</time>
      </trkpt>
      <trkpt lat="44.03072" lon="6.87356">
        <ele>1463</ele>
        <time>2020-09-12T10:36:50.000Z</time>
      </trkpt>
      <trkpt lat="44.03072" lon="6.87359">
        <ele>1463.1999511719</ele>
        <time>2020-09-12T10:36:52.000Z</time>
      </trkpt>
      <trkpt lat="44.03073" lon="6.87362">
        <ele>1464</ele>
        <time>2020-09-12T10:36:54.000Z</time>
      </trkpt>
      <trkpt lat="44.03073" lon="6.87369">
        <ele>1465</ele>
        <time>2020-09-12T10:36:58.000Z</time>
      </trkpt>
      <trkpt lat="44.03073" lon="6.87372">
        <ele>1465.4000244141</ele>
        <time>2020-09-12T10:37:00.000Z</time>
      </trkpt>
      <trkpt lat="44.03073" lon="6.87377">
        <ele>1466</ele>
        <time>2020-09-12T10:37:03.000Z</time>
      </trkpt>
      <trkpt lat="44.03072" lon="6.87383">
        <ele>1466.5999755859</ele>
        <time>2020-09-12T10:37:07.000Z</time>
      </trkpt>
      <trkpt lat="44.03072" lon="6.87386">
        <ele>1467</ele>
        <time>2020-09-12T10:37:09.000Z</time>
      </trkpt>
      <trkpt lat="44.0307" lon="6.87391">
        <ele>1468.1999511719</ele>
        <time>2020-09-12T10:37:13.000Z</time>
      </trkpt>
      <trkpt lat="44.03068" lon="6.87394">
        <ele>1468.5999755859</ele>
        <time>2020-09-12T10:37:15.000Z</time>
      </trkpt>
      <trkpt lat="44.03064" lon="6.87399">
        <ele>1469.4000244141</ele>
        <time>2020-09-12T10:37:20.000Z</time>
      </trkpt>
      <trkpt lat="44.03062" lon="6.87402">
        <ele>1469.8000488281</ele>
        <time>2020-09-12T10:37:23.000Z</time>
      </trkpt>
      <trkpt lat="44.03057" lon="6.87406">
        <ele>1470.4000244141</ele>
        <time>2020-09-12T10:37:28.000Z</time>
      </trkpt>
      <trkpt lat="44.03055" lon="6.87407">
        <ele>1470.8000488281</ele>
        <time>2020-09-12T10:37:30.000Z</time>
      </trkpt>
      <trkpt lat="44.03052" lon="6.8741">
        <ele>1471.4000244141</ele>
        <time>2020-09-12T10:37:33.000Z</time>
      </trkpt>
      <trkpt lat="44.03048" lon="6.87413">
        <ele>1472</ele>
        <time>2020-09-12T10:37:37.000Z</time>
      </trkpt>
      <trkpt lat="44.03044" lon="6.87417">
        <ele>1472.4000244141</ele>
        <time>2020-09-12T10:37:42.000Z</time>
      </trkpt>
      <trkpt lat="44.03042" lon="6.87418">
        <ele>1472.5999755859</ele>
        <time>2020-09-12T10:37:44.000Z</time>
      </trkpt>
      <trkpt lat="44.03037" lon="6.87423">
        <ele>1473.5999755859</ele>
        <time>2020-09-12T10:37:49.000Z</time>
      </trkpt>
      <trkpt lat="44.03037" lon="6.87424">
        <ele>1473.8000488281</ele>
        <time>2020-09-12T10:37:50.000Z</time>
      </trkpt>
      <trkpt lat="44.03032" lon="6.8743">
        <ele>1474.8000488281</ele>
        <time>2020-09-12T10:37:55.000Z</time>
      </trkpt>
      <trkpt lat="44.0303" lon="6.87433">
        <ele>1475.1999511719</ele>
        <time>2020-09-12T10:37:58.000Z</time>
      </trkpt>
      <trkpt lat="44.03023" lon="6.87448">
        <ele>1475.5999755859</ele>
        <time>2020-09-12T10:38:05.000Z</time>
      </trkpt>
      <trkpt lat="44.0302" lon="6.87457">
        <ele>1475.8000488281</ele>
        <time>2020-09-12T10:38:09.000Z</time>
      </trkpt>
      <trkpt lat="44.03019" lon="6.87462">
        <ele>1475.8000488281</ele>
        <time>2020-09-12T10:38:11.000Z</time>
      </trkpt>
      <trkpt lat="44.03021" lon="6.87471">
        <ele>1475.5999755859</ele>
        <time>2020-09-12T10:38:15.000Z</time>
      </trkpt>
      <trkpt lat="44.03025" lon="6.87484">
        <ele>1475.4000244141</ele>
        <time>2020-09-12T10:38:21.000Z</time>
      </trkpt>
      <trkpt lat="44.03031" lon="6.87496">
        <ele>1476.4000244141</ele>
        <time>2020-09-12T10:38:29.000Z</time>
      </trkpt>
      <trkpt lat="44.03037" lon="6.87504">
        <ele>1476.8000488281</ele>
        <time>2020-09-12T10:38:34.000Z</time>
      </trkpt>
      <trkpt lat="44.0304" lon="6.87509">
        <ele>1477</ele>
        <time>2020-09-12T10:38:37.000Z</time>
      </trkpt>
      <trkpt lat="44.03043" lon="6.87517">
        <ele>1478</ele>
        <time>2020-09-12T10:38:43.000Z</time>
      </trkpt>
      <trkpt lat="44.03044" lon="6.87519">
        <ele>1478.1999511719</ele>
        <time>2020-09-12T10:38:44.000Z</time>
      </trkpt>
      <trkpt lat="44.03044" lon="6.87526">
        <ele>1479</ele>
        <time>2020-09-12T10:38:49.000Z</time>
      </trkpt>
      <trkpt lat="44.03044" lon="6.87526">
        <ele>1479.1999511719</ele>
        <time>2020-09-12T10:38:50.000Z</time>
      </trkpt>
      <trkpt lat="44.03045" lon="6.87533">
        <ele>1479.5999755859</ele>
        <time>2020-09-12T10:38:56.000Z</time>
      </trkpt>
      <trkpt lat="44.03045" lon="6.87536">
        <ele>1480.1999511719</ele>
        <time>2020-09-12T10:39:01.000Z</time>
      </trkpt>
      <trkpt lat="44.03045" lon="6.87536">
        <ele>1480.1999511719</ele>
        <time>2020-09-12T10:39:02.000Z</time>
      </trkpt>
      <trkpt lat="44.03043" lon="6.87544">
        <ele>1480.5999755859</ele>
        <time>2020-09-12T10:39:09.000Z</time>
      </trkpt>
      <trkpt lat="44.03041" lon="6.87552">
        <ele>1481.1999511719</ele>
        <time>2020-09-12T10:39:15.000Z</time>
      </trkpt>
      <trkpt lat="44.03041" lon="6.87553">
        <ele>1481.4000244141</ele>
        <time>2020-09-12T10:39:16.000Z</time>
      </trkpt>
      <trkpt lat="44.03038" lon="6.87559">
        <ele>1482.1999511719</ele>
        <time>2020-09-12T10:39:21.000Z</time>
      </trkpt>
      <trkpt lat="44.03037" lon="6.87563">
        <ele>1482.5999755859</ele>
        <time>2020-09-12T10:39:24.000Z</time>
      </trkpt>
      <trkpt lat="44.03035" lon="6.87569">
        <ele>1483.4000244141</ele>
        <time>2020-09-12T10:39:29.000Z</time>
      </trkpt>
      <trkpt lat="44.03034" lon="6.87574">
        <ele>1483.8000488281</ele>
        <time>2020-09-12T10:39:32.000Z</time>
      </trkpt>
      <trkpt lat="44.03034" lon="6.87581">
        <ele>1484.4000244141</ele>
        <time>2020-09-12T10:39:36.000Z</time>
      </trkpt>
      <trkpt lat="44.03034" lon="6.87587">
        <ele>1485.5999755859</ele>
        <time>2020-09-12T10:39:41.000Z</time>
      </trkpt>
      <trkpt lat="44.03036" lon="6.87596">
        <ele>1486.5999755859</ele>
        <time>2020-09-12T10:39:48.000Z</time>
      </trkpt>
      <trkpt lat="44.03036" lon="6.87596">
        <ele>1486.5999755859</ele>
        <time>2020-09-12T10:39:49.000Z</time>
      </trkpt>
      <trkpt lat="44.03039" lon="6.87603">
        <ele>1487.5999755859</ele>
        <time>2020-09-12T10:39:55.000Z</time>
      </trkpt>
      <trkpt lat="44.03041" lon="6.8761">
        <ele>1488.8000488281</ele>
        <time>2020-09-12T10:40:01.000Z</time>
      </trkpt>
      <trkpt lat="44.03043" lon="6.87614">
        <ele>1489.1999511719</ele>
        <time>2020-09-12T10:40:04.000Z</time>
      </trkpt>
      <trkpt lat="44.03044" lon="6.87618">
        <ele>1489.4000244141</ele>
        <time>2020-09-12T10:40:07.000Z</time>
      </trkpt>
      <trkpt lat="44.03045" lon="6.8762">
        <ele>1489.8000488281</ele>
        <time>2020-09-12T10:40:09.000Z</time>
      </trkpt>
      <trkpt lat="44.03047" lon="6.87624">
        <ele>1490.4000244141</ele>
        <time>2020-09-12T10:40:12.000Z</time>
      </trkpt>
      <trkpt lat="44.03048" lon="6.87627">
        <ele>1490.8000488281</ele>
        <time>2020-09-12T10:40:14.000Z</time>
      </trkpt>
      <trkpt lat="44.03049" lon="6.87628">
        <ele>1491</ele>
        <time>2020-09-12T10:40:15.000Z</time>
      </trkpt>
      <trkpt lat="44.03053" lon="6.87636">
        <ele>1491.8000488281</ele>
        <time>2020-09-12T10:40:22.000Z</time>
      </trkpt>
      <trkpt lat="44.03054" lon="6.87638">
        <ele>1492</ele>
        <time>2020-09-12T10:40:24.000Z</time>
      </trkpt>
      <trkpt lat="44.03059" lon="6.87645">
        <ele>1493</ele>
        <time>2020-09-12T10:40:30.000Z</time>
      </trkpt>
      <trkpt lat="44.0306" lon="6.87647">
        <ele>1493.4000244141</ele>
        <time>2020-09-12T10:40:32.000Z</time>
      </trkpt>
      <trkpt lat="44.03063" lon="6.8765">
        <ele>1494</ele>
        <time>2020-09-12T10:40:35.000Z</time>
      </trkpt>
      <trkpt lat="44.03066" lon="6.87656">
        <ele>1495</ele>
        <time>2020-09-12T10:40:40.000Z</time>
      </trkpt>
      <trkpt lat="44.03066" lon="6.87658">
        <ele>1495</ele>
        <time>2020-09-12T10:40:41.000Z</time>
      </trkpt>
      <trkpt lat="44.03071" lon="6.87667">
        <ele>1496</ele>
        <time>2020-09-12T10:40:48.000Z</time>
      </trkpt>
      <trkpt lat="44.03075" lon="6.87673">
        <ele>1497.1999511719</ele>
        <time>2020-09-12T10:40:54.000Z</time>
      </trkpt>
      <trkpt lat="44.03077" lon="6.87677">
        <ele>1497.5999755859</ele>
        <time>2020-09-12T10:40:57.000Z</time>
      </trkpt>
      <trkpt lat="44.0308" lon="6.87684">
        <ele>1498.1999511719</ele>
        <time>2020-09-12T10:41:03.000Z</time>
      </trkpt>
      <trkpt lat="44.03082" lon="6.87689">
        <ele>1498.8000488281</ele>
        <time>2020-09-12T10:41:07.000Z</time>
      </trkpt>
      <trkpt lat="44.03085" lon="6.87693">
        <ele>1499.4000244141</ele>
        <time>2020-09-12T10:41:11.000Z</time>
      </trkpt>
      <trkpt lat="44.03088" lon="6.87698">
        <ele>1499.8000488281</ele>
        <time>2020-09-12T10:41:15.000Z</time>
      </trkpt>
      <trkpt lat="44.03092" lon="6.87707">
        <ele>1500.4000244141</ele>
        <time>2020-09-12T10:41:22.000Z</time>
      </trkpt>
      <trkpt lat="44.03094" lon="6.87711">
        <ele>1501</ele>
        <time>2020-09-12T10:41:25.000Z</time>
      </trkpt>
      <trkpt lat="44.03095" lon="6.87714">
        <ele>1501.4000244141</ele>
        <time>2020-09-12T10:41:28.000Z</time>
      </trkpt>
      <trkpt lat="44.03099" lon="6.87721">
        <ele>1502.1999511719</ele>
        <time>2020-09-12T10:41:34.000Z</time>
      </trkpt>
      <trkpt lat="44.03101" lon="6.87725">
        <ele>1502.5999755859</ele>
        <time>2020-09-12T10:41:37.000Z</time>
      </trkpt>
      <trkpt lat="44.03103" lon="6.87728">
        <ele>1502.8000488281</ele>
        <time>2020-09-12T10:41:40.000Z</time>
      </trkpt>
      <trkpt lat="44.03103" lon="6.87729">
        <ele>1503.1999511719</ele>
        <time>2020-09-12T10:41:41.000Z</time>
      </trkpt>
      <trkpt lat="44.03105" lon="6.87733">
        <ele>1503.5999755859</ele>
        <time>2020-09-12T10:41:44.000Z</time>
      </trkpt>
      <trkpt lat="44.03107" lon="6.87736">
        <ele>1504.1999511719</ele>
        <time>2020-09-12T10:41:47.000Z</time>
      </trkpt>
      <trkpt lat="44.03108" lon="6.87738">
        <ele>1504.5999755859</ele>
        <time>2020-09-12T10:41:50.000Z</time>
      </trkpt>
      <trkpt lat="44.03109" lon="6.87739">
        <ele>1504.8000488281</ele>
        <time>2020-09-12T10:41:51.000Z</time>
      </trkpt>
      <trkpt lat="44.03114" lon="6.87745">
        <ele>1505.8000488281</ele>
        <time>2020-09-12T10:41:59.000Z</time>
      </trkpt>
      <trkpt lat="44.03118" lon="6.8775">
        <ele>1506.8000488281</ele>
        <time>2020-09-12T10:42:05.000Z</time>
      </trkpt>
      <trkpt lat="44.03118" lon="6.87752">
        <ele>1507.1999511719</ele>
        <time>2020-09-12T10:42:07.000Z</time>
      </trkpt>
      <trkpt lat="44.03121" lon="6.87758">
        <ele>1508</ele>
        <time>2020-09-12T10:42:13.000Z</time>
      </trkpt>
      <trkpt lat="44.03124" lon="6.87761">
        <ele>1509</ele>
        <time>2020-09-12T10:42:18.000Z</time>
      </trkpt>
      <trkpt lat="44.03127" lon="6.87768">
        <ele>1510.1999511719</ele>
        <time>2020-09-12T10:42:25.000Z</time>
      </trkpt>
      <trkpt lat="44.03128" lon="6.8777">
        <ele>1510.4000244141</ele>
        <time>2020-09-12T10:42:27.000Z</time>
      </trkpt>
      <trkpt lat="44.03131" lon="6.87776">
        <ele>1511.1999511719</ele>
        <time>2020-09-12T10:42:34.000Z</time>
      </trkpt>
      <trkpt lat="44.03133" lon="6.87779">
        <ele>1511.8000488281</ele>
        <time>2020-09-12T10:42:37.000Z</time>
      </trkpt>
      <trkpt lat="44.03133" lon="6.87779">
        <ele>1512</ele>
        <time>2020-09-12T10:42:38.000Z</time>
      </trkpt>
      <trkpt lat="44.03135" lon="6.87783">
        <ele>1512.1999511719</ele>
        <time>2020-09-12T10:42:41.000Z</time>
      </trkpt>
      <trkpt lat="44.03136" lon="6.87785">
        <ele>1512.5999755859</ele>
        <time>2020-09-12T10:42:43.000Z</time>
      </trkpt>
      <trkpt lat="44.03137" lon="6.87787">
        <ele>1512.8000488281</ele>
        <time>2020-09-12T10:42:45.000Z</time>
      </trkpt>
      <trkpt lat="44.03139" lon="6.87794">
        <ele>1513.4000244141</ele>
        <time>2020-09-12T10:42:51.000Z</time>
      </trkpt>
      <trkpt lat="44.03142" lon="6.878">
        <ele>1514.5999755859</ele>
        <time>2020-09-12T10:42:56.000Z</time>
      </trkpt>
      <trkpt lat="44.03143" lon="6.87802">
        <ele>1514.8000488281</ele>
        <time>2020-09-12T10:42:58.000Z</time>
      </trkpt>
      <trkpt lat="44.03144" lon="6.87807">
        <ele>1515.5999755859</ele>
        <time>2020-09-12T10:43:02.000Z</time>
      </trkpt>
      <trkpt lat="44.03145" lon="6.87811">
        <ele>1516</ele>
        <time>2020-09-12T10:43:06.000Z</time>
      </trkpt>
      <trkpt lat="44.03146" lon="6.87815">
        <ele>1516.5999755859</ele>
        <time>2020-09-12T10:43:10.000Z</time>
      </trkpt>
      <trkpt lat="44.03147" lon="6.87819">
        <ele>1517.1999511719</ele>
        <time>2020-09-12T10:43:14.000Z</time>
      </trkpt>
      <trkpt lat="44.03147" lon="6.87823">
        <ele>1517.8000488281</ele>
        <time>2020-09-12T10:43:17.000Z</time>
      </trkpt>
      <trkpt lat="44.03149" lon="6.87832">
        <ele>1518.4000244141</ele>
        <time>2020-09-12T10:43:24.000Z</time>
      </trkpt>
      <trkpt lat="44.03149" lon="6.87835">
        <ele>1518.8000488281</ele>
        <time>2020-09-12T10:43:26.000Z</time>
      </trkpt>
      <trkpt lat="44.0315" lon="6.8784">
        <ele>1519.8000488281</ele>
        <time>2020-09-12T10:43:30.000Z</time>
      </trkpt>
      <trkpt lat="44.0315" lon="6.87843">
        <ele>1520.1999511719</ele>
        <time>2020-09-12T10:43:32.000Z</time>
      </trkpt>
      <trkpt lat="44.03151" lon="6.87847">
        <ele>1521</ele>
        <time>2020-09-12T10:43:36.000Z</time>
      </trkpt>
      <trkpt lat="44.03151" lon="6.87851">
        <ele>1521.5999755859</ele>
        <time>2020-09-12T10:43:39.000Z</time>
      </trkpt>
      <trkpt lat="44.03151" lon="6.87857">
        <ele>1522.1999511719</ele>
        <time>2020-09-12T10:43:44.000Z</time>
      </trkpt>
      <trkpt lat="44.03151" lon="6.8786">
        <ele>1522.5999755859</ele>
        <time>2020-09-12T10:43:46.000Z</time>
      </trkpt>
      <trkpt lat="44.0315" lon="6.87866">
        <ele>1523.1999511719</ele>
        <time>2020-09-12T10:43:51.000Z</time>
      </trkpt>
      <trkpt lat="44.0315" lon="6.8787">
        <ele>1523.5999755859</ele>
        <time>2020-09-12T10:43:54.000Z</time>
      </trkpt>
      <trkpt lat="44.0315" lon="6.8788">
        <ele>1524.1999511719</ele>
        <time>2020-09-12T10:44:01.000Z</time>
      </trkpt>
      <trkpt lat="44.03149" lon="6.87884">
        <ele>1524.5999755859</ele>
        <time>2020-09-12T10:44:04.000Z</time>
      </trkpt>
      <trkpt lat="44.03149" lon="6.87889">
        <ele>1525.1999511719</ele>
        <time>2020-09-12T10:44:07.000Z</time>
      </trkpt>
      <trkpt lat="44.03149" lon="6.87894">
        <ele>1526</ele>
        <time>2020-09-12T10:44:11.000Z</time>
      </trkpt>
      <trkpt lat="44.03148" lon="6.87897">
        <ele>1526.4000244141</ele>
        <time>2020-09-12T10:44:13.000Z</time>
      </trkpt>
      <trkpt lat="44.03148" lon="6.87908">
        <ele>1527.5999755859</ele>
        <time>2020-09-12T10:44:20.000Z</time>
      </trkpt>
      <trkpt lat="44.03147" lon="6.87912">
        <ele>1528.8000488281</ele>
        <time>2020-09-12T10:44:25.000Z</time>
      </trkpt>
      <trkpt lat="44.03148" lon="6.87912">
        <ele>1528.8000488281</ele>
        <time>2020-09-12T10:44:26.000Z</time>
      </trkpt>
      <trkpt lat="44.0315" lon="6.87916">
        <ele>1528.8000488281</ele>
        <time>2020-09-12T10:44:37.000Z</time>
      </trkpt>
      <trkpt lat="44.0315" lon="6.87921">
        <ele>1529.1999511719</ele>
        <time>2020-09-12T10:44:41.000Z</time>
      </trkpt>
      <trkpt lat="44.03152" lon="6.87926">
        <ele>1529.5999755859</ele>
        <time>2020-09-12T10:44:44.000Z</time>
      </trkpt>
      <trkpt lat="44.03152" lon="6.87928">
        <ele>1529.8000488281</ele>
        <time>2020-09-12T10:44:45.000Z</time>
      </trkpt>
      <trkpt lat="44.03153" lon="6.87931">
        <ele>1530.1999511719</ele>
        <time>2020-09-12T10:44:47.000Z</time>
      </trkpt>
      <trkpt lat="44.03153" lon="6.87935">
        <ele>1530.4000244141</ele>
        <time>2020-09-12T10:44:50.000Z</time>
      </trkpt>
      <trkpt lat="44.03155" lon="6.8794">
        <ele>1531</ele>
        <time>2020-09-12T10:44:54.000Z</time>
      </trkpt>
      <trkpt lat="44.03156" lon="6.87946">
        <ele>1531.5999755859</ele>
        <time>2020-09-12T10:44:58.000Z</time>
      </trkpt>
      <trkpt lat="44.03156" lon="6.87951">
        <ele>1532</ele>
        <time>2020-09-12T10:45:01.000Z</time>
      </trkpt>
      <trkpt lat="44.03158" lon="6.8796">
        <ele>1532.5999755859</ele>
        <time>2020-09-12T10:45:06.000Z</time>
      </trkpt>
      <trkpt lat="44.0316" lon="6.87967">
        <ele>1533</ele>
        <time>2020-09-12T10:45:10.000Z</time>
      </trkpt>
      <trkpt lat="44.03163" lon="6.87975">
        <ele>1534.1999511719</ele>
        <time>2020-09-12T10:45:15.000Z</time>
      </trkpt>
      <trkpt lat="44.03167" lon="6.87984">
        <ele>1535.4000244141</ele>
        <time>2020-09-12T10:45:21.000Z</time>
      </trkpt>
      <trkpt lat="44.03169" lon="6.87987">
        <ele>1535.8000488281</ele>
        <time>2020-09-12T10:45:23.000Z</time>
      </trkpt>
      <trkpt lat="44.03172" lon="6.87994">
        <ele>1536.4000244141</ele>
        <time>2020-09-12T10:45:28.000Z</time>
      </trkpt>
      <trkpt lat="44.03174" lon="6.87998">
        <ele>1537.1999511719</ele>
        <time>2020-09-12T10:45:31.000Z</time>
      </trkpt>
      <trkpt lat="44.03174" lon="6.87999">
        <ele>1537.4000244141</ele>
        <time>2020-09-12T10:45:32.000Z</time>
      </trkpt>
      <trkpt lat="44.03178" lon="6.88007">
        <ele>1538.5999755859</ele>
        <time>2020-09-12T10:45:38.000Z</time>
      </trkpt>
      <trkpt lat="44.03182" lon="6.88016">
        <ele>1539.8000488281</ele>
        <time>2020-09-12T10:45:46.000Z</time>
      </trkpt>
      <trkpt lat="44.03183" lon="6.88019">
        <ele>1540</ele>
        <time>2020-09-12T10:45:48.000Z</time>
      </trkpt>
      <trkpt lat="44.03185" lon="6.88026">
        <ele>1540.8000488281</ele>
        <time>2020-09-12T10:45:53.000Z</time>
      </trkpt>
      <trkpt lat="44.03186" lon="6.88028">
        <ele>1541.1999511719</ele>
        <time>2020-09-12T10:45:55.000Z</time>
      </trkpt>
      <trkpt lat="44.03187" lon="6.88031">
        <ele>1541.4000244141</ele>
        <time>2020-09-12T10:45:57.000Z</time>
      </trkpt>
      <trkpt lat="44.03189" lon="6.88036">
        <ele>1542</ele>
        <time>2020-09-12T10:46:01.000Z</time>
      </trkpt>
      <trkpt lat="44.0319" lon="6.88044">
        <ele>1542.8000488281</ele>
        <time>2020-09-12T10:46:07.000Z</time>
      </trkpt>
      <trkpt lat="44.0319" lon="6.88046">
        <ele>1543.1999511719</ele>
        <time>2020-09-12T10:46:08.000Z</time>
      </trkpt>
      <trkpt lat="44.0319" lon="6.88047">
        <ele>1543.4000244141</ele>
        <time>2020-09-12T10:46:09.000Z</time>
      </trkpt>
      <trkpt lat="44.0319" lon="6.88048">
        <ele>1543.5999755859</ele>
        <time>2020-09-12T10:46:10.000Z</time>
      </trkpt>
      <trkpt lat="44.0319" lon="6.88055">
        <ele>1544.1999511719</ele>
        <time>2020-09-12T10:46:14.000Z</time>
      </trkpt>
      <trkpt lat="44.0319" lon="6.88058">
        <ele>1544.4000244141</ele>
        <time>2020-09-12T10:46:16.000Z</time>
      </trkpt>
      <trkpt lat="44.0319" lon="6.88062">
        <ele>1544.8000488281</ele>
        <time>2020-09-12T10:46:19.000Z</time>
      </trkpt>
      <trkpt lat="44.03189" lon="6.88064">
        <ele>1545</ele>
        <time>2020-09-12T10:46:22.000Z</time>
      </trkpt>
      <trkpt lat="44.03189" lon="6.88065">
        <ele>1545.1999511719</ele>
        <time>2020-09-12T10:46:25.000Z</time>
      </trkpt>
      <trkpt lat="44.03189" lon="6.88063">
        <ele>1544.8000488281</ele>
        <time>2020-09-12T10:46:31.000Z</time>
      </trkpt>
      <trkpt lat="44.03189" lon="6.88063">
        <ele>1545.1999511719</ele>
        <time>2020-09-12T10:46:36.000Z</time>
      </trkpt>
      <trkpt lat="44.03191" lon="6.88065">
        <ele>1545</ele>
        <time>2020-09-12T10:46:54.000Z</time>
      </trkpt>
      <trkpt lat="44.0319" lon="6.88065">
        <ele>1544.1999511719</ele>
        <time>2020-09-12T10:47:00.000Z</time>
      </trkpt>
      <trkpt lat="44.0319" lon="6.88069">
        <ele>1543.8000488281</ele>
        <time>2020-09-12T10:47:16.000Z</time>
      </trkpt>
      <trkpt lat="44.0319" lon="6.88072">
        <ele>1543.8000488281</ele>
        <time>2020-09-12T10:47:30.000Z</time>
      </trkpt>
      <trkpt lat="44.03191" lon="6.88075">
        <ele>1543.8000488281</ele>
        <time>2020-09-12T10:47:42.000Z</time>
      </trkpt>
      <trkpt lat="44.03191" lon="6.88076">
        <ele>1543.8000488281</ele>
        <time>2020-09-12T10:47:50.000Z</time>
      </trkpt>
      <trkpt lat="44.03192" lon="6.88077">
        <ele>1543.8000488281</ele>
        <time>2020-09-12T10:48:03.000Z</time>
      </trkpt>
      <trkpt lat="44.03194" lon="6.88077">
        <ele>1543.8000488281</ele>
        <time>2020-09-12T10:48:14.000Z</time>
      </trkpt>
      <trkpt lat="44.03192" lon="6.88077">
        <ele>1543.8000488281</ele>
        <time>2020-09-12T10:48:34.000Z</time>
      </trkpt>
      <trkpt lat="44.03193" lon="6.88079">
        <ele>1543.8000488281</ele>
        <time>2020-09-12T10:48:45.000Z</time>
      </trkpt>
      <trkpt lat="44.03194" lon="6.88081">
        <ele>1543.5999755859</ele>
        <time>2020-09-12T10:48:59.000Z</time>
      </trkpt>
      <trkpt lat="44.03194" lon="6.8808">
        <ele>1543.8000488281</ele>
        <time>2020-09-12T10:49:16.000Z</time>
      </trkpt>
      <trkpt lat="44.03193" lon="6.88082">
        <ele>1544</ele>
        <time>2020-09-12T10:49:35.000Z</time>
      </trkpt>
      <trkpt lat="44.03192" lon="6.88083">
        <ele>1543.8000488281</ele>
        <time>2020-09-12T10:49:57.000Z</time>
      </trkpt>
      <trkpt lat="44.03192" lon="6.88082">
        <ele>1543.4000244141</ele>
        <time>2020-09-12T10:50:19.000Z</time>
      </trkpt>
      <trkpt lat="44.03193" lon="6.8808">
        <ele>1543.5999755859</ele>
        <time>2020-09-12T10:50:40.000Z</time>
      </trkpt>
      <trkpt lat="44.03193" lon="6.88079">
        <ele>1543.5999755859</ele>
        <time>2020-09-12T10:50:55.000Z</time>
      </trkpt>
      <trkpt lat="44.03192" lon="6.8808">
        <ele>1543.5999755859</ele>
        <time>2020-09-12T10:51:10.000Z</time>
      </trkpt>
      <trkpt lat="44.03191" lon="6.88081">
        <ele>1543.8000488281</ele>
        <time>2020-09-12T10:51:27.000Z</time>
      </trkpt>
      <trkpt lat="44.03191" lon="6.8808">
        <ele>1543.5999755859</ele>
        <time>2020-09-12T10:51:43.000Z</time>
      </trkpt>
      <trkpt lat="44.03191" lon="6.88079">
        <ele>1543.4000244141</ele>
        <time>2020-09-12T10:52:01.000Z</time>
      </trkpt>
      <trkpt lat="44.03191" lon="6.8808">
        <ele>1543.4000244141</ele>
        <time>2020-09-12T10:52:14.000Z</time>
      </trkpt>
      <trkpt lat="44.0319" lon="6.88082">
        <ele>1543.4000244141</ele>
        <time>2020-09-12T10:52:28.000Z</time>
      </trkpt>
      <trkpt lat="44.03189" lon="6.88083">
        <ele>1543.4000244141</ele>
        <time>2020-09-12T10:52:47.000Z</time>
      </trkpt>
      <trkpt lat="44.03189" lon="6.88082">
        <ele>1543</ele>
        <time>2020-09-12T10:53:01.000Z</time>
      </trkpt>
      <trkpt lat="44.03189" lon="6.88082">
        <ele>1543</ele>
        <time>2020-09-12T10:53:03.000Z</time>
      </trkpt>
      <trkpt lat="44.03188" lon="6.8808">
        <ele>1543</ele>
        <time>2020-09-12T10:53:17.000Z</time>
      </trkpt>
      <trkpt lat="44.03189" lon="6.88078">
        <ele>1543</ele>
        <time>2020-09-12T10:53:29.000Z</time>
      </trkpt>
      <trkpt lat="44.03188" lon="6.88075">
        <ele>1543</ele>
        <time>2020-09-12T10:53:45.000Z</time>
      </trkpt>
      <trkpt lat="44.03187" lon="6.88075">
        <ele>1543.1999511719</ele>
        <time>2020-09-12T10:53:56.000Z</time>
      </trkpt>
      <trkpt lat="44.03186" lon="6.88076">
        <ele>1543.1999511719</ele>
        <time>2020-09-12T10:54:07.000Z</time>
      </trkpt>
      <trkpt lat="44.03185" lon="6.88077">
        <ele>1543.4000244141</ele>
        <time>2020-09-12T10:54:18.000Z</time>
      </trkpt>
      <trkpt lat="44.03185" lon="6.88079">
        <ele>1543.4000244141</ele>
        <time>2020-09-12T10:54:29.000Z</time>
      </trkpt>
      <trkpt lat="44.03184" lon="6.8808">
        <ele>1543</ele>
        <time>2020-09-12T10:54:40.000Z</time>
      </trkpt>
      <trkpt lat="44.03184" lon="6.8808">
        <ele>1542.5999755859</ele>
        <time>2020-09-12T10:54:49.000Z</time>
      </trkpt>
      <trkpt lat="44.03184" lon="6.8808">
        <ele>1542.8000488281</ele>
        <time>2020-09-12T10:54:58.000Z</time>
      </trkpt>
      <trkpt lat="44.03183" lon="6.88079">
        <ele>1543</ele>
        <time>2020-09-12T10:55:10.000Z</time>
      </trkpt>
      <trkpt lat="44.03183" lon="6.88079">
        <ele>1542.8000488281</ele>
        <time>2020-09-12T10:55:22.000Z</time>
      </trkpt>
      <trkpt lat="44.03183" lon="6.88078">
        <ele>1542.8000488281</ele>
        <time>2020-09-12T10:55:36.000Z</time>
      </trkpt>
      <trkpt lat="44.03184" lon="6.88078">
        <ele>1542.8000488281</ele>
        <time>2020-09-12T10:55:48.000Z</time>
      </trkpt>
      <trkpt lat="44.03185" lon="6.88078">
        <ele>1543</ele>
        <time>2020-09-12T10:56:01.000Z</time>
      </trkpt>
      <trkpt lat="44.03184" lon="6.8808">
        <ele>1543</ele>
        <time>2020-09-12T10:56:10.000Z</time>
      </trkpt>
      <trkpt lat="44.03185" lon="6.8808">
        <ele>1543</ele>
        <time>2020-09-12T10:56:19.000Z</time>
      </trkpt>
      <trkpt lat="44.03185" lon="6.88079">
        <ele>1542.5999755859</ele>
        <time>2020-09-12T10:56:28.000Z</time>
      </trkpt>
      <trkpt lat="44.03186" lon="6.88079">
        <ele>1542.4000244141</ele>
        <time>2020-09-12T10:56:37.000Z</time>
      </trkpt>
      <trkpt lat="44.03188" lon="6.88078">
        <ele>1542.5999755859</ele>
        <time>2020-09-12T10:56:45.000Z</time>
      </trkpt>
      <trkpt lat="44.03189" lon="6.88077">
        <ele>1543</ele>
        <time>2020-09-12T10:56:59.000Z</time>
      </trkpt>
      <trkpt lat="44.03189" lon="6.88077">
        <ele>1543</ele>
        <time>2020-09-12T10:57:09.000Z</time>
      </trkpt>
      <trkpt lat="44.03189" lon="6.88078">
        <ele>1542.8000488281</ele>
        <time>2020-09-12T10:57:18.000Z</time>
      </trkpt>
      <trkpt lat="44.03188" lon="6.88078">
        <ele>1542.5999755859</ele>
        <time>2020-09-12T10:57:26.000Z</time>
      </trkpt>
      <trkpt lat="44.03188" lon="6.88078">
        <ele>1542.5999755859</ele>
        <time>2020-09-12T10:57:35.000Z</time>
      </trkpt>
      <trkpt lat="44.03187" lon="6.88078">
        <ele>1542.5999755859</ele>
        <time>2020-09-12T10:57:43.000Z</time>
      </trkpt>
      <trkpt lat="44.03188" lon="6.88078">
        <ele>1542.8000488281</ele>
        <time>2020-09-12T10:57:50.000Z</time>
      </trkpt>
      <trkpt lat="44.03188" lon="6.88078">
        <ele>1542.8000488281</ele>
        <time>2020-09-12T10:57:57.000Z</time>
      </trkpt>
      <trkpt lat="44.03188" lon="6.88078">
        <ele>1542.5999755859</ele>
        <time>2020-09-12T10:58:03.000Z</time>
      </trkpt>
      <trkpt lat="44.03188" lon="6.88079">
        <ele>1542.5999755859</ele>
        <time>2020-09-12T10:58:10.000Z</time>
      </trkpt>
      <trkpt lat="44.03189" lon="6.88079">
        <ele>1542.4000244141</ele>
        <time>2020-09-12T10:58:18.000Z</time>
      </trkpt>
      <trkpt lat="44.03189" lon="6.88079">
        <ele>1542.4000244141</ele>
        <time>2020-09-12T10:58:28.000Z</time>
      </trkpt>
      <trkpt lat="44.03189" lon="6.88078">
        <ele>1542.4000244141</ele>
        <time>2020-09-12T10:58:41.000Z</time>
      </trkpt>
      <trkpt lat="44.03189" lon="6.88079">
        <ele>1542.5999755859</ele>
        <time>2020-09-12T10:58:54.000Z</time>
      </trkpt>
      <trkpt lat="44.03189" lon="6.88078">
        <ele>1542.8000488281</ele>
        <time>2020-09-12T10:59:04.000Z</time>
      </trkpt>
      <trkpt lat="44.0319" lon="6.88078">
        <ele>1542.5999755859</ele>
        <time>2020-09-12T10:59:15.000Z</time>
      </trkpt>
      <trkpt lat="44.03189" lon="6.88078">
        <ele>1542.4000244141</ele>
        <time>2020-09-12T10:59:30.000Z</time>
      </trkpt>
      <trkpt lat="44.03188" lon="6.88079">
        <ele>1542.5999755859</ele>
        <time>2020-09-12T10:59:43.000Z</time>
      </trkpt>
      <trkpt lat="44.03188" lon="6.88078">
        <ele>1542.5999755859</ele>
        <time>2020-09-12T10:59:52.000Z</time>
      </trkpt>
      <trkpt lat="44.03188" lon="6.88078">
        <ele>1542.8000488281</ele>
        <time>2020-09-12T11:00:05.000Z</time>
      </trkpt>
      <trkpt lat="44.03188" lon="6.88079">
        <ele>1543</ele>
        <time>2020-09-12T11:00:16.000Z</time>
      </trkpt>
      <trkpt lat="44.03188" lon="6.88083">
        <ele>1543</ele>
        <time>2020-09-12T11:00:30.000Z</time>
      </trkpt>
      <trkpt lat="44.03189" lon="6.88082">
        <ele>1542.5999755859</ele>
        <time>2020-09-12T11:00:40.000Z</time>
      </trkpt>
      <trkpt lat="44.03189" lon="6.88082">
        <ele>1542.5999755859</ele>
        <time>2020-09-12T11:00:48.000Z</time>
      </trkpt>
      <trkpt lat="44.0319" lon="6.88081">
        <ele>1542.8000488281</ele>
        <time>2020-09-12T11:00:55.000Z</time>
      </trkpt>
      <trkpt lat="44.0319" lon="6.88081">
        <ele>1542.5999755859</ele>
        <time>2020-09-12T11:01:04.000Z</time>
      </trkpt>
      <trkpt lat="44.03189" lon="6.88082">
        <ele>1542.4000244141</ele>
        <time>2020-09-12T11:01:11.000Z</time>
      </trkpt>
      <trkpt lat="44.03188" lon="6.88081">
        <ele>1542.1999511719</ele>
        <time>2020-09-12T11:01:21.000Z</time>
      </trkpt>
      <trkpt lat="44.03188" lon="6.88081">
        <ele>1542.5999755859</ele>
        <time>2020-09-12T11:01:33.000Z</time>
      </trkpt>
      <trkpt lat="44.03188" lon="6.88081">
        <ele>1542.1999511719</ele>
        <time>2020-09-12T11:01:46.000Z</time>
      </trkpt>
      <trkpt lat="44.0319" lon="6.88081">
        <ele>1542.1999511719</ele>
        <time>2020-09-12T11:01:57.000Z</time>
      </trkpt>
      <trkpt lat="44.03189" lon="6.8808">
        <ele>1542.1999511719</ele>
        <time>2020-09-12T11:02:07.000Z</time>
      </trkpt>
      <trkpt lat="44.03188" lon="6.88081">
        <ele>1542.4000244141</ele>
        <time>2020-09-12T11:02:13.000Z</time>
      </trkpt>
      <trkpt lat="44.03189" lon="6.8808">
        <ele>1542.4000244141</ele>
        <time>2020-09-12T11:02:20.000Z</time>
      </trkpt>
      <trkpt lat="44.03189" lon="6.88079">
        <ele>1542.4000244141</ele>
        <time>2020-09-12T11:02:31.000Z</time>
      </trkpt>
      <trkpt lat="44.0319" lon="6.88076">
        <ele>1542.4000244141</ele>
        <time>2020-09-12T11:02:42.000Z</time>
      </trkpt>
      <trkpt lat="44.0319" lon="6.88075">
        <ele>1542.1999511719</ele>
        <time>2020-09-12T11:02:56.000Z</time>
      </trkpt>
      <trkpt lat="44.0319" lon="6.88073">
        <ele>1542.1999511719</ele>
        <time>2020-09-12T11:03:05.000Z</time>
      </trkpt>
      <trkpt lat="44.03187" lon="6.88074">
        <ele>1542.4000244141</ele>
        <time>2020-09-12T11:03:14.000Z</time>
      </trkpt>
      <trkpt lat="44.03189" lon="6.88074">
        <ele>1542.4000244141</ele>
        <time>2020-09-12T11:03:25.000Z</time>
      </trkpt>
      <trkpt lat="44.03187" lon="6.88074">
        <ele>1542.5999755859</ele>
        <time>2020-09-12T11:03:35.000Z</time>
      </trkpt>
      <trkpt lat="44.03186" lon="6.88076">
        <ele>1542.8000488281</ele>
        <time>2020-09-12T11:03:46.000Z</time>
      </trkpt>
      <trkpt lat="44.03185" lon="6.88077">
        <ele>1542.8000488281</ele>
        <time>2020-09-12T11:03:58.000Z</time>
      </trkpt>
      <trkpt lat="44.03184" lon="6.88077">
        <ele>1542.5999755859</ele>
        <time>2020-09-12T11:04:11.000Z</time>
      </trkpt>
      <trkpt lat="44.03185" lon="6.88077">
        <ele>1542.4000244141</ele>
        <time>2020-09-12T11:04:22.000Z</time>
      </trkpt>
      <trkpt lat="44.03187" lon="6.88077">
        <ele>1542.5999755859</ele>
        <time>2020-09-12T11:04:32.000Z</time>
      </trkpt>
      <trkpt lat="44.03189" lon="6.88078">
        <ele>1542.5999755859</ele>
        <time>2020-09-12T11:04:43.000Z</time>
      </trkpt>
      <trkpt lat="44.03189" lon="6.88079">
        <ele>1542.5999755859</ele>
        <time>2020-09-12T11:04:52.000Z</time>
      </trkpt>
      <trkpt lat="44.03189" lon="6.8808">
        <ele>1542.5999755859</ele>
        <time>2020-09-12T11:05:02.000Z</time>
      </trkpt>
      <trkpt lat="44.0319" lon="6.88078">
        <ele>1542.4000244141</ele>
        <time>2020-09-12T11:05:10.000Z</time>
      </trkpt>
      <trkpt lat="44.03188" lon="6.88077">
        <ele>1542.4000244141</ele>
        <time>2020-09-12T11:05:19.000Z</time>
      </trkpt>
      <trkpt lat="44.03189" lon="6.88077">
        <ele>1542.5999755859</ele>
        <time>2020-09-12T11:05:26.000Z</time>
      </trkpt>
      <trkpt lat="44.0319" lon="6.88077">
        <ele>1542.5999755859</ele>
        <time>2020-09-12T11:05:33.000Z</time>
      </trkpt>
      <trkpt lat="44.0319" lon="6.88076">
        <ele>1542.5999755859</ele>
        <time>2020-09-12T11:05:38.000Z</time>
      </trkpt>
      <trkpt lat="44.03192" lon="6.88078">
        <ele>1542.5999755859</ele>
        <time>2020-09-12T11:05:44.000Z</time>
      </trkpt>
      <trkpt lat="44.03195" lon="6.88081">
        <ele>1542.5999755859</ele>
        <time>2020-09-12T11:05:50.000Z</time>
      </trkpt>
      <trkpt lat="44.03195" lon="6.88081">
        <ele>1542.5999755859</ele>
        <time>2020-09-12T11:05:57.000Z</time>
      </trkpt>
      <trkpt lat="44.03196" lon="6.88081">
        <ele>1542.5999755859</ele>
        <time>2020-09-12T11:06:04.000Z</time>
      </trkpt>
      <trkpt lat="44.03196" lon="6.88082">
        <ele>1542.5999755859</ele>
        <time>2020-09-12T11:06:11.000Z</time>
      </trkpt>
      <trkpt lat="44.03192" lon="6.88082">
        <ele>1542.5999755859</ele>
        <time>2020-09-12T11:06:21.000Z</time>
      </trkpt>
      <trkpt lat="44.03191" lon="6.88082">
        <ele>1542.4000244141</ele>
        <time>2020-09-12T11:06:31.000Z</time>
      </trkpt>
      <trkpt lat="44.03194" lon="6.88083">
        <ele>1542.4000244141</ele>
        <time>2020-09-12T11:06:39.000Z</time>
      </trkpt>
      <trkpt lat="44.03195" lon="6.88082">
        <ele>1542.4000244141</ele>
        <time>2020-09-12T11:06:45.000Z</time>
      </trkpt>
      <trkpt lat="44.03195" lon="6.88079">
        <ele>1542.4000244141</ele>
        <time>2020-09-12T11:06:51.000Z</time>
      </trkpt>
      <trkpt lat="44.03197" lon="6.88079">
        <ele>1542.4000244141</ele>
        <time>2020-09-12T11:06:52.000Z</time>
      </trkpt>
      <trkpt lat="44.03198" lon="6.88079">
        <ele>1542.1999511719</ele>
        <time>2020-09-12T11:06:56.000Z</time>
      </trkpt>
      <trkpt lat="44.03203" lon="6.88082">
        <ele>1542.4000244141</ele>
        <time>2020-09-12T11:07:01.000Z</time>
      </trkpt>
      <trkpt lat="44.03201" lon="6.8808">
        <ele>1542.4000244141</ele>
        <time>2020-09-12T11:07:03.000Z</time>
      </trkpt>
      <trkpt lat="44.032" lon="6.88079">
        <ele>1542.4000244141</ele>
        <time>2020-09-12T11:07:06.000Z</time>
      </trkpt>
      <trkpt lat="44.03198" lon="6.88079">
        <ele>1542.1999511719</ele>
        <time>2020-09-12T11:07:13.000Z</time>
      </trkpt>
      <trkpt lat="44.03197" lon="6.88078">
        <ele>1543.1999511719</ele>
        <time>2020-09-12T11:07:26.000Z</time>
      </trkpt>
      <trkpt lat="44.03197" lon="6.88077">
        <ele>1543</ele>
        <time>2020-09-12T11:07:41.000Z</time>
      </trkpt>
      <trkpt lat="44.03198" lon="6.88077">
        <ele>1542.4000244141</ele>
        <time>2020-09-12T11:07:47.000Z</time>
      </trkpt>
      <trkpt lat="44.03195" lon="6.88077">
        <ele>1542.5999755859</ele>
        <time>2020-09-12T11:07:58.000Z</time>
      </trkpt>
      <trkpt lat="44.03193" lon="6.88076">
        <ele>1542.5999755859</ele>
        <time>2020-09-12T11:08:09.000Z</time>
      </trkpt>
      <trkpt lat="44.03193" lon="6.88076">
        <ele>1542.4000244141</ele>
        <time>2020-09-12T11:08:20.000Z</time>
      </trkpt>
      <trkpt lat="44.03192" lon="6.88076">
        <ele>1542.4000244141</ele>
        <time>2020-09-12T11:08:30.000Z</time>
      </trkpt>
      <trkpt lat="44.03193" lon="6.88076">
        <ele>1542.1999511719</ele>
        <time>2020-09-12T11:08:41.000Z</time>
      </trkpt>
      <trkpt lat="44.03192" lon="6.88076">
        <ele>1542.1999511719</ele>
        <time>2020-09-12T11:08:50.000Z</time>
      </trkpt>
      <trkpt lat="44.03193" lon="6.88077">
        <ele>1542.1999511719</ele>
        <time>2020-09-12T11:08:57.000Z</time>
      </trkpt>
      <trkpt lat="44.03192" lon="6.88077">
        <ele>1542</ele>
        <time>2020-09-12T11:09:04.000Z</time>
      </trkpt>
      <trkpt lat="44.03192" lon="6.88077">
        <ele>1542</ele>
        <time>2020-09-12T11:09:07.000Z</time>
      </trkpt>
      <trkpt lat="44.03193" lon="6.88078">
        <ele>1542</ele>
        <time>2020-09-12T11:09:15.000Z</time>
      </trkpt>
      <trkpt lat="44.03193" lon="6.88079">
        <ele>1542</ele>
        <time>2020-09-12T11:09:23.000Z</time>
      </trkpt>
      <trkpt lat="44.03194" lon="6.88079">
        <ele>1541.8000488281</ele>
        <time>2020-09-12T11:09:30.000Z</time>
      </trkpt>
      <trkpt lat="44.03192" lon="6.88078">
        <ele>1541.8000488281</ele>
        <time>2020-09-12T11:09:37.000Z</time>
      </trkpt>
      <trkpt lat="44.03189" lon="6.88077">
        <ele>1541.8000488281</ele>
        <time>2020-09-12T11:09:43.000Z</time>
      </trkpt>
      <trkpt lat="44.03189" lon="6.88077">
        <ele>1542</ele>
        <time>2020-09-12T11:09:50.000Z</time>
      </trkpt>
      <trkpt lat="44.03189" lon="6.88077">
        <ele>1541.8000488281</ele>
        <time>2020-09-12T11:09:58.000Z</time>
      </trkpt>
      <trkpt lat="44.03188" lon="6.88076">
        <ele>1542</ele>
        <time>2020-09-12T11:10:07.000Z</time>
      </trkpt>
      <trkpt lat="44.0319" lon="6.88079">
        <ele>1542</ele>
        <time>2020-09-12T11:10:14.000Z</time>
      </trkpt>
      <trkpt lat="44.03191" lon="6.8808">
        <ele>1542</ele>
        <time>2020-09-12T11:10:21.000Z</time>
      </trkpt>
      <trkpt lat="44.03192" lon="6.8808">
        <ele>1542.1999511719</ele>
        <time>2020-09-12T11:10:27.000Z</time>
      </trkpt>
      <trkpt lat="44.03191" lon="6.88079">
        <ele>1542</ele>
        <time>2020-09-12T11:10:33.000Z</time>
      </trkpt>
      <trkpt lat="44.03189" lon="6.88079">
        <ele>1542</ele>
        <time>2020-09-12T11:10:41.000Z</time>
      </trkpt>
      <trkpt lat="44.0319" lon="6.88079">
        <ele>1542</ele>
        <time>2020-09-12T11:10:48.000Z</time>
      </trkpt>
      <trkpt lat="44.03189" lon="6.88079">
        <ele>1542</ele>
        <time>2020-09-12T11:10:57.000Z</time>
      </trkpt>
      <trkpt lat="44.03189" lon="6.88078">
        <ele>1542</ele>
        <time>2020-09-12T11:11:08.000Z</time>
      </trkpt>
      <trkpt lat="44.03189" lon="6.88077">
        <ele>1542</ele>
        <time>2020-09-12T11:11:16.000Z</time>
      </trkpt>
      <trkpt lat="44.03189" lon="6.88077">
        <ele>1542</ele>
        <time>2020-09-12T11:11:24.000Z</time>
      </trkpt>
      <trkpt lat="44.0319" lon="6.88077">
        <ele>1541.8000488281</ele>
        <time>2020-09-12T11:11:33.000Z</time>
      </trkpt>
      <trkpt lat="44.03189" lon="6.88076">
        <ele>1541.8000488281</ele>
        <time>2020-09-12T11:11:41.000Z</time>
      </trkpt>
      <trkpt lat="44.03189" lon="6.88075">
        <ele>1541.8000488281</ele>
        <time>2020-09-12T11:11:47.000Z</time>
      </trkpt>
      <trkpt lat="44.0319" lon="6.88076">
        <ele>1541.8000488281</ele>
        <time>2020-09-12T11:11:56.000Z</time>
      </trkpt>
      <trkpt lat="44.03189" lon="6.88077">
        <ele>1541.8000488281</ele>
        <time>2020-09-12T11:12:06.000Z</time>
      </trkpt>
      <trkpt lat="44.0319" lon="6.88078">
        <ele>1541.8000488281</ele>
        <time>2020-09-12T11:12:14.000Z</time>
      </trkpt>
      <trkpt lat="44.0319" lon="6.88078">
        <ele>1541.8000488281</ele>
        <time>2020-09-12T11:12:22.000Z</time>
      </trkpt>
      <trkpt lat="44.03191" lon="6.88077">
        <ele>1541.8000488281</ele>
        <time>2020-09-12T11:12:32.000Z</time>
      </trkpt>
      <trkpt lat="44.03192" lon="6.88078">
        <ele>1542</ele>
        <time>2020-09-12T11:12:45.000Z</time>
      </trkpt>
      <trkpt lat="44.03191" lon="6.88077">
        <ele>1541.5999755859</ele>
        <time>2020-09-12T11:12:57.000Z</time>
      </trkpt>
      <trkpt lat="44.03191" lon="6.88077">
        <ele>1541.8000488281</ele>
        <time>2020-09-12T11:13:07.000Z</time>
      </trkpt>
      <trkpt lat="44.03196" lon="6.8808">
        <ele>1542.4000244141</ele>
        <time>2020-09-12T11:13:22.000Z</time>
      </trkpt>
      <trkpt lat="44.03197" lon="6.8808">
        <ele>1543.1999511719</ele>
        <time>2020-09-12T11:13:27.000Z</time>
      </trkpt>
      <trkpt lat="44.03196" lon="6.88081">
        <ele>1542.5999755859</ele>
        <time>2020-09-12T11:13:33.000Z</time>
      </trkpt>
      <trkpt lat="44.03195" lon="6.88081">
        <ele>1542</ele>
        <time>2020-09-12T11:13:38.000Z</time>
      </trkpt>
      <trkpt lat="44.03195" lon="6.88081">
        <ele>1541.8000488281</ele>
        <time>2020-09-12T11:13:39.000Z</time>
      </trkpt>
      <trkpt lat="44.03193" lon="6.88078">
        <ele>1541.8000488281</ele>
        <time>2020-09-12T11:13:46.000Z</time>
      </trkpt>
      <trkpt lat="44.03191" lon="6.88075">
        <ele>1541.8000488281</ele>
        <time>2020-09-12T11:13:51.000Z</time>
      </trkpt>
      <trkpt lat="44.0319" lon="6.88074">
        <ele>1541.5999755859</ele>
        <time>2020-09-12T11:13:59.000Z</time>
      </trkpt>
      <trkpt lat="44.03189" lon="6.88072">
        <ele>1541.8000488281</ele>
        <time>2020-09-12T11:14:06.000Z</time>
      </trkpt>
      <trkpt lat="44.03187" lon="6.88069">
        <ele>1541.8000488281</ele>
        <time>2020-09-12T11:14:13.000Z</time>
      </trkpt>
      <trkpt lat="44.03186" lon="6.88067">
        <ele>1541.8000488281</ele>
        <time>2020-09-12T11:14:21.000Z</time>
      </trkpt>
      <trkpt lat="44.03187" lon="6.88067">
        <ele>1541.8000488281</ele>
        <time>2020-09-12T11:14:29.000Z</time>
      </trkpt>
      <trkpt lat="44.03188" lon="6.88067">
        <ele>1541.8000488281</ele>
        <time>2020-09-12T11:14:35.000Z</time>
      </trkpt>
      <trkpt lat="44.03188" lon="6.88065">
        <ele>1541.5999755859</ele>
        <time>2020-09-12T11:14:42.000Z</time>
      </trkpt>
      <trkpt lat="44.03188" lon="6.88064">
        <ele>1541.8000488281</ele>
        <time>2020-09-12T11:14:49.000Z</time>
      </trkpt>
      <trkpt lat="44.03187" lon="6.88063">
        <ele>1541.8000488281</ele>
        <time>2020-09-12T11:14:55.000Z</time>
      </trkpt>
      <trkpt lat="44.03187" lon="6.88062">
        <ele>1541.8000488281</ele>
        <time>2020-09-12T11:15:02.000Z</time>
      </trkpt>
      <trkpt lat="44.03188" lon="6.88063">
        <ele>1541.8000488281</ele>
        <time>2020-09-12T11:15:11.000Z</time>
      </trkpt>
      <trkpt lat="44.03187" lon="6.88062">
        <ele>1541.8000488281</ele>
        <time>2020-09-12T11:15:18.000Z</time>
      </trkpt>
      <trkpt lat="44.03188" lon="6.88063">
        <ele>1541.8000488281</ele>
        <time>2020-09-12T11:15:24.000Z</time>
      </trkpt>
      <trkpt lat="44.03189" lon="6.88064">
        <ele>1542.1999511719</ele>
        <time>2020-09-12T11:15:32.000Z</time>
      </trkpt>
      <trkpt lat="44.0319" lon="6.88066">
        <ele>1542.5999755859</ele>
        <time>2020-09-12T11:15:38.000Z</time>
      </trkpt>
      <trkpt lat="44.03191" lon="6.88066">
        <ele>1543.1999511719</ele>
        <time>2020-09-12T11:15:41.000Z</time>
      </trkpt>
      <trkpt lat="44.03192" lon="6.88065">
        <ele>1543.4000244141</ele>
        <time>2020-09-12T11:15:44.000Z</time>
      </trkpt>
      <trkpt lat="44.03193" lon="6.88067">
        <ele>1543.4000244141</ele>
        <time>2020-09-12T11:15:55.000Z</time>
      </trkpt>
      <trkpt lat="44.03193" lon="6.88068">
        <ele>1543</ele>
        <time>2020-09-12T11:16:05.000Z</time>
      </trkpt>
      <trkpt lat="44.03192" lon="6.88069">
        <ele>1542.5999755859</ele>
        <time>2020-09-12T11:16:24.000Z</time>
      </trkpt>
      <trkpt lat="44.03192" lon="6.88071">
        <ele>1542.8000488281</ele>
        <time>2020-09-12T11:16:33.000Z</time>
      </trkpt>
      <trkpt lat="44.03192" lon="6.88071">
        <ele>1542.4000244141</ele>
        <time>2020-09-12T11:16:48.000Z</time>
      </trkpt>
      <trkpt lat="44.03192" lon="6.88072">
        <ele>1542.5999755859</ele>
        <time>2020-09-12T11:17:08.000Z</time>
      </trkpt>
      <trkpt lat="44.03191" lon="6.88073">
        <ele>1542.5999755859</ele>
        <time>2020-09-12T11:17:19.000Z</time>
      </trkpt>
      <trkpt lat="44.0319" lon="6.88071">
        <ele>1543</ele>
        <time>2020-09-12T11:17:29.000Z</time>
      </trkpt>
      <trkpt lat="44.03191" lon="6.88077">
        <ele>1543.1999511719</ele>
        <time>2020-09-12T11:17:38.000Z</time>
      </trkpt>
      <trkpt lat="44.03191" lon="6.88087">
        <ele>1543.4000244141</ele>
        <time>2020-09-12T11:17:43.000Z</time>
      </trkpt>
      <trkpt lat="44.03191" lon="6.8809">
        <ele>1543.4000244141</ele>
        <time>2020-09-12T11:17:44.000Z</time>
      </trkpt>
      <trkpt lat="44.03192" lon="6.88098">
        <ele>1543.1999511719</ele>
        <time>2020-09-12T11:17:47.000Z</time>
      </trkpt>
      <trkpt lat="44.03192" lon="6.88107">
        <ele>1543.1999511719</ele>
        <time>2020-09-12T11:17:50.000Z</time>
      </trkpt>
      <trkpt lat="44.03193" lon="6.88134">
        <ele>1543</ele>
        <time>2020-09-12T11:17:56.000Z</time>
      </trkpt>
      <trkpt lat="44.03196" lon="6.88167">
        <ele>1542.4000244141</ele>
        <time>2020-09-12T11:18:00.000Z</time>
      </trkpt>
      <trkpt lat="44.03197" lon="6.88176">
        <ele>1542</ele>
        <time>2020-09-12T11:18:01.000Z</time>
      </trkpt>
      <trkpt lat="44.03199" lon="6.88209">
        <ele>1541.1999511719</ele>
        <time>2020-09-12T11:18:05.000Z</time>
      </trkpt>
      <trkpt lat="44.03198" lon="6.88217">
        <ele>1541</ele>
        <time>2020-09-12T11:18:06.000Z</time>
      </trkpt>
      <trkpt lat="44.03197" lon="6.88231">
        <ele>1540.8000488281</ele>
        <time>2020-09-12T11:18:08.000Z</time>
      </trkpt>
      <trkpt lat="44.03196" lon="6.88238">
        <ele>1540.8000488281</ele>
        <time>2020-09-12T11:18:09.000Z</time>
      </trkpt>
      <trkpt lat="44.0319" lon="6.88273">
        <ele>1540.4000244141</ele>
        <time>2020-09-12T11:18:15.000Z</time>
      </trkpt>
      <trkpt lat="44.03188" lon="6.88287">
        <ele>1540.5999755859</ele>
        <time>2020-09-12T11:18:20.000Z</time>
      </trkpt>
      <trkpt lat="44.03187" lon="6.88299">
        <ele>1542</ele>
        <time>2020-09-12T11:18:25.000Z</time>
      </trkpt>
      <trkpt lat="44.03186" lon="6.88301">
        <ele>1542.4000244141</ele>
        <time>2020-09-12T11:18:26.000Z</time>
      </trkpt>
      <trkpt lat="44.03187" lon="6.88307">
        <ele>1543.4000244141</ele>
        <time>2020-09-12T11:18:29.000Z</time>
      </trkpt>
      <trkpt lat="44.03187" lon="6.88313">
        <ele>1544.1999511719</ele>
        <time>2020-09-12T11:18:32.000Z</time>
      </trkpt>
      <trkpt lat="44.03187" lon="6.88316">
        <ele>1544.4000244141</ele>
        <time>2020-09-12T11:18:33.000Z</time>
      </trkpt>
      <trkpt lat="44.03188" lon="6.88328">
        <ele>1545.4000244141</ele>
        <time>2020-09-12T11:18:39.000Z</time>
      </trkpt>
      <trkpt lat="44.03188" lon="6.8833">
        <ele>1545.4000244141</ele>
        <time>2020-09-12T11:18:40.000Z</time>
      </trkpt>
      <trkpt lat="44.03191" lon="6.88344">
        <ele>1546</ele>
        <time>2020-09-12T11:18:46.000Z</time>
      </trkpt>
      <trkpt lat="44.03191" lon="6.88346">
        <ele>1546</ele>
        <time>2020-09-12T11:18:47.000Z</time>
      </trkpt>
      <trkpt lat="44.03194" lon="6.88357">
        <ele>1546</ele>
        <time>2020-09-12T11:18:51.000Z</time>
      </trkpt>
      <trkpt lat="44.03198" lon="6.88378">
        <ele>1546</ele>
        <time>2020-09-12T11:18:57.000Z</time>
      </trkpt>
      <trkpt lat="44.03196" lon="6.88408">
        <ele>1545.4000244141</ele>
        <time>2020-09-12T11:19:04.000Z</time>
      </trkpt>
      <trkpt lat="44.03184" lon="6.88424">
        <ele>1545.5999755859</ele>
        <time>2020-09-12T11:19:09.000Z</time>
      </trkpt>
      <trkpt lat="44.0317" lon="6.88439">
        <ele>1545.1999511719</ele>
        <time>2020-09-12T11:19:12.000Z</time>
      </trkpt>
      <trkpt lat="44.03166" lon="6.88441">
        <ele>1545</ele>
        <time>2020-09-12T11:19:13.000Z</time>
      </trkpt>
      <trkpt lat="44.0316" lon="6.88446">
        <ele>1544</ele>
        <time>2020-09-12T11:19:16.000Z</time>
      </trkpt>
      <trkpt lat="44.03157" lon="6.88453">
        <ele>1542.1999511719</ele>
        <time>2020-09-12T11:19:18.000Z</time>
      </trkpt>
      <trkpt lat="44.03155" lon="6.88457">
        <ele>1541.1999511719</ele>
        <time>2020-09-12T11:19:19.000Z</time>
      </trkpt>
      <trkpt lat="44.03153" lon="6.88461">
        <ele>1540.1999511719</ele>
        <time>2020-09-12T11:19:20.000Z</time>
      </trkpt>
      <trkpt lat="44.0315" lon="6.88469">
        <ele>1539</ele>
        <time>2020-09-12T11:19:22.000Z</time>
      </trkpt>
      <trkpt lat="44.03146" lon="6.88484">
        <ele>1537.8000488281</ele>
        <time>2020-09-12T11:19:25.000Z</time>
      </trkpt>
      <trkpt lat="44.03142" lon="6.88507">
        <ele>1536.8000488281</ele>
        <time>2020-09-12T11:19:29.000Z</time>
      </trkpt>
      <trkpt lat="44.03141" lon="6.88516">
        <ele>1536.4000244141</ele>
        <time>2020-09-12T11:19:31.000Z</time>
      </trkpt>
      <trkpt lat="44.0314" lon="6.88524">
        <ele>1535.8000488281</ele>
        <time>2020-09-12T11:19:33.000Z</time>
      </trkpt>
      <trkpt lat="44.03141" lon="6.88533">
        <ele>1534.4000244141</ele>
        <time>2020-09-12T11:19:36.000Z</time>
      </trkpt>
      <trkpt lat="44.03141" lon="6.88535">
        <ele>1534</ele>
        <time>2020-09-12T11:19:37.000Z</time>
      </trkpt>
      <trkpt lat="44.03142" lon="6.88538">
        <ele>1533.1999511719</ele>
        <time>2020-09-12T11:19:39.000Z</time>
      </trkpt>
      <trkpt lat="44.03142" lon="6.88539">
        <ele>1531.8000488281</ele>
        <time>2020-09-12T11:19:42.000Z</time>
      </trkpt>
      <trkpt lat="44.03143" lon="6.88539">
        <ele>1530.8000488281</ele>
        <time>2020-09-12T11:19:49.000Z</time>
      </trkpt>
      <trkpt lat="44.03143" lon="6.88539">
        <ele>1530.5999755859</ele>
        <time>2020-09-12T11:19:53.000Z</time>
      </trkpt>
      <trkpt lat="44.03142" lon="6.88538">
        <ele>1530.8000488281</ele>
        <time>2020-09-12T11:20:14.000Z</time>
      </trkpt>
      <trkpt lat="44.03142" lon="6.88541">
        <ele>1530.8000488281</ele>
        <time>2020-09-12T11:20:17.000Z</time>
      </trkpt>
      <trkpt lat="44.03144" lon="6.88549">
        <ele>1530.8000488281</ele>
        <time>2020-09-12T11:20:19.000Z</time>
      </trkpt>
      <trkpt lat="44.03148" lon="6.88579">
        <ele>1529.5999755859</ele>
        <time>2020-09-12T11:20:24.000Z</time>
      </trkpt>
      <trkpt lat="44.03151" lon="6.88597">
        <ele>1528.4000244141</ele>
        <time>2020-09-12T11:20:26.000Z</time>
      </trkpt>
      <trkpt lat="44.03154" lon="6.88615">
        <ele>1526</ele>
        <time>2020-09-12T11:20:28.000Z</time>
      </trkpt>
      <trkpt lat="44.03155" lon="6.88639">
        <ele>1525</ele>
        <time>2020-09-12T11:20:31.000Z</time>
      </trkpt>
      <trkpt lat="44.03155" lon="6.88649">
        <ele>1523.5999755859</ele>
        <time>2020-09-12T11:20:32.000Z</time>
      </trkpt>
      <trkpt lat="44.03155" lon="6.88658">
        <ele>1522.4000244141</ele>
        <time>2020-09-12T11:20:33.000Z</time>
      </trkpt>
      <trkpt lat="44.03154" lon="6.88666">
        <ele>1521</ele>
        <time>2020-09-12T11:20:34.000Z</time>
      </trkpt>
      <trkpt lat="44.03155" lon="6.88672">
        <ele>1520</ele>
        <time>2020-09-12T11:20:35.000Z</time>
      </trkpt>
      <trkpt lat="44.03158" lon="6.8868">
        <ele>1519</ele>
        <time>2020-09-12T11:20:36.000Z</time>
      </trkpt>
      <trkpt lat="44.03161" lon="6.88693">
        <ele>1517</ele>
        <time>2020-09-12T11:20:38.000Z</time>
      </trkpt>
      <trkpt lat="44.0316" lon="6.88698">
        <ele>1515.8000488281</ele>
        <time>2020-09-12T11:20:39.000Z</time>
      </trkpt>
      <trkpt lat="44.0316" lon="6.88703">
        <ele>1515</ele>
        <time>2020-09-12T11:20:40.000Z</time>
      </trkpt>
      <trkpt lat="44.0316" lon="6.8871">
        <ele>1514.4000244141</ele>
        <time>2020-09-12T11:20:41.000Z</time>
      </trkpt>
      <trkpt lat="44.0316" lon="6.88729">
        <ele>1513</ele>
        <time>2020-09-12T11:20:43.000Z</time>
      </trkpt>
      <trkpt lat="44.03158" lon="6.88738">
        <ele>1512</ele>
        <time>2020-09-12T11:20:44.000Z</time>
      </trkpt>
      <trkpt lat="44.03157" lon="6.88746">
        <ele>1511.8000488281</ele>
        <time>2020-09-12T11:20:45.000Z</time>
      </trkpt>
      <trkpt lat="44.03156" lon="6.88763">
        <ele>1510.8000488281</ele>
        <time>2020-09-12T11:20:47.000Z</time>
      </trkpt>
      <trkpt lat="44.03155" lon="6.88772">
        <ele>1508.8000488281</ele>
        <time>2020-09-12T11:20:48.000Z</time>
      </trkpt>
      <trkpt lat="44.03154" lon="6.88782">
        <ele>1507.5999755859</ele>
        <time>2020-09-12T11:20:49.000Z</time>
      </trkpt>
      <trkpt lat="44.03153" lon="6.88792">
        <ele>1506.4000244141</ele>
        <time>2020-09-12T11:20:50.000Z</time>
      </trkpt>
      <trkpt lat="44.03152" lon="6.88802">
        <ele>1505.1999511719</ele>
        <time>2020-09-12T11:20:51.000Z</time>
      </trkpt>
      <trkpt lat="44.0315" lon="6.88817">
        <ele>1503.4000244141</ele>
        <time>2020-09-12T11:20:53.000Z</time>
      </trkpt>
      <trkpt lat="44.03147" lon="6.88824">
        <ele>1502.8000488281</ele>
        <time>2020-09-12T11:20:54.000Z</time>
      </trkpt>
      <trkpt lat="44.03144" lon="6.88828">
        <ele>1502.1999511719</ele>
        <time>2020-09-12T11:20:55.000Z</time>
      </trkpt>
      <trkpt lat="44.03135" lon="6.88841">
        <ele>1501</ele>
        <time>2020-09-12T11:20:57.000Z</time>
      </trkpt>
      <trkpt lat="44.03128" lon="6.88855">
        <ele>1498.8000488281</ele>
        <time>2020-09-12T11:20:59.000Z</time>
      </trkpt>
      <trkpt lat="44.03122" lon="6.88867">
        <ele>1497.1999511719</ele>
        <time>2020-09-12T11:21:01.000Z</time>
      </trkpt>
      <trkpt lat="44.03118" lon="6.88874">
        <ele>1495.1999511719</ele>
        <time>2020-09-12T11:21:03.000Z</time>
      </trkpt>
      <trkpt lat="44.03115" lon="6.88878">
        <ele>1494</ele>
        <time>2020-09-12T11:21:05.000Z</time>
      </trkpt>
      <trkpt lat="44.03108" lon="6.88889">
        <ele>1493</ele>
        <time>2020-09-12T11:21:08.000Z</time>
      </trkpt>
      <trkpt lat="44.03104" lon="6.88894">
        <ele>1492.5999755859</ele>
        <time>2020-09-12T11:21:09.000Z</time>
      </trkpt>
      <trkpt lat="44.03097" lon="6.88906">
        <ele>1490.5999755859</ele>
        <time>2020-09-12T11:21:11.000Z</time>
      </trkpt>
      <trkpt lat="44.03091" lon="6.88915">
        <ele>1489.4000244141</ele>
        <time>2020-09-12T11:21:13.000Z</time>
      </trkpt>
      <trkpt lat="44.03087" lon="6.88915">
        <ele>1488.1999511719</ele>
        <time>2020-09-12T11:21:14.000Z</time>
      </trkpt>
      <trkpt lat="44.03085" lon="6.88914">
        <ele>1487.1999511719</ele>
        <time>2020-09-12T11:21:15.000Z</time>
      </trkpt>
      <trkpt lat="44.03084" lon="6.88914">
        <ele>1486.1999511719</ele>
        <time>2020-09-12T11:21:16.000Z</time>
      </trkpt>
      <trkpt lat="44.03084" lon="6.88913">
        <ele>1485</ele>
        <time>2020-09-12T11:21:17.000Z</time>
      </trkpt>
      <trkpt lat="44.03084" lon="6.88913">
        <ele>1483.1999511719</ele>
        <time>2020-09-12T11:21:19.000Z</time>
      </trkpt>
      <trkpt lat="44.03084" lon="6.88912">
        <ele>1482.1999511719</ele>
        <time>2020-09-12T11:21:21.000Z</time>
      </trkpt>
      <trkpt lat="44.03085" lon="6.88912">
        <ele>1481</ele>
        <time>2020-09-12T11:21:25.000Z</time>
      </trkpt>
      <trkpt lat="44.03085" lon="6.88912">
        <ele>1479.8000488281</ele>
        <time>2020-09-12T11:21:32.000Z</time>
      </trkpt>
      <trkpt lat="44.03085" lon="6.88913">
        <ele>1478.8000488281</ele>
        <time>2020-09-12T11:21:39.000Z</time>
      </trkpt>
      <trkpt lat="44.03086" lon="6.88913">
        <ele>1477.5999755859</ele>
        <time>2020-09-12T11:21:46.000Z</time>
      </trkpt>
      <trkpt lat="44.03085" lon="6.88908">
        <ele>1477.8000488281</ele>
        <time>2020-09-12T11:21:51.000Z</time>
      </trkpt>
      <trkpt lat="44.03086" lon="6.8889">
        <ele>1478</ele>
        <time>2020-09-12T11:21:55.000Z</time>
      </trkpt>
      <trkpt lat="44.03086" lon="6.88881">
        <ele>1477.8000488281</ele>
        <time>2020-09-12T11:21:56.000Z</time>
      </trkpt>
      <trkpt lat="44.03088" lon="6.88864">
        <ele>1477.1999511719</ele>
        <time>2020-09-12T11:21:58.000Z</time>
      </trkpt>
      <trkpt lat="44.03089" lon="6.88856">
        <ele>1476.8000488281</ele>
        <time>2020-09-12T11:21:59.000Z</time>
      </trkpt>
      <trkpt lat="44.03091" lon="6.8885">
        <ele>1476</ele>
        <time>2020-09-12T11:22:00.000Z</time>
      </trkpt>
      <trkpt lat="44.03091" lon="6.88841">
        <ele>1474.5999755859</ele>
        <time>2020-09-12T11:22:02.000Z</time>
      </trkpt>
      <trkpt lat="44.0309" lon="6.88838">
        <ele>1474</ele>
        <time>2020-09-12T11:22:03.000Z</time>
      </trkpt>
      <trkpt lat="44.03087" lon="6.88837">
        <ele>1473.4000244141</ele>
        <time>2020-09-12T11:22:04.000Z</time>
      </trkpt>
      <trkpt lat="44.03079" lon="6.88838">
        <ele>1472.5999755859</ele>
        <time>2020-09-12T11:22:06.000Z</time>
      </trkpt>
      <trkpt lat="44.03075" lon="6.8884">
        <ele>1472</ele>
        <time>2020-09-12T11:22:07.000Z</time>
      </trkpt>
      <trkpt lat="44.03068" lon="6.88852">
        <ele>1470.4000244141</ele>
        <time>2020-09-12T11:22:09.000Z</time>
      </trkpt>
      <trkpt lat="44.03065" lon="6.88858">
        <ele>1469.4000244141</ele>
        <time>2020-09-12T11:22:10.000Z</time>
      </trkpt>
      <trkpt lat="44.03063" lon="6.88864">
        <ele>1468.5999755859</ele>
        <time>2020-09-12T11:22:11.000Z</time>
      </trkpt>
      <trkpt lat="44.0306" lon="6.88871">
        <ele>1467.8000488281</ele>
        <time>2020-09-12T11:22:12.000Z</time>
      </trkpt>
      <trkpt lat="44.03056" lon="6.88884">
        <ele>1466.8000488281</ele>
        <time>2020-09-12T11:22:14.000Z</time>
      </trkpt>
      <trkpt lat="44.03054" lon="6.8889">
        <ele>1466.8000488281</ele>
        <time>2020-09-12T11:22:15.000Z</time>
      </trkpt>
      <trkpt lat="44.03049" lon="6.88901">
        <ele>1466.4000244141</ele>
        <time>2020-09-12T11:22:17.000Z</time>
      </trkpt>
      <trkpt lat="44.0304" lon="6.88909">
        <ele>1465.8000488281</ele>
        <time>2020-09-12T11:22:19.000Z</time>
      </trkpt>
      <trkpt lat="44.03037" lon="6.8891">
        <ele>1465</ele>
        <time>2020-09-12T11:22:20.000Z</time>
      </trkpt>
      <trkpt lat="44.03029" lon="6.88913">
        <ele>1463.4000244141</ele>
        <time>2020-09-12T11:22:22.000Z</time>
      </trkpt>
      <trkpt lat="44.03024" lon="6.88916">
        <ele>1463</ele>
        <time>2020-09-12T11:22:23.000Z</time>
      </trkpt>
      <trkpt lat="44.03018" lon="6.88919">
        <ele>1462.4000244141</ele>
        <time>2020-09-12T11:22:24.000Z</time>
      </trkpt>
      <trkpt lat="44.03012" lon="6.8892">
        <ele>1461.8000488281</ele>
        <time>2020-09-12T11:22:25.000Z</time>
      </trkpt>
      <trkpt lat="44.03006" lon="6.88921">
        <ele>1461.1999511719</ele>
        <time>2020-09-12T11:22:26.000Z</time>
      </trkpt>
      <trkpt lat="44.03001" lon="6.8892">
        <ele>1460.4000244141</ele>
        <time>2020-09-12T11:22:27.000Z</time>
      </trkpt>
      <trkpt lat="44.02998" lon="6.88917">
        <ele>1459.5999755859</ele>
        <time>2020-09-12T11:22:28.000Z</time>
      </trkpt>
      <trkpt lat="44.02991" lon="6.88906">
        <ele>1458.1999511719</ele>
        <time>2020-09-12T11:22:30.000Z</time>
      </trkpt>
      <trkpt lat="44.02986" lon="6.88891">
        <ele>1456.8000488281</ele>
        <time>2020-09-12T11:22:32.000Z</time>
      </trkpt>
      <trkpt lat="44.02984" lon="6.88881">
        <ele>1455.4000244141</ele>
        <time>2020-09-12T11:22:34.000Z</time>
      </trkpt>
      <trkpt lat="44.02983" lon="6.88877">
        <ele>1453.1999511719</ele>
        <time>2020-09-12T11:22:36.000Z</time>
      </trkpt>
      <trkpt lat="44.02983" lon="6.88878">
        <ele>1451.8000488281</ele>
        <time>2020-09-12T11:22:37.000Z</time>
      </trkpt>
      <trkpt lat="44.02983" lon="6.88877">
        <ele>1450.8000488281</ele>
        <time>2020-09-12T11:22:38.000Z</time>
      </trkpt>
      <trkpt lat="44.02983" lon="6.88877">
        <ele>1449</ele>
        <time>2020-09-12T11:22:40.000Z</time>
      </trkpt>
      <trkpt lat="44.02983" lon="6.88877">
        <ele>1448</ele>
        <time>2020-09-12T11:22:49.000Z</time>
      </trkpt>
      <trkpt lat="44.02981" lon="6.88875">
        <ele>1448</ele>
        <time>2020-09-12T11:22:55.000Z</time>
      </trkpt>
      <trkpt lat="44.02981" lon="6.88875">
        <ele>1447.8000488281</ele>
        <time>2020-09-12T11:22:56.000Z</time>
      </trkpt>
      <trkpt lat="44.02982" lon="6.88875">
        <ele>1447</ele>
        <time>2020-09-12T11:23:08.000Z</time>
      </trkpt>
      <trkpt lat="44.02982" lon="6.88875">
        <ele>1446.8000488281</ele>
        <time>2020-09-12T11:23:19.000Z</time>
      </trkpt>
      <trkpt lat="44.02983" lon="6.88875">
        <ele>1447</ele>
        <time>2020-09-12T11:23:29.000Z</time>
      </trkpt>
      <trkpt lat="44.02983" lon="6.88875">
        <ele>1447</ele>
        <time>2020-09-12T11:23:51.000Z</time>
      </trkpt>
      <trkpt lat="44.02983" lon="6.88875">
        <ele>1447</ele>
        <time>2020-09-12T11:24:13.000Z</time>
      </trkpt>
      <trkpt lat="44.02982" lon="6.88872">
        <ele>1447.4000244141</ele>
        <time>2020-09-12T11:24:21.000Z</time>
      </trkpt>
      <trkpt lat="44.0298" lon="6.8887">
        <ele>1447</ele>
        <time>2020-09-12T11:24:27.000Z</time>
      </trkpt>
      <trkpt lat="44.02972" lon="6.88865">
        <ele>1446.1999511719</ele>
        <time>2020-09-12T11:24:34.000Z</time>
      </trkpt>
      <trkpt lat="44.02968" lon="6.88863">
        <ele>1445.4000244141</ele>
        <time>2020-09-12T11:24:36.000Z</time>
      </trkpt>
      <trkpt lat="44.02965" lon="6.88864">
        <ele>1444.5999755859</ele>
        <time>2020-09-12T11:24:38.000Z</time>
      </trkpt>
      <trkpt lat="44.02963" lon="6.88865">
        <ele>1444</ele>
        <time>2020-09-12T11:24:39.000Z</time>
      </trkpt>
      <trkpt lat="44.02962" lon="6.88865">
        <ele>1442.8000488281</ele>
        <time>2020-09-12T11:24:41.000Z</time>
      </trkpt>
      <trkpt lat="44.02958" lon="6.88868">
        <ele>1441.5999755859</ele>
        <time>2020-09-12T11:24:44.000Z</time>
      </trkpt>
      <trkpt lat="44.02948" lon="6.88881">
        <ele>1441</ele>
        <time>2020-09-12T11:24:50.000Z</time>
      </trkpt>
      <trkpt lat="44.02943" lon="6.8889">
        <ele>1440.5999755859</ele>
        <time>2020-09-12T11:24:54.000Z</time>
      </trkpt>
      <trkpt lat="44.02942" lon="6.88898">
        <ele>1440.4000244141</ele>
        <time>2020-09-12T11:24:56.000Z</time>
      </trkpt>
      <trkpt lat="44.02935" lon="6.88923">
        <ele>1440</ele>
        <time>2020-09-12T11:25:02.000Z</time>
      </trkpt>
      <trkpt lat="44.02933" lon="6.88935">
        <ele>1439.5999755859</ele>
        <time>2020-09-12T11:25:05.000Z</time>
      </trkpt>
      <trkpt lat="44.0293" lon="6.88938">
        <ele>1439.4000244141</ele>
        <time>2020-09-12T11:25:06.000Z</time>
      </trkpt>
      <trkpt lat="44.02923" lon="6.8895">
        <ele>1438.4000244141</ele>
        <time>2020-09-12T11:25:10.000Z</time>
      </trkpt>
      <trkpt lat="44.02918" lon="6.88965">
        <ele>1437.5999755859</ele>
        <time>2020-09-12T11:25:13.000Z</time>
      </trkpt>
      <trkpt lat="44.02914" lon="6.88976">
        <ele>1437.1999511719</ele>
        <time>2020-09-12T11:25:15.000Z</time>
      </trkpt>
      <trkpt lat="44.02908" lon="6.88984">
        <ele>1436.5999755859</ele>
        <time>2020-09-12T11:25:18.000Z</time>
      </trkpt>
      <trkpt lat="44.02906" lon="6.88982">
        <ele>1436.1999511719</ele>
        <time>2020-09-12T11:25:19.000Z</time>
      </trkpt>
      <trkpt lat="44.02904" lon="6.88972">
        <ele>1435.4000244141</ele>
        <time>2020-09-12T11:25:22.000Z</time>
      </trkpt>
      <trkpt lat="44.02903" lon="6.88966">
        <ele>1435.1999511719</ele>
        <time>2020-09-12T11:25:24.000Z</time>
      </trkpt>
      <trkpt lat="44.029" lon="6.88962">
        <ele>1435.4000244141</ele>
        <time>2020-09-12T11:25:26.000Z</time>
      </trkpt>
      <trkpt lat="44.02898" lon="6.88957">
        <ele>1435.8000488281</ele>
        <time>2020-09-12T11:25:28.000Z</time>
      </trkpt>
      <trkpt lat="44.02894" lon="6.88951">
        <ele>1436.4000244141</ele>
        <time>2020-09-12T11:25:30.000Z</time>
      </trkpt>
      <trkpt lat="44.02889" lon="6.88947">
        <ele>1436.5999755859</ele>
        <time>2020-09-12T11:25:32.000Z</time>
      </trkpt>
      <trkpt lat="44.02887" lon="6.88945">
        <ele>1436.8000488281</ele>
        <time>2020-09-12T11:25:33.000Z</time>
      </trkpt>
      <trkpt lat="44.02879" lon="6.8894">
        <ele>1437.5999755859</ele>
        <time>2020-09-12T11:25:37.000Z</time>
      </trkpt>
      <trkpt lat="44.02872" lon="6.88936">
        <ele>1437.8000488281</ele>
        <time>2020-09-12T11:25:40.000Z</time>
      </trkpt>
      <trkpt lat="44.0286" lon="6.88935">
        <ele>1438.4000244141</ele>
        <time>2020-09-12T11:25:45.000Z</time>
      </trkpt>
      <trkpt lat="44.02856" lon="6.88936">
        <ele>1438.5999755859</ele>
        <time>2020-09-12T11:25:47.000Z</time>
      </trkpt>
      <trkpt lat="44.02845" lon="6.88943">
        <ele>1439.1999511719</ele>
        <time>2020-09-12T11:25:52.000Z</time>
      </trkpt>
      <trkpt lat="44.02836" lon="6.8895">
        <ele>1439.5999755859</ele>
        <time>2020-09-12T11:25:56.000Z</time>
      </trkpt>
      <trkpt lat="44.02831" lon="6.88958">
        <ele>1440</ele>
        <time>2020-09-12T11:25:59.000Z</time>
      </trkpt>
      <trkpt lat="44.02824" lon="6.88976">
        <ele>1440.4000244141</ele>
        <time>2020-09-12T11:26:06.000Z</time>
      </trkpt>
      <trkpt lat="44.02822" lon="6.88985">
        <ele>1440.5999755859</ele>
        <time>2020-09-12T11:26:09.000Z</time>
      </trkpt>
      <trkpt lat="44.02823" lon="6.88998">
        <ele>1441.1999511719</ele>
        <time>2020-09-12T11:26:13.000Z</time>
      </trkpt>
      <trkpt lat="44.02828" lon="6.89017">
        <ele>1441.5999755859</ele>
        <time>2020-09-12T11:26:20.000Z</time>
      </trkpt>
      <trkpt lat="44.02829" lon="6.8902">
        <ele>1441.8000488281</ele>
        <time>2020-09-12T11:26:21.000Z</time>
      </trkpt>
      <trkpt lat="44.02834" lon="6.89031">
        <ele>1442</ele>
        <time>2020-09-12T11:26:25.000Z</time>
      </trkpt>
      <trkpt lat="44.02833" lon="6.89034">
        <ele>1442</ele>
        <time>2020-09-12T11:26:26.000Z</time>
      </trkpt>
      <trkpt lat="44.02837" lon="6.89051">
        <ele>1442.4000244141</ele>
        <time>2020-09-12T11:26:31.000Z</time>
      </trkpt>
      <trkpt lat="44.02839" lon="6.8907">
        <ele>1442.5999755859</ele>
        <time>2020-09-12T11:26:36.000Z</time>
      </trkpt>
      <trkpt lat="44.02844" lon="6.89094">
        <ele>1442.5999755859</ele>
        <time>2020-09-12T11:26:42.000Z</time>
      </trkpt>
      <trkpt lat="44.02848" lon="6.8911">
        <ele>1442.4000244141</ele>
        <time>2020-09-12T11:26:47.000Z</time>
      </trkpt>
      <trkpt lat="44.02847" lon="6.89116">
        <ele>1442.4000244141</ele>
        <time>2020-09-12T11:26:49.000Z</time>
      </trkpt>
      <trkpt lat="44.02845" lon="6.89117">
        <ele>1442.4000244141</ele>
        <time>2020-09-12T11:26:50.000Z</time>
      </trkpt>
      <trkpt lat="44.02833" lon="6.89128">
        <ele>1442</ele>
        <time>2020-09-12T11:26:55.000Z</time>
      </trkpt>
      <trkpt lat="44.02828" lon="6.89129">
        <ele>1442.1999511719</ele>
        <time>2020-09-12T11:26:57.000Z</time>
      </trkpt>
      <trkpt lat="44.02818" lon="6.89137">
        <ele>1442.5999755859</ele>
        <time>2020-09-12T11:27:01.000Z</time>
      </trkpt>
      <trkpt lat="44.02811" lon="6.89154">
        <ele>1442.8000488281</ele>
        <time>2020-09-12T11:27:06.000Z</time>
      </trkpt>
      <trkpt lat="44.02809" lon="6.89156">
        <ele>1442.8000488281</ele>
        <time>2020-09-12T11:27:07.000Z</time>
      </trkpt>
      <trkpt lat="44.02803" lon="6.89158">
        <ele>1442.8000488281</ele>
        <time>2020-09-12T11:27:10.000Z</time>
      </trkpt>
      <trkpt lat="44.02789" lon="6.89166">
        <ele>1442.5999755859</ele>
        <time>2020-09-12T11:27:16.000Z</time>
      </trkpt>
      <trkpt lat="44.02778" lon="6.89163">
        <ele>1442.1999511719</ele>
        <time>2020-09-12T11:27:21.000Z</time>
      </trkpt>
      <trkpt lat="44.02776" lon="6.8916">
        <ele>1442.1999511719</ele>
        <time>2020-09-12T11:27:22.000Z</time>
      </trkpt>
      <trkpt lat="44.02769" lon="6.89154">
        <ele>1442.1999511719</ele>
        <time>2020-09-12T11:27:25.000Z</time>
      </trkpt>
      <trkpt lat="44.02766" lon="6.89155">
        <ele>1442.1999511719</ele>
        <time>2020-09-12T11:27:26.000Z</time>
      </trkpt>
      <trkpt lat="44.02753" lon="6.89158">
        <ele>1442.1999511719</ele>
        <time>2020-09-12T11:27:29.000Z</time>
      </trkpt>
      <trkpt lat="44.02749" lon="6.89159">
        <ele>1442.1999511719</ele>
        <time>2020-09-12T11:27:30.000Z</time>
      </trkpt>
      <trkpt lat="44.02741" lon="6.89167">
        <ele>1441.5999755859</ele>
        <time>2020-09-12T11:27:33.000Z</time>
      </trkpt>
      <trkpt lat="44.02738" lon="6.8917">
        <ele>1441.1999511719</ele>
        <time>2020-09-12T11:27:34.000Z</time>
      </trkpt>
      <trkpt lat="44.0273" lon="6.89177">
        <ele>1440.5999755859</ele>
        <time>2020-09-12T11:27:38.000Z</time>
      </trkpt>
      <trkpt lat="44.02727" lon="6.89181">
        <ele>1440.1999511719</ele>
        <time>2020-09-12T11:27:39.000Z</time>
      </trkpt>
      <trkpt lat="44.02721" lon="6.89184">
        <ele>1440</ele>
        <time>2020-09-12T11:27:41.000Z</time>
      </trkpt>
      <trkpt lat="44.02718" lon="6.8918">
        <ele>1439.1999511719</ele>
        <time>2020-09-12T11:27:43.000Z</time>
      </trkpt>
      <trkpt lat="44.02714" lon="6.89179">
        <ele>1439</ele>
        <time>2020-09-12T11:27:44.000Z</time>
      </trkpt>
      <trkpt lat="44.02701" lon="6.89182">
        <ele>1438.1999511719</ele>
        <time>2020-09-12T11:27:47.000Z</time>
      </trkpt>
      <trkpt lat="44.02696" lon="6.89184">
        <ele>1438</ele>
        <time>2020-09-12T11:27:48.000Z</time>
      </trkpt>
      <trkpt lat="44.02681" lon="6.89193">
        <ele>1437.4000244141</ele>
        <time>2020-09-12T11:27:52.000Z</time>
      </trkpt>
      <trkpt lat="44.02677" lon="6.89195">
        <ele>1437.1999511719</ele>
        <time>2020-09-12T11:27:53.000Z</time>
      </trkpt>
      <trkpt lat="44.02668" lon="6.89199">
        <ele>1436.1999511719</ele>
        <time>2020-09-12T11:27:55.000Z</time>
      </trkpt>
      <trkpt lat="44.02664" lon="6.89205">
        <ele>1436</ele>
        <time>2020-09-12T11:27:57.000Z</time>
      </trkpt>
      <trkpt lat="44.02663" lon="6.8922">
        <ele>1435</ele>
        <time>2020-09-12T11:28:01.000Z</time>
      </trkpt>
      <trkpt lat="44.02663" lon="6.89225">
        <ele>1433.8000488281</ele>
        <time>2020-09-12T11:28:03.000Z</time>
      </trkpt>
      <trkpt lat="44.02663" lon="6.89229">
        <ele>1432.8000488281</ele>
        <time>2020-09-12T11:28:05.000Z</time>
      </trkpt>
      <trkpt lat="44.02663" lon="6.8923">
        <ele>1432.4000244141</ele>
        <time>2020-09-12T11:28:06.000Z</time>
      </trkpt>
      <trkpt lat="44.02663" lon="6.8923">
        <ele>1431.1999511719</ele>
        <time>2020-09-12T11:28:09.000Z</time>
      </trkpt>
      <trkpt lat="44.02663" lon="6.89231">
        <ele>1431</ele>
        <time>2020-09-12T11:28:10.000Z</time>
      </trkpt>
      <trkpt lat="44.02664" lon="6.89235">
        <ele>1430.1999511719</ele>
        <time>2020-09-12T11:28:16.000Z</time>
      </trkpt>
      <trkpt lat="44.02664" lon="6.89236">
        <ele>1429</ele>
        <time>2020-09-12T11:28:22.000Z</time>
      </trkpt>
      <trkpt lat="44.02664" lon="6.89236">
        <ele>1429</ele>
        <time>2020-09-12T11:28:23.000Z</time>
      </trkpt>
      <trkpt lat="44.02665" lon="6.89239">
        <ele>1428.4000244141</ele>
        <time>2020-09-12T11:28:33.000Z</time>
      </trkpt>
      <trkpt lat="44.02666" lon="6.89241">
        <ele>1428.4000244141</ele>
        <time>2020-09-12T11:28:41.000Z</time>
      </trkpt>
      <trkpt lat="44.02666" lon="6.89244">
        <ele>1428.5999755859</ele>
        <time>2020-09-12T11:28:49.000Z</time>
      </trkpt>
      <trkpt lat="44.02666" lon="6.89245">
        <ele>1428.1999511719</ele>
        <time>2020-09-12T11:28:54.000Z</time>
      </trkpt>
      <trkpt lat="44.02667" lon="6.89248">
        <ele>1428.1999511719</ele>
        <time>2020-09-12T11:29:01.000Z</time>
      </trkpt>
      <trkpt lat="44.02667" lon="6.89249">
        <ele>1428.1999511719</ele>
        <time>2020-09-12T11:29:05.000Z</time>
      </trkpt>
      <trkpt lat="44.02667" lon="6.89249">
        <ele>1428.1999511719</ele>
        <time>2020-09-12T11:29:07.000Z</time>
      </trkpt>
      <trkpt lat="44.02667" lon="6.89247">
        <ele>1428.5999755859</ele>
        <time>2020-09-12T11:29:15.000Z</time>
      </trkpt>
      <trkpt lat="44.02666" lon="6.89247">
        <ele>1429.1999511719</ele>
        <time>2020-09-12T11:29:22.000Z</time>
      </trkpt>
      <trkpt lat="44.02666" lon="6.8925">
        <ele>1429.5999755859</ele>
        <time>2020-09-12T11:29:31.000Z</time>
      </trkpt>
      <trkpt lat="44.02665" lon="6.89252">
        <ele>1430.1999511719</ele>
        <time>2020-09-12T11:29:34.000Z</time>
      </trkpt>
      <trkpt lat="44.02664" lon="6.89253">
        <ele>1430.5999755859</ele>
        <time>2020-09-12T11:29:36.000Z</time>
      </trkpt>
      <trkpt lat="44.02663" lon="6.89254">
        <ele>1430.8000488281</ele>
        <time>2020-09-12T11:29:37.000Z</time>
      </trkpt>
      <trkpt lat="44.0266" lon="6.89254">
        <ele>1430.8000488281</ele>
        <time>2020-09-12T11:29:41.000Z</time>
      </trkpt>
      <trkpt lat="44.02659" lon="6.89253">
        <ele>1430.8000488281</ele>
        <time>2020-09-12T11:29:42.000Z</time>
      </trkpt>
      <trkpt lat="44.02656" lon="6.89248">
        <ele>1431</ele>
        <time>2020-09-12T11:29:49.000Z</time>
      </trkpt>
      <trkpt lat="44.02655" lon="6.89248">
        <ele>1431.1999511719</ele>
        <time>2020-09-12T11:29:54.000Z</time>
      </trkpt>
      <trkpt lat="44.02653" lon="6.89248">
        <ele>1431.4000244141</ele>
        <time>2020-09-12T11:30:07.000Z</time>
      </trkpt>
      <trkpt lat="44.02653" lon="6.89247">
        <ele>1431.4000244141</ele>
        <time>2020-09-12T11:30:24.000Z</time>
      </trkpt>
      <trkpt lat="44.02652" lon="6.89247">
        <ele>1431.1999511719</ele>
        <time>2020-09-12T11:30:36.000Z</time>
      </trkpt>
      <trkpt lat="44.02652" lon="6.89247">
        <ele>1431.1999511719</ele>
        <time>2020-09-12T11:30:45.000Z</time>
      </trkpt>
      <trkpt lat="44.02651" lon="6.89247">
        <ele>1431.1999511719</ele>
        <time>2020-09-12T11:30:57.000Z</time>
      </trkpt>
      <trkpt lat="44.0265" lon="6.89245">
        <ele>1431.4000244141</ele>
        <time>2020-09-12T11:31:01.000Z</time>
      </trkpt>
      <trkpt lat="44.0264" lon="6.89243">
        <ele>1431.5999755859</ele>
        <time>2020-09-12T11:31:05.000Z</time>
      </trkpt>
      <trkpt lat="44.02636" lon="6.89242">
        <ele>1431.4000244141</ele>
        <time>2020-09-12T11:31:06.000Z</time>
      </trkpt>
      <trkpt lat="44.02622" lon="6.89248">
        <ele>1431</ele>
        <time>2020-09-12T11:31:11.000Z</time>
      </trkpt>
      <trkpt lat="44.02614" lon="6.89243">
        <ele>1430</ele>
        <time>2020-09-12T11:31:15.000Z</time>
      </trkpt>
      <trkpt lat="44.02606" lon="6.89235">
        <ele>1430.4000244141</ele>
        <time>2020-09-12T11:31:21.000Z</time>
      </trkpt>
      <trkpt lat="44.02599" lon="6.89238">
        <ele>1430.1999511719</ele>
        <time>2020-09-12T11:31:25.000Z</time>
      </trkpt>
      <trkpt lat="44.02596" lon="6.89236">
        <ele>1430.4000244141</ele>
        <time>2020-09-12T11:31:28.000Z</time>
      </trkpt>
      <trkpt lat="44.02595" lon="6.89235">
        <ele>1430.4000244141</ele>
        <time>2020-09-12T11:31:29.000Z</time>
      </trkpt>
      <trkpt lat="44.02587" lon="6.89229">
        <ele>1430.1999511719</ele>
        <time>2020-09-12T11:31:33.000Z</time>
      </trkpt>
      <trkpt lat="44.02579" lon="6.89217">
        <ele>1430.1999511719</ele>
        <time>2020-09-12T11:31:38.000Z</time>
      </trkpt>
      <trkpt lat="44.02578" lon="6.89201">
        <ele>1429.5999755859</ele>
        <time>2020-09-12T11:31:43.000Z</time>
      </trkpt>
      <trkpt lat="44.02577" lon="6.89198">
        <ele>1429.8000488281</ele>
        <time>2020-09-12T11:31:45.000Z</time>
      </trkpt>
      <trkpt lat="44.02574" lon="6.89201">
        <ele>1429.8000488281</ele>
        <time>2020-09-12T11:31:47.000Z</time>
      </trkpt>
      <trkpt lat="44.02571" lon="6.89205">
        <ele>1429.5999755859</ele>
        <time>2020-09-12T11:31:49.000Z</time>
      </trkpt>
      <trkpt lat="44.02566" lon="6.89214">
        <ele>1429.4000244141</ele>
        <time>2020-09-12T11:31:53.000Z</time>
      </trkpt>
      <trkpt lat="44.02564" lon="6.89211">
        <ele>1429.4000244141</ele>
        <time>2020-09-12T11:31:55.000Z</time>
      </trkpt>
      <trkpt lat="44.02563" lon="6.89206">
        <ele>1429.1999511719</ele>
        <time>2020-09-12T11:31:57.000Z</time>
      </trkpt>
      <trkpt lat="44.02562" lon="6.892">
        <ele>1429</ele>
        <time>2020-09-12T11:31:59.000Z</time>
      </trkpt>
      <trkpt lat="44.02562" lon="6.89185">
        <ele>1429.4000244141</ele>
        <time>2020-09-12T11:32:03.000Z</time>
      </trkpt>
      <trkpt lat="44.02559" lon="6.89177">
        <ele>1429.4000244141</ele>
        <time>2020-09-12T11:32:06.000Z</time>
      </trkpt>
      <trkpt lat="44.02557" lon="6.89175">
        <ele>1429.1999511719</ele>
        <time>2020-09-12T11:32:07.000Z</time>
      </trkpt>
      <trkpt lat="44.02545" lon="6.89175">
        <ele>1429.4000244141</ele>
        <time>2020-09-12T11:32:11.000Z</time>
      </trkpt>
      <trkpt lat="44.02541" lon="6.89175">
        <ele>1429.4000244141</ele>
        <time>2020-09-12T11:32:12.000Z</time>
      </trkpt>
      <trkpt lat="44.02528" lon="6.89183">
        <ele>1429.1999511719</ele>
        <time>2020-09-12T11:32:16.000Z</time>
      </trkpt>
      <trkpt lat="44.02517" lon="6.89192">
        <ele>1429.8000488281</ele>
        <time>2020-09-12T11:32:21.000Z</time>
      </trkpt>
      <trkpt lat="44.02509" lon="6.89189">
        <ele>1429.1999511719</ele>
        <time>2020-09-12T11:32:25.000Z</time>
      </trkpt>
      <trkpt lat="44.02507" lon="6.8919">
        <ele>1428.8000488281</ele>
        <time>2020-09-12T11:32:26.000Z</time>
      </trkpt>
      <trkpt lat="44.02503" lon="6.89198">
        <ele>1428.8000488281</ele>
        <time>2020-09-12T11:32:31.000Z</time>
      </trkpt>
      <trkpt lat="44.02499" lon="6.89201">
        <ele>1428.8000488281</ele>
        <time>2020-09-12T11:32:33.000Z</time>
      </trkpt>
      <trkpt lat="44.02496" lon="6.89202">
        <ele>1428.8000488281</ele>
        <time>2020-09-12T11:32:35.000Z</time>
      </trkpt>
      <trkpt lat="44.02491" lon="6.89204">
        <ele>1428.4000244141</ele>
        <time>2020-09-12T11:32:37.000Z</time>
      </trkpt>
      <trkpt lat="44.02484" lon="6.89204">
        <ele>1428.1999511719</ele>
        <time>2020-09-12T11:32:40.000Z</time>
      </trkpt>
      <trkpt lat="44.02483" lon="6.89196">
        <ele>1428</ele>
        <time>2020-09-12T11:32:42.000Z</time>
      </trkpt>
      <trkpt lat="44.02484" lon="6.8919">
        <ele>1428.1999511719</ele>
        <time>2020-09-12T11:32:44.000Z</time>
      </trkpt>
      <trkpt lat="44.0248" lon="6.89183">
        <ele>1428.4000244141</ele>
        <time>2020-09-12T11:32:47.000Z</time>
      </trkpt>
      <trkpt lat="44.02468" lon="6.89177">
        <ele>1428.8000488281</ele>
        <time>2020-09-12T11:32:51.000Z</time>
      </trkpt>
      <trkpt lat="44.02466" lon="6.89176">
        <ele>1428.5999755859</ele>
        <time>2020-09-12T11:32:52.000Z</time>
      </trkpt>
      <trkpt lat="44.02467" lon="6.89176">
        <ele>1428.4000244141</ele>
        <time>2020-09-12T11:32:54.000Z</time>
      </trkpt>
      <trkpt lat="44.02465" lon="6.89175">
        <ele>1428</ele>
        <time>2020-09-12T11:32:57.000Z</time>
      </trkpt>
      <trkpt lat="44.02463" lon="6.89173">
        <ele>1428</ele>
        <time>2020-09-12T11:33:02.000Z</time>
      </trkpt>
      <trkpt lat="44.02459" lon="6.89172">
        <ele>1427.5999755859</ele>
        <time>2020-09-12T11:33:07.000Z</time>
      </trkpt>
      <trkpt lat="44.02454" lon="6.8917">
        <ele>1427.4000244141</ele>
        <time>2020-09-12T11:33:13.000Z</time>
      </trkpt>
      <trkpt lat="44.02452" lon="6.89169">
        <ele>1427.5999755859</ele>
        <time>2020-09-12T11:33:15.000Z</time>
      </trkpt>
      <trkpt lat="44.02452" lon="6.89169">
        <ele>1427.4000244141</ele>
        <time>2020-09-12T11:33:18.000Z</time>
      </trkpt>
      <trkpt lat="44.02451" lon="6.89168">
        <ele>1427.4000244141</ele>
        <time>2020-09-12T11:33:19.000Z</time>
      </trkpt>
      <trkpt lat="44.02444" lon="6.89163">
        <ele>1427.8000488281</ele>
        <time>2020-09-12T11:33:23.000Z</time>
      </trkpt>
      <trkpt lat="44.02431" lon="6.89158">
        <ele>1428.4000244141</ele>
        <time>2020-09-12T11:33:28.000Z</time>
      </trkpt>
      <trkpt lat="44.02411" lon="6.89155">
        <ele>1428.8000488281</ele>
        <time>2020-09-12T11:33:34.000Z</time>
      </trkpt>
      <trkpt lat="44.02402" lon="6.8916">
        <ele>1428.5999755859</ele>
        <time>2020-09-12T11:33:38.000Z</time>
      </trkpt>
      <trkpt lat="44.02399" lon="6.89162">
        <ele>1428.4000244141</ele>
        <time>2020-09-12T11:33:42.000Z</time>
      </trkpt>
      <trkpt lat="44.02397" lon="6.8916">
        <ele>1428.1999511719</ele>
        <time>2020-09-12T11:33:44.000Z</time>
      </trkpt>
      <trkpt lat="44.02391" lon="6.89153">
        <ele>1428</ele>
        <time>2020-09-12T11:33:47.000Z</time>
      </trkpt>
      <trkpt lat="44.02373" lon="6.89145">
        <ele>1428.4000244141</ele>
        <time>2020-09-12T11:33:53.000Z</time>
      </trkpt>
      <trkpt lat="44.02356" lon="6.89151">
        <ele>1428.5999755859</ele>
        <time>2020-09-12T11:33:58.000Z</time>
      </trkpt>
      <trkpt lat="44.02352" lon="6.89159">
        <ele>1428.5999755859</ele>
        <time>2020-09-12T11:34:01.000Z</time>
      </trkpt>
      <trkpt lat="44.02353" lon="6.89156">
        <ele>1428.4000244141</ele>
        <time>2020-09-12T11:34:02.000Z</time>
      </trkpt>
      <trkpt lat="44.02352" lon="6.89164">
        <ele>1427.8000488281</ele>
        <time>2020-09-12T11:34:07.000Z</time>
      </trkpt>
      <trkpt lat="44.02349" lon="6.89171">
        <ele>1427.5999755859</ele>
        <time>2020-09-12T11:34:12.000Z</time>
      </trkpt>
      <trkpt lat="44.02345" lon="6.89183">
        <ele>1427.8000488281</ele>
        <time>2020-09-12T11:34:17.000Z</time>
      </trkpt>
      <trkpt lat="44.02338" lon="6.89202">
        <ele>1428</ele>
        <time>2020-09-12T11:34:24.000Z</time>
      </trkpt>
      <trkpt lat="44.02329" lon="6.89211">
        <ele>1427.1999511719</ele>
        <time>2020-09-12T11:34:28.000Z</time>
      </trkpt>
      <trkpt lat="44.02327" lon="6.89216">
        <ele>1427</ele>
        <time>2020-09-12T11:34:30.000Z</time>
      </trkpt>
      <trkpt lat="44.02327" lon="6.89218">
        <ele>1426.5999755859</ele>
        <time>2020-09-12T11:34:31.000Z</time>
      </trkpt>
      <trkpt lat="44.02327" lon="6.89219">
        <ele>1426.4000244141</ele>
        <time>2020-09-12T11:34:32.000Z</time>
      </trkpt>
      <trkpt lat="44.02327" lon="6.89219">
        <ele>1425.8000488281</ele>
        <time>2020-09-12T11:34:34.000Z</time>
      </trkpt>
      <trkpt lat="44.02328" lon="6.89222">
        <ele>1424.8000488281</ele>
        <time>2020-09-12T11:34:37.000Z</time>
      </trkpt>
      <trkpt lat="44.02329" lon="6.89224">
        <ele>1424.1999511719</ele>
        <time>2020-09-12T11:34:39.000Z</time>
      </trkpt>
      <trkpt lat="44.0233" lon="6.89225">
        <ele>1423.5999755859</ele>
        <time>2020-09-12T11:34:42.000Z</time>
      </trkpt>
      <trkpt lat="44.0233" lon="6.89225">
        <ele>1423.5999755859</ele>
        <time>2020-09-12T11:34:43.000Z</time>
      </trkpt>
      <trkpt lat="44.02329" lon="6.89228">
        <ele>1423.4000244141</ele>
        <time>2020-09-12T11:34:44.000Z</time>
      </trkpt>
      <trkpt lat="44.02328" lon="6.89229">
        <ele>1423.5999755859</ele>
        <time>2020-09-12T11:34:47.000Z</time>
      </trkpt>
      <trkpt lat="44.02326" lon="6.8923">
        <ele>1423.8000488281</ele>
        <time>2020-09-12T11:34:50.000Z</time>
      </trkpt>
      <trkpt lat="44.02324" lon="6.89232">
        <ele>1423.8000488281</ele>
        <time>2020-09-12T11:34:51.000Z</time>
      </trkpt>
      <trkpt lat="44.02314" lon="6.89239">
        <ele>1423.5999755859</ele>
        <time>2020-09-12T11:34:54.000Z</time>
      </trkpt>
      <trkpt lat="44.023" lon="6.89246">
        <ele>1423</ele>
        <time>2020-09-12T11:34:58.000Z</time>
      </trkpt>
      <trkpt lat="44.02291" lon="6.8926">
        <ele>1422.4000244141</ele>
        <time>2020-09-12T11:35:01.000Z</time>
      </trkpt>
      <trkpt lat="44.0229" lon="6.89266">
        <ele>1422</ele>
        <time>2020-09-12T11:35:02.000Z</time>
      </trkpt>
      <trkpt lat="44.0229" lon="6.89271">
        <ele>1421.1999511719</ele>
        <time>2020-09-12T11:35:03.000Z</time>
      </trkpt>
      <trkpt lat="44.02293" lon="6.89281">
        <ele>1419.8000488281</ele>
        <time>2020-09-12T11:35:05.000Z</time>
      </trkpt>
      <trkpt lat="44.02298" lon="6.89289">
        <ele>1418</ele>
        <time>2020-09-12T11:35:07.000Z</time>
      </trkpt>
      <trkpt lat="44.02305" lon="6.89294">
        <ele>1417</ele>
        <time>2020-09-12T11:35:09.000Z</time>
      </trkpt>
      <trkpt lat="44.02309" lon="6.89303">
        <ele>1415.5999755859</ele>
        <time>2020-09-12T11:35:11.000Z</time>
      </trkpt>
      <trkpt lat="44.0231" lon="6.89308">
        <ele>1414.8000488281</ele>
        <time>2020-09-12T11:35:12.000Z</time>
      </trkpt>
      <trkpt lat="44.02311" lon="6.89312">
        <ele>1414</ele>
        <time>2020-09-12T11:35:13.000Z</time>
      </trkpt>
      <trkpt lat="44.02313" lon="6.89318">
        <ele>1412.1999511719</ele>
        <time>2020-09-12T11:35:15.000Z</time>
      </trkpt>
      <trkpt lat="44.02315" lon="6.89325">
        <ele>1411</ele>
        <time>2020-09-12T11:35:17.000Z</time>
      </trkpt>
      <trkpt lat="44.02317" lon="6.89332">
        <ele>1409.8000488281</ele>
        <time>2020-09-12T11:35:19.000Z</time>
      </trkpt>
      <trkpt lat="44.02318" lon="6.89339">
        <ele>1408.5999755859</ele>
        <time>2020-09-12T11:35:22.000Z</time>
      </trkpt>
      <trkpt lat="44.02317" lon="6.89343">
        <ele>1407.1999511719</ele>
        <time>2020-09-12T11:35:26.000Z</time>
      </trkpt>
      <trkpt lat="44.02315" lon="6.89344">
        <ele>1406.8000488281</ele>
        <time>2020-09-12T11:35:27.000Z</time>
      </trkpt>
      <trkpt lat="44.02313" lon="6.89343">
        <ele>1406</ele>
        <time>2020-09-12T11:35:29.000Z</time>
      </trkpt>
      <trkpt lat="44.02313" lon="6.89343">
        <ele>1405.5999755859</ele>
        <time>2020-09-12T11:35:30.000Z</time>
      </trkpt>
      <trkpt lat="44.02312" lon="6.89341">
        <ele>1405.5999755859</ele>
        <time>2020-09-12T11:35:31.000Z</time>
      </trkpt>
      <trkpt lat="44.02306" lon="6.89337">
        <ele>1405.8000488281</ele>
        <time>2020-09-12T11:35:35.000Z</time>
      </trkpt>
      <trkpt lat="44.02304" lon="6.89334">
        <ele>1406</ele>
        <time>2020-09-12T11:35:36.000Z</time>
      </trkpt>
      <trkpt lat="44.02295" lon="6.89331">
        <ele>1406.4000244141</ele>
        <time>2020-09-12T11:35:40.000Z</time>
      </trkpt>
      <trkpt lat="44.02287" lon="6.89334">
        <ele>1407</ele>
        <time>2020-09-12T11:35:43.000Z</time>
      </trkpt>
      <trkpt lat="44.02284" lon="6.89333">
        <ele>1407</ele>
        <time>2020-09-12T11:35:44.000Z</time>
      </trkpt>
      <trkpt lat="44.02271" lon="6.89339">
        <ele>1407.1999511719</ele>
        <time>2020-09-12T11:35:49.000Z</time>
      </trkpt>
      <trkpt lat="44.02254" lon="6.89351">
        <ele>1407.4000244141</ele>
        <time>2020-09-12T11:35:57.000Z</time>
      </trkpt>
      <trkpt lat="44.02246" lon="6.89368">
        <ele>1407.1999511719</ele>
        <time>2020-09-12T11:36:03.000Z</time>
      </trkpt>
      <trkpt lat="44.02237" lon="6.89391">
        <ele>1407.8000488281</ele>
        <time>2020-09-12T11:36:09.000Z</time>
      </trkpt>
      <trkpt lat="44.02238" lon="6.89409">
        <ele>1407</ele>
        <time>2020-09-12T11:36:13.000Z</time>
      </trkpt>
      <trkpt lat="44.02236" lon="6.89423">
        <ele>1406.4000244141</ele>
        <time>2020-09-12T11:36:16.000Z</time>
      </trkpt>
      <trkpt lat="44.02235" lon="6.89427">
        <ele>1406.1999511719</ele>
        <time>2020-09-12T11:36:17.000Z</time>
      </trkpt>
      <trkpt lat="44.02237" lon="6.89439">
        <ele>1405.8000488281</ele>
        <time>2020-09-12T11:36:20.000Z</time>
      </trkpt>
      <trkpt lat="44.02238" lon="6.89444">
        <ele>1405.5999755859</ele>
        <time>2020-09-12T11:36:21.000Z</time>
      </trkpt>
      <trkpt lat="44.02238" lon="6.89459">
        <ele>1404.8000488281</ele>
        <time>2020-09-12T11:36:24.000Z</time>
      </trkpt>
      <trkpt lat="44.02236" lon="6.89463">
        <ele>1404.4000244141</ele>
        <time>2020-09-12T11:36:25.000Z</time>
      </trkpt>
      <trkpt lat="44.02224" lon="6.89487">
        <ele>1404.1999511719</ele>
        <time>2020-09-12T11:36:30.000Z</time>
      </trkpt>
      <trkpt lat="44.02221" lon="6.89492">
        <ele>1404</ele>
        <time>2020-09-12T11:36:31.000Z</time>
      </trkpt>
      <trkpt lat="44.02218" lon="6.89497">
        <ele>1403.5999755859</ele>
        <time>2020-09-12T11:36:32.000Z</time>
      </trkpt>
      <trkpt lat="44.0221" lon="6.89504">
        <ele>1403</ele>
        <time>2020-09-12T11:36:34.000Z</time>
      </trkpt>
      <trkpt lat="44.02206" lon="6.89506">
        <ele>1402.8000488281</ele>
        <time>2020-09-12T11:36:35.000Z</time>
      </trkpt>
      <trkpt lat="44.02201" lon="6.89508">
        <ele>1402.4000244141</ele>
        <time>2020-09-12T11:36:36.000Z</time>
      </trkpt>
      <trkpt lat="44.02189" lon="6.89516">
        <ele>1401.4000244141</ele>
        <time>2020-09-12T11:36:39.000Z</time>
      </trkpt>
      <trkpt lat="44.02182" lon="6.89526">
        <ele>1400.8000488281</ele>
        <time>2020-09-12T11:36:41.000Z</time>
      </trkpt>
      <trkpt lat="44.02179" lon="6.89532">
        <ele>1400.4000244141</ele>
        <time>2020-09-12T11:36:42.000Z</time>
      </trkpt>
      <trkpt lat="44.02169" lon="6.89546">
        <ele>1399.1999511719</ele>
        <time>2020-09-12T11:36:45.000Z</time>
      </trkpt>
      <trkpt lat="44.02165" lon="6.8955">
        <ele>1399</ele>
        <time>2020-09-12T11:36:46.000Z</time>
      </trkpt>
      <trkpt lat="44.02151" lon="6.89566">
        <ele>1398</ele>
        <time>2020-09-12T11:36:49.000Z</time>
      </trkpt>
      <trkpt lat="44.02136" lon="6.89582">
        <ele>1396.5999755859</ele>
        <time>2020-09-12T11:36:52.000Z</time>
      </trkpt>
      <trkpt lat="44.02131" lon="6.89586">
        <ele>1396.4000244141</ele>
        <time>2020-09-12T11:36:53.000Z</time>
      </trkpt>
      <trkpt lat="44.02114" lon="6.89595">
        <ele>1395.5999755859</ele>
        <time>2020-09-12T11:36:56.000Z</time>
      </trkpt>
      <trkpt lat="44.02103" lon="6.89601">
        <ele>1394.8000488281</ele>
        <time>2020-09-12T11:36:58.000Z</time>
      </trkpt>
      <trkpt lat="44.02097" lon="6.896">
        <ele>1394.1999511719</ele>
        <time>2020-09-12T11:36:59.000Z</time>
      </trkpt>
      <trkpt lat="44.02091" lon="6.89598">
        <ele>1393.4000244141</ele>
        <time>2020-09-12T11:37:00.000Z</time>
      </trkpt>
      <trkpt lat="44.02083" lon="6.89596">
        <ele>1392.8000488281</ele>
        <time>2020-09-12T11:37:01.000Z</time>
      </trkpt>
      <trkpt lat="44.0207" lon="6.8959">
        <ele>1391.5999755859</ele>
        <time>2020-09-12T11:37:03.000Z</time>
      </trkpt>
      <trkpt lat="44.02064" lon="6.89586">
        <ele>1391</ele>
        <time>2020-09-12T11:37:04.000Z</time>
      </trkpt>
      <trkpt lat="44.02059" lon="6.89583">
        <ele>1390.5999755859</ele>
        <time>2020-09-12T11:37:05.000Z</time>
      </trkpt>
      <trkpt lat="44.02053" lon="6.89582">
        <ele>1390</ele>
        <time>2020-09-12T11:37:06.000Z</time>
      </trkpt>
      <trkpt lat="44.02047" lon="6.89585">
        <ele>1389.1999511719</ele>
        <time>2020-09-12T11:37:07.000Z</time>
      </trkpt>
      <trkpt lat="44.02043" lon="6.8959">
        <ele>1388.4000244141</ele>
        <time>2020-09-12T11:37:08.000Z</time>
      </trkpt>
      <trkpt lat="44.02038" lon="6.89594">
        <ele>1387.8000488281</ele>
        <time>2020-09-12T11:37:09.000Z</time>
      </trkpt>
      <trkpt lat="44.02033" lon="6.89597">
        <ele>1387.1999511719</ele>
        <time>2020-09-12T11:37:10.000Z</time>
      </trkpt>
      <trkpt lat="44.0202" lon="6.89603">
        <ele>1386.4000244141</ele>
        <time>2020-09-12T11:37:12.000Z</time>
      </trkpt>
      <trkpt lat="44.02015" lon="6.89607">
        <ele>1386</ele>
        <time>2020-09-12T11:37:13.000Z</time>
      </trkpt>
      <trkpt lat="44.02007" lon="6.89613">
        <ele>1385.1999511719</ele>
        <time>2020-09-12T11:37:15.000Z</time>
      </trkpt>
      <trkpt lat="44.02003" lon="6.89616">
        <ele>1384.4000244141</ele>
        <time>2020-09-12T11:37:16.000Z</time>
      </trkpt>
      <trkpt lat="44.02001" lon="6.8962">
        <ele>1383.4000244141</ele>
        <time>2020-09-12T11:37:17.000Z</time>
      </trkpt>
      <trkpt lat="44.01998" lon="6.89625">
        <ele>1382.1999511719</ele>
        <time>2020-09-12T11:37:18.000Z</time>
      </trkpt>
      <trkpt lat="44.01995" lon="6.89629">
        <ele>1381.1999511719</ele>
        <time>2020-09-12T11:37:19.000Z</time>
      </trkpt>
      <trkpt lat="44.01988" lon="6.89636">
        <ele>1379.4000244141</ele>
        <time>2020-09-12T11:37:21.000Z</time>
      </trkpt>
      <trkpt lat="44.0198" lon="6.89642">
        <ele>1378</ele>
        <time>2020-09-12T11:37:23.000Z</time>
      </trkpt>
      <trkpt lat="44.01974" lon="6.89648">
        <ele>1376.5999755859</ele>
        <time>2020-09-12T11:37:25.000Z</time>
      </trkpt>
      <trkpt lat="44.01969" lon="6.89651">
        <ele>1374.5999755859</ele>
        <time>2020-09-12T11:37:27.000Z</time>
      </trkpt>
      <trkpt lat="44.01966" lon="6.8965">
        <ele>1373.5999755859</ele>
        <time>2020-09-12T11:37:28.000Z</time>
      </trkpt>
      <trkpt lat="44.01965" lon="6.8965">
        <ele>1373</ele>
        <time>2020-09-12T11:37:29.000Z</time>
      </trkpt>
      <trkpt lat="44.01964" lon="6.89651">
        <ele>1372.4000244141</ele>
        <time>2020-09-12T11:37:30.000Z</time>
      </trkpt>
      <trkpt lat="44.01963" lon="6.89652">
        <ele>1371.5999755859</ele>
        <time>2020-09-12T11:37:31.000Z</time>
      </trkpt>
      <trkpt lat="44.01964" lon="6.89651">
        <ele>1371.1999511719</ele>
        <time>2020-09-12T11:37:32.000Z</time>
      </trkpt>
      <trkpt lat="44.01964" lon="6.89651">
        <ele>1370.1999511719</ele>
        <time>2020-09-12T11:37:34.000Z</time>
      </trkpt>
      <trkpt lat="44.01964" lon="6.89651">
        <ele>1369</ele>
        <time>2020-09-12T11:37:37.000Z</time>
      </trkpt>
      <trkpt lat="44.01964" lon="6.89651">
        <ele>1368.5999755859</ele>
        <time>2020-09-12T11:37:42.000Z</time>
      </trkpt>
      <trkpt lat="44.01966" lon="6.89656">
        <ele>1368.8000488281</ele>
        <time>2020-09-12T11:38:02.000Z</time>
      </trkpt>
      <trkpt lat="44.01976" lon="6.8966">
        <ele>1368.4000244141</ele>
        <time>2020-09-12T11:38:07.000Z</time>
      </trkpt>
      <trkpt lat="44.01981" lon="6.89658">
        <ele>1367.8000488281</ele>
        <time>2020-09-12T11:38:09.000Z</time>
      </trkpt>
      <trkpt lat="44.01984" lon="6.8966">
        <ele>1367.4000244141</ele>
        <time>2020-09-12T11:38:10.000Z</time>
      </trkpt>
      <trkpt lat="44.01987" lon="6.89663">
        <ele>1367.1999511719</ele>
        <time>2020-09-12T11:38:11.000Z</time>
      </trkpt>
      <trkpt lat="44.01999" lon="6.89663">
        <ele>1366.5999755859</ele>
        <time>2020-09-12T11:38:15.000Z</time>
      </trkpt>
      <trkpt lat="44.02" lon="6.89661">
        <ele>1365.4000244141</ele>
        <time>2020-09-12T11:38:19.000Z</time>
      </trkpt>
      <trkpt lat="44.02003" lon="6.89661">
        <ele>1364.8000488281</ele>
        <time>2020-09-12T11:38:24.000Z</time>
      </trkpt>
      <trkpt lat="44.02004" lon="6.8966">
        <ele>1364.1999511719</ele>
        <time>2020-09-12T11:38:26.000Z</time>
      </trkpt>
      <trkpt lat="44.02005" lon="6.89658">
        <ele>1363.1999511719</ele>
        <time>2020-09-12T11:38:29.000Z</time>
      </trkpt>
      <trkpt lat="44.02005" lon="6.89659">
        <ele>1363</ele>
        <time>2020-09-12T11:38:30.000Z</time>
      </trkpt>
      <trkpt lat="44.02007" lon="6.89657">
        <ele>1363</ele>
        <time>2020-09-12T11:38:32.000Z</time>
      </trkpt>
      <trkpt lat="44.0201" lon="6.89654">
        <ele>1363</ele>
        <time>2020-09-12T11:38:35.000Z</time>
      </trkpt>
      <trkpt lat="44.02011" lon="6.89654">
        <ele>1363</ele>
        <time>2020-09-12T11:38:36.000Z</time>
      </trkpt>
      <trkpt lat="44.02016" lon="6.89649">
        <ele>1363</ele>
        <time>2020-09-12T11:38:40.000Z</time>
      </trkpt>
      <trkpt lat="44.02031" lon="6.89643">
        <ele>1363</ele>
        <time>2020-09-12T11:38:44.000Z</time>
      </trkpt>
      <trkpt lat="44.02035" lon="6.89643">
        <ele>1363</ele>
        <time>2020-09-12T11:38:45.000Z</time>
      </trkpt>
      <trkpt lat="44.02043" lon="6.89646">
        <ele>1362.8000488281</ele>
        <time>2020-09-12T11:38:47.000Z</time>
      </trkpt>
      <trkpt lat="44.02045" lon="6.89647">
        <ele>1362.8000488281</ele>
        <time>2020-09-12T11:38:48.000Z</time>
      </trkpt>
      <trkpt lat="44.02047" lon="6.89648">
        <ele>1362</ele>
        <time>2020-09-12T11:38:51.000Z</time>
      </trkpt>
      <trkpt lat="44.0205" lon="6.89647">
        <ele>1361.5999755859</ele>
        <time>2020-09-12T11:38:53.000Z</time>
      </trkpt>
      <trkpt lat="44.02056" lon="6.89643">
        <ele>1361.1999511719</ele>
        <time>2020-09-12T11:38:55.000Z</time>
      </trkpt>
      <trkpt lat="44.02063" lon="6.89652">
        <ele>1361.1999511719</ele>
        <time>2020-09-12T11:38:58.000Z</time>
      </trkpt>
      <trkpt lat="44.02069" lon="6.89656">
        <ele>1361</ele>
        <time>2020-09-12T11:39:00.000Z</time>
      </trkpt>
      <trkpt lat="44.02074" lon="6.89662">
        <ele>1360.8000488281</ele>
        <time>2020-09-12T11:39:02.000Z</time>
      </trkpt>
      <trkpt lat="44.02085" lon="6.89674">
        <ele>1360.4000244141</ele>
        <time>2020-09-12T11:39:07.000Z</time>
      </trkpt>
      <trkpt lat="44.02101" lon="6.89675">
        <ele>1360.1999511719</ele>
        <time>2020-09-12T11:39:13.000Z</time>
      </trkpt>
      <trkpt lat="44.02107" lon="6.89676">
        <ele>1360</ele>
        <time>2020-09-12T11:39:15.000Z</time>
      </trkpt>
      <trkpt lat="44.02109" lon="6.89677">
        <ele>1360</ele>
        <time>2020-09-12T11:39:16.000Z</time>
      </trkpt>
      <trkpt lat="44.02111" lon="6.89676">
        <ele>1359.8000488281</ele>
        <time>2020-09-12T11:39:17.000Z</time>
      </trkpt>
      <trkpt lat="44.0212" lon="6.89674">
        <ele>1359.4000244141</ele>
        <time>2020-09-12T11:39:20.000Z</time>
      </trkpt>
      <trkpt lat="44.02123" lon="6.89676">
        <ele>1359.4000244141</ele>
        <time>2020-09-12T11:39:21.000Z</time>
      </trkpt>
      <trkpt lat="44.02128" lon="6.89681">
        <ele>1359</ele>
        <time>2020-09-12T11:39:23.000Z</time>
      </trkpt>
      <trkpt lat="44.02134" lon="6.89694">
        <ele>1358.4000244141</ele>
        <time>2020-09-12T11:39:26.000Z</time>
      </trkpt>
      <trkpt lat="44.02141" lon="6.89701">
        <ele>1358</ele>
        <time>2020-09-12T11:39:30.000Z</time>
      </trkpt>
      <trkpt lat="44.02146" lon="6.89697">
        <ele>1357.8000488281</ele>
        <time>2020-09-12T11:39:32.000Z</time>
      </trkpt>
      <trkpt lat="44.02149" lon="6.89697">
        <ele>1357.5999755859</ele>
        <time>2020-09-12T11:39:33.000Z</time>
      </trkpt>
      <trkpt lat="44.02153" lon="6.897">
        <ele>1357.4000244141</ele>
        <time>2020-09-12T11:39:34.000Z</time>
      </trkpt>
      <trkpt lat="44.02158" lon="6.89702">
        <ele>1356.8000488281</ele>
        <time>2020-09-12T11:39:36.000Z</time>
      </trkpt>
      <trkpt lat="44.02161" lon="6.89701">
        <ele>1356.4000244141</ele>
        <time>2020-09-12T11:39:37.000Z</time>
      </trkpt>
      <trkpt lat="44.02165" lon="6.89701">
        <ele>1355.5999755859</ele>
        <time>2020-09-12T11:39:39.000Z</time>
      </trkpt>
      <trkpt lat="44.02167" lon="6.89703">
        <ele>1355.1999511719</ele>
        <time>2020-09-12T11:39:40.000Z</time>
      </trkpt>
      <trkpt lat="44.02166" lon="6.89706">
        <ele>1354.4000244141</ele>
        <time>2020-09-12T11:39:41.000Z</time>
      </trkpt>
      <trkpt lat="44.02168" lon="6.89712">
        <ele>1353.1999511719</ele>
        <time>2020-09-12T11:39:44.000Z</time>
      </trkpt>
      <trkpt lat="44.02171" lon="6.89712">
        <ele>1352.8000488281</ele>
        <time>2020-09-12T11:39:45.000Z</time>
      </trkpt>
      <trkpt lat="44.02173" lon="6.89712">
        <ele>1352.8000488281</ele>
        <time>2020-09-12T11:39:46.000Z</time>
      </trkpt>
      <trkpt lat="44.02178" lon="6.89713">
        <ele>1352.4000244141</ele>
        <time>2020-09-12T11:39:48.000Z</time>
      </trkpt>
      <trkpt lat="44.02181" lon="6.89716">
        <ele>1352.1999511719</ele>
        <time>2020-09-12T11:39:49.000Z</time>
      </trkpt>
      <trkpt lat="44.02182" lon="6.89717">
        <ele>1352</ele>
        <time>2020-09-12T11:39:50.000Z</time>
      </trkpt>
      <trkpt lat="44.02185" lon="6.89719">
        <ele>1351.1999511719</ele>
        <time>2020-09-12T11:39:52.000Z</time>
      </trkpt>
      <trkpt lat="44.02187" lon="6.89722">
        <ele>1350.4000244141</ele>
        <time>2020-09-12T11:39:54.000Z</time>
      </trkpt>
      <trkpt lat="44.02188" lon="6.89723">
        <ele>1350</ele>
        <time>2020-09-12T11:39:55.000Z</time>
      </trkpt>
      <trkpt lat="44.02189" lon="6.89723">
        <ele>1349.4000244141</ele>
        <time>2020-09-12T11:39:58.000Z</time>
      </trkpt>
      <trkpt lat="44.02189" lon="6.89727">
        <ele>1348.8000488281</ele>
        <time>2020-09-12T11:40:03.000Z</time>
      </trkpt>
      <trkpt lat="44.02187" lon="6.89728">
        <ele>1348</ele>
        <time>2020-09-12T11:40:07.000Z</time>
      </trkpt>
      <trkpt lat="44.02185" lon="6.89729">
        <ele>1348.1999511719</ele>
        <time>2020-09-12T11:40:09.000Z</time>
      </trkpt>
      <trkpt lat="44.0218" lon="6.89731">
        <ele>1349.5999755859</ele>
        <time>2020-09-12T11:40:15.000Z</time>
      </trkpt>
      <trkpt lat="44.02179" lon="6.89732">
        <ele>1350</ele>
        <time>2020-09-12T11:40:17.000Z</time>
      </trkpt>
      <trkpt lat="44.02176" lon="6.89734">
        <ele>1350.1999511719</ele>
        <time>2020-09-12T11:40:19.000Z</time>
      </trkpt>
      <trkpt lat="44.02166" lon="6.89741">
        <ele>1350.8000488281</ele>
        <time>2020-09-12T11:40:24.000Z</time>
      </trkpt>
      <trkpt lat="44.02159" lon="6.8975">
        <ele>1351</ele>
        <time>2020-09-12T11:40:29.000Z</time>
      </trkpt>
      <trkpt lat="44.02158" lon="6.89753">
        <ele>1351.5999755859</ele>
        <time>2020-09-12T11:40:34.000Z</time>
      </trkpt>
      <trkpt lat="44.02157" lon="6.89754">
        <ele>1351.5999755859</ele>
        <time>2020-09-12T11:40:40.000Z</time>
      </trkpt>
      <trkpt lat="44.02155" lon="6.89756">
        <ele>1352</ele>
        <time>2020-09-12T11:40:47.000Z</time>
      </trkpt>
      <trkpt lat="44.02155" lon="6.89756">
        <ele>1352</ele>
        <time>2020-09-12T11:40:49.000Z</time>
      </trkpt>
      <trkpt lat="44.02155" lon="6.89756">
        <ele>1352.4000244141</ele>
        <time>2020-09-12T11:40:53.000Z</time>
      </trkpt>
      <trkpt lat="44.02147" lon="6.89763">
        <ele>1352.4000244141</ele>
        <time>2020-09-12T11:40:59.000Z</time>
      </trkpt>
      <trkpt lat="44.02136" lon="6.89765">
        <ele>1352.8000488281</ele>
        <time>2020-09-12T11:41:03.000Z</time>
      </trkpt>
      <trkpt lat="44.02134" lon="6.89764">
        <ele>1353</ele>
        <time>2020-09-12T11:41:04.000Z</time>
      </trkpt>
      <trkpt lat="44.02132" lon="6.89764">
        <ele>1353.1999511719</ele>
        <time>2020-09-12T11:41:05.000Z</time>
      </trkpt>
      <trkpt lat="44.02127" lon="6.89761">
        <ele>1353.8000488281</ele>
        <time>2020-09-12T11:41:08.000Z</time>
      </trkpt>
      <trkpt lat="44.02124" lon="6.89762">
        <ele>1354.1999511719</ele>
        <time>2020-09-12T11:41:09.000Z</time>
      </trkpt>
      <trkpt lat="44.0212" lon="6.89763">
        <ele>1354.5999755859</ele>
        <time>2020-09-12T11:41:11.000Z</time>
      </trkpt>
      <trkpt lat="44.02118" lon="6.89767">
        <ele>1354.8000488281</ele>
        <time>2020-09-12T11:41:13.000Z</time>
      </trkpt>
      <trkpt lat="44.02116" lon="6.89772">
        <ele>1355.1999511719</ele>
        <time>2020-09-12T11:41:15.000Z</time>
      </trkpt>
      <trkpt lat="44.02116" lon="6.89774">
        <ele>1355.4000244141</ele>
        <time>2020-09-12T11:41:16.000Z</time>
      </trkpt>
      <trkpt lat="44.02114" lon="6.89777">
        <ele>1355.8000488281</ele>
        <time>2020-09-12T11:41:18.000Z</time>
      </trkpt>
      <trkpt lat="44.02112" lon="6.89782">
        <ele>1356.4000244141</ele>
        <time>2020-09-12T11:41:24.000Z</time>
      </trkpt>
      <trkpt lat="44.02111" lon="6.89789">
        <ele>1357</ele>
        <time>2020-09-12T11:41:30.000Z</time>
      </trkpt>
      <trkpt lat="44.02109" lon="6.8979">
        <ele>1357.4000244141</ele>
        <time>2020-09-12T11:41:32.000Z</time>
      </trkpt>
      <trkpt lat="44.02108" lon="6.89795">
        <ele>1357.1999511719</ele>
        <time>2020-09-12T11:41:34.000Z</time>
      </trkpt>
      <trkpt lat="44.02099" lon="6.89807">
        <ele>1357.8000488281</ele>
        <time>2020-09-12T11:41:40.000Z</time>
      </trkpt>
      <trkpt lat="44.02094" lon="6.89813">
        <ele>1358.1999511719</ele>
        <time>2020-09-12T11:41:45.000Z</time>
      </trkpt>
      <trkpt lat="44.02086" lon="6.89814">
        <ele>1358.4000244141</ele>
        <time>2020-09-12T11:41:50.000Z</time>
      </trkpt>
      <trkpt lat="44.02084" lon="6.8982">
        <ele>1359</ele>
        <time>2020-09-12T11:41:53.000Z</time>
      </trkpt>
      <trkpt lat="44.02083" lon="6.89825">
        <ele>1359.4000244141</ele>
        <time>2020-09-12T11:41:55.000Z</time>
      </trkpt>
      <trkpt lat="44.02082" lon="6.89838">
        <ele>1360.1999511719</ele>
        <time>2020-09-12T11:42:01.000Z</time>
      </trkpt>
      <trkpt lat="44.02081" lon="6.89846">
        <ele>1360.5999755859</ele>
        <time>2020-09-12T11:42:04.000Z</time>
      </trkpt>
      <trkpt lat="44.02081" lon="6.89856">
        <ele>1361.5999755859</ele>
        <time>2020-09-12T11:42:08.000Z</time>
      </trkpt>
      <trkpt lat="44.02081" lon="6.89858">
        <ele>1361.8000488281</ele>
        <time>2020-09-12T11:42:09.000Z</time>
      </trkpt>
      <trkpt lat="44.02085" lon="6.89867">
        <ele>1363</ele>
        <time>2020-09-12T11:42:14.000Z</time>
      </trkpt>
      <trkpt lat="44.02087" lon="6.89871">
        <ele>1363.5999755859</ele>
        <time>2020-09-12T11:42:17.000Z</time>
      </trkpt>
      <trkpt lat="44.02089" lon="6.89876">
        <ele>1363.8000488281</ele>
        <time>2020-09-12T11:42:20.000Z</time>
      </trkpt>
      <trkpt lat="44.0209" lon="6.89877">
        <ele>1364</ele>
        <time>2020-09-12T11:42:21.000Z</time>
      </trkpt>
      <trkpt lat="44.02091" lon="6.89879">
        <ele>1364.5999755859</ele>
        <time>2020-09-12T11:42:23.000Z</time>
      </trkpt>
      <trkpt lat="44.02092" lon="6.89881">
        <ele>1365.1999511719</ele>
        <time>2020-09-12T11:42:25.000Z</time>
      </trkpt>
      <trkpt lat="44.02095" lon="6.89885">
        <ele>1365.8000488281</ele>
        <time>2020-09-12T11:42:29.000Z</time>
      </trkpt>
      <trkpt lat="44.02097" lon="6.89892">
        <ele>1366.4000244141</ele>
        <time>2020-09-12T11:42:32.000Z</time>
      </trkpt>
      <trkpt lat="44.021" lon="6.899">
        <ele>1367</ele>
        <time>2020-09-12T11:42:37.000Z</time>
      </trkpt>
      <trkpt lat="44.02102" lon="6.89906">
        <ele>1367.4000244141</ele>
        <time>2020-09-12T11:42:40.000Z</time>
      </trkpt>
      <trkpt lat="44.02106" lon="6.89911">
        <ele>1368.1999511719</ele>
        <time>2020-09-12T11:42:44.000Z</time>
      </trkpt>
      <trkpt lat="44.02107" lon="6.89913">
        <ele>1368.4000244141</ele>
        <time>2020-09-12T11:42:45.000Z</time>
      </trkpt>
      <trkpt lat="44.02116" lon="6.8992">
        <ele>1369.4000244141</ele>
        <time>2020-09-12T11:42:51.000Z</time>
      </trkpt>
      <trkpt lat="44.02118" lon="6.89921">
        <ele>1369.4000244141</ele>
        <time>2020-09-12T11:42:52.000Z</time>
      </trkpt>
      <trkpt lat="44.02128" lon="6.89927">
        <ele>1370.1999511719</ele>
        <time>2020-09-12T11:42:58.000Z</time>
      </trkpt>
      <trkpt lat="44.02133" lon="6.89931">
        <ele>1370.5999755859</ele>
        <time>2020-09-12T11:43:00.000Z</time>
      </trkpt>
      <trkpt lat="44.02138" lon="6.89934">
        <ele>1370.8000488281</ele>
        <time>2020-09-12T11:43:03.000Z</time>
      </trkpt>
      <trkpt lat="44.02139" lon="6.89942">
        <ele>1371.5999755859</ele>
        <time>2020-09-12T11:43:07.000Z</time>
      </trkpt>
      <trkpt lat="44.02139" lon="6.89944">
        <ele>1371.5999755859</ele>
        <time>2020-09-12T11:43:08.000Z</time>
      </trkpt>
      <trkpt lat="44.02138" lon="6.89944">
        <ele>1371.5999755859</ele>
        <time>2020-09-12T11:43:09.000Z</time>
      </trkpt>
      <trkpt lat="44.02132" lon="6.89948">
        <ele>1371.4000244141</ele>
        <time>2020-09-12T11:43:13.000Z</time>
      </trkpt>
      <trkpt lat="44.02123" lon="6.89951">
        <ele>1371.8000488281</ele>
        <time>2020-09-12T11:43:18.000Z</time>
      </trkpt>
      <trkpt lat="44.02119" lon="6.89953">
        <ele>1372.1999511719</ele>
        <time>2020-09-12T11:43:21.000Z</time>
      </trkpt>
      <trkpt lat="44.02114" lon="6.89956">
        <ele>1372.5999755859</ele>
        <time>2020-09-12T11:43:24.000Z</time>
      </trkpt>
      <trkpt lat="44.0211" lon="6.89958">
        <ele>1372.8000488281</ele>
        <time>2020-09-12T11:43:26.000Z</time>
      </trkpt>
      <trkpt lat="44.02099" lon="6.89963">
        <ele>1373.5999755859</ele>
        <time>2020-09-12T11:43:32.000Z</time>
      </trkpt>
      <trkpt lat="44.02097" lon="6.89964">
        <ele>1373.8000488281</ele>
        <time>2020-09-12T11:43:33.000Z</time>
      </trkpt>
      <trkpt lat="44.02086" lon="6.89965">
        <ele>1374.5999755859</ele>
        <time>2020-09-12T11:43:39.000Z</time>
      </trkpt>
      <trkpt lat="44.02085" lon="6.89964">
        <ele>1374.5999755859</ele>
        <time>2020-09-12T11:43:40.000Z</time>
      </trkpt>
      <trkpt lat="44.02072" lon="6.8996">
        <ele>1375.5999755859</ele>
        <time>2020-09-12T11:43:47.000Z</time>
      </trkpt>
      <trkpt lat="44.02069" lon="6.89958">
        <ele>1375.5999755859</ele>
        <time>2020-09-12T11:43:49.000Z</time>
      </trkpt>
      <trkpt lat="44.02062" lon="6.89957">
        <ele>1376</ele>
        <time>2020-09-12T11:43:53.000Z</time>
      </trkpt>
      <trkpt lat="44.02056" lon="6.89958">
        <ele>1376.8000488281</ele>
        <time>2020-09-12T11:43:56.000Z</time>
      </trkpt>
      <trkpt lat="44.02049" lon="6.89961">
        <ele>1377.5999755859</ele>
        <time>2020-09-12T11:44:00.000Z</time>
      </trkpt>
      <trkpt lat="44.02046" lon="6.89963">
        <ele>1377.8000488281</ele>
        <time>2020-09-12T11:44:02.000Z</time>
      </trkpt>
      <trkpt lat="44.0204" lon="6.89972">
        <ele>1378.1999511719</ele>
        <time>2020-09-12T11:44:07.000Z</time>
      </trkpt>
      <trkpt lat="44.02038" lon="6.89979">
        <ele>1378.8000488281</ele>
        <time>2020-09-12T11:44:11.000Z</time>
      </trkpt>
      <trkpt lat="44.02037" lon="6.89985">
        <ele>1379.5999755859</ele>
        <time>2020-09-12T11:44:14.000Z</time>
      </trkpt>
      <trkpt lat="44.02037" lon="6.89989">
        <ele>1380</ele>
        <time>2020-09-12T11:44:16.000Z</time>
      </trkpt>
      <trkpt lat="44.02037" lon="6.8999">
        <ele>1380.1999511719</ele>
        <time>2020-09-12T11:44:17.000Z</time>
      </trkpt>
      <trkpt lat="44.02037" lon="6.8999">
        <ele>1380.8000488281</ele>
        <time>2020-09-12T11:44:19.000Z</time>
      </trkpt>
      <trkpt lat="44.02036" lon="6.89991">
        <ele>1381</ele>
        <time>2020-09-12T11:44:20.000Z</time>
      </trkpt>
      <trkpt lat="44.02035" lon="6.89997">
        <ele>1381.1999511719</ele>
        <time>2020-09-12T11:44:23.000Z</time>
      </trkpt>
      <trkpt lat="44.0203" lon="6.90008">
        <ele>1382.1999511719</ele>
        <time>2020-09-12T11:44:30.000Z</time>
      </trkpt>
      <trkpt lat="44.02026" lon="6.90017">
        <ele>1383.1999511719</ele>
        <time>2020-09-12T11:44:35.000Z</time>
      </trkpt>
      <trkpt lat="44.02023" lon="6.90022">
        <ele>1383.4000244141</ele>
        <time>2020-09-12T11:44:37.000Z</time>
      </trkpt>
      <trkpt lat="44.02014" lon="6.90046">
        <ele>1383.8000488281</ele>
        <time>2020-09-12T11:44:46.000Z</time>
      </trkpt>
      <trkpt lat="44.02014" lon="6.90062">
        <ele>1384.1999511719</ele>
        <time>2020-09-12T11:44:52.000Z</time>
      </trkpt>
      <trkpt lat="44.02015" lon="6.90065">
        <ele>1384.4000244141</ele>
        <time>2020-09-12T11:44:53.000Z</time>
      </trkpt>
      <trkpt lat="44.02017" lon="6.90067">
        <ele>1384.8000488281</ele>
        <time>2020-09-12T11:44:55.000Z</time>
      </trkpt>
      <trkpt lat="44.02021" lon="6.90068">
        <ele>1385</ele>
        <time>2020-09-12T11:44:57.000Z</time>
      </trkpt>
      <trkpt lat="44.02029" lon="6.90063">
        <ele>1385</ele>
        <time>2020-09-12T11:45:01.000Z</time>
      </trkpt>
      <trkpt lat="44.02031" lon="6.90061">
        <ele>1385</ele>
        <time>2020-09-12T11:45:02.000Z</time>
      </trkpt>
      <trkpt lat="44.02045" lon="6.90052">
        <ele>1385</ele>
        <time>2020-09-12T11:45:09.000Z</time>
      </trkpt>
      <trkpt lat="44.02059" lon="6.90043">
        <ele>1385.1999511719</ele>
        <time>2020-09-12T11:45:15.000Z</time>
      </trkpt>
      <trkpt lat="44.02068" lon="6.9005">
        <ele>1385.1999511719</ele>
        <time>2020-09-12T11:45:19.000Z</time>
      </trkpt>
      <trkpt lat="44.02076" lon="6.90056">
        <ele>1385</ele>
        <time>2020-09-12T11:45:24.000Z</time>
      </trkpt>
      <trkpt lat="44.02084" lon="6.90056">
        <ele>1385.5999755859</ele>
        <time>2020-09-12T11:45:28.000Z</time>
      </trkpt>
      <trkpt lat="44.02087" lon="6.90056">
        <ele>1386</ele>
        <time>2020-09-12T11:45:30.000Z</time>
      </trkpt>
      <trkpt lat="44.02093" lon="6.90056">
        <ele>1386.5999755859</ele>
        <time>2020-09-12T11:45:33.000Z</time>
      </trkpt>
      <trkpt lat="44.02099" lon="6.90054">
        <ele>1387.1999511719</ele>
        <time>2020-09-12T11:45:36.000Z</time>
      </trkpt>
      <trkpt lat="44.02101" lon="6.90053">
        <ele>1387.8000488281</ele>
        <time>2020-09-12T11:45:38.000Z</time>
      </trkpt>
      <trkpt lat="44.02108" lon="6.90052">
        <ele>1389</ele>
        <time>2020-09-12T11:45:42.000Z</time>
      </trkpt>
      <trkpt lat="44.0212" lon="6.90047">
        <ele>1390</ele>
        <time>2020-09-12T11:45:49.000Z</time>
      </trkpt>
      <trkpt lat="44.02125" lon="6.90048">
        <ele>1390</ele>
        <time>2020-09-12T11:45:52.000Z</time>
      </trkpt>
      <trkpt lat="44.02127" lon="6.90051">
        <ele>1390.1999511719</ele>
        <time>2020-09-12T11:45:54.000Z</time>
      </trkpt>
      <trkpt lat="44.02131" lon="6.90056">
        <ele>1390.5999755859</ele>
        <time>2020-09-12T11:45:57.000Z</time>
      </trkpt>
      <trkpt lat="44.02137" lon="6.90062">
        <ele>1391</ele>
        <time>2020-09-12T11:46:01.000Z</time>
      </trkpt>
      <trkpt lat="44.02141" lon="6.90063">
        <ele>1391</ele>
        <time>2020-09-12T11:46:04.000Z</time>
      </trkpt>
      <trkpt lat="44.02144" lon="6.90063">
        <ele>1391.5999755859</ele>
        <time>2020-09-12T11:46:06.000Z</time>
      </trkpt>
      <trkpt lat="44.02148" lon="6.90065">
        <ele>1392.1999511719</ele>
        <time>2020-09-12T11:46:09.000Z</time>
      </trkpt>
      <trkpt lat="44.02157" lon="6.90069">
        <ele>1393.1999511719</ele>
        <time>2020-09-12T11:46:15.000Z</time>
      </trkpt>
      <trkpt lat="44.02158" lon="6.9007">
        <ele>1393.4000244141</ele>
        <time>2020-09-12T11:46:16.000Z</time>
      </trkpt>
      <trkpt lat="44.02163" lon="6.90073">
        <ele>1394.5999755859</ele>
        <time>2020-09-12T11:46:20.000Z</time>
      </trkpt>
      <trkpt lat="44.02164" lon="6.90074">
        <ele>1394.8000488281</ele>
        <time>2020-09-12T11:46:21.000Z</time>
      </trkpt>
      <trkpt lat="44.02166" lon="6.90075">
        <ele>1395.5999755859</ele>
        <time>2020-09-12T11:46:23.000Z</time>
      </trkpt>
      <trkpt lat="44.02173" lon="6.90077">
        <ele>1396.5999755859</ele>
        <time>2020-09-12T11:46:29.000Z</time>
      </trkpt>
      <trkpt lat="44.02174" lon="6.90078">
        <ele>1396.5999755859</ele>
        <time>2020-09-12T11:46:30.000Z</time>
      </trkpt>
      <trkpt lat="44.02175" lon="6.9008">
        <ele>1397</ele>
        <time>2020-09-12T11:46:33.000Z</time>
      </trkpt>
      <trkpt lat="44.02175" lon="6.90081">
        <ele>1397.1999511719</ele>
        <time>2020-09-12T11:46:40.000Z</time>
      </trkpt>
      <trkpt lat="44.02175" lon="6.90081">
        <ele>1397</ele>
        <time>2020-09-12T11:46:55.000Z</time>
      </trkpt>
      <trkpt lat="44.02176" lon="6.90079">
        <ele>1397.5999755859</ele>
        <time>2020-09-12T11:47:00.000Z</time>
      </trkpt>
      <trkpt lat="44.02176" lon="6.90079">
        <ele>1397.5999755859</ele>
        <time>2020-09-12T11:47:01.000Z</time>
      </trkpt>
      <trkpt lat="44.02178" lon="6.9008">
        <ele>1398</ele>
        <time>2020-09-12T11:47:06.000Z</time>
      </trkpt>
      <trkpt lat="44.02186" lon="6.90078">
        <ele>1398.5999755859</ele>
        <time>2020-09-12T11:47:13.000Z</time>
      </trkpt>
      <trkpt lat="44.02191" lon="6.90083">
        <ele>1399.4000244141</ele>
        <time>2020-09-12T11:47:18.000Z</time>
      </trkpt>
      <trkpt lat="44.02192" lon="6.90085">
        <ele>1399.5999755859</ele>
        <time>2020-09-12T11:47:19.000Z</time>
      </trkpt>
      <trkpt lat="44.02193" lon="6.90087">
        <ele>1399.8000488281</ele>
        <time>2020-09-12T11:47:20.000Z</time>
      </trkpt>
      <trkpt lat="44.02199" lon="6.90092">
        <ele>1401</ele>
        <time>2020-09-12T11:47:25.000Z</time>
      </trkpt>
      <trkpt lat="44.02203" lon="6.90094">
        <ele>1401.4000244141</ele>
        <time>2020-09-12T11:47:27.000Z</time>
      </trkpt>
      <trkpt lat="44.02205" lon="6.90098">
        <ele>1401.4000244141</ele>
        <time>2020-09-12T11:47:29.000Z</time>
      </trkpt>
      <trkpt lat="44.02207" lon="6.90101">
        <ele>1401.4000244141</ele>
        <time>2020-09-12T11:47:31.000Z</time>
      </trkpt>
      <trkpt lat="44.0221" lon="6.90106">
        <ele>1402</ele>
        <time>2020-09-12T11:47:34.000Z</time>
      </trkpt>
      <trkpt lat="44.02218" lon="6.90105">
        <ele>1402.8000488281</ele>
        <time>2020-09-12T11:47:39.000Z</time>
      </trkpt>
      <trkpt lat="44.02233" lon="6.90094">
        <ele>1402.5999755859</ele>
        <time>2020-09-12T11:47:45.000Z</time>
      </trkpt>
      <trkpt lat="44.02245" lon="6.90085">
        <ele>1402.1999511719</ele>
        <time>2020-09-12T11:47:50.000Z</time>
      </trkpt>
      <trkpt lat="44.02254" lon="6.9009">
        <ele>1402.8000488281</ele>
        <time>2020-09-12T11:47:54.000Z</time>
      </trkpt>
      <trkpt lat="44.02263" lon="6.901">
        <ele>1403</ele>
        <time>2020-09-12T11:47:59.000Z</time>
      </trkpt>
      <trkpt lat="44.02263" lon="6.90103">
        <ele>1403</ele>
        <time>2020-09-12T11:48:00.000Z</time>
      </trkpt>
      <trkpt lat="44.02261" lon="6.90114">
        <ele>1403</ele>
        <time>2020-09-12T11:48:03.000Z</time>
      </trkpt>
      <trkpt lat="44.0226" lon="6.90134">
        <ele>1404</ele>
        <time>2020-09-12T11:48:10.000Z</time>
      </trkpt>
      <trkpt lat="44.02261" lon="6.9014">
        <ele>1404.1999511719</ele>
        <time>2020-09-12T11:48:12.000Z</time>
      </trkpt>
      <trkpt lat="44.02264" lon="6.9015">
        <ele>1404.8000488281</ele>
        <time>2020-09-12T11:48:16.000Z</time>
      </trkpt>
      <trkpt lat="44.02264" lon="6.90157">
        <ele>1405.4000244141</ele>
        <time>2020-09-12T11:48:19.000Z</time>
      </trkpt>
      <trkpt lat="44.02264" lon="6.90166">
        <ele>1405.8000488281</ele>
        <time>2020-09-12T11:48:22.000Z</time>
      </trkpt>
      <trkpt lat="44.02266" lon="6.90182">
        <ele>1405.8000488281</ele>
        <time>2020-09-12T11:48:28.000Z</time>
      </trkpt>
      <trkpt lat="44.02267" lon="6.90192">
        <ele>1406</ele>
        <time>2020-09-12T11:48:33.000Z</time>
      </trkpt>
      <trkpt lat="44.0227" lon="6.90205">
        <ele>1406.4000244141</ele>
        <time>2020-09-12T11:48:39.000Z</time>
      </trkpt>
      <trkpt lat="44.0227" lon="6.90208">
        <ele>1406.5999755859</ele>
        <time>2020-09-12T11:48:40.000Z</time>
      </trkpt>
      <trkpt lat="44.02273" lon="6.90224">
        <ele>1407.5999755859</ele>
        <time>2020-09-12T11:48:46.000Z</time>
      </trkpt>
      <trkpt lat="44.02273" lon="6.90226">
        <ele>1407.8000488281</ele>
        <time>2020-09-12T11:48:47.000Z</time>
      </trkpt>
      <trkpt lat="44.02275" lon="6.9024">
        <ele>1408.5999755859</ele>
        <time>2020-09-12T11:48:53.000Z</time>
      </trkpt>
      <trkpt lat="44.02276" lon="6.90242">
        <ele>1408.8000488281</ele>
        <time>2020-09-12T11:48:54.000Z</time>
      </trkpt>
      <trkpt lat="44.02278" lon="6.90252">
        <ele>1409.8000488281</ele>
        <time>2020-09-12T11:48:59.000Z</time>
      </trkpt>
      <trkpt lat="44.02279" lon="6.90254">
        <ele>1410.4000244141</ele>
        <time>2020-09-12T11:49:01.000Z</time>
      </trkpt>
      <trkpt lat="44.02281" lon="6.90255">
        <ele>1411</ele>
        <time>2020-09-12T11:49:03.000Z</time>
      </trkpt>
      <trkpt lat="44.02283" lon="6.90255">
        <ele>1411</ele>
        <time>2020-09-12T11:49:04.000Z</time>
      </trkpt>
      <trkpt lat="44.02286" lon="6.90255">
        <ele>1411.1999511719</ele>
        <time>2020-09-12T11:49:05.000Z</time>
      </trkpt>
      <trkpt lat="44.02293" lon="6.90251">
        <ele>1411.1999511719</ele>
        <time>2020-09-12T11:49:08.000Z</time>
      </trkpt>
      <trkpt lat="44.02301" lon="6.90237">
        <ele>1410.4000244141</ele>
        <time>2020-09-12T11:49:12.000Z</time>
      </trkpt>
      <trkpt lat="44.02303" lon="6.90234">
        <ele>1410.1999511719</ele>
        <time>2020-09-12T11:49:13.000Z</time>
      </trkpt>
      <trkpt lat="44.02307" lon="6.9023">
        <ele>1410</ele>
        <time>2020-09-12T11:49:15.000Z</time>
      </trkpt>
      <trkpt lat="44.02308" lon="6.90229">
        <ele>1409.8000488281</ele>
        <time>2020-09-12T11:49:16.000Z</time>
      </trkpt>
      <trkpt lat="44.02317" lon="6.90224">
        <ele>1408.8000488281</ele>
        <time>2020-09-12T11:49:20.000Z</time>
      </trkpt>
      <trkpt lat="44.02322" lon="6.90214">
        <ele>1408</ele>
        <time>2020-09-12T11:49:25.000Z</time>
      </trkpt>
      <trkpt lat="44.02325" lon="6.90211">
        <ele>1408.1999511719</ele>
        <time>2020-09-12T11:49:27.000Z</time>
      </trkpt>
      <trkpt lat="44.02326" lon="6.90209">
        <ele>1408</ele>
        <time>2020-09-12T11:49:29.000Z</time>
      </trkpt>
      <trkpt lat="44.02327" lon="6.90208">
        <ele>1407.5999755859</ele>
        <time>2020-09-12T11:49:30.000Z</time>
      </trkpt>
      <trkpt lat="44.02328" lon="6.90206">
        <ele>1407.1999511719</ele>
        <time>2020-09-12T11:49:31.000Z</time>
      </trkpt>
      <trkpt lat="44.02332" lon="6.90204">
        <ele>1406.5999755859</ele>
        <time>2020-09-12T11:49:33.000Z</time>
      </trkpt>
      <trkpt lat="44.02332" lon="6.90203">
        <ele>1406.4000244141</ele>
        <time>2020-09-12T11:49:34.000Z</time>
      </trkpt>
      <trkpt lat="44.02334" lon="6.90203">
        <ele>1405.5999755859</ele>
        <time>2020-09-12T11:49:37.000Z</time>
      </trkpt>
      <trkpt lat="44.02334" lon="6.90202">
        <ele>1405.1999511719</ele>
        <time>2020-09-12T11:49:38.000Z</time>
      </trkpt>
      <trkpt lat="44.02337" lon="6.90202">
        <ele>1404.4000244141</ele>
        <time>2020-09-12T11:49:40.000Z</time>
      </trkpt>
      <trkpt lat="44.0234" lon="6.902">
        <ele>1403.5999755859</ele>
        <time>2020-09-12T11:49:44.000Z</time>
      </trkpt>
      <trkpt lat="44.02342" lon="6.90197">
        <ele>1404.5999755859</ele>
        <time>2020-09-12T11:49:49.000Z</time>
      </trkpt>
      <trkpt lat="44.02345" lon="6.90196">
        <ele>1405</ele>
        <time>2020-09-12T11:49:53.000Z</time>
      </trkpt>
      <trkpt lat="44.02347" lon="6.90196">
        <ele>1405</ele>
        <time>2020-09-12T11:49:54.000Z</time>
      </trkpt>
      <trkpt lat="44.02351" lon="6.90201">
        <ele>1403.4000244141</ele>
        <time>2020-09-12T11:49:58.000Z</time>
      </trkpt>
      <trkpt lat="44.02353" lon="6.90204">
        <ele>1403.1999511719</ele>
        <time>2020-09-12T11:49:59.000Z</time>
      </trkpt>
      <trkpt lat="44.02361" lon="6.90213">
        <ele>1403.1999511719</ele>
        <time>2020-09-12T11:50:03.000Z</time>
      </trkpt>
      <trkpt lat="44.02372" lon="6.90219">
        <ele>1402</ele>
        <time>2020-09-12T11:50:07.000Z</time>
      </trkpt>
      <trkpt lat="44.02374" lon="6.90219">
        <ele>1401.1999511719</ele>
        <time>2020-09-12T11:50:08.000Z</time>
      </trkpt>
      <trkpt lat="44.02377" lon="6.9022">
        <ele>1400.5999755859</ele>
        <time>2020-09-12T11:50:09.000Z</time>
      </trkpt>
      <trkpt lat="44.02383" lon="6.90222">
        <ele>1399.5999755859</ele>
        <time>2020-09-12T11:50:11.000Z</time>
      </trkpt>
      <trkpt lat="44.02389" lon="6.90226">
        <ele>1398.8000488281</ele>
        <time>2020-09-12T11:50:13.000Z</time>
      </trkpt>
      <trkpt lat="44.0239" lon="6.90227">
        <ele>1398.5999755859</ele>
        <time>2020-09-12T11:50:14.000Z</time>
      </trkpt>
      <trkpt lat="44.0239" lon="6.90227">
        <ele>1397.8000488281</ele>
        <time>2020-09-12T11:50:16.000Z</time>
      </trkpt>
      <trkpt lat="44.0239" lon="6.90227">
        <ele>1397.4000244141</ele>
        <time>2020-09-12T11:50:17.000Z</time>
      </trkpt>
      <trkpt lat="44.0239" lon="6.90228">
        <ele>1396.5999755859</ele>
        <time>2020-09-12T11:50:22.000Z</time>
      </trkpt>
      <trkpt lat="44.0239" lon="6.90228">
        <ele>1396.4000244141</ele>
        <time>2020-09-12T11:50:23.000Z</time>
      </trkpt>
      <trkpt lat="44.0239" lon="6.90229">
        <ele>1396</ele>
        <time>2020-09-12T11:50:27.000Z</time>
      </trkpt>
      <trkpt lat="44.0239" lon="6.9023">
        <ele>1395.4000244141</ele>
        <time>2020-09-12T11:50:30.000Z</time>
      </trkpt>
      <trkpt lat="44.02391" lon="6.90232">
        <ele>1394.4000244141</ele>
        <time>2020-09-12T11:50:35.000Z</time>
      </trkpt>
      <trkpt lat="44.02391" lon="6.90232">
        <ele>1394.1999511719</ele>
        <time>2020-09-12T11:50:36.000Z</time>
      </trkpt>
      <trkpt lat="44.02391" lon="6.90235">
        <ele>1394</ele>
        <time>2020-09-12T11:50:40.000Z</time>
      </trkpt>
      <trkpt lat="44.02391" lon="6.90238">
        <ele>1394.1999511719</ele>
        <time>2020-09-12T11:50:42.000Z</time>
      </trkpt>
      <trkpt lat="44.02388" lon="6.90243">
        <ele>1395.4000244141</ele>
        <time>2020-09-12T11:50:47.000Z</time>
      </trkpt>
      <trkpt lat="44.02381" lon="6.90248">
        <ele>1395.4000244141</ele>
        <time>2020-09-12T11:50:51.000Z</time>
      </trkpt>
      <trkpt lat="44.02374" lon="6.90256">
        <ele>1395</ele>
        <time>2020-09-12T11:50:56.000Z</time>
      </trkpt>
      <trkpt lat="44.02375" lon="6.9027">
        <ele>1394.8000488281</ele>
        <time>2020-09-12T11:51:00.000Z</time>
      </trkpt>
      <trkpt lat="44.02377" lon="6.90275">
        <ele>1394.4000244141</ele>
        <time>2020-09-12T11:51:02.000Z</time>
      </trkpt>
      <trkpt lat="44.02378" lon="6.90279">
        <ele>1394.1999511719</ele>
        <time>2020-09-12T11:51:03.000Z</time>
      </trkpt>
      <trkpt lat="44.0238" lon="6.90285">
        <ele>1393.8000488281</ele>
        <time>2020-09-12T11:51:05.000Z</time>
      </trkpt>
      <trkpt lat="44.02384" lon="6.90295">
        <ele>1393.1999511719</ele>
        <time>2020-09-12T11:51:09.000Z</time>
      </trkpt>
      <trkpt lat="44.02387" lon="6.90299">
        <ele>1393</ele>
        <time>2020-09-12T11:51:11.000Z</time>
      </trkpt>
      <trkpt lat="44.02392" lon="6.90308">
        <ele>1392.1999511719</ele>
        <time>2020-09-12T11:51:15.000Z</time>
      </trkpt>
      <trkpt lat="44.02393" lon="6.90311">
        <ele>1392</ele>
        <time>2020-09-12T11:51:16.000Z</time>
      </trkpt>
      <trkpt lat="44.02399" lon="6.90319">
        <ele>1392</ele>
        <time>2020-09-12T11:51:21.000Z</time>
      </trkpt>
      <trkpt lat="44.02404" lon="6.90329">
        <ele>1391.8000488281</ele>
        <time>2020-09-12T11:51:26.000Z</time>
      </trkpt>
      <trkpt lat="44.02404" lon="6.90332">
        <ele>1391.8000488281</ele>
        <time>2020-09-12T11:51:27.000Z</time>
      </trkpt>
      <trkpt lat="44.02404" lon="6.90343">
        <ele>1391.4000244141</ele>
        <time>2020-09-12T11:51:31.000Z</time>
      </trkpt>
      <trkpt lat="44.02405" lon="6.90345">
        <ele>1391</ele>
        <time>2020-09-12T11:51:33.000Z</time>
      </trkpt>
      <trkpt lat="44.02404" lon="6.90347">
        <ele>1391</ele>
        <time>2020-09-12T11:51:35.000Z</time>
      </trkpt>
      <trkpt lat="44.02402" lon="6.9035">
        <ele>1390.8000488281</ele>
        <time>2020-09-12T11:51:39.000Z</time>
      </trkpt>
      <trkpt lat="44.02402" lon="6.90358">
        <ele>1390</ele>
        <time>2020-09-12T11:51:42.000Z</time>
      </trkpt>
      <trkpt lat="44.02402" lon="6.90363">
        <ele>1389.4000244141</ele>
        <time>2020-09-12T11:51:44.000Z</time>
      </trkpt>
      <trkpt lat="44.02404" lon="6.9037">
        <ele>1388.8000488281</ele>
        <time>2020-09-12T11:51:48.000Z</time>
      </trkpt>
      <trkpt lat="44.02404" lon="6.90371">
        <ele>1388.8000488281</ele>
        <time>2020-09-12T11:51:49.000Z</time>
      </trkpt>
      <trkpt lat="44.02406" lon="6.90377">
        <ele>1389.1999511719</ele>
        <time>2020-09-12T11:51:55.000Z</time>
      </trkpt>
      <trkpt lat="44.02411" lon="6.90389">
        <ele>1389.4000244141</ele>
        <time>2020-09-12T11:52:00.000Z</time>
      </trkpt>
      <trkpt lat="44.02426" lon="6.90397">
        <ele>1388.8000488281</ele>
        <time>2020-09-12T11:52:06.000Z</time>
      </trkpt>
      <trkpt lat="44.02429" lon="6.90397">
        <ele>1388.4000244141</ele>
        <time>2020-09-12T11:52:08.000Z</time>
      </trkpt>
      <trkpt lat="44.02433" lon="6.90392">
        <ele>1388</ele>
        <time>2020-09-12T11:52:10.000Z</time>
      </trkpt>
      <trkpt lat="44.02435" lon="6.90388">
        <ele>1387.8000488281</ele>
        <time>2020-09-12T11:52:11.000Z</time>
      </trkpt>
      <trkpt lat="44.02438" lon="6.9038">
        <ele>1386.5999755859</ele>
        <time>2020-09-12T11:52:15.000Z</time>
      </trkpt>
      <trkpt lat="44.02443" lon="6.90374">
        <ele>1385.1999511719</ele>
        <time>2020-09-12T11:52:18.000Z</time>
      </trkpt>
      <trkpt lat="44.02448" lon="6.9037">
        <ele>1384.4000244141</ele>
        <time>2020-09-12T11:52:20.000Z</time>
      </trkpt>
      <trkpt lat="44.02454" lon="6.90367">
        <ele>1384</ele>
        <time>2020-09-12T11:52:22.000Z</time>
      </trkpt>
      <trkpt lat="44.02463" lon="6.90359">
        <ele>1382.5999755859</ele>
        <time>2020-09-12T11:52:25.000Z</time>
      </trkpt>
      <trkpt lat="44.02467" lon="6.90356">
        <ele>1381.4000244141</ele>
        <time>2020-09-12T11:52:27.000Z</time>
      </trkpt>
      <trkpt lat="44.02471" lon="6.90354">
        <ele>1380.4000244141</ele>
        <time>2020-09-12T11:52:29.000Z</time>
      </trkpt>
      <trkpt lat="44.02481" lon="6.9035">
        <ele>1379.4000244141</ele>
        <time>2020-09-12T11:52:32.000Z</time>
      </trkpt>
      <trkpt lat="44.0249" lon="6.90344">
        <ele>1378</ele>
        <time>2020-09-12T11:52:35.000Z</time>
      </trkpt>
      <trkpt lat="44.02496" lon="6.90339">
        <ele>1376.5999755859</ele>
        <time>2020-09-12T11:52:37.000Z</time>
      </trkpt>
      <trkpt lat="44.02502" lon="6.90331">
        <ele>1375.4000244141</ele>
        <time>2020-09-12T11:52:39.000Z</time>
      </trkpt>
      <trkpt lat="44.02508" lon="6.90322">
        <ele>1374.4000244141</ele>
        <time>2020-09-12T11:52:41.000Z</time>
      </trkpt>
      <trkpt lat="44.0251" lon="6.90317">
        <ele>1374</ele>
        <time>2020-09-12T11:52:42.000Z</time>
      </trkpt>
      <trkpt lat="44.02514" lon="6.90312">
        <ele>1373.4000244141</ele>
        <time>2020-09-12T11:52:43.000Z</time>
      </trkpt>
      <trkpt lat="44.02521" lon="6.90303">
        <ele>1372</ele>
        <time>2020-09-12T11:52:45.000Z</time>
      </trkpt>
      <trkpt lat="44.02529" lon="6.90294">
        <ele>1370.8000488281</ele>
        <time>2020-09-12T11:52:47.000Z</time>
      </trkpt>
      <trkpt lat="44.02538" lon="6.90287">
        <ele>1369.4000244141</ele>
        <time>2020-09-12T11:52:49.000Z</time>
      </trkpt>
      <trkpt lat="44.02543" lon="6.90281">
        <ele>1368.8000488281</ele>
        <time>2020-09-12T11:52:50.000Z</time>
      </trkpt>
      <trkpt lat="44.02547" lon="6.90277">
        <ele>1368.1999511719</ele>
        <time>2020-09-12T11:52:51.000Z</time>
      </trkpt>
      <trkpt lat="44.02551" lon="6.90273">
        <ele>1367.4000244141</ele>
        <time>2020-09-12T11:52:52.000Z</time>
      </trkpt>
      <trkpt lat="44.02554" lon="6.90271">
        <ele>1366.4000244141</ele>
        <time>2020-09-12T11:52:53.000Z</time>
      </trkpt>
      <trkpt lat="44.02561" lon="6.90266">
        <ele>1364</ele>
        <time>2020-09-12T11:52:55.000Z</time>
      </trkpt>
      <trkpt lat="44.02565" lon="6.90264">
        <ele>1363</ele>
        <time>2020-09-12T11:52:56.000Z</time>
      </trkpt>
      <trkpt lat="44.02573" lon="6.90257">
        <ele>1361.4000244141</ele>
        <time>2020-09-12T11:52:58.000Z</time>
      </trkpt>
      <trkpt lat="44.02574" lon="6.90251">
        <ele>1360.8000488281</ele>
        <time>2020-09-12T11:52:59.000Z</time>
      </trkpt>
      <trkpt lat="44.02577" lon="6.90245">
        <ele>1360.1999511719</ele>
        <time>2020-09-12T11:53:00.000Z</time>
      </trkpt>
      <trkpt lat="44.0258" lon="6.90239">
        <ele>1359.4000244141</ele>
        <time>2020-09-12T11:53:01.000Z</time>
      </trkpt>
      <trkpt lat="44.02584" lon="6.90234">
        <ele>1358.8000488281</ele>
        <time>2020-09-12T11:53:02.000Z</time>
      </trkpt>
      <trkpt lat="44.02589" lon="6.9023">
        <ele>1358</ele>
        <time>2020-09-12T11:53:03.000Z</time>
      </trkpt>
      <trkpt lat="44.02593" lon="6.90227">
        <ele>1357</ele>
        <time>2020-09-12T11:53:04.000Z</time>
      </trkpt>
      <trkpt lat="44.02601" lon="6.90222">
        <ele>1355.4000244141</ele>
        <time>2020-09-12T11:53:06.000Z</time>
      </trkpt>
      <trkpt lat="44.02604" lon="6.90223">
        <ele>1354.4000244141</ele>
        <time>2020-09-12T11:53:07.000Z</time>
      </trkpt>
      <trkpt lat="44.02607" lon="6.90225">
        <ele>1352.4000244141</ele>
        <time>2020-09-12T11:53:09.000Z</time>
      </trkpt>
      <trkpt lat="44.02608" lon="6.90226">
        <ele>1351.5999755859</ele>
        <time>2020-09-12T11:53:10.000Z</time>
      </trkpt>
      <trkpt lat="44.02607" lon="6.90225">
        <ele>1350.8000488281</ele>
        <time>2020-09-12T11:53:11.000Z</time>
      </trkpt>
      <trkpt lat="44.02607" lon="6.90226">
        <ele>1349.8000488281</ele>
        <time>2020-09-12T11:53:13.000Z</time>
      </trkpt>
      <trkpt lat="44.02608" lon="6.90226">
        <ele>1349.4000244141</ele>
        <time>2020-09-12T11:53:15.000Z</time>
      </trkpt>
      <trkpt lat="44.02607" lon="6.9023">
        <ele>1349.5999755859</ele>
        <time>2020-09-12T11:53:19.000Z</time>
      </trkpt>
      <trkpt lat="44.02607" lon="6.9023">
        <ele>1350</ele>
        <time>2020-09-12T11:53:21.000Z</time>
      </trkpt>
      <trkpt lat="44.02605" lon="6.90238">
        <ele>1350.5999755859</ele>
        <time>2020-09-12T11:53:27.000Z</time>
      </trkpt>
      <trkpt lat="44.02605" lon="6.90245">
        <ele>1350.5999755859</ele>
        <time>2020-09-12T11:53:32.000Z</time>
      </trkpt>
      <trkpt lat="44.02605" lon="6.90246">
        <ele>1350.8000488281</ele>
        <time>2020-09-12T11:53:33.000Z</time>
      </trkpt>
      <trkpt lat="44.02605" lon="6.90248">
        <ele>1351</ele>
        <time>2020-09-12T11:53:34.000Z</time>
      </trkpt>
      <trkpt lat="44.02605" lon="6.90255">
        <ele>1351</ele>
        <time>2020-09-12T11:53:38.000Z</time>
      </trkpt>
      <trkpt lat="44.02604" lon="6.90256">
        <ele>1350.8000488281</ele>
        <time>2020-09-12T11:53:40.000Z</time>
      </trkpt>
      <trkpt lat="44.02604" lon="6.90258">
        <ele>1350.5999755859</ele>
        <time>2020-09-12T11:53:41.000Z</time>
      </trkpt>
      <trkpt lat="44.02601" lon="6.90274">
        <ele>1349.8000488281</ele>
        <time>2020-09-12T11:53:45.000Z</time>
      </trkpt>
      <trkpt lat="44.02601" lon="6.90278">
        <ele>1349.5999755859</ele>
        <time>2020-09-12T11:53:46.000Z</time>
      </trkpt>
      <trkpt lat="44.02598" lon="6.90288">
        <ele>1348.8000488281</ele>
        <time>2020-09-12T11:53:49.000Z</time>
      </trkpt>
      <trkpt lat="44.02595" lon="6.90296">
        <ele>1348.4000244141</ele>
        <time>2020-09-12T11:53:51.000Z</time>
      </trkpt>
      <trkpt lat="44.0259" lon="6.90307">
        <ele>1347.5999755859</ele>
        <time>2020-09-12T11:53:55.000Z</time>
      </trkpt>
      <trkpt lat="44.0259" lon="6.90308">
        <ele>1347.4000244141</ele>
        <time>2020-09-12T11:53:56.000Z</time>
      </trkpt>
      <trkpt lat="44.02588" lon="6.90312">
        <ele>1346.5999755859</ele>
        <time>2020-09-12T11:54:01.000Z</time>
      </trkpt>
      <trkpt lat="44.02586" lon="6.90315">
        <ele>1346.1999511719</ele>
        <time>2020-09-12T11:54:05.000Z</time>
      </trkpt>
      <trkpt lat="44.02586" lon="6.90315">
        <ele>1346</ele>
        <time>2020-09-12T11:54:06.000Z</time>
      </trkpt>
      <trkpt lat="44.02585" lon="6.90318">
        <ele>1347</ele>
        <time>2020-09-12T11:54:12.000Z</time>
      </trkpt>
      <trkpt lat="44.02583" lon="6.9032">
        <ele>1347</ele>
        <time>2020-09-12T11:54:14.000Z</time>
      </trkpt>
      <trkpt lat="44.02583" lon="6.90326">
        <ele>1346.8000488281</ele>
        <time>2020-09-12T11:54:16.000Z</time>
      </trkpt>
      <trkpt lat="44.02583" lon="6.90335">
        <ele>1346.4000244141</ele>
        <time>2020-09-12T11:54:20.000Z</time>
      </trkpt>
      <trkpt lat="44.02582" lon="6.90336">
        <ele>1346.1999511719</ele>
        <time>2020-09-12T11:54:21.000Z</time>
      </trkpt>
      <trkpt lat="44.02574" lon="6.90346">
        <ele>1345.5999755859</ele>
        <time>2020-09-12T11:54:26.000Z</time>
      </trkpt>
      <trkpt lat="44.02574" lon="6.90351">
        <ele>1345.4000244141</ele>
        <time>2020-09-12T11:54:28.000Z</time>
      </trkpt>
      <trkpt lat="44.02573" lon="6.90353">
        <ele>1345.1999511719</ele>
        <time>2020-09-12T11:54:29.000Z</time>
      </trkpt>
      <trkpt lat="44.02573" lon="6.90357">
        <ele>1344.5999755859</ele>
        <time>2020-09-12T11:54:31.000Z</time>
      </trkpt>
      <trkpt lat="44.0257" lon="6.90373">
        <ele>1344.5999755859</ele>
        <time>2020-09-12T11:54:36.000Z</time>
      </trkpt>
      <trkpt lat="44.02568" lon="6.90382">
        <ele>1344.4000244141</ele>
        <time>2020-09-12T11:54:39.000Z</time>
      </trkpt>
      <trkpt lat="44.02567" lon="6.90385">
        <ele>1344.1999511719</ele>
        <time>2020-09-12T11:54:40.000Z</time>
      </trkpt>
      <trkpt lat="44.02561" lon="6.90398">
        <ele>1343.8000488281</ele>
        <time>2020-09-12T11:54:45.000Z</time>
      </trkpt>
      <trkpt lat="44.02557" lon="6.9041">
        <ele>1343.4000244141</ele>
        <time>2020-09-12T11:54:49.000Z</time>
      </trkpt>
      <trkpt lat="44.02556" lon="6.90411">
        <ele>1343.4000244141</ele>
        <time>2020-09-12T11:54:50.000Z</time>
      </trkpt>
      <trkpt lat="44.02555" lon="6.90416">
        <ele>1343.1999511719</ele>
        <time>2020-09-12T11:54:53.000Z</time>
      </trkpt>
      <trkpt lat="44.02553" lon="6.90424">
        <ele>1343</ele>
        <time>2020-09-12T11:54:58.000Z</time>
      </trkpt>
      <trkpt lat="44.02553" lon="6.90425">
        <ele>1343.1999511719</ele>
        <time>2020-09-12T11:54:59.000Z</time>
      </trkpt>
      <trkpt lat="44.02548" lon="6.90433">
        <ele>1343</ele>
        <time>2020-09-12T11:55:04.000Z</time>
      </trkpt>
      <trkpt lat="44.02543" lon="6.90445">
        <ele>1342.8000488281</ele>
        <time>2020-09-12T11:55:09.000Z</time>
      </trkpt>
      <trkpt lat="44.02539" lon="6.90451">
        <ele>1342.8000488281</ele>
        <time>2020-09-12T11:55:14.000Z</time>
      </trkpt>
      <trkpt lat="44.02534" lon="6.90465">
        <ele>1342.8000488281</ele>
        <time>2020-09-12T11:55:19.000Z</time>
      </trkpt>
      <trkpt lat="44.02529" lon="6.90481">
        <ele>1342.4000244141</ele>
        <time>2020-09-12T11:55:25.000Z</time>
      </trkpt>
      <trkpt lat="44.02525" lon="6.90497">
        <ele>1342.5999755859</ele>
        <time>2020-09-12T11:55:31.000Z</time>
      </trkpt>
      <trkpt lat="44.02523" lon="6.90502">
        <ele>1342.4000244141</ele>
        <time>2020-09-12T11:55:33.000Z</time>
      </trkpt>
      <trkpt lat="44.0252" lon="6.9051">
        <ele>1341.8000488281</ele>
        <time>2020-09-12T11:55:36.000Z</time>
      </trkpt>
      <trkpt lat="44.02516" lon="6.90521">
        <ele>1341.5999755859</ele>
        <time>2020-09-12T11:55:41.000Z</time>
      </trkpt>
      <trkpt lat="44.02514" lon="6.90533">
        <ele>1341.8000488281</ele>
        <time>2020-09-12T11:55:46.000Z</time>
      </trkpt>
      <trkpt lat="44.02514" lon="6.90539">
        <ele>1341.5999755859</ele>
        <time>2020-09-12T11:55:50.000Z</time>
      </trkpt>
      <trkpt lat="44.02511" lon="6.90551">
        <ele>1341.4000244141</ele>
        <time>2020-09-12T11:55:54.000Z</time>
      </trkpt>
      <trkpt lat="44.02508" lon="6.90561">
        <ele>1341.5999755859</ele>
        <time>2020-09-12T11:55:59.000Z</time>
      </trkpt>
      <trkpt lat="44.02507" lon="6.90563">
        <ele>1341.5999755859</ele>
        <time>2020-09-12T11:56:01.000Z</time>
      </trkpt>
      <trkpt lat="44.02505" lon="6.90563">
        <ele>1341.5999755859</ele>
        <time>2020-09-12T11:56:03.000Z</time>
      </trkpt>
      <trkpt lat="44.025" lon="6.90566">
        <ele>1341.8000488281</ele>
        <time>2020-09-12T11:56:06.000Z</time>
      </trkpt>
      <trkpt lat="44.02499" lon="6.90567">
        <ele>1342</ele>
        <time>2020-09-12T11:56:07.000Z</time>
      </trkpt>
      <trkpt lat="44.02498" lon="6.90569">
        <ele>1341.8000488281</ele>
        <time>2020-09-12T11:56:08.000Z</time>
      </trkpt>
      <trkpt lat="44.02496" lon="6.90574">
        <ele>1341.8000488281</ele>
        <time>2020-09-12T11:56:13.000Z</time>
      </trkpt>
      <trkpt lat="44.02495" lon="6.90578">
        <ele>1341.5999755859</ele>
        <time>2020-09-12T11:56:18.000Z</time>
      </trkpt>
      <trkpt lat="44.02494" lon="6.90582">
        <ele>1341.5999755859</ele>
        <time>2020-09-12T11:56:21.000Z</time>
      </trkpt>
      <trkpt lat="44.02493" lon="6.90583">
        <ele>1341.5999755859</ele>
        <time>2020-09-12T11:56:23.000Z</time>
      </trkpt>
      <trkpt lat="44.0249" lon="6.90591">
        <ele>1341.5999755859</ele>
        <time>2020-09-12T11:56:27.000Z</time>
      </trkpt>
      <trkpt lat="44.02488" lon="6.90595">
        <ele>1341.8000488281</ele>
        <time>2020-09-12T11:56:29.000Z</time>
      </trkpt>
      <trkpt lat="44.02483" lon="6.9061">
        <ele>1341.8000488281</ele>
        <time>2020-09-12T11:56:35.000Z</time>
      </trkpt>
      <trkpt lat="44.02478" lon="6.90626">
        <ele>1342.4000244141</ele>
        <time>2020-09-12T11:56:41.000Z</time>
      </trkpt>
      <trkpt lat="44.02472" lon="6.90639">
        <ele>1342.4000244141</ele>
        <time>2020-09-12T11:56:46.000Z</time>
      </trkpt>
      <trkpt lat="44.02466" lon="6.90654">
        <ele>1341.8000488281</ele>
        <time>2020-09-12T11:56:52.000Z</time>
      </trkpt>
      <trkpt lat="44.02463" lon="6.90672">
        <ele>1342.1999511719</ele>
        <time>2020-09-12T11:56:57.000Z</time>
      </trkpt>
      <trkpt lat="44.02465" lon="6.90683">
        <ele>1342</ele>
        <time>2020-09-12T11:57:01.000Z</time>
      </trkpt>
      <trkpt lat="44.02466" lon="6.90686">
        <ele>1342</ele>
        <time>2020-09-12T11:57:02.000Z</time>
      </trkpt>
      <trkpt lat="44.02473" lon="6.9069">
        <ele>1342.1999511719</ele>
        <time>2020-09-12T11:57:06.000Z</time>
      </trkpt>
      <trkpt lat="44.02478" lon="6.90689">
        <ele>1342.5999755859</ele>
        <time>2020-09-12T11:57:08.000Z</time>
      </trkpt>
      <trkpt lat="44.02483" lon="6.90688">
        <ele>1342.8000488281</ele>
        <time>2020-09-12T11:57:11.000Z</time>
      </trkpt>
      <trkpt lat="44.02496" lon="6.90692">
        <ele>1342</ele>
        <time>2020-09-12T11:57:16.000Z</time>
      </trkpt>
      <trkpt lat="44.02503" lon="6.90696">
        <ele>1341.5999755859</ele>
        <time>2020-09-12T11:57:21.000Z</time>
      </trkpt>
      <trkpt lat="44.0251" lon="6.907">
        <ele>1341.1999511719</ele>
        <time>2020-09-12T11:57:25.000Z</time>
      </trkpt>
      <trkpt lat="44.02512" lon="6.90702">
        <ele>1341.4000244141</ele>
        <time>2020-09-12T11:57:29.000Z</time>
      </trkpt>
      <trkpt lat="44.02513" lon="6.90703">
        <ele>1341.5999755859</ele>
        <time>2020-09-12T11:57:30.000Z</time>
      </trkpt>
      <trkpt lat="44.02519" lon="6.90708">
        <ele>1341.8000488281</ele>
        <time>2020-09-12T11:57:35.000Z</time>
      </trkpt>
      <trkpt lat="44.02522" lon="6.9071">
        <ele>1342</ele>
        <time>2020-09-12T11:57:38.000Z</time>
      </trkpt>
      <trkpt lat="44.02523" lon="6.90709">
        <ele>1342.4000244141</ele>
        <time>2020-09-12T11:57:40.000Z</time>
      </trkpt>
      <trkpt lat="44.02523" lon="6.9071">
        <ele>1342.5999755859</ele>
        <time>2020-09-12T11:57:41.000Z</time>
      </trkpt>
      <trkpt lat="44.02524" lon="6.90709">
        <ele>1342.8000488281</ele>
        <time>2020-09-12T11:57:49.000Z</time>
      </trkpt>
      <trkpt lat="44.02527" lon="6.90713">
        <ele>1342</ele>
        <time>2020-09-12T11:57:55.000Z</time>
      </trkpt>
      <trkpt lat="44.02529" lon="6.90714">
        <ele>1342.4000244141</ele>
        <time>2020-09-12T11:58:00.000Z</time>
      </trkpt>
      <trkpt lat="44.02527" lon="6.90717">
        <ele>1343.5999755859</ele>
        <time>2020-09-12T11:58:05.000Z</time>
      </trkpt>
      <trkpt lat="44.02524" lon="6.9072">
        <ele>1344.4000244141</ele>
        <time>2020-09-12T11:58:11.000Z</time>
      </trkpt>
      <trkpt lat="44.02524" lon="6.9072">
        <ele>1344.5999755859</ele>
        <time>2020-09-12T11:58:12.000Z</time>
      </trkpt>
      <trkpt lat="44.02523" lon="6.90722">
        <ele>1344.8000488281</ele>
        <time>2020-09-12T11:58:14.000Z</time>
      </trkpt>
      <trkpt lat="44.02521" lon="6.90722">
        <ele>1345.4000244141</ele>
        <time>2020-09-12T11:58:16.000Z</time>
      </trkpt>
      <trkpt lat="44.0252" lon="6.90724">
        <ele>1345.8000488281</ele>
        <time>2020-09-12T11:58:18.000Z</time>
      </trkpt>
      <trkpt lat="44.02519" lon="6.90725">
        <ele>1346</ele>
        <time>2020-09-12T11:58:20.000Z</time>
      </trkpt>
      <trkpt lat="44.02519" lon="6.90726">
        <ele>1346.1999511719</ele>
        <time>2020-09-12T11:58:21.000Z</time>
      </trkpt>
      <trkpt lat="44.02517" lon="6.90729">
        <ele>1346.8000488281</ele>
        <time>2020-09-12T11:58:24.000Z</time>
      </trkpt>
      <trkpt lat="44.02515" lon="6.90733">
        <ele>1347</ele>
        <time>2020-09-12T11:58:27.000Z</time>
      </trkpt>
      <trkpt lat="44.02511" lon="6.90738">
        <ele>1347.5999755859</ele>
        <time>2020-09-12T11:58:35.000Z</time>
      </trkpt>
      <trkpt lat="44.02507" lon="6.90744">
        <ele>1347.5999755859</ele>
        <time>2020-09-12T11:58:40.000Z</time>
      </trkpt>
      <trkpt lat="44.02504" lon="6.90748">
        <ele>1347.8000488281</ele>
        <time>2020-09-12T11:58:42.000Z</time>
      </trkpt>
      <trkpt lat="44.02498" lon="6.90756">
        <ele>1348.1999511719</ele>
        <time>2020-09-12T11:58:47.000Z</time>
      </trkpt>
      <trkpt lat="44.02494" lon="6.90767">
        <ele>1348.8000488281</ele>
        <time>2020-09-12T11:58:53.000Z</time>
      </trkpt>
      <trkpt lat="44.02488" lon="6.90775">
        <ele>1349.5999755859</ele>
        <time>2020-09-12T11:58:59.000Z</time>
      </trkpt>
      <trkpt lat="44.02487" lon="6.90776">
        <ele>1349.8000488281</ele>
        <time>2020-09-12T11:59:00.000Z</time>
      </trkpt>
      <trkpt lat="44.02486" lon="6.90778">
        <ele>1350.1999511719</ele>
        <time>2020-09-12T11:59:02.000Z</time>
      </trkpt>
      <trkpt lat="44.02483" lon="6.90782">
        <ele>1350.5999755859</ele>
        <time>2020-09-12T11:59:05.000Z</time>
      </trkpt>
      <trkpt lat="44.02479" lon="6.90787">
        <ele>1351</ele>
        <time>2020-09-12T11:59:09.000Z</time>
      </trkpt>
      <trkpt lat="44.02476" lon="6.90789">
        <ele>1351.1999511719</ele>
        <time>2020-09-12T11:59:11.000Z</time>
      </trkpt>
      <trkpt lat="44.02473" lon="6.90792">
        <ele>1351.5999755859</ele>
        <time>2020-09-12T11:59:14.000Z</time>
      </trkpt>
      <trkpt lat="44.02471" lon="6.90794">
        <ele>1352</ele>
        <time>2020-09-12T11:59:17.000Z</time>
      </trkpt>
      <trkpt lat="44.0247" lon="6.90795">
        <ele>1352</ele>
        <time>2020-09-12T11:59:19.000Z</time>
      </trkpt>
      <trkpt lat="44.02468" lon="6.90797">
        <ele>1352.4000244141</ele>
        <time>2020-09-12T11:59:23.000Z</time>
      </trkpt>
      <trkpt lat="44.02462" lon="6.90804">
        <ele>1353</ele>
        <time>2020-09-12T11:59:28.000Z</time>
      </trkpt>
      <trkpt lat="44.02461" lon="6.90805">
        <ele>1353.1999511719</ele>
        <time>2020-09-12T11:59:29.000Z</time>
      </trkpt>
      <trkpt lat="44.0246" lon="6.90806">
        <ele>1353.1999511719</ele>
        <time>2020-09-12T11:59:30.000Z</time>
      </trkpt>
      <trkpt lat="44.02455" lon="6.90814">
        <ele>1354</ele>
        <time>2020-09-12T11:59:35.000Z</time>
      </trkpt>
      <trkpt lat="44.02453" lon="6.90817">
        <ele>1354.1999511719</ele>
        <time>2020-09-12T11:59:37.000Z</time>
      </trkpt>
      <trkpt lat="44.02449" lon="6.90826">
        <ele>1354.8000488281</ele>
        <time>2020-09-12T11:59:42.000Z</time>
      </trkpt>
      <trkpt lat="44.02447" lon="6.90832">
        <ele>1355.1999511719</ele>
        <time>2020-09-12T11:59:45.000Z</time>
      </trkpt>
      <trkpt lat="44.02446" lon="6.90833">
        <ele>1355.1999511719</ele>
        <time>2020-09-12T11:59:46.000Z</time>
      </trkpt>
      <trkpt lat="44.02445" lon="6.90834">
        <ele>1355.4000244141</ele>
        <time>2020-09-12T11:59:47.000Z</time>
      </trkpt>
      <trkpt lat="44.0244" lon="6.90836">
        <ele>1356.1999511719</ele>
        <time>2020-09-12T11:59:51.000Z</time>
      </trkpt>
      <trkpt lat="44.02439" lon="6.90837">
        <ele>1356.1999511719</ele>
        <time>2020-09-12T11:59:52.000Z</time>
      </trkpt>
      <trkpt lat="44.02438" lon="6.90838">
        <ele>1356.4000244141</ele>
        <time>2020-09-12T11:59:53.000Z</time>
      </trkpt>
      <trkpt lat="44.02434" lon="6.90846">
        <ele>1357.1999511719</ele>
        <time>2020-09-12T11:59:58.000Z</time>
      </trkpt>
      <trkpt lat="44.02433" lon="6.9085">
        <ele>1357.8000488281</ele>
        <time>2020-09-12T12:00:00.000Z</time>
      </trkpt>
      <trkpt lat="44.02432" lon="6.90853">
        <ele>1358.1999511719</ele>
        <time>2020-09-12T12:00:02.000Z</time>
      </trkpt>
      <trkpt lat="44.0243" lon="6.90856">
        <ele>1358.4000244141</ele>
        <time>2020-09-12T12:00:05.000Z</time>
      </trkpt>
      <trkpt lat="44.02428" lon="6.90858">
        <ele>1358.5999755859</ele>
        <time>2020-09-12T12:00:07.000Z</time>
      </trkpt>
      <trkpt lat="44.02425" lon="6.90858">
        <ele>1359.1999511719</ele>
        <time>2020-09-12T12:00:12.000Z</time>
      </trkpt>
      <trkpt lat="44.02424" lon="6.90858">
        <ele>1359.4000244141</ele>
        <time>2020-09-12T12:00:13.000Z</time>
      </trkpt>
      <trkpt lat="44.02421" lon="6.90858">
        <ele>1359.5999755859</ele>
        <time>2020-09-12T12:00:15.000Z</time>
      </trkpt>
      <trkpt lat="44.02419" lon="6.90859">
        <ele>1359.8000488281</ele>
        <time>2020-09-12T12:00:17.000Z</time>
      </trkpt>
      <trkpt lat="44.02418" lon="6.90859">
        <ele>1359.8000488281</ele>
        <time>2020-09-12T12:00:18.000Z</time>
      </trkpt>
      <trkpt lat="44.02413" lon="6.90864">
        <ele>1360.4000244141</ele>
        <time>2020-09-12T12:00:23.000Z</time>
      </trkpt>
      <trkpt lat="44.02411" lon="6.90866">
        <ele>1360.5999755859</ele>
        <time>2020-09-12T12:00:25.000Z</time>
      </trkpt>
      <trkpt lat="44.02406" lon="6.90873">
        <ele>1361.4000244141</ele>
        <time>2020-09-12T12:00:31.000Z</time>
      </trkpt>
      <trkpt lat="44.02405" lon="6.90875">
        <ele>1361.5999755859</ele>
        <time>2020-09-12T12:00:32.000Z</time>
      </trkpt>
      <trkpt lat="44.02401" lon="6.90881">
        <ele>1362</ele>
        <time>2020-09-12T12:00:37.000Z</time>
      </trkpt>
      <trkpt lat="44.02399" lon="6.90883">
        <ele>1362.5999755859</ele>
        <time>2020-09-12T12:00:39.000Z</time>
      </trkpt>
      <trkpt lat="44.02396" lon="6.90885">
        <ele>1363.1999511719</ele>
        <time>2020-09-12T12:00:43.000Z</time>
      </trkpt>
      <trkpt lat="44.02392" lon="6.90888">
        <ele>1363.4000244141</ele>
        <time>2020-09-12T12:00:50.000Z</time>
      </trkpt>
      <trkpt lat="44.02391" lon="6.90888">
        <ele>1363.8000488281</ele>
        <time>2020-09-12T12:00:52.000Z</time>
      </trkpt>
      <trkpt lat="44.02391" lon="6.90889">
        <ele>1363.8000488281</ele>
        <time>2020-09-12T12:00:55.000Z</time>
      </trkpt>
      <trkpt lat="44.02387" lon="6.90891">
        <ele>1364.1999511719</ele>
        <time>2020-09-12T12:01:01.000Z</time>
      </trkpt>
      <trkpt lat="44.02383" lon="6.90895">
        <ele>1364.1999511719</ele>
        <time>2020-09-12T12:01:09.000Z</time>
      </trkpt>
      <trkpt lat="44.02379" lon="6.90898">
        <ele>1364.5999755859</ele>
        <time>2020-09-12T12:01:15.000Z</time>
      </trkpt>
      <trkpt lat="44.02379" lon="6.90898">
        <ele>1364.8000488281</ele>
        <time>2020-09-12T12:01:16.000Z</time>
      </trkpt>
      <trkpt lat="44.02377" lon="6.90898">
        <ele>1365</ele>
        <time>2020-09-12T12:01:18.000Z</time>
      </trkpt>
      <trkpt lat="44.02376" lon="6.90898">
        <ele>1365.4000244141</ele>
        <time>2020-09-12T12:01:20.000Z</time>
      </trkpt>
      <trkpt lat="44.02372" lon="6.90897">
        <ele>1366</ele>
        <time>2020-09-12T12:01:24.000Z</time>
      </trkpt>
      <trkpt lat="44.02369" lon="6.90896">
        <ele>1366.1999511719</ele>
        <time>2020-09-12T12:01:27.000Z</time>
      </trkpt>
      <trkpt lat="44.02359" lon="6.90894">
        <ele>1366.1999511719</ele>
        <time>2020-09-12T12:01:35.000Z</time>
      </trkpt>
      <trkpt lat="44.0235" lon="6.90894">
        <ele>1367</ele>
        <time>2020-09-12T12:01:43.000Z</time>
      </trkpt>
      <trkpt lat="44.02349" lon="6.90895">
        <ele>1367</ele>
        <time>2020-09-12T12:01:44.000Z</time>
      </trkpt>
      <trkpt lat="44.02347" lon="6.90895">
        <ele>1367.1999511719</ele>
        <time>2020-09-12T12:01:47.000Z</time>
      </trkpt>
      <trkpt lat="44.02345" lon="6.90895">
        <ele>1367.4000244141</ele>
        <time>2020-09-12T12:01:49.000Z</time>
      </trkpt>
      <trkpt lat="44.02343" lon="6.90894">
        <ele>1368.1999511719</ele>
        <time>2020-09-12T12:01:53.000Z</time>
      </trkpt>
      <trkpt lat="44.0234" lon="6.90896">
        <ele>1368.5999755859</ele>
        <time>2020-09-12T12:01:56.000Z</time>
      </trkpt>
      <trkpt lat="44.02337" lon="6.90898">
        <ele>1369.1999511719</ele>
        <time>2020-09-12T12:02:01.000Z</time>
      </trkpt>
      <trkpt lat="44.02337" lon="6.90899">
        <ele>1369.4000244141</ele>
        <time>2020-09-12T12:02:03.000Z</time>
      </trkpt>
      <trkpt lat="44.02335" lon="6.909">
        <ele>1369.5999755859</ele>
        <time>2020-09-12T12:02:11.000Z</time>
      </trkpt>
      <trkpt lat="44.02334" lon="6.90902">
        <ele>1369.4000244141</ele>
        <time>2020-09-12T12:02:13.000Z</time>
      </trkpt>
      <trkpt lat="44.02329" lon="6.90907">
        <ele>1369.5999755859</ele>
        <time>2020-09-12T12:02:18.000Z</time>
      </trkpt>
      <trkpt lat="44.02324" lon="6.90912">
        <ele>1370</ele>
        <time>2020-09-12T12:02:25.000Z</time>
      </trkpt>
      <trkpt lat="44.02323" lon="6.90913">
        <ele>1370.4000244141</ele>
        <time>2020-09-12T12:02:27.000Z</time>
      </trkpt>
      <trkpt lat="44.02319" lon="6.90917">
        <ele>1371.1999511719</ele>
        <time>2020-09-12T12:02:33.000Z</time>
      </trkpt>
      <trkpt lat="44.02318" lon="6.90918">
        <ele>1371.5999755859</ele>
        <time>2020-09-12T12:02:35.000Z</time>
      </trkpt>
      <trkpt lat="44.02314" lon="6.90923">
        <ele>1372.8000488281</ele>
        <time>2020-09-12T12:02:40.000Z</time>
      </trkpt>
      <trkpt lat="44.02313" lon="6.90924">
        <ele>1372.8000488281</ele>
        <time>2020-09-12T12:02:41.000Z</time>
      </trkpt>
      <trkpt lat="44.02308" lon="6.90931">
        <ele>1373.5999755859</ele>
        <time>2020-09-12T12:02:49.000Z</time>
      </trkpt>
      <trkpt lat="44.02307" lon="6.90931">
        <ele>1373.8000488281</ele>
        <time>2020-09-12T12:02:50.000Z</time>
      </trkpt>
      <trkpt lat="44.02303" lon="6.9093">
        <ele>1374</ele>
        <time>2020-09-12T12:02:56.000Z</time>
      </trkpt>
      <trkpt lat="44.023" lon="6.90928">
        <ele>1375</ele>
        <time>2020-09-12T12:03:00.000Z</time>
      </trkpt>
      <trkpt lat="44.02298" lon="6.90927">
        <ele>1375.4000244141</ele>
        <time>2020-09-12T12:03:02.000Z</time>
      </trkpt>
      <trkpt lat="44.02296" lon="6.90925">
        <ele>1375.5999755859</ele>
        <time>2020-09-12T12:03:04.000Z</time>
      </trkpt>
      <trkpt lat="44.02293" lon="6.90923">
        <ele>1376</ele>
        <time>2020-09-12T12:03:08.000Z</time>
      </trkpt>
      <trkpt lat="44.02293" lon="6.90922">
        <ele>1376.1999511719</ele>
        <time>2020-09-12T12:03:09.000Z</time>
      </trkpt>
      <trkpt lat="44.02291" lon="6.90917">
        <ele>1377</ele>
        <time>2020-09-12T12:03:16.000Z</time>
      </trkpt>
      <trkpt lat="44.02291" lon="6.90917">
        <ele>1377.1999511719</ele>
        <time>2020-09-12T12:03:17.000Z</time>
      </trkpt>
      <trkpt lat="44.02291" lon="6.90913">
        <ele>1378.4000244141</ele>
        <time>2020-09-12T12:03:22.000Z</time>
      </trkpt>
      <trkpt lat="44.02291" lon="6.90911">
        <ele>1378.5999755859</ele>
        <time>2020-09-12T12:03:23.000Z</time>
      </trkpt>
      <trkpt lat="44.02289" lon="6.90908">
        <ele>1379.4000244141</ele>
        <time>2020-09-12T12:03:26.000Z</time>
      </trkpt>
      <trkpt lat="44.02287" lon="6.90905">
        <ele>1380.1999511719</ele>
        <time>2020-09-12T12:03:30.000Z</time>
      </trkpt>
      <trkpt lat="44.02285" lon="6.90902">
        <ele>1380.5999755859</ele>
        <time>2020-09-12T12:03:35.000Z</time>
      </trkpt>
      <trkpt lat="44.02283" lon="6.90899">
        <ele>1380.5999755859</ele>
        <time>2020-09-12T12:03:37.000Z</time>
      </trkpt>
      <trkpt lat="44.02283" lon="6.90898">
        <ele>1380.5999755859</ele>
        <time>2020-09-12T12:03:38.000Z</time>
      </trkpt>
      <trkpt lat="44.02279" lon="6.90892">
        <ele>1380.1999511719</ele>
        <time>2020-09-12T12:03:45.000Z</time>
      </trkpt>
      <trkpt lat="44.02279" lon="6.90887">
        <ele>1380.8000488281</ele>
        <time>2020-09-12T12:03:51.000Z</time>
      </trkpt>
      <trkpt lat="44.0228" lon="6.90884">
        <ele>1381.5999755859</ele>
        <time>2020-09-12T12:03:56.000Z</time>
      </trkpt>
      <trkpt lat="44.0228" lon="6.90882">
        <ele>1381.8000488281</ele>
        <time>2020-09-12T12:03:57.000Z</time>
      </trkpt>
      <trkpt lat="44.02278" lon="6.90876">
        <ele>1382.5999755859</ele>
        <time>2020-09-12T12:04:02.000Z</time>
      </trkpt>
      <trkpt lat="44.02277" lon="6.90873">
        <ele>1382.8000488281</ele>
        <time>2020-09-12T12:04:05.000Z</time>
      </trkpt>
      <trkpt lat="44.02275" lon="6.9087">
        <ele>1383.1999511719</ele>
        <time>2020-09-12T12:04:08.000Z</time>
      </trkpt>
      <trkpt lat="44.02275" lon="6.90867">
        <ele>1383.5999755859</ele>
        <time>2020-09-12T12:04:10.000Z</time>
      </trkpt>
      <trkpt lat="44.02276" lon="6.90867">
        <ele>1383.8000488281</ele>
        <time>2020-09-12T12:04:11.000Z</time>
      </trkpt>
      <trkpt lat="44.02278" lon="6.90864">
        <ele>1384.4000244141</ele>
        <time>2020-09-12T12:04:16.000Z</time>
      </trkpt>
      <trkpt lat="44.02279" lon="6.90862">
        <ele>1384.8000488281</ele>
        <time>2020-09-12T12:04:18.000Z</time>
      </trkpt>
      <trkpt lat="44.02279" lon="6.90858">
        <ele>1385.4000244141</ele>
        <time>2020-09-12T12:04:22.000Z</time>
      </trkpt>
      <trkpt lat="44.02281" lon="6.90853">
        <ele>1385.5999755859</ele>
        <time>2020-09-12T12:04:28.000Z</time>
      </trkpt>
      <trkpt lat="44.02282" lon="6.90852">
        <ele>1385.8000488281</ele>
        <time>2020-09-12T12:04:29.000Z</time>
      </trkpt>
      <trkpt lat="44.02285" lon="6.90846">
        <ele>1386.1999511719</ele>
        <time>2020-09-12T12:04:35.000Z</time>
      </trkpt>
      <trkpt lat="44.02287" lon="6.90842">
        <ele>1387</ele>
        <time>2020-09-12T12:04:40.000Z</time>
      </trkpt>
      <trkpt lat="44.02287" lon="6.90841">
        <ele>1387</ele>
        <time>2020-09-12T12:04:41.000Z</time>
      </trkpt>
      <trkpt lat="44.02288" lon="6.90836">
        <ele>1388</ele>
        <time>2020-09-12T12:04:47.000Z</time>
      </trkpt>
      <trkpt lat="44.02288" lon="6.90834">
        <ele>1388.1999511719</ele>
        <time>2020-09-12T12:04:48.000Z</time>
      </trkpt>
      <trkpt lat="44.02288" lon="6.90832">
        <ele>1388.1999511719</ele>
        <time>2020-09-12T12:04:52.000Z</time>
      </trkpt>
      <trkpt lat="44.02288" lon="6.90831">
        <ele>1388.4000244141</ele>
        <time>2020-09-12T12:04:54.000Z</time>
      </trkpt>
      <trkpt lat="44.02286" lon="6.90826">
        <ele>1389</ele>
        <time>2020-09-12T12:05:00.000Z</time>
      </trkpt>
      <trkpt lat="44.02285" lon="6.90825">
        <ele>1389.4000244141</ele>
        <time>2020-09-12T12:05:02.000Z</time>
      </trkpt>
      <trkpt lat="44.02281" lon="6.90821">
        <ele>1389.8000488281</ele>
        <time>2020-09-12T12:05:07.000Z</time>
      </trkpt>
      <trkpt lat="44.02276" lon="6.90815">
        <ele>1390.1999511719</ele>
        <time>2020-09-12T12:05:12.000Z</time>
      </trkpt>
      <trkpt lat="44.02275" lon="6.90812">
        <ele>1390.5999755859</ele>
        <time>2020-09-12T12:05:14.000Z</time>
      </trkpt>
      <trkpt lat="44.02275" lon="6.90805">
        <ele>1391.1999511719</ele>
        <time>2020-09-12T12:05:19.000Z</time>
      </trkpt>
      <trkpt lat="44.02275" lon="6.90803">
        <ele>1391.1999511719</ele>
        <time>2020-09-12T12:05:20.000Z</time>
      </trkpt>
      <trkpt lat="44.02271" lon="6.90796">
        <ele>1392</ele>
        <time>2020-09-12T12:05:26.000Z</time>
      </trkpt>
      <trkpt lat="44.02269" lon="6.9079">
        <ele>1392.1999511719</ele>
        <time>2020-09-12T12:05:30.000Z</time>
      </trkpt>
      <trkpt lat="44.02267" lon="6.90787">
        <ele>1392.4000244141</ele>
        <time>2020-09-12T12:05:32.000Z</time>
      </trkpt>
      <trkpt lat="44.02258" lon="6.90778">
        <ele>1393.4000244141</ele>
        <time>2020-09-12T12:05:40.000Z</time>
      </trkpt>
      <trkpt lat="44.02249" lon="6.90772">
        <ele>1394.4000244141</ele>
        <time>2020-09-12T12:05:47.000Z</time>
      </trkpt>
      <trkpt lat="44.02248" lon="6.90771">
        <ele>1394.4000244141</ele>
        <time>2020-09-12T12:05:48.000Z</time>
      </trkpt>
      <trkpt lat="44.02242" lon="6.90767">
        <ele>1394.8000488281</ele>
        <time>2020-09-12T12:05:53.000Z</time>
      </trkpt>
      <trkpt lat="44.0224" lon="6.90765">
        <ele>1395.4000244141</ele>
        <time>2020-09-12T12:05:58.000Z</time>
      </trkpt>
      <trkpt lat="44.02239" lon="6.90765">
        <ele>1395.4000244141</ele>
        <time>2020-09-12T12:05:59.000Z</time>
      </trkpt>
      <trkpt lat="44.02234" lon="6.90762">
        <ele>1395.4000244141</ele>
        <time>2020-09-12T12:06:03.000Z</time>
      </trkpt>
      <trkpt lat="44.02225" lon="6.90761">
        <ele>1395.4000244141</ele>
        <time>2020-09-12T12:06:09.000Z</time>
      </trkpt>
      <trkpt lat="44.02216" lon="6.90761">
        <ele>1395.5999755859</ele>
        <time>2020-09-12T12:06:14.000Z</time>
      </trkpt>
      <trkpt lat="44.02206" lon="6.90763">
        <ele>1395.4000244141</ele>
        <time>2020-09-12T12:06:19.000Z</time>
      </trkpt>
      <trkpt lat="44.02193" lon="6.90762">
        <ele>1395.1999511719</ele>
        <time>2020-09-12T12:06:25.000Z</time>
      </trkpt>
      <trkpt lat="44.02192" lon="6.9076">
        <ele>1395.1999511719</ele>
        <time>2020-09-12T12:06:26.000Z</time>
      </trkpt>
      <trkpt lat="44.02192" lon="6.90755">
        <ele>1395</ele>
        <time>2020-09-12T12:06:28.000Z</time>
      </trkpt>
      <trkpt lat="44.02193" lon="6.90749">
        <ele>1394.4000244141</ele>
        <time>2020-09-12T12:06:30.000Z</time>
      </trkpt>
      <trkpt lat="44.02193" lon="6.90745">
        <ele>1394</ele>
        <time>2020-09-12T12:06:31.000Z</time>
      </trkpt>
      <trkpt lat="44.02194" lon="6.90737">
        <ele>1393.5999755859</ele>
        <time>2020-09-12T12:06:33.000Z</time>
      </trkpt>
      <trkpt lat="44.02194" lon="6.90734">
        <ele>1393.4000244141</ele>
        <time>2020-09-12T12:06:34.000Z</time>
      </trkpt>
      <trkpt lat="44.02189" lon="6.90721">
        <ele>1392.1999511719</ele>
        <time>2020-09-12T12:06:38.000Z</time>
      </trkpt>
      <trkpt lat="44.02178" lon="6.90706">
        <ele>1391</ele>
        <time>2020-09-12T12:06:43.000Z</time>
      </trkpt>
      <trkpt lat="44.02171" lon="6.90695">
        <ele>1389.4000244141</ele>
        <time>2020-09-12T12:06:46.000Z</time>
      </trkpt>
      <trkpt lat="44.02166" lon="6.90689">
        <ele>1388.1999511719</ele>
        <time>2020-09-12T12:06:48.000Z</time>
      </trkpt>
      <trkpt lat="44.0216" lon="6.90684">
        <ele>1387</ele>
        <time>2020-09-12T12:06:50.000Z</time>
      </trkpt>
      <trkpt lat="44.02156" lon="6.9068">
        <ele>1385.8000488281</ele>
        <time>2020-09-12T12:06:52.000Z</time>
      </trkpt>
      <trkpt lat="44.02153" lon="6.90678">
        <ele>1385.4000244141</ele>
        <time>2020-09-12T12:06:53.000Z</time>
      </trkpt>
      <trkpt lat="44.02148" lon="6.90675">
        <ele>1384.4000244141</ele>
        <time>2020-09-12T12:06:55.000Z</time>
      </trkpt>
      <trkpt lat="44.02147" lon="6.90673">
        <ele>1383.8000488281</ele>
        <time>2020-09-12T12:06:56.000Z</time>
      </trkpt>
      <trkpt lat="44.02147" lon="6.9067">
        <ele>1383.1999511719</ele>
        <time>2020-09-12T12:06:57.000Z</time>
      </trkpt>
      <trkpt lat="44.02144" lon="6.90662">
        <ele>1382.1999511719</ele>
        <time>2020-09-12T12:07:00.000Z</time>
      </trkpt>
      <trkpt lat="44.02143" lon="6.9066">
        <ele>1382</ele>
        <time>2020-09-12T12:07:01.000Z</time>
      </trkpt>
      <trkpt lat="44.02141" lon="6.90658">
        <ele>1381.5999755859</ele>
        <time>2020-09-12T12:07:02.000Z</time>
      </trkpt>
      <trkpt lat="44.02135" lon="6.90656">
        <ele>1381</ele>
        <time>2020-09-12T12:07:04.000Z</time>
      </trkpt>
      <trkpt lat="44.02128" lon="6.90653">
        <ele>1380.4000244141</ele>
        <time>2020-09-12T12:07:06.000Z</time>
      </trkpt>
      <trkpt lat="44.02121" lon="6.90649">
        <ele>1380</ele>
        <time>2020-09-12T12:07:08.000Z</time>
      </trkpt>
      <trkpt lat="44.02115" lon="6.90648">
        <ele>1379</ele>
        <time>2020-09-12T12:07:10.000Z</time>
      </trkpt>
      <trkpt lat="44.02112" lon="6.90651">
        <ele>1378.5999755859</ele>
        <time>2020-09-12T12:07:11.000Z</time>
      </trkpt>
      <trkpt lat="44.02105" lon="6.90655">
        <ele>1377.4000244141</ele>
        <time>2020-09-12T12:07:13.000Z</time>
      </trkpt>
      <trkpt lat="44.02102" lon="6.90656">
        <ele>1376</ele>
        <time>2020-09-12T12:07:16.000Z</time>
      </trkpt>
      <trkpt lat="44.02102" lon="6.90656">
        <ele>1374.8000488281</ele>
        <time>2020-09-12T12:07:18.000Z</time>
      </trkpt>
      <trkpt lat="44.021" lon="6.90655">
        <ele>1374</ele>
        <time>2020-09-12T12:07:21.000Z</time>
      </trkpt>
      <trkpt lat="44.02098" lon="6.90653">
        <ele>1373.8000488281</ele>
        <time>2020-09-12T12:07:23.000Z</time>
      </trkpt>
      <trkpt lat="44.02096" lon="6.90651">
        <ele>1372.8000488281</ele>
        <time>2020-09-12T12:07:27.000Z</time>
      </trkpt>
      <trkpt lat="44.0209" lon="6.90645">
        <ele>1373.1999511719</ele>
        <time>2020-09-12T12:07:30.000Z</time>
      </trkpt>
      <trkpt lat="44.02086" lon="6.90643">
        <ele>1372.8000488281</ele>
        <time>2020-09-12T12:07:32.000Z</time>
      </trkpt>
      <trkpt lat="44.02078" lon="6.9064">
        <ele>1371.8000488281</ele>
        <time>2020-09-12T12:07:35.000Z</time>
      </trkpt>
      <trkpt lat="44.02076" lon="6.90639">
        <ele>1371.4000244141</ele>
        <time>2020-09-12T12:07:36.000Z</time>
      </trkpt>
      <trkpt lat="44.02075" lon="6.9063">
        <ele>1370.8000488281</ele>
        <time>2020-09-12T12:07:38.000Z</time>
      </trkpt>
      <trkpt lat="44.02076" lon="6.90626">
        <ele>1370.1999511719</ele>
        <time>2020-09-12T12:07:39.000Z</time>
      </trkpt>
      <trkpt lat="44.02074" lon="6.90618">
        <ele>1368.8000488281</ele>
        <time>2020-09-12T12:07:42.000Z</time>
      </trkpt>
      <trkpt lat="44.02069" lon="6.90617">
        <ele>1367.8000488281</ele>
        <time>2020-09-12T12:07:44.000Z</time>
      </trkpt>
      <trkpt lat="44.02062" lon="6.90613">
        <ele>1366.8000488281</ele>
        <time>2020-09-12T12:07:46.000Z</time>
      </trkpt>
      <trkpt lat="44.02059" lon="6.90603">
        <ele>1365.5999755859</ele>
        <time>2020-09-12T12:07:48.000Z</time>
      </trkpt>
      <trkpt lat="44.02059" lon="6.90598">
        <ele>1365.1999511719</ele>
        <time>2020-09-12T12:07:49.000Z</time>
      </trkpt>
      <trkpt lat="44.0206" lon="6.90593">
        <ele>1364.4000244141</ele>
        <time>2020-09-12T12:07:50.000Z</time>
      </trkpt>
      <trkpt lat="44.0206" lon="6.90589">
        <ele>1363.4000244141</ele>
        <time>2020-09-12T12:07:51.000Z</time>
      </trkpt>
      <trkpt lat="44.02061" lon="6.90587">
        <ele>1362.5999755859</ele>
        <time>2020-09-12T12:07:52.000Z</time>
      </trkpt>
      <trkpt lat="44.0206" lon="6.90588">
        <ele>1361.8000488281</ele>
        <time>2020-09-12T12:07:53.000Z</time>
      </trkpt>
      <trkpt lat="44.0206" lon="6.90587">
        <ele>1361</ele>
        <time>2020-09-12T12:07:54.000Z</time>
      </trkpt>
      <trkpt lat="44.0206" lon="6.90587">
        <ele>1359.5999755859</ele>
        <time>2020-09-12T12:07:56.000Z</time>
      </trkpt>
      <trkpt lat="44.0206" lon="6.90588">
        <ele>1358.5999755859</ele>
        <time>2020-09-12T12:08:01.000Z</time>
      </trkpt>
      <trkpt lat="44.0206" lon="6.90586">
        <ele>1358.5999755859</ele>
        <time>2020-09-12T12:08:04.000Z</time>
      </trkpt>
      <trkpt lat="44.02059" lon="6.90581">
        <ele>1358.5999755859</ele>
        <time>2020-09-12T12:08:05.000Z</time>
      </trkpt>
      <trkpt lat="44.02053" lon="6.90565">
        <ele>1358.1999511719</ele>
        <time>2020-09-12T12:08:09.000Z</time>
      </trkpt>
      <trkpt lat="44.02048" lon="6.90558">
        <ele>1357.4000244141</ele>
        <time>2020-09-12T12:08:11.000Z</time>
      </trkpt>
      <trkpt lat="44.02046" lon="6.90556">
        <ele>1356.4000244141</ele>
        <time>2020-09-12T12:08:13.000Z</time>
      </trkpt>
      <trkpt lat="44.02045" lon="6.90554">
        <ele>1355.1999511719</ele>
        <time>2020-09-12T12:08:15.000Z</time>
      </trkpt>
      <trkpt lat="44.02042" lon="6.9055">
        <ele>1354</ele>
        <time>2020-09-12T12:08:17.000Z</time>
      </trkpt>
      <trkpt lat="44.0204" lon="6.90549">
        <ele>1353.5999755859</ele>
        <time>2020-09-12T12:08:18.000Z</time>
      </trkpt>
      <trkpt lat="44.02039" lon="6.90549">
        <ele>1352.5999755859</ele>
        <time>2020-09-12T12:08:20.000Z</time>
      </trkpt>
      <trkpt lat="44.02038" lon="6.90549">
        <ele>1352</ele>
        <time>2020-09-12T12:08:21.000Z</time>
      </trkpt>
      <trkpt lat="44.02037" lon="6.90549">
        <ele>1351.5999755859</ele>
        <time>2020-09-12T12:08:22.000Z</time>
      </trkpt>
      <trkpt lat="44.02037" lon="6.90548">
        <ele>1351</ele>
        <time>2020-09-12T12:08:23.000Z</time>
      </trkpt>
      <trkpt lat="44.02037" lon="6.90545">
        <ele>1350.4000244141</ele>
        <time>2020-09-12T12:08:25.000Z</time>
      </trkpt>
      <trkpt lat="44.02039" lon="6.90541">
        <ele>1350</ele>
        <time>2020-09-12T12:08:27.000Z</time>
      </trkpt>
      <trkpt lat="44.02041" lon="6.9054">
        <ele>1349.1999511719</ele>
        <time>2020-09-12T12:08:29.000Z</time>
      </trkpt>
      <trkpt lat="44.02041" lon="6.9054">
        <ele>1347.8000488281</ele>
        <time>2020-09-12T12:08:32.000Z</time>
      </trkpt>
      <trkpt lat="44.02042" lon="6.9054">
        <ele>1347.5999755859</ele>
        <time>2020-09-12T12:08:38.000Z</time>
      </trkpt>
      <trkpt lat="44.02041" lon="6.90539">
        <ele>1347.4000244141</ele>
        <time>2020-09-12T12:08:40.000Z</time>
      </trkpt>
      <trkpt lat="44.02039" lon="6.9054">
        <ele>1347.1999511719</ele>
        <time>2020-09-12T12:08:42.000Z</time>
      </trkpt>
      <trkpt lat="44.0204" lon="6.9054">
        <ele>1346.8000488281</ele>
        <time>2020-09-12T12:08:43.000Z</time>
      </trkpt>
      <trkpt lat="44.02038" lon="6.90541">
        <ele>1346.4000244141</ele>
        <time>2020-09-12T12:08:47.000Z</time>
      </trkpt>
      <trkpt lat="44.02034" lon="6.90548">
        <ele>1346</ele>
        <time>2020-09-12T12:08:55.000Z</time>
      </trkpt>
      <trkpt lat="44.02032" lon="6.90552">
        <ele>1346.4000244141</ele>
        <time>2020-09-12T12:09:02.000Z</time>
      </trkpt>
      <trkpt lat="44.02034" lon="6.90548">
        <ele>1346.4000244141</ele>
        <time>2020-09-12T12:09:09.000Z</time>
      </trkpt>
      <trkpt lat="44.0204" lon="6.90541">
        <ele>1346</ele>
        <time>2020-09-12T12:09:15.000Z</time>
      </trkpt>
      <trkpt lat="44.02043" lon="6.90538">
        <ele>1345.8000488281</ele>
        <time>2020-09-12T12:09:18.000Z</time>
      </trkpt>
      <trkpt lat="44.02043" lon="6.90535">
        <ele>1345.5999755859</ele>
        <time>2020-09-12T12:09:21.000Z</time>
      </trkpt>
      <trkpt lat="44.02043" lon="6.90535">
        <ele>1344.5999755859</ele>
        <time>2020-09-12T12:09:25.000Z</time>
      </trkpt>
      <trkpt lat="44.02037" lon="6.90537">
        <ele>1344.1999511719</ele>
        <time>2020-09-12T12:09:31.000Z</time>
      </trkpt>
      <trkpt lat="44.02035" lon="6.90538">
        <ele>1344</ele>
        <time>2020-09-12T12:09:34.000Z</time>
      </trkpt>
      <trkpt lat="44.02033" lon="6.90539">
        <ele>1343.8000488281</ele>
        <time>2020-09-12T12:09:35.000Z</time>
      </trkpt>
      <trkpt lat="44.02031" lon="6.90541">
        <ele>1343.5999755859</ele>
        <time>2020-09-12T12:09:36.000Z</time>
      </trkpt>
      <trkpt lat="44.02023" lon="6.90543">
        <ele>1342.5999755859</ele>
        <time>2020-09-12T12:09:39.000Z</time>
      </trkpt>
      <trkpt lat="44.0202" lon="6.90544">
        <ele>1342.1999511719</ele>
        <time>2020-09-12T12:09:40.000Z</time>
      </trkpt>
      <trkpt lat="44.02014" lon="6.90544">
        <ele>1340.8000488281</ele>
        <time>2020-09-12T12:09:42.000Z</time>
      </trkpt>
      <trkpt lat="44.02009" lon="6.90546">
        <ele>1339.4000244141</ele>
        <time>2020-09-12T12:09:44.000Z</time>
      </trkpt>
      <trkpt lat="44.02006" lon="6.90548">
        <ele>1338.8000488281</ele>
        <time>2020-09-12T12:09:45.000Z</time>
      </trkpt>
      <trkpt lat="44.02003" lon="6.90549">
        <ele>1338</ele>
        <time>2020-09-12T12:09:46.000Z</time>
      </trkpt>
      <trkpt lat="44.02" lon="6.90553">
        <ele>1337</ele>
        <time>2020-09-12T12:09:48.000Z</time>
      </trkpt>
      <trkpt lat="44.01997" lon="6.90558">
        <ele>1335.8000488281</ele>
        <time>2020-09-12T12:09:50.000Z</time>
      </trkpt>
      <trkpt lat="44.01993" lon="6.90564">
        <ele>1334.4000244141</ele>
        <time>2020-09-12T12:09:53.000Z</time>
      </trkpt>
      <trkpt lat="44.01992" lon="6.90566">
        <ele>1334</ele>
        <time>2020-09-12T12:09:54.000Z</time>
      </trkpt>
      <trkpt lat="44.01991" lon="6.90568">
        <ele>1333.1999511719</ele>
        <time>2020-09-12T12:09:56.000Z</time>
      </trkpt>
      <trkpt lat="44.01987" lon="6.90573">
        <ele>1332.4000244141</ele>
        <time>2020-09-12T12:09:59.000Z</time>
      </trkpt>
      <trkpt lat="44.01984" lon="6.90581">
        <ele>1332</ele>
        <time>2020-09-12T12:10:01.000Z</time>
      </trkpt>
      <trkpt lat="44.01983" lon="6.90581">
        <ele>1331.5999755859</ele>
        <time>2020-09-12T12:10:03.000Z</time>
      </trkpt>
      <trkpt lat="44.01982" lon="6.90583">
        <ele>1331</ele>
        <time>2020-09-12T12:10:05.000Z</time>
      </trkpt>
      <trkpt lat="44.0198" lon="6.90586">
        <ele>1330.5999755859</ele>
        <time>2020-09-12T12:10:09.000Z</time>
      </trkpt>
      <trkpt lat="44.01977" lon="6.90589">
        <ele>1330.1999511719</ele>
        <time>2020-09-12T12:10:11.000Z</time>
      </trkpt>
      <trkpt lat="44.01973" lon="6.90592">
        <ele>1329.8000488281</ele>
        <time>2020-09-12T12:10:13.000Z</time>
      </trkpt>
      <trkpt lat="44.01971" lon="6.90592">
        <ele>1329.8000488281</ele>
        <time>2020-09-12T12:10:14.000Z</time>
      </trkpt>
      <trkpt lat="44.01968" lon="6.90594">
        <ele>1329.5999755859</ele>
        <time>2020-09-12T12:10:15.000Z</time>
      </trkpt>
      <trkpt lat="44.01954" lon="6.90597">
        <ele>1328.5999755859</ele>
        <time>2020-09-12T12:10:19.000Z</time>
      </trkpt>
      <trkpt lat="44.01944" lon="6.90599">
        <ele>1327.4000244141</ele>
        <time>2020-09-12T12:10:22.000Z</time>
      </trkpt>
      <trkpt lat="44.01938" lon="6.90601">
        <ele>1326.4000244141</ele>
        <time>2020-09-12T12:10:24.000Z</time>
      </trkpt>
      <trkpt lat="44.01935" lon="6.90602">
        <ele>1325.8000488281</ele>
        <time>2020-09-12T12:10:25.000Z</time>
      </trkpt>
      <trkpt lat="44.01932" lon="6.90604">
        <ele>1325</ele>
        <time>2020-09-12T12:10:26.000Z</time>
      </trkpt>
      <trkpt lat="44.01927" lon="6.90608">
        <ele>1323.8000488281</ele>
        <time>2020-09-12T12:10:28.000Z</time>
      </trkpt>
      <trkpt lat="44.01925" lon="6.90616">
        <ele>1322.8000488281</ele>
        <time>2020-09-12T12:10:30.000Z</time>
      </trkpt>
      <trkpt lat="44.01925" lon="6.90621">
        <ele>1321.4000244141</ele>
        <time>2020-09-12T12:10:32.000Z</time>
      </trkpt>
      <trkpt lat="44.01926" lon="6.90626">
        <ele>1320</ele>
        <time>2020-09-12T12:10:34.000Z</time>
      </trkpt>
      <trkpt lat="44.01927" lon="6.90629">
        <ele>1319.4000244141</ele>
        <time>2020-09-12T12:10:35.000Z</time>
      </trkpt>
      <trkpt lat="44.01927" lon="6.90632">
        <ele>1318.8000488281</ele>
        <time>2020-09-12T12:10:36.000Z</time>
      </trkpt>
      <trkpt lat="44.01928" lon="6.90642">
        <ele>1318</ele>
        <time>2020-09-12T12:10:38.000Z</time>
      </trkpt>
      <trkpt lat="44.01927" lon="6.90647">
        <ele>1317.5999755859</ele>
        <time>2020-09-12T12:10:39.000Z</time>
      </trkpt>
      <trkpt lat="44.01923" lon="6.90657">
        <ele>1317</ele>
        <time>2020-09-12T12:10:42.000Z</time>
      </trkpt>
      <trkpt lat="44.01923" lon="6.9066">
        <ele>1316.5999755859</ele>
        <time>2020-09-12T12:10:43.000Z</time>
      </trkpt>
      <trkpt lat="44.01926" lon="6.90669">
        <ele>1315.5999755859</ele>
        <time>2020-09-12T12:10:46.000Z</time>
      </trkpt>
      <trkpt lat="44.01928" lon="6.90685">
        <ele>1314.5999755859</ele>
        <time>2020-09-12T12:10:50.000Z</time>
      </trkpt>
      <trkpt lat="44.01927" lon="6.90687">
        <ele>1314.4000244141</ele>
        <time>2020-09-12T12:10:51.000Z</time>
      </trkpt>
      <trkpt lat="44.01927" lon="6.90687">
        <ele>1313.4000244141</ele>
        <time>2020-09-12T12:10:54.000Z</time>
      </trkpt>
      <trkpt lat="44.01927" lon="6.90687">
        <ele>1313.1999511719</ele>
        <time>2020-09-12T12:10:55.000Z</time>
      </trkpt>
      <trkpt lat="44.01926" lon="6.90686">
        <ele>1312.8000488281</ele>
        <time>2020-09-12T12:10:58.000Z</time>
      </trkpt>
      <trkpt lat="44.01924" lon="6.90684">
        <ele>1312.8000488281</ele>
        <time>2020-09-12T12:11:04.000Z</time>
      </trkpt>
      <trkpt lat="44.01922" lon="6.90682">
        <ele>1312.8000488281</ele>
        <time>2020-09-12T12:11:06.000Z</time>
      </trkpt>
      <trkpt lat="44.0192" lon="6.90681">
        <ele>1312.1999511719</ele>
        <time>2020-09-12T12:11:08.000Z</time>
      </trkpt>
      <trkpt lat="44.0192" lon="6.9068">
        <ele>1311.8000488281</ele>
        <time>2020-09-12T12:11:09.000Z</time>
      </trkpt>
      <trkpt lat="44.01918" lon="6.90678">
        <ele>1311</ele>
        <time>2020-09-12T12:11:14.000Z</time>
      </trkpt>
      <trkpt lat="44.01917" lon="6.90677">
        <ele>1310.8000488281</ele>
        <time>2020-09-12T12:11:15.000Z</time>
      </trkpt>
      <trkpt lat="44.01916" lon="6.90676">
        <ele>1310.5999755859</ele>
        <time>2020-09-12T12:11:17.000Z</time>
      </trkpt>
      <trkpt lat="44.0191" lon="6.90672">
        <ele>1310.8000488281</ele>
        <time>2020-09-12T12:11:20.000Z</time>
      </trkpt>
      <trkpt lat="44.01905" lon="6.90665">
        <ele>1310.4000244141</ele>
        <time>2020-09-12T12:11:23.000Z</time>
      </trkpt>
      <trkpt lat="44.01905" lon="6.90666">
        <ele>1310.1999511719</ele>
        <time>2020-09-12T12:11:24.000Z</time>
      </trkpt>
      <trkpt lat="44.01904" lon="6.90665">
        <ele>1309.8000488281</ele>
        <time>2020-09-12T12:11:26.000Z</time>
      </trkpt>
      <trkpt lat="44.01904" lon="6.90664">
        <ele>1309.1999511719</ele>
        <time>2020-09-12T12:11:29.000Z</time>
      </trkpt>
      <trkpt lat="44.01903" lon="6.90663">
        <ele>1308.8000488281</ele>
        <time>2020-09-12T12:11:31.000Z</time>
      </trkpt>
      <trkpt lat="44.01898" lon="6.90661">
        <ele>1308.1999511719</ele>
        <time>2020-09-12T12:11:35.000Z</time>
      </trkpt>
      <trkpt lat="44.01894" lon="6.90657">
        <ele>1308.1999511719</ele>
        <time>2020-09-12T12:11:39.000Z</time>
      </trkpt>
      <trkpt lat="44.01892" lon="6.90656">
        <ele>1308.1999511719</ele>
        <time>2020-09-12T12:11:40.000Z</time>
      </trkpt>
      <trkpt lat="44.01885" lon="6.90649">
        <ele>1307.5999755859</ele>
        <time>2020-09-12T12:11:43.000Z</time>
      </trkpt>
      <trkpt lat="44.01881" lon="6.90646">
        <ele>1307.1999511719</ele>
        <time>2020-09-12T12:11:45.000Z</time>
      </trkpt>
      <trkpt lat="44.01878" lon="6.9064">
        <ele>1306.5999755859</ele>
        <time>2020-09-12T12:11:47.000Z</time>
      </trkpt>
      <trkpt lat="44.01871" lon="6.90634">
        <ele>1305</ele>
        <time>2020-09-12T12:11:50.000Z</time>
      </trkpt>
      <trkpt lat="44.01866" lon="6.90633">
        <ele>1303.5999755859</ele>
        <time>2020-09-12T12:11:52.000Z</time>
      </trkpt>
      <trkpt lat="44.01865" lon="6.90633">
        <ele>1302</ele>
        <time>2020-09-12T12:11:54.000Z</time>
      </trkpt>
      <trkpt lat="44.01864" lon="6.90634">
        <ele>1300.8000488281</ele>
        <time>2020-09-12T12:11:55.000Z</time>
      </trkpt>
      <trkpt lat="44.01863" lon="6.90634">
        <ele>1299.4000244141</ele>
        <time>2020-09-12T12:11:57.000Z</time>
      </trkpt>
      <trkpt lat="44.01861" lon="6.90635">
        <ele>1298.5999755859</ele>
        <time>2020-09-12T12:12:00.000Z</time>
      </trkpt>
      <trkpt lat="44.01862" lon="6.90634">
        <ele>1298.4000244141</ele>
        <time>2020-09-12T12:12:01.000Z</time>
      </trkpt>
      <trkpt lat="44.01859" lon="6.90634">
        <ele>1298</ele>
        <time>2020-09-12T12:12:03.000Z</time>
      </trkpt>
      <trkpt lat="44.01857" lon="6.90633">
        <ele>1297.8000488281</ele>
        <time>2020-09-12T12:12:04.000Z</time>
      </trkpt>
      <trkpt lat="44.01848" lon="6.90629">
        <ele>1297.4000244141</ele>
        <time>2020-09-12T12:12:08.000Z</time>
      </trkpt>
      <trkpt lat="44.01844" lon="6.90629">
        <ele>1296.5999755859</ele>
        <time>2020-09-12T12:12:10.000Z</time>
      </trkpt>
      <trkpt lat="44.01843" lon="6.90629">
        <ele>1296</ele>
        <time>2020-09-12T12:12:11.000Z</time>
      </trkpt>
      <trkpt lat="44.01841" lon="6.90627">
        <ele>1294.5999755859</ele>
        <time>2020-09-12T12:12:13.000Z</time>
      </trkpt>
      <trkpt lat="44.01839" lon="6.90621">
        <ele>1293.1999511719</ele>
        <time>2020-09-12T12:12:15.000Z</time>
      </trkpt>
      <trkpt lat="44.01835" lon="6.90614">
        <ele>1291.8000488281</ele>
        <time>2020-09-12T12:12:17.000Z</time>
      </trkpt>
      <trkpt lat="44.01834" lon="6.90611">
        <ele>1290.8000488281</ele>
        <time>2020-09-12T12:12:19.000Z</time>
      </trkpt>
      <trkpt lat="44.01832" lon="6.90604">
        <ele>1289.8000488281</ele>
        <time>2020-09-12T12:12:23.000Z</time>
      </trkpt>
      <trkpt lat="44.01832" lon="6.90595">
        <ele>1289.8000488281</ele>
        <time>2020-09-12T12:12:27.000Z</time>
      </trkpt>
      <trkpt lat="44.01832" lon="6.90585">
        <ele>1290.4000244141</ele>
        <time>2020-09-12T12:12:31.000Z</time>
      </trkpt>
      <trkpt lat="44.01831" lon="6.90583">
        <ele>1290.4000244141</ele>
        <time>2020-09-12T12:12:32.000Z</time>
      </trkpt>
      <trkpt lat="44.01829" lon="6.90576">
        <ele>1290.8000488281</ele>
        <time>2020-09-12T12:12:36.000Z</time>
      </trkpt>
      <trkpt lat="44.01828" lon="6.90573">
        <ele>1290.8000488281</ele>
        <time>2020-09-12T12:12:37.000Z</time>
      </trkpt>
      <trkpt lat="44.01823" lon="6.90568">
        <ele>1291</ele>
        <time>2020-09-12T12:12:40.000Z</time>
      </trkpt>
      <trkpt lat="44.01819" lon="6.90563">
        <ele>1290.8000488281</ele>
        <time>2020-09-12T12:12:42.000Z</time>
      </trkpt>
      <trkpt lat="44.01813" lon="6.9055">
        <ele>1289.8000488281</ele>
        <time>2020-09-12T12:12:46.000Z</time>
      </trkpt>
      <trkpt lat="44.01808" lon="6.90543">
        <ele>1289.4000244141</ele>
        <time>2020-09-12T12:12:48.000Z</time>
      </trkpt>
      <trkpt lat="44.01805" lon="6.90539">
        <ele>1289.1999511719</ele>
        <time>2020-09-12T12:12:49.000Z</time>
      </trkpt>
      <trkpt lat="44.01798" lon="6.90532">
        <ele>1289</ele>
        <time>2020-09-12T12:12:51.000Z</time>
      </trkpt>
      <trkpt lat="44.01794" lon="6.90529">
        <ele>1288.8000488281</ele>
        <time>2020-09-12T12:12:52.000Z</time>
      </trkpt>
      <trkpt lat="44.01789" lon="6.90526">
        <ele>1288.5999755859</ele>
        <time>2020-09-12T12:12:53.000Z</time>
      </trkpt>
      <trkpt lat="44.01776" lon="6.90518">
        <ele>1287.4000244141</ele>
        <time>2020-09-12T12:12:56.000Z</time>
      </trkpt>
      <trkpt lat="44.01773" lon="6.90517">
        <ele>1286.8000488281</ele>
        <time>2020-09-12T12:12:57.000Z</time>
      </trkpt>
      <trkpt lat="44.01769" lon="6.90516">
        <ele>1286</ele>
        <time>2020-09-12T12:12:59.000Z</time>
      </trkpt>
      <trkpt lat="44.01765" lon="6.90517">
        <ele>1285.1999511719</ele>
        <time>2020-09-12T12:13:01.000Z</time>
      </trkpt>
      <trkpt lat="44.01757" lon="6.90513">
        <ele>1285.8000488281</ele>
        <time>2020-09-12T12:13:06.000Z</time>
      </trkpt>
      <trkpt lat="44.01754" lon="6.90513">
        <ele>1286.4000244141</ele>
        <time>2020-09-12T12:13:08.000Z</time>
      </trkpt>
      <trkpt lat="44.01748" lon="6.9052">
        <ele>1286.8000488281</ele>
        <time>2020-09-12T12:13:11.000Z</time>
      </trkpt>
      <trkpt lat="44.01737" lon="6.90528">
        <ele>1285.8000488281</ele>
        <time>2020-09-12T12:13:16.000Z</time>
      </trkpt>
      <trkpt lat="44.01728" lon="6.9053">
        <ele>1284.8000488281</ele>
        <time>2020-09-12T12:13:21.000Z</time>
      </trkpt>
      <trkpt lat="44.01723" lon="6.90532">
        <ele>1284.4000244141</ele>
        <time>2020-09-12T12:13:25.000Z</time>
      </trkpt>
      <trkpt lat="44.01716" lon="6.90535">
        <ele>1284.1999511719</ele>
        <time>2020-09-12T12:13:29.000Z</time>
      </trkpt>
      <trkpt lat="44.01708" lon="6.90539">
        <ele>1283.8000488281</ele>
        <time>2020-09-12T12:13:34.000Z</time>
      </trkpt>
      <trkpt lat="44.01705" lon="6.90541">
        <ele>1283.8000488281</ele>
        <time>2020-09-12T12:13:35.000Z</time>
      </trkpt>
      <trkpt lat="44.01691" lon="6.90546">
        <ele>1283</ele>
        <time>2020-09-12T12:13:39.000Z</time>
      </trkpt>
      <trkpt lat="44.01687" lon="6.90551">
        <ele>1282.5999755859</ele>
        <time>2020-09-12T12:13:41.000Z</time>
      </trkpt>
      <trkpt lat="44.01681" lon="6.90556">
        <ele>1282</ele>
        <time>2020-09-12T12:13:43.000Z</time>
      </trkpt>
      <trkpt lat="44.01676" lon="6.90558">
        <ele>1281.4000244141</ele>
        <time>2020-09-12T12:13:45.000Z</time>
      </trkpt>
      <trkpt lat="44.01676" lon="6.90558">
        <ele>1280.8000488281</ele>
        <time>2020-09-12T12:13:47.000Z</time>
      </trkpt>
      <trkpt lat="44.01675" lon="6.90558">
        <ele>1280.1999511719</ele>
        <time>2020-09-12T12:13:49.000Z</time>
      </trkpt>
      <trkpt lat="44.01673" lon="6.90559">
        <ele>1279.1999511719</ele>
        <time>2020-09-12T12:13:53.000Z</time>
      </trkpt>
      <trkpt lat="44.01674" lon="6.90559">
        <ele>1278.8000488281</ele>
        <time>2020-09-12T12:13:54.000Z</time>
      </trkpt>
      <trkpt lat="44.01674" lon="6.90559">
        <ele>1277.4000244141</ele>
        <time>2020-09-12T12:13:57.000Z</time>
      </trkpt>
      <trkpt lat="44.01674" lon="6.90558">
        <ele>1277</ele>
        <time>2020-09-12T12:14:00.000Z</time>
      </trkpt>
      <trkpt lat="44.01674" lon="6.90554">
        <ele>1276.8000488281</ele>
        <time>2020-09-12T12:14:04.000Z</time>
      </trkpt>
      <trkpt lat="44.01674" lon="6.90553">
        <ele>1276.8000488281</ele>
        <time>2020-09-12T12:14:06.000Z</time>
      </trkpt>
      <trkpt lat="44.01674" lon="6.90552">
        <ele>1277.5999755859</ele>
        <time>2020-09-12T12:14:10.000Z</time>
      </trkpt>
      <trkpt lat="44.01674" lon="6.9055">
        <ele>1277.8000488281</ele>
        <time>2020-09-12T12:14:11.000Z</time>
      </trkpt>
      <trkpt lat="44.01676" lon="6.90543">
        <ele>1277.8000488281</ele>
        <time>2020-09-12T12:14:14.000Z</time>
      </trkpt>
      <trkpt lat="44.01677" lon="6.9054">
        <ele>1277.5999755859</ele>
        <time>2020-09-12T12:14:15.000Z</time>
      </trkpt>
      <trkpt lat="44.01679" lon="6.90529">
        <ele>1277.4000244141</ele>
        <time>2020-09-12T12:14:18.000Z</time>
      </trkpt>
      <trkpt lat="44.01681" lon="6.90526">
        <ele>1277.4000244141</ele>
        <time>2020-09-12T12:14:19.000Z</time>
      </trkpt>
      <trkpt lat="44.01682" lon="6.90512">
        <ele>1276.1999511719</ele>
        <time>2020-09-12T12:14:23.000Z</time>
      </trkpt>
      <trkpt lat="44.0168" lon="6.90508">
        <ele>1275.5999755859</ele>
        <time>2020-09-12T12:14:24.000Z</time>
      </trkpt>
      <trkpt lat="44.01676" lon="6.90503">
        <ele>1275.1999511719</ele>
        <time>2020-09-12T12:14:25.000Z</time>
      </trkpt>
      <trkpt lat="44.01671" lon="6.90499">
        <ele>1274</ele>
        <time>2020-09-12T12:14:27.000Z</time>
      </trkpt>
      <trkpt lat="44.01669" lon="6.90498">
        <ele>1273.4000244141</ele>
        <time>2020-09-12T12:14:28.000Z</time>
      </trkpt>
      <trkpt lat="44.01667" lon="6.90497">
        <ele>1272.8000488281</ele>
        <time>2020-09-12T12:14:29.000Z</time>
      </trkpt>
      <trkpt lat="44.01663" lon="6.90495">
        <ele>1271.4000244141</ele>
        <time>2020-09-12T12:14:31.000Z</time>
      </trkpt>
      <trkpt lat="44.01662" lon="6.90495">
        <ele>1270.4000244141</ele>
        <time>2020-09-12T12:14:33.000Z</time>
      </trkpt>
      <trkpt lat="44.01662" lon="6.90492">
        <ele>1269.4000244141</ele>
        <time>2020-09-12T12:14:36.000Z</time>
      </trkpt>
      <trkpt lat="44.01661" lon="6.90491">
        <ele>1269.1999511719</ele>
        <time>2020-09-12T12:14:37.000Z</time>
      </trkpt>
      <trkpt lat="44.0166" lon="6.9049">
        <ele>1269</ele>
        <time>2020-09-12T12:14:39.000Z</time>
      </trkpt>
      <trkpt lat="44.0166" lon="6.90486">
        <ele>1268.8000488281</ele>
        <time>2020-09-12T12:14:45.000Z</time>
      </trkpt>
      <trkpt lat="44.01652" lon="6.90474">
        <ele>1268.8000488281</ele>
        <time>2020-09-12T12:14:49.000Z</time>
      </trkpt>
      <trkpt lat="44.01649" lon="6.90471">
        <ele>1268.5999755859</ele>
        <time>2020-09-12T12:14:50.000Z</time>
      </trkpt>
      <trkpt lat="44.01647" lon="6.90469">
        <ele>1268.1999511719</ele>
        <time>2020-09-12T12:14:51.000Z</time>
      </trkpt>
      <trkpt lat="44.01641" lon="6.90467">
        <ele>1267</ele>
        <time>2020-09-12T12:14:53.000Z</time>
      </trkpt>
      <trkpt lat="44.01639" lon="6.90466">
        <ele>1266.4000244141</ele>
        <time>2020-09-12T12:14:54.000Z</time>
      </trkpt>
      <trkpt lat="44.01635" lon="6.90465">
        <ele>1265.8000488281</ele>
        <time>2020-09-12T12:14:55.000Z</time>
      </trkpt>
      <trkpt lat="44.0163" lon="6.90462">
        <ele>1264.8000488281</ele>
        <time>2020-09-12T12:14:57.000Z</time>
      </trkpt>
      <trkpt lat="44.01625" lon="6.90458">
        <ele>1264.1999511719</ele>
        <time>2020-09-12T12:14:59.000Z</time>
      </trkpt>
      <trkpt lat="44.01621" lon="6.90454">
        <ele>1263.4000244141</ele>
        <time>2020-09-12T12:15:01.000Z</time>
      </trkpt>
      <trkpt lat="44.01619" lon="6.90451">
        <ele>1262.5999755859</ele>
        <time>2020-09-12T12:15:03.000Z</time>
      </trkpt>
      <trkpt lat="44.01618" lon="6.9045">
        <ele>1262.1999511719</ele>
        <time>2020-09-12T12:15:04.000Z</time>
      </trkpt>
      <trkpt lat="44.01609" lon="6.90438">
        <ele>1262</ele>
        <time>2020-09-12T12:15:10.000Z</time>
      </trkpt>
      <trkpt lat="44.01601" lon="6.90428">
        <ele>1262.1999511719</ele>
        <time>2020-09-12T12:15:16.000Z</time>
      </trkpt>
      <trkpt lat="44.01591" lon="6.90423">
        <ele>1262.8000488281</ele>
        <time>2020-09-12T12:15:21.000Z</time>
      </trkpt>
      <trkpt lat="44.01579" lon="6.9042">
        <ele>1262.8000488281</ele>
        <time>2020-09-12T12:15:26.000Z</time>
      </trkpt>
      <trkpt lat="44.01571" lon="6.90417">
        <ele>1262.1999511719</ele>
        <time>2020-09-12T12:15:31.000Z</time>
      </trkpt>
      <trkpt lat="44.01568" lon="6.90418">
        <ele>1262.1999511719</ele>
        <time>2020-09-12T12:15:37.000Z</time>
      </trkpt>
      <trkpt lat="44.01566" lon="6.90418">
        <ele>1262.1999511719</ele>
        <time>2020-09-12T12:15:39.000Z</time>
      </trkpt>
      <trkpt lat="44.01562" lon="6.90416">
        <ele>1262.8000488281</ele>
        <time>2020-09-12T12:15:43.000Z</time>
      </trkpt>
      <trkpt lat="44.01559" lon="6.90414">
        <ele>1262.8000488281</ele>
        <time>2020-09-12T12:15:49.000Z</time>
      </trkpt>
      <trkpt lat="44.01558" lon="6.90413">
        <ele>1262.8000488281</ele>
        <time>2020-09-12T12:15:52.000Z</time>
      </trkpt>
      <trkpt lat="44.01552" lon="6.9041">
        <ele>1262.5999755859</ele>
        <time>2020-09-12T12:15:54.000Z</time>
      </trkpt>
      <trkpt lat="44.01542" lon="6.90406">
        <ele>1262.1999511719</ele>
        <time>2020-09-12T12:15:59.000Z</time>
      </trkpt>
      <trkpt lat="44.0154" lon="6.90406">
        <ele>1262.1999511719</ele>
        <time>2020-09-12T12:16:03.000Z</time>
      </trkpt>
      <trkpt lat="44.01539" lon="6.90407">
        <ele>1261.5999755859</ele>
        <time>2020-09-12T12:16:09.000Z</time>
      </trkpt>
      <trkpt lat="44.01537" lon="6.90404">
        <ele>1261.4000244141</ele>
        <time>2020-09-12T12:16:12.000Z</time>
      </trkpt>
      <trkpt lat="44.01537" lon="6.90404">
        <ele>1261.5999755859</ele>
        <time>2020-09-12T12:16:14.000Z</time>
      </trkpt>
      <trkpt lat="44.01537" lon="6.90401">
        <ele>1261.1999511719</ele>
        <time>2020-09-12T12:16:17.000Z</time>
      </trkpt>
      <trkpt lat="44.01537" lon="6.90396">
        <ele>1260.8000488281</ele>
        <time>2020-09-12T12:16:20.000Z</time>
      </trkpt>
      <trkpt lat="44.01537" lon="6.90393">
        <ele>1260.5999755859</ele>
        <time>2020-09-12T12:16:23.000Z</time>
      </trkpt>
      <trkpt lat="44.01537" lon="6.90392">
        <ele>1260.4000244141</ele>
        <time>2020-09-12T12:16:24.000Z</time>
      </trkpt>
      <trkpt lat="44.01536" lon="6.9038">
        <ele>1260.4000244141</ele>
        <time>2020-09-12T12:16:29.000Z</time>
      </trkpt>
      <trkpt lat="44.01536" lon="6.90377">
        <ele>1260.1999511719</ele>
        <time>2020-09-12T12:16:30.000Z</time>
      </trkpt>
      <trkpt lat="44.01536" lon="6.90371">
        <ele>1259.5999755859</ele>
        <time>2020-09-12T12:16:32.000Z</time>
      </trkpt>
      <trkpt lat="44.01533" lon="6.90364">
        <ele>1259.1999511719</ele>
        <time>2020-09-12T12:16:34.000Z</time>
      </trkpt>
      <trkpt lat="44.01525" lon="6.90353">
        <ele>1258</ele>
        <time>2020-09-12T12:16:37.000Z</time>
      </trkpt>
      <trkpt lat="44.01521" lon="6.90348">
        <ele>1257</ele>
        <time>2020-09-12T12:16:39.000Z</time>
      </trkpt>
      <trkpt lat="44.0152" lon="6.90347">
        <ele>1256.1999511719</ele>
        <time>2020-09-12T12:16:40.000Z</time>
      </trkpt>
      <trkpt lat="44.01518" lon="6.90345">
        <ele>1255.1999511719</ele>
        <time>2020-09-12T12:16:42.000Z</time>
      </trkpt>
      <trkpt lat="44.01516" lon="6.90342">
        <ele>1254.8000488281</ele>
        <time>2020-09-12T12:16:43.000Z</time>
      </trkpt>
      <trkpt lat="44.01513" lon="6.90339">
        <ele>1254.1999511719</ele>
        <time>2020-09-12T12:16:45.000Z</time>
      </trkpt>
      <trkpt lat="44.01509" lon="6.90336">
        <ele>1253.5999755859</ele>
        <time>2020-09-12T12:16:47.000Z</time>
      </trkpt>
      <trkpt lat="44.01505" lon="6.90331">
        <ele>1253</ele>
        <time>2020-09-12T12:16:49.000Z</time>
      </trkpt>
      <trkpt lat="44.015" lon="6.90326">
        <ele>1252.8000488281</ele>
        <time>2020-09-12T12:16:51.000Z</time>
      </trkpt>
      <trkpt lat="44.01494" lon="6.90316">
        <ele>1252.4000244141</ele>
        <time>2020-09-12T12:16:54.000Z</time>
      </trkpt>
      <trkpt lat="44.01494" lon="6.90312">
        <ele>1252.1999511719</ele>
        <time>2020-09-12T12:16:55.000Z</time>
      </trkpt>
      <trkpt lat="44.01494" lon="6.9031">
        <ele>1252</ele>
        <time>2020-09-12T12:16:56.000Z</time>
      </trkpt>
      <trkpt lat="44.01493" lon="6.903">
        <ele>1251.4000244141</ele>
        <time>2020-09-12T12:16:59.000Z</time>
      </trkpt>
      <trkpt lat="44.01489" lon="6.90292">
        <ele>1251.1999511719</ele>
        <time>2020-09-12T12:17:03.000Z</time>
      </trkpt>
      <trkpt lat="44.01485" lon="6.9029">
        <ele>1251.1999511719</ele>
        <time>2020-09-12T12:17:07.000Z</time>
      </trkpt>
      <trkpt lat="44.01484" lon="6.90291">
        <ele>1251</ele>
        <time>2020-09-12T12:17:10.000Z</time>
      </trkpt>
      <trkpt lat="44.0148" lon="6.9029">
        <ele>1250.4000244141</ele>
        <time>2020-09-12T12:17:14.000Z</time>
      </trkpt>
      <trkpt lat="44.01477" lon="6.90288">
        <ele>1250.1999511719</ele>
        <time>2020-09-12T12:17:20.000Z</time>
      </trkpt>
      <trkpt lat="44.01475" lon="6.90287">
        <ele>1250.4000244141</ele>
        <time>2020-09-12T12:17:21.000Z</time>
      </trkpt>
      <trkpt lat="44.01469" lon="6.90277">
        <ele>1250.1999511719</ele>
        <time>2020-09-12T12:17:24.000Z</time>
      </trkpt>
      <trkpt lat="44.01465" lon="6.90272">
        <ele>1249.8000488281</ele>
        <time>2020-09-12T12:17:26.000Z</time>
      </trkpt>
      <trkpt lat="44.01463" lon="6.90271">
        <ele>1249</ele>
        <time>2020-09-12T12:17:28.000Z</time>
      </trkpt>
      <trkpt lat="44.01463" lon="6.9027">
        <ele>1248.4000244141</ele>
        <time>2020-09-12T12:17:29.000Z</time>
      </trkpt>
      <trkpt lat="44.01463" lon="6.9027">
        <ele>1247</ele>
        <time>2020-09-12T12:17:31.000Z</time>
      </trkpt>
      <trkpt lat="44.01461" lon="6.90267">
        <ele>1246</ele>
        <time>2020-09-12T12:17:34.000Z</time>
      </trkpt>
      <trkpt lat="44.01461" lon="6.90267">
        <ele>1245.5999755859</ele>
        <time>2020-09-12T12:17:36.000Z</time>
      </trkpt>
      <trkpt lat="44.0146" lon="6.90263">
        <ele>1245.5999755859</ele>
        <time>2020-09-12T12:17:37.000Z</time>
      </trkpt>
      <trkpt lat="44.01458" lon="6.90256">
        <ele>1245.1999511719</ele>
        <time>2020-09-12T12:17:40.000Z</time>
      </trkpt>
      <trkpt lat="44.01455" lon="6.90249">
        <ele>1245</ele>
        <time>2020-09-12T12:17:43.000Z</time>
      </trkpt>
      <trkpt lat="44.01452" lon="6.90246">
        <ele>1244.4000244141</ele>
        <time>2020-09-12T12:17:46.000Z</time>
      </trkpt>
      <trkpt lat="44.01449" lon="6.90243">
        <ele>1244</ele>
        <time>2020-09-12T12:17:49.000Z</time>
      </trkpt>
      <trkpt lat="44.01447" lon="6.90238">
        <ele>1243.5999755859</ele>
        <time>2020-09-12T12:17:52.000Z</time>
      </trkpt>
      <trkpt lat="44.01446" lon="6.90236">
        <ele>1242.8000488281</ele>
        <time>2020-09-12T12:17:56.000Z</time>
      </trkpt>
      <trkpt lat="44.01446" lon="6.90235">
        <ele>1242.4000244141</ele>
        <time>2020-09-12T12:17:57.000Z</time>
      </trkpt>
      <trkpt lat="44.01445" lon="6.90234">
        <ele>1242.1999511719</ele>
        <time>2020-09-12T12:17:58.000Z</time>
      </trkpt>
      <trkpt lat="44.01441" lon="6.90232">
        <ele>1241.8000488281</ele>
        <time>2020-09-12T12:18:01.000Z</time>
      </trkpt>
      <trkpt lat="44.0144" lon="6.9023">
        <ele>1241.5999755859</ele>
        <time>2020-09-12T12:18:02.000Z</time>
      </trkpt>
      <trkpt lat="44.01438" lon="6.90229">
        <ele>1241.4000244141</ele>
        <time>2020-09-12T12:18:03.000Z</time>
      </trkpt>
      <trkpt lat="44.01432" lon="6.90223">
        <ele>1241.4000244141</ele>
        <time>2020-09-12T12:18:06.000Z</time>
      </trkpt>
      <trkpt lat="44.01424" lon="6.90212">
        <ele>1240.8000488281</ele>
        <time>2020-09-12T12:18:10.000Z</time>
      </trkpt>
      <trkpt lat="44.01423" lon="6.90207">
        <ele>1240.4000244141</ele>
        <time>2020-09-12T12:18:12.000Z</time>
      </trkpt>
      <trkpt lat="44.01417" lon="6.902">
        <ele>1240</ele>
        <time>2020-09-12T12:18:15.000Z</time>
      </trkpt>
      <trkpt lat="44.01404" lon="6.90183">
        <ele>1239.1999511719</ele>
        <time>2020-09-12T12:18:20.000Z</time>
      </trkpt>
      <trkpt lat="44.01397" lon="6.90174">
        <ele>1238.1999511719</ele>
        <time>2020-09-12T12:18:23.000Z</time>
      </trkpt>
      <trkpt lat="44.01393" lon="6.90169">
        <ele>1237.4000244141</ele>
        <time>2020-09-12T12:18:25.000Z</time>
      </trkpt>
      <trkpt lat="44.0139" lon="6.90166">
        <ele>1237.1999511719</ele>
        <time>2020-09-12T12:18:26.000Z</time>
      </trkpt>
      <trkpt lat="44.01384" lon="6.90154">
        <ele>1236.8000488281</ele>
        <time>2020-09-12T12:18:29.000Z</time>
      </trkpt>
      <trkpt lat="44.01374" lon="6.90139">
        <ele>1235.8000488281</ele>
        <time>2020-09-12T12:18:33.000Z</time>
      </trkpt>
      <trkpt lat="44.01372" lon="6.90134">
        <ele>1235.4000244141</ele>
        <time>2020-09-12T12:18:34.000Z</time>
      </trkpt>
      <trkpt lat="44.01367" lon="6.90126">
        <ele>1234.5999755859</ele>
        <time>2020-09-12T12:18:36.000Z</time>
      </trkpt>
      <trkpt lat="44.01365" lon="6.9012">
        <ele>1234.1999511719</ele>
        <time>2020-09-12T12:18:37.000Z</time>
      </trkpt>
      <trkpt lat="44.01361" lon="6.90111">
        <ele>1233.4000244141</ele>
        <time>2020-09-12T12:18:39.000Z</time>
      </trkpt>
      <trkpt lat="44.01358" lon="6.90103">
        <ele>1232.5999755859</ele>
        <time>2020-09-12T12:18:41.000Z</time>
      </trkpt>
      <trkpt lat="44.01356" lon="6.90099">
        <ele>1232.1999511719</ele>
        <time>2020-09-12T12:18:42.000Z</time>
      </trkpt>
      <trkpt lat="44.01352" lon="6.90094">
        <ele>1231.4000244141</ele>
        <time>2020-09-12T12:18:44.000Z</time>
      </trkpt>
      <trkpt lat="44.0135" lon="6.90094">
        <ele>1231</ele>
        <time>2020-09-12T12:18:45.000Z</time>
      </trkpt>
      <trkpt lat="44.01342" lon="6.90087">
        <ele>1230</ele>
        <time>2020-09-12T12:18:48.000Z</time>
      </trkpt>
      <trkpt lat="44.01329" lon="6.90079">
        <ele>1228.8000488281</ele>
        <time>2020-09-12T12:18:52.000Z</time>
      </trkpt>
      <trkpt lat="44.01321" lon="6.90075">
        <ele>1227.5999755859</ele>
        <time>2020-09-12T12:18:55.000Z</time>
      </trkpt>
      <trkpt lat="44.01316" lon="6.90072">
        <ele>1226.8000488281</ele>
        <time>2020-09-12T12:18:57.000Z</time>
      </trkpt>
      <trkpt lat="44.01313" lon="6.9007">
        <ele>1226.4000244141</ele>
        <time>2020-09-12T12:18:58.000Z</time>
      </trkpt>
      <trkpt lat="44.01309" lon="6.90067">
        <ele>1226.1999511719</ele>
        <time>2020-09-12T12:19:01.000Z</time>
      </trkpt>
      <trkpt lat="44.01303" lon="6.90061">
        <ele>1225.5999755859</ele>
        <time>2020-09-12T12:19:06.000Z</time>
      </trkpt>
      <trkpt lat="44.01291" lon="6.90055">
        <ele>1225.4000244141</ele>
        <time>2020-09-12T12:19:11.000Z</time>
      </trkpt>
      <trkpt lat="44.01286" lon="6.90051">
        <ele>1225</ele>
        <time>2020-09-12T12:19:13.000Z</time>
      </trkpt>
      <trkpt lat="44.01282" lon="6.90049">
        <ele>1224.5999755859</ele>
        <time>2020-09-12T12:19:15.000Z</time>
      </trkpt>
      <trkpt lat="44.01271" lon="6.9004">
        <ele>1224.4000244141</ele>
        <time>2020-09-12T12:19:19.000Z</time>
      </trkpt>
      <trkpt lat="44.01269" lon="6.90037">
        <ele>1224.1999511719</ele>
        <time>2020-09-12T12:19:20.000Z</time>
      </trkpt>
      <trkpt lat="44.01264" lon="6.90032">
        <ele>1223.4000244141</ele>
        <time>2020-09-12T12:19:24.000Z</time>
      </trkpt>
      <trkpt lat="44.01263" lon="6.90032">
        <ele>1223.1999511719</ele>
        <time>2020-09-12T12:19:26.000Z</time>
      </trkpt>
      <trkpt lat="44.01263" lon="6.90031">
        <ele>1223</ele>
        <time>2020-09-12T12:19:29.000Z</time>
      </trkpt>
      <trkpt lat="44.0126" lon="6.90029">
        <ele>1223.4000244141</ele>
        <time>2020-09-12T12:19:35.000Z</time>
      </trkpt>
      <trkpt lat="44.01257" lon="6.90026">
        <ele>1223.5999755859</ele>
        <time>2020-09-12T12:19:39.000Z</time>
      </trkpt>
      <trkpt lat="44.01249" lon="6.90021">
        <ele>1223.4000244141</ele>
        <time>2020-09-12T12:19:44.000Z</time>
      </trkpt>
      <trkpt lat="44.01245" lon="6.90012">
        <ele>1223.5999755859</ele>
        <time>2020-09-12T12:19:47.000Z</time>
      </trkpt>
      <trkpt lat="44.01241" lon="6.90003">
        <ele>1223.1999511719</ele>
        <time>2020-09-12T12:19:50.000Z</time>
      </trkpt>
      <trkpt lat="44.01236" lon="6.89994">
        <ele>1223.1999511719</ele>
        <time>2020-09-12T12:19:52.000Z</time>
      </trkpt>
      <trkpt lat="44.01231" lon="6.89988">
        <ele>1222.4000244141</ele>
        <time>2020-09-12T12:19:56.000Z</time>
      </trkpt>
      <trkpt lat="44.01226" lon="6.89972">
        <ele>1222.1999511719</ele>
        <time>2020-09-12T12:20:01.000Z</time>
      </trkpt>
      <trkpt lat="44.01225" lon="6.89968">
        <ele>1222.1999511719</ele>
        <time>2020-09-12T12:20:02.000Z</time>
      </trkpt>
      <trkpt lat="44.0122" lon="6.89957">
        <ele>1221.1999511719</ele>
        <time>2020-09-12T12:20:06.000Z</time>
      </trkpt>
      <trkpt lat="44.01219" lon="6.89957">
        <ele>1220.8000488281</ele>
        <time>2020-09-12T12:20:07.000Z</time>
      </trkpt>
      <trkpt lat="44.01218" lon="6.89956">
        <ele>1219.5999755859</ele>
        <time>2020-09-12T12:20:10.000Z</time>
      </trkpt>
      <trkpt lat="44.01217" lon="6.89954">
        <ele>1219.1999511719</ele>
        <time>2020-09-12T12:20:11.000Z</time>
      </trkpt>
      <trkpt lat="44.0121" lon="6.89942">
        <ele>1219</ele>
        <time>2020-09-12T12:20:15.000Z</time>
      </trkpt>
      <trkpt lat="44.01198" lon="6.89921">
        <ele>1218.5999755859</ele>
        <time>2020-09-12T12:20:19.000Z</time>
      </trkpt>
      <trkpt lat="44.01195" lon="6.89918">
        <ele>1218.1999511719</ele>
        <time>2020-09-12T12:20:20.000Z</time>
      </trkpt>
      <trkpt lat="44.01192" lon="6.89912">
        <ele>1217</ele>
        <time>2020-09-12T12:20:23.000Z</time>
      </trkpt>
      <trkpt lat="44.01184" lon="6.89902">
        <ele>1218.1999511719</ele>
        <time>2020-09-12T12:20:28.000Z</time>
      </trkpt>
      <trkpt lat="44.01183" lon="6.89901">
        <ele>1218.1999511719</ele>
        <time>2020-09-12T12:20:29.000Z</time>
      </trkpt>
      <trkpt lat="44.01172" lon="6.89886">
        <ele>1217.5999755859</ele>
        <time>2020-09-12T12:20:35.000Z</time>
      </trkpt>
      <trkpt lat="44.01157" lon="6.89867">
        <ele>1217.1999511719</ele>
        <time>2020-09-12T12:20:41.000Z</time>
      </trkpt>
      <trkpt lat="44.01153" lon="6.8986">
        <ele>1217</ele>
        <time>2020-09-12T12:20:43.000Z</time>
      </trkpt>
      <trkpt lat="44.01153" lon="6.8986">
        <ele>1216.8000488281</ele>
        <time>2020-09-12T12:20:44.000Z</time>
      </trkpt>
      <trkpt lat="44.01153" lon="6.8986">
        <ele>1216.8000488281</ele>
        <time>2020-09-12T12:20:45.000Z</time>
      </trkpt>
      <trkpt lat="44.01151" lon="6.89856">
        <ele>1216</ele>
        <time>2020-09-12T12:20:49.000Z</time>
      </trkpt>
      <trkpt lat="44.01149" lon="6.89853">
        <ele>1216</ele>
        <time>2020-09-12T12:20:50.000Z</time>
      </trkpt>
      <trkpt lat="44.01136" lon="6.8984">
        <ele>1215.8000488281</ele>
        <time>2020-09-12T12:20:55.000Z</time>
      </trkpt>
      <trkpt lat="44.01132" lon="6.89835">
        <ele>1215</ele>
        <time>2020-09-12T12:20:57.000Z</time>
      </trkpt>
      <trkpt lat="44.01126" lon="6.8983">
        <ele>1213.8000488281</ele>
        <time>2020-09-12T12:20:59.000Z</time>
      </trkpt>
      <trkpt lat="44.01122" lon="6.89826">
        <ele>1213.4000244141</ele>
        <time>2020-09-12T12:21:00.000Z</time>
      </trkpt>
      <trkpt lat="44.01119" lon="6.89821">
        <ele>1213</ele>
        <time>2020-09-12T12:21:01.000Z</time>
      </trkpt>
      <trkpt lat="44.01117" lon="6.89817">
        <ele>1212.8000488281</ele>
        <time>2020-09-12T12:21:02.000Z</time>
      </trkpt>
      <trkpt lat="44.01112" lon="6.89809">
        <ele>1212.1999511719</ele>
        <time>2020-09-12T12:21:04.000Z</time>
      </trkpt>
      <trkpt lat="44.01105" lon="6.898">
        <ele>1211.5999755859</ele>
        <time>2020-09-12T12:21:06.000Z</time>
      </trkpt>
      <trkpt lat="44.01097" lon="6.89787">
        <ele>1211</ele>
        <time>2020-09-12T12:21:09.000Z</time>
      </trkpt>
      <trkpt lat="44.01092" lon="6.89778">
        <ele>1210.5999755859</ele>
        <time>2020-09-12T12:21:12.000Z</time>
      </trkpt>
      <trkpt lat="44.01091" lon="6.89775">
        <ele>1210.5999755859</ele>
        <time>2020-09-12T12:21:13.000Z</time>
      </trkpt>
      <trkpt lat="44.01081" lon="6.89766">
        <ele>1209.8000488281</ele>
        <time>2020-09-12T12:21:18.000Z</time>
      </trkpt>
      <trkpt lat="44.01078" lon="6.89766">
        <ele>1209.5999755859</ele>
        <time>2020-09-12T12:21:20.000Z</time>
      </trkpt>
      <trkpt lat="44.01067" lon="6.89766">
        <ele>1209.4000244141</ele>
        <time>2020-09-12T12:21:24.000Z</time>
      </trkpt>
      <trkpt lat="44.01056" lon="6.8977">
        <ele>1209.1999511719</ele>
        <time>2020-09-12T12:21:29.000Z</time>
      </trkpt>
      <trkpt lat="44.01042" lon="6.89777">
        <ele>1208.5999755859</ele>
        <time>2020-09-12T12:21:35.000Z</time>
      </trkpt>
      <trkpt lat="44.0103" lon="6.89781">
        <ele>1208.1999511719</ele>
        <time>2020-09-12T12:21:40.000Z</time>
      </trkpt>
      <trkpt lat="44.01014" lon="6.89777">
        <ele>1208</ele>
        <time>2020-09-12T12:21:44.000Z</time>
      </trkpt>
      <trkpt lat="44.0101" lon="6.89775">
        <ele>1208</ele>
        <time>2020-09-12T12:21:45.000Z</time>
      </trkpt>
      <trkpt lat="44.00997" lon="6.89767">
        <ele>1207.5999755859</ele>
        <time>2020-09-12T12:21:48.000Z</time>
      </trkpt>
      <trkpt lat="44.00993" lon="6.89765">
        <ele>1207.1999511719</ele>
        <time>2020-09-12T12:21:49.000Z</time>
      </trkpt>
      <trkpt lat="44.00989" lon="6.89765">
        <ele>1206.8000488281</ele>
        <time>2020-09-12T12:21:50.000Z</time>
      </trkpt>
      <trkpt lat="44.00985" lon="6.89767">
        <ele>1206.1999511719</ele>
        <time>2020-09-12T12:21:51.000Z</time>
      </trkpt>
      <trkpt lat="44.00978" lon="6.89774">
        <ele>1204.8000488281</ele>
        <time>2020-09-12T12:21:53.000Z</time>
      </trkpt>
      <trkpt lat="44.00976" lon="6.89779">
        <ele>1203.5999755859</ele>
        <time>2020-09-12T12:21:55.000Z</time>
      </trkpt>
      <trkpt lat="44.00976" lon="6.89781">
        <ele>1203.1999511719</ele>
        <time>2020-09-12T12:21:56.000Z</time>
      </trkpt>
      <trkpt lat="44.00976" lon="6.89781">
        <ele>1202.1999511719</ele>
        <time>2020-09-12T12:21:58.000Z</time>
      </trkpt>
      <trkpt lat="44.00976" lon="6.89781">
        <ele>1201.8000488281</ele>
        <time>2020-09-12T12:22:00.000Z</time>
      </trkpt>
      <trkpt lat="44.00977" lon="6.89782">
        <ele>1201.1999511719</ele>
        <time>2020-09-12T12:22:03.000Z</time>
      </trkpt>
      <trkpt lat="44.00977" lon="6.89783">
        <ele>1201.4000244141</ele>
        <time>2020-09-12T12:22:06.000Z</time>
      </trkpt>
      <trkpt lat="44.00978" lon="6.8979">
        <ele>1200.8000488281</ele>
        <time>2020-09-12T12:22:11.000Z</time>
      </trkpt>
      <trkpt lat="44.00978" lon="6.89791">
        <ele>1200.1999511719</ele>
        <time>2020-09-12T12:22:14.000Z</time>
      </trkpt>
      <trkpt lat="44.00978" lon="6.89792">
        <ele>1200</ele>
        <time>2020-09-12T12:22:16.000Z</time>
      </trkpt>
      <trkpt lat="44.00975" lon="6.89801">
        <ele>1200</ele>
        <time>2020-09-12T12:22:20.000Z</time>
      </trkpt>
      <trkpt lat="44.00971" lon="6.89819">
        <ele>1200</ele>
        <time>2020-09-12T12:22:25.000Z</time>
      </trkpt>
      <trkpt lat="44.00971" lon="6.89825">
        <ele>1199.1999511719</ele>
        <time>2020-09-12T12:22:28.000Z</time>
      </trkpt>
      <trkpt lat="44.00971" lon="6.89824">
        <ele>1198.8000488281</ele>
        <time>2020-09-12T12:22:29.000Z</time>
      </trkpt>
      <trkpt lat="44.00969" lon="6.89821">
        <ele>1197.8000488281</ele>
        <time>2020-09-12T12:22:36.000Z</time>
      </trkpt>
      <trkpt lat="44.00968" lon="6.89821">
        <ele>1197.8000488281</ele>
        <time>2020-09-12T12:22:38.000Z</time>
      </trkpt>
      <trkpt lat="44.00966" lon="6.89818">
        <ele>1198.1999511719</ele>
        <time>2020-09-12T12:22:41.000Z</time>
      </trkpt>
      <trkpt lat="44.00965" lon="6.89815">
        <ele>1198.8000488281</ele>
        <time>2020-09-12T12:22:44.000Z</time>
      </trkpt>
      <trkpt lat="44.00965" lon="6.89814">
        <ele>1199</ele>
        <time>2020-09-12T12:22:45.000Z</time>
      </trkpt>
      <trkpt lat="44.00963" lon="6.8981">
        <ele>1199.8000488281</ele>
        <time>2020-09-12T12:22:50.000Z</time>
      </trkpt>
      <trkpt lat="44.00963" lon="6.89808">
        <ele>1200</ele>
        <time>2020-09-12T12:22:51.000Z</time>
      </trkpt>
      <trkpt lat="44.00962" lon="6.89803">
        <ele>1201</ele>
        <time>2020-09-12T12:22:58.000Z</time>
      </trkpt>
      <trkpt lat="44.00962" lon="6.89802">
        <ele>1201</ele>
        <time>2020-09-12T12:22:59.000Z</time>
      </trkpt>
      <trkpt lat="44.0096" lon="6.89797">
        <ele>1202</ele>
        <time>2020-09-12T12:23:03.000Z</time>
      </trkpt>
      <trkpt lat="44.00957" lon="6.89792">
        <ele>1202.8000488281</ele>
        <time>2020-09-12T12:23:07.000Z</time>
      </trkpt>
      <trkpt lat="44.00955" lon="6.89789">
        <ele>1203</ele>
        <time>2020-09-12T12:23:10.000Z</time>
      </trkpt>
      <trkpt lat="44.00952" lon="6.8978">
        <ele>1203.5999755859</ele>
        <time>2020-09-12T12:23:17.000Z</time>
      </trkpt>
      <trkpt lat="44.00951" lon="6.89774">
        <ele>1204.1999511719</ele>
        <time>2020-09-12T12:23:21.000Z</time>
      </trkpt>
      <trkpt lat="44.0095" lon="6.8977">
        <ele>1204.5999755859</ele>
        <time>2020-09-12T12:23:25.000Z</time>
      </trkpt>
      <trkpt lat="44.00948" lon="6.89763">
        <ele>1205.1999511719</ele>
        <time>2020-09-12T12:23:30.000Z</time>
      </trkpt>
      <trkpt lat="44.00948" lon="6.89761">
        <ele>1205.8000488281</ele>
        <time>2020-09-12T12:23:34.000Z</time>
      </trkpt>
      <trkpt lat="44.00947" lon="6.89754">
        <ele>1206</ele>
        <time>2020-09-12T12:23:39.000Z</time>
      </trkpt>
      <trkpt lat="44.00948" lon="6.89747">
        <ele>1206.4000244141</ele>
        <time>2020-09-12T12:23:42.000Z</time>
      </trkpt>
      <trkpt lat="44.00947" lon="6.89736">
        <ele>1207.4000244141</ele>
        <time>2020-09-12T12:23:47.000Z</time>
      </trkpt>
      <trkpt lat="44.00937" lon="6.89725">
        <ele>1208</ele>
        <time>2020-09-12T12:23:52.000Z</time>
      </trkpt>
      <trkpt lat="44.00926" lon="6.89718">
        <ele>1207.5999755859</ele>
        <time>2020-09-12T12:23:56.000Z</time>
      </trkpt>
      <trkpt lat="44.00921" lon="6.89724">
        <ele>1206.4000244141</ele>
        <time>2020-09-12T12:23:59.000Z</time>
      </trkpt>
      <trkpt lat="44.0092" lon="6.89726">
        <ele>1206.1999511719</ele>
        <time>2020-09-12T12:24:00.000Z</time>
      </trkpt>
      <trkpt lat="44.00909" lon="6.89745">
        <ele>1205.5999755859</ele>
        <time>2020-09-12T12:24:04.000Z</time>
      </trkpt>
      <trkpt lat="44.00902" lon="6.89753">
        <ele>1205.1999511719</ele>
        <time>2020-09-12T12:24:06.000Z</time>
      </trkpt>
      <trkpt lat="44.0089" lon="6.89762">
        <ele>1204.8000488281</ele>
        <time>2020-09-12T12:24:09.000Z</time>
      </trkpt>
      <trkpt lat="44.00886" lon="6.89765">
        <ele>1204.4000244141</ele>
        <time>2020-09-12T12:24:10.000Z</time>
      </trkpt>
      <trkpt lat="44.00876" lon="6.89773">
        <ele>1204</ele>
        <time>2020-09-12T12:24:12.000Z</time>
      </trkpt>
      <trkpt lat="44.00868" lon="6.89782">
        <ele>1203.5999755859</ele>
        <time>2020-09-12T12:24:14.000Z</time>
      </trkpt>
      <trkpt lat="44.00866" lon="6.89788">
        <ele>1203.1999511719</ele>
        <time>2020-09-12T12:24:15.000Z</time>
      </trkpt>
      <trkpt lat="44.00862" lon="6.89793">
        <ele>1202.8000488281</ele>
        <time>2020-09-12T12:24:16.000Z</time>
      </trkpt>
      <trkpt lat="44.00853" lon="6.89802">
        <ele>1202.1999511719</ele>
        <time>2020-09-12T12:24:18.000Z</time>
      </trkpt>
      <trkpt lat="44.00848" lon="6.89805">
        <ele>1201.8000488281</ele>
        <time>2020-09-12T12:24:19.000Z</time>
      </trkpt>
      <trkpt lat="44.00842" lon="6.89816">
        <ele>1201.4000244141</ele>
        <time>2020-09-12T12:24:22.000Z</time>
      </trkpt>
      <trkpt lat="44.00837" lon="6.89822">
        <ele>1201</ele>
        <time>2020-09-12T12:24:24.000Z</time>
      </trkpt>
      <trkpt lat="44.00834" lon="6.89827">
        <ele>1200.5999755859</ele>
        <time>2020-09-12T12:24:26.000Z</time>
      </trkpt>
      <trkpt lat="44.00826" lon="6.89839">
        <ele>1201</ele>
        <time>2020-09-12T12:24:31.000Z</time>
      </trkpt>
      <trkpt lat="44.00817" lon="6.89852">
        <ele>1201.5999755859</ele>
        <time>2020-09-12T12:24:36.000Z</time>
      </trkpt>
      <trkpt lat="44.00815" lon="6.89853">
        <ele>1201.8000488281</ele>
        <time>2020-09-12T12:24:37.000Z</time>
      </trkpt>
      <trkpt lat="44.00806" lon="6.89859">
        <ele>1202</ele>
        <time>2020-09-12T12:24:40.000Z</time>
      </trkpt>
      <trkpt lat="44.00788" lon="6.89864">
        <ele>1202.5999755859</ele>
        <time>2020-09-12T12:24:46.000Z</time>
      </trkpt>
      <trkpt lat="44.00781" lon="6.89869">
        <ele>1202.8000488281</ele>
        <time>2020-09-12T12:24:48.000Z</time>
      </trkpt>
      <trkpt lat="44.00771" lon="6.89871">
        <ele>1203</ele>
        <time>2020-09-12T12:24:51.000Z</time>
      </trkpt>
      <trkpt lat="44.00762" lon="6.8988">
        <ele>1203.1999511719</ele>
        <time>2020-09-12T12:24:55.000Z</time>
      </trkpt>
      <trkpt lat="44.00757" lon="6.89885">
        <ele>1203.4000244141</ele>
        <time>2020-09-12T12:24:57.000Z</time>
      </trkpt>
      <trkpt lat="44.0075" lon="6.89891">
        <ele>1203.1999511719</ele>
        <time>2020-09-12T12:25:00.000Z</time>
      </trkpt>
      <trkpt lat="44.00742" lon="6.89897">
        <ele>1202.8000488281</ele>
        <time>2020-09-12T12:25:02.000Z</time>
      </trkpt>
      <trkpt lat="44.00739" lon="6.89896">
        <ele>1202.8000488281</ele>
        <time>2020-09-12T12:25:03.000Z</time>
      </trkpt>
      <trkpt lat="44.00728" lon="6.89901">
        <ele>1202.4000244141</ele>
        <time>2020-09-12T12:25:07.000Z</time>
      </trkpt>
      <trkpt lat="44.00705" lon="6.89914">
        <ele>1202.8000488281</ele>
        <time>2020-09-12T12:25:14.000Z</time>
      </trkpt>
      <trkpt lat="44.00691" lon="6.89926">
        <ele>1202.5999755859</ele>
        <time>2020-09-12T12:25:19.000Z</time>
      </trkpt>
      <trkpt lat="44.00678" lon="6.89945">
        <ele>1202.4000244141</ele>
        <time>2020-09-12T12:25:25.000Z</time>
      </trkpt>
      <trkpt lat="44.00669" lon="6.89966">
        <ele>1203</ele>
        <time>2020-09-12T12:25:31.000Z</time>
      </trkpt>
      <trkpt lat="44.0067" lon="6.89989">
        <ele>1203.1999511719</ele>
        <time>2020-09-12T12:25:36.000Z</time>
      </trkpt>
      <trkpt lat="44.00663" lon="6.89994">
        <ele>1203.1999511719</ele>
        <time>2020-09-12T12:25:39.000Z</time>
      </trkpt>
      <trkpt lat="44.00653" lon="6.89997">
        <ele>1201.8000488281</ele>
        <time>2020-09-12T12:25:43.000Z</time>
      </trkpt>
      <trkpt lat="44.00652" lon="6.89997">
        <ele>1201.4000244141</ele>
        <time>2020-09-12T12:25:44.000Z</time>
      </trkpt>
      <trkpt lat="44.00646" lon="6.89999">
        <ele>1201</ele>
        <time>2020-09-12T12:25:47.000Z</time>
      </trkpt>
      <trkpt lat="44.00635" lon="6.89995">
        <ele>1201.1999511719</ele>
        <time>2020-09-12T12:25:50.000Z</time>
      </trkpt>
      <trkpt lat="44.0062" lon="6.89998">
        <ele>1200.1999511719</ele>
        <time>2020-09-12T12:25:54.000Z</time>
      </trkpt>
      <trkpt lat="44.00616" lon="6.90001">
        <ele>1199.5999755859</ele>
        <time>2020-09-12T12:25:55.000Z</time>
      </trkpt>
      <trkpt lat="44.0061" lon="6.90004">
        <ele>1198.4000244141</ele>
        <time>2020-09-12T12:25:57.000Z</time>
      </trkpt>
      <trkpt lat="44.00608" lon="6.90003">
        <ele>1197.8000488281</ele>
        <time>2020-09-12T12:25:58.000Z</time>
      </trkpt>
      <trkpt lat="44.00606" lon="6.90001">
        <ele>1196.8000488281</ele>
        <time>2020-09-12T12:25:59.000Z</time>
      </trkpt>
      <trkpt lat="44.006" lon="6.9">
        <ele>1195.4000244141</ele>
        <time>2020-09-12T12:26:01.000Z</time>
      </trkpt>
      <trkpt lat="44.00597" lon="6.90001">
        <ele>1194.8000488281</ele>
        <time>2020-09-12T12:26:02.000Z</time>
      </trkpt>
      <trkpt lat="44.00594" lon="6.90002">
        <ele>1194</ele>
        <time>2020-09-12T12:26:03.000Z</time>
      </trkpt>
      <trkpt lat="44.00587" lon="6.90005">
        <ele>1192.8000488281</ele>
        <time>2020-09-12T12:26:05.000Z</time>
      </trkpt>
      <trkpt lat="44.00583" lon="6.90006">
        <ele>1192</ele>
        <time>2020-09-12T12:26:06.000Z</time>
      </trkpt>
      <trkpt lat="44.00579" lon="6.90006">
        <ele>1191.1999511719</ele>
        <time>2020-09-12T12:26:07.000Z</time>
      </trkpt>
      <trkpt lat="44.00571" lon="6.90007">
        <ele>1189.4000244141</ele>
        <time>2020-09-12T12:26:09.000Z</time>
      </trkpt>
      <trkpt lat="44.00567" lon="6.9001">
        <ele>1188.4000244141</ele>
        <time>2020-09-12T12:26:10.000Z</time>
      </trkpt>
      <trkpt lat="44.0056" lon="6.90013">
        <ele>1187</ele>
        <time>2020-09-12T12:26:12.000Z</time>
      </trkpt>
      <trkpt lat="44.00555" lon="6.90014">
        <ele>1186.1999511719</ele>
        <time>2020-09-12T12:26:13.000Z</time>
      </trkpt>
      <trkpt lat="44.0055" lon="6.90015">
        <ele>1185.5999755859</ele>
        <time>2020-09-12T12:26:14.000Z</time>
      </trkpt>
      <trkpt lat="44.00544" lon="6.90018">
        <ele>1184.5999755859</ele>
        <time>2020-09-12T12:26:15.000Z</time>
      </trkpt>
      <trkpt lat="44.00539" lon="6.9002">
        <ele>1183.4000244141</ele>
        <time>2020-09-12T12:26:16.000Z</time>
      </trkpt>
      <trkpt lat="44.00534" lon="6.90021">
        <ele>1182.1999511719</ele>
        <time>2020-09-12T12:26:17.000Z</time>
      </trkpt>
      <trkpt lat="44.00529" lon="6.90024">
        <ele>1180.8000488281</ele>
        <time>2020-09-12T12:26:18.000Z</time>
      </trkpt>
      <trkpt lat="44.00524" lon="6.90027">
        <ele>1179.4000244141</ele>
        <time>2020-09-12T12:26:19.000Z</time>
      </trkpt>
      <trkpt lat="44.0052" lon="6.90029">
        <ele>1178.1999511719</ele>
        <time>2020-09-12T12:26:20.000Z</time>
      </trkpt>
      <trkpt lat="44.00516" lon="6.90031">
        <ele>1176.5999755859</ele>
        <time>2020-09-12T12:26:22.000Z</time>
      </trkpt>
      <trkpt lat="44.00515" lon="6.90031">
        <ele>1175.4000244141</ele>
        <time>2020-09-12T12:26:24.000Z</time>
      </trkpt>
      <trkpt lat="44.00513" lon="6.90026">
        <ele>1174</ele>
        <time>2020-09-12T12:26:26.000Z</time>
      </trkpt>
      <trkpt lat="44.00511" lon="6.90019">
        <ele>1173</ele>
        <time>2020-09-12T12:26:28.000Z</time>
      </trkpt>
      <trkpt lat="44.00512" lon="6.90008">
        <ele>1172.4000244141</ele>
        <time>2020-09-12T12:26:30.000Z</time>
      </trkpt>
      <trkpt lat="44.00512" lon="6.90005">
        <ele>1172</ele>
        <time>2020-09-12T12:26:31.000Z</time>
      </trkpt>
      <trkpt lat="44.00511" lon="6.90003">
        <ele>1170.5999755859</ele>
        <time>2020-09-12T12:26:33.000Z</time>
      </trkpt>
      <trkpt lat="44.00511" lon="6.90004">
        <ele>1169.8000488281</ele>
        <time>2020-09-12T12:26:34.000Z</time>
      </trkpt>
      <trkpt lat="44.00511" lon="6.90003">
        <ele>1168.5999755859</ele>
        <time>2020-09-12T12:26:35.000Z</time>
      </trkpt>
      <trkpt lat="44.0051" lon="6.90004">
        <ele>1166.8000488281</ele>
        <time>2020-09-12T12:26:37.000Z</time>
      </trkpt>
      <trkpt lat="44.0051" lon="6.90004">
        <ele>1165.8000488281</ele>
        <time>2020-09-12T12:26:39.000Z</time>
      </trkpt>
      <trkpt lat="44.00506" lon="6.90005">
        <ele>1165.4000244141</ele>
        <time>2020-09-12T12:26:41.000Z</time>
      </trkpt>
      <trkpt lat="44.00497" lon="6.90008">
        <ele>1165</ele>
        <time>2020-09-12T12:26:46.000Z</time>
      </trkpt>
      <trkpt lat="44.00495" lon="6.9001">
        <ele>1164.8000488281</ele>
        <time>2020-09-12T12:26:47.000Z</time>
      </trkpt>
      <trkpt lat="44.00494" lon="6.90024">
        <ele>1163.5999755859</ele>
        <time>2020-09-12T12:26:50.000Z</time>
      </trkpt>
      <trkpt lat="44.00492" lon="6.90031">
        <ele>1161.8000488281</ele>
        <time>2020-09-12T12:26:52.000Z</time>
      </trkpt>
      <trkpt lat="44.0049" lon="6.90032">
        <ele>1160.8000488281</ele>
        <time>2020-09-12T12:26:53.000Z</time>
      </trkpt>
      <trkpt lat="44.00488" lon="6.90033">
        <ele>1159.8000488281</ele>
        <time>2020-09-12T12:26:54.000Z</time>
      </trkpt>
      <trkpt lat="44.00486" lon="6.90035">
        <ele>1158.1999511719</ele>
        <time>2020-09-12T12:26:56.000Z</time>
      </trkpt>
      <trkpt lat="44.00486" lon="6.90035">
        <ele>1157.5999755859</ele>
        <time>2020-09-12T12:26:57.000Z</time>
      </trkpt>
      <trkpt lat="44.00486" lon="6.90035">
        <ele>1156.8000488281</ele>
        <time>2020-09-12T12:26:58.000Z</time>
      </trkpt>
      <trkpt lat="44.00486" lon="6.90036">
        <ele>1155.8000488281</ele>
        <time>2020-09-12T12:27:00.000Z</time>
      </trkpt>
      <trkpt lat="44.00486" lon="6.90035">
        <ele>1154.8000488281</ele>
        <time>2020-09-12T12:27:03.000Z</time>
      </trkpt>
      <trkpt lat="44.00487" lon="6.90035">
        <ele>1154.5999755859</ele>
        <time>2020-09-12T12:27:04.000Z</time>
      </trkpt>
      <trkpt lat="44.00486" lon="6.90032">
        <ele>1154.5999755859</ele>
        <time>2020-09-12T12:27:08.000Z</time>
      </trkpt>
      <trkpt lat="44.00484" lon="6.90021">
        <ele>1154.5999755859</ele>
        <time>2020-09-12T12:27:14.000Z</time>
      </trkpt>
      <trkpt lat="44.00479" lon="6.90024">
        <ele>1154.1999511719</ele>
        <time>2020-09-12T12:27:17.000Z</time>
      </trkpt>
      <trkpt lat="44.00474" lon="6.90028">
        <ele>1153.4000244141</ele>
        <time>2020-09-12T12:27:19.000Z</time>
      </trkpt>
      <trkpt lat="44.00468" lon="6.90035">
        <ele>1152.1999511719</ele>
        <time>2020-09-12T12:27:21.000Z</time>
      </trkpt>
      <trkpt lat="44.00466" lon="6.90039">
        <ele>1151.8000488281</ele>
        <time>2020-09-12T12:27:22.000Z</time>
      </trkpt>
      <trkpt lat="44.00464" lon="6.90044">
        <ele>1151.1999511719</ele>
        <time>2020-09-12T12:27:23.000Z</time>
      </trkpt>
      <trkpt lat="44.00461" lon="6.90048">
        <ele>1150.1999511719</ele>
        <time>2020-09-12T12:27:25.000Z</time>
      </trkpt>
      <trkpt lat="44.00459" lon="6.9005">
        <ele>1149.5999755859</ele>
        <time>2020-09-12T12:27:26.000Z</time>
      </trkpt>
      <trkpt lat="44.00459" lon="6.90052">
        <ele>1148.4000244141</ele>
        <time>2020-09-12T12:27:27.000Z</time>
      </trkpt>
      <trkpt lat="44.00459" lon="6.90056">
        <ele>1147.4000244141</ele>
        <time>2020-09-12T12:27:28.000Z</time>
      </trkpt>
      <trkpt lat="44.00459" lon="6.9006">
        <ele>1146.1999511719</ele>
        <time>2020-09-12T12:27:29.000Z</time>
      </trkpt>
      <trkpt lat="44.00457" lon="6.90066">
        <ele>1144.4000244141</ele>
        <time>2020-09-12T12:27:31.000Z</time>
      </trkpt>
      <trkpt lat="44.00455" lon="6.90072">
        <ele>1142.8000488281</ele>
        <time>2020-09-12T12:27:33.000Z</time>
      </trkpt>
      <trkpt lat="44.00452" lon="6.90072">
        <ele>1141.1999511719</ele>
        <time>2020-09-12T12:27:35.000Z</time>
      </trkpt>
      <trkpt lat="44.00451" lon="6.90071">
        <ele>1140.4000244141</ele>
        <time>2020-09-12T12:27:36.000Z</time>
      </trkpt>
      <trkpt lat="44.00449" lon="6.90069">
        <ele>1139.4000244141</ele>
        <time>2020-09-12T12:27:37.000Z</time>
      </trkpt>
      <trkpt lat="44.00449" lon="6.90068">
        <ele>1138</ele>
        <time>2020-09-12T12:27:39.000Z</time>
      </trkpt>
      <trkpt lat="44.00448" lon="6.90067">
        <ele>1136.5999755859</ele>
        <time>2020-09-12T12:27:41.000Z</time>
      </trkpt>
      <trkpt lat="44.00448" lon="6.90067">
        <ele>1135.5999755859</ele>
        <time>2020-09-12T12:27:44.000Z</time>
      </trkpt>
      <trkpt lat="44.00448" lon="6.90067">
        <ele>1135.1999511719</ele>
        <time>2020-09-12T12:27:47.000Z</time>
      </trkpt>
      <trkpt lat="44.00447" lon="6.90069">
        <ele>1134.5999755859</ele>
        <time>2020-09-12T12:27:52.000Z</time>
      </trkpt>
      <trkpt lat="44.00445" lon="6.90068">
        <ele>1134.1999511719</ele>
        <time>2020-09-12T12:27:54.000Z</time>
      </trkpt>
      <trkpt lat="44.00445" lon="6.90068">
        <ele>1133.4000244141</ele>
        <time>2020-09-12T12:27:57.000Z</time>
      </trkpt>
      <trkpt lat="44.00444" lon="6.90069">
        <ele>1133.1999511719</ele>
        <time>2020-09-12T12:27:59.000Z</time>
      </trkpt>
      <trkpt lat="44.00442" lon="6.90068">
        <ele>1132.4000244141</ele>
        <time>2020-09-12T12:28:03.000Z</time>
      </trkpt>
      <trkpt lat="44.00441" lon="6.90068">
        <ele>1131.8000488281</ele>
        <time>2020-09-12T12:28:05.000Z</time>
      </trkpt>
      <trkpt lat="44.0044" lon="6.90067">
        <ele>1131.1999511719</ele>
        <time>2020-09-12T12:28:07.000Z</time>
      </trkpt>
      <trkpt lat="44.00438" lon="6.90066">
        <ele>1130.5999755859</ele>
        <time>2020-09-12T12:28:09.000Z</time>
      </trkpt>
      <trkpt lat="44.00437" lon="6.90067">
        <ele>1130.1999511719</ele>
        <time>2020-09-12T12:28:11.000Z</time>
      </trkpt>
      <trkpt lat="44.00437" lon="6.90069">
        <ele>1129</ele>
        <time>2020-09-12T12:28:15.000Z</time>
      </trkpt>
      <trkpt lat="44.00437" lon="6.90069">
        <ele>1128.5999755859</ele>
        <time>2020-09-12T12:28:16.000Z</time>
      </trkpt>
      <trkpt lat="44.00435" lon="6.9007">
        <ele>1127.8000488281</ele>
        <time>2020-09-12T12:28:20.000Z</time>
      </trkpt>
      <trkpt lat="44.00434" lon="6.9007">
        <ele>1127.1999511719</ele>
        <time>2020-09-12T12:28:22.000Z</time>
      </trkpt>
      <trkpt lat="44.00434" lon="6.90071">
        <ele>1126.8000488281</ele>
        <time>2020-09-12T12:28:24.000Z</time>
      </trkpt>
      <trkpt lat="44.00434" lon="6.90072">
        <ele>1126.1999511719</ele>
        <time>2020-09-12T12:28:30.000Z</time>
      </trkpt>
      <trkpt lat="44.00434" lon="6.90075">
        <ele>1125.8000488281</ele>
        <time>2020-09-12T12:28:35.000Z</time>
      </trkpt>
      <trkpt lat="44.00434" lon="6.90076">
        <ele>1125.1999511719</ele>
        <time>2020-09-12T12:28:37.000Z</time>
      </trkpt>
      <trkpt lat="44.00434" lon="6.90077">
        <ele>1125.1999511719</ele>
        <time>2020-09-12T12:28:38.000Z</time>
      </trkpt>
      <trkpt lat="44.00434" lon="6.90079">
        <ele>1124.5999755859</ele>
        <time>2020-09-12T12:28:40.000Z</time>
      </trkpt>
      <trkpt lat="44.00433" lon="6.90081">
        <ele>1123.8000488281</ele>
        <time>2020-09-12T12:28:43.000Z</time>
      </trkpt>
      <trkpt lat="44.00433" lon="6.90082">
        <ele>1123.4000244141</ele>
        <time>2020-09-12T12:28:44.000Z</time>
      </trkpt>
      <trkpt lat="44.00432" lon="6.90085">
        <ele>1122.1999511719</ele>
        <time>2020-09-12T12:28:48.000Z</time>
      </trkpt>
      <trkpt lat="44.00432" lon="6.90086">
        <ele>1121.5999755859</ele>
        <time>2020-09-12T12:28:51.000Z</time>
      </trkpt>
      <trkpt lat="44.00433" lon="6.90088">
        <ele>1121.1999511719</ele>
        <time>2020-09-12T12:28:54.000Z</time>
      </trkpt>
      <trkpt lat="44.00432" lon="6.90089">
        <ele>1121.4000244141</ele>
        <time>2020-09-12T12:28:59.000Z</time>
      </trkpt>
      <trkpt lat="44.0043" lon="6.90089">
        <ele>1121.4000244141</ele>
        <time>2020-09-12T12:29:01.000Z</time>
      </trkpt>
      <trkpt lat="44.00429" lon="6.90088">
        <ele>1120.5999755859</ele>
        <time>2020-09-12T12:29:03.000Z</time>
      </trkpt>
      <trkpt lat="44.00428" lon="6.90087">
        <ele>1120</ele>
        <time>2020-09-12T12:29:04.000Z</time>
      </trkpt>
      <trkpt lat="44.00427" lon="6.90085">
        <ele>1118.8000488281</ele>
        <time>2020-09-12T12:29:07.000Z</time>
      </trkpt>
      <trkpt lat="44.00427" lon="6.90085">
        <ele>1118.1999511719</ele>
        <time>2020-09-12T12:29:08.000Z</time>
      </trkpt>
      <trkpt lat="44.00427" lon="6.90082">
        <ele>1117.5999755859</ele>
        <time>2020-09-12T12:29:11.000Z</time>
      </trkpt>
      <trkpt lat="44.00426" lon="6.90079">
        <ele>1117.4000244141</ele>
        <time>2020-09-12T12:29:14.000Z</time>
      </trkpt>
      <trkpt lat="44.00425" lon="6.90077">
        <ele>1116.5999755859</ele>
        <time>2020-09-12T12:29:17.000Z</time>
      </trkpt>
      <trkpt lat="44.00423" lon="6.90078">
        <ele>1115.4000244141</ele>
        <time>2020-09-12T12:29:20.000Z</time>
      </trkpt>
      <trkpt lat="44.00422" lon="6.90081">
        <ele>1114.5999755859</ele>
        <time>2020-09-12T12:29:23.000Z</time>
      </trkpt>
      <trkpt lat="44.00422" lon="6.90082">
        <ele>1114.4000244141</ele>
        <time>2020-09-12T12:29:24.000Z</time>
      </trkpt>
      <trkpt lat="44.00422" lon="6.90086">
        <ele>1113.5999755859</ele>
        <time>2020-09-12T12:29:26.000Z</time>
      </trkpt>
      <trkpt lat="44.00422" lon="6.90088">
        <ele>1113.1999511719</ele>
        <time>2020-09-12T12:29:27.000Z</time>
      </trkpt>
      <trkpt lat="44.00421" lon="6.90094">
        <ele>1112.1999511719</ele>
        <time>2020-09-12T12:29:32.000Z</time>
      </trkpt>
      <trkpt lat="44.00421" lon="6.90095">
        <ele>1112</ele>
        <time>2020-09-12T12:29:33.000Z</time>
      </trkpt>
      <trkpt lat="44.0042" lon="6.90099">
        <ele>1111</ele>
        <time>2020-09-12T12:29:40.000Z</time>
      </trkpt>
      <trkpt lat="44.0042" lon="6.90101">
        <ele>1111</ele>
        <time>2020-09-12T12:29:41.000Z</time>
      </trkpt>
      <trkpt lat="44.00419" lon="6.90103">
        <ele>1110.1999511719</ele>
        <time>2020-09-12T12:29:45.000Z</time>
      </trkpt>
      <trkpt lat="44.00418" lon="6.90106">
        <ele>1110</ele>
        <time>2020-09-12T12:29:47.000Z</time>
      </trkpt>
      <trkpt lat="44.00418" lon="6.90107">
        <ele>1110</ele>
        <time>2020-09-12T12:29:48.000Z</time>
      </trkpt>
      <trkpt lat="44.00418" lon="6.9011">
        <ele>1110</ele>
        <time>2020-09-12T12:29:50.000Z</time>
      </trkpt>
      <trkpt lat="44.00417" lon="6.90111">
        <ele>1110.1999511719</ele>
        <time>2020-09-12T12:29:51.000Z</time>
      </trkpt>
      <trkpt lat="44.00414" lon="6.90114">
        <ele>1110.8000488281</ele>
        <time>2020-09-12T12:29:55.000Z</time>
      </trkpt>
      <trkpt lat="44.00414" lon="6.90115">
        <ele>1110.8000488281</ele>
        <time>2020-09-12T12:29:56.000Z</time>
      </trkpt>
      <trkpt lat="44.00413" lon="6.90117">
        <ele>1111</ele>
        <time>2020-09-12T12:29:58.000Z</time>
      </trkpt>
      <trkpt lat="44.00413" lon="6.90119">
        <ele>1111.4000244141</ele>
        <time>2020-09-12T12:30:01.000Z</time>
      </trkpt>
      <trkpt lat="44.0041" lon="6.90119">
        <ele>1111.4000244141</ele>
        <time>2020-09-12T12:30:08.000Z</time>
      </trkpt>
      <trkpt lat="44.00407" lon="6.90121">
        <ele>1110.1999511719</ele>
        <time>2020-09-12T12:30:14.000Z</time>
      </trkpt>
      <trkpt lat="44.00407" lon="6.90122">
        <ele>1110</ele>
        <time>2020-09-12T12:30:15.000Z</time>
      </trkpt>
      <trkpt lat="44.00404" lon="6.90125">
        <ele>1108.8000488281</ele>
        <time>2020-09-12T12:30:20.000Z</time>
      </trkpt>
      <trkpt lat="44.00402" lon="6.90123">
        <ele>1108</ele>
        <time>2020-09-12T12:30:25.000Z</time>
      </trkpt>
      <trkpt lat="44.00401" lon="6.90121">
        <ele>1107.5999755859</ele>
        <time>2020-09-12T12:30:27.000Z</time>
      </trkpt>
      <trkpt lat="44.004" lon="6.90121">
        <ele>1106.8000488281</ele>
        <time>2020-09-12T12:30:31.000Z</time>
      </trkpt>
      <trkpt lat="44.004" lon="6.90121">
        <ele>1106.5999755859</ele>
        <time>2020-09-12T12:30:32.000Z</time>
      </trkpt>
      <trkpt lat="44.00401" lon="6.90122">
        <ele>1106.4000244141</ele>
        <time>2020-09-12T12:30:36.000Z</time>
      </trkpt>
      <trkpt lat="44.004" lon="6.90121">
        <ele>1105.8000488281</ele>
        <time>2020-09-12T12:30:42.000Z</time>
      </trkpt>
      <trkpt lat="44.004" lon="6.90122">
        <ele>1105.5999755859</ele>
        <time>2020-09-12T12:30:45.000Z</time>
      </trkpt>
      <trkpt lat="44.00401" lon="6.90122">
        <ele>1105.5999755859</ele>
        <time>2020-09-12T12:30:50.000Z</time>
      </trkpt>
      <trkpt lat="44.00402" lon="6.90124">
        <ele>1105.5999755859</ele>
        <time>2020-09-12T12:30:55.000Z</time>
      </trkpt>
      <trkpt lat="44.00404" lon="6.90127">
        <ele>1106.5999755859</ele>
        <time>2020-09-12T12:31:01.000Z</time>
      </trkpt>
      <trkpt lat="44.00404" lon="6.90127">
        <ele>1107</ele>
        <time>2020-09-12T12:31:03.000Z</time>
      </trkpt>
      <trkpt lat="44.00404" lon="6.90128">
        <ele>1107.1999511719</ele>
        <time>2020-09-12T12:31:11.000Z</time>
      </trkpt>
      <trkpt lat="44.00404" lon="6.90129">
        <ele>1107.1999511719</ele>
        <time>2020-09-12T12:31:21.000Z</time>
      </trkpt>
      <trkpt lat="44.00407" lon="6.90132">
        <ele>1107.4000244141</ele>
        <time>2020-09-12T12:31:27.000Z</time>
      </trkpt>
      <trkpt lat="44.00407" lon="6.90133">
        <ele>1107.4000244141</ele>
        <time>2020-09-12T12:31:28.000Z</time>
      </trkpt>
      <trkpt lat="44.00409" lon="6.90135">
        <ele>1106.5999755859</ele>
        <time>2020-09-12T12:31:33.000Z</time>
      </trkpt>
      <trkpt lat="44.00408" lon="6.90141">
        <ele>1106</ele>
        <time>2020-09-12T12:31:40.000Z</time>
      </trkpt>
      <trkpt lat="44.00412" lon="6.90149">
        <ele>1107.1999511719</ele>
        <time>2020-09-12T12:31:47.000Z</time>
      </trkpt>
      <trkpt lat="44.00414" lon="6.90152">
        <ele>1107.5999755859</ele>
        <time>2020-09-12T12:31:50.000Z</time>
      </trkpt>
      <trkpt lat="44.00416" lon="6.90156">
        <ele>1107.8000488281</ele>
        <time>2020-09-12T12:31:54.000Z</time>
      </trkpt>
      <trkpt lat="44.00419" lon="6.90163">
        <ele>1107.1999511719</ele>
        <time>2020-09-12T12:32:00.000Z</time>
      </trkpt>
      <trkpt lat="44.00419" lon="6.90164">
        <ele>1106.4000244141</ele>
        <time>2020-09-12T12:32:03.000Z</time>
      </trkpt>
      <trkpt lat="44.0042" lon="6.90165">
        <ele>1106.1999511719</ele>
        <time>2020-09-12T12:32:04.000Z</time>
      </trkpt>
      <trkpt lat="44.0042" lon="6.90165">
        <ele>1106.1999511719</ele>
        <time>2020-09-12T12:32:05.000Z</time>
      </trkpt>
      <trkpt lat="44.00421" lon="6.90167">
        <ele>1105.4000244141</ele>
        <time>2020-09-12T12:32:09.000Z</time>
      </trkpt>
      <trkpt lat="44.00421" lon="6.90167">
        <ele>1105.1999511719</ele>
        <time>2020-09-12T12:32:10.000Z</time>
      </trkpt>
      <trkpt lat="44.00422" lon="6.90169">
        <ele>1104.8000488281</ele>
        <time>2020-09-12T12:32:17.000Z</time>
      </trkpt>
      <trkpt lat="44.00422" lon="6.90168">
        <ele>1104.8000488281</ele>
        <time>2020-09-12T12:32:24.000Z</time>
      </trkpt>
      <trkpt lat="44.00422" lon="6.90169">
        <ele>1105.1999511719</ele>
        <time>2020-09-12T12:32:29.000Z</time>
      </trkpt>
      <trkpt lat="44.00422" lon="6.90169">
        <ele>1105.4000244141</ele>
        <time>2020-09-12T12:32:40.000Z</time>
      </trkpt>
      <trkpt lat="44.00423" lon="6.90169">
        <ele>1105.5999755859</ele>
        <time>2020-09-12T12:32:49.000Z</time>
      </trkpt>
      <trkpt lat="44.00424" lon="6.9017">
        <ele>1105.4000244141</ele>
        <time>2020-09-12T12:32:55.000Z</time>
      </trkpt>
      <trkpt lat="44.00424" lon="6.90169">
        <ele>1105.1999511719</ele>
        <time>2020-09-12T12:33:06.000Z</time>
      </trkpt>
      <trkpt lat="44.00425" lon="6.90166">
        <ele>1104.5999755859</ele>
        <time>2020-09-12T12:33:16.000Z</time>
      </trkpt>
      <trkpt lat="44.00426" lon="6.90165">
        <ele>1103</ele>
        <time>2020-09-12T12:33:18.000Z</time>
      </trkpt>
      <trkpt lat="44.00431" lon="6.9017">
        <ele>1103.8000488281</ele>
        <time>2020-09-12T12:33:26.000Z</time>
      </trkpt>
      <trkpt lat="44.00434" lon="6.90172">
        <ele>1103.5999755859</ele>
        <time>2020-09-12T12:33:31.000Z</time>
      </trkpt>
      <trkpt lat="44.00433" lon="6.90173">
        <ele>1103.5999755859</ele>
        <time>2020-09-12T12:33:33.000Z</time>
      </trkpt>
      <trkpt lat="44.00434" lon="6.90172">
        <ele>1103.4000244141</ele>
        <time>2020-09-12T12:33:36.000Z</time>
      </trkpt>
      <trkpt lat="44.00436" lon="6.90173">
        <ele>1103.4000244141</ele>
        <time>2020-09-12T12:33:41.000Z</time>
      </trkpt>
      <trkpt lat="44.00436" lon="6.90166">
        <ele>1103.4000244141</ele>
        <time>2020-09-12T12:33:46.000Z</time>
      </trkpt>
      <trkpt lat="44.00431" lon="6.90163">
        <ele>1103.4000244141</ele>
        <time>2020-09-12T12:33:50.000Z</time>
      </trkpt>
      <trkpt lat="44.00427" lon="6.90165">
        <ele>1103.4000244141</ele>
        <time>2020-09-12T12:33:52.000Z</time>
      </trkpt>
      <trkpt lat="44.00429" lon="6.90164">
        <ele>1103.5999755859</ele>
        <time>2020-09-12T12:33:56.000Z</time>
      </trkpt>
      <trkpt lat="44.00431" lon="6.90161">
        <ele>1103.4000244141</ele>
        <time>2020-09-12T12:33:58.000Z</time>
      </trkpt>
      <trkpt lat="44.00431" lon="6.90161">
        <ele>1103.4000244141</ele>
        <time>2020-09-12T12:34:02.000Z</time>
      </trkpt>
      <trkpt lat="44.00431" lon="6.90162">
        <ele>1103.4000244141</ele>
        <time>2020-09-12T12:34:03.000Z</time>
      </trkpt>
      <trkpt lat="44.00427" lon="6.90168">
        <ele>1103.5999755859</ele>
        <time>2020-09-12T12:34:07.000Z</time>
      </trkpt>
      <trkpt lat="44.00426" lon="6.90169">
        <ele>1103.5999755859</ele>
        <time>2020-09-12T12:34:08.000Z</time>
      </trkpt>
      <trkpt lat="44.00426" lon="6.90171">
        <ele>1103.5999755859</ele>
        <time>2020-09-12T12:34:09.000Z</time>
      </trkpt>
      <trkpt lat="44.00426" lon="6.9017">
        <ele>1103.5999755859</ele>
        <time>2020-09-12T12:34:11.000Z</time>
      </trkpt>
      <trkpt lat="44.00426" lon="6.90168">
        <ele>1103.5999755859</ele>
        <time>2020-09-12T12:34:12.000Z</time>
      </trkpt>
      <trkpt lat="44.00428" lon="6.90166">
        <ele>1103.8000488281</ele>
        <time>2020-09-12T12:34:14.000Z</time>
      </trkpt>
      <trkpt lat="44.00428" lon="6.90162">
        <ele>1103.8000488281</ele>
        <time>2020-09-12T12:34:17.000Z</time>
      </trkpt>
      <trkpt lat="44.00429" lon="6.90163">
        <ele>1104</ele>
        <time>2020-09-12T12:34:18.000Z</time>
      </trkpt>
      <trkpt lat="44.0043" lon="6.9016">
        <ele>1104.4000244141</ele>
        <time>2020-09-12T12:34:24.000Z</time>
      </trkpt>
      <trkpt lat="44.0043" lon="6.90158">
        <ele>1104</ele>
        <time>2020-09-12T12:34:31.000Z</time>
      </trkpt>
      <trkpt lat="44.0043" lon="6.90157">
        <ele>1104.8000488281</ele>
        <time>2020-09-12T12:34:35.000Z</time>
      </trkpt>
      <trkpt lat="44.0043" lon="6.90157">
        <ele>1105.1999511719</ele>
        <time>2020-09-12T12:34:36.000Z</time>
      </trkpt>
      <trkpt lat="44.00431" lon="6.90154">
        <ele>1105.4000244141</ele>
        <time>2020-09-12T12:34:43.000Z</time>
      </trkpt>
      <trkpt lat="44.00431" lon="6.90151">
        <ele>1105.4000244141</ele>
        <time>2020-09-12T12:34:52.000Z</time>
      </trkpt>
      <trkpt lat="44.00432" lon="6.90147">
        <ele>1105.1999511719</ele>
        <time>2020-09-12T12:35:04.000Z</time>
      </trkpt>
      <trkpt lat="44.00433" lon="6.90147">
        <ele>1105.1999511719</ele>
        <time>2020-09-12T12:35:19.000Z</time>
      </trkpt>
      <trkpt lat="44.00432" lon="6.9015">
        <ele>1105.1999511719</ele>
        <time>2020-09-12T12:35:32.000Z</time>
      </trkpt>
      <trkpt lat="44.00431" lon="6.90153">
        <ele>1105.1999511719</ele>
        <time>2020-09-12T12:35:42.000Z</time>
      </trkpt>
      <trkpt lat="44.00433" lon="6.90157">
        <ele>1105.1999511719</ele>
        <time>2020-09-12T12:35:51.000Z</time>
      </trkpt>
      <trkpt lat="44.00432" lon="6.90159">
        <ele>1105</ele>
        <time>2020-09-12T12:35:59.000Z</time>
      </trkpt>
      <trkpt lat="44.00429" lon="6.90158">
        <ele>1104.8000488281</ele>
        <time>2020-09-12T12:36:01.000Z</time>
      </trkpt>
      <trkpt lat="44.00428" lon="6.90157">
        <ele>1104.4000244141</ele>
        <time>2020-09-12T12:36:03.000Z</time>
      </trkpt>
      <trkpt lat="44.00426" lon="6.90163">
        <ele>1105</ele>
        <time>2020-09-12T12:36:08.000Z</time>
      </trkpt>
      <trkpt lat="44.00424" lon="6.90164">
        <ele>1105.1999511719</ele>
        <time>2020-09-12T12:36:14.000Z</time>
      </trkpt>
      <trkpt lat="44.00423" lon="6.90163">
        <ele>1104.8000488281</ele>
        <time>2020-09-12T12:36:25.000Z</time>
      </trkpt>
      <trkpt lat="44.00424" lon="6.90162">
        <ele>1104.8000488281</ele>
        <time>2020-09-12T12:36:36.000Z</time>
      </trkpt>
      <trkpt lat="44.00424" lon="6.90163">
        <ele>1105</ele>
        <time>2020-09-12T12:36:44.000Z</time>
      </trkpt>
      <trkpt lat="44.00423" lon="6.90162">
        <ele>1104.8000488281</ele>
        <time>2020-09-12T12:36:53.000Z</time>
      </trkpt>
      <trkpt lat="44.00424" lon="6.90163">
        <ele>1104.8000488281</ele>
        <time>2020-09-12T12:37:01.000Z</time>
      </trkpt>
      <trkpt lat="44.00424" lon="6.90165">
        <ele>1104.5999755859</ele>
        <time>2020-09-12T12:37:11.000Z</time>
      </trkpt>
      <trkpt lat="44.00424" lon="6.90166">
        <ele>1104.4000244141</ele>
        <time>2020-09-12T12:37:17.000Z</time>
      </trkpt>
      <trkpt lat="44.00421" lon="6.90166">
        <ele>1104.1999511719</ele>
        <time>2020-09-12T12:37:19.000Z</time>
      </trkpt>
      <trkpt lat="44.00419" lon="6.90164">
        <ele>1104.1999511719</ele>
        <time>2020-09-12T12:37:21.000Z</time>
      </trkpt>
      <trkpt lat="44.00419" lon="6.90164">
        <ele>1104.5999755859</ele>
        <time>2020-09-12T12:37:26.000Z</time>
      </trkpt>
      <trkpt lat="44.00421" lon="6.90163">
        <ele>1104</ele>
        <time>2020-09-12T12:37:31.000Z</time>
      </trkpt>
      <trkpt lat="44.00421" lon="6.90163">
        <ele>1104.1999511719</ele>
        <time>2020-09-12T12:37:33.000Z</time>
      </trkpt>
      <trkpt lat="44.00423" lon="6.90162">
        <ele>1104.4000244141</ele>
        <time>2020-09-12T12:37:48.000Z</time>
      </trkpt>
      <trkpt lat="44.00425" lon="6.90161">
        <ele>1104.4000244141</ele>
        <time>2020-09-12T12:37:54.000Z</time>
      </trkpt>
      <trkpt lat="44.00427" lon="6.9016">
        <ele>1104.4000244141</ele>
        <time>2020-09-12T12:37:59.000Z</time>
      </trkpt>
      <trkpt lat="44.00428" lon="6.90157">
        <ele>1104.4000244141</ele>
        <time>2020-09-12T12:38:04.000Z</time>
      </trkpt>
      <trkpt lat="44.00428" lon="6.90162">
        <ele>1104.5999755859</ele>
        <time>2020-09-12T12:38:12.000Z</time>
      </trkpt>
      <trkpt lat="44.00428" lon="6.90162">
        <ele>1104.5999755859</ele>
        <time>2020-09-12T12:38:16.000Z</time>
      </trkpt>
      <trkpt lat="44.00427" lon="6.90158">
        <ele>1104.5999755859</ele>
        <time>2020-09-12T12:38:26.000Z</time>
      </trkpt>
      <trkpt lat="44.00428" lon="6.90159">
        <ele>1104.5999755859</ele>
        <time>2020-09-12T12:38:38.000Z</time>
      </trkpt>
      <trkpt lat="44.00429" lon="6.90159">
        <ele>1104.4000244141</ele>
        <time>2020-09-12T12:38:47.000Z</time>
      </trkpt>
      <trkpt lat="44.0043" lon="6.9016">
        <ele>1104.8000488281</ele>
        <time>2020-09-12T12:38:55.000Z</time>
      </trkpt>
      <trkpt lat="44.00431" lon="6.90161">
        <ele>1104.8000488281</ele>
        <time>2020-09-12T12:39:12.000Z</time>
      </trkpt>
      <trkpt lat="44.00432" lon="6.90163">
        <ele>1104.8000488281</ele>
        <time>2020-09-12T12:39:31.000Z</time>
      </trkpt>
      <trkpt lat="44.00432" lon="6.90162">
        <ele>1104.8000488281</ele>
        <time>2020-09-12T12:39:44.000Z</time>
      </trkpt>
      <trkpt lat="44.00431" lon="6.90165">
        <ele>1104.8000488281</ele>
        <time>2020-09-12T12:40:01.000Z</time>
      </trkpt>
      <trkpt lat="44.00431" lon="6.90167">
        <ele>1104.8000488281</ele>
        <time>2020-09-12T12:40:20.000Z</time>
      </trkpt>
      <trkpt lat="44.0043" lon="6.90168">
        <ele>1105</ele>
        <time>2020-09-12T12:40:36.000Z</time>
      </trkpt>
      <trkpt lat="44.00429" lon="6.90171">
        <ele>1105</ele>
        <time>2020-09-12T12:40:52.000Z</time>
      </trkpt>
      <trkpt lat="44.00429" lon="6.90172">
        <ele>1105</ele>
        <time>2020-09-12T12:40:59.000Z</time>
      </trkpt>
      <trkpt lat="44.00429" lon="6.90173">
        <ele>1105.1999511719</ele>
        <time>2020-09-12T12:41:06.000Z</time>
      </trkpt>
      <trkpt lat="44.00429" lon="6.90172">
        <ele>1105</ele>
        <time>2020-09-12T12:41:21.000Z</time>
      </trkpt>
      <trkpt lat="44.0043" lon="6.9017">
        <ele>1105</ele>
        <time>2020-09-12T12:41:34.000Z</time>
      </trkpt>
      <trkpt lat="44.00431" lon="6.90168">
        <ele>1105</ele>
        <time>2020-09-12T12:41:47.000Z</time>
      </trkpt>
      <trkpt lat="44.0043" lon="6.9017">
        <ele>1105</ele>
        <time>2020-09-12T12:42:04.000Z</time>
      </trkpt>
      <trkpt lat="44.0043" lon="6.90171">
        <ele>1105</ele>
        <time>2020-09-12T12:42:18.000Z</time>
      </trkpt>
      <trkpt lat="44.00428" lon="6.90174">
        <ele>1105</ele>
        <time>2020-09-12T12:42:31.000Z</time>
      </trkpt>
      <trkpt lat="44.00427" lon="6.90177">
        <ele>1105.1999511719</ele>
        <time>2020-09-12T12:42:45.000Z</time>
      </trkpt>
      <trkpt lat="44.00427" lon="6.90176">
        <ele>1105</ele>
        <time>2020-09-12T12:42:55.000Z</time>
      </trkpt>
      <trkpt lat="44.00428" lon="6.90172">
        <ele>1105</ele>
        <time>2020-09-12T12:43:09.000Z</time>
      </trkpt>
      <trkpt lat="44.00429" lon="6.90169">
        <ele>1105.1999511719</ele>
        <time>2020-09-12T12:43:19.000Z</time>
      </trkpt>
      <trkpt lat="44.0043" lon="6.90168">
        <ele>1105.1999511719</ele>
        <time>2020-09-12T12:43:34.000Z</time>
      </trkpt>
      <trkpt lat="44.0043" lon="6.90169">
        <ele>1105</ele>
        <time>2020-09-12T12:43:46.000Z</time>
      </trkpt>
      <trkpt lat="44.00431" lon="6.90167">
        <ele>1105</ele>
        <time>2020-09-12T12:43:55.000Z</time>
      </trkpt>
      <trkpt lat="44.00431" lon="6.90166">
        <ele>1105.1999511719</ele>
        <time>2020-09-12T12:44:09.000Z</time>
      </trkpt>
      <trkpt lat="44.00431" lon="6.90167">
        <ele>1105</ele>
        <time>2020-09-12T12:44:22.000Z</time>
      </trkpt>
      <trkpt lat="44.00432" lon="6.90165">
        <ele>1105</ele>
        <time>2020-09-12T12:44:37.000Z</time>
      </trkpt>
      <trkpt lat="44.00431" lon="6.90164">
        <ele>1104</ele>
        <time>2020-09-12T12:44:44.000Z</time>
      </trkpt>
      <trkpt lat="44.00432" lon="6.90162">
        <ele>1104</ele>
        <time>2020-09-12T12:44:49.000Z</time>
      </trkpt>
      <trkpt lat="44.00431" lon="6.90161">
        <ele>1104</ele>
        <time>2020-09-12T12:44:55.000Z</time>
      </trkpt>
      <trkpt lat="44.00431" lon="6.90159">
        <ele>1103.8000488281</ele>
        <time>2020-09-12T12:45:01.000Z</time>
      </trkpt>
      <trkpt lat="44.0043" lon="6.90162">
        <ele>1103.8000488281</ele>
        <time>2020-09-12T12:45:06.000Z</time>
      </trkpt>
      <trkpt lat="44.00431" lon="6.9016">
        <ele>1103.8000488281</ele>
        <time>2020-09-12T12:45:12.000Z</time>
      </trkpt>
      <trkpt lat="44.00431" lon="6.90159">
        <ele>1103.8000488281</ele>
        <time>2020-09-12T12:45:18.000Z</time>
      </trkpt>
      <trkpt lat="44.00431" lon="6.90164">
        <ele>1103.8000488281</ele>
        <time>2020-09-12T12:45:22.000Z</time>
      </trkpt>
      <trkpt lat="44.00432" lon="6.90161">
        <ele>1104</ele>
        <time>2020-09-12T12:45:28.000Z</time>
      </trkpt>
      <trkpt lat="44.0043" lon="6.90164">
        <ele>1104.5999755859</ele>
        <time>2020-09-12T12:45:33.000Z</time>
      </trkpt>
      <trkpt lat="44.0043" lon="6.90165">
        <ele>1104.4000244141</ele>
        <time>2020-09-12T12:45:35.000Z</time>
      </trkpt>
      <trkpt lat="44.0043" lon="6.90167">
        <ele>1104</ele>
        <time>2020-09-12T12:45:37.000Z</time>
      </trkpt>
      <trkpt lat="44.00429" lon="6.90166">
        <ele>1103.8000488281</ele>
        <time>2020-09-12T12:45:39.000Z</time>
      </trkpt>
      <trkpt lat="44.00428" lon="6.90167">
        <ele>1104.1999511719</ele>
        <time>2020-09-12T12:45:44.000Z</time>
      </trkpt>
      <trkpt lat="44.00428" lon="6.90162">
        <ele>1104.4000244141</ele>
        <time>2020-09-12T12:45:51.000Z</time>
      </trkpt>
      <trkpt lat="44.00429" lon="6.90163">
        <ele>1104.5999755859</ele>
        <time>2020-09-12T12:46:04.000Z</time>
      </trkpt>
      <trkpt lat="44.00429" lon="6.90164">
        <ele>1104.8000488281</ele>
        <time>2020-09-12T12:46:09.000Z</time>
      </trkpt>
      <trkpt lat="44.00428" lon="6.90165">
        <ele>1105</ele>
        <time>2020-09-12T12:46:10.000Z</time>
      </trkpt>
      <trkpt lat="44.00428" lon="6.90167">
        <ele>1105.1999511719</ele>
        <time>2020-09-12T12:46:21.000Z</time>
      </trkpt>
      <trkpt lat="44.00427" lon="6.90169">
        <ele>1105.4000244141</ele>
        <time>2020-09-12T12:46:26.000Z</time>
      </trkpt>
      <trkpt lat="44.00425" lon="6.9017">
        <ele>1105.4000244141</ele>
        <time>2020-09-12T12:46:36.000Z</time>
      </trkpt>
      <trkpt lat="44.00426" lon="6.9017">
        <ele>1105.4000244141</ele>
        <time>2020-09-12T12:46:46.000Z</time>
      </trkpt>
      <trkpt lat="44.00425" lon="6.9017">
        <ele>1105.4000244141</ele>
        <time>2020-09-12T12:47:01.000Z</time>
      </trkpt>
      <trkpt lat="44.00424" lon="6.90171">
        <ele>1105.4000244141</ele>
        <time>2020-09-12T12:47:10.000Z</time>
      </trkpt>
      <trkpt lat="44.00425" lon="6.9017">
        <ele>1105.5999755859</ele>
        <time>2020-09-12T12:47:18.000Z</time>
      </trkpt>
      <trkpt lat="44.00427" lon="6.90171">
        <ele>1105.8000488281</ele>
        <time>2020-09-12T12:47:24.000Z</time>
      </trkpt>
      <trkpt lat="44.00428" lon="6.90173">
        <ele>1106</ele>
        <time>2020-09-12T12:47:29.000Z</time>
      </trkpt>
      <trkpt lat="44.00428" lon="6.90172">
        <ele>1106.1999511719</ele>
        <time>2020-09-12T12:47:30.000Z</time>
      </trkpt>
      <trkpt lat="44.00428" lon="6.90174">
        <ele>1107.1999511719</ele>
        <time>2020-09-12T12:47:35.000Z</time>
      </trkpt>
      <trkpt lat="44.00428" lon="6.90174">
        <ele>1107.5999755859</ele>
        <time>2020-09-12T12:47:38.000Z</time>
      </trkpt>
      <trkpt lat="44.00426" lon="6.90174">
        <ele>1107.1999511719</ele>
        <time>2020-09-12T12:47:44.000Z</time>
      </trkpt>
      <trkpt lat="44.00425" lon="6.90173">
        <ele>1108.1999511719</ele>
        <time>2020-09-12T12:47:49.000Z</time>
      </trkpt>
      <trkpt lat="44.00425" lon="6.90173">
        <ele>1108.5999755859</ele>
        <time>2020-09-12T12:47:51.000Z</time>
      </trkpt>
      <trkpt lat="44.00423" lon="6.90173">
        <ele>1109.4000244141</ele>
        <time>2020-09-12T12:47:54.000Z</time>
      </trkpt>
      <trkpt lat="44.00422" lon="6.9017">
        <ele>1110.4000244141</ele>
        <time>2020-09-12T12:47:59.000Z</time>
      </trkpt>
      <trkpt lat="44.0042" lon="6.90166">
        <ele>1111.4000244141</ele>
        <time>2020-09-12T12:48:05.000Z</time>
      </trkpt>
      <trkpt lat="44.00419" lon="6.90166">
        <ele>1111.8000488281</ele>
        <time>2020-09-12T12:48:07.000Z</time>
      </trkpt>
      <trkpt lat="44.00418" lon="6.90165">
        <ele>1112.5999755859</ele>
        <time>2020-09-12T12:48:12.000Z</time>
      </trkpt>
      <trkpt lat="44.00416" lon="6.90164">
        <ele>1113.4000244141</ele>
        <time>2020-09-12T12:48:15.000Z</time>
      </trkpt>
      <trkpt lat="44.00416" lon="6.90164">
        <ele>1113.5999755859</ele>
        <time>2020-09-12T12:48:16.000Z</time>
      </trkpt>
      <trkpt lat="44.00414" lon="6.90164">
        <ele>1114.8000488281</ele>
        <time>2020-09-12T12:48:22.000Z</time>
      </trkpt>
      <trkpt lat="44.00414" lon="6.90164">
        <ele>1115.4000244141</ele>
        <time>2020-09-12T12:48:25.000Z</time>
      </trkpt>
      <trkpt lat="44.00413" lon="6.90165">
        <ele>1115.8000488281</ele>
        <time>2020-09-12T12:48:27.000Z</time>
      </trkpt>
      <trkpt lat="44.00412" lon="6.90165">
        <ele>1116.5999755859</ele>
        <time>2020-09-12T12:48:31.000Z</time>
      </trkpt>
      <trkpt lat="44.00412" lon="6.90165">
        <ele>1116.8000488281</ele>
        <time>2020-09-12T12:48:33.000Z</time>
      </trkpt>
      <trkpt lat="44.00409" lon="6.90166">
        <ele>1117.8000488281</ele>
        <time>2020-09-12T12:48:38.000Z</time>
      </trkpt>
      <trkpt lat="44.00409" lon="6.90166">
        <ele>1118</ele>
        <time>2020-09-12T12:48:39.000Z</time>
      </trkpt>
      <trkpt lat="44.00406" lon="6.90167">
        <ele>1118.4000244141</ele>
        <time>2020-09-12T12:48:43.000Z</time>
      </trkpt>
      <trkpt lat="44.00404" lon="6.90165">
        <ele>1118.8000488281</ele>
        <time>2020-09-12T12:48:46.000Z</time>
      </trkpt>
      <trkpt lat="44.00401" lon="6.90163">
        <ele>1118.5999755859</ele>
        <time>2020-09-12T12:48:50.000Z</time>
      </trkpt>
      <trkpt lat="44.004" lon="6.90161">
        <ele>1118.5999755859</ele>
        <time>2020-09-12T12:48:52.000Z</time>
      </trkpt>
      <trkpt lat="44.00399" lon="6.90159">
        <ele>1119</ele>
        <time>2020-09-12T12:48:54.000Z</time>
      </trkpt>
      <trkpt lat="44.00398" lon="6.90158">
        <ele>1119.1999511719</ele>
        <time>2020-09-12T12:48:56.000Z</time>
      </trkpt>
      <trkpt lat="44.00397" lon="6.90158">
        <ele>1119.8000488281</ele>
        <time>2020-09-12T12:48:59.000Z</time>
      </trkpt>
      <trkpt lat="44.00391" lon="6.90153">
        <ele>1119.8000488281</ele>
        <time>2020-09-12T12:49:05.000Z</time>
      </trkpt>
      <trkpt lat="44.00389" lon="6.90149">
        <ele>1120</ele>
        <time>2020-09-12T12:49:07.000Z</time>
      </trkpt>
      <trkpt lat="44.00384" lon="6.90138">
        <ele>1120.1999511719</ele>
        <time>2020-09-12T12:49:10.000Z</time>
      </trkpt>
      <trkpt lat="44.00381" lon="6.90136">
        <ele>1120.1999511719</ele>
        <time>2020-09-12T12:49:11.000Z</time>
      </trkpt>
      <trkpt lat="44.00377" lon="6.90134">
        <ele>1120.1999511719</ele>
        <time>2020-09-12T12:49:13.000Z</time>
      </trkpt>
      <trkpt lat="44.00376" lon="6.90134">
        <ele>1120.1999511719</ele>
        <time>2020-09-12T12:49:14.000Z</time>
      </trkpt>
      <trkpt lat="44.00374" lon="6.90132">
        <ele>1120.4000244141</ele>
        <time>2020-09-12T12:49:17.000Z</time>
      </trkpt>
      <trkpt lat="44.00369" lon="6.90128">
        <ele>1121.1999511719</ele>
        <time>2020-09-12T12:49:22.000Z</time>
      </trkpt>
      <trkpt lat="44.00368" lon="6.90127">
        <ele>1121.4000244141</ele>
        <time>2020-09-12T12:49:24.000Z</time>
      </trkpt>
      <trkpt lat="44.00368" lon="6.90126">
        <ele>1121.4000244141</ele>
        <time>2020-09-12T12:49:25.000Z</time>
      </trkpt>
      <trkpt lat="44.00367" lon="6.90117">
        <ele>1122.1999511719</ele>
        <time>2020-09-12T12:49:30.000Z</time>
      </trkpt>
      <trkpt lat="44.00368" lon="6.90115">
        <ele>1123</ele>
        <time>2020-09-12T12:49:33.000Z</time>
      </trkpt>
      <trkpt lat="44.00369" lon="6.90115">
        <ele>1123.1999511719</ele>
        <time>2020-09-12T12:49:34.000Z</time>
      </trkpt>
      <trkpt lat="44.00369" lon="6.90115">
        <ele>1123.4000244141</ele>
        <time>2020-09-12T12:49:36.000Z</time>
      </trkpt>
      <trkpt lat="44.00369" lon="6.90111">
        <ele>1124</ele>
        <time>2020-09-12T12:49:42.000Z</time>
      </trkpt>
      <trkpt lat="44.00368" lon="6.9011">
        <ele>1124.4000244141</ele>
        <time>2020-09-12T12:49:44.000Z</time>
      </trkpt>
      <trkpt lat="44.00363" lon="6.90108">
        <ele>1125.5999755859</ele>
        <time>2020-09-12T12:49:49.000Z</time>
      </trkpt>
      <trkpt lat="44.00359" lon="6.90107">
        <ele>1126.5999755859</ele>
        <time>2020-09-12T12:49:54.000Z</time>
      </trkpt>
      <trkpt lat="44.00357" lon="6.90104">
        <ele>1127</ele>
        <time>2020-09-12T12:49:57.000Z</time>
      </trkpt>
      <trkpt lat="44.00357" lon="6.90102">
        <ele>1127.4000244141</ele>
        <time>2020-09-12T12:50:02.000Z</time>
      </trkpt>
      <trkpt lat="44.00357" lon="6.90101">
        <ele>1127.5999755859</ele>
        <time>2020-09-12T12:50:08.000Z</time>
      </trkpt>
      <trkpt lat="44.00356" lon="6.90102">
        <ele>1127.1999511719</ele>
        <time>2020-09-12T12:50:18.000Z</time>
      </trkpt>
      <trkpt lat="44.00355" lon="6.90101">
        <ele>1127</ele>
        <time>2020-09-12T12:50:30.000Z</time>
      </trkpt>
      <trkpt lat="44.00355" lon="6.90101">
        <ele>1127</ele>
        <time>2020-09-12T12:50:40.000Z</time>
      </trkpt>
      <trkpt lat="44.00355" lon="6.90101">
        <ele>1127.1999511719</ele>
        <time>2020-09-12T12:50:44.000Z</time>
      </trkpt>
      <trkpt lat="44.00354" lon="6.901">
        <ele>1127.4000244141</ele>
        <time>2020-09-12T12:50:45.000Z</time>
      </trkpt>
      <trkpt lat="44.00349" lon="6.90093">
        <ele>1127.5999755859</ele>
        <time>2020-09-12T12:50:48.000Z</time>
      </trkpt>
      <trkpt lat="44.00346" lon="6.9009">
        <ele>1127.8000488281</ele>
        <time>2020-09-12T12:50:49.000Z</time>
      </trkpt>
      <trkpt lat="44.00341" lon="6.90089">
        <ele>1127.8000488281</ele>
        <time>2020-09-12T12:50:50.000Z</time>
      </trkpt>
      <trkpt lat="44.00335" lon="6.90093">
        <ele>1127.1999511719</ele>
        <time>2020-09-12T12:50:52.000Z</time>
      </trkpt>
      <trkpt lat="44.00333" lon="6.90095">
        <ele>1126.5999755859</ele>
        <time>2020-09-12T12:50:54.000Z</time>
      </trkpt>
      <trkpt lat="44.00332" lon="6.90095">
        <ele>1126.1999511719</ele>
        <time>2020-09-12T12:50:56.000Z</time>
      </trkpt>
      <trkpt lat="44.0033" lon="6.90097">
        <ele>1125.5999755859</ele>
        <time>2020-09-12T12:50:58.000Z</time>
      </trkpt>
      <trkpt lat="44.00329" lon="6.90098">
        <ele>1125.4000244141</ele>
        <time>2020-09-12T12:51:01.000Z</time>
      </trkpt>
      <trkpt lat="44.00323" lon="6.90096">
        <ele>1125.4000244141</ele>
        <time>2020-09-12T12:51:08.000Z</time>
      </trkpt>
      <trkpt lat="44.00322" lon="6.90095">
        <ele>1125.1999511719</ele>
        <time>2020-09-12T12:51:13.000Z</time>
      </trkpt>
      <trkpt lat="44.0032" lon="6.90093">
        <ele>1125.1999511719</ele>
        <time>2020-09-12T12:51:15.000Z</time>
      </trkpt>
      <trkpt lat="44.00316" lon="6.90087">
        <ele>1125.4000244141</ele>
        <time>2020-09-12T12:51:18.000Z</time>
      </trkpt>
      <trkpt lat="44.00303" lon="6.90078">
        <ele>1124.8000488281</ele>
        <time>2020-09-12T12:51:23.000Z</time>
      </trkpt>
      <trkpt lat="44.00301" lon="6.90076">
        <ele>1124.4000244141</ele>
        <time>2020-09-12T12:51:24.000Z</time>
      </trkpt>
      <trkpt lat="44.003" lon="6.90076">
        <ele>1123.1999511719</ele>
        <time>2020-09-12T12:51:27.000Z</time>
      </trkpt>
      <trkpt lat="44.00297" lon="6.90074">
        <ele>1122.1999511719</ele>
        <time>2020-09-12T12:51:32.000Z</time>
      </trkpt>
      <trkpt lat="44.00296" lon="6.90074">
        <ele>1122.4000244141</ele>
        <time>2020-09-12T12:51:33.000Z</time>
      </trkpt>
      <trkpt lat="44.00292" lon="6.90071">
        <ele>1122.8000488281</ele>
        <time>2020-09-12T12:51:39.000Z</time>
      </trkpt>
      <trkpt lat="44.00282" lon="6.90072">
        <ele>1122</ele>
        <time>2020-09-12T12:51:43.000Z</time>
      </trkpt>
      <trkpt lat="44.00275" lon="6.90074">
        <ele>1120.8000488281</ele>
        <time>2020-09-12T12:51:46.000Z</time>
      </trkpt>
      <trkpt lat="44.00273" lon="6.90075">
        <ele>1120.4000244141</ele>
        <time>2020-09-12T12:51:47.000Z</time>
      </trkpt>
      <trkpt lat="44.00267" lon="6.90075">
        <ele>1119.8000488281</ele>
        <time>2020-09-12T12:51:49.000Z</time>
      </trkpt>
      <trkpt lat="44.00263" lon="6.90075">
        <ele>1119</ele>
        <time>2020-09-12T12:51:51.000Z</time>
      </trkpt>
      <trkpt lat="44.00261" lon="6.90075">
        <ele>1118.5999755859</ele>
        <time>2020-09-12T12:51:52.000Z</time>
      </trkpt>
      <trkpt lat="44.00258" lon="6.90075">
        <ele>1117.5999755859</ele>
        <time>2020-09-12T12:51:56.000Z</time>
      </trkpt>
      <trkpt lat="44.00255" lon="6.90073">
        <ele>1117</ele>
        <time>2020-09-12T12:52:03.000Z</time>
      </trkpt>
      <trkpt lat="44.00254" lon="6.90071">
        <ele>1117</ele>
        <time>2020-09-12T12:52:05.000Z</time>
      </trkpt>
      <trkpt lat="44.00253" lon="6.90069">
        <ele>1116.4000244141</ele>
        <time>2020-09-12T12:52:08.000Z</time>
      </trkpt>
      <trkpt lat="44.00252" lon="6.90068">
        <ele>1116.1999511719</ele>
        <time>2020-09-12T12:52:09.000Z</time>
      </trkpt>
      <trkpt lat="44.00252" lon="6.90068">
        <ele>1115.5999755859</ele>
        <time>2020-09-12T12:52:15.000Z</time>
      </trkpt>
      <trkpt lat="44.00248" lon="6.90067">
        <ele>1115.8000488281</ele>
        <time>2020-09-12T12:52:21.000Z</time>
      </trkpt>
      <trkpt lat="44.00247" lon="6.90066">
        <ele>1115.8000488281</ele>
        <time>2020-09-12T12:52:22.000Z</time>
      </trkpt>
      <trkpt lat="44.00247" lon="6.90064">
        <ele>1115.5999755859</ele>
        <time>2020-09-12T12:52:24.000Z</time>
      </trkpt>
      <trkpt lat="44.00245" lon="6.90063">
        <ele>1115.5999755859</ele>
        <time>2020-09-12T12:52:26.000Z</time>
      </trkpt>
      <trkpt lat="44.00244" lon="6.90063">
        <ele>1115.1999511719</ele>
        <time>2020-09-12T12:52:27.000Z</time>
      </trkpt>
      <trkpt lat="44.00241" lon="6.9006">
        <ele>1115.1999511719</ele>
        <time>2020-09-12T12:52:32.000Z</time>
      </trkpt>
      <trkpt lat="44.00241" lon="6.9006">
        <ele>1116.1999511719</ele>
        <time>2020-09-12T12:52:38.000Z</time>
      </trkpt>
      <trkpt lat="44.00238" lon="6.90056">
        <ele>1116.5999755859</ele>
        <time>2020-09-12T12:52:44.000Z</time>
      </trkpt>
      <trkpt lat="44.00237" lon="6.90053">
        <ele>1117.8000488281</ele>
        <time>2020-09-12T12:52:49.000Z</time>
      </trkpt>
      <trkpt lat="44.00236" lon="6.90053">
        <ele>1118</ele>
        <time>2020-09-12T12:52:50.000Z</time>
      </trkpt>
      <trkpt lat="44.00234" lon="6.90054">
        <ele>1118.8000488281</ele>
        <time>2020-09-12T12:52:55.000Z</time>
      </trkpt>
      <trkpt lat="44.00233" lon="6.90054">
        <ele>1119.1999511719</ele>
        <time>2020-09-12T12:52:57.000Z</time>
      </trkpt>
      <trkpt lat="44.00232" lon="6.90053">
        <ele>1119.8000488281</ele>
        <time>2020-09-12T12:53:01.000Z</time>
      </trkpt>
      <trkpt lat="44.0023" lon="6.90051">
        <ele>1120.1999511719</ele>
        <time>2020-09-12T12:53:03.000Z</time>
      </trkpt>
      <trkpt lat="44.0023" lon="6.9005">
        <ele>1121</ele>
        <time>2020-09-12T12:53:07.000Z</time>
      </trkpt>
      <trkpt lat="44.00229" lon="6.90047">
        <ele>1121.4000244141</ele>
        <time>2020-09-12T12:53:09.000Z</time>
      </trkpt>
      <trkpt lat="44.0023" lon="6.90043">
        <ele>1122</ele>
        <time>2020-09-12T12:53:13.000Z</time>
      </trkpt>
      <trkpt lat="44.00232" lon="6.9004">
        <ele>1122.5999755859</ele>
        <time>2020-09-12T12:53:16.000Z</time>
      </trkpt>
      <trkpt lat="44.00233" lon="6.90038">
        <ele>1123.1999511719</ele>
        <time>2020-09-12T12:53:19.000Z</time>
      </trkpt>
      <trkpt lat="44.00233" lon="6.90034">
        <ele>1123.5999755859</ele>
        <time>2020-09-12T12:53:23.000Z</time>
      </trkpt>
      <trkpt lat="44.00232" lon="6.90028">
        <ele>1124.1999511719</ele>
        <time>2020-09-12T12:53:28.000Z</time>
      </trkpt>
      <trkpt lat="44.00232" lon="6.90027">
        <ele>1124.4000244141</ele>
        <time>2020-09-12T12:53:30.000Z</time>
      </trkpt>
      <trkpt lat="44.00232" lon="6.90022">
        <ele>1125.1999511719</ele>
        <time>2020-09-12T12:53:35.000Z</time>
      </trkpt>
      <trkpt lat="44.00233" lon="6.90019">
        <ele>1125.5999755859</ele>
        <time>2020-09-12T12:53:37.000Z</time>
      </trkpt>
      <trkpt lat="44.00234" lon="6.90015">
        <ele>1126.4000244141</ele>
        <time>2020-09-12T12:53:43.000Z</time>
      </trkpt>
      <trkpt lat="44.00234" lon="6.90014">
        <ele>1126.5999755859</ele>
        <time>2020-09-12T12:53:44.000Z</time>
      </trkpt>
      <trkpt lat="44.00233" lon="6.90009">
        <ele>1127.4000244141</ele>
        <time>2020-09-12T12:53:49.000Z</time>
      </trkpt>
      <trkpt lat="44.00232" lon="6.90005">
        <ele>1128</ele>
        <time>2020-09-12T12:53:53.000Z</time>
      </trkpt>
      <trkpt lat="44.00232" lon="6.90001">
        <ele>1128.4000244141</ele>
        <time>2020-09-12T12:53:56.000Z</time>
      </trkpt>
      <trkpt lat="44.00233" lon="6.89997">
        <ele>1129.1999511719</ele>
        <time>2020-09-12T12:54:01.000Z</time>
      </trkpt>
      <trkpt lat="44.00233" lon="6.89995">
        <ele>1129.5999755859</ele>
        <time>2020-09-12T12:54:03.000Z</time>
      </trkpt>
      <trkpt lat="44.00234" lon="6.8999">
        <ele>1130.4000244141</ele>
        <time>2020-09-12T12:54:09.000Z</time>
      </trkpt>
      <trkpt lat="44.00234" lon="6.89988">
        <ele>1130.5999755859</ele>
        <time>2020-09-12T12:54:12.000Z</time>
      </trkpt>
      <trkpt lat="44.00234" lon="6.89983">
        <ele>1131.8000488281</ele>
        <time>2020-09-12T12:54:18.000Z</time>
      </trkpt>
      <trkpt lat="44.00234" lon="6.89976">
        <ele>1132.8000488281</ele>
        <time>2020-09-12T12:54:25.000Z</time>
      </trkpt>
      <trkpt lat="44.00234" lon="6.89972">
        <ele>1133.4000244141</ele>
        <time>2020-09-12T12:54:28.000Z</time>
      </trkpt>
      <trkpt lat="44.00234" lon="6.89969">
        <ele>1134</ele>
        <time>2020-09-12T12:54:32.000Z</time>
      </trkpt>
      <trkpt lat="44.00234" lon="6.89965">
        <ele>1134.5999755859</ele>
        <time>2020-09-12T12:54:36.000Z</time>
      </trkpt>
      <trkpt lat="44.00233" lon="6.8996">
        <ele>1135</ele>
        <time>2020-09-12T12:54:39.000Z</time>
      </trkpt>
      <trkpt lat="44.00233" lon="6.8996">
        <ele>1135</ele>
        <time>2020-09-12T12:54:40.000Z</time>
      </trkpt>
      <trkpt lat="44.00233" lon="6.89956">
        <ele>1135.1999511719</ele>
        <time>2020-09-12T12:54:42.000Z</time>
      </trkpt>
      <trkpt lat="44.00234" lon="6.89955">
        <ele>1135.1999511719</ele>
        <time>2020-09-12T12:54:43.000Z</time>
      </trkpt>
      <trkpt lat="44.00238" lon="6.89945">
        <ele>1135.5999755859</ele>
        <time>2020-09-12T12:54:50.000Z</time>
      </trkpt>
      <trkpt lat="44.00238" lon="6.89938">
        <ele>1136</ele>
        <time>2020-09-12T12:54:55.000Z</time>
      </trkpt>
      <trkpt lat="44.00239" lon="6.89935">
        <ele>1136.1999511719</ele>
        <time>2020-09-12T12:54:57.000Z</time>
      </trkpt>
      <trkpt lat="44.00239" lon="6.8993">
        <ele>1136.8000488281</ele>
        <time>2020-09-12T12:55:00.000Z</time>
      </trkpt>
      <trkpt lat="44.0024" lon="6.89928">
        <ele>1137.1999511719</ele>
        <time>2020-09-12T12:55:02.000Z</time>
      </trkpt>
      <trkpt lat="44.00241" lon="6.89924">
        <ele>1138</ele>
        <time>2020-09-12T12:55:05.000Z</time>
      </trkpt>
      <trkpt lat="44.00242" lon="6.89922">
        <ele>1138.4000244141</ele>
        <time>2020-09-12T12:55:07.000Z</time>
      </trkpt>
      <trkpt lat="44.00244" lon="6.89916">
        <ele>1139</ele>
        <time>2020-09-12T12:55:12.000Z</time>
      </trkpt>
      <trkpt lat="44.00244" lon="6.89913">
        <ele>1139.5999755859</ele>
        <time>2020-09-12T12:55:15.000Z</time>
      </trkpt>
      <trkpt lat="44.00247" lon="6.89908">
        <ele>1140.5999755859</ele>
        <time>2020-09-12T12:55:20.000Z</time>
      </trkpt>
      <trkpt lat="44.00251" lon="6.899">
        <ele>1141.8000488281</ele>
        <time>2020-09-12T12:55:27.000Z</time>
      </trkpt>
      <trkpt lat="44.00252" lon="6.89898">
        <ele>1141.8000488281</ele>
        <time>2020-09-12T12:55:29.000Z</time>
      </trkpt>
      <trkpt lat="44.00252" lon="6.89893">
        <ele>1142.8000488281</ele>
        <time>2020-09-12T12:55:35.000Z</time>
      </trkpt>
      <trkpt lat="44.00252" lon="6.89892">
        <ele>1143</ele>
        <time>2020-09-12T12:55:36.000Z</time>
      </trkpt>
      <trkpt lat="44.00254" lon="6.89889">
        <ele>1143.8000488281</ele>
        <time>2020-09-12T12:55:40.000Z</time>
      </trkpt>
      <trkpt lat="44.00256" lon="6.89884">
        <ele>1144.8000488281</ele>
        <time>2020-09-12T12:55:46.000Z</time>
      </trkpt>
      <trkpt lat="44.00255" lon="6.89878">
        <ele>1146</ele>
        <time>2020-09-12T12:55:52.000Z</time>
      </trkpt>
      <trkpt lat="44.00254" lon="6.89877">
        <ele>1146.1999511719</ele>
        <time>2020-09-12T12:55:53.000Z</time>
      </trkpt>
      <trkpt lat="44.00253" lon="6.89874">
        <ele>1147</ele>
        <time>2020-09-12T12:56:00.000Z</time>
      </trkpt>
      <trkpt lat="44.00248" lon="6.89871">
        <ele>1148</ele>
        <time>2020-09-12T12:56:08.000Z</time>
      </trkpt>
      <trkpt lat="44.00248" lon="6.89871">
        <ele>1148.1999511719</ele>
        <time>2020-09-12T12:56:09.000Z</time>
      </trkpt>
      <trkpt lat="44.00245" lon="6.89868">
        <ele>1149.1999511719</ele>
        <time>2020-09-12T12:56:14.000Z</time>
      </trkpt>
      <trkpt lat="44.00243" lon="6.89865">
        <ele>1149.8000488281</ele>
        <time>2020-09-12T12:56:17.000Z</time>
      </trkpt>
      <trkpt lat="44.00242" lon="6.89863">
        <ele>1150.1999511719</ele>
        <time>2020-09-12T12:56:19.000Z</time>
      </trkpt>
      <trkpt lat="44.00238" lon="6.89864">
        <ele>1150.5999755859</ele>
        <time>2020-09-12T12:56:25.000Z</time>
      </trkpt>
      <trkpt lat="44.00237" lon="6.89865">
        <ele>1151.4000244141</ele>
        <time>2020-09-12T12:56:30.000Z</time>
      </trkpt>
      <trkpt lat="44.00236" lon="6.89865">
        <ele>1151.5999755859</ele>
        <time>2020-09-12T12:56:32.000Z</time>
      </trkpt>
      <trkpt lat="44.00235" lon="6.8987">
        <ele>1152.4000244141</ele>
        <time>2020-09-12T12:56:37.000Z</time>
      </trkpt>
      <trkpt lat="44.00234" lon="6.89872">
        <ele>1153</ele>
        <time>2020-09-12T12:56:40.000Z</time>
      </trkpt>
      <trkpt lat="44.00232" lon="6.89876">
        <ele>1153.5999755859</ele>
        <time>2020-09-12T12:56:43.000Z</time>
      </trkpt>
      <trkpt lat="44.00229" lon="6.89879">
        <ele>1154.1999511719</ele>
        <time>2020-09-12T12:56:48.000Z</time>
      </trkpt>
      <trkpt lat="44.00228" lon="6.8988">
        <ele>1154.5999755859</ele>
        <time>2020-09-12T12:56:50.000Z</time>
      </trkpt>
      <trkpt lat="44.00228" lon="6.89879">
        <ele>1155.4000244141</ele>
        <time>2020-09-12T12:56:55.000Z</time>
      </trkpt>
      <trkpt lat="44.00226" lon="6.8988">
        <ele>1154.8000488281</ele>
        <time>2020-09-12T12:56:59.000Z</time>
      </trkpt>
      <trkpt lat="44.00225" lon="6.8988">
        <ele>1155.1999511719</ele>
        <time>2020-09-12T12:57:01.000Z</time>
      </trkpt>
      <trkpt lat="44.00224" lon="6.89881">
        <ele>1155.8000488281</ele>
        <time>2020-09-12T12:57:04.000Z</time>
      </trkpt>
      <trkpt lat="44.00222" lon="6.89882">
        <ele>1156.1999511719</ele>
        <time>2020-09-12T12:57:08.000Z</time>
      </trkpt>
      <trkpt lat="44.0022" lon="6.89881">
        <ele>1156.8000488281</ele>
        <time>2020-09-12T12:57:12.000Z</time>
      </trkpt>
      <trkpt lat="44.00217" lon="6.89881">
        <ele>1157.5999755859</ele>
        <time>2020-09-12T12:57:17.000Z</time>
      </trkpt>
      <trkpt lat="44.00216" lon="6.89881">
        <ele>1158</ele>
        <time>2020-09-12T12:57:19.000Z</time>
      </trkpt>
      <trkpt lat="44.00213" lon="6.89882">
        <ele>1159</ele>
        <time>2020-09-12T12:57:25.000Z</time>
      </trkpt>
      <trkpt lat="44.00214" lon="6.89882">
        <ele>1159</ele>
        <time>2020-09-12T12:57:26.000Z</time>
      </trkpt>
      <trkpt lat="44.0021" lon="6.89881">
        <ele>1160</ele>
        <time>2020-09-12T12:57:31.000Z</time>
      </trkpt>
      <trkpt lat="44.00209" lon="6.89881">
        <ele>1160.1999511719</ele>
        <time>2020-09-12T12:57:32.000Z</time>
      </trkpt>
      <trkpt lat="44.00205" lon="6.89882">
        <ele>1161.4000244141</ele>
        <time>2020-09-12T12:57:39.000Z</time>
      </trkpt>
      <trkpt lat="44.00205" lon="6.89881">
        <ele>1161.4000244141</ele>
        <time>2020-09-12T12:57:40.000Z</time>
      </trkpt>
      <trkpt lat="44.00201" lon="6.8988">
        <ele>1162.4000244141</ele>
        <time>2020-09-12T12:57:46.000Z</time>
      </trkpt>
      <trkpt lat="44.00201" lon="6.89881">
        <ele>1162.5999755859</ele>
        <time>2020-09-12T12:57:47.000Z</time>
      </trkpt>
      <trkpt lat="44.00197" lon="6.89881">
        <ele>1163.4000244141</ele>
        <time>2020-09-12T12:57:52.000Z</time>
      </trkpt>
      <trkpt lat="44.00195" lon="6.89881">
        <ele>1163.8000488281</ele>
        <time>2020-09-12T12:57:56.000Z</time>
      </trkpt>
      <trkpt lat="44.00192" lon="6.89883">
        <ele>1164.4000244141</ele>
        <time>2020-09-12T12:58:00.000Z</time>
      </trkpt>
      <trkpt lat="44.00191" lon="6.89882">
        <ele>1164.8000488281</ele>
        <time>2020-09-12T12:58:03.000Z</time>
      </trkpt>
      <trkpt lat="44.00189" lon="6.89884">
        <ele>1165.5999755859</ele>
        <time>2020-09-12T12:58:06.000Z</time>
      </trkpt>
      <trkpt lat="44.00187" lon="6.89885">
        <ele>1166</ele>
        <time>2020-09-12T12:58:10.000Z</time>
      </trkpt>
      <trkpt lat="44.00185" lon="6.89886">
        <ele>1166.5999755859</ele>
        <time>2020-09-12T12:58:15.000Z</time>
      </trkpt>
      <trkpt lat="44.00184" lon="6.89887">
        <ele>1167</ele>
        <time>2020-09-12T12:58:18.000Z</time>
      </trkpt>
      <trkpt lat="44.00181" lon="6.89888">
        <ele>1167.5999755859</ele>
        <time>2020-09-12T12:58:23.000Z</time>
      </trkpt>
      <trkpt lat="44.0018" lon="6.89888">
        <ele>1168</ele>
        <time>2020-09-12T12:58:26.000Z</time>
      </trkpt>
      <trkpt lat="44.00177" lon="6.89887">
        <ele>1168.8000488281</ele>
        <time>2020-09-12T12:58:32.000Z</time>
      </trkpt>
      <trkpt lat="44.00175" lon="6.89887">
        <ele>1169</ele>
        <time>2020-09-12T12:58:35.000Z</time>
      </trkpt>
      <trkpt lat="44.00173" lon="6.89888">
        <ele>1169.8000488281</ele>
        <time>2020-09-12T12:58:40.000Z</time>
      </trkpt>
      <trkpt lat="44.00172" lon="6.89888">
        <ele>1170.4000244141</ele>
        <time>2020-09-12T12:58:42.000Z</time>
      </trkpt>
      <trkpt lat="44.00171" lon="6.89889">
        <ele>1171</ele>
        <time>2020-09-12T12:58:45.000Z</time>
      </trkpt>
      <trkpt lat="44.0017" lon="6.8989">
        <ele>1172</ele>
        <time>2020-09-12T12:58:49.000Z</time>
      </trkpt>
      <trkpt lat="44.00169" lon="6.89891">
        <ele>1172.1999511719</ele>
        <time>2020-09-12T12:58:50.000Z</time>
      </trkpt>
      <trkpt lat="44.00165" lon="6.89891">
        <ele>1173.1999511719</ele>
        <time>2020-09-12T12:58:57.000Z</time>
      </trkpt>
      <trkpt lat="44.00164" lon="6.89894">
        <ele>1174.1999511719</ele>
        <time>2020-09-12T12:59:03.000Z</time>
      </trkpt>
      <trkpt lat="44.00164" lon="6.89895">
        <ele>1174.4000244141</ele>
        <time>2020-09-12T12:59:04.000Z</time>
      </trkpt>
      <trkpt lat="44.00161" lon="6.89896">
        <ele>1175.4000244141</ele>
        <time>2020-09-12T12:59:10.000Z</time>
      </trkpt>
      <trkpt lat="44.00161" lon="6.89896">
        <ele>1175.4000244141</ele>
        <time>2020-09-12T12:59:11.000Z</time>
      </trkpt>
      <trkpt lat="44.00159" lon="6.899">
        <ele>1176.4000244141</ele>
        <time>2020-09-12T12:59:17.000Z</time>
      </trkpt>
      <trkpt lat="44.00158" lon="6.899">
        <ele>1176.5999755859</ele>
        <time>2020-09-12T12:59:18.000Z</time>
      </trkpt>
      <trkpt lat="44.00155" lon="6.899">
        <ele>1177.4000244141</ele>
        <time>2020-09-12T12:59:22.000Z</time>
      </trkpt>
      <trkpt lat="44.00154" lon="6.899">
        <ele>1177.5999755859</ele>
        <time>2020-09-12T12:59:23.000Z</time>
      </trkpt>
      <trkpt lat="44.00154" lon="6.89901">
        <ele>1177.8000488281</ele>
        <time>2020-09-12T12:59:24.000Z</time>
      </trkpt>
      <trkpt lat="44.0015" lon="6.89902">
        <ele>1178.5999755859</ele>
        <time>2020-09-12T12:59:31.000Z</time>
      </trkpt>
      <trkpt lat="44.00149" lon="6.89903">
        <ele>1178.8000488281</ele>
        <time>2020-09-12T12:59:32.000Z</time>
      </trkpt>
      <trkpt lat="44.00147" lon="6.89905">
        <ele>1179.5999755859</ele>
        <time>2020-09-12T12:59:37.000Z</time>
      </trkpt>
      <trkpt lat="44.00146" lon="6.89905">
        <ele>1180.1999511719</ele>
        <time>2020-09-12T12:59:40.000Z</time>
      </trkpt>
      <trkpt lat="44.00145" lon="6.89906">
        <ele>1180.8000488281</ele>
        <time>2020-09-12T12:59:43.000Z</time>
      </trkpt>
      <trkpt lat="44.00143" lon="6.89908">
        <ele>1181.1999511719</ele>
        <time>2020-09-12T12:59:48.000Z</time>
      </trkpt>
      <trkpt lat="44.0014" lon="6.89908">
        <ele>1181.8000488281</ele>
        <time>2020-09-12T12:59:52.000Z</time>
      </trkpt>
      <trkpt lat="44.00137" lon="6.89909">
        <ele>1182.4000244141</ele>
        <time>2020-09-12T12:59:56.000Z</time>
      </trkpt>
      <trkpt lat="44.00132" lon="6.89907">
        <ele>1182.8000488281</ele>
        <time>2020-09-12T13:00:03.000Z</time>
      </trkpt>
      <trkpt lat="44.00131" lon="6.89906">
        <ele>1182.8000488281</ele>
        <time>2020-09-12T13:00:04.000Z</time>
      </trkpt>
      <trkpt lat="44.00127" lon="6.89906">
        <ele>1183.4000244141</ele>
        <time>2020-09-12T13:00:09.000Z</time>
      </trkpt>
      <trkpt lat="44.00123" lon="6.89907">
        <ele>1183.8000488281</ele>
        <time>2020-09-12T13:00:15.000Z</time>
      </trkpt>
      <trkpt lat="44.00121" lon="6.89907">
        <ele>1184.1999511719</ele>
        <time>2020-09-12T13:00:17.000Z</time>
      </trkpt>
      <trkpt lat="44.00115" lon="6.89911">
        <ele>1184.8000488281</ele>
        <time>2020-09-12T13:00:25.000Z</time>
      </trkpt>
      <trkpt lat="44.00115" lon="6.89912">
        <ele>1184.8000488281</ele>
        <time>2020-09-12T13:00:26.000Z</time>
      </trkpt>
      <trkpt lat="44.00114" lon="6.89916">
        <ele>1186</ele>
        <time>2020-09-12T13:00:31.000Z</time>
      </trkpt>
      <trkpt lat="44.00114" lon="6.89918">
        <ele>1186.4000244141</ele>
        <time>2020-09-12T13:00:34.000Z</time>
      </trkpt>
      <trkpt lat="44.00114" lon="6.8992">
        <ele>1187</ele>
        <time>2020-09-12T13:00:37.000Z</time>
      </trkpt>
      <trkpt lat="44.00116" lon="6.89923">
        <ele>1188.1999511719</ele>
        <time>2020-09-12T13:00:42.000Z</time>
      </trkpt>
      <trkpt lat="44.00117" lon="6.89924">
        <ele>1188.4000244141</ele>
        <time>2020-09-12T13:00:44.000Z</time>
      </trkpt>
      <trkpt lat="44.00118" lon="6.89927">
        <ele>1189.1999511719</ele>
        <time>2020-09-12T13:00:48.000Z</time>
      </trkpt>
      <trkpt lat="44.00121" lon="6.8993">
        <ele>1190</ele>
        <time>2020-09-12T13:00:53.000Z</time>
      </trkpt>
      <trkpt lat="44.00123" lon="6.89931">
        <ele>1190.4000244141</ele>
        <time>2020-09-12T13:00:56.000Z</time>
      </trkpt>
      <trkpt lat="44.00124" lon="6.89933">
        <ele>1191</ele>
        <time>2020-09-12T13:01:01.000Z</time>
      </trkpt>
      <trkpt lat="44.00124" lon="6.89933">
        <ele>1191.4000244141</ele>
        <time>2020-09-12T13:01:04.000Z</time>
      </trkpt>
      <trkpt lat="44.00124" lon="6.89934">
        <ele>1191.4000244141</ele>
        <time>2020-09-12T13:01:16.000Z</time>
      </trkpt>
      <trkpt lat="44.0013" lon="6.89941">
        <ele>1192</ele>
        <time>2020-09-12T13:01:25.000Z</time>
      </trkpt>
      <trkpt lat="44.0013" lon="6.89944">
        <ele>1192.4000244141</ele>
        <time>2020-09-12T13:01:27.000Z</time>
      </trkpt>
      <trkpt lat="44.00127" lon="6.89948">
        <ele>1193</ele>
        <time>2020-09-12T13:01:31.000Z</time>
      </trkpt>
      <trkpt lat="44.00125" lon="6.89951">
        <ele>1193.4000244141</ele>
        <time>2020-09-12T13:01:34.000Z</time>
      </trkpt>
      <trkpt lat="44.0012" lon="6.89955">
        <ele>1194.4000244141</ele>
        <time>2020-09-12T13:01:40.000Z</time>
      </trkpt>
      <trkpt lat="44.00114" lon="6.89957">
        <ele>1195.5999755859</ele>
        <time>2020-09-12T13:01:47.000Z</time>
      </trkpt>
      <trkpt lat="44.00112" lon="6.89957">
        <ele>1196</ele>
        <time>2020-09-12T13:01:49.000Z</time>
      </trkpt>
      <trkpt lat="44.00109" lon="6.89956">
        <ele>1196.8000488281</ele>
        <time>2020-09-12T13:01:53.000Z</time>
      </trkpt>
      <trkpt lat="44.00105" lon="6.89955">
        <ele>1197.5999755859</ele>
        <time>2020-09-12T13:01:58.000Z</time>
      </trkpt>
      <trkpt lat="44.00103" lon="6.89955">
        <ele>1197.8000488281</ele>
        <time>2020-09-12T13:02:00.000Z</time>
      </trkpt>
      <trkpt lat="44.00101" lon="6.89956">
        <ele>1198.8000488281</ele>
        <time>2020-09-12T13:02:05.000Z</time>
      </trkpt>
      <trkpt lat="44.001" lon="6.89956">
        <ele>1199</ele>
        <time>2020-09-12T13:02:06.000Z</time>
      </trkpt>
      <trkpt lat="44.00094" lon="6.8996">
        <ele>1200</ele>
        <time>2020-09-12T13:02:15.000Z</time>
      </trkpt>
      <trkpt lat="44.00091" lon="6.89963">
        <ele>1201</ele>
        <time>2020-09-12T13:02:20.000Z</time>
      </trkpt>
      <trkpt lat="44.00089" lon="6.89965">
        <ele>1201.5999755859</ele>
        <time>2020-09-12T13:02:24.000Z</time>
      </trkpt>
      <trkpt lat="44.00086" lon="6.89968">
        <ele>1202.1999511719</ele>
        <time>2020-09-12T13:02:29.000Z</time>
      </trkpt>
      <trkpt lat="44.00082" lon="6.8997">
        <ele>1203.4000244141</ele>
        <time>2020-09-12T13:02:34.000Z</time>
      </trkpt>
      <trkpt lat="44.00078" lon="6.89973">
        <ele>1204.4000244141</ele>
        <time>2020-09-12T13:02:41.000Z</time>
      </trkpt>
      <trkpt lat="44.00077" lon="6.89973">
        <ele>1204.4000244141</ele>
        <time>2020-09-12T13:02:42.000Z</time>
      </trkpt>
      <trkpt lat="44.00073" lon="6.89975">
        <ele>1205.5999755859</ele>
        <time>2020-09-12T13:02:48.000Z</time>
      </trkpt>
      <trkpt lat="44.00072" lon="6.89977">
        <ele>1206.4000244141</ele>
        <time>2020-09-12T13:02:51.000Z</time>
      </trkpt>
      <trkpt lat="44.00071" lon="6.8998">
        <ele>1206.5999755859</ele>
        <time>2020-09-12T13:02:54.000Z</time>
      </trkpt>
      <trkpt lat="44.0007" lon="6.89985">
        <ele>1207.5999755859</ele>
        <time>2020-09-12T13:03:00.000Z</time>
      </trkpt>
      <trkpt lat="44.00069" lon="6.89986">
        <ele>1207.5999755859</ele>
        <time>2020-09-12T13:03:01.000Z</time>
      </trkpt>
      <trkpt lat="44.00064" lon="6.89991">
        <ele>1208.8000488281</ele>
        <time>2020-09-12T13:03:09.000Z</time>
      </trkpt>
      <trkpt lat="44.00063" lon="6.89991">
        <ele>1209</ele>
        <time>2020-09-12T13:03:10.000Z</time>
      </trkpt>
      <trkpt lat="44.0006" lon="6.89993">
        <ele>1209.8000488281</ele>
        <time>2020-09-12T13:03:15.000Z</time>
      </trkpt>
      <trkpt lat="44.00059" lon="6.89994">
        <ele>1210.4000244141</ele>
        <time>2020-09-12T13:03:19.000Z</time>
      </trkpt>
      <trkpt lat="44.00058" lon="6.89995">
        <ele>1210</ele>
        <time>2020-09-12T13:03:26.000Z</time>
      </trkpt>
      <trkpt lat="44.00056" lon="6.89996">
        <ele>1211</ele>
        <time>2020-09-12T13:03:31.000Z</time>
      </trkpt>
      <trkpt lat="44.00055" lon="6.89996">
        <ele>1211.5999755859</ele>
        <time>2020-09-12T13:03:35.000Z</time>
      </trkpt>
      <trkpt lat="44.00053" lon="6.89996">
        <ele>1212</ele>
        <time>2020-09-12T13:03:38.000Z</time>
      </trkpt>
      <trkpt lat="44.0005" lon="6.89997">
        <ele>1212.8000488281</ele>
        <time>2020-09-12T13:03:42.000Z</time>
      </trkpt>
      <trkpt lat="44.0005" lon="6.89997">
        <ele>1213</ele>
        <time>2020-09-12T13:03:43.000Z</time>
      </trkpt>
      <trkpt lat="44.00046" lon="6.89997">
        <ele>1214.1999511719</ele>
        <time>2020-09-12T13:03:49.000Z</time>
      </trkpt>
      <trkpt lat="44.00046" lon="6.89997">
        <ele>1214.4000244141</ele>
        <time>2020-09-12T13:03:50.000Z</time>
      </trkpt>
      <trkpt lat="44.00044" lon="6.89995">
        <ele>1215.1999511719</ele>
        <time>2020-09-12T13:03:54.000Z</time>
      </trkpt>
      <trkpt lat="44.00042" lon="6.89997">
        <ele>1216</ele>
        <time>2020-09-12T13:03:58.000Z</time>
      </trkpt>
      <trkpt lat="44.00042" lon="6.89996">
        <ele>1216.1999511719</ele>
        <time>2020-09-12T13:03:59.000Z</time>
      </trkpt>
      <trkpt lat="44.00039" lon="6.89996">
        <ele>1217.4000244141</ele>
        <time>2020-09-12T13:04:04.000Z</time>
      </trkpt>
      <trkpt lat="44.00038" lon="6.89996">
        <ele>1217.5999755859</ele>
        <time>2020-09-12T13:04:05.000Z</time>
      </trkpt>
      <trkpt lat="44.00035" lon="6.89996">
        <ele>1218.5999755859</ele>
        <time>2020-09-12T13:04:11.000Z</time>
      </trkpt>
      <trkpt lat="44.00035" lon="6.89996">
        <ele>1218.5999755859</ele>
        <time>2020-09-12T13:04:12.000Z</time>
      </trkpt>
      <trkpt lat="44.00031" lon="6.89997">
        <ele>1219.5999755859</ele>
        <time>2020-09-12T13:04:18.000Z</time>
      </trkpt>
      <trkpt lat="44.00031" lon="6.89997">
        <ele>1219.8000488281</ele>
        <time>2020-09-12T13:04:19.000Z</time>
      </trkpt>
      <trkpt lat="44.00028" lon="6.89996">
        <ele>1220.8000488281</ele>
        <time>2020-09-12T13:04:23.000Z</time>
      </trkpt>
      <trkpt lat="44.00026" lon="6.89996">
        <ele>1221.4000244141</ele>
        <time>2020-09-12T13:04:28.000Z</time>
      </trkpt>
      <trkpt lat="44.00024" lon="6.89996">
        <ele>1221.8000488281</ele>
        <time>2020-09-12T13:04:32.000Z</time>
      </trkpt>
      <trkpt lat="44.00022" lon="6.89997">
        <ele>1222.4000244141</ele>
        <time>2020-09-12T13:04:35.000Z</time>
      </trkpt>
      <trkpt lat="44.00021" lon="6.89997">
        <ele>1222.8000488281</ele>
        <time>2020-09-12T13:04:37.000Z</time>
      </trkpt>
      <trkpt lat="44.00019" lon="6.89998">
        <ele>1223.5999755859</ele>
        <time>2020-09-12T13:04:43.000Z</time>
      </trkpt>
      <trkpt lat="44.00019" lon="6.89998">
        <ele>1224</ele>
        <time>2020-09-12T13:04:45.000Z</time>
      </trkpt>
      <trkpt lat="44.00016" lon="6.89999">
        <ele>1224.5999755859</ele>
        <time>2020-09-12T13:04:50.000Z</time>
      </trkpt>
      <trkpt lat="44.00015" lon="6.9">
        <ele>1225</ele>
        <time>2020-09-12T13:04:52.000Z</time>
      </trkpt>
      <trkpt lat="44.00012" lon="6.90002">
        <ele>1226</ele>
        <time>2020-09-12T13:04:57.000Z</time>
      </trkpt>
      <trkpt lat="44.00011" lon="6.90002">
        <ele>1226.1999511719</ele>
        <time>2020-09-12T13:04:59.000Z</time>
      </trkpt>
      <trkpt lat="44.00008" lon="6.90004">
        <ele>1227</ele>
        <time>2020-09-12T13:05:03.000Z</time>
      </trkpt>
      <trkpt lat="44.00006" lon="6.90006">
        <ele>1227.5999755859</ele>
        <time>2020-09-12T13:05:07.000Z</time>
      </trkpt>
      <trkpt lat="44.00004" lon="6.90009">
        <ele>1228.1999511719</ele>
        <time>2020-09-12T13:05:12.000Z</time>
      </trkpt>
      <trkpt lat="44.00004" lon="6.9001">
        <ele>1228.5999755859</ele>
        <time>2020-09-12T13:05:14.000Z</time>
      </trkpt>
      <trkpt lat="44.00003" lon="6.90011">
        <ele>1229.1999511719</ele>
        <time>2020-09-12T13:05:17.000Z</time>
      </trkpt>
      <trkpt lat="44.00001" lon="6.90014">
        <ele>1230</ele>
        <time>2020-09-12T13:05:22.000Z</time>
      </trkpt>
      <trkpt lat="44" lon="6.90016">
        <ele>1230.4000244141</ele>
        <time>2020-09-12T13:05:25.000Z</time>
      </trkpt>
      <trkpt lat="43.99999" lon="6.90019">
        <ele>1231.1999511719</ele>
        <time>2020-09-12T13:05:30.000Z</time>
      </trkpt>
      <trkpt lat="43.99999" lon="6.90021">
        <ele>1231.4000244141</ele>
        <time>2020-09-12T13:05:33.000Z</time>
      </trkpt>
      <trkpt lat="43.99997" lon="6.90025">
        <ele>1232.4000244141</ele>
        <time>2020-09-12T13:05:40.000Z</time>
      </trkpt>
      <trkpt lat="43.99996" lon="6.90026">
        <ele>1232.5999755859</ele>
        <time>2020-09-12T13:05:42.000Z</time>
      </trkpt>
      <trkpt lat="43.99994" lon="6.90032">
        <ele>1233.5999755859</ele>
        <time>2020-09-12T13:05:50.000Z</time>
      </trkpt>
      <trkpt lat="43.99994" lon="6.90032">
        <ele>1233.8000488281</ele>
        <time>2020-09-12T13:05:51.000Z</time>
      </trkpt>
      <trkpt lat="43.99991" lon="6.90037">
        <ele>1234.8000488281</ele>
        <time>2020-09-12T13:05:58.000Z</time>
      </trkpt>
      <trkpt lat="43.9999" lon="6.90038">
        <ele>1235</ele>
        <time>2020-09-12T13:06:00.000Z</time>
      </trkpt>
      <trkpt lat="43.99988" lon="6.90042">
        <ele>1235.8000488281</ele>
        <time>2020-09-12T13:06:05.000Z</time>
      </trkpt>
      <trkpt lat="43.99986" lon="6.90045">
        <ele>1236.1999511719</ele>
        <time>2020-09-12T13:06:08.000Z</time>
      </trkpt>
      <trkpt lat="43.99984" lon="6.90049">
        <ele>1237</ele>
        <time>2020-09-12T13:06:13.000Z</time>
      </trkpt>
      <trkpt lat="43.99983" lon="6.90052">
        <ele>1237.5999755859</ele>
        <time>2020-09-12T13:06:17.000Z</time>
      </trkpt>
      <trkpt lat="43.99982" lon="6.90053">
        <ele>1238</ele>
        <time>2020-09-12T13:06:21.000Z</time>
      </trkpt>
      <trkpt lat="43.99982" lon="6.90053">
        <ele>1238.4000244141</ele>
        <time>2020-09-12T13:06:24.000Z</time>
      </trkpt>
      <trkpt lat="43.99978" lon="6.90057">
        <ele>1238.8000488281</ele>
        <time>2020-09-12T13:06:32.000Z</time>
      </trkpt>
      <trkpt lat="43.99977" lon="6.90057">
        <ele>1238.5999755859</ele>
        <time>2020-09-12T13:06:37.000Z</time>
      </trkpt>
      <trkpt lat="43.99976" lon="6.9006">
        <ele>1238.4000244141</ele>
        <time>2020-09-12T13:06:42.000Z</time>
      </trkpt>
      <trkpt lat="43.99972" lon="6.90066">
        <ele>1239</ele>
        <time>2020-09-12T13:06:47.000Z</time>
      </trkpt>
      <trkpt lat="43.9997" lon="6.90068">
        <ele>1239.4000244141</ele>
        <time>2020-09-12T13:06:50.000Z</time>
      </trkpt>
      <trkpt lat="43.99965" lon="6.90075">
        <ele>1240</ele>
        <time>2020-09-12T13:06:56.000Z</time>
      </trkpt>
      <trkpt lat="43.99964" lon="6.90077">
        <ele>1240.4000244141</ele>
        <time>2020-09-12T13:06:58.000Z</time>
      </trkpt>
      <trkpt lat="43.99962" lon="6.90081">
        <ele>1241.1999511719</ele>
        <time>2020-09-12T13:07:01.000Z</time>
      </trkpt>
      <trkpt lat="43.9996" lon="6.90085">
        <ele>1242.1999511719</ele>
        <time>2020-09-12T13:07:05.000Z</time>
      </trkpt>
      <trkpt lat="43.99959" lon="6.90087">
        <ele>1242.8000488281</ele>
        <time>2020-09-12T13:07:07.000Z</time>
      </trkpt>
      <trkpt lat="43.99957" lon="6.90092">
        <ele>1243.4000244141</ele>
        <time>2020-09-12T13:07:11.000Z</time>
      </trkpt>
      <trkpt lat="43.99954" lon="6.90096">
        <ele>1243.5999755859</ele>
        <time>2020-09-12T13:07:15.000Z</time>
      </trkpt>
      <trkpt lat="43.9995" lon="6.901">
        <ele>1244.4000244141</ele>
        <time>2020-09-12T13:07:20.000Z</time>
      </trkpt>
      <trkpt lat="43.99946" lon="6.90104">
        <ele>1244.8000488281</ele>
        <time>2020-09-12T13:07:24.000Z</time>
      </trkpt>
      <trkpt lat="43.99941" lon="6.9011">
        <ele>1245.4000244141</ele>
        <time>2020-09-12T13:07:30.000Z</time>
      </trkpt>
      <trkpt lat="43.9994" lon="6.90111">
        <ele>1245.5999755859</ele>
        <time>2020-09-12T13:07:33.000Z</time>
      </trkpt>
      <trkpt lat="43.99939" lon="6.90112">
        <ele>1246.1999511719</ele>
        <time>2020-09-12T13:07:42.000Z</time>
      </trkpt>
      <trkpt lat="43.99934" lon="6.90115">
        <ele>1246.1999511719</ele>
        <time>2020-09-12T13:07:48.000Z</time>
      </trkpt>
      <trkpt lat="43.99931" lon="6.90118">
        <ele>1246.5999755859</ele>
        <time>2020-09-12T13:07:51.000Z</time>
      </trkpt>
      <trkpt lat="43.99926" lon="6.90119">
        <ele>1247.4000244141</ele>
        <time>2020-09-12T13:07:56.000Z</time>
      </trkpt>
      <trkpt lat="43.99925" lon="6.90119">
        <ele>1247.5999755859</ele>
        <time>2020-09-12T13:07:58.000Z</time>
      </trkpt>
      <trkpt lat="43.9992" lon="6.9012">
        <ele>1248</ele>
        <time>2020-09-12T13:08:04.000Z</time>
      </trkpt>
      <trkpt lat="43.99917" lon="6.90121">
        <ele>1248.5999755859</ele>
        <time>2020-09-12T13:08:08.000Z</time>
      </trkpt>
      <trkpt lat="43.99914" lon="6.90122">
        <ele>1249.8000488281</ele>
        <time>2020-09-12T13:08:13.000Z</time>
      </trkpt>
      <trkpt lat="43.99909" lon="6.90122">
        <ele>1250.8000488281</ele>
        <time>2020-09-12T13:08:18.000Z</time>
      </trkpt>
      <trkpt lat="43.99906" lon="6.9012">
        <ele>1251.1999511719</ele>
        <time>2020-09-12T13:08:21.000Z</time>
      </trkpt>
      <trkpt lat="43.99902" lon="6.90119">
        <ele>1251.8000488281</ele>
        <time>2020-09-12T13:08:26.000Z</time>
      </trkpt>
      <trkpt lat="43.99899" lon="6.90119">
        <ele>1252.5999755859</ele>
        <time>2020-09-12T13:08:30.000Z</time>
      </trkpt>
      <trkpt lat="43.99898" lon="6.90119">
        <ele>1253</ele>
        <time>2020-09-12T13:08:31.000Z</time>
      </trkpt>
      <trkpt lat="43.99893" lon="6.90115">
        <ele>1254</ele>
        <time>2020-09-12T13:08:37.000Z</time>
      </trkpt>
      <trkpt lat="43.99892" lon="6.90115">
        <ele>1254</ele>
        <time>2020-09-12T13:08:38.000Z</time>
      </trkpt>
      <trkpt lat="43.99885" lon="6.90111">
        <ele>1255</ele>
        <time>2020-09-12T13:08:46.000Z</time>
      </trkpt>
      <trkpt lat="43.99885" lon="6.90111">
        <ele>1255</ele>
        <time>2020-09-12T13:08:47.000Z</time>
      </trkpt>
      <trkpt lat="43.9988" lon="6.90109">
        <ele>1256</ele>
        <time>2020-09-12T13:08:53.000Z</time>
      </trkpt>
      <trkpt lat="43.99879" lon="6.90108">
        <ele>1256.1999511719</ele>
        <time>2020-09-12T13:08:54.000Z</time>
      </trkpt>
      <trkpt lat="43.99873" lon="6.90108">
        <ele>1257.1999511719</ele>
        <time>2020-09-12T13:09:01.000Z</time>
      </trkpt>
      <trkpt lat="43.99872" lon="6.90108">
        <ele>1257.4000244141</ele>
        <time>2020-09-12T13:09:02.000Z</time>
      </trkpt>
      <trkpt lat="43.99868" lon="6.90107">
        <ele>1258.4000244141</ele>
        <time>2020-09-12T13:09:07.000Z</time>
      </trkpt>
      <trkpt lat="43.99868" lon="6.90107">
        <ele>1258.5999755859</ele>
        <time>2020-09-12T13:09:10.000Z</time>
      </trkpt>
      <trkpt lat="43.99867" lon="6.90107">
        <ele>1258.4000244141</ele>
        <time>2020-09-12T13:09:25.000Z</time>
      </trkpt>
      <trkpt lat="43.99865" lon="6.90107">
        <ele>1258.5999755859</ele>
        <time>2020-09-12T13:09:36.000Z</time>
      </trkpt>
      <trkpt lat="43.99864" lon="6.90106">
        <ele>1259</ele>
        <time>2020-09-12T13:09:42.000Z</time>
      </trkpt>
      <trkpt lat="43.99863" lon="6.90106">
        <ele>1259</ele>
        <time>2020-09-12T13:09:43.000Z</time>
      </trkpt>
      <trkpt lat="43.99856" lon="6.90106">
        <ele>1259.5999755859</ele>
        <time>2020-09-12T13:09:48.000Z</time>
      </trkpt>
      <trkpt lat="43.99852" lon="6.90107">
        <ele>1260</ele>
        <time>2020-09-12T13:09:51.000Z</time>
      </trkpt>
      <trkpt lat="43.99847" lon="6.90107">
        <ele>1260.8000488281</ele>
        <time>2020-09-12T13:09:55.000Z</time>
      </trkpt>
      <trkpt lat="43.99841" lon="6.90105">
        <ele>1261.4000244141</ele>
        <time>2020-09-12T13:09:58.000Z</time>
      </trkpt>
      <trkpt lat="43.99838" lon="6.90105">
        <ele>1261.8000488281</ele>
        <time>2020-09-12T13:10:00.000Z</time>
      </trkpt>
      <trkpt lat="43.99829" lon="6.90105">
        <ele>1262.5999755859</ele>
        <time>2020-09-12T13:10:06.000Z</time>
      </trkpt>
      <trkpt lat="43.99826" lon="6.90106">
        <ele>1262.8000488281</ele>
        <time>2020-09-12T13:10:08.000Z</time>
      </trkpt>
      <trkpt lat="43.99817" lon="6.90104">
        <ele>1263.8000488281</ele>
        <time>2020-09-12T13:10:14.000Z</time>
      </trkpt>
      <trkpt lat="43.99815" lon="6.90103">
        <ele>1263.8000488281</ele>
        <time>2020-09-12T13:10:15.000Z</time>
      </trkpt>
      <trkpt lat="43.99804" lon="6.90102">
        <ele>1264.1999511719</ele>
        <time>2020-09-12T13:10:22.000Z</time>
      </trkpt>
      <trkpt lat="43.99792" lon="6.90105">
        <ele>1265</ele>
        <time>2020-09-12T13:10:30.000Z</time>
      </trkpt>
      <trkpt lat="43.99785" lon="6.90108">
        <ele>1265.8000488281</ele>
        <time>2020-09-12T13:10:36.000Z</time>
      </trkpt>
      <trkpt lat="43.9978" lon="6.90106">
        <ele>1266</ele>
        <time>2020-09-12T13:10:39.000Z</time>
      </trkpt>
      <trkpt lat="43.99776" lon="6.90105">
        <ele>1266.1999511719</ele>
        <time>2020-09-12T13:10:42.000Z</time>
      </trkpt>
      <trkpt lat="43.99775" lon="6.90104">
        <ele>1266.4000244141</ele>
        <time>2020-09-12T13:10:43.000Z</time>
      </trkpt>
      <trkpt lat="43.99765" lon="6.90098">
        <ele>1266.4000244141</ele>
        <time>2020-09-12T13:10:48.000Z</time>
      </trkpt>
      <trkpt lat="43.99755" lon="6.90096">
        <ele>1266</ele>
        <time>2020-09-12T13:10:54.000Z</time>
      </trkpt>
      <trkpt lat="43.99745" lon="6.90096">
        <ele>1266</ele>
        <time>2020-09-12T13:10:58.000Z</time>
      </trkpt>
      <trkpt lat="43.99731" lon="6.90094">
        <ele>1265.5999755859</ele>
        <time>2020-09-12T13:11:05.000Z</time>
      </trkpt>
      <trkpt lat="43.99717" lon="6.90093">
        <ele>1266.4000244141</ele>
        <time>2020-09-12T13:11:11.000Z</time>
      </trkpt>
      <trkpt lat="43.99709" lon="6.90096">
        <ele>1266.8000488281</ele>
        <time>2020-09-12T13:11:16.000Z</time>
      </trkpt>
      <trkpt lat="43.99708" lon="6.90095">
        <ele>1267</ele>
        <time>2020-09-12T13:11:17.000Z</time>
      </trkpt>
      <trkpt lat="43.99699" lon="6.90096">
        <ele>1268.1999511719</ele>
        <time>2020-09-12T13:11:23.000Z</time>
      </trkpt>
      <trkpt lat="43.99694" lon="6.90097">
        <ele>1268.8000488281</ele>
        <time>2020-09-12T13:11:29.000Z</time>
      </trkpt>
      <trkpt lat="43.99693" lon="6.90096">
        <ele>1268.8000488281</ele>
        <time>2020-09-12T13:11:30.000Z</time>
      </trkpt>
      <trkpt lat="43.9969" lon="6.90092">
        <ele>1269.1999511719</ele>
        <time>2020-09-12T13:11:36.000Z</time>
      </trkpt>
      <trkpt lat="43.99686" lon="6.90091">
        <ele>1270.1999511719</ele>
        <time>2020-09-12T13:11:42.000Z</time>
      </trkpt>
      <trkpt lat="43.99685" lon="6.90091">
        <ele>1270.5999755859</ele>
        <time>2020-09-12T13:11:44.000Z</time>
      </trkpt>
      <trkpt lat="43.99682" lon="6.90091">
        <ele>1271.4000244141</ele>
        <time>2020-09-12T13:11:49.000Z</time>
      </trkpt>
      <trkpt lat="43.99681" lon="6.9009">
        <ele>1271.8000488281</ele>
        <time>2020-09-12T13:11:52.000Z</time>
      </trkpt>
      <trkpt lat="43.99678" lon="6.90089">
        <ele>1272.4000244141</ele>
        <time>2020-09-12T13:11:56.000Z</time>
      </trkpt>
      <trkpt lat="43.99675" lon="6.90088">
        <ele>1273.4000244141</ele>
        <time>2020-09-12T13:12:01.000Z</time>
      </trkpt>
      <trkpt lat="43.99674" lon="6.90087">
        <ele>1273.5999755859</ele>
        <time>2020-09-12T13:12:02.000Z</time>
      </trkpt>
      <trkpt lat="43.99668" lon="6.90083">
        <ele>1274.5999755859</ele>
        <time>2020-09-12T13:12:10.000Z</time>
      </trkpt>
      <trkpt lat="43.99664" lon="6.90078">
        <ele>1275.8000488281</ele>
        <time>2020-09-12T13:12:15.000Z</time>
      </trkpt>
      <trkpt lat="43.99662" lon="6.90075">
        <ele>1276.1999511719</ele>
        <time>2020-09-12T13:12:18.000Z</time>
      </trkpt>
      <trkpt lat="43.99659" lon="6.90071">
        <ele>1276.5999755859</ele>
        <time>2020-09-12T13:12:25.000Z</time>
      </trkpt>
      <trkpt lat="43.99658" lon="6.9007">
        <ele>1276.8000488281</ele>
        <time>2020-09-12T13:12:30.000Z</time>
      </trkpt>
      <trkpt lat="43.99653" lon="6.90067">
        <ele>1277</ele>
        <time>2020-09-12T13:12:33.000Z</time>
      </trkpt>
      <trkpt lat="43.99646" lon="6.90061">
        <ele>1276.8000488281</ele>
        <time>2020-09-12T13:12:37.000Z</time>
      </trkpt>
      <trkpt lat="43.99643" lon="6.9006">
        <ele>1276.8000488281</ele>
        <time>2020-09-12T13:12:38.000Z</time>
      </trkpt>
      <trkpt lat="43.99629" lon="6.9005">
        <ele>1276.1999511719</ele>
        <time>2020-09-12T13:12:43.000Z</time>
      </trkpt>
      <trkpt lat="43.9962" lon="6.90045">
        <ele>1275.8000488281</ele>
        <time>2020-09-12T13:12:46.000Z</time>
      </trkpt>
      <trkpt lat="43.99617" lon="6.90045">
        <ele>1275.5999755859</ele>
        <time>2020-09-12T13:12:47.000Z</time>
      </trkpt>
      <trkpt lat="43.99611" lon="6.90045">
        <ele>1275.4000244141</ele>
        <time>2020-09-12T13:12:50.000Z</time>
      </trkpt>
      <trkpt lat="43.9961" lon="6.90043">
        <ele>1275.4000244141</ele>
        <time>2020-09-12T13:12:51.000Z</time>
      </trkpt>
      <trkpt lat="43.99597" lon="6.90033">
        <ele>1276.1999511719</ele>
        <time>2020-09-12T13:12:56.000Z</time>
      </trkpt>
      <trkpt lat="43.99581" lon="6.90028">
        <ele>1275.5999755859</ele>
        <time>2020-09-12T13:13:01.000Z</time>
      </trkpt>
      <trkpt lat="43.99574" lon="6.90032">
        <ele>1275.4000244141</ele>
        <time>2020-09-12T13:13:03.000Z</time>
      </trkpt>
      <trkpt lat="43.99567" lon="6.90034">
        <ele>1274.8000488281</ele>
        <time>2020-09-12T13:13:05.000Z</time>
      </trkpt>
      <trkpt lat="43.99563" lon="6.90035">
        <ele>1274.4000244141</ele>
        <time>2020-09-12T13:13:06.000Z</time>
      </trkpt>
      <trkpt lat="43.99556" lon="6.90036">
        <ele>1273.1999511719</ele>
        <time>2020-09-12T13:13:08.000Z</time>
      </trkpt>
      <trkpt lat="43.99554" lon="6.90038">
        <ele>1272.8000488281</ele>
        <time>2020-09-12T13:13:09.000Z</time>
      </trkpt>
      <trkpt lat="43.99552" lon="6.90037">
        <ele>1272.1999511719</ele>
        <time>2020-09-12T13:13:10.000Z</time>
      </trkpt>
      <trkpt lat="43.9955" lon="6.90035">
        <ele>1271.5999755859</ele>
        <time>2020-09-12T13:13:11.000Z</time>
      </trkpt>
      <trkpt lat="43.99549" lon="6.90032">
        <ele>1270.8000488281</ele>
        <time>2020-09-12T13:13:12.000Z</time>
      </trkpt>
      <trkpt lat="43.99548" lon="6.9003">
        <ele>1270.1999511719</ele>
        <time>2020-09-12T13:13:13.000Z</time>
      </trkpt>
      <trkpt lat="43.99546" lon="6.90027">
        <ele>1269.8000488281</ele>
        <time>2020-09-12T13:13:14.000Z</time>
      </trkpt>
      <trkpt lat="43.99542" lon="6.90024">
        <ele>1269.8000488281</ele>
        <time>2020-09-12T13:13:16.000Z</time>
      </trkpt>
      <trkpt lat="43.99539" lon="6.90025">
        <ele>1270</ele>
        <time>2020-09-12T13:13:17.000Z</time>
      </trkpt>
      <trkpt lat="43.99525" lon="6.9003">
        <ele>1271</ele>
        <time>2020-09-12T13:13:23.000Z</time>
      </trkpt>
      <trkpt lat="43.99513" lon="6.90038">
        <ele>1270.4000244141</ele>
        <time>2020-09-12T13:13:27.000Z</time>
      </trkpt>
      <trkpt lat="43.99509" lon="6.90038">
        <ele>1270</ele>
        <time>2020-09-12T13:13:30.000Z</time>
      </trkpt>
      <trkpt lat="43.99507" lon="6.9004">
        <ele>1270.1999511719</ele>
        <time>2020-09-12T13:13:32.000Z</time>
      </trkpt>
      <trkpt lat="43.99501" lon="6.90047">
        <ele>1271</ele>
        <time>2020-09-12T13:13:38.000Z</time>
      </trkpt>
      <trkpt lat="43.99499" lon="6.90048">
        <ele>1271.1999511719</ele>
        <time>2020-09-12T13:13:40.000Z</time>
      </trkpt>
      <trkpt lat="43.99493" lon="6.90047">
        <ele>1271.8000488281</ele>
        <time>2020-09-12T13:13:44.000Z</time>
      </trkpt>
      <trkpt lat="43.99488" lon="6.90046">
        <ele>1272.4000244141</ele>
        <time>2020-09-12T13:13:48.000Z</time>
      </trkpt>
      <trkpt lat="43.99488" lon="6.90046">
        <ele>1272.8000488281</ele>
        <time>2020-09-12T13:13:49.000Z</time>
      </trkpt>
      <trkpt lat="43.99486" lon="6.90045">
        <ele>1273.1999511719</ele>
        <time>2020-09-12T13:13:55.000Z</time>
      </trkpt>
      <trkpt lat="43.99484" lon="6.90046">
        <ele>1273</ele>
        <time>2020-09-12T13:14:08.000Z</time>
      </trkpt>
      <trkpt lat="43.99484" lon="6.90046">
        <ele>1273.5999755859</ele>
        <time>2020-09-12T13:14:12.000Z</time>
      </trkpt>
      <trkpt lat="43.99483" lon="6.90046">
        <ele>1273</ele>
        <time>2020-09-12T13:14:26.000Z</time>
      </trkpt>
      <trkpt lat="43.99482" lon="6.90048">
        <ele>1273</ele>
        <time>2020-09-12T13:14:34.000Z</time>
      </trkpt>
      <trkpt lat="43.99483" lon="6.9005">
        <ele>1273.4000244141</ele>
        <time>2020-09-12T13:14:40.000Z</time>
      </trkpt>
      <trkpt lat="43.99482" lon="6.90049">
        <ele>1273</ele>
        <time>2020-09-12T13:15:01.000Z</time>
      </trkpt>
      <trkpt lat="43.9948" lon="6.90048">
        <ele>1273</ele>
        <time>2020-09-12T13:15:14.000Z</time>
      </trkpt>
      <trkpt lat="43.99479" lon="6.90046">
        <ele>1273.1999511719</ele>
        <time>2020-09-12T13:15:22.000Z</time>
      </trkpt>
      <trkpt lat="43.9948" lon="6.90046">
        <ele>1273.1999511719</ele>
        <time>2020-09-12T13:15:34.000Z</time>
      </trkpt>
      <trkpt lat="43.99479" lon="6.90045">
        <ele>1273.1999511719</ele>
        <time>2020-09-12T13:15:43.000Z</time>
      </trkpt>
      <trkpt lat="43.99479" lon="6.90045">
        <ele>1274</ele>
        <time>2020-09-12T13:15:53.000Z</time>
      </trkpt>
      <trkpt lat="43.9948" lon="6.90046">
        <ele>1273.8000488281</ele>
        <time>2020-09-12T13:16:05.000Z</time>
      </trkpt>
      <trkpt lat="43.99479" lon="6.90045">
        <ele>1273.5999755859</ele>
        <time>2020-09-12T13:16:13.000Z</time>
      </trkpt>
      <trkpt lat="43.99478" lon="6.90044">
        <ele>1273.4000244141</ele>
        <time>2020-09-12T13:16:27.000Z</time>
      </trkpt>
      <trkpt lat="43.99478" lon="6.90044">
        <ele>1273.4000244141</ele>
        <time>2020-09-12T13:16:39.000Z</time>
      </trkpt>
      <trkpt lat="43.99477" lon="6.90043">
        <ele>1273.4000244141</ele>
        <time>2020-09-12T13:17:00.000Z</time>
      </trkpt>
      <trkpt lat="43.99477" lon="6.90043">
        <ele>1273.4000244141</ele>
        <time>2020-09-12T13:17:05.000Z</time>
      </trkpt>
      <trkpt lat="43.99477" lon="6.90043">
        <ele>1273.8000488281</ele>
        <time>2020-09-12T13:17:25.000Z</time>
      </trkpt>
      <trkpt lat="43.99476" lon="6.90043">
        <ele>1273.8000488281</ele>
        <time>2020-09-12T13:17:31.000Z</time>
      </trkpt>
      <trkpt lat="43.99477" lon="6.90042">
        <ele>1273.1999511719</ele>
        <time>2020-09-12T13:17:50.000Z</time>
      </trkpt>
      <trkpt lat="43.99477" lon="6.90041">
        <ele>1273</ele>
        <time>2020-09-12T13:18:06.000Z</time>
      </trkpt>
      <trkpt lat="43.99477" lon="6.9004">
        <ele>1273.4000244141</ele>
        <time>2020-09-12T13:18:17.000Z</time>
      </trkpt>
      <trkpt lat="43.99477" lon="6.90041">
        <ele>1273.4000244141</ele>
        <time>2020-09-12T13:18:29.000Z</time>
      </trkpt>
      <trkpt lat="43.99478" lon="6.90042">
        <ele>1273.4000244141</ele>
        <time>2020-09-12T13:18:39.000Z</time>
      </trkpt>
      <trkpt lat="43.99478" lon="6.90043">
        <ele>1273.4000244141</ele>
        <time>2020-09-12T13:18:49.000Z</time>
      </trkpt>
      <trkpt lat="43.99477" lon="6.90044">
        <ele>1273.8000488281</ele>
        <time>2020-09-12T13:19:02.000Z</time>
      </trkpt>
      <trkpt lat="43.99478" lon="6.90043">
        <ele>1273.5999755859</ele>
        <time>2020-09-12T13:19:14.000Z</time>
      </trkpt>
      <trkpt lat="43.99478" lon="6.90043">
        <ele>1273.1999511719</ele>
        <time>2020-09-12T13:19:31.000Z</time>
      </trkpt>
      <trkpt lat="43.99478" lon="6.90044">
        <ele>1273.5999755859</ele>
        <time>2020-09-12T13:19:40.000Z</time>
      </trkpt>
      <trkpt lat="43.99478" lon="6.90044">
        <ele>1274.1999511719</ele>
        <time>2020-09-12T13:19:54.000Z</time>
      </trkpt>
      <trkpt lat="43.99478" lon="6.90046">
        <ele>1274.1999511719</ele>
        <time>2020-09-12T13:20:06.000Z</time>
      </trkpt>
      <trkpt lat="43.99477" lon="6.90044">
        <ele>1274.1999511719</ele>
        <time>2020-09-12T13:20:12.000Z</time>
      </trkpt>
      <trkpt lat="43.99478" lon="6.90043">
        <ele>1274.4000244141</ele>
        <time>2020-09-12T13:20:22.000Z</time>
      </trkpt>
      <trkpt lat="43.99478" lon="6.90043">
        <ele>1274.4000244141</ele>
        <time>2020-09-12T13:20:40.000Z</time>
      </trkpt>
      <trkpt lat="43.99479" lon="6.90043">
        <ele>1274.5999755859</ele>
        <time>2020-09-12T13:21:02.000Z</time>
      </trkpt>
      <trkpt lat="43.99479" lon="6.90043">
        <ele>1274.5999755859</ele>
        <time>2020-09-12T13:21:11.000Z</time>
      </trkpt>
      <trkpt lat="43.99479" lon="6.90043">
        <ele>1274.4000244141</ele>
        <time>2020-09-12T13:21:20.000Z</time>
      </trkpt>
      <trkpt lat="43.99479" lon="6.90043">
        <ele>1274.4000244141</ele>
        <time>2020-09-12T13:21:26.000Z</time>
      </trkpt>
      <trkpt lat="43.99479" lon="6.90042">
        <ele>1274.1999511719</ele>
        <time>2020-09-12T13:21:32.000Z</time>
      </trkpt>
      <trkpt lat="43.9948" lon="6.90036">
        <ele>1274.1999511719</ele>
        <time>2020-09-12T13:21:39.000Z</time>
      </trkpt>
      <trkpt lat="43.99481" lon="6.90034">
        <ele>1274.4000244141</ele>
        <time>2020-09-12T13:21:40.000Z</time>
      </trkpt>
      <trkpt lat="43.99484" lon="6.90029">
        <ele>1274.5999755859</ele>
        <time>2020-09-12T13:21:44.000Z</time>
      </trkpt>
      <trkpt lat="43.99486" lon="6.90025">
        <ele>1274.8000488281</ele>
        <time>2020-09-12T13:21:46.000Z</time>
      </trkpt>
      <trkpt lat="43.99494" lon="6.90008">
        <ele>1275.1999511719</ele>
        <time>2020-09-12T13:21:52.000Z</time>
      </trkpt>
      <trkpt lat="43.995" lon="6.89991">
        <ele>1275</ele>
        <time>2020-09-12T13:21:58.000Z</time>
      </trkpt>
      <trkpt lat="43.99501" lon="6.89975">
        <ele>1274.8000488281</ele>
        <time>2020-09-12T13:22:02.000Z</time>
      </trkpt>
      <trkpt lat="43.99502" lon="6.89961">
        <ele>1273.1999511719</ele>
        <time>2020-09-12T13:22:06.000Z</time>
      </trkpt>
      <trkpt lat="43.99502" lon="6.89958">
        <ele>1272.5999755859</ele>
        <time>2020-09-12T13:22:07.000Z</time>
      </trkpt>
      <trkpt lat="43.99502" lon="6.89956">
        <ele>1272.1999511719</ele>
        <time>2020-09-12T13:22:08.000Z</time>
      </trkpt>
      <trkpt lat="43.995" lon="6.89941">
        <ele>1271.1999511719</ele>
        <time>2020-09-12T13:22:14.000Z</time>
      </trkpt>
      <trkpt lat="43.99499" lon="6.89936">
        <ele>1271.1999511719</ele>
        <time>2020-09-12T13:22:19.000Z</time>
      </trkpt>
      <trkpt lat="43.99499" lon="6.89933">
        <ele>1271.1999511719</ele>
        <time>2020-09-12T13:22:25.000Z</time>
      </trkpt>
      <trkpt lat="43.99497" lon="6.89929">
        <ele>1271.8000488281</ele>
        <time>2020-09-12T13:22:30.000Z</time>
      </trkpt>
      <trkpt lat="43.99497" lon="6.89927">
        <ele>1272</ele>
        <time>2020-09-12T13:22:31.000Z</time>
      </trkpt>
      <trkpt lat="43.99501" lon="6.89919">
        <ele>1272.8000488281</ele>
        <time>2020-09-12T13:22:39.000Z</time>
      </trkpt>
      <trkpt lat="43.99502" lon="6.89918">
        <ele>1273.1999511719</ele>
        <time>2020-09-12T13:22:40.000Z</time>
      </trkpt>
      <trkpt lat="43.99502" lon="6.89917">
        <ele>1273.5999755859</ele>
        <time>2020-09-12T13:22:41.000Z</time>
      </trkpt>
      <trkpt lat="43.99504" lon="6.89911">
        <ele>1274.4000244141</ele>
        <time>2020-09-12T13:22:44.000Z</time>
      </trkpt>
      <trkpt lat="43.99506" lon="6.89889">
        <ele>1274.8000488281</ele>
        <time>2020-09-12T13:22:51.000Z</time>
      </trkpt>
      <trkpt lat="43.99502" lon="6.89865">
        <ele>1274.1999511719</ele>
        <time>2020-09-12T13:22:57.000Z</time>
      </trkpt>
      <trkpt lat="43.99501" lon="6.89854">
        <ele>1273.1999511719</ele>
        <time>2020-09-12T13:22:59.000Z</time>
      </trkpt>
      <trkpt lat="43.995" lon="6.89849">
        <ele>1272</ele>
        <time>2020-09-12T13:23:00.000Z</time>
      </trkpt>
      <trkpt lat="43.99499" lon="6.89844">
        <ele>1270.8000488281</ele>
        <time>2020-09-12T13:23:01.000Z</time>
      </trkpt>
      <trkpt lat="43.99498" lon="6.89834">
        <ele>1268.8000488281</ele>
        <time>2020-09-12T13:23:03.000Z</time>
      </trkpt>
      <trkpt lat="43.99498" lon="6.89829">
        <ele>1267.4000244141</ele>
        <time>2020-09-12T13:23:04.000Z</time>
      </trkpt>
      <trkpt lat="43.99497" lon="6.89823">
        <ele>1266.5999755859</ele>
        <time>2020-09-12T13:23:05.000Z</time>
      </trkpt>
      <trkpt lat="43.99495" lon="6.89819">
        <ele>1265.5999755859</ele>
        <time>2020-09-12T13:23:06.000Z</time>
      </trkpt>
      <trkpt lat="43.99492" lon="6.89815">
        <ele>1265</ele>
        <time>2020-09-12T13:23:07.000Z</time>
      </trkpt>
      <trkpt lat="43.9949" lon="6.89811">
        <ele>1264.1999511719</ele>
        <time>2020-09-12T13:23:08.000Z</time>
      </trkpt>
      <trkpt lat="43.9949" lon="6.89805">
        <ele>1263</ele>
        <time>2020-09-12T13:23:10.000Z</time>
      </trkpt>
      <trkpt lat="43.99491" lon="6.89791">
        <ele>1262.8000488281</ele>
        <time>2020-09-12T13:23:16.000Z</time>
      </trkpt>
      <trkpt lat="43.99491" lon="6.89781">
        <ele>1263.8000488281</ele>
        <time>2020-09-12T13:23:20.000Z</time>
      </trkpt>
      <trkpt lat="43.99491" lon="6.89778">
        <ele>1264.1999511719</ele>
        <time>2020-09-12T13:23:22.000Z</time>
      </trkpt>
      <trkpt lat="43.99491" lon="6.89777">
        <ele>1264.1999511719</ele>
        <time>2020-09-12T13:23:23.000Z</time>
      </trkpt>
      <trkpt lat="43.99492" lon="6.89774">
        <ele>1264.1999511719</ele>
        <time>2020-09-12T13:23:24.000Z</time>
      </trkpt>
      <trkpt lat="43.99494" lon="6.89766">
        <ele>1264.8000488281</ele>
        <time>2020-09-12T13:23:28.000Z</time>
      </trkpt>
      <trkpt lat="43.99495" lon="6.89764">
        <ele>1265</ele>
        <time>2020-09-12T13:23:29.000Z</time>
      </trkpt>
      <trkpt lat="43.99495" lon="6.89762">
        <ele>1265.1999511719</ele>
        <time>2020-09-12T13:23:31.000Z</time>
      </trkpt>
      <trkpt lat="43.99496" lon="6.89756">
        <ele>1266.4000244141</ele>
        <time>2020-09-12T13:23:35.000Z</time>
      </trkpt>
      <trkpt lat="43.99497" lon="6.89753">
        <ele>1267.4000244141</ele>
        <time>2020-09-12T13:23:37.000Z</time>
      </trkpt>
      <trkpt lat="43.99497" lon="6.89751">
        <ele>1267.8000488281</ele>
        <time>2020-09-12T13:23:38.000Z</time>
      </trkpt>
      <trkpt lat="43.99497" lon="6.89748">
        <ele>1268.4000244141</ele>
        <time>2020-09-12T13:23:40.000Z</time>
      </trkpt>
      <trkpt lat="43.99497" lon="6.89745">
        <ele>1269</ele>
        <time>2020-09-12T13:23:42.000Z</time>
      </trkpt>
      <trkpt lat="43.99498" lon="6.89737">
        <ele>1269.4000244141</ele>
        <time>2020-09-12T13:23:46.000Z</time>
      </trkpt>
      <trkpt lat="43.99497" lon="6.8973">
        <ele>1269.8000488281</ele>
        <time>2020-09-12T13:23:50.000Z</time>
      </trkpt>
      <trkpt lat="43.99496" lon="6.89728">
        <ele>1270</ele>
        <time>2020-09-12T13:23:52.000Z</time>
      </trkpt>
      <trkpt lat="43.99495" lon="6.89721">
        <ele>1271.4000244141</ele>
        <time>2020-09-12T13:23:56.000Z</time>
      </trkpt>
      <trkpt lat="43.99495" lon="6.89717">
        <ele>1271.8000488281</ele>
        <time>2020-09-12T13:23:57.000Z</time>
      </trkpt>
      <trkpt lat="43.99494" lon="6.89712">
        <ele>1272</ele>
        <time>2020-09-12T13:23:58.000Z</time>
      </trkpt>
      <trkpt lat="43.99491" lon="6.89699">
        <ele>1271.8000488281</ele>
        <time>2020-09-12T13:24:02.000Z</time>
      </trkpt>
      <trkpt lat="43.9949" lon="6.89683">
        <ele>1272</ele>
        <time>2020-09-12T13:24:07.000Z</time>
      </trkpt>
      <trkpt lat="43.99487" lon="6.89674">
        <ele>1272.5999755859</ele>
        <time>2020-09-12T13:24:11.000Z</time>
      </trkpt>
      <trkpt lat="43.99487" lon="6.89671">
        <ele>1272.8000488281</ele>
        <time>2020-09-12T13:24:12.000Z</time>
      </trkpt>
      <trkpt lat="43.99487" lon="6.89665">
        <ele>1273.5999755859</ele>
        <time>2020-09-12T13:24:14.000Z</time>
      </trkpt>
      <trkpt lat="43.99488" lon="6.89663">
        <ele>1273.5999755859</ele>
        <time>2020-09-12T13:24:15.000Z</time>
      </trkpt>
      <trkpt lat="43.99489" lon="6.89661">
        <ele>1273.5999755859</ele>
        <time>2020-09-12T13:24:16.000Z</time>
      </trkpt>
      <trkpt lat="43.99498" lon="6.89651">
        <ele>1274</ele>
        <time>2020-09-12T13:24:21.000Z</time>
      </trkpt>
      <trkpt lat="43.99508" lon="6.89642">
        <ele>1274.1999511719</ele>
        <time>2020-09-12T13:24:28.000Z</time>
      </trkpt>
      <trkpt lat="43.9951" lon="6.89637">
        <ele>1274.5999755859</ele>
        <time>2020-09-12T13:24:29.000Z</time>
      </trkpt>
      <trkpt lat="43.99515" lon="6.8963">
        <ele>1274.8000488281</ele>
        <time>2020-09-12T13:24:32.000Z</time>
      </trkpt>
      <trkpt lat="43.99526" lon="6.89611">
        <ele>1275.5999755859</ele>
        <time>2020-09-12T13:24:40.000Z</time>
      </trkpt>
      <trkpt lat="43.99533" lon="6.89603">
        <ele>1276</ele>
        <time>2020-09-12T13:24:44.000Z</time>
      </trkpt>
      <trkpt lat="43.99537" lon="6.89598">
        <ele>1276.1999511719</ele>
        <time>2020-09-12T13:24:47.000Z</time>
      </trkpt>
      <trkpt lat="43.9954" lon="6.89597">
        <ele>1276.5999755859</ele>
        <time>2020-09-12T13:24:49.000Z</time>
      </trkpt>
      <trkpt lat="43.9954" lon="6.89597">
        <ele>1276.8000488281</ele>
        <time>2020-09-12T13:24:50.000Z</time>
      </trkpt>
      <trkpt lat="43.99541" lon="6.89597">
        <ele>1277.1999511719</ele>
        <time>2020-09-12T13:24:51.000Z</time>
      </trkpt>
      <trkpt lat="43.99544" lon="6.89595">
        <ele>1278</ele>
        <time>2020-09-12T13:24:54.000Z</time>
      </trkpt>
      <trkpt lat="43.99545" lon="6.89594">
        <ele>1278.1999511719</ele>
        <time>2020-09-12T13:24:55.000Z</time>
      </trkpt>
      <trkpt lat="43.99545" lon="6.89589">
        <ele>1279.1999511719</ele>
        <time>2020-09-12T13:24:59.000Z</time>
      </trkpt>
      <trkpt lat="43.99544" lon="6.89585">
        <ele>1279.5999755859</ele>
        <time>2020-09-12T13:25:02.000Z</time>
      </trkpt>
      <trkpt lat="43.99544" lon="6.89581">
        <ele>1280.4000244141</ele>
        <time>2020-09-12T13:25:05.000Z</time>
      </trkpt>
      <trkpt lat="43.99544" lon="6.8958">
        <ele>1281.1999511719</ele>
        <time>2020-09-12T13:25:09.000Z</time>
      </trkpt>
      <trkpt lat="43.99545" lon="6.89573">
        <ele>1281</ele>
        <time>2020-09-12T13:25:17.000Z</time>
      </trkpt>
      <trkpt lat="43.99549" lon="6.89554">
        <ele>1280.5999755859</ele>
        <time>2020-09-12T13:25:23.000Z</time>
      </trkpt>
      <trkpt lat="43.99549" lon="6.89548">
        <ele>1279.4000244141</ele>
        <time>2020-09-12T13:25:25.000Z</time>
      </trkpt>
      <trkpt lat="43.99549" lon="6.8954">
        <ele>1277.8000488281</ele>
        <time>2020-09-12T13:25:27.000Z</time>
      </trkpt>
      <trkpt lat="43.99552" lon="6.89531">
        <ele>1276.4000244141</ele>
        <time>2020-09-12T13:25:29.000Z</time>
      </trkpt>
      <trkpt lat="43.99557" lon="6.89521">
        <ele>1275.1999511719</ele>
        <time>2020-09-12T13:25:31.000Z</time>
      </trkpt>
      <trkpt lat="43.99562" lon="6.8951">
        <ele>1274.4000244141</ele>
        <time>2020-09-12T13:25:33.000Z</time>
      </trkpt>
      <trkpt lat="43.99565" lon="6.89503">
        <ele>1274</ele>
        <time>2020-09-12T13:25:34.000Z</time>
      </trkpt>
      <trkpt lat="43.99568" lon="6.89496">
        <ele>1273.5999755859</ele>
        <time>2020-09-12T13:25:35.000Z</time>
      </trkpt>
      <trkpt lat="43.99573" lon="6.89479">
        <ele>1272.8000488281</ele>
        <time>2020-09-12T13:25:37.000Z</time>
      </trkpt>
      <trkpt lat="43.99576" lon="6.89461">
        <ele>1271.1999511719</ele>
        <time>2020-09-12T13:25:39.000Z</time>
      </trkpt>
      <trkpt lat="43.99577" lon="6.89452">
        <ele>1269.8000488281</ele>
        <time>2020-09-12T13:25:40.000Z</time>
      </trkpt>
      <trkpt lat="43.99577" lon="6.89443">
        <ele>1268.4000244141</ele>
        <time>2020-09-12T13:25:41.000Z</time>
      </trkpt>
      <trkpt lat="43.99578" lon="6.89434">
        <ele>1266.5999755859</ele>
        <time>2020-09-12T13:25:42.000Z</time>
      </trkpt>
      <trkpt lat="43.99578" lon="6.89427">
        <ele>1265</ele>
        <time>2020-09-12T13:25:43.000Z</time>
      </trkpt>
      <trkpt lat="43.99576" lon="6.8942">
        <ele>1263.5999755859</ele>
        <time>2020-09-12T13:25:44.000Z</time>
      </trkpt>
      <trkpt lat="43.99573" lon="6.89415">
        <ele>1262.5999755859</ele>
        <time>2020-09-12T13:25:45.000Z</time>
      </trkpt>
      <trkpt lat="43.99571" lon="6.89409">
        <ele>1261.5999755859</ele>
        <time>2020-09-12T13:25:46.000Z</time>
      </trkpt>
      <trkpt lat="43.99568" lon="6.89403">
        <ele>1260.8000488281</ele>
        <time>2020-09-12T13:25:47.000Z</time>
      </trkpt>
      <trkpt lat="43.99566" lon="6.89399">
        <ele>1259.8000488281</ele>
        <time>2020-09-12T13:25:48.000Z</time>
      </trkpt>
      <trkpt lat="43.99563" lon="6.89394">
        <ele>1258.5999755859</ele>
        <time>2020-09-12T13:25:49.000Z</time>
      </trkpt>
      <trkpt lat="43.9956" lon="6.8939">
        <ele>1257.4000244141</ele>
        <time>2020-09-12T13:25:50.000Z</time>
      </trkpt>
      <trkpt lat="43.99556" lon="6.89388">
        <ele>1256.1999511719</ele>
        <time>2020-09-12T13:25:51.000Z</time>
      </trkpt>
      <trkpt lat="43.99552" lon="6.89386">
        <ele>1254.8000488281</ele>
        <time>2020-09-12T13:25:52.000Z</time>
      </trkpt>
      <trkpt lat="43.99549" lon="6.89382">
        <ele>1254</ele>
        <time>2020-09-12T13:25:53.000Z</time>
      </trkpt>
      <trkpt lat="43.99548" lon="6.89376">
        <ele>1253.4000244141</ele>
        <time>2020-09-12T13:25:54.000Z</time>
      </trkpt>
      <trkpt lat="43.99545" lon="6.89364">
        <ele>1252</ele>
        <time>2020-09-12T13:25:56.000Z</time>
      </trkpt>
      <trkpt lat="43.99543" lon="6.8935">
        <ele>1250.5999755859</ele>
        <time>2020-09-12T13:25:58.000Z</time>
      </trkpt>
      <trkpt lat="43.99545" lon="6.89343">
        <ele>1249.5999755859</ele>
        <time>2020-09-12T13:25:59.000Z</time>
      </trkpt>
      <trkpt lat="43.99545" lon="6.89335">
        <ele>1248.5999755859</ele>
        <time>2020-09-12T13:26:00.000Z</time>
      </trkpt>
      <trkpt lat="43.99545" lon="6.89328">
        <ele>1247.5999755859</ele>
        <time>2020-09-12T13:26:01.000Z</time>
      </trkpt>
      <trkpt lat="43.99544" lon="6.89322">
        <ele>1246.4000244141</ele>
        <time>2020-09-12T13:26:02.000Z</time>
      </trkpt>
      <trkpt lat="43.99542" lon="6.89316">
        <ele>1245.5999755859</ele>
        <time>2020-09-12T13:26:03.000Z</time>
      </trkpt>
      <trkpt lat="43.99538" lon="6.8931">
        <ele>1244.4000244141</ele>
        <time>2020-09-12T13:26:04.000Z</time>
      </trkpt>
      <trkpt lat="43.99534" lon="6.89303">
        <ele>1243.1999511719</ele>
        <time>2020-09-12T13:26:05.000Z</time>
      </trkpt>
      <trkpt lat="43.99531" lon="6.89298">
        <ele>1242.1999511719</ele>
        <time>2020-09-12T13:26:06.000Z</time>
      </trkpt>
      <trkpt lat="43.99529" lon="6.89294">
        <ele>1241</ele>
        <time>2020-09-12T13:26:07.000Z</time>
      </trkpt>
      <trkpt lat="43.99525" lon="6.89285">
        <ele>1240.1999511719</ele>
        <time>2020-09-12T13:26:10.000Z</time>
      </trkpt>
      <trkpt lat="43.99524" lon="6.89272">
        <ele>1240.5999755859</ele>
        <time>2020-09-12T13:26:14.000Z</time>
      </trkpt>
      <trkpt lat="43.99524" lon="6.89271">
        <ele>1240.8000488281</ele>
        <time>2020-09-12T13:26:15.000Z</time>
      </trkpt>
      <trkpt lat="43.99527" lon="6.89267">
        <ele>1241.5999755859</ele>
        <time>2020-09-12T13:26:18.000Z</time>
      </trkpt>
      <trkpt lat="43.99529" lon="6.89262">
        <ele>1242.4000244141</ele>
        <time>2020-09-12T13:26:20.000Z</time>
      </trkpt>
      <trkpt lat="43.99534" lon="6.89242">
        <ele>1242.8000488281</ele>
        <time>2020-09-12T13:26:25.000Z</time>
      </trkpt>
      <trkpt lat="43.99535" lon="6.89232">
        <ele>1242.4000244141</ele>
        <time>2020-09-12T13:26:27.000Z</time>
      </trkpt>
      <trkpt lat="43.99538" lon="6.89215">
        <ele>1242</ele>
        <time>2020-09-12T13:26:30.000Z</time>
      </trkpt>
      <trkpt lat="43.99537" lon="6.8921">
        <ele>1241.8000488281</ele>
        <time>2020-09-12T13:26:31.000Z</time>
      </trkpt>
      <trkpt lat="43.99532" lon="6.89199">
        <ele>1240.8000488281</ele>
        <time>2020-09-12T13:26:33.000Z</time>
      </trkpt>
      <trkpt lat="43.9953" lon="6.89192">
        <ele>1240.1999511719</ele>
        <time>2020-09-12T13:26:34.000Z</time>
      </trkpt>
      <trkpt lat="43.99529" lon="6.89183">
        <ele>1239.5999755859</ele>
        <time>2020-09-12T13:26:35.000Z</time>
      </trkpt>
      <trkpt lat="43.99529" lon="6.89175">
        <ele>1238.8000488281</ele>
        <time>2020-09-12T13:26:36.000Z</time>
      </trkpt>
      <trkpt lat="43.99529" lon="6.89168">
        <ele>1238.1999511719</ele>
        <time>2020-09-12T13:26:37.000Z</time>
      </trkpt>
      <trkpt lat="43.99528" lon="6.89163">
        <ele>1237.1999511719</ele>
        <time>2020-09-12T13:26:39.000Z</time>
      </trkpt>
      <trkpt lat="43.99523" lon="6.89161">
        <ele>1235.8000488281</ele>
        <time>2020-09-12T13:26:41.000Z</time>
      </trkpt>
      <trkpt lat="43.99519" lon="6.89162">
        <ele>1235.1999511719</ele>
        <time>2020-09-12T13:26:42.000Z</time>
      </trkpt>
      <trkpt lat="43.99515" lon="6.89165">
        <ele>1235</ele>
        <time>2020-09-12T13:26:43.000Z</time>
      </trkpt>
      <trkpt lat="43.9951" lon="6.89166">
        <ele>1234.5999755859</ele>
        <time>2020-09-12T13:26:44.000Z</time>
      </trkpt>
      <trkpt lat="43.99505" lon="6.89163">
        <ele>1234.5999755859</ele>
        <time>2020-09-12T13:26:45.000Z</time>
      </trkpt>
      <trkpt lat="43.99492" lon="6.89147">
        <ele>1233.5999755859</ele>
        <time>2020-09-12T13:26:49.000Z</time>
      </trkpt>
      <trkpt lat="43.9949" lon="6.89141">
        <ele>1233.1999511719</ele>
        <time>2020-09-12T13:26:50.000Z</time>
      </trkpt>
      <trkpt lat="43.99487" lon="6.89134">
        <ele>1232.5999755859</ele>
        <time>2020-09-12T13:26:51.000Z</time>
      </trkpt>
      <trkpt lat="43.99484" lon="6.89128">
        <ele>1232</ele>
        <time>2020-09-12T13:26:52.000Z</time>
      </trkpt>
      <trkpt lat="43.99481" lon="6.8912">
        <ele>1231.4000244141</ele>
        <time>2020-09-12T13:26:53.000Z</time>
      </trkpt>
      <trkpt lat="43.99474" lon="6.89104">
        <ele>1230.1999511719</ele>
        <time>2020-09-12T13:26:55.000Z</time>
      </trkpt>
      <trkpt lat="43.99471" lon="6.89099">
        <ele>1229.5999755859</ele>
        <time>2020-09-12T13:26:56.000Z</time>
      </trkpt>
      <trkpt lat="43.99468" lon="6.89093">
        <ele>1229</ele>
        <time>2020-09-12T13:26:57.000Z</time>
      </trkpt>
      <trkpt lat="43.99462" lon="6.89076">
        <ele>1227.8000488281</ele>
        <time>2020-09-12T13:26:59.000Z</time>
      </trkpt>
      <trkpt lat="43.99458" lon="6.89067">
        <ele>1227</ele>
        <time>2020-09-12T13:27:00.000Z</time>
      </trkpt>
      <trkpt lat="43.99454" lon="6.89059">
        <ele>1226.4000244141</ele>
        <time>2020-09-12T13:27:01.000Z</time>
      </trkpt>
      <trkpt lat="43.99446" lon="6.89046">
        <ele>1225.4000244141</ele>
        <time>2020-09-12T13:27:03.000Z</time>
      </trkpt>
      <trkpt lat="43.99441" lon="6.89041">
        <ele>1224.5999755859</ele>
        <time>2020-09-12T13:27:04.000Z</time>
      </trkpt>
      <trkpt lat="43.99438" lon="6.89035">
        <ele>1224.1999511719</ele>
        <time>2020-09-12T13:27:05.000Z</time>
      </trkpt>
      <trkpt lat="43.99433" lon="6.8902">
        <ele>1223</ele>
        <time>2020-09-12T13:27:07.000Z</time>
      </trkpt>
      <trkpt lat="43.99427" lon="6.89009">
        <ele>1221.5999755859</ele>
        <time>2020-09-12T13:27:09.000Z</time>
      </trkpt>
      <trkpt lat="43.99423" lon="6.89006">
        <ele>1220.8000488281</ele>
        <time>2020-09-12T13:27:10.000Z</time>
      </trkpt>
      <trkpt lat="43.99419" lon="6.89002">
        <ele>1220.1999511719</ele>
        <time>2020-09-12T13:27:11.000Z</time>
      </trkpt>
      <trkpt lat="43.99417" lon="6.88995">
        <ele>1218.8000488281</ele>
        <time>2020-09-12T13:27:13.000Z</time>
      </trkpt>
      <trkpt lat="43.99415" lon="6.88987">
        <ele>1217.5999755859</ele>
        <time>2020-09-12T13:27:15.000Z</time>
      </trkpt>
      <trkpt lat="43.99414" lon="6.88983">
        <ele>1217.1999511719</ele>
        <time>2020-09-12T13:27:16.000Z</time>
      </trkpt>
      <trkpt lat="43.99413" lon="6.88978">
        <ele>1216.5999755859</ele>
        <time>2020-09-12T13:27:17.000Z</time>
      </trkpt>
      <trkpt lat="43.99414" lon="6.88973">
        <ele>1216.1999511719</ele>
        <time>2020-09-12T13:27:18.000Z</time>
      </trkpt>
      <trkpt lat="43.99416" lon="6.88969">
        <ele>1215.8000488281</ele>
        <time>2020-09-12T13:27:19.000Z</time>
      </trkpt>
      <trkpt lat="43.99419" lon="6.88949">
        <ele>1215.4000244141</ele>
        <time>2020-09-12T13:27:23.000Z</time>
      </trkpt>
      <trkpt lat="43.99421" lon="6.88943">
        <ele>1215.4000244141</ele>
        <time>2020-09-12T13:27:24.000Z</time>
      </trkpt>
      <trkpt lat="43.99429" lon="6.88922">
        <ele>1215.5999755859</ele>
        <time>2020-09-12T13:27:28.000Z</time>
      </trkpt>
      <trkpt lat="43.99429" lon="6.88919">
        <ele>1215.1999511719</ele>
        <time>2020-09-12T13:27:29.000Z</time>
      </trkpt>
      <trkpt lat="43.99427" lon="6.88914">
        <ele>1215</ele>
        <time>2020-09-12T13:27:30.000Z</time>
      </trkpt>
      <trkpt lat="43.99425" lon="6.88898">
        <ele>1213.5999755859</ele>
        <time>2020-09-12T13:27:33.000Z</time>
      </trkpt>
      <trkpt lat="43.99424" lon="6.88887">
        <ele>1212</ele>
        <time>2020-09-12T13:27:35.000Z</time>
      </trkpt>
      <trkpt lat="43.99423" lon="6.88881">
        <ele>1211</ele>
        <time>2020-09-12T13:27:36.000Z</time>
      </trkpt>
      <trkpt lat="43.99423" lon="6.88873">
        <ele>1209.8000488281</ele>
        <time>2020-09-12T13:27:38.000Z</time>
      </trkpt>
      <trkpt lat="43.99423" lon="6.8887">
        <ele>1209.4000244141</ele>
        <time>2020-09-12T13:27:39.000Z</time>
      </trkpt>
      <trkpt lat="43.99425" lon="6.88862">
        <ele>1208.5999755859</ele>
        <time>2020-09-12T13:27:41.000Z</time>
      </trkpt>
      <trkpt lat="43.99426" lon="6.88857">
        <ele>1208.5999755859</ele>
        <time>2020-09-12T13:27:42.000Z</time>
      </trkpt>
      <trkpt lat="43.99428" lon="6.88853">
        <ele>1208.4000244141</ele>
        <time>2020-09-12T13:27:43.000Z</time>
      </trkpt>
      <trkpt lat="43.99431" lon="6.8884">
        <ele>1207.8000488281</ele>
        <time>2020-09-12T13:27:46.000Z</time>
      </trkpt>
      <trkpt lat="43.99431" lon="6.88833">
        <ele>1207.4000244141</ele>
        <time>2020-09-12T13:27:47.000Z</time>
      </trkpt>
      <trkpt lat="43.99428" lon="6.88818">
        <ele>1206.1999511719</ele>
        <time>2020-09-12T13:27:49.000Z</time>
      </trkpt>
      <trkpt lat="43.99423" lon="6.88804">
        <ele>1205.1999511719</ele>
        <time>2020-09-12T13:27:51.000Z</time>
      </trkpt>
      <trkpt lat="43.99415" lon="6.88789">
        <ele>1203.4000244141</ele>
        <time>2020-09-12T13:27:54.000Z</time>
      </trkpt>
      <trkpt lat="43.99411" lon="6.88782">
        <ele>1202.4000244141</ele>
        <time>2020-09-12T13:27:56.000Z</time>
      </trkpt>
      <trkpt lat="43.99407" lon="6.88782">
        <ele>1202</ele>
        <time>2020-09-12T13:27:57.000Z</time>
      </trkpt>
      <trkpt lat="43.99403" lon="6.88783">
        <ele>1201.8000488281</ele>
        <time>2020-09-12T13:27:58.000Z</time>
      </trkpt>
      <trkpt lat="43.99399" lon="6.88779">
        <ele>1201.4000244141</ele>
        <time>2020-09-12T13:27:59.000Z</time>
      </trkpt>
      <trkpt lat="43.99397" lon="6.88774">
        <ele>1201</ele>
        <time>2020-09-12T13:28:00.000Z</time>
      </trkpt>
      <trkpt lat="43.99395" lon="6.88768">
        <ele>1200.1999511719</ele>
        <time>2020-09-12T13:28:01.000Z</time>
      </trkpt>
      <trkpt lat="43.99393" lon="6.88765">
        <ele>1199.4000244141</ele>
        <time>2020-09-12T13:28:02.000Z</time>
      </trkpt>
      <trkpt lat="43.99391" lon="6.88765">
        <ele>1198.4000244141</ele>
        <time>2020-09-12T13:28:03.000Z</time>
      </trkpt>
      <trkpt lat="43.99389" lon="6.88768">
        <ele>1196.8000488281</ele>
        <time>2020-09-12T13:28:04.000Z</time>
      </trkpt>
      <trkpt lat="43.99387" lon="6.88771">
        <ele>1195.4000244141</ele>
        <time>2020-09-12T13:28:05.000Z</time>
      </trkpt>
      <trkpt lat="43.99384" lon="6.88772">
        <ele>1194.1999511719</ele>
        <time>2020-09-12T13:28:06.000Z</time>
      </trkpt>
      <trkpt lat="43.99378" lon="6.88773">
        <ele>1192.8000488281</ele>
        <time>2020-09-12T13:28:08.000Z</time>
      </trkpt>
      <trkpt lat="43.9937" lon="6.88774">
        <ele>1192.5999755859</ele>
        <time>2020-09-12T13:28:10.000Z</time>
      </trkpt>
      <trkpt lat="43.99357" lon="6.88772">
        <ele>1192.4000244141</ele>
        <time>2020-09-12T13:28:13.000Z</time>
      </trkpt>
      <trkpt lat="43.99347" lon="6.8877">
        <ele>1192.1999511719</ele>
        <time>2020-09-12T13:28:15.000Z</time>
      </trkpt>
      <trkpt lat="43.99338" lon="6.88773">
        <ele>1192.1999511719</ele>
        <time>2020-09-12T13:28:17.000Z</time>
      </trkpt>
      <trkpt lat="43.99333" lon="6.88774">
        <ele>1192</ele>
        <time>2020-09-12T13:28:18.000Z</time>
      </trkpt>
      <trkpt lat="43.99329" lon="6.88775">
        <ele>1191.8000488281</ele>
        <time>2020-09-12T13:28:19.000Z</time>
      </trkpt>
      <trkpt lat="43.99324" lon="6.88776">
        <ele>1191.8000488281</ele>
        <time>2020-09-12T13:28:20.000Z</time>
      </trkpt>
      <trkpt lat="43.99314" lon="6.88783">
        <ele>1191.5999755859</ele>
        <time>2020-09-12T13:28:22.000Z</time>
      </trkpt>
      <trkpt lat="43.99301" lon="6.88792">
        <ele>1190.8000488281</ele>
        <time>2020-09-12T13:28:25.000Z</time>
      </trkpt>
      <trkpt lat="43.99298" lon="6.88794">
        <ele>1190.1999511719</ele>
        <time>2020-09-12T13:28:26.000Z</time>
      </trkpt>
      <trkpt lat="43.99295" lon="6.88797">
        <ele>1189.8000488281</ele>
        <time>2020-09-12T13:28:27.000Z</time>
      </trkpt>
      <trkpt lat="43.99292" lon="6.88801">
        <ele>1189.5999755859</ele>
        <time>2020-09-12T13:28:28.000Z</time>
      </trkpt>
      <trkpt lat="43.99289" lon="6.88803">
        <ele>1189.1999511719</ele>
        <time>2020-09-12T13:28:29.000Z</time>
      </trkpt>
      <trkpt lat="43.99284" lon="6.88799">
        <ele>1189</ele>
        <time>2020-09-12T13:28:31.000Z</time>
      </trkpt>
      <trkpt lat="43.99278" lon="6.88786">
        <ele>1189</ele>
        <time>2020-09-12T13:28:33.000Z</time>
      </trkpt>
      <trkpt lat="43.99275" lon="6.8878">
        <ele>1188.5999755859</ele>
        <time>2020-09-12T13:28:34.000Z</time>
      </trkpt>
      <trkpt lat="43.99271" lon="6.88774">
        <ele>1188.4000244141</ele>
        <time>2020-09-12T13:28:35.000Z</time>
      </trkpt>
      <trkpt lat="43.99265" lon="6.88766">
        <ele>1187.1999511719</ele>
        <time>2020-09-12T13:28:37.000Z</time>
      </trkpt>
      <trkpt lat="43.99264" lon="6.88763">
        <ele>1186.1999511719</ele>
        <time>2020-09-12T13:28:38.000Z</time>
      </trkpt>
      <trkpt lat="43.99263" lon="6.8876">
        <ele>1184.8000488281</ele>
        <time>2020-09-12T13:28:39.000Z</time>
      </trkpt>
      <trkpt lat="43.99263" lon="6.88758">
        <ele>1183.1999511719</ele>
        <time>2020-09-12T13:28:40.000Z</time>
      </trkpt>
      <trkpt lat="43.99263" lon="6.88756">
        <ele>1182</ele>
        <time>2020-09-12T13:28:41.000Z</time>
      </trkpt>
      <trkpt lat="43.99263" lon="6.88753">
        <ele>1180.8000488281</ele>
        <time>2020-09-12T13:28:42.000Z</time>
      </trkpt>
      <trkpt lat="43.99261" lon="6.8875">
        <ele>1179.8000488281</ele>
        <time>2020-09-12T13:28:43.000Z</time>
      </trkpt>
      <trkpt lat="43.99255" lon="6.88742">
        <ele>1178.1999511719</ele>
        <time>2020-09-12T13:28:45.000Z</time>
      </trkpt>
      <trkpt lat="43.99251" lon="6.88742">
        <ele>1176</ele>
        <time>2020-09-12T13:28:47.000Z</time>
      </trkpt>
      <trkpt lat="43.99249" lon="6.88743">
        <ele>1174.8000488281</ele>
        <time>2020-09-12T13:28:48.000Z</time>
      </trkpt>
      <trkpt lat="43.99247" lon="6.88741">
        <ele>1173.8000488281</ele>
        <time>2020-09-12T13:28:49.000Z</time>
      </trkpt>
      <trkpt lat="43.99246" lon="6.88737">
        <ele>1172.5999755859</ele>
        <time>2020-09-12T13:28:50.000Z</time>
      </trkpt>
      <trkpt lat="43.99246" lon="6.88732">
        <ele>1172</ele>
        <time>2020-09-12T13:28:51.000Z</time>
      </trkpt>
      <trkpt lat="43.99244" lon="6.88728">
        <ele>1171.4000244141</ele>
        <time>2020-09-12T13:28:52.000Z</time>
      </trkpt>
      <trkpt lat="43.9924" lon="6.8872">
        <ele>1170.8000488281</ele>
        <time>2020-09-12T13:28:54.000Z</time>
      </trkpt>
      <trkpt lat="43.99239" lon="6.88716">
        <ele>1170</ele>
        <time>2020-09-12T13:28:55.000Z</time>
      </trkpt>
      <trkpt lat="43.99235" lon="6.88707">
        <ele>1167.8000488281</ele>
        <time>2020-09-12T13:28:57.000Z</time>
      </trkpt>
      <trkpt lat="43.99233" lon="6.88702">
        <ele>1166.4000244141</ele>
        <time>2020-09-12T13:28:58.000Z</time>
      </trkpt>
      <trkpt lat="43.99229" lon="6.88697">
        <ele>1165</ele>
        <time>2020-09-12T13:28:59.000Z</time>
      </trkpt>
      <trkpt lat="43.99227" lon="6.88692">
        <ele>1163.8000488281</ele>
        <time>2020-09-12T13:29:00.000Z</time>
      </trkpt>
      <trkpt lat="43.99225" lon="6.88685">
        <ele>1162.4000244141</ele>
        <time>2020-09-12T13:29:01.000Z</time>
      </trkpt>
      <trkpt lat="43.99223" lon="6.88679">
        <ele>1161.1999511719</ele>
        <time>2020-09-12T13:29:02.000Z</time>
      </trkpt>
      <trkpt lat="43.99222" lon="6.88673">
        <ele>1159.8000488281</ele>
        <time>2020-09-12T13:29:03.000Z</time>
      </trkpt>
      <trkpt lat="43.99219" lon="6.8866">
        <ele>1156.8000488281</ele>
        <time>2020-09-12T13:29:05.000Z</time>
      </trkpt>
      <trkpt lat="43.99218" lon="6.88654">
        <ele>1155.4000244141</ele>
        <time>2020-09-12T13:29:06.000Z</time>
      </trkpt>
      <trkpt lat="43.99216" lon="6.8865">
        <ele>1153.5999755859</ele>
        <time>2020-09-12T13:29:07.000Z</time>
      </trkpt>
      <trkpt lat="43.99215" lon="6.88647">
        <ele>1152.4000244141</ele>
        <time>2020-09-12T13:29:08.000Z</time>
      </trkpt>
      <trkpt lat="43.99213" lon="6.88643">
        <ele>1150.8000488281</ele>
        <time>2020-09-12T13:29:09.000Z</time>
      </trkpt>
      <trkpt lat="43.99211" lon="6.88638">
        <ele>1149.4000244141</ele>
        <time>2020-09-12T13:29:10.000Z</time>
      </trkpt>
      <trkpt lat="43.99209" lon="6.88632">
        <ele>1150</ele>
        <time>2020-09-12T13:29:11.000Z</time>
      </trkpt>
      <trkpt lat="43.99201" lon="6.88613">
        <ele>1146.8000488281</ele>
        <time>2020-09-12T13:29:14.000Z</time>
      </trkpt>
      <trkpt lat="43.992" lon="6.88607">
        <ele>1145.5999755859</ele>
        <time>2020-09-12T13:29:15.000Z</time>
      </trkpt>
      <trkpt lat="43.99198" lon="6.88602">
        <ele>1144</ele>
        <time>2020-09-12T13:29:16.000Z</time>
      </trkpt>
      <trkpt lat="43.99196" lon="6.88598">
        <ele>1142.5999755859</ele>
        <time>2020-09-12T13:29:17.000Z</time>
      </trkpt>
      <trkpt lat="43.99194" lon="6.88594">
        <ele>1141.4000244141</ele>
        <time>2020-09-12T13:29:18.000Z</time>
      </trkpt>
      <trkpt lat="43.99193" lon="6.88588">
        <ele>1140.8000488281</ele>
        <time>2020-09-12T13:29:19.000Z</time>
      </trkpt>
      <trkpt lat="43.99191" lon="6.88581">
        <ele>1139.8000488281</ele>
        <time>2020-09-12T13:29:20.000Z</time>
      </trkpt>
      <trkpt lat="43.99187" lon="6.8857">
        <ele>1137.8000488281</ele>
        <time>2020-09-12T13:29:22.000Z</time>
      </trkpt>
      <trkpt lat="43.99185" lon="6.88566">
        <ele>1136.4000244141</ele>
        <time>2020-09-12T13:29:23.000Z</time>
      </trkpt>
      <trkpt lat="43.99183" lon="6.88564">
        <ele>1134.5999755859</ele>
        <time>2020-09-12T13:29:24.000Z</time>
      </trkpt>
      <trkpt lat="43.99181" lon="6.88563">
        <ele>1133.4000244141</ele>
        <time>2020-09-12T13:29:25.000Z</time>
      </trkpt>
      <trkpt lat="43.99179" lon="6.88562">
        <ele>1132.1999511719</ele>
        <time>2020-09-12T13:29:26.000Z</time>
      </trkpt>
      <trkpt lat="43.99177" lon="6.8856">
        <ele>1131</ele>
        <time>2020-09-12T13:29:27.000Z</time>
      </trkpt>
      <trkpt lat="43.99175" lon="6.88556">
        <ele>1129.4000244141</ele>
        <time>2020-09-12T13:29:29.000Z</time>
      </trkpt>
      <trkpt lat="43.99171" lon="6.88549">
        <ele>1128.5999755859</ele>
        <time>2020-09-12T13:29:31.000Z</time>
      </trkpt>
      <trkpt lat="43.99168" lon="6.88545">
        <ele>1127.8000488281</ele>
        <time>2020-09-12T13:29:32.000Z</time>
      </trkpt>
      <trkpt lat="43.99164" lon="6.88536">
        <ele>1126</ele>
        <time>2020-09-12T13:29:34.000Z</time>
      </trkpt>
      <trkpt lat="43.99162" lon="6.88529">
        <ele>1124.8000488281</ele>
        <time>2020-09-12T13:29:35.000Z</time>
      </trkpt>
      <trkpt lat="43.99157" lon="6.88515">
        <ele>1122.8000488281</ele>
        <time>2020-09-12T13:29:37.000Z</time>
      </trkpt>
      <trkpt lat="43.99151" lon="6.88502">
        <ele>1120.8000488281</ele>
        <time>2020-09-12T13:29:39.000Z</time>
      </trkpt>
      <trkpt lat="43.99146" lon="6.88496">
        <ele>1119.5999755859</ele>
        <time>2020-09-12T13:29:40.000Z</time>
      </trkpt>
      <trkpt lat="43.99142" lon="6.88493">
        <ele>1118.4000244141</ele>
        <time>2020-09-12T13:29:41.000Z</time>
      </trkpt>
      <trkpt lat="43.99134" lon="6.88488">
        <ele>1117.8000488281</ele>
        <time>2020-09-12T13:29:43.000Z</time>
      </trkpt>
      <trkpt lat="43.99121" lon="6.88483">
        <ele>1117.1999511719</ele>
        <time>2020-09-12T13:29:46.000Z</time>
      </trkpt>
      <trkpt lat="43.99117" lon="6.88484">
        <ele>1116.5999755859</ele>
        <time>2020-09-12T13:29:47.000Z</time>
      </trkpt>
      <trkpt lat="43.99115" lon="6.88483">
        <ele>1116.1999511719</ele>
        <time>2020-09-12T13:29:48.000Z</time>
      </trkpt>
      <trkpt lat="43.99105" lon="6.88483">
        <ele>1116</ele>
        <time>2020-09-12T13:29:51.000Z</time>
      </trkpt>
      <trkpt lat="43.99094" lon="6.88487">
        <ele>1115</ele>
        <time>2020-09-12T13:29:53.000Z</time>
      </trkpt>
      <trkpt lat="43.9909" lon="6.88489">
        <ele>1114.4000244141</ele>
        <time>2020-09-12T13:29:54.000Z</time>
      </trkpt>
      <trkpt lat="43.99084" lon="6.88497">
        <ele>1114</ele>
        <time>2020-09-12T13:29:57.000Z</time>
      </trkpt>
      <trkpt lat="43.99083" lon="6.885">
        <ele>1114</ele>
        <time>2020-09-12T13:29:58.000Z</time>
      </trkpt>
      <trkpt lat="43.99078" lon="6.88509">
        <ele>1115.1999511719</ele>
        <time>2020-09-12T13:30:02.000Z</time>
      </trkpt>
      <trkpt lat="43.99073" lon="6.88523">
        <ele>1116.5999755859</ele>
        <time>2020-09-12T13:30:06.000Z</time>
      </trkpt>
      <trkpt lat="43.99072" lon="6.88525">
        <ele>1116.5999755859</ele>
        <time>2020-09-12T13:30:07.000Z</time>
      </trkpt>
      <trkpt lat="43.9906" lon="6.88537">
        <ele>1116.5999755859</ele>
        <time>2020-09-12T13:30:12.000Z</time>
      </trkpt>
      <trkpt lat="43.99058" lon="6.88536">
        <ele>1116.4000244141</ele>
        <time>2020-09-12T13:30:13.000Z</time>
      </trkpt>
      <trkpt lat="43.99049" lon="6.88532">
        <ele>1115.5999755859</ele>
        <time>2020-09-12T13:30:17.000Z</time>
      </trkpt>
      <trkpt lat="43.99043" lon="6.88541">
        <ele>1115.8000488281</ele>
        <time>2020-09-12T13:30:20.000Z</time>
      </trkpt>
      <trkpt lat="43.99039" lon="6.88549">
        <ele>1115.4000244141</ele>
        <time>2020-09-12T13:30:22.000Z</time>
      </trkpt>
      <trkpt lat="43.99031" lon="6.88559">
        <ele>1114.5999755859</ele>
        <time>2020-09-12T13:30:25.000Z</time>
      </trkpt>
      <trkpt lat="43.99029" lon="6.88558">
        <ele>1114.1999511719</ele>
        <time>2020-09-12T13:30:26.000Z</time>
      </trkpt>
      <trkpt lat="43.99022" lon="6.88555">
        <ele>1113.4000244141</ele>
        <time>2020-09-12T13:30:28.000Z</time>
      </trkpt>
      <trkpt lat="43.99018" lon="6.88555">
        <ele>1112.8000488281</ele>
        <time>2020-09-12T13:30:29.000Z</time>
      </trkpt>
      <trkpt lat="43.99009" lon="6.88558">
        <ele>1111.5999755859</ele>
        <time>2020-09-12T13:30:31.000Z</time>
      </trkpt>
      <trkpt lat="43.98999" lon="6.88557">
        <ele>1110</ele>
        <time>2020-09-12T13:30:33.000Z</time>
      </trkpt>
      <trkpt lat="43.98994" lon="6.88556">
        <ele>1108.8000488281</ele>
        <time>2020-09-12T13:30:34.000Z</time>
      </trkpt>
      <trkpt lat="43.9899" lon="6.88555">
        <ele>1107.5999755859</ele>
        <time>2020-09-12T13:30:35.000Z</time>
      </trkpt>
      <trkpt lat="43.98986" lon="6.88552">
        <ele>1106.4000244141</ele>
        <time>2020-09-12T13:30:36.000Z</time>
      </trkpt>
      <trkpt lat="43.98984" lon="6.88546">
        <ele>1105.1999511719</ele>
        <time>2020-09-12T13:30:37.000Z</time>
      </trkpt>
      <trkpt lat="43.9898" lon="6.88532">
        <ele>1103.4000244141</ele>
        <time>2020-09-12T13:30:39.000Z</time>
      </trkpt>
      <trkpt lat="43.98977" lon="6.88527">
        <ele>1102.5999755859</ele>
        <time>2020-09-12T13:30:40.000Z</time>
      </trkpt>
      <trkpt lat="43.98973" lon="6.88522">
        <ele>1102</ele>
        <time>2020-09-12T13:30:41.000Z</time>
      </trkpt>
      <trkpt lat="43.98964" lon="6.88512">
        <ele>1100.5999755859</ele>
        <time>2020-09-12T13:30:43.000Z</time>
      </trkpt>
      <trkpt lat="43.98958" lon="6.88509">
        <ele>1099.4000244141</ele>
        <time>2020-09-12T13:30:44.000Z</time>
      </trkpt>
      <trkpt lat="43.98953" lon="6.88507">
        <ele>1098.1999511719</ele>
        <time>2020-09-12T13:30:45.000Z</time>
      </trkpt>
      <trkpt lat="43.9895" lon="6.88505">
        <ele>1096.8000488281</ele>
        <time>2020-09-12T13:30:46.000Z</time>
      </trkpt>
      <trkpt lat="43.98946" lon="6.88503">
        <ele>1095.1999511719</ele>
        <time>2020-09-12T13:30:47.000Z</time>
      </trkpt>
      <trkpt lat="43.98942" lon="6.885">
        <ele>1093.5999755859</ele>
        <time>2020-09-12T13:30:48.000Z</time>
      </trkpt>
      <trkpt lat="43.98938" lon="6.88498">
        <ele>1092.1999511719</ele>
        <time>2020-09-12T13:30:49.000Z</time>
      </trkpt>
      <trkpt lat="43.98934" lon="6.88496">
        <ele>1090.8000488281</ele>
        <time>2020-09-12T13:30:50.000Z</time>
      </trkpt>
      <trkpt lat="43.98929" lon="6.88494">
        <ele>1089.8000488281</ele>
        <time>2020-09-12T13:30:51.000Z</time>
      </trkpt>
      <trkpt lat="43.98925" lon="6.88492">
        <ele>1088.5999755859</ele>
        <time>2020-09-12T13:30:52.000Z</time>
      </trkpt>
      <trkpt lat="43.98916" lon="6.88485">
        <ele>1086.8000488281</ele>
        <time>2020-09-12T13:30:54.000Z</time>
      </trkpt>
      <trkpt lat="43.98911" lon="6.88477">
        <ele>1085.8000488281</ele>
        <time>2020-09-12T13:30:55.000Z</time>
      </trkpt>
      <trkpt lat="43.98906" lon="6.8847">
        <ele>1084.8000488281</ele>
        <time>2020-09-12T13:30:56.000Z</time>
      </trkpt>
      <trkpt lat="43.98895" lon="6.8846">
        <ele>1083</ele>
        <time>2020-09-12T13:30:58.000Z</time>
      </trkpt>
      <trkpt lat="43.98889" lon="6.88458">
        <ele>1081.5999755859</ele>
        <time>2020-09-12T13:30:59.000Z</time>
      </trkpt>
      <trkpt lat="43.98885" lon="6.88456">
        <ele>1080.1999511719</ele>
        <time>2020-09-12T13:31:00.000Z</time>
      </trkpt>
      <trkpt lat="43.98882" lon="6.88454">
        <ele>1078.8000488281</ele>
        <time>2020-09-12T13:31:01.000Z</time>
      </trkpt>
      <trkpt lat="43.98883" lon="6.8845">
        <ele>1077.4000244141</ele>
        <time>2020-09-12T13:31:02.000Z</time>
      </trkpt>
      <trkpt lat="43.98885" lon="6.88445">
        <ele>1076</ele>
        <time>2020-09-12T13:31:03.000Z</time>
      </trkpt>
      <trkpt lat="43.98889" lon="6.88439">
        <ele>1075</ele>
        <time>2020-09-12T13:31:04.000Z</time>
      </trkpt>
      <trkpt lat="43.98892" lon="6.88433">
        <ele>1074</ele>
        <time>2020-09-12T13:31:05.000Z</time>
      </trkpt>
      <trkpt lat="43.98894" lon="6.88428">
        <ele>1073.1999511719</ele>
        <time>2020-09-12T13:31:06.000Z</time>
      </trkpt>
      <trkpt lat="43.98896" lon="6.88416">
        <ele>1071.4000244141</ele>
        <time>2020-09-12T13:31:08.000Z</time>
      </trkpt>
      <trkpt lat="43.98894" lon="6.88412">
        <ele>1069.8000488281</ele>
        <time>2020-09-12T13:31:09.000Z</time>
      </trkpt>
      <trkpt lat="43.98893" lon="6.8841">
        <ele>1068.5999755859</ele>
        <time>2020-09-12T13:31:10.000Z</time>
      </trkpt>
      <trkpt lat="43.98893" lon="6.8841">
        <ele>1066.8000488281</ele>
        <time>2020-09-12T13:31:12.000Z</time>
      </trkpt>
      <trkpt lat="43.98892" lon="6.8841">
        <ele>1065.8000488281</ele>
        <time>2020-09-12T13:31:15.000Z</time>
      </trkpt>
      <trkpt lat="43.98888" lon="6.88412">
        <ele>1065.8000488281</ele>
        <time>2020-09-12T13:31:27.000Z</time>
      </trkpt>
      <trkpt lat="43.9888" lon="6.88417">
        <ele>1065.5999755859</ele>
        <time>2020-09-12T13:32:01.000Z</time>
      </trkpt>
      <trkpt lat="43.98878" lon="6.88418">
        <ele>1065.5999755859</ele>
        <time>2020-09-12T13:32:28.000Z</time>
      </trkpt>
      <trkpt lat="43.98875" lon="6.88418">
        <ele>1065.8000488281</ele>
        <time>2020-09-12T13:32:52.000Z</time>
      </trkpt>
      <trkpt lat="43.98872" lon="6.88423">
        <ele>1065.8000488281</ele>
        <time>2020-09-12T13:33:10.000Z</time>
      </trkpt>
      <trkpt lat="43.98869" lon="6.88426">
        <ele>1065.4000244141</ele>
        <time>2020-09-12T13:33:29.000Z</time>
      </trkpt>
      <trkpt lat="43.98871" lon="6.88417">
        <ele>1065.1999511719</ele>
        <time>2020-09-12T13:33:41.000Z</time>
      </trkpt>
      <trkpt lat="43.98871" lon="6.88415">
        <ele>1065.1999511719</ele>
        <time>2020-09-12T13:33:42.000Z</time>
      </trkpt>
      <trkpt lat="43.98869" lon="6.88414">
        <ele>1064.8000488281</ele>
        <time>2020-09-12T13:33:44.000Z</time>
      </trkpt>
      <trkpt lat="43.98867" lon="6.88415">
        <ele>1064.4000244141</ele>
        <time>2020-09-12T13:33:45.000Z</time>
      </trkpt>
      <trkpt lat="43.98866" lon="6.88412">
        <ele>1063.4000244141</ele>
        <time>2020-09-12T13:33:47.000Z</time>
      </trkpt>
      <trkpt lat="43.98868" lon="6.88402">
        <ele>1062.4000244141</ele>
        <time>2020-09-12T13:33:49.000Z</time>
      </trkpt>
      <trkpt lat="43.98869" lon="6.88395">
        <ele>1061.8000488281</ele>
        <time>2020-09-12T13:33:50.000Z</time>
      </trkpt>
      <trkpt lat="43.9887" lon="6.88392">
        <ele>1061.1999511719</ele>
        <time>2020-09-12T13:33:51.000Z</time>
      </trkpt>
      <trkpt lat="43.9887" lon="6.88388">
        <ele>1060</ele>
        <time>2020-09-12T13:33:53.000Z</time>
      </trkpt>
      <trkpt lat="43.98868" lon="6.8839">
        <ele>1058.5999755859</ele>
        <time>2020-09-12T13:33:55.000Z</time>
      </trkpt>
      <trkpt lat="43.98866" lon="6.88392">
        <ele>1058</ele>
        <time>2020-09-12T13:33:56.000Z</time>
      </trkpt>
      <trkpt lat="43.98862" lon="6.88395">
        <ele>1057.1999511719</ele>
        <time>2020-09-12T13:33:57.000Z</time>
      </trkpt>
      <trkpt lat="43.98858" lon="6.88399">
        <ele>1056.5999755859</ele>
        <time>2020-09-12T13:33:59.000Z</time>
      </trkpt>
      <trkpt lat="43.98858" lon="6.88397">
        <ele>1056.1999511719</ele>
        <time>2020-09-12T13:34:00.000Z</time>
      </trkpt>
      <trkpt lat="43.98859" lon="6.88388">
        <ele>1055.1999511719</ele>
        <time>2020-09-12T13:34:02.000Z</time>
      </trkpt>
      <trkpt lat="43.98863" lon="6.88371">
        <ele>1054.1999511719</ele>
        <time>2020-09-12T13:34:04.000Z</time>
      </trkpt>
      <trkpt lat="43.98865" lon="6.88365">
        <ele>1053.5999755859</ele>
        <time>2020-09-12T13:34:05.000Z</time>
      </trkpt>
      <trkpt lat="43.98868" lon="6.88359">
        <ele>1053</ele>
        <time>2020-09-12T13:34:06.000Z</time>
      </trkpt>
      <trkpt lat="43.98873" lon="6.88354">
        <ele>1051.1999511719</ele>
        <time>2020-09-12T13:34:08.000Z</time>
      </trkpt>
      <trkpt lat="43.98876" lon="6.88352">
        <ele>1050.1999511719</ele>
        <time>2020-09-12T13:34:09.000Z</time>
      </trkpt>
      <trkpt lat="43.98881" lon="6.88353">
        <ele>1049.1999511719</ele>
        <time>2020-09-12T13:34:10.000Z</time>
      </trkpt>
      <trkpt lat="43.98884" lon="6.88355">
        <ele>1048.1999511719</ele>
        <time>2020-09-12T13:34:11.000Z</time>
      </trkpt>
      <trkpt lat="43.98887" lon="6.88357">
        <ele>1047.4000244141</ele>
        <time>2020-09-12T13:34:12.000Z</time>
      </trkpt>
      <trkpt lat="43.98892" lon="6.88358">
        <ele>1046.4000244141</ele>
        <time>2020-09-12T13:34:14.000Z</time>
      </trkpt>
      <trkpt lat="43.98894" lon="6.88356">
        <ele>1045.1999511719</ele>
        <time>2020-09-12T13:34:15.000Z</time>
      </trkpt>
      <trkpt lat="43.98894" lon="6.88355">
        <ele>1044</ele>
        <time>2020-09-12T13:34:16.000Z</time>
      </trkpt>
      <trkpt lat="43.98896" lon="6.88352">
        <ele>1043</ele>
        <time>2020-09-12T13:34:17.000Z</time>
      </trkpt>
      <trkpt lat="43.98899" lon="6.8835">
        <ele>1041.8000488281</ele>
        <time>2020-09-12T13:34:18.000Z</time>
      </trkpt>
      <trkpt lat="43.989" lon="6.88347">
        <ele>1040.5999755859</ele>
        <time>2020-09-12T13:34:19.000Z</time>
      </trkpt>
      <trkpt lat="43.98901" lon="6.88347">
        <ele>1039.4000244141</ele>
        <time>2020-09-12T13:34:20.000Z</time>
      </trkpt>
      <trkpt lat="43.98903" lon="6.88347">
        <ele>1038.1999511719</ele>
        <time>2020-09-12T13:34:21.000Z</time>
      </trkpt>
      <trkpt lat="43.98902" lon="6.88347">
        <ele>1037</ele>
        <time>2020-09-12T13:34:22.000Z</time>
      </trkpt>
      <trkpt lat="43.98903" lon="6.88346">
        <ele>1036</ele>
        <time>2020-09-12T13:34:23.000Z</time>
      </trkpt>
      <trkpt lat="43.98903" lon="6.88346">
        <ele>1034.8000488281</ele>
        <time>2020-09-12T13:34:24.000Z</time>
      </trkpt>
      <trkpt lat="43.98904" lon="6.88345">
        <ele>1033.4000244141</ele>
        <time>2020-09-12T13:34:26.000Z</time>
      </trkpt>
      <trkpt lat="43.98904" lon="6.88344">
        <ele>1033.4000244141</ele>
        <time>2020-09-12T13:34:27.000Z</time>
      </trkpt>
      <trkpt lat="43.98904" lon="6.88341">
        <ele>1033.8000488281</ele>
        <time>2020-09-12T13:34:34.000Z</time>
      </trkpt>
      <trkpt lat="43.98901" lon="6.88339">
        <ele>1033.8000488281</ele>
        <time>2020-09-12T13:34:36.000Z</time>
      </trkpt>
      <trkpt lat="43.98897" lon="6.88338">
        <ele>1033.5999755859</ele>
        <time>2020-09-12T13:34:38.000Z</time>
      </trkpt>
      <trkpt lat="43.98894" lon="6.88323">
        <ele>1033.4000244141</ele>
        <time>2020-09-12T13:34:41.000Z</time>
      </trkpt>
      <trkpt lat="43.98886" lon="6.88313">
        <ele>1032.4000244141</ele>
        <time>2020-09-12T13:34:44.000Z</time>
      </trkpt>
      <trkpt lat="43.98882" lon="6.8831">
        <ele>1031.8000488281</ele>
        <time>2020-09-12T13:34:45.000Z</time>
      </trkpt>
      <trkpt lat="43.98877" lon="6.88307">
        <ele>1031</ele>
        <time>2020-09-12T13:34:46.000Z</time>
      </trkpt>
      <trkpt lat="43.98874" lon="6.88305">
        <ele>1030.4000244141</ele>
        <time>2020-09-12T13:34:47.000Z</time>
      </trkpt>
      <trkpt lat="43.98869" lon="6.88302">
        <ele>1029.8000488281</ele>
        <time>2020-09-12T13:34:48.000Z</time>
      </trkpt>
      <trkpt lat="43.98863" lon="6.88299">
        <ele>1027.8000488281</ele>
        <time>2020-09-12T13:34:50.000Z</time>
      </trkpt>
      <trkpt lat="43.98862" lon="6.88296">
        <ele>1027.5999755859</ele>
        <time>2020-09-12T13:34:53.000Z</time>
      </trkpt>
      <trkpt lat="43.98869" lon="6.88288">
        <ele>1026.5999755859</ele>
        <time>2020-09-12T13:34:56.000Z</time>
      </trkpt>
      <trkpt lat="43.98873" lon="6.88285">
        <ele>1026.4000244141</ele>
        <time>2020-09-12T13:34:57.000Z</time>
      </trkpt>
      <trkpt lat="43.98886" lon="6.88272">
        <ele>1025</ele>
        <time>2020-09-12T13:35:00.000Z</time>
      </trkpt>
      <trkpt lat="43.98889" lon="6.88269">
        <ele>1024.4000244141</ele>
        <time>2020-09-12T13:35:01.000Z</time>
      </trkpt>
      <trkpt lat="43.9889" lon="6.88266">
        <ele>1023.799987793</ele>
        <time>2020-09-12T13:35:02.000Z</time>
      </trkpt>
      <trkpt lat="43.98892" lon="6.88265">
        <ele>1022.799987793</ele>
        <time>2020-09-12T13:35:04.000Z</time>
      </trkpt>
      <trkpt lat="43.9889" lon="6.88264">
        <ele>1022.4000244141</ele>
        <time>2020-09-12T13:35:05.000Z</time>
      </trkpt>
      <trkpt lat="43.98885" lon="6.88258">
        <ele>1021.200012207</ele>
        <time>2020-09-12T13:35:08.000Z</time>
      </trkpt>
      <trkpt lat="43.9888" lon="6.88256">
        <ele>1020.200012207</ele>
        <time>2020-09-12T13:35:09.000Z</time>
      </trkpt>
      <trkpt lat="43.98878" lon="6.88257">
        <ele>1018.799987793</ele>
        <time>2020-09-12T13:35:11.000Z</time>
      </trkpt>
      <trkpt lat="43.98875" lon="6.88259">
        <ele>1017.799987793</ele>
        <time>2020-09-12T13:35:12.000Z</time>
      </trkpt>
      <trkpt lat="43.98872" lon="6.8826">
        <ele>1017</ele>
        <time>2020-09-12T13:35:13.000Z</time>
      </trkpt>
      <trkpt lat="43.98869" lon="6.8826">
        <ele>1016.200012207</ele>
        <time>2020-09-12T13:35:14.000Z</time>
      </trkpt>
      <trkpt lat="43.98866" lon="6.88255">
        <ele>1015.5999755859</ele>
        <time>2020-09-12T13:35:15.000Z</time>
      </trkpt>
      <trkpt lat="43.98867" lon="6.88244">
        <ele>1015.200012207</ele>
        <time>2020-09-12T13:35:18.000Z</time>
      </trkpt>
      <trkpt lat="43.98867" lon="6.88239">
        <ele>1014.4000244141</ele>
        <time>2020-09-12T13:35:19.000Z</time>
      </trkpt>
      <trkpt lat="43.98865" lon="6.88235">
        <ele>1014</ele>
        <time>2020-09-12T13:35:20.000Z</time>
      </trkpt>
      <trkpt lat="43.98865" lon="6.88234">
        <ele>1013.4000244141</ele>
        <time>2020-09-12T13:35:21.000Z</time>
      </trkpt>
      <trkpt lat="43.98865" lon="6.88236">
        <ele>1012.5999755859</ele>
        <time>2020-09-12T13:35:22.000Z</time>
      </trkpt>
      <trkpt lat="43.98864" lon="6.88234">
        <ele>1012.200012207</ele>
        <time>2020-09-12T13:35:23.000Z</time>
      </trkpt>
      <trkpt lat="43.98864" lon="6.88234">
        <ele>1011</ele>
        <time>2020-09-12T13:35:25.000Z</time>
      </trkpt>
      <trkpt lat="43.98864" lon="6.88233">
        <ele>1010</ele>
        <time>2020-09-12T13:35:28.000Z</time>
      </trkpt>
      <trkpt lat="43.98864" lon="6.88233">
        <ele>1010</ele>
        <time>2020-09-12T13:35:29.000Z</time>
      </trkpt>
      <trkpt lat="43.98862" lon="6.88231">
        <ele>1009</ele>
        <time>2020-09-12T13:35:34.000Z</time>
      </trkpt>
      <trkpt lat="43.9886" lon="6.8823">
        <ele>1008.5999755859</ele>
        <time>2020-09-12T13:35:36.000Z</time>
      </trkpt>
      <trkpt lat="43.98856" lon="6.88228">
        <ele>1008.200012207</ele>
        <time>2020-09-12T13:35:38.000Z</time>
      </trkpt>
      <trkpt lat="43.98852" lon="6.88224">
        <ele>1007.799987793</ele>
        <time>2020-09-12T13:35:40.000Z</time>
      </trkpt>
      <trkpt lat="43.98845" lon="6.8822">
        <ele>1007.5999755859</ele>
        <time>2020-09-12T13:35:42.000Z</time>
      </trkpt>
      <trkpt lat="43.98838" lon="6.88221">
        <ele>1007.200012207</ele>
        <time>2020-09-12T13:35:44.000Z</time>
      </trkpt>
      <trkpt lat="43.98833" lon="6.88221">
        <ele>1006.799987793</ele>
        <time>2020-09-12T13:35:46.000Z</time>
      </trkpt>
      <trkpt lat="43.98832" lon="6.88219">
        <ele>1006.5999755859</ele>
        <time>2020-09-12T13:35:47.000Z</time>
      </trkpt>
      <trkpt lat="43.98828" lon="6.88217">
        <ele>1006</ele>
        <time>2020-09-12T13:35:50.000Z</time>
      </trkpt>
      <trkpt lat="43.98826" lon="6.88216">
        <ele>1005.799987793</ele>
        <time>2020-09-12T13:35:51.000Z</time>
      </trkpt>
      <trkpt lat="43.98822" lon="6.88212">
        <ele>1004.799987793</ele>
        <time>2020-09-12T13:35:54.000Z</time>
      </trkpt>
      <trkpt lat="43.98821" lon="6.88209">
        <ele>1004.4000244141</ele>
        <time>2020-09-12T13:35:55.000Z</time>
      </trkpt>
      <trkpt lat="43.98815" lon="6.88202">
        <ele>1003.799987793</ele>
        <time>2020-09-12T13:35:57.000Z</time>
      </trkpt>
      <trkpt lat="43.98812" lon="6.88198">
        <ele>1003.799987793</ele>
        <time>2020-09-12T13:35:58.000Z</time>
      </trkpt>
      <trkpt lat="43.98804" lon="6.88189">
        <ele>1003.4000244141</ele>
        <time>2020-09-12T13:36:01.000Z</time>
      </trkpt>
      <trkpt lat="43.98801" lon="6.88184">
        <ele>1003</ele>
        <time>2020-09-12T13:36:02.000Z</time>
      </trkpt>
      <trkpt lat="43.988" lon="6.88177">
        <ele>1002.5999755859</ele>
        <time>2020-09-12T13:36:03.000Z</time>
      </trkpt>
      <trkpt lat="43.98797" lon="6.88173">
        <ele>1002.4000244141</ele>
        <time>2020-09-12T13:36:04.000Z</time>
      </trkpt>
      <trkpt lat="43.98791" lon="6.88167">
        <ele>1001.5999755859</ele>
        <time>2020-09-12T13:36:06.000Z</time>
      </trkpt>
      <trkpt lat="43.98787" lon="6.88163">
        <ele>1001.200012207</ele>
        <time>2020-09-12T13:36:07.000Z</time>
      </trkpt>
      <trkpt lat="43.98774" lon="6.88153">
        <ele>1000.4000244141</ele>
        <time>2020-09-12T13:36:11.000Z</time>
      </trkpt>
      <trkpt lat="43.98774" lon="6.8815">
        <ele>1000.200012207</ele>
        <time>2020-09-12T13:36:12.000Z</time>
      </trkpt>
      <trkpt lat="43.98774" lon="6.88146">
        <ele>999.79998779297</ele>
        <time>2020-09-12T13:36:13.000Z</time>
      </trkpt>
      <trkpt lat="43.98774" lon="6.8814">
        <ele>999.59997558594</ele>
        <time>2020-09-12T13:36:14.000Z</time>
      </trkpt>
      <trkpt lat="43.98771" lon="6.88128">
        <ele>999</ele>
        <time>2020-09-12T13:36:16.000Z</time>
      </trkpt>
      <trkpt lat="43.9877" lon="6.88123">
        <ele>998.79998779297</ele>
        <time>2020-09-12T13:36:17.000Z</time>
      </trkpt>
      <trkpt lat="43.98768" lon="6.88117">
        <ele>998.79998779297</ele>
        <time>2020-09-12T13:36:18.000Z</time>
      </trkpt>
      <trkpt lat="43.98765" lon="6.88106">
        <ele>998.40002441406</ele>
        <time>2020-09-12T13:36:20.000Z</time>
      </trkpt>
      <trkpt lat="43.98761" lon="6.8809">
        <ele>998.20001220703</ele>
        <time>2020-09-12T13:36:23.000Z</time>
      </trkpt>
      <trkpt lat="43.98757" lon="6.88083">
        <ele>998</ele>
        <time>2020-09-12T13:36:24.000Z</time>
      </trkpt>
      <trkpt lat="43.9875" lon="6.8807">
        <ele>997.79998779297</ele>
        <time>2020-09-12T13:36:26.000Z</time>
      </trkpt>
      <trkpt lat="43.98743" lon="6.88046">
        <ele>997</ele>
        <time>2020-09-12T13:36:30.000Z</time>
      </trkpt>
      <trkpt lat="43.98743" lon="6.88032">
        <ele>996.59997558594</ele>
        <time>2020-09-12T13:36:32.000Z</time>
      </trkpt>
      <trkpt lat="43.98742" lon="6.88026">
        <ele>996.40002441406</ele>
        <time>2020-09-12T13:36:33.000Z</time>
      </trkpt>
      <trkpt lat="43.98739" lon="6.88022">
        <ele>996</ele>
        <time>2020-09-12T13:36:34.000Z</time>
      </trkpt>
      <trkpt lat="43.98733" lon="6.88013">
        <ele>995.59997558594</ele>
        <time>2020-09-12T13:36:36.000Z</time>
      </trkpt>
      <trkpt lat="43.98729" lon="6.88">
        <ele>994.59997558594</ele>
        <time>2020-09-12T13:36:38.000Z</time>
      </trkpt>
      <trkpt lat="43.98729" lon="6.87994">
        <ele>994.20001220703</ele>
        <time>2020-09-12T13:36:39.000Z</time>
      </trkpt>
      <trkpt lat="43.98729" lon="6.87982">
        <ele>992.59997558594</ele>
        <time>2020-09-12T13:36:41.000Z</time>
      </trkpt>
      <trkpt lat="43.98726" lon="6.87977">
        <ele>991.79998779297</ele>
        <time>2020-09-12T13:36:42.000Z</time>
      </trkpt>
      <trkpt lat="43.98723" lon="6.87975">
        <ele>991.20001220703</ele>
        <time>2020-09-12T13:36:43.000Z</time>
      </trkpt>
      <trkpt lat="43.98719" lon="6.87971">
        <ele>989.79998779297</ele>
        <time>2020-09-12T13:36:45.000Z</time>
      </trkpt>
      <trkpt lat="43.9872" lon="6.87965">
        <ele>988.59997558594</ele>
        <time>2020-09-12T13:36:47.000Z</time>
      </trkpt>
      <trkpt lat="43.98724" lon="6.87959">
        <ele>987.40002441406</ele>
        <time>2020-09-12T13:36:49.000Z</time>
      </trkpt>
      <trkpt lat="43.98723" lon="6.87955">
        <ele>986.20001220703</ele>
        <time>2020-09-12T13:36:51.000Z</time>
      </trkpt>
      <trkpt lat="43.98721" lon="6.87953">
        <ele>984.79998779297</ele>
        <time>2020-09-12T13:36:53.000Z</time>
      </trkpt>
      <trkpt lat="43.98716" lon="6.87952">
        <ele>983.59997558594</ele>
        <time>2020-09-12T13:36:55.000Z</time>
      </trkpt>
      <trkpt lat="43.98712" lon="6.87954">
        <ele>982.59997558594</ele>
        <time>2020-09-12T13:36:57.000Z</time>
      </trkpt>
      <trkpt lat="43.98711" lon="6.87954">
        <ele>982.20001220703</ele>
        <time>2020-09-12T13:36:58.000Z</time>
      </trkpt>
      <trkpt lat="43.98708" lon="6.87954">
        <ele>980.79998779297</ele>
        <time>2020-09-12T13:37:01.000Z</time>
      </trkpt>
      <trkpt lat="43.987" lon="6.87953">
        <ele>979.59997558594</ele>
        <time>2020-09-12T13:37:05.000Z</time>
      </trkpt>
      <trkpt lat="43.98696" lon="6.87953">
        <ele>978.59997558594</ele>
        <time>2020-09-12T13:37:07.000Z</time>
      </trkpt>
      <trkpt lat="43.98692" lon="6.87952">
        <ele>977.20001220703</ele>
        <time>2020-09-12T13:37:09.000Z</time>
      </trkpt>
      <trkpt lat="43.98691" lon="6.8795">
        <ele>976.20001220703</ele>
        <time>2020-09-12T13:37:10.000Z</time>
      </trkpt>
      <trkpt lat="43.98691" lon="6.87947">
        <ele>975.59997558594</ele>
        <time>2020-09-12T13:37:11.000Z</time>
      </trkpt>
      <trkpt lat="43.98691" lon="6.87945">
        <ele>974.79998779297</ele>
        <time>2020-09-12T13:37:12.000Z</time>
      </trkpt>
      <trkpt lat="43.98691" lon="6.87941">
        <ele>973.40002441406</ele>
        <time>2020-09-12T13:37:14.000Z</time>
      </trkpt>
      <trkpt lat="43.98692" lon="6.87938">
        <ele>972.79998779297</ele>
        <time>2020-09-12T13:37:15.000Z</time>
      </trkpt>
      <trkpt lat="43.98693" lon="6.87936">
        <ele>972</ele>
        <time>2020-09-12T13:37:16.000Z</time>
      </trkpt>
      <trkpt lat="43.98694" lon="6.87933">
        <ele>971.40002441406</ele>
        <time>2020-09-12T13:37:17.000Z</time>
      </trkpt>
      <trkpt lat="43.98695" lon="6.8793">
        <ele>970.79998779297</ele>
        <time>2020-09-12T13:37:18.000Z</time>
      </trkpt>
      <trkpt lat="43.98697" lon="6.87926">
        <ele>969.79998779297</ele>
        <time>2020-09-12T13:37:20.000Z</time>
      </trkpt>
      <trkpt lat="43.98699" lon="6.87923">
        <ele>969.20001220703</ele>
        <time>2020-09-12T13:37:21.000Z</time>
      </trkpt>
      <trkpt lat="43.98701" lon="6.8792">
        <ele>968.59997558594</ele>
        <time>2020-09-12T13:37:22.000Z</time>
      </trkpt>
      <trkpt lat="43.98703" lon="6.87914">
        <ele>967.59997558594</ele>
        <time>2020-09-12T13:37:24.000Z</time>
      </trkpt>
      <trkpt lat="43.98702" lon="6.87914">
        <ele>966.79998779297</ele>
        <time>2020-09-12T13:37:25.000Z</time>
      </trkpt>
      <trkpt lat="43.98702" lon="6.87915">
        <ele>966</ele>
        <time>2020-09-12T13:37:26.000Z</time>
      </trkpt>
      <trkpt lat="43.98702" lon="6.87914">
        <ele>964.59997558594</ele>
        <time>2020-09-12T13:37:28.000Z</time>
      </trkpt>
      <trkpt lat="43.98703" lon="6.87914">
        <ele>963.59997558594</ele>
        <time>2020-09-12T13:37:31.000Z</time>
      </trkpt>
      <trkpt lat="43.98703" lon="6.87914">
        <ele>963.59997558594</ele>
        <time>2020-09-12T13:37:32.000Z</time>
      </trkpt>
      <trkpt lat="43.98703" lon="6.87913">
        <ele>964</ele>
        <time>2020-09-12T13:37:36.000Z</time>
      </trkpt>
      <trkpt lat="43.98703" lon="6.87913">
        <ele>964</ele>
        <time>2020-09-12T13:37:37.000Z</time>
      </trkpt>
      <trkpt lat="43.98705" lon="6.87908">
        <ele>964</ele>
        <time>2020-09-12T13:37:40.000Z</time>
      </trkpt>
      <trkpt lat="43.98706" lon="6.87904">
        <ele>963.79998779297</ele>
        <time>2020-09-12T13:37:42.000Z</time>
      </trkpt>
      <trkpt lat="43.98708" lon="6.87893">
        <ele>961.79998779297</ele>
        <time>2020-09-12T13:37:46.000Z</time>
      </trkpt>
      <trkpt lat="43.98709" lon="6.87893">
        <ele>961.40002441406</ele>
        <time>2020-09-12T13:37:47.000Z</time>
      </trkpt>
      <trkpt lat="43.98709" lon="6.87894">
        <ele>960.59997558594</ele>
        <time>2020-09-12T13:37:48.000Z</time>
      </trkpt>
      <trkpt lat="43.98709" lon="6.87893">
        <ele>960</ele>
        <time>2020-09-12T13:37:49.000Z</time>
      </trkpt>
      <trkpt lat="43.98709" lon="6.87893">
        <ele>959.59997558594</ele>
        <time>2020-09-12T13:37:50.000Z</time>
      </trkpt>
      <trkpt lat="43.98708" lon="6.87892">
        <ele>959.20001220703</ele>
        <time>2020-09-12T13:38:06.000Z</time>
      </trkpt>
      <trkpt lat="43.98707" lon="6.8789">
        <ele>959.20001220703</ele>
        <time>2020-09-12T13:38:12.000Z</time>
      </trkpt>
      <trkpt lat="43.98707" lon="6.87884">
        <ele>958.59997558594</ele>
        <time>2020-09-12T13:38:16.000Z</time>
      </trkpt>
      <trkpt lat="43.98709" lon="6.8788">
        <ele>958</ele>
        <time>2020-09-12T13:38:18.000Z</time>
      </trkpt>
      <trkpt lat="43.98709" lon="6.87878">
        <ele>957.59997558594</ele>
        <time>2020-09-12T13:38:19.000Z</time>
      </trkpt>
      <trkpt lat="43.9871" lon="6.8787">
        <ele>955.79998779297</ele>
        <time>2020-09-12T13:38:22.000Z</time>
      </trkpt>
      <trkpt lat="43.98711" lon="6.87867">
        <ele>955</ele>
        <time>2020-09-12T13:38:24.000Z</time>
      </trkpt>
      <trkpt lat="43.98711" lon="6.87865">
        <ele>954.59997558594</ele>
        <time>2020-09-12T13:38:25.000Z</time>
      </trkpt>
      <trkpt lat="43.98714" lon="6.87857">
        <ele>953.20001220703</ele>
        <time>2020-09-12T13:38:28.000Z</time>
      </trkpt>
      <trkpt lat="43.98715" lon="6.87855">
        <ele>952.79998779297</ele>
        <time>2020-09-12T13:38:29.000Z</time>
      </trkpt>
      <trkpt lat="43.98718" lon="6.87848">
        <ele>952</ele>
        <time>2020-09-12T13:38:31.000Z</time>
      </trkpt>
      <trkpt lat="43.98723" lon="6.87842">
        <ele>951.20001220703</ele>
        <time>2020-09-12T13:38:33.000Z</time>
      </trkpt>
      <trkpt lat="43.98724" lon="6.87842">
        <ele>950.79998779297</ele>
        <time>2020-09-12T13:38:34.000Z</time>
      </trkpt>
      <trkpt lat="43.98726" lon="6.87836">
        <ele>950.40002441406</ele>
        <time>2020-09-12T13:38:36.000Z</time>
      </trkpt>
      <trkpt lat="43.98728" lon="6.8782">
        <ele>949.40002441406</ele>
        <time>2020-09-12T13:38:40.000Z</time>
      </trkpt>
      <trkpt lat="43.98729" lon="6.87815">
        <ele>949.20001220703</ele>
        <time>2020-09-12T13:38:41.000Z</time>
      </trkpt>
      <trkpt lat="43.98731" lon="6.87811">
        <ele>948.40002441406</ele>
        <time>2020-09-12T13:38:42.000Z</time>
      </trkpt>
      <trkpt lat="43.98735" lon="6.87802">
        <ele>946.79998779297</ele>
        <time>2020-09-12T13:38:44.000Z</time>
      </trkpt>
      <trkpt lat="43.98736" lon="6.878">
        <ele>946</ele>
        <time>2020-09-12T13:38:45.000Z</time>
      </trkpt>
      <trkpt lat="43.98738" lon="6.87799">
        <ele>945.20001220703</ele>
        <time>2020-09-12T13:38:46.000Z</time>
      </trkpt>
      <trkpt lat="43.98742" lon="6.87796">
        <ele>943.79998779297</ele>
        <time>2020-09-12T13:38:48.000Z</time>
      </trkpt>
      <trkpt lat="43.98742" lon="6.87797">
        <ele>943.20001220703</ele>
        <time>2020-09-12T13:38:49.000Z</time>
      </trkpt>
      <trkpt lat="43.98741" lon="6.87797">
        <ele>942.79998779297</ele>
        <time>2020-09-12T13:38:50.000Z</time>
      </trkpt>
      <trkpt lat="43.98748" lon="6.87789">
        <ele>942</ele>
        <time>2020-09-12T13:38:54.000Z</time>
      </trkpt>
      <trkpt lat="43.98754" lon="6.87782">
        <ele>941.59997558594</ele>
        <time>2020-09-12T13:38:57.000Z</time>
      </trkpt>
      <trkpt lat="43.98754" lon="6.87779">
        <ele>941.20001220703</ele>
        <time>2020-09-12T13:38:58.000Z</time>
      </trkpt>
      <trkpt lat="43.98752" lon="6.87775">
        <ele>940</ele>
        <time>2020-09-12T13:39:00.000Z</time>
      </trkpt>
      <trkpt lat="43.98752" lon="6.87771">
        <ele>938.59997558594</ele>
        <time>2020-09-12T13:39:02.000Z</time>
      </trkpt>
      <trkpt lat="43.98755" lon="6.87768">
        <ele>937</ele>
        <time>2020-09-12T13:39:04.000Z</time>
      </trkpt>
      <trkpt lat="43.98757" lon="6.87767">
        <ele>936.59997558594</ele>
        <time>2020-09-12T13:39:05.000Z</time>
      </trkpt>
      <trkpt lat="43.9876" lon="6.87766">
        <ele>935.79998779297</ele>
        <time>2020-09-12T13:39:06.000Z</time>
      </trkpt>
      <trkpt lat="43.98762" lon="6.87761">
        <ele>934.59997558594</ele>
        <time>2020-09-12T13:39:08.000Z</time>
      </trkpt>
      <trkpt lat="43.98764" lon="6.87759">
        <ele>933.20001220703</ele>
        <time>2020-09-12T13:39:10.000Z</time>
      </trkpt>
      <trkpt lat="43.98765" lon="6.87758">
        <ele>932.59997558594</ele>
        <time>2020-09-12T13:39:11.000Z</time>
      </trkpt>
      <trkpt lat="43.98767" lon="6.87758">
        <ele>932.20001220703</ele>
        <time>2020-09-12T13:39:12.000Z</time>
      </trkpt>
      <trkpt lat="43.98774" lon="6.87757">
        <ele>931.20001220703</ele>
        <time>2020-09-12T13:39:14.000Z</time>
      </trkpt>
      <trkpt lat="43.98777" lon="6.87758">
        <ele>931</ele>
        <time>2020-09-12T13:39:15.000Z</time>
      </trkpt>
      <trkpt lat="43.98779" lon="6.87755">
        <ele>930.20001220703</ele>
        <time>2020-09-12T13:39:17.000Z</time>
      </trkpt>
      <trkpt lat="43.98777" lon="6.87751">
        <ele>929.59997558594</ele>
        <time>2020-09-12T13:39:18.000Z</time>
      </trkpt>
      <trkpt lat="43.98772" lon="6.87747">
        <ele>928.20001220703</ele>
        <time>2020-09-12T13:39:20.000Z</time>
      </trkpt>
      <trkpt lat="43.98765" lon="6.87745">
        <ele>927.20001220703</ele>
        <time>2020-09-12T13:39:22.000Z</time>
      </trkpt>
      <trkpt lat="43.98756" lon="6.8774">
        <ele>925.59997558594</ele>
        <time>2020-09-12T13:39:25.000Z</time>
      </trkpt>
      <trkpt lat="43.98755" lon="6.87738">
        <ele>924.79998779297</ele>
        <time>2020-09-12T13:39:26.000Z</time>
      </trkpt>
      <trkpt lat="43.98752" lon="6.87736">
        <ele>924.20001220703</ele>
        <time>2020-09-12T13:39:27.000Z</time>
      </trkpt>
      <trkpt lat="43.98747" lon="6.87733">
        <ele>922.79998779297</ele>
        <time>2020-09-12T13:39:29.000Z</time>
      </trkpt>
      <trkpt lat="43.98741" lon="6.8773">
        <ele>921</ele>
        <time>2020-09-12T13:39:31.000Z</time>
      </trkpt>
      <trkpt lat="43.98737" lon="6.87728">
        <ele>919.20001220703</ele>
        <time>2020-09-12T13:39:33.000Z</time>
      </trkpt>
      <trkpt lat="43.98733" lon="6.87725">
        <ele>917.59997558594</ele>
        <time>2020-09-12T13:39:35.000Z</time>
      </trkpt>
      <trkpt lat="43.98728" lon="6.87723">
        <ele>915.79998779297</ele>
        <time>2020-09-12T13:39:37.000Z</time>
      </trkpt>
      <trkpt lat="43.98725" lon="6.87719">
        <ele>914</ele>
        <time>2020-09-12T13:39:39.000Z</time>
      </trkpt>
      <trkpt lat="43.9872" lon="6.87716">
        <ele>912.40002441406</ele>
        <time>2020-09-12T13:39:41.000Z</time>
      </trkpt>
      <trkpt lat="43.9872" lon="6.87715">
        <ele>911.59997558594</ele>
        <time>2020-09-12T13:39:42.000Z</time>
      </trkpt>
      <trkpt lat="43.98719" lon="6.87715">
        <ele>910.79998779297</ele>
        <time>2020-09-12T13:39:43.000Z</time>
      </trkpt>
      <trkpt lat="43.98718" lon="6.87714">
        <ele>910</ele>
        <time>2020-09-12T13:39:44.000Z</time>
      </trkpt>
      <trkpt lat="43.98719" lon="6.87714">
        <ele>909.40002441406</ele>
        <time>2020-09-12T13:39:45.000Z</time>
      </trkpt>
      <trkpt lat="43.98719" lon="6.87713">
        <ele>908.20001220703</ele>
        <time>2020-09-12T13:39:47.000Z</time>
      </trkpt>
      <trkpt lat="43.98719" lon="6.87711">
        <ele>907.20001220703</ele>
        <time>2020-09-12T13:39:52.000Z</time>
      </trkpt>
      <trkpt lat="43.98721" lon="6.87705">
        <ele>907</ele>
        <time>2020-09-12T13:39:54.000Z</time>
      </trkpt>
      <trkpt lat="43.98719" lon="6.87698">
        <ele>906.59997558594</ele>
        <time>2020-09-12T13:39:56.000Z</time>
      </trkpt>
      <trkpt lat="43.98718" lon="6.87694">
        <ele>906</ele>
        <time>2020-09-12T13:39:57.000Z</time>
      </trkpt>
      <trkpt lat="43.98718" lon="6.87686">
        <ele>904.40002441406</ele>
        <time>2020-09-12T13:39:59.000Z</time>
      </trkpt>
      <trkpt lat="43.98719" lon="6.87685">
        <ele>903.59997558594</ele>
        <time>2020-09-12T13:40:00.000Z</time>
      </trkpt>
      <trkpt lat="43.98721" lon="6.87684">
        <ele>902.59997558594</ele>
        <time>2020-09-12T13:40:01.000Z</time>
      </trkpt>
      <trkpt lat="43.98723" lon="6.8768">
        <ele>900.59997558594</ele>
        <time>2020-09-12T13:40:03.000Z</time>
      </trkpt>
      <trkpt lat="43.98723" lon="6.8768">
        <ele>899</ele>
        <time>2020-09-12T13:40:05.000Z</time>
      </trkpt>
      <trkpt lat="43.98724" lon="6.87679">
        <ele>898</ele>
        <time>2020-09-12T13:40:07.000Z</time>
      </trkpt>
      <trkpt lat="43.98724" lon="6.87679">
        <ele>897.59997558594</ele>
        <time>2020-09-12T13:40:16.000Z</time>
      </trkpt>
      <trkpt lat="43.98724" lon="6.87679">
        <ele>897.59997558594</ele>
        <time>2020-09-12T13:40:28.000Z</time>
      </trkpt>
      <trkpt lat="43.98724" lon="6.87679">
        <ele>897.59997558594</ele>
        <time>2020-09-12T13:40:41.000Z</time>
      </trkpt>
      <trkpt lat="43.98723" lon="6.87679">
        <ele>897.59997558594</ele>
        <time>2020-09-12T13:40:47.000Z</time>
      </trkpt>
      <trkpt lat="43.98723" lon="6.87679">
        <ele>897.59997558594</ele>
        <time>2020-09-12T13:40:54.000Z</time>
      </trkpt>
      <trkpt lat="43.98723" lon="6.87678">
        <ele>897.59997558594</ele>
        <time>2020-09-12T13:41:06.000Z</time>
      </trkpt>
      <trkpt lat="43.98723" lon="6.87678">
        <ele>897.79998779297</ele>
        <time>2020-09-12T13:41:18.000Z</time>
      </trkpt>
      <trkpt lat="43.98723" lon="6.87678">
        <ele>897.59997558594</ele>
        <time>2020-09-12T13:41:37.000Z</time>
      </trkpt>
      <trkpt lat="43.98725" lon="6.87677">
        <ele>897.59997558594</ele>
        <time>2020-09-12T13:41:43.000Z</time>
      </trkpt>
      <trkpt lat="43.9874" lon="6.87673">
        <ele>897.20001220703</ele>
        <time>2020-09-12T13:41:47.000Z</time>
      </trkpt>
      <trkpt lat="43.98745" lon="6.87672">
        <ele>896.79998779297</ele>
        <time>2020-09-12T13:41:48.000Z</time>
      </trkpt>
      <trkpt lat="43.98759" lon="6.87672">
        <ele>895.59997558594</ele>
        <time>2020-09-12T13:41:51.000Z</time>
      </trkpt>
      <trkpt lat="43.98769" lon="6.87672">
        <ele>894.20001220703</ele>
        <time>2020-09-12T13:41:53.000Z</time>
      </trkpt>
      <trkpt lat="43.98778" lon="6.87674">
        <ele>892.79998779297</ele>
        <time>2020-09-12T13:41:55.000Z</time>
      </trkpt>
      <trkpt lat="43.98785" lon="6.87677">
        <ele>890.79998779297</ele>
        <time>2020-09-12T13:41:57.000Z</time>
      </trkpt>
      <trkpt lat="43.9879" lon="6.87673">
        <ele>889.20001220703</ele>
        <time>2020-09-12T13:41:59.000Z</time>
      </trkpt>
      <trkpt lat="43.98791" lon="6.87669">
        <ele>888.59997558594</ele>
        <time>2020-09-12T13:42:00.000Z</time>
      </trkpt>
      <trkpt lat="43.98789" lon="6.87665">
        <ele>888.20001220703</ele>
        <time>2020-09-12T13:42:01.000Z</time>
      </trkpt>
      <trkpt lat="43.98781" lon="6.87659">
        <ele>887.20001220703</ele>
        <time>2020-09-12T13:42:03.000Z</time>
      </trkpt>
      <trkpt lat="43.98776" lon="6.87656">
        <ele>886.59997558594</ele>
        <time>2020-09-12T13:42:04.000Z</time>
      </trkpt>
      <trkpt lat="43.9876" lon="6.87641">
        <ele>885.20001220703</ele>
        <time>2020-09-12T13:42:07.000Z</time>
      </trkpt>
      <trkpt lat="43.98744" lon="6.87627">
        <ele>884.20001220703</ele>
        <time>2020-09-12T13:42:10.000Z</time>
      </trkpt>
      <trkpt lat="43.98727" lon="6.87611">
        <ele>883</ele>
        <time>2020-09-12T13:42:14.000Z</time>
      </trkpt>
      <trkpt lat="43.98726" lon="6.87609">
        <ele>881.40002441406</ele>
        <time>2020-09-12T13:42:16.000Z</time>
      </trkpt>
      <trkpt lat="43.98726" lon="6.8761">
        <ele>880.59997558594</ele>
        <time>2020-09-12T13:42:17.000Z</time>
      </trkpt>
      <trkpt lat="43.98726" lon="6.8761">
        <ele>879.59997558594</ele>
        <time>2020-09-12T13:42:18.000Z</time>
      </trkpt>
      <trkpt lat="43.98725" lon="6.87608">
        <ele>878.59997558594</ele>
        <time>2020-09-12T13:42:20.000Z</time>
      </trkpt>
      <trkpt lat="43.98721" lon="6.87603">
        <ele>878.40002441406</ele>
        <time>2020-09-12T13:42:22.000Z</time>
      </trkpt>
      <trkpt lat="43.98708" lon="6.87583">
        <ele>877.59997558594</ele>
        <time>2020-09-12T13:42:27.000Z</time>
      </trkpt>
      <trkpt lat="43.98705" lon="6.87574">
        <ele>876</ele>
        <time>2020-09-12T13:42:30.000Z</time>
      </trkpt>
      <trkpt lat="43.98706" lon="6.87571">
        <ele>875.40002441406</ele>
        <time>2020-09-12T13:42:31.000Z</time>
      </trkpt>
      <trkpt lat="43.98708" lon="6.87569">
        <ele>874.79998779297</ele>
        <time>2020-09-12T13:42:32.000Z</time>
      </trkpt>
      <trkpt lat="43.98718" lon="6.87568">
        <ele>873.59997558594</ele>
        <time>2020-09-12T13:42:35.000Z</time>
      </trkpt>
      <trkpt lat="43.98726" lon="6.87572">
        <ele>872.79998779297</ele>
        <time>2020-09-12T13:42:37.000Z</time>
      </trkpt>
      <trkpt lat="43.9873" lon="6.87573">
        <ele>872.20001220703</ele>
        <time>2020-09-12T13:42:38.000Z</time>
      </trkpt>
      <trkpt lat="43.98735" lon="6.87572">
        <ele>871</ele>
        <time>2020-09-12T13:42:40.000Z</time>
      </trkpt>
      <trkpt lat="43.98736" lon="6.8757">
        <ele>869.59997558594</ele>
        <time>2020-09-12T13:42:42.000Z</time>
      </trkpt>
      <trkpt lat="43.98736" lon="6.8757">
        <ele>869</ele>
        <time>2020-09-12T13:42:43.000Z</time>
      </trkpt>
      <trkpt lat="43.98736" lon="6.8757">
        <ele>868.59997558594</ele>
        <time>2020-09-12T13:42:44.000Z</time>
      </trkpt>
      <trkpt lat="43.98736" lon="6.8757">
        <ele>868.20001220703</ele>
        <time>2020-09-12T13:42:54.000Z</time>
      </trkpt>
      <trkpt lat="43.98737" lon="6.87567">
        <ele>868.20001220703</ele>
        <time>2020-09-12T13:42:59.000Z</time>
      </trkpt>
      <trkpt lat="43.98737" lon="6.87562">
        <ele>868.20001220703</ele>
        <time>2020-09-12T13:43:00.000Z</time>
      </trkpt>
      <trkpt lat="43.98734" lon="6.87543">
        <ele>867.79998779297</ele>
        <time>2020-09-12T13:43:04.000Z</time>
      </trkpt>
      <trkpt lat="43.98732" lon="6.8754">
        <ele>867.59997558594</ele>
        <time>2020-09-12T13:43:05.000Z</time>
      </trkpt>
      <trkpt lat="43.98726" lon="6.87532">
        <ele>866.59997558594</ele>
        <time>2020-09-12T13:43:08.000Z</time>
      </trkpt>
      <trkpt lat="43.98722" lon="6.87529">
        <ele>867</ele>
        <time>2020-09-12T13:43:11.000Z</time>
      </trkpt>
      <trkpt lat="43.98721" lon="6.87531">
        <ele>867</ele>
        <time>2020-09-12T13:43:12.000Z</time>
      </trkpt>
      <trkpt lat="43.98718" lon="6.87542">
        <ele>867</ele>
        <time>2020-09-12T13:43:16.000Z</time>
      </trkpt>
      <trkpt lat="43.98716" lon="6.87544">
        <ele>867.79998779297</ele>
        <time>2020-09-12T13:43:20.000Z</time>
      </trkpt>
      <trkpt lat="43.98716" lon="6.87543">
        <ele>868.59997558594</ele>
        <time>2020-09-12T13:43:24.000Z</time>
      </trkpt>
      <trkpt lat="43.98716" lon="6.87543">
        <ele>868.59997558594</ele>
        <time>2020-09-12T13:43:27.000Z</time>
      </trkpt>
      <trkpt lat="43.98716" lon="6.87543">
        <ele>868.59997558594</ele>
        <time>2020-09-12T13:43:36.000Z</time>
      </trkpt>
      <trkpt lat="43.98716" lon="6.87543">
        <ele>868.79998779297</ele>
        <time>2020-09-12T13:43:45.000Z</time>
      </trkpt>
      <trkpt lat="43.98715" lon="6.87541">
        <ele>868.79998779297</ele>
        <time>2020-09-12T13:43:51.000Z</time>
      </trkpt>
      <trkpt lat="43.98717" lon="6.87543">
        <ele>868.59997558594</ele>
        <time>2020-09-12T13:43:58.000Z</time>
      </trkpt>
      <trkpt lat="43.98717" lon="6.87543">
        <ele>868.79998779297</ele>
        <time>2020-09-12T13:44:04.000Z</time>
      </trkpt>
      <trkpt lat="43.98716" lon="6.87542">
        <ele>868.79998779297</ele>
        <time>2020-09-12T13:44:10.000Z</time>
      </trkpt>
      <trkpt lat="43.98718" lon="6.87545">
        <ele>868.59997558594</ele>
        <time>2020-09-12T13:44:16.000Z</time>
      </trkpt>
      <trkpt lat="43.98718" lon="6.87544">
        <ele>868.79998779297</ele>
        <time>2020-09-12T13:44:21.000Z</time>
      </trkpt>
      <trkpt lat="43.98718" lon="6.87544">
        <ele>868.79998779297</ele>
        <time>2020-09-12T13:44:27.000Z</time>
      </trkpt>
      <trkpt lat="43.98717" lon="6.87542">
        <ele>868.59997558594</ele>
        <time>2020-09-12T13:44:33.000Z</time>
      </trkpt>
      <trkpt lat="43.98716" lon="6.87538">
        <ele>868.40002441406</ele>
        <time>2020-09-12T13:44:42.000Z</time>
      </trkpt>
      <trkpt lat="43.98715" lon="6.87538">
        <ele>868.40002441406</ele>
        <time>2020-09-12T13:44:48.000Z</time>
      </trkpt>
      <trkpt lat="43.98714" lon="6.87538">
        <ele>868.40002441406</ele>
        <time>2020-09-12T13:44:56.000Z</time>
      </trkpt>
      <trkpt lat="43.98712" lon="6.87536">
        <ele>868.59997558594</ele>
        <time>2020-09-12T13:45:05.000Z</time>
      </trkpt>
      <trkpt lat="43.98712" lon="6.87539">
        <ele>868.40002441406</ele>
        <time>2020-09-12T13:45:10.000Z</time>
      </trkpt>
      <trkpt lat="43.98712" lon="6.87541">
        <ele>868.79998779297</ele>
        <time>2020-09-12T13:45:20.000Z</time>
      </trkpt>
      <trkpt lat="43.98712" lon="6.87542">
        <ele>868.59997558594</ele>
        <time>2020-09-12T13:45:35.000Z</time>
      </trkpt>
      <trkpt lat="43.98712" lon="6.87543">
        <ele>868.59997558594</ele>
        <time>2020-09-12T13:45:46.000Z</time>
      </trkpt>
      <trkpt lat="43.98713" lon="6.87543">
        <ele>868.40002441406</ele>
        <time>2020-09-12T13:46:00.000Z</time>
      </trkpt>
      <trkpt lat="43.98713" lon="6.87543">
        <ele>868.40002441406</ele>
        <time>2020-09-12T13:46:12.000Z</time>
      </trkpt>
      <trkpt lat="43.98714" lon="6.87543">
        <ele>868.40002441406</ele>
        <time>2020-09-12T13:46:22.000Z</time>
      </trkpt>
      <trkpt lat="43.98714" lon="6.87543">
        <ele>868.20001220703</ele>
        <time>2020-09-12T13:46:36.000Z</time>
      </trkpt>
      <trkpt lat="43.98714" lon="6.87543">
        <ele>868.40002441406</ele>
        <time>2020-09-12T13:46:53.000Z</time>
      </trkpt>
      <trkpt lat="43.98713" lon="6.87544">
        <ele>868.59997558594</ele>
        <time>2020-09-12T13:47:00.000Z</time>
      </trkpt>
      <trkpt lat="43.98713" lon="6.87544">
        <ele>869</ele>
        <time>2020-09-12T13:47:05.000Z</time>
      </trkpt>
      <trkpt lat="43.98713" lon="6.87543">
        <ele>868.79998779297</ele>
        <time>2020-09-12T13:47:14.000Z</time>
      </trkpt>
      <trkpt lat="43.98713" lon="6.87542">
        <ele>868.59997558594</ele>
        <time>2020-09-12T13:47:21.000Z</time>
      </trkpt>
      <trkpt lat="43.98714" lon="6.87542">
        <ele>868.40002441406</ele>
        <time>2020-09-12T13:47:31.000Z</time>
      </trkpt>
      <trkpt lat="43.98715" lon="6.8754">
        <ele>868.20001220703</ele>
        <time>2020-09-12T13:47:39.000Z</time>
      </trkpt>
      <trkpt lat="43.98716" lon="6.87539">
        <ele>868</ele>
        <time>2020-09-12T13:47:54.000Z</time>
      </trkpt>
      <trkpt lat="43.98716" lon="6.87537">
        <ele>868</ele>
        <time>2020-09-12T13:48:01.000Z</time>
      </trkpt>
      <trkpt lat="43.98715" lon="6.87538">
        <ele>868</ele>
        <time>2020-09-12T13:48:07.000Z</time>
      </trkpt>
      <trkpt lat="43.98714" lon="6.87538">
        <ele>868.40002441406</ele>
        <time>2020-09-12T13:48:15.000Z</time>
      </trkpt>
      <trkpt lat="43.98713" lon="6.87537">
        <ele>868.79998779297</ele>
        <time>2020-09-12T13:48:26.000Z</time>
      </trkpt>
      <trkpt lat="43.98713" lon="6.87537">
        <ele>868.79998779297</ele>
        <time>2020-09-12T13:48:32.000Z</time>
      </trkpt>
      <trkpt lat="43.98713" lon="6.87538">
        <ele>868.79998779297</ele>
        <time>2020-09-12T13:48:44.000Z</time>
      </trkpt>
      <trkpt lat="43.98715" lon="6.87539">
        <ele>868.59997558594</ele>
        <time>2020-09-12T13:48:52.000Z</time>
      </trkpt>
      <trkpt lat="43.98715" lon="6.87537">
        <ele>868.59997558594</ele>
        <time>2020-09-12T13:48:53.000Z</time>
      </trkpt>
      <trkpt lat="43.9872" lon="6.87529">
        <ele>868.59997558594</ele>
        <time>2020-09-12T13:48:55.000Z</time>
      </trkpt>
      <trkpt lat="43.98726" lon="6.87522">
        <ele>868.40002441406</ele>
        <time>2020-09-12T13:48:57.000Z</time>
      </trkpt>
      <trkpt lat="43.98729" lon="6.87525">
        <ele>868</ele>
        <time>2020-09-12T13:48:58.000Z</time>
      </trkpt>
      <trkpt lat="43.98732" lon="6.87533">
        <ele>867.40002441406</ele>
        <time>2020-09-12T13:49:00.000Z</time>
      </trkpt>
      <trkpt lat="43.98735" lon="6.87536">
        <ele>867.40002441406</ele>
        <time>2020-09-12T13:49:01.000Z</time>
      </trkpt>
      <trkpt lat="43.98745" lon="6.87534">
        <ele>867</ele>
        <time>2020-09-12T13:49:05.000Z</time>
      </trkpt>
      <trkpt lat="43.9875" lon="6.87523">
        <ele>866.20001220703</ele>
        <time>2020-09-12T13:49:07.000Z</time>
      </trkpt>
      <trkpt lat="43.98754" lon="6.87511">
        <ele>865.20001220703</ele>
        <time>2020-09-12T13:49:09.000Z</time>
      </trkpt>
      <trkpt lat="43.98761" lon="6.87505">
        <ele>864.20001220703</ele>
        <time>2020-09-12T13:49:11.000Z</time>
      </trkpt>
      <trkpt lat="43.98765" lon="6.87508">
        <ele>863.59997558594</ele>
        <time>2020-09-12T13:49:12.000Z</time>
      </trkpt>
      <trkpt lat="43.98764" lon="6.87514">
        <ele>863</ele>
        <time>2020-09-12T13:49:13.000Z</time>
      </trkpt>
      <trkpt lat="43.98763" lon="6.87518">
        <ele>862.40002441406</ele>
        <time>2020-09-12T13:49:14.000Z</time>
      </trkpt>
      <trkpt lat="43.98761" lon="6.87522">
        <ele>862</ele>
        <time>2020-09-12T13:49:15.000Z</time>
      </trkpt>
      <trkpt lat="43.98761" lon="6.87538">
        <ele>861.59997558594</ele>
        <time>2020-09-12T13:49:18.000Z</time>
      </trkpt>
      <trkpt lat="43.98774" lon="6.87555">
        <ele>861.79998779297</ele>
        <time>2020-09-12T13:49:22.000Z</time>
      </trkpt>
      <trkpt lat="43.98787" lon="6.87563">
        <ele>861.59997558594</ele>
        <time>2020-09-12T13:49:24.000Z</time>
      </trkpt>
      <trkpt lat="43.98802" lon="6.87576">
        <ele>860.79998779297</ele>
        <time>2020-09-12T13:49:26.000Z</time>
      </trkpt>
      <trkpt lat="43.98813" lon="6.87587">
        <ele>859.20001220703</ele>
        <time>2020-09-12T13:49:28.000Z</time>
      </trkpt>
      <trkpt lat="43.98822" lon="6.87596">
        <ele>857.40002441406</ele>
        <time>2020-09-12T13:49:30.000Z</time>
      </trkpt>
      <trkpt lat="43.98832" lon="6.87606">
        <ele>855.59997558594</ele>
        <time>2020-09-12T13:49:32.000Z</time>
      </trkpt>
      <trkpt lat="43.9884" lon="6.87613">
        <ele>854.59997558594</ele>
        <time>2020-09-12T13:49:34.000Z</time>
      </trkpt>
      <trkpt lat="43.98843" lon="6.87616">
        <ele>854.20001220703</ele>
        <time>2020-09-12T13:49:35.000Z</time>
      </trkpt>
      <trkpt lat="43.98846" lon="6.87619">
        <ele>854</ele>
        <time>2020-09-12T13:49:36.000Z</time>
      </trkpt>
      <trkpt lat="43.98863" lon="6.87625">
        <ele>853.59997558594</ele>
        <time>2020-09-12T13:49:40.000Z</time>
      </trkpt>
      <trkpt lat="43.98871" lon="6.87627">
        <ele>853.40002441406</ele>
        <time>2020-09-12T13:49:42.000Z</time>
      </trkpt>
      <trkpt lat="43.98892" lon="6.8763">
        <ele>852.40002441406</ele>
        <time>2020-09-12T13:49:47.000Z</time>
      </trkpt>
      <trkpt lat="43.98897" lon="6.87632">
        <ele>852</ele>
        <time>2020-09-12T13:49:48.000Z</time>
      </trkpt>
      <trkpt lat="43.98909" lon="6.87643">
        <ele>851.20001220703</ele>
        <time>2020-09-12T13:49:51.000Z</time>
      </trkpt>
      <trkpt lat="43.98913" lon="6.87648">
        <ele>851</ele>
        <time>2020-09-12T13:49:52.000Z</time>
      </trkpt>
      <trkpt lat="43.98921" lon="6.87659">
        <ele>850.59997558594</ele>
        <time>2020-09-12T13:49:54.000Z</time>
      </trkpt>
      <trkpt lat="43.98926" lon="6.87671">
        <ele>850.40002441406</ele>
        <time>2020-09-12T13:49:56.000Z</time>
      </trkpt>
      <trkpt lat="43.98929" lon="6.87679">
        <ele>850.20001220703</ele>
        <time>2020-09-12T13:49:57.000Z</time>
      </trkpt>
      <trkpt lat="43.98935" lon="6.8769">
        <ele>849.79998779297</ele>
        <time>2020-09-12T13:49:59.000Z</time>
      </trkpt>
      <trkpt lat="43.98945" lon="6.87696">
        <ele>849.40002441406</ele>
        <time>2020-09-12T13:50:01.000Z</time>
      </trkpt>
      <trkpt lat="43.98955" lon="6.87696">
        <ele>849.20001220703</ele>
        <time>2020-09-12T13:50:03.000Z</time>
      </trkpt>
      <trkpt lat="43.98961" lon="6.87698">
        <ele>849</ele>
        <time>2020-09-12T13:50:04.000Z</time>
      </trkpt>
      <trkpt lat="43.98966" lon="6.87701">
        <ele>849</ele>
        <time>2020-09-12T13:50:05.000Z</time>
      </trkpt>
      <trkpt lat="43.98984" lon="6.87713">
        <ele>848.20001220703</ele>
        <time>2020-09-12T13:50:09.000Z</time>
      </trkpt>
      <trkpt lat="43.98988" lon="6.87716">
        <ele>847.79998779297</ele>
        <time>2020-09-12T13:50:10.000Z</time>
      </trkpt>
      <trkpt lat="43.98996" lon="6.8772">
        <ele>847</ele>
        <time>2020-09-12T13:50:12.000Z</time>
      </trkpt>
      <trkpt lat="43.98999" lon="6.87721">
        <ele>846.59997558594</ele>
        <time>2020-09-12T13:50:13.000Z</time>
      </trkpt>
      <trkpt lat="43.99001" lon="6.87723">
        <ele>846.20001220703</ele>
        <time>2020-09-12T13:50:14.000Z</time>
      </trkpt>
      <trkpt lat="43.99003" lon="6.87727">
        <ele>845.40002441406</ele>
        <time>2020-09-12T13:50:16.000Z</time>
      </trkpt>
      <trkpt lat="43.99003" lon="6.87728">
        <ele>845.20001220703</ele>
        <time>2020-09-12T13:50:17.000Z</time>
      </trkpt>
      <trkpt lat="43.99003" lon="6.8773">
        <ele>845</ele>
        <time>2020-09-12T13:50:18.000Z</time>
      </trkpt>
      <trkpt lat="43.99002" lon="6.87738">
        <ele>844.40002441406</ele>
        <time>2020-09-12T13:50:20.000Z</time>
      </trkpt>
      <trkpt lat="43.99001" lon="6.8775">
        <ele>843.79998779297</ele>
        <time>2020-09-12T13:50:22.000Z</time>
      </trkpt>
      <trkpt lat="43.99" lon="6.87757">
        <ele>843.40002441406</ele>
        <time>2020-09-12T13:50:23.000Z</time>
      </trkpt>
      <trkpt lat="43.98996" lon="6.87777">
        <ele>842.59997558594</ele>
        <time>2020-09-12T13:50:25.000Z</time>
      </trkpt>
      <trkpt lat="43.98994" lon="6.87786">
        <ele>842</ele>
        <time>2020-09-12T13:50:26.000Z</time>
      </trkpt>
      <trkpt lat="43.9899" lon="6.87803">
        <ele>840.79998779297</ele>
        <time>2020-09-12T13:50:28.000Z</time>
      </trkpt>
      <trkpt lat="43.98996" lon="6.87816">
        <ele>839.20001220703</ele>
        <time>2020-09-12T13:50:30.000Z</time>
      </trkpt>
      <trkpt lat="43.99007" lon="6.8782">
        <ele>837.40002441406</ele>
        <time>2020-09-12T13:50:32.000Z</time>
      </trkpt>
      <trkpt lat="43.99013" lon="6.87823">
        <ele>836.40002441406</ele>
        <time>2020-09-12T13:50:33.000Z</time>
      </trkpt>
      <trkpt lat="43.99018" lon="6.87827">
        <ele>835.79998779297</ele>
        <time>2020-09-12T13:50:34.000Z</time>
      </trkpt>
      <trkpt lat="43.99033" lon="6.87824">
        <ele>835.20001220703</ele>
        <time>2020-09-12T13:50:37.000Z</time>
      </trkpt>
      <trkpt lat="43.99038" lon="6.87811">
        <ele>834.79998779297</ele>
        <time>2020-09-12T13:50:40.000Z</time>
      </trkpt>
      <trkpt lat="43.99047" lon="6.87802">
        <ele>834.79998779297</ele>
        <time>2020-09-12T13:50:44.000Z</time>
      </trkpt>
      <trkpt lat="43.99054" lon="6.87799">
        <ele>835.79998779297</ele>
        <time>2020-09-12T13:50:48.000Z</time>
      </trkpt>
      <trkpt lat="43.99058" lon="6.87798">
        <ele>836.40002441406</ele>
        <time>2020-09-12T13:50:50.000Z</time>
      </trkpt>
      <trkpt lat="43.99061" lon="6.87798">
        <ele>837</ele>
        <time>2020-09-12T13:50:52.000Z</time>
      </trkpt>
      <trkpt lat="43.99067" lon="6.87799">
        <ele>838</ele>
        <time>2020-09-12T13:50:56.000Z</time>
      </trkpt>
      <trkpt lat="43.99072" lon="6.87801">
        <ele>838.79998779297</ele>
        <time>2020-09-12T13:50:59.000Z</time>
      </trkpt>
      <trkpt lat="43.99076" lon="6.87801">
        <ele>839.20001220703</ele>
        <time>2020-09-12T13:51:01.000Z</time>
      </trkpt>
      <trkpt lat="43.99086" lon="6.87798">
        <ele>840</ele>
        <time>2020-09-12T13:51:06.000Z</time>
      </trkpt>
      <trkpt lat="43.99092" lon="6.87794">
        <ele>840.20001220703</ele>
        <time>2020-09-12T13:51:09.000Z</time>
      </trkpt>
      <trkpt lat="43.99105" lon="6.87788">
        <ele>840.59997558594</ele>
        <time>2020-09-12T13:51:14.000Z</time>
      </trkpt>
      <trkpt lat="43.99121" lon="6.87782">
        <ele>841.20001220703</ele>
        <time>2020-09-12T13:51:20.000Z</time>
      </trkpt>
      <trkpt lat="43.99128" lon="6.87776">
        <ele>841.59997558594</ele>
        <time>2020-09-12T13:51:23.000Z</time>
      </trkpt>
      <trkpt lat="43.99139" lon="6.8776">
        <ele>842.40002441406</ele>
        <time>2020-09-12T13:51:29.000Z</time>
      </trkpt>
      <trkpt lat="43.9914" lon="6.87757">
        <ele>842.59997558594</ele>
        <time>2020-09-12T13:51:30.000Z</time>
      </trkpt>
      <trkpt lat="43.99144" lon="6.87745">
        <ele>843.59997558594</ele>
        <time>2020-09-12T13:51:34.000Z</time>
      </trkpt>
      <trkpt lat="43.9915" lon="6.87737">
        <ele>844.59997558594</ele>
        <time>2020-09-12T13:51:38.000Z</time>
      </trkpt>
      <trkpt lat="43.99152" lon="6.87735">
        <ele>844.79998779297</ele>
        <time>2020-09-12T13:51:39.000Z</time>
      </trkpt>
      <trkpt lat="43.99161" lon="6.8772">
        <ele>845.59997558594</ele>
        <time>2020-09-12T13:51:45.000Z</time>
      </trkpt>
      <trkpt lat="43.99163" lon="6.87709">
        <ele>845.79998779297</ele>
        <time>2020-09-12T13:51:48.000Z</time>
      </trkpt>
      <trkpt lat="43.99165" lon="6.87691">
        <ele>846.20001220703</ele>
        <time>2020-09-12T13:51:53.000Z</time>
      </trkpt>
      <trkpt lat="43.99168" lon="6.87676">
        <ele>846.79998779297</ele>
        <time>2020-09-12T13:51:57.000Z</time>
      </trkpt>
      <trkpt lat="43.99169" lon="6.87662">
        <ele>847.40002441406</ele>
        <time>2020-09-12T13:52:01.000Z</time>
      </trkpt>
      <trkpt lat="43.9917" lon="6.87641">
        <ele>848</ele>
        <time>2020-09-12T13:52:06.000Z</time>
      </trkpt>
      <trkpt lat="43.99171" lon="6.87633">
        <ele>848</ele>
        <time>2020-09-12T13:52:08.000Z</time>
      </trkpt>
      <trkpt lat="43.99174" lon="6.87614">
        <ele>848.59997558594</ele>
        <time>2020-09-12T13:52:14.000Z</time>
      </trkpt>
      <trkpt lat="43.99176" lon="6.87609">
        <ele>849</ele>
        <time>2020-09-12T13:52:16.000Z</time>
      </trkpt>
      <trkpt lat="43.99182" lon="6.87596">
        <ele>850</ele>
        <time>2020-09-12T13:52:21.000Z</time>
      </trkpt>
      <trkpt lat="43.99184" lon="6.87593">
        <ele>850</ele>
        <time>2020-09-12T13:52:22.000Z</time>
      </trkpt>
      <trkpt lat="43.99196" lon="6.87576">
        <ele>851.20001220703</ele>
        <time>2020-09-12T13:52:29.000Z</time>
      </trkpt>
      <trkpt lat="43.99198" lon="6.8757">
        <ele>851.40002441406</ele>
        <time>2020-09-12T13:52:31.000Z</time>
      </trkpt>
      <trkpt lat="43.99205" lon="6.87549">
        <ele>852.20001220703</ele>
        <time>2020-09-12T13:52:37.000Z</time>
      </trkpt>
      <trkpt lat="43.99208" lon="6.87538">
        <ele>852.20001220703</ele>
        <time>2020-09-12T13:52:40.000Z</time>
      </trkpt>
      <trkpt lat="43.99211" lon="6.87509">
        <ele>853</ele>
        <time>2020-09-12T13:52:48.000Z</time>
      </trkpt>
      <trkpt lat="43.99211" lon="6.8748">
        <ele>853.20001220703</ele>
        <time>2020-09-12T13:52:54.000Z</time>
      </trkpt>
      <trkpt lat="43.99213" lon="6.87474">
        <ele>853</ele>
        <time>2020-09-12T13:52:55.000Z</time>
      </trkpt>
      <trkpt lat="43.99223" lon="6.87458">
        <ele>852.59997558594</ele>
        <time>2020-09-12T13:52:58.000Z</time>
      </trkpt>
      <trkpt lat="43.99241" lon="6.87448">
        <ele>851.20001220703</ele>
        <time>2020-09-12T13:53:02.000Z</time>
      </trkpt>
      <trkpt lat="43.9925" lon="6.87442">
        <ele>850.59997558594</ele>
        <time>2020-09-12T13:53:04.000Z</time>
      </trkpt>
      <trkpt lat="43.99257" lon="6.87431">
        <ele>850.40002441406</ele>
        <time>2020-09-12T13:53:06.000Z</time>
      </trkpt>
      <trkpt lat="43.99262" lon="6.8742">
        <ele>850.20001220703</ele>
        <time>2020-09-12T13:53:08.000Z</time>
      </trkpt>
      <trkpt lat="43.99265" lon="6.87414">
        <ele>850</ele>
        <time>2020-09-12T13:53:09.000Z</time>
      </trkpt>
      <trkpt lat="43.99269" lon="6.87409">
        <ele>849.79998779297</ele>
        <time>2020-09-12T13:53:10.000Z</time>
      </trkpt>
      <trkpt lat="43.99273" lon="6.87404">
        <ele>849.79998779297</ele>
        <time>2020-09-12T13:53:11.000Z</time>
      </trkpt>
      <trkpt lat="43.99284" lon="6.87395">
        <ele>849</ele>
        <time>2020-09-12T13:53:13.000Z</time>
      </trkpt>
      <trkpt lat="43.99288" lon="6.87392">
        <ele>848.79998779297</ele>
        <time>2020-09-12T13:53:14.000Z</time>
      </trkpt>
      <trkpt lat="43.99298" lon="6.87386">
        <ele>848.20001220703</ele>
        <time>2020-09-12T13:53:16.000Z</time>
      </trkpt>
      <trkpt lat="43.99319" lon="6.87374">
        <ele>848.40002441406</ele>
        <time>2020-09-12T13:53:22.000Z</time>
      </trkpt>
      <trkpt lat="43.99332" lon="6.87368">
        <ele>849.79998779297</ele>
        <time>2020-09-12T13:53:28.000Z</time>
      </trkpt>
      <trkpt lat="43.99336" lon="6.87367">
        <ele>850.20001220703</ele>
        <time>2020-09-12T13:53:30.000Z</time>
      </trkpt>
      <trkpt lat="43.99344" lon="6.87367">
        <ele>851.20001220703</ele>
        <time>2020-09-12T13:53:34.000Z</time>
      </trkpt>
      <trkpt lat="43.99348" lon="6.87368">
        <ele>851.79998779297</ele>
        <time>2020-09-12T13:53:36.000Z</time>
      </trkpt>
      <trkpt lat="43.99351" lon="6.87369">
        <ele>852.20001220703</ele>
        <time>2020-09-12T13:53:38.000Z</time>
      </trkpt>
      <trkpt lat="43.99362" lon="6.87367">
        <ele>853.40002441406</ele>
        <time>2020-09-12T13:53:43.000Z</time>
      </trkpt>
      <trkpt lat="43.99364" lon="6.87366">
        <ele>853.59997558594</ele>
        <time>2020-09-12T13:53:44.000Z</time>
      </trkpt>
      <trkpt lat="43.99381" lon="6.87354">
        <ele>854.20001220703</ele>
        <time>2020-09-12T13:53:51.000Z</time>
      </trkpt>
      <trkpt lat="43.99393" lon="6.87357">
        <ele>854.40002441406</ele>
        <time>2020-09-12T13:53:56.000Z</time>
      </trkpt>
      <trkpt lat="43.99409" lon="6.87355">
        <ele>854.20001220703</ele>
        <time>2020-09-12T13:54:01.000Z</time>
      </trkpt>
      <trkpt lat="43.99412" lon="6.87355">
        <ele>853.79998779297</ele>
        <time>2020-09-12T13:54:05.000Z</time>
      </trkpt>
      <trkpt lat="43.99412" lon="6.87354">
        <ele>853.40002441406</ele>
        <time>2020-09-12T13:54:14.000Z</time>
      </trkpt>
      <trkpt lat="43.99414" lon="6.87352">
        <ele>853.40002441406</ele>
        <time>2020-09-12T13:54:21.000Z</time>
      </trkpt>
      <trkpt lat="43.99417" lon="6.87349">
        <ele>853.40002441406</ele>
        <time>2020-09-12T13:54:23.000Z</time>
      </trkpt>
      <trkpt lat="43.9943" lon="6.87333">
        <ele>852.79998779297</ele>
        <time>2020-09-12T13:54:28.000Z</time>
      </trkpt>
      <trkpt lat="43.99443" lon="6.87322">
        <ele>852.40002441406</ele>
        <time>2020-09-12T13:54:32.000Z</time>
      </trkpt>
      <trkpt lat="43.99455" lon="6.87312">
        <ele>852</ele>
        <time>2020-09-12T13:54:35.000Z</time>
      </trkpt>
      <trkpt lat="43.99473" lon="6.87294">
        <ele>851</ele>
        <time>2020-09-12T13:54:39.000Z</time>
      </trkpt>
      <trkpt lat="43.99477" lon="6.87287">
        <ele>850.59997558594</ele>
        <time>2020-09-12T13:54:40.000Z</time>
      </trkpt>
      <trkpt lat="43.9949" lon="6.87275">
        <ele>850</ele>
        <time>2020-09-12T13:54:43.000Z</time>
      </trkpt>
      <trkpt lat="43.99499" lon="6.8727">
        <ele>849.59997558594</ele>
        <time>2020-09-12T13:54:45.000Z</time>
      </trkpt>
      <trkpt lat="43.99509" lon="6.87261">
        <ele>848.40002441406</ele>
        <time>2020-09-12T13:54:48.000Z</time>
      </trkpt>
      <trkpt lat="43.99513" lon="6.87261">
        <ele>847.79998779297</ele>
        <time>2020-09-12T13:54:49.000Z</time>
      </trkpt>
      <trkpt lat="43.99517" lon="6.87265">
        <ele>847</ele>
        <time>2020-09-12T13:54:50.000Z</time>
      </trkpt>
      <trkpt lat="43.99524" lon="6.87272">
        <ele>845.40002441406</ele>
        <time>2020-09-12T13:54:52.000Z</time>
      </trkpt>
      <trkpt lat="43.99529" lon="6.87278">
        <ele>844.40002441406</ele>
        <time>2020-09-12T13:54:54.000Z</time>
      </trkpt>
      <trkpt lat="43.99538" lon="6.87285">
        <ele>843</ele>
        <time>2020-09-12T13:54:57.000Z</time>
      </trkpt>
      <trkpt lat="43.99541" lon="6.87288">
        <ele>842.20001220703</ele>
        <time>2020-09-12T13:54:58.000Z</time>
      </trkpt>
      <trkpt lat="43.99544" lon="6.87292">
        <ele>841.59997558594</ele>
        <time>2020-09-12T13:54:59.000Z</time>
      </trkpt>
      <trkpt lat="43.99549" lon="6.87303">
        <ele>840.20001220703</ele>
        <time>2020-09-12T13:55:01.000Z</time>
      </trkpt>
      <trkpt lat="43.99554" lon="6.87309">
        <ele>839.79998779297</ele>
        <time>2020-09-12T13:55:02.000Z</time>
      </trkpt>
      <trkpt lat="43.99558" lon="6.87314">
        <ele>839.20001220703</ele>
        <time>2020-09-12T13:55:03.000Z</time>
      </trkpt>
      <trkpt lat="43.99563" lon="6.87315">
        <ele>838.79998779297</ele>
        <time>2020-09-12T13:55:04.000Z</time>
      </trkpt>
      <trkpt lat="43.99569" lon="6.87318">
        <ele>837.40002441406</ele>
        <time>2020-09-12T13:55:06.000Z</time>
      </trkpt>
      <trkpt lat="43.99571" lon="6.87321">
        <ele>836</ele>
        <time>2020-09-12T13:55:08.000Z</time>
      </trkpt>
      <trkpt lat="43.99577" lon="6.87319">
        <ele>834.59997558594</ele>
        <time>2020-09-12T13:55:10.000Z</time>
      </trkpt>
      <trkpt lat="43.99581" lon="6.87323">
        <ele>833.59997558594</ele>
        <time>2020-09-12T13:55:12.000Z</time>
      </trkpt>
      <trkpt lat="43.99584" lon="6.87323">
        <ele>833.20001220703</ele>
        <time>2020-09-12T13:55:13.000Z</time>
      </trkpt>
      <trkpt lat="43.99591" lon="6.87319">
        <ele>832</ele>
        <time>2020-09-12T13:55:15.000Z</time>
      </trkpt>
      <trkpt lat="43.99595" lon="6.8732">
        <ele>831.20001220703</ele>
        <time>2020-09-12T13:55:16.000Z</time>
      </trkpt>
      <trkpt lat="43.996" lon="6.87323">
        <ele>830.79998779297</ele>
        <time>2020-09-12T13:55:17.000Z</time>
      </trkpt>
      <trkpt lat="43.99603" lon="6.87328">
        <ele>829.59997558594</ele>
        <time>2020-09-12T13:55:18.000Z</time>
      </trkpt>
      <trkpt lat="43.99606" lon="6.87332">
        <ele>829</ele>
        <time>2020-09-12T13:55:19.000Z</time>
      </trkpt>
      <trkpt lat="43.99609" lon="6.87337">
        <ele>828.40002441406</ele>
        <time>2020-09-12T13:55:20.000Z</time>
      </trkpt>
      <trkpt lat="43.99616" lon="6.87355">
        <ele>827.59997558594</ele>
        <time>2020-09-12T13:55:23.000Z</time>
      </trkpt>
      <trkpt lat="43.99624" lon="6.87363">
        <ele>827.20001220703</ele>
        <time>2020-09-12T13:55:25.000Z</time>
      </trkpt>
      <trkpt lat="43.99626" lon="6.87367">
        <ele>827</ele>
        <time>2020-09-12T13:55:26.000Z</time>
      </trkpt>
      <trkpt lat="43.99629" lon="6.87384">
        <ele>827</ele>
        <time>2020-09-12T13:55:29.000Z</time>
      </trkpt>
      <trkpt lat="43.99638" lon="6.87395">
        <ele>827.20001220703</ele>
        <time>2020-09-12T13:55:32.000Z</time>
      </trkpt>
      <trkpt lat="43.99638" lon="6.87415">
        <ele>827.40002441406</ele>
        <time>2020-09-12T13:55:35.000Z</time>
      </trkpt>
      <trkpt lat="43.99639" lon="6.87441">
        <ele>827.40002441406</ele>
        <time>2020-09-12T13:55:38.000Z</time>
      </trkpt>
      <trkpt lat="43.9964" lon="6.87448">
        <ele>827.20001220703</ele>
        <time>2020-09-12T13:55:39.000Z</time>
      </trkpt>
      <trkpt lat="43.99648" lon="6.87465">
        <ele>826.79998779297</ele>
        <time>2020-09-12T13:55:42.000Z</time>
      </trkpt>
      <trkpt lat="43.99665" lon="6.8747">
        <ele>825.79998779297</ele>
        <time>2020-09-12T13:55:45.000Z</time>
      </trkpt>
      <trkpt lat="43.99671" lon="6.87469">
        <ele>825.40002441406</ele>
        <time>2020-09-12T13:55:46.000Z</time>
      </trkpt>
      <trkpt lat="43.99676" lon="6.8747">
        <ele>824.79998779297</ele>
        <time>2020-09-12T13:55:47.000Z</time>
      </trkpt>
      <trkpt lat="43.99687" lon="6.87472">
        <ele>824.20001220703</ele>
        <time>2020-09-12T13:55:49.000Z</time>
      </trkpt>
      <trkpt lat="43.99691" lon="6.87473">
        <ele>824.20001220703</ele>
        <time>2020-09-12T13:55:50.000Z</time>
      </trkpt>
      <trkpt lat="43.99701" lon="6.87466">
        <ele>824.40002441406</ele>
        <time>2020-09-12T13:55:53.000Z</time>
      </trkpt>
      <trkpt lat="43.99704" lon="6.87463">
        <ele>824.20001220703</ele>
        <time>2020-09-12T13:55:54.000Z</time>
      </trkpt>
      <trkpt lat="43.99707" lon="6.87458">
        <ele>824.20001220703</ele>
        <time>2020-09-12T13:55:55.000Z</time>
      </trkpt>
      <trkpt lat="43.99711" lon="6.87446">
        <ele>823.79998779297</ele>
        <time>2020-09-12T13:55:57.000Z</time>
      </trkpt>
      <trkpt lat="43.99715" lon="6.8744">
        <ele>823.59997558594</ele>
        <time>2020-09-12T13:55:58.000Z</time>
      </trkpt>
      <trkpt lat="43.9972" lon="6.87433">
        <ele>823.20001220703</ele>
        <time>2020-09-12T13:56:00.000Z</time>
      </trkpt>
      <trkpt lat="43.99723" lon="6.87429">
        <ele>823</ele>
        <time>2020-09-12T13:56:01.000Z</time>
      </trkpt>
      <trkpt lat="43.99726" lon="6.87429">
        <ele>823</ele>
        <time>2020-09-12T13:56:02.000Z</time>
      </trkpt>
      <trkpt lat="43.99735" lon="6.87434">
        <ele>822.59997558594</ele>
        <time>2020-09-12T13:56:04.000Z</time>
      </trkpt>
      <trkpt lat="43.9974" lon="6.87436">
        <ele>822.20001220703</ele>
        <time>2020-09-12T13:56:05.000Z</time>
      </trkpt>
      <trkpt lat="43.99745" lon="6.87439">
        <ele>821.59997558594</ele>
        <time>2020-09-12T13:56:06.000Z</time>
      </trkpt>
      <trkpt lat="43.9975" lon="6.8744">
        <ele>821</ele>
        <time>2020-09-12T13:56:07.000Z</time>
      </trkpt>
      <trkpt lat="43.99759" lon="6.87435">
        <ele>819.59997558594</ele>
        <time>2020-09-12T13:56:09.000Z</time>
      </trkpt>
      <trkpt lat="43.99764" lon="6.87432">
        <ele>818.40002441406</ele>
        <time>2020-09-12T13:56:10.000Z</time>
      </trkpt>
      <trkpt lat="43.99768" lon="6.87427">
        <ele>818</ele>
        <time>2020-09-12T13:56:11.000Z</time>
      </trkpt>
      <trkpt lat="43.99771" lon="6.8742">
        <ele>816.79998779297</ele>
        <time>2020-09-12T13:56:12.000Z</time>
      </trkpt>
      <trkpt lat="43.99774" lon="6.87414">
        <ele>816</ele>
        <time>2020-09-12T13:56:13.000Z</time>
      </trkpt>
      <trkpt lat="43.99778" lon="6.87409">
        <ele>815.20001220703</ele>
        <time>2020-09-12T13:56:14.000Z</time>
      </trkpt>
      <trkpt lat="43.99787" lon="6.87403">
        <ele>813.79998779297</ele>
        <time>2020-09-12T13:56:16.000Z</time>
      </trkpt>
      <trkpt lat="43.99791" lon="6.87404">
        <ele>813.40002441406</ele>
        <time>2020-09-12T13:56:17.000Z</time>
      </trkpt>
      <trkpt lat="43.99797" lon="6.87405">
        <ele>812.79998779297</ele>
        <time>2020-09-12T13:56:18.000Z</time>
      </trkpt>
      <trkpt lat="43.99806" lon="6.87404">
        <ele>811.59997558594</ele>
        <time>2020-09-12T13:56:20.000Z</time>
      </trkpt>
      <trkpt lat="43.99812" lon="6.87403">
        <ele>811</ele>
        <time>2020-09-12T13:56:21.000Z</time>
      </trkpt>
      <trkpt lat="43.99817" lon="6.87402">
        <ele>810.40002441406</ele>
        <time>2020-09-12T13:56:22.000Z</time>
      </trkpt>
      <trkpt lat="43.99823" lon="6.874">
        <ele>809.79998779297</ele>
        <time>2020-09-12T13:56:23.000Z</time>
      </trkpt>
      <trkpt lat="43.99828" lon="6.87395">
        <ele>809.20001220703</ele>
        <time>2020-09-12T13:56:24.000Z</time>
      </trkpt>
      <trkpt lat="43.99831" lon="6.87391">
        <ele>808.59997558594</ele>
        <time>2020-09-12T13:56:25.000Z</time>
      </trkpt>
      <trkpt lat="43.99835" lon="6.87387">
        <ele>808</ele>
        <time>2020-09-12T13:56:26.000Z</time>
      </trkpt>
      <trkpt lat="43.99838" lon="6.87385">
        <ele>807</ele>
        <time>2020-09-12T13:56:27.000Z</time>
      </trkpt>
      <trkpt lat="43.99843" lon="6.87384">
        <ele>806</ele>
        <time>2020-09-12T13:56:28.000Z</time>
      </trkpt>
      <trkpt lat="43.99846" lon="6.87386">
        <ele>805.59997558594</ele>
        <time>2020-09-12T13:56:29.000Z</time>
      </trkpt>
      <trkpt lat="43.9985" lon="6.87387">
        <ele>804.59997558594</ele>
        <time>2020-09-12T13:56:30.000Z</time>
      </trkpt>
      <trkpt lat="43.99859" lon="6.87393">
        <ele>803.20001220703</ele>
        <time>2020-09-12T13:56:32.000Z</time>
      </trkpt>
      <trkpt lat="43.99864" lon="6.87396">
        <ele>802.59997558594</ele>
        <time>2020-09-12T13:56:33.000Z</time>
      </trkpt>
      <trkpt lat="43.99868" lon="6.87399">
        <ele>802.20001220703</ele>
        <time>2020-09-12T13:56:34.000Z</time>
      </trkpt>
      <trkpt lat="43.99878" lon="6.87405">
        <ele>801</ele>
        <time>2020-09-12T13:56:36.000Z</time>
      </trkpt>
      <trkpt lat="43.99884" lon="6.87407">
        <ele>800.59997558594</ele>
        <time>2020-09-12T13:56:37.000Z</time>
      </trkpt>
      <trkpt lat="43.99894" lon="6.87414">
        <ele>799.79998779297</ele>
        <time>2020-09-12T13:56:39.000Z</time>
      </trkpt>
      <trkpt lat="43.9991" lon="6.87426">
        <ele>798.59997558594</ele>
        <time>2020-09-12T13:56:42.000Z</time>
      </trkpt>
      <trkpt lat="43.99914" lon="6.87431">
        <ele>798.20001220703</ele>
        <time>2020-09-12T13:56:43.000Z</time>
      </trkpt>
      <trkpt lat="43.99919" lon="6.87436">
        <ele>797.59997558594</ele>
        <time>2020-09-12T13:56:44.000Z</time>
      </trkpt>
      <trkpt lat="43.99924" lon="6.8744">
        <ele>797</ele>
        <time>2020-09-12T13:56:45.000Z</time>
      </trkpt>
      <trkpt lat="43.99929" lon="6.87445">
        <ele>795.79998779297</ele>
        <time>2020-09-12T13:56:47.000Z</time>
      </trkpt>
      <trkpt lat="43.99937" lon="6.8745">
        <ele>794.59997558594</ele>
        <time>2020-09-12T13:56:49.000Z</time>
      </trkpt>
      <trkpt lat="43.99946" lon="6.87447">
        <ele>793.40002441406</ele>
        <time>2020-09-12T13:56:51.000Z</time>
      </trkpt>
      <trkpt lat="43.99953" lon="6.87446">
        <ele>792.20001220703</ele>
        <time>2020-09-12T13:56:53.000Z</time>
      </trkpt>
      <trkpt lat="43.99958" lon="6.87447">
        <ele>791.79998779297</ele>
        <time>2020-09-12T13:56:54.000Z</time>
      </trkpt>
      <trkpt lat="43.99962" lon="6.8745">
        <ele>791.40002441406</ele>
        <time>2020-09-12T13:56:55.000Z</time>
      </trkpt>
      <trkpt lat="43.99963" lon="6.87456">
        <ele>791.20001220703</ele>
        <time>2020-09-12T13:56:56.000Z</time>
      </trkpt>
      <trkpt lat="43.99967" lon="6.87465">
        <ele>790.59997558594</ele>
        <time>2020-09-12T13:56:58.000Z</time>
      </trkpt>
      <trkpt lat="43.99973" lon="6.87465">
        <ele>790</ele>
        <time>2020-09-12T13:57:00.000Z</time>
      </trkpt>
      <trkpt lat="43.99976" lon="6.87464">
        <ele>789.79998779297</ele>
        <time>2020-09-12T13:57:01.000Z</time>
      </trkpt>
      <trkpt lat="43.99981" lon="6.8746">
        <ele>789.59997558594</ele>
        <time>2020-09-12T13:57:05.000Z</time>
      </trkpt>
      <trkpt lat="43.99987" lon="6.87453">
        <ele>790</ele>
        <time>2020-09-12T13:57:11.000Z</time>
      </trkpt>
      <trkpt lat="43.99999" lon="6.8743">
        <ele>789.79998779297</ele>
        <time>2020-09-12T13:57:18.000Z</time>
      </trkpt>
      <trkpt lat="44.00009" lon="6.8743">
        <ele>789.59997558594</ele>
        <time>2020-09-12T13:57:20.000Z</time>
      </trkpt>
      <trkpt lat="44.00014" lon="6.87433">
        <ele>789.59997558594</ele>
        <time>2020-09-12T13:57:21.000Z</time>
      </trkpt>
      <trkpt lat="44.00024" lon="6.87436">
        <ele>788.79998779297</ele>
        <time>2020-09-12T13:57:23.000Z</time>
      </trkpt>
      <trkpt lat="44.0004" lon="6.87432">
        <ele>787.59997558594</ele>
        <time>2020-09-12T13:57:25.000Z</time>
      </trkpt>
      <trkpt lat="44.00056" lon="6.87424">
        <ele>786</ele>
        <time>2020-09-12T13:57:27.000Z</time>
      </trkpt>
      <trkpt lat="44.00068" lon="6.87415">
        <ele>784</ele>
        <time>2020-09-12T13:57:29.000Z</time>
      </trkpt>
      <trkpt lat="44.00075" lon="6.87407">
        <ele>783</ele>
        <time>2020-09-12T13:57:30.000Z</time>
      </trkpt>
      <trkpt lat="44.0008" lon="6.87398">
        <ele>782</ele>
        <time>2020-09-12T13:57:31.000Z</time>
      </trkpt>
      <trkpt lat="44.00083" lon="6.8739">
        <ele>781</ele>
        <time>2020-09-12T13:57:32.000Z</time>
      </trkpt>
      <trkpt lat="44.00086" lon="6.87386">
        <ele>779.79998779297</ele>
        <time>2020-09-12T13:57:33.000Z</time>
      </trkpt>
      <trkpt lat="44.00089" lon="6.87386">
        <ele>778.40002441406</ele>
        <time>2020-09-12T13:57:34.000Z</time>
      </trkpt>
      <trkpt lat="44.00092" lon="6.8739">
        <ele>777</ele>
        <time>2020-09-12T13:57:35.000Z</time>
      </trkpt>
      <trkpt lat="44.00095" lon="6.87395">
        <ele>775.79998779297</ele>
        <time>2020-09-12T13:57:36.000Z</time>
      </trkpt>
      <trkpt lat="44.00098" lon="6.87395">
        <ele>774.59997558594</ele>
        <time>2020-09-12T13:57:37.000Z</time>
      </trkpt>
      <trkpt lat="44.00101" lon="6.87391">
        <ele>773.59997558594</ele>
        <time>2020-09-12T13:57:38.000Z</time>
      </trkpt>
      <trkpt lat="44.00104" lon="6.87385">
        <ele>773</ele>
        <time>2020-09-12T13:57:39.000Z</time>
      </trkpt>
      <trkpt lat="44.00109" lon="6.87381">
        <ele>772.20001220703</ele>
        <time>2020-09-12T13:57:40.000Z</time>
      </trkpt>
      <trkpt lat="44.00113" lon="6.87376">
        <ele>771.40002441406</ele>
        <time>2020-09-12T13:57:41.000Z</time>
      </trkpt>
      <trkpt lat="44.00117" lon="6.87372">
        <ele>770.79998779297</ele>
        <time>2020-09-12T13:57:42.000Z</time>
      </trkpt>
      <trkpt lat="44.0012" lon="6.87369">
        <ele>770.20001220703</ele>
        <time>2020-09-12T13:57:43.000Z</time>
      </trkpt>
      <trkpt lat="44.00123" lon="6.87368">
        <ele>769.59997558594</ele>
        <time>2020-09-12T13:57:44.000Z</time>
      </trkpt>
      <trkpt lat="44.00131" lon="6.87372">
        <ele>768.40002441406</ele>
        <time>2020-09-12T13:57:46.000Z</time>
      </trkpt>
      <trkpt lat="44.00136" lon="6.87386">
        <ele>767.40002441406</ele>
        <time>2020-09-12T13:57:49.000Z</time>
      </trkpt>
      <trkpt lat="44.00139" lon="6.87389">
        <ele>767.20001220703</ele>
        <time>2020-09-12T13:57:50.000Z</time>
      </trkpt>
      <trkpt lat="44.00145" lon="6.87397">
        <ele>767.40002441406</ele>
        <time>2020-09-12T13:57:52.000Z</time>
      </trkpt>
      <trkpt lat="44.00152" lon="6.87404">
        <ele>767.40002441406</ele>
        <time>2020-09-12T13:57:54.000Z</time>
      </trkpt>
      <trkpt lat="44.00172" lon="6.87424">
        <ele>766.59997558594</ele>
        <time>2020-09-12T13:57:59.000Z</time>
      </trkpt>
      <trkpt lat="44.00177" lon="6.87431">
        <ele>766.40002441406</ele>
        <time>2020-09-12T13:58:00.000Z</time>
      </trkpt>
      <trkpt lat="44.00183" lon="6.87441">
        <ele>766.20001220703</ele>
        <time>2020-09-12T13:58:02.000Z</time>
      </trkpt>
      <trkpt lat="44.00186" lon="6.87448">
        <ele>765.79998779297</ele>
        <time>2020-09-12T13:58:04.000Z</time>
      </trkpt>
      <trkpt lat="44.00186" lon="6.8745">
        <ele>765.59997558594</ele>
        <time>2020-09-12T13:58:07.000Z</time>
      </trkpt>
      <trkpt lat="44.00186" lon="6.87449">
        <ele>765.40002441406</ele>
        <time>2020-09-12T13:58:13.000Z</time>
      </trkpt>
      <trkpt lat="44.00186" lon="6.87448">
        <ele>765.20001220703</ele>
        <time>2020-09-12T13:58:21.000Z</time>
      </trkpt>
      <trkpt lat="44.00186" lon="6.87448">
        <ele>765.20001220703</ele>
        <time>2020-09-12T13:58:22.000Z</time>
      </trkpt>
      <trkpt lat="44.00186" lon="6.87448">
        <ele>765.20001220703</ele>
        <time>2020-09-12T13:58:24.000Z</time>
      </trkpt>
    </trkseg>
  </trk>
</gpx>